<?xml version='1.0' encoding='UTF-8'?><gpx version="1.1" creator="JPX - https://github.com/jenetics/jpx" xmlns="http://www.topografix.com/GPX/1/1"><trk><trkseg><trkpt lat="38.10589090576302" lon="15.641404830602347"><ele>22.0</ele><time>2026-04-24T11:11:11.999Z</time></trkpt><trkpt lat="38.105976104145824" lon="15.641330245186138"><ele>22.0</ele><time>2026-04-24T11:11:13.999Z</time></trkpt><trkpt lat="38.10602133711534" lon="15.641245605826773"><ele>22.0</ele><time>2026-04-24T11:11:15.999Z</time></trkpt><trkpt lat="38.10605525736393" lon="15.641176334152835"><ele>22.0</ele><time>2026-04-24T11:11:17.999Z</time></trkpt><trkpt lat="38.106100961212235" lon="15.641113840059985"><ele>22.0</ele><time>2026-04-24T11:11:19.999Z</time></trkpt><trkpt lat="38.10614713650881" lon="15.64104146253187"><ele>22.0</ele><time>2026-04-24T11:11:21.999Z</time></trkpt><trkpt lat="38.10621523474393" lon="15.640920725771094"><ele>21.6</ele><time>2026-04-24T11:11:23.999Z</time></trkpt><trkpt lat="38.10628438493279" lon="15.640838549486071"><ele>21.200000000000003</ele><time>2026-04-24T11:11:25.999Z</time></trkpt><trkpt lat="38.106351793782366" lon="15.64070943759714"><ele>20.8</ele><time>2026-04-24T11:11:27.999Z</time></trkpt><trkpt lat="38.10641612033226" lon="15.640605789414344"><ele>20.4</ele><time>2026-04-24T11:11:28.999Z</time></trkpt><trkpt lat="38.10646567880055" lon="15.640525184751013"><ele>20.0</ele><time>2026-04-24T11:11:29.999Z</time></trkpt><trkpt lat="38.106505138152926" lon="15.64045906691731"><ele>20.0</ele><time>2026-04-24T11:11:31.999Z</time></trkpt><trkpt lat="38.1065630036464" lon="15.64035244459568"><ele>20.0</ele><time>2026-04-24T11:11:34.999Z</time></trkpt><trkpt lat="38.10661947849636" lon="15.640271381662977"><ele>20.0</ele><time>2026-04-24T11:11:35.999Z</time></trkpt><trkpt lat="38.106663123195986" lon="15.640190220074253"><ele>20.0</ele><time>2026-04-24T11:11:36.999Z</time></trkpt><trkpt lat="38.1067270180141" lon="15.640092807707394"><ele>20.0</ele><time>2026-04-24T11:11:38.999Z</time></trkpt><trkpt lat="38.106771221347664" lon="15.64003415304785"><ele>20.0</ele><time>2026-04-24T11:11:39.999Z</time></trkpt><trkpt lat="38.10682022089457" lon="15.639960837517412"><ele>19.2</ele><time>2026-04-24T11:11:40.999Z</time></trkpt><trkpt lat="38.10686921346033" lon="15.639879976337681"><ele>18.4</ele><time>2026-04-24T11:11:41.999Z</time></trkpt><trkpt lat="38.10691571207317" lon="15.63980957923403"><ele>17.6</ele><time>2026-04-24T11:11:42.999Z</time></trkpt><trkpt lat="38.1069519797034" lon="15.639737572170516"><ele>16.8</ele><time>2026-04-24T11:11:43.999Z</time></trkpt><trkpt lat="38.1070084437304" lon="15.639636521681117"><ele>16.0</ele><time>2026-04-24T11:11:45.999Z</time></trkpt><trkpt lat="38.107120397958035" lon="15.639776717721269"><ele>16.0</ele><time>2026-04-24T11:11:49.998Z</time></trkpt><trkpt lat="38.10717694302031" lon="15.639862971445227"><ele>16.0</ele><time>2026-04-24T11:11:50.998Z</time></trkpt><trkpt lat="38.1072427635224" lon="15.639933502947342"><ele>16.0</ele><time>2026-04-24T11:11:51.998Z</time></trkpt><trkpt lat="38.107300544620166" lon="15.640026793573975"><ele>16.0</ele><time>2026-04-24T11:11:52.998Z</time></trkpt><trkpt lat="38.107362392819894" lon="15.640121572377126"><ele>16.0</ele><time>2026-04-24T11:11:53.998Z</time></trkpt><trkpt lat="38.10742262549883" lon="15.640214269982682"><ele>15.0</ele><time>2026-04-24T11:11:54.998Z</time></trkpt><trkpt lat="38.1074772646706" lon="15.64029760582089"><ele>14.000000000000002</ele><time>2026-04-24T11:11:55.998Z</time></trkpt><trkpt lat="38.10752433563368" lon="15.64036875525673"><ele>13.0</ele><time>2026-04-24T11:11:56.998Z</time></trkpt><trkpt lat="38.10757181369322" lon="15.640430289908998"><ele>12.0</ele><time>2026-04-24T11:11:57.998Z</time></trkpt><trkpt lat="38.10767658463276" lon="15.64034308936898"><ele>11.0</ele><time>2026-04-24T11:12:01.998Z</time></trkpt><trkpt lat="38.10760500622334" lon="15.640230036877663"><ele>10.833333333333332</ele><time>2026-04-24T11:12:03.998Z</time></trkpt><trkpt lat="38.10755217146067" lon="15.640166369949021"><ele>10.666666666666666</ele><time>2026-04-24T11:12:04.998Z</time></trkpt><trkpt lat="38.107514638943925" lon="15.64009619341628"><ele>10.5</ele><time>2026-04-24T11:12:05.998Z</time></trkpt><trkpt lat="38.1074443170015" lon="15.639981180007803"><ele>10.333333333333334</ele><time>2026-04-24T11:12:07.998Z</time></trkpt><trkpt lat="38.10739529612293" lon="15.639885333074302"><ele>10.166666666666668</ele><time>2026-04-24T11:12:09.998Z</time></trkpt><trkpt lat="38.10743802742794" lon="15.639795330235302"><ele>10.0</ele><time>2026-04-24T11:12:11.998Z</time></trkpt><trkpt lat="38.10740305273674" lon="15.639709280470568"><ele>10.2</ele><time>2026-04-24T11:12:13.998Z</time></trkpt><trkpt lat="38.10734202529916" lon="15.639607457631946"><ele>10.4</ele><time>2026-04-24T11:12:15.998Z</time></trkpt><trkpt lat="38.10729073512194" lon="15.639529224430879"><ele>10.600000000000001</ele><time>2026-04-24T11:12:17.998Z</time></trkpt><trkpt lat="38.107211185304116" lon="15.639396992615529"><ele>10.8</ele><time>2026-04-24T11:12:19.998Z</time></trkpt><trkpt lat="38.10716393929296" lon="15.639313840473518"><ele>11.0</ele><time>2026-04-24T11:12:20.998Z</time></trkpt><trkpt lat="38.107100162513596" lon="15.639212499759637"><ele>11.0</ele><time>2026-04-24T11:12:21.999Z</time></trkpt><trkpt lat="38.10700770549851" lon="15.639096865551632"><ele>11.0</ele><time>2026-04-24T11:12:22.999Z</time></trkpt><trkpt lat="38.10688989109495" lon="15.638972280573993"><ele>11.0</ele><time>2026-04-24T11:12:23.999Z</time></trkpt><trkpt lat="38.10675761455774" lon="15.638849188281503"><ele>11.0</ele><time>2026-04-24T11:12:24.999Z</time></trkpt><trkpt lat="38.10661829596408" lon="15.638740558185253"><ele>10.666666666666666</ele><time>2026-04-24T11:12:25.999Z</time></trkpt><trkpt lat="38.10647631740948" lon="15.638653760921935"><ele>10.333333333333334</ele><time>2026-04-24T11:12:26.999Z</time></trkpt><trkpt lat="38.106336843137335" lon="15.638573448584102"><ele>10.0</ele><time>2026-04-24T11:12:27.999Z</time></trkpt><trkpt lat="38.10619836532594" lon="15.638497277359013"><ele>10.0</ele><time>2026-04-24T11:12:28.999Z</time></trkpt><trkpt lat="38.10606619294012" lon="15.638433907948686"><ele>10.0</ele><time>2026-04-24T11:12:29.999Z</time></trkpt><trkpt lat="38.105940396504835" lon="15.638386650384584"><ele>10.0</ele><time>2026-04-24T11:12:30.999Z</time></trkpt><trkpt lat="38.105811660140766" lon="15.638332712668253"><ele>10.0</ele><time>2026-04-24T11:12:31.999Z</time></trkpt><trkpt lat="38.10568727630057" lon="15.63827349816723"><ele>10.25</ele><time>2026-04-24T11:12:32.999Z</time></trkpt><trkpt lat="38.10556205904581" lon="15.638198423347188"><ele>10.5</ele><time>2026-04-24T11:12:33.999Z</time></trkpt><trkpt lat="38.10543446768971" lon="15.638107162190176"><ele>10.75</ele><time>2026-04-24T11:12:34.999Z</time></trkpt><trkpt lat="38.10530541043258" lon="15.638014598997977"><ele>11.0</ele><time>2026-04-24T11:12:35.999Z</time></trkpt><trkpt lat="38.10517488562152" lon="15.637924071161548"><ele>11.0</ele><time>2026-04-24T11:12:36.999Z</time></trkpt><trkpt lat="38.1050453497589" lon="15.637826651996418"><ele>11.0</ele><time>2026-04-24T11:12:37.999Z</time></trkpt><trkpt lat="38.10492316372736" lon="15.637720741309305"><ele>11.0</ele><time>2026-04-24T11:12:38.999Z</time></trkpt><trkpt lat="38.104798875311225" lon="15.637613302661519"><ele>11.0</ele><time>2026-04-24T11:12:39.999Z</time></trkpt><trkpt lat="38.10467949897717" lon="15.63752795695436"><ele>12.0</ele><time>2026-04-24T11:12:40.999Z</time></trkpt><trkpt lat="38.104567315979295" lon="15.63746966301184"><ele>13.0</ele><time>2026-04-24T11:12:41.999Z</time></trkpt><trkpt lat="38.10446407007686" lon="15.637410309102401"><ele>14.0</ele><time>2026-04-24T11:12:42.999Z</time></trkpt><trkpt lat="38.10436473876839" lon="15.637336326619911"><ele>15.0</ele><time>2026-04-24T11:12:43.999Z</time></trkpt><trkpt lat="38.10426483924082" lon="15.63724406752066"><ele>15.0</ele><time>2026-04-24T11:12:44.999Z</time></trkpt><trkpt lat="38.104162342972074" lon="15.637142464992493"><ele>15.0</ele><time>2026-04-24T11:12:45.999Z</time></trkpt><trkpt lat="38.10405766761215" lon="15.637039297007101"><ele>15.0</ele><time>2026-04-24T11:12:46.999Z</time></trkpt><trkpt lat="38.10396666115157" lon="15.636938492065514"><ele>15.0</ele><time>2026-04-24T11:12:47.999Z</time></trkpt><trkpt lat="38.10389321115228" lon="15.636848162555284"><ele>14.333333333333334</ele><time>2026-04-24T11:12:48.999Z</time></trkpt><trkpt lat="38.10381708795204" lon="15.636777503847505"><ele>13.666666666666666</ele><time>2026-04-24T11:12:49.999Z</time></trkpt><trkpt lat="38.10373643486266" lon="15.636729256174723"><ele>13.0</ele><time>2026-04-24T11:12:50.999Z</time></trkpt><trkpt lat="38.10365531985797" lon="15.63667448791495"><ele>12.333333333333332</ele><time>2026-04-24T11:12:51.999Z</time></trkpt><trkpt lat="38.10358197652107" lon="15.636602947872124"><ele>11.666666666666666</ele><time>2026-04-24T11:12:52.999Z</time></trkpt><trkpt lat="38.103519008236354" lon="15.636538356362877"><ele>11.0</ele><time>2026-04-24T11:12:53.999Z</time></trkpt><trkpt lat="38.103471974011825" lon="15.636461862141921"><ele>11.0</ele><time>2026-04-24T11:12:54.999Z</time></trkpt><trkpt lat="38.10342196639713" lon="15.636401016183214"><ele>11.0</ele><time>2026-04-24T11:12:55.999Z</time></trkpt><trkpt lat="38.10336798285664" lon="15.63635788649151"><ele>11.0</ele><time>2026-04-24T11:12:56.999Z</time></trkpt><trkpt lat="38.10332927986741" lon="15.636286150483565"><ele>11.0</ele><time>2026-04-24T11:13:02.999Z</time></trkpt><trkpt lat="38.1032503684446" lon="15.63614852020011"><ele>11.0</ele><time>2026-04-24T11:13:04.999Z</time></trkpt><trkpt lat="38.103185875081174" lon="15.636065340609061"><ele>11.0</ele><time>2026-04-24T11:13:05.999Z</time></trkpt><trkpt lat="38.10310591574264" lon="15.635977537188811"><ele>11.25</ele><time>2026-04-24T11:13:06.999Z</time></trkpt><trkpt lat="38.10301099907494" lon="15.635876651948468"><ele>11.5</ele><time>2026-04-24T11:13:07.999Z</time></trkpt><trkpt lat="38.10291156115819" lon="15.635772758492298"><ele>11.75</ele><time>2026-04-24T11:13:08.999Z</time></trkpt><trkpt lat="38.10282540558911" lon="15.63567216572877"><ele>12.0</ele><time>2026-04-24T11:13:09.999Z</time></trkpt><trkpt lat="38.102741911028936" lon="15.635570018079054"><ele>12.0</ele><time>2026-04-24T11:13:10.999Z</time></trkpt><trkpt lat="38.102659613129354" lon="15.635462179896145"><ele>12.0</ele><time>2026-04-24T11:13:11.999Z</time></trkpt><trkpt lat="38.102567161270755" lon="15.635330877817948"><ele>12.0</ele><time>2026-04-24T11:13:12.999Z</time></trkpt><trkpt lat="38.10245642602289" lon="15.635168307010579"><ele>12.0</ele><time>2026-04-24T11:13:13.999Z</time></trkpt><trkpt lat="38.10232343740085" lon="15.635002089229372"><ele>12.25</ele><time>2026-04-24T11:13:14.999Z</time></trkpt><trkpt lat="38.10219319536241" lon="15.634847234376197"><ele>12.5</ele><time>2026-04-24T11:13:15.999Z</time></trkpt><trkpt lat="38.102094191801505" lon="15.634731865828138"><ele>12.75</ele><time>2026-04-24T11:13:16.999Z</time></trkpt><trkpt lat="38.10202184591941" lon="15.634646143473743"><ele>13.0</ele><time>2026-04-24T11:13:17.999Z</time></trkpt><trkpt lat="38.101955587010075" lon="15.634601191961456"><ele>13.0</ele><time>2026-04-24T11:13:18.999Z</time></trkpt><trkpt lat="38.10188445150074" lon="15.634613905108042"><ele>13.0</ele><time>2026-04-24T11:13:19.999Z</time></trkpt><trkpt lat="38.101798168892614" lon="15.634681515495247"><ele>13.0</ele><time>2026-04-24T11:13:20.999Z</time></trkpt><trkpt lat="38.10171686371778" lon="15.634764663378741"><ele>13.0</ele><time>2026-04-24T11:13:21.999Z</time></trkpt><trkpt lat="38.10162396681486" lon="15.634837455597234"><ele>13.0</ele><time>2026-04-24T11:13:22.999Z</time></trkpt><trkpt lat="38.10154302377232" lon="15.634886344410267"><ele>12.200000000000001</ele><time>2026-04-24T11:13:23.999Z</time></trkpt><trkpt lat="38.10147688769539" lon="15.6349293376566"><ele>11.4</ele><time>2026-04-24T11:13:24.999Z</time></trkpt><trkpt lat="38.10142072463933" lon="15.634969912504815"><ele>10.600000000000001</ele><time>2026-04-24T11:13:25.999Z</time></trkpt><trkpt lat="38.101346158683086" lon="15.63501573591555"><ele>9.8</ele><time>2026-04-24T11:13:27.999Z</time></trkpt><trkpt lat="38.1013124734537" lon="15.635194142722874"><ele>9.0</ele><time>2026-04-24T11:13:30.999Z</time></trkpt><trkpt lat="38.10130376352968" lon="15.635302472422957"><ele>9.8</ele><time>2026-04-24T11:13:31.999Z</time></trkpt><trkpt lat="38.1012789201019" lon="15.635399661933826"><ele>10.600000000000001</ele><time>2026-04-24T11:13:32.999Z</time></trkpt><trkpt lat="38.10125422487511" lon="15.635477871734125"><ele>11.4</ele><time>2026-04-24T11:13:35.999Z</time></trkpt><trkpt lat="38.10123541993327" lon="15.635558226680175"><ele>12.200000000000001</ele><time>2026-04-24T11:13:37.999Z</time></trkpt><trkpt lat="38.10123803364155" lon="15.635735411653704"><ele>13.0</ele><time>2026-04-24T11:13:39.999Z</time></trkpt><trkpt lat="38.10120149443282" lon="15.635888701945117"><ele>13.0</ele><time>2026-04-24T11:13:40.999Z</time></trkpt><trkpt lat="38.10116302389878" lon="15.636064461437172"><ele>13.0</ele><time>2026-04-24T11:13:41.999Z</time></trkpt><trkpt lat="38.101133217218866" lon="15.636263798842533"><ele>13.0</ele><time>2026-04-24T11:13:42.999Z</time></trkpt><trkpt lat="38.101107862048984" lon="15.636479187191803"><ele>14.333333333333332</ele><time>2026-04-24T11:13:43.999Z</time></trkpt><trkpt lat="38.10108615775363" lon="15.636703640872348"><ele>15.666666666666668</ele><time>2026-04-24T11:13:44.999Z</time></trkpt><trkpt lat="38.101074723625466" lon="15.636931088001317"><ele>17.0</ele><time>2026-04-24T11:13:45.999Z</time></trkpt><trkpt lat="38.101069095850846" lon="15.637139578253038"><ele>17.0</ele><time>2026-04-24T11:13:46.999Z</time></trkpt><trkpt lat="38.10106022899177" lon="15.637328360439394"><ele>17.0</ele><time>2026-04-24T11:13:47.999Z</time></trkpt><trkpt lat="38.10104969961266" lon="15.637495917893753"><ele>17.0</ele><time>2026-04-24T11:13:48.999Z</time></trkpt><trkpt lat="38.101040953918655" lon="15.63765279662878"><ele>17.0</ele><time>2026-04-24T11:13:49.999Z</time></trkpt><trkpt lat="38.101032645374545" lon="15.637807941220824"><ele>16.75</ele><time>2026-04-24T11:13:50.999Z</time></trkpt><trkpt lat="38.10102639900379" lon="15.63796374981255"><ele>16.5</ele><time>2026-04-24T11:13:51.999Z</time></trkpt><trkpt lat="38.101022394124485" lon="15.638123854484222"><ele>16.25</ele><time>2026-04-24T11:13:52.999Z</time></trkpt><trkpt lat="38.10101712951658" lon="15.638287440123902"><ele>16.0</ele><time>2026-04-24T11:13:53.999Z</time></trkpt><trkpt lat="38.10102175967088" lon="15.638438929153532"><ele>16.0</ele><time>2026-04-24T11:13:54.999Z</time></trkpt><trkpt lat="38.1010225763564" lon="15.638575240769407"><ele>16.0</ele><time>2026-04-24T11:13:55.999Z</time></trkpt><trkpt lat="38.10102860963523" lon="15.638697626543987"><ele>16.0</ele><time>2026-04-24T11:13:56.999Z</time></trkpt><trkpt lat="38.10102402560409" lon="15.63881476253362"><ele>16.0</ele><time>2026-04-24T11:13:57.999Z</time></trkpt><trkpt lat="38.10102011301061" lon="15.63892280740611"><ele>16.0</ele><time>2026-04-24T11:13:58.999Z</time></trkpt><trkpt lat="38.101028066354985" lon="15.639025950950694"><ele>16.333333333333332</ele><time>2026-04-24T11:13:59.999Z</time></trkpt><trkpt lat="38.101033956573836" lon="15.639108117046254"><ele>16.666666666666664</ele><time>2026-04-24T11:14:00.999Z</time></trkpt><trkpt lat="38.10103962196699" lon="15.639199671551905"><ele>17.0</ele><time>2026-04-24T11:14:02.999Z</time></trkpt><trkpt lat="38.101060056617776" lon="15.639300209052118"><ele>17.333333333333332</ele><time>2026-04-24T11:14:04.999Z</time></trkpt><trkpt lat="38.10108716607972" lon="15.639423951104169"><ele>17.666666666666668</ele><time>2026-04-24T11:14:06.999Z</time></trkpt><trkpt lat="38.101104147731235" lon="15.639566674679783"><ele>18.0</ele><time>2026-04-24T11:14:08.999Z</time></trkpt><trkpt lat="38.101108433357" lon="15.639647648193947"><ele>18.5</ele><time>2026-04-24T11:14:09.999Z</time></trkpt><trkpt lat="38.10113035142822" lon="15.639754894467448"><ele>19.0</ele><time>2026-04-24T11:14:10.999Z</time></trkpt><trkpt lat="38.10114357475226" lon="15.6399062775859"><ele>19.5</ele><time>2026-04-24T11:14:11.999Z</time></trkpt><trkpt lat="38.101151135859666" lon="15.640102508639632"><ele>20.0</ele><time>2026-04-24T11:14:12.999Z</time></trkpt><trkpt lat="38.101170141549716" lon="15.640380561676157"><ele>20.333333333333336</ele><time>2026-04-24T11:14:13.999Z</time></trkpt><trkpt lat="38.10119375817181" lon="15.64066852527182"><ele>20.666666666666668</ele><time>2026-04-24T11:14:14.999Z</time></trkpt><trkpt lat="38.10121928405411" lon="15.640908803228765"><ele>21.0</ele><time>2026-04-24T11:14:15.999Z</time></trkpt><trkpt lat="38.10124459631241" lon="15.641107300662007"><ele>21.8</ele><time>2026-04-24T11:14:16.999Z</time></trkpt><trkpt lat="38.10126224549847" lon="15.641262419240757"><ele>22.6</ele><time>2026-04-24T11:14:17.999Z</time></trkpt><trkpt lat="38.10127302769995" lon="15.6413920363368"><ele>23.4</ele><time>2026-04-24T11:14:18.999Z</time></trkpt><trkpt lat="38.1012820085977" lon="15.641505750527584"><ele>24.2</ele><time>2026-04-24T11:14:19.999Z</time></trkpt><trkpt lat="38.10128689511043" lon="15.641591719755276"><ele>25.0</ele><time>2026-04-24T11:14:20.999Z</time></trkpt><trkpt lat="38.10129373477283" lon="15.641686386761048"><ele>25.0</ele><time>2026-04-24T11:14:22.999Z</time></trkpt><trkpt lat="38.10130507596155" lon="15.641773264440232"><ele>25.0</ele><time>2026-04-24T11:14:54Z</time></trkpt><trkpt lat="38.10131542459487" lon="15.641868161434296"><ele>25.0</ele><time>2026-04-24T11:14:55Z</time></trkpt><trkpt lat="38.10133399494494" lon="15.641988781486543"><ele>25.0</ele><time>2026-04-24T11:14:56Z</time></trkpt><trkpt lat="38.10135427818207" lon="15.642125374601255"><ele>25.0</ele><time>2026-04-24T11:14:57Z</time></trkpt><trkpt lat="38.101366385517665" lon="15.642294912787486"><ele>27.0</ele><time>2026-04-24T11:14:58Z</time></trkpt><trkpt lat="38.10138931187628" lon="15.642523935682593"><ele>29.0</ele><time>2026-04-24T11:14:59Z</time></trkpt><trkpt lat="38.10141304327794" lon="15.642793744404807"><ele>31.0</ele><time>2026-04-24T11:15:00Z</time></trkpt><trkpt lat="38.10143583134066" lon="15.64305176580747"><ele>32.333333333333336</ele><time>2026-04-24T11:15:01Z</time></trkpt><trkpt lat="38.10145892189052" lon="15.643312737668877"><ele>33.666666666666664</ele><time>2026-04-24T11:15:02Z</time></trkpt><trkpt lat="38.10147943048788" lon="15.643572536745618"><ele>35.0</ele><time>2026-04-24T11:15:03Z</time></trkpt><trkpt lat="38.1015030362709" lon="15.643837357953759"><ele>35.33333333333333</ele><time>2026-04-24T11:15:04Z</time></trkpt><trkpt lat="38.101524985070334" lon="15.644100377697347"><ele>35.666666666666664</ele><time>2026-04-24T11:15:05Z</time></trkpt><trkpt lat="38.10154278468125" lon="15.644360337823928"><ele>36.0</ele><time>2026-04-24T11:15:06Z</time></trkpt><trkpt lat="38.10155355992922" lon="15.64460463812471"><ele>35.0</ele><time>2026-04-24T11:15:07Z</time></trkpt><trkpt lat="38.10156061897081" lon="15.644841463714862"><ele>34.0</ele><time>2026-04-24T11:15:08Z</time></trkpt><trkpt lat="38.10156569192218" lon="15.645058598279743"><ele>33.0</ele><time>2026-04-24T11:15:09Z</time></trkpt><trkpt lat="38.10156368026726" lon="15.645268232711766"><ele>33.0</ele><time>2026-04-24T11:15:10Z</time></trkpt><trkpt lat="38.101558382867836" lon="15.645474971203752"><ele>33.0</ele><time>2026-04-24T11:15:11Z</time></trkpt><trkpt lat="38.10155428006755" lon="15.64567653037"><ele>33.0</ele><time>2026-04-24T11:15:12Z</time></trkpt><trkpt lat="38.101548583126466" lon="15.645882686090257"><ele>33.0</ele><time>2026-04-24T11:15:13Z</time></trkpt><trkpt lat="38.10154189214794" lon="15.646083810263463"><ele>33.0</ele><time>2026-04-24T11:15:14Z</time></trkpt><trkpt lat="38.10153782948274" lon="15.64628791650426"><ele>33.0</ele><time>2026-04-24T11:15:15Z</time></trkpt><trkpt lat="38.1015334391394" lon="15.646496654882434"><ele>33.666666666666664</ele><time>2026-04-24T11:15:16Z</time></trkpt><trkpt lat="38.101525855681395" lon="15.646712417636799"><ele>34.33333333333333</ele><time>2026-04-24T11:15:17Z</time></trkpt><trkpt lat="38.10151472775174" lon="15.646923986050309"><ele>35.0</ele><time>2026-04-24T11:15:18Z</time></trkpt><trkpt lat="38.10149821848398" lon="15.647143084439453"><ele>35.0</ele><time>2026-04-24T11:15:19Z</time></trkpt><trkpt lat="38.10147506348546" lon="15.647360690243087"><ele>35.0</ele><time>2026-04-24T11:15:20Z</time></trkpt><trkpt lat="38.101446712612294" lon="15.647576657532897"><ele>35.0</ele><time>2026-04-24T11:15:21Z</time></trkpt><trkpt lat="38.101418039980615" lon="15.64779465937522"><ele>36.33333333333333</ele><time>2026-04-24T11:15:22Z</time></trkpt><trkpt lat="38.10139554772076" lon="15.648008458826197"><ele>37.666666666666664</ele><time>2026-04-24T11:15:23Z</time></trkpt><trkpt lat="38.10137826682406" lon="15.648219745797276"><ele>39.0</ele><time>2026-04-24T11:15:24Z</time></trkpt><trkpt lat="38.10135462713711" lon="15.648440689383222"><ele>40.0</ele><time>2026-04-24T11:15:25Z</time></trkpt><trkpt lat="38.101333383838075" lon="15.648655134039696"><ele>41.0</ele><time>2026-04-24T11:15:26Z</time></trkpt><trkpt lat="38.10131211635697" lon="15.648869516971095"><ele>42.0</ele><time>2026-04-24T11:15:27Z</time></trkpt><trkpt lat="38.101289833004664" lon="15.649089842028152"><ele>42.0</ele><time>2026-04-24T11:15:28Z</time></trkpt><trkpt lat="38.10126614158025" lon="15.649307456869408"><ele>42.0</ele><time>2026-04-24T11:15:29Z</time></trkpt><trkpt lat="38.101244954914996" lon="15.649529173054564"><ele>42.0</ele><time>2026-04-24T11:15:30Z</time></trkpt><trkpt lat="38.10122589553576" lon="15.64975436216501"><ele>42.0</ele><time>2026-04-24T11:15:31Z</time></trkpt><trkpt lat="38.101206574995864" lon="15.649975856497361"><ele>42.0</ele><time>2026-04-24T11:15:32Z</time></trkpt><trkpt lat="38.10118704514799" lon="15.650203114417403"><ele>42.0</ele><time>2026-04-24T11:15:33Z</time></trkpt><trkpt lat="38.10116414968265" lon="15.650431809531119"><ele>41.666666666666664</ele><time>2026-04-24T11:15:34Z</time></trkpt><trkpt lat="38.10114095332166" lon="15.650666603441277"><ele>41.33333333333333</ele><time>2026-04-24T11:15:35Z</time></trkpt><trkpt lat="38.101113764544515" lon="15.650895262725905"><ele>41.0</ele><time>2026-04-24T11:15:36Z</time></trkpt><trkpt lat="38.101081429669804" lon="15.651121560364349"><ele>42.0</ele><time>2026-04-24T11:15:37Z</time></trkpt><trkpt lat="38.10104480632927" lon="15.651346918266034"><ele>43.0</ele><time>2026-04-24T11:15:38Z</time></trkpt><trkpt lat="38.1010053046482" lon="15.65157136799813"><ele>44.0</ele><time>2026-04-24T11:15:39Z</time></trkpt><trkpt lat="38.10096385137589" lon="15.651802305745056"><ele>44.33333333333333</ele><time>2026-04-24T11:15:40Z</time></trkpt><trkpt lat="38.10092083726226" lon="15.65203293463438"><ele>44.666666666666664</ele><time>2026-04-24T11:15:41Z</time></trkpt><trkpt lat="38.100877189262256" lon="15.652271626580307"><ele>45.0</ele><time>2026-04-24T11:15:42Z</time></trkpt><trkpt lat="38.10083444272475" lon="15.652502333696665"><ele>45.0</ele><time>2026-04-24T11:15:43Z</time></trkpt><trkpt lat="38.100796022614595" lon="15.65274065199984"><ele>45.0</ele><time>2026-04-24T11:15:44Z</time></trkpt><trkpt lat="38.100755352007646" lon="15.652978082834974"><ele>45.0</ele><time>2026-04-24T11:15:45Z</time></trkpt><trkpt lat="38.100713285697296" lon="15.653220205859089"><ele>45.333333333333336</ele><time>2026-04-24T11:15:46Z</time></trkpt><trkpt lat="38.10067098758889" lon="15.653459898266595"><ele>45.66666666666667</ele><time>2026-04-24T11:15:47Z</time></trkpt><trkpt lat="38.10062628620236" lon="15.65370145884308"><ele>46.0</ele><time>2026-04-24T11:15:48Z</time></trkpt><trkpt lat="38.100580092396996" lon="15.653946383474445"><ele>47.0</ele><time>2026-04-24T11:15:49Z</time></trkpt><trkpt lat="38.10053358785847" lon="15.654192574449043"><ele>48.0</ele><time>2026-04-24T11:15:50Z</time></trkpt><trkpt lat="38.10048730011611" lon="15.654438533468735"><ele>49.0</ele><time>2026-04-24T11:15:51Z</time></trkpt><trkpt lat="38.10044080008177" lon="15.654681000883944"><ele>50.0</ele><time>2026-04-24T11:15:52Z</time></trkpt><trkpt lat="38.10039146998045" lon="15.65492094411493"><ele>51.0</ele><time>2026-04-24T11:15:53Z</time></trkpt><trkpt lat="38.10034281978081" lon="15.65515973184343"><ele>52.0</ele><time>2026-04-24T11:15:53.999Z</time></trkpt><trkpt lat="38.10029572845611" lon="15.655398252702126"><ele>54.0</ele><time>2026-04-24T11:15:54.999Z</time></trkpt><trkpt lat="38.10026837483568" lon="15.655640566986923"><ele>56.0</ele><time>2026-04-24T11:15:55.999Z</time></trkpt><trkpt lat="38.1002280547788" lon="15.655874053615042"><ele>58.0</ele><time>2026-04-24T11:15:56.999Z</time></trkpt><trkpt lat="38.10015807905997" lon="15.656094260703975"><ele>59.33333333333333</ele><time>2026-04-24T11:15:57.999Z</time></trkpt><trkpt lat="38.10011523743224" lon="15.656306469828037"><ele>60.66666666666667</ele><time>2026-04-24T11:15:58.999Z</time></trkpt><trkpt lat="38.10006920583024" lon="15.65651703660221"><ele>62.0</ele><time>2026-04-24T11:15:59.999Z</time></trkpt><trkpt lat="38.10002521037224" lon="15.65672306765691"><ele>62.0</ele><time>2026-04-24T11:16:00.999Z</time></trkpt><trkpt lat="38.09998382637998" lon="15.65692689522555"><ele>62.0</ele><time>2026-04-24T11:16:01.999Z</time></trkpt><trkpt lat="38.09994383255108" lon="15.657133923168985"><ele>62.0</ele><time>2026-04-24T11:16:02.999Z</time></trkpt><trkpt lat="38.099903704386804" lon="15.657340642956832"><ele>61.333333333333336</ele><time>2026-04-24T11:16:03.999Z</time></trkpt><trkpt lat="38.099864535380654" lon="15.657539466936337"><ele>60.66666666666667</ele><time>2026-04-24T11:16:04.999Z</time></trkpt><trkpt lat="38.09982966535723" lon="15.65773324420229"><ele>60.0</ele><time>2026-04-24T11:16:05.999Z</time></trkpt><trkpt lat="38.09980901038835" lon="15.657919401297027"><ele>62.0</ele><time>2026-04-24T11:16:06.999Z</time></trkpt><trkpt lat="38.09980476049879" lon="15.658096730678372"><ele>64.0</ele><time>2026-04-24T11:16:07.999Z</time></trkpt><trkpt lat="38.099813865123885" lon="15.658270177468644"><ele>66.0</ele><time>2026-04-24T11:16:08.999Z</time></trkpt><trkpt lat="38.099831958081616" lon="15.658435068847512"><ele>68.0</ele><time>2026-04-24T11:16:09.999Z</time></trkpt><trkpt lat="38.09984907797975" lon="15.658593876205845"><ele>69.75</ele><time>2026-04-24T11:16:10.999Z</time></trkpt><trkpt lat="38.0998687730785" lon="15.658748144561459"><ele>71.5</ele><time>2026-04-24T11:16:11.999Z</time></trkpt><trkpt lat="38.099879428228896" lon="15.658897955295446"><ele>73.25</ele><time>2026-04-24T11:16:12.999Z</time></trkpt><trkpt lat="38.099871673545884" lon="15.659036519816624"><ele>75.0</ele><time>2026-04-24T11:16:13.999Z</time></trkpt><trkpt lat="38.099846889678595" lon="15.659160780762326"><ele>75.0</ele><time>2026-04-24T11:16:14.999Z</time></trkpt><trkpt lat="38.09979802501564" lon="15.659257926190522"><ele>75.0</ele><time>2026-04-24T11:16:15.999Z</time></trkpt><trkpt lat="38.099730047947496" lon="15.659338590347655"><ele>75.0</ele><time>2026-04-24T11:16:16.999Z</time></trkpt><trkpt lat="38.09964781942518" lon="15.659402912566573"><ele>75.0</ele><time>2026-04-24T11:16:17.999Z</time></trkpt><trkpt lat="38.099551024504756" lon="15.659444444766937"><ele>75.0</ele><time>2026-04-24T11:16:18.999Z</time></trkpt><trkpt lat="38.09944150226283" lon="15.659467560672999"><ele>76.25</ele><time>2026-04-24T11:16:19.999Z</time></trkpt><trkpt lat="38.09933280811969" lon="15.659474667111933"><ele>77.5</ele><time>2026-04-24T11:16:20.999Z</time></trkpt><trkpt lat="38.09921624223103" lon="15.659483174892513"><ele>78.75</ele><time>2026-04-24T11:16:21.999Z</time></trkpt><trkpt lat="38.099099446256275" lon="15.659499317457033"><ele>80.0</ele><time>2026-04-24T11:16:22.999Z</time></trkpt><trkpt lat="38.098974250372386" lon="15.659511560118158"><ele>81.75</ele><time>2026-04-24T11:16:23.999Z</time></trkpt><trkpt lat="38.098850866015795" lon="15.659516462682413"><ele>83.5</ele><time>2026-04-24T11:16:24.999Z</time></trkpt><trkpt lat="38.09872636976787" lon="15.659506871508137"><ele>85.25</ele><time>2026-04-24T11:16:25.999Z</time></trkpt><trkpt lat="38.09859412389021" lon="15.659490093029497"><ele>87.0</ele><time>2026-04-24T11:16:26.999Z</time></trkpt><trkpt lat="38.098457227864095" lon="15.659480376293038"><ele>87.0</ele><time>2026-04-24T11:16:27.999Z</time></trkpt><trkpt lat="38.09831449758382" lon="15.659476725312656"><ele>87.0</ele><time>2026-04-24T11:16:28.999Z</time></trkpt><trkpt lat="38.098167431472696" lon="15.659474426924193"><ele>87.0</ele><time>2026-04-24T11:16:29.999Z</time></trkpt><trkpt lat="38.09799816457933" lon="15.659454820850115"><ele>87.0</ele><time>2026-04-24T11:16:30.999Z</time></trkpt><trkpt lat="38.09780652256841" lon="15.659405317809815"><ele>87.0</ele><time>2026-04-24T11:16:31.999Z</time></trkpt><trkpt lat="38.097614390318775" lon="15.659346860459008"><ele>87.0</ele><time>2026-04-24T11:16:32.999Z</time></trkpt><trkpt lat="38.09742734998635" lon="15.659297235637274"><ele>90.0</ele><time>2026-04-24T11:16:34Z</time></trkpt><trkpt lat="38.09724517264172" lon="15.659251895157782"><ele>93.0</ele><time>2026-04-24T11:16:35Z</time></trkpt><trkpt lat="38.097065878967875" lon="15.65921103894515"><ele>96.0</ele><time>2026-04-24T11:16:36Z</time></trkpt><trkpt lat="38.09689379576914" lon="15.659178533501901"><ele>96.0</ele><time>2026-04-24T11:16:37Z</time></trkpt><trkpt lat="38.096728815672364" lon="15.65914352089117"><ele>96.0</ele><time>2026-04-24T11:16:38Z</time></trkpt><trkpt lat="38.09655127846241" lon="15.659111530305163"><ele>96.0</ele><time>2026-04-24T11:16:39Z</time></trkpt><trkpt lat="38.0963620506285" lon="15.659067581387205"><ele>97.0</ele><time>2026-04-24T11:16:40Z</time></trkpt><trkpt lat="38.09616748798966" lon="15.659017050794816"><ele>98.0</ele><time>2026-04-24T11:16:41Z</time></trkpt><trkpt lat="38.09596970634383" lon="15.658963220556489"><ele>99.0</ele><time>2026-04-24T11:16:42Z</time></trkpt><trkpt lat="38.09576840055131" lon="15.658918446802174"><ele>100.0</ele><time>2026-04-24T11:16:43Z</time></trkpt><trkpt lat="38.0955638638594" lon="15.658891037543"><ele>101.0</ele><time>2026-04-24T11:16:44Z</time></trkpt><trkpt lat="38.095352837456865" lon="15.658882790493461"><ele>102.0</ele><time>2026-04-24T11:16:45Z</time></trkpt><trkpt lat="38.09514143960378" lon="15.658888513283511"><ele>102.0</ele><time>2026-04-24T11:16:46Z</time></trkpt><trkpt lat="38.09492902090781" lon="15.658906801541937"><ele>102.0</ele><time>2026-04-24T11:16:47Z</time></trkpt><trkpt lat="38.094713300524155" lon="15.658939206167155"><ele>102.0</ele><time>2026-04-24T11:16:48Z</time></trkpt><trkpt lat="38.094501968138445" lon="15.658980803465285"><ele>101.33333333333334</ele><time>2026-04-24T11:16:49Z</time></trkpt><trkpt lat="38.09429186024244" lon="15.65903427541032"><ele>100.66666666666667</ele><time>2026-04-24T11:16:50Z</time></trkpt><trkpt lat="38.094079255998494" lon="15.659098314743598"><ele>100.0</ele><time>2026-04-24T11:16:51Z</time></trkpt><trkpt lat="38.093868796548016" lon="15.659172705698156"><ele>99.66666666666667</ele><time>2026-04-24T11:16:52Z</time></trkpt><trkpt lat="38.093658435028495" lon="15.659249659422326"><ele>99.33333333333334</ele><time>2026-04-24T11:16:53Z</time></trkpt><trkpt lat="38.09344829400805" lon="15.659328395788279"><ele>99.0</ele><time>2026-04-24T11:16:54Z</time></trkpt><trkpt lat="38.093240693415545" lon="15.659408716326567"><ele>98.66666666666666</ele><time>2026-04-24T11:16:55Z</time></trkpt><trkpt lat="38.09302755530149" lon="15.6594832145258"><ele>98.33333333333333</ele><time>2026-04-24T11:16:56Z</time></trkpt><trkpt lat="38.09281552189871" lon="15.65954884926917"><ele>98.0</ele><time>2026-04-24T11:16:57Z</time></trkpt><trkpt lat="38.09260057568433" lon="15.659611534581591"><ele>97.0</ele><time>2026-04-24T11:16:58Z</time></trkpt><trkpt lat="38.09238488124315" lon="15.65967634819341"><ele>96.0</ele><time>2026-04-24T11:16:59Z</time></trkpt><trkpt lat="38.09217002205937" lon="15.659756338461342"><ele>95.0</ele><time>2026-04-24T11:17:00Z</time></trkpt><trkpt lat="38.09195666740209" lon="15.659856431359863"><ele>95.0</ele><time>2026-04-24T11:17:01Z</time></trkpt><trkpt lat="38.09174711611907" lon="15.659966088653993"><ele>95.0</ele><time>2026-04-24T11:17:02Z</time></trkpt><trkpt lat="38.091536879569574" lon="15.660076363514314"><ele>89.0</ele><time>2026-04-24T11:17:03Z</time></trkpt><trkpt lat="38.09132814610192" lon="15.660191779739309"><ele>83.0</ele><time>2026-04-24T11:17:04Z</time></trkpt><trkpt lat="38.09112033688302" lon="15.660312275439534"><ele>83.0</ele><time>2026-04-24T11:17:05Z</time></trkpt><trkpt lat="38.090913476259246" lon="15.660440185193822"><ele>83.0</ele><time>2026-04-24T11:17:06Z</time></trkpt><trkpt lat="38.09070802194594" lon="15.660568649899535"><ele>80.5</ele><time>2026-04-24T11:17:07Z</time></trkpt><trkpt lat="38.090500205506764" lon="15.660700445296236"><ele>78.0</ele><time>2026-04-24T11:17:08Z</time></trkpt><trkpt lat="38.090293014802064" lon="15.66083284412728"><ele>78.0</ele><time>2026-04-24T11:17:09Z</time></trkpt><trkpt lat="38.09008898873058" lon="15.660963666049904"><ele>78.0</ele><time>2026-04-24T11:17:10Z</time></trkpt><trkpt lat="38.089876029007065" lon="15.661097901597337"><ele>78.0</ele><time>2026-04-24T11:17:11Z</time></trkpt><trkpt lat="38.089666467853604" lon="15.661232612412475"><ele>78.0</ele><time>2026-04-24T11:17:12Z</time></trkpt><trkpt lat="38.08945631876808" lon="15.661365706418783"><ele>78.0</ele><time>2026-04-24T11:17:13Z</time></trkpt><trkpt lat="38.08924547541882" lon="15.661496562284666"><ele>78.0</ele><time>2026-04-24T11:17:14Z</time></trkpt><trkpt lat="38.089037340592775" lon="15.66162612812333"><ele>75.0</ele><time>2026-04-24T11:17:15Z</time></trkpt><trkpt lat="38.088829233605836" lon="15.661756235951595"><ele>72.0</ele><time>2026-04-24T11:17:16Z</time></trkpt><trkpt lat="38.08861880705261" lon="15.66188851442285"><ele>72.0</ele><time>2026-04-24T11:17:17Z</time></trkpt><trkpt lat="38.08840973164211" lon="15.662020593039724"><ele>72.0</ele><time>2026-04-24T11:17:18Z</time></trkpt><trkpt lat="38.08820097341124" lon="15.662152819967918"><ele>71.0</ele><time>2026-04-24T11:17:19Z</time></trkpt><trkpt lat="38.08799310470873" lon="15.662288873027462"><ele>70.0</ele><time>2026-04-24T11:17:20Z</time></trkpt><trkpt lat="38.08778464182557" lon="15.662424300356273"><ele>70.0</ele><time>2026-04-24T11:17:21Z</time></trkpt><trkpt lat="38.087573966414055" lon="15.662555674514385"><ele>70.0</ele><time>2026-04-24T11:17:22Z</time></trkpt><trkpt lat="38.08736221416311" lon="15.662686240047469"><ele>70.5</ele><time>2026-04-24T11:17:23Z</time></trkpt><trkpt lat="38.08714947439418" lon="15.66281815323821"><ele>71.0</ele><time>2026-04-24T11:17:24Z</time></trkpt><trkpt lat="38.08693816886084" lon="15.662953988347354"><ele>71.0</ele><time>2026-04-24T11:17:25Z</time></trkpt><trkpt lat="38.08672753008071" lon="15.663090574935051"><ele>71.0</ele><time>2026-04-24T11:17:26Z</time></trkpt><trkpt lat="38.08651483233106" lon="15.66322825966087"><ele>71.5</ele><time>2026-04-24T11:17:27Z</time></trkpt><trkpt lat="38.08630035248592" lon="15.663363741414791"><ele>72.0</ele><time>2026-04-24T11:17:28Z</time></trkpt><trkpt lat="38.086083978295065" lon="15.663496086558736"><ele>75.0</ele><time>2026-04-24T11:17:29Z</time></trkpt><trkpt lat="38.08586748450745" lon="15.663626069351153"><ele>78.0</ele><time>2026-04-24T11:17:30Z</time></trkpt><trkpt lat="38.08564658586662" lon="15.663750122238216"><ele>79.5</ele><time>2026-04-24T11:17:31Z</time></trkpt><trkpt lat="38.085426209128066" lon="15.663859120731267"><ele>81.0</ele><time>2026-04-24T11:17:32Z</time></trkpt><trkpt lat="38.08520102873107" lon="15.663955554177251"><ele>81.0</ele><time>2026-04-24T11:17:33Z</time></trkpt><trkpt lat="38.08497279440268" lon="15.664034732980861"><ele>81.0</ele><time>2026-04-24T11:17:34Z</time></trkpt><trkpt lat="38.08474370037153" lon="15.66410349020735"><ele>79.5</ele><time>2026-04-24T11:17:35Z</time></trkpt><trkpt lat="38.084504885463154" lon="15.66415219121832"><ele>78.0</ele><time>2026-04-24T11:17:36Z</time></trkpt><trkpt lat="38.08427292858255" lon="15.664193633012141"><ele>76.5</ele><time>2026-04-24T11:17:37Z</time></trkpt><trkpt lat="38.08403933447308" lon="15.664221090555339"><ele>75.0</ele><time>2026-04-24T11:17:38Z</time></trkpt><trkpt lat="38.08380538010397" lon="15.664233840414589"><ele>75.0</ele><time>2026-04-24T11:17:39Z</time></trkpt><trkpt lat="38.08357341548445" lon="15.664240473558785"><ele>75.0</ele><time>2026-04-24T11:17:40Z</time></trkpt><trkpt lat="38.08334083203105" lon="15.664244792924944"><ele>73.0</ele><time>2026-04-24T11:17:41Z</time></trkpt><trkpt lat="38.083111209726525" lon="15.664242471790383"><ele>71.0</ele><time>2026-04-24T11:17:42Z</time></trkpt><trkpt lat="38.08288207624211" lon="15.664249733701991"><ele>71.0</ele><time>2026-04-24T11:17:43Z</time></trkpt><trkpt lat="38.082653745169765" lon="15.664259639993167"><ele>71.0</ele><time>2026-04-24T11:17:44Z</time></trkpt><trkpt lat="38.08242371970584" lon="15.66426986104144"><ele>70.5</ele><time>2026-04-24T11:17:45Z</time></trkpt><trkpt lat="38.08219446241419" lon="15.664282726157783"><ele>70.0</ele><time>2026-04-24T11:17:46Z</time></trkpt><trkpt lat="38.08196639213451" lon="15.664296296334841"><ele>70.0</ele><time>2026-04-24T11:17:47Z</time></trkpt><trkpt lat="38.081738517246706" lon="15.664307827848166"><ele>70.0</ele><time>2026-04-24T11:17:48Z</time></trkpt><trkpt lat="38.081507553732884" lon="15.664317038472019"><ele>69.5</ele><time>2026-04-24T11:17:49Z</time></trkpt><trkpt lat="38.08127429729337" lon="15.664328404428122"><ele>69.0</ele><time>2026-04-24T11:17:50Z</time></trkpt><trkpt lat="38.081041974226586" lon="15.664337533932148"><ele>69.0</ele><time>2026-04-24T11:17:51Z</time></trkpt><trkpt lat="38.080808355303176" lon="15.66434347312092"><ele>69.0</ele><time>2026-04-24T11:17:52Z</time></trkpt><trkpt lat="38.080573398316545" lon="15.664349232230348"><ele>67.0</ele><time>2026-04-24T11:17:53Z</time></trkpt><trkpt lat="38.08033742033785" lon="15.664357062789184"><ele>65.0</ele><time>2026-04-24T11:17:54Z</time></trkpt><trkpt lat="38.08009982694956" lon="15.664366910915973"><ele>62.5</ele><time>2026-04-24T11:17:55Z</time></trkpt><trkpt lat="38.079858221018505" lon="15.664374502121122"><ele>60.0</ele><time>2026-04-24T11:17:56Z</time></trkpt><trkpt lat="38.07961759633014" lon="15.664383828948353"><ele>60.0</ele><time>2026-04-24T11:17:57Z</time></trkpt><trkpt lat="38.079375048616036" lon="15.664392757633216"><ele>60.0</ele><time>2026-04-24T11:17:58Z</time></trkpt><trkpt lat="38.07913317399778" lon="15.664400563574171"><ele>58.0</ele><time>2026-04-24T11:17:59Z</time></trkpt><trkpt lat="38.07889296144961" lon="15.664405538597082"><ele>56.0</ele><time>2026-04-24T11:18:00Z</time></trkpt><trkpt lat="38.07865077968936" lon="15.664411209950382"><ele>56.0</ele><time>2026-04-24T11:18:01Z</time></trkpt><trkpt lat="38.0784118625115" lon="15.664418816881664"><ele>56.0</ele><time>2026-04-24T11:18:01.999Z</time></trkpt><trkpt lat="38.07817173400016" lon="15.664424806966986"><ele>55.5</ele><time>2026-04-24T11:18:02.999Z</time></trkpt><trkpt lat="38.07793115026962" lon="15.664431111111435"><ele>55.0</ele><time>2026-04-24T11:18:03.999Z</time></trkpt><trkpt lat="38.07768809020666" lon="15.664437790501564"><ele>55.0</ele><time>2026-04-24T11:18:04.999Z</time></trkpt><trkpt lat="38.077447951014236" lon="15.664442538487258"><ele>55.0</ele><time>2026-04-24T11:18:05.999Z</time></trkpt><trkpt lat="38.07720918788088" lon="15.664443495436263"><ele>55.0</ele><time>2026-04-24T11:18:06.999Z</time></trkpt><trkpt lat="38.07696620759271" lon="15.664436932099063"><ele>55.0</ele><time>2026-04-24T11:18:07.999Z</time></trkpt><trkpt lat="38.07672653323289" lon="15.664418883462178"><ele>53.5</ele><time>2026-04-24T11:18:08.999Z</time></trkpt><trkpt lat="38.076485384746924" lon="15.664393580050499"><ele>52.0</ele><time>2026-04-24T11:18:09.999Z</time></trkpt><trkpt lat="38.076245197818025" lon="15.664359997614987"><ele>52.0</ele><time>2026-04-24T11:18:10.999Z</time></trkpt><trkpt lat="38.076007922640336" lon="15.664320035912215"><ele>52.0</ele><time>2026-04-24T11:18:11.999Z</time></trkpt><trkpt lat="38.07577056455541" lon="15.664268731864944"><ele>47.0</ele><time>2026-04-24T11:18:12.999Z</time></trkpt><trkpt lat="38.07553368936439" lon="15.664210989227978"><ele>42.0</ele><time>2026-04-24T11:18:13.999Z</time></trkpt><trkpt lat="38.07529696796918" lon="15.664147831640186"><ele>42.0</ele><time>2026-04-24T11:18:14.999Z</time></trkpt><trkpt lat="38.07506083389438" lon="15.664075892495172"><ele>42.0</ele><time>2026-04-24T11:18:15.999Z</time></trkpt><trkpt lat="38.0748224274249" lon="15.66399215103482"><ele>39.0</ele><time>2026-04-24T11:18:16.999Z</time></trkpt><trkpt lat="38.07458137883976" lon="15.663905280797279"><ele>36.0</ele><time>2026-04-24T11:18:17.999Z</time></trkpt><trkpt lat="38.0743430300354" lon="15.66382010244509"><ele>36.0</ele><time>2026-04-24T11:18:18.999Z</time></trkpt><trkpt lat="38.07409999349934" lon="15.663734125008473"><ele>36.0</ele><time>2026-04-24T11:18:19.999Z</time></trkpt><trkpt lat="38.07386155518016" lon="15.663649508437747"><ele>34.0</ele><time>2026-04-24T11:18:20.999Z</time></trkpt><trkpt lat="38.07362007964629" lon="15.66356839698003"><ele>32.0</ele><time>2026-04-24T11:18:21.999Z</time></trkpt><trkpt lat="38.0733794412431" lon="15.663490939030314"><ele>32.5</ele><time>2026-04-24T11:18:22.999Z</time></trkpt><trkpt lat="38.073142477381175" lon="15.663416148948192"><ele>33.0</ele><time>2026-04-24T11:18:23.999Z</time></trkpt><trkpt lat="38.07290674653672" lon="15.663348518038438"><ele>33.0</ele><time>2026-04-24T11:18:24.999Z</time></trkpt><trkpt lat="38.07267192017229" lon="15.663293768472046"><ele>33.0</ele><time>2026-04-24T11:18:25.999Z</time></trkpt><trkpt lat="38.072442685184704" lon="15.66325699340991"><ele>33.0</ele><time>2026-04-24T11:18:26.999Z</time></trkpt><trkpt lat="38.0722154484709" lon="15.663234677669607"><ele>33.0</ele><time>2026-04-24T11:18:27.999Z</time></trkpt><trkpt lat="38.07198840520531" lon="15.663222819876141"><ele>33.0</ele><time>2026-04-24T11:18:28.999Z</time></trkpt><trkpt lat="38.07176379163091" lon="15.663214413431058"><ele>33.0</ele><time>2026-04-24T11:18:29.999Z</time></trkpt><trkpt lat="38.0715442559486" lon="15.663212629417385"><ele>33.0</ele><time>2026-04-24T11:18:30.999Z</time></trkpt><trkpt lat="38.07133221364324" lon="15.663214505083792"><ele>34.0</ele><time>2026-04-24T11:18:31.999Z</time></trkpt><trkpt lat="38.071124044193425" lon="15.663215166251412"><ele>35.0</ele><time>2026-04-24T11:18:32.999Z</time></trkpt><trkpt lat="38.07091972522038" lon="15.663214101875658"><ele>36.0</ele><time>2026-04-24T11:18:33.999Z</time></trkpt><trkpt lat="38.070719587434716" lon="15.66321237044245"><ele>36.0</ele><time>2026-04-24T11:18:34.999Z</time></trkpt><trkpt lat="38.070535452994676" lon="15.663212869977055"><ele>36.0</ele><time>2026-04-24T11:18:35.999Z</time></trkpt><trkpt lat="38.07037703502852" lon="15.66320919549168"><ele>36.0</ele><time>2026-04-24T11:18:36.999Z</time></trkpt><trkpt lat="38.0702514642897" lon="15.663205883138648"><ele>36.0</ele><time>2026-04-24T11:18:37.999Z</time></trkpt><trkpt lat="38.070139712523556" lon="15.663203690975962"><ele>36.0</ele><time>2026-04-24T11:18:38.999Z</time></trkpt><trkpt lat="38.070049516027154" lon="15.663205803666841"><ele>36.0</ele><time>2026-04-24T11:18:40Z</time></trkpt><trkpt lat="38.06997111741436" lon="15.663206337720762"><ele>36.0</ele><time>2026-04-24T11:18:41Z</time></trkpt><trkpt lat="38.06989800795319" lon="15.663207517492612"><ele>36.0</ele><time>2026-04-24T11:18:42Z</time></trkpt><trkpt lat="38.06982588754941" lon="15.663205279323854"><ele>36.0</ele><time>2026-04-24T11:18:43Z</time></trkpt><trkpt lat="38.06974503800909" lon="15.663204564658415"><ele>36.25</ele><time>2026-04-24T11:18:44Z</time></trkpt><trkpt lat="38.06964831107951" lon="15.663190992555831"><ele>36.5</ele><time>2026-04-24T11:18:45Z</time></trkpt><trkpt lat="38.06953598114346" lon="15.663169316269753"><ele>36.75</ele><time>2026-04-24T11:18:46Z</time></trkpt><trkpt lat="38.069404899841906" lon="15.663149605217564"><ele>37.0</ele><time>2026-04-24T11:18:47Z</time></trkpt><trkpt lat="38.069266753276985" lon="15.663138527803415"><ele>37.0</ele><time>2026-04-24T11:18:48Z</time></trkpt><trkpt lat="38.06911792273949" lon="15.663128090978798"><ele>37.0</ele><time>2026-04-24T11:18:49Z</time></trkpt><trkpt lat="38.0689631986987" lon="15.663113674231344"><ele>37.0</ele><time>2026-04-24T11:18:50Z</time></trkpt><trkpt lat="38.06880595612917" lon="15.66309327616937"><ele>37.333333333333336</ele><time>2026-04-24T11:18:51Z</time></trkpt><trkpt lat="38.06864328540378" lon="15.663073898194103"><ele>37.666666666666664</ele><time>2026-04-24T11:18:52Z</time></trkpt><trkpt lat="38.06847683211097" lon="15.663057528697868"><ele>38.0</ele><time>2026-04-24T11:18:53Z</time></trkpt><trkpt lat="38.06830016885844" lon="15.663039621007394"><ele>39.0</ele><time>2026-04-24T11:18:54Z</time></trkpt><trkpt lat="38.06812448109468" lon="15.66301541049836"><ele>40.0</ele><time>2026-04-24T11:18:55Z</time></trkpt><trkpt lat="38.06794630096447" lon="15.66299444572757"><ele>41.0</ele><time>2026-04-24T11:18:56Z</time></trkpt><trkpt lat="38.067770041502634" lon="15.662972045123494"><ele>41.0</ele><time>2026-04-24T11:18:57Z</time></trkpt><trkpt lat="38.06759653176668" lon="15.662947384362537"><ele>41.0</ele><time>2026-04-24T11:18:58Z</time></trkpt><trkpt lat="38.06742043014956" lon="15.662919850828152"><ele>41.0</ele><time>2026-04-24T11:18:59Z</time></trkpt><trkpt lat="38.06724404121305" lon="15.662897926052182"><ele>41.33333333333333</ele><time>2026-04-24T11:19:00Z</time></trkpt><trkpt lat="38.06706574814923" lon="15.662882725836415"><ele>41.666666666666664</ele><time>2026-04-24T11:19:01Z</time></trkpt><trkpt lat="38.06688547301323" lon="15.662871785865363"><ele>42.0</ele><time>2026-04-24T11:19:02Z</time></trkpt><trkpt lat="38.066703280490614" lon="15.662847533558638"><ele>42.333333333333336</ele><time>2026-04-24T11:19:03Z</time></trkpt><trkpt lat="38.06651967402789" lon="15.662813567889126"><ele>42.66666666666667</ele><time>2026-04-24T11:19:04Z</time></trkpt><trkpt lat="38.06633109175168" lon="15.662777889827005"><ele>43.0</ele><time>2026-04-24T11:19:05Z</time></trkpt><trkpt lat="38.06613964026182" lon="15.662749791144334"><ele>42.333333333333336</ele><time>2026-04-24T11:19:06Z</time></trkpt><trkpt lat="38.06593910472156" lon="15.66272589460551"><ele>41.666666666666664</ele><time>2026-04-24T11:19:07Z</time></trkpt><trkpt lat="38.065738699350106" lon="15.662702676609893"><ele>41.0</ele><time>2026-04-24T11:19:08Z</time></trkpt><trkpt lat="38.06552982301041" lon="15.66267864628734"><ele>41.0</ele><time>2026-04-24T11:19:09Z</time></trkpt><trkpt lat="38.06532254524101" lon="15.66265342572128"><ele>41.0</ele><time>2026-04-24T11:19:10Z</time></trkpt><trkpt lat="38.06511156705742" lon="15.662629150703822"><ele>41.0</ele><time>2026-04-24T11:19:11Z</time></trkpt><trkpt lat="38.06489761580736" lon="15.662601881829106"><ele>41.0</ele><time>2026-04-24T11:19:12Z</time></trkpt><trkpt lat="38.064681429554135" lon="15.662574656320341"><ele>41.0</ele><time>2026-04-24T11:19:13Z</time></trkpt><trkpt lat="38.06446568982399" lon="15.662546205051425"><ele>41.0</ele><time>2026-04-24T11:19:14Z</time></trkpt><trkpt lat="38.06425598664806" lon="15.662521010872707"><ele>40.0</ele><time>2026-04-24T11:19:15Z</time></trkpt><trkpt lat="38.06406229649186" lon="15.66249934295402"><ele>39.0</ele><time>2026-04-24T11:19:16Z</time></trkpt><trkpt lat="38.06387291216917" lon="15.662476624155463"><ele>38.0</ele><time>2026-04-24T11:19:17Z</time></trkpt><trkpt lat="38.063681487110365" lon="15.662449841578615"><ele>38.0</ele><time>2026-04-24T11:19:18Z</time></trkpt><trkpt lat="38.06348434566076" lon="15.662420981065218"><ele>38.0</ele><time>2026-04-24T11:19:19Z</time></trkpt><trkpt lat="38.06328978788643" lon="15.662392834246088"><ele>38.0</ele><time>2026-04-24T11:19:20Z</time></trkpt><trkpt lat="38.06309999860526" lon="15.662371026621294"><ele>39.0</ele><time>2026-04-24T11:19:21Z</time></trkpt><trkpt lat="38.06294245805354" lon="15.662354115210553"><ele>40.0</ele><time>2026-04-24T11:19:22Z</time></trkpt><trkpt lat="38.062806784386055" lon="15.66233659798584"><ele>41.0</ele><time>2026-04-24T11:19:23Z</time></trkpt><trkpt lat="38.062695048573524" lon="15.662319893186558"><ele>42.0</ele><time>2026-04-24T11:19:24Z</time></trkpt><trkpt lat="38.06259040340887" lon="15.662307670450932"><ele>42.0</ele><time>2026-04-24T11:19:25Z</time></trkpt><trkpt lat="38.06248897163653" lon="15.662294608779884"><ele>42.0</ele><time>2026-04-24T11:19:26Z</time></trkpt><trkpt lat="38.06239038997722" lon="15.662276741780369"><ele>42.0</ele><time>2026-04-24T11:19:27Z</time></trkpt><trkpt lat="38.062294627248264" lon="15.662257400095724"><ele>42.0</ele><time>2026-04-24T11:19:28Z</time></trkpt><trkpt lat="38.06220157653719" lon="15.66223336440208"><ele>42.0</ele><time>2026-04-24T11:19:29Z</time></trkpt><trkpt lat="38.06210043364872" lon="15.662205276839755"><ele>42.5</ele><time>2026-04-24T11:19:30Z</time></trkpt><trkpt lat="38.061989789424445" lon="15.662174636591173"><ele>43.0</ele><time>2026-04-24T11:19:31Z</time></trkpt><trkpt lat="38.06187958298404" lon="15.662141840392554"><ele>43.5</ele><time>2026-04-24T11:19:32Z</time></trkpt><trkpt lat="38.061771566440555" lon="15.66210018666771"><ele>44.0</ele><time>2026-04-24T11:19:33Z</time></trkpt><trkpt lat="38.06165723645071" lon="15.6620701909478"><ele>45.25</ele><time>2026-04-24T11:19:34Z</time></trkpt><trkpt lat="38.06153486596894" lon="15.662026725359967"><ele>46.5</ele><time>2026-04-24T11:19:35Z</time></trkpt><trkpt lat="38.0614210054226" lon="15.661931985685865"><ele>47.75</ele><time>2026-04-24T11:19:36Z</time></trkpt><trkpt lat="38.061293156331296" lon="15.66187385479256"><ele>49.0</ele><time>2026-04-24T11:19:37Z</time></trkpt><trkpt lat="38.0611629713806" lon="15.661810611656659"><ele>47.5</ele><time>2026-04-24T11:19:38Z</time></trkpt><trkpt lat="38.0610296940004" lon="15.661750747095288"><ele>46.0</ele><time>2026-04-24T11:19:39Z</time></trkpt><trkpt lat="38.060900008377814" lon="15.661694545958374"><ele>44.5</ele><time>2026-04-24T11:19:40Z</time></trkpt><trkpt lat="38.06077590109367" lon="15.66164299719679"><ele>43.0</ele><time>2026-04-24T11:19:41Z</time></trkpt><trkpt lat="38.06065774493478" lon="15.661592976687162"><ele>43.0</ele><time>2026-04-24T11:19:42Z</time></trkpt><trkpt lat="38.06054844707431" lon="15.661547381325132"><ele>43.0</ele><time>2026-04-24T11:19:43Z</time></trkpt><trkpt lat="38.060451634647244" lon="15.661505584264239"><ele>43.0</ele><time>2026-04-24T11:19:44Z</time></trkpt><trkpt lat="38.06036508143634" lon="15.661468170107463"><ele>43.0</ele><time>2026-04-24T11:19:45Z</time></trkpt><trkpt lat="38.06028450430888" lon="15.661432311623788"><ele>43.0</ele><time>2026-04-24T11:19:46Z</time></trkpt><trkpt lat="38.06021354843831" lon="15.66140393847065"><ele>43.0</ele><time>2026-04-24T11:19:47Z</time></trkpt><trkpt lat="38.060148288556604" lon="15.661372059355102"><ele>43.0</ele><time>2026-04-24T11:19:48Z</time></trkpt><trkpt lat="38.06008546006202" lon="15.661339119649673"><ele>43.0</ele><time>2026-04-24T11:19:49Z</time></trkpt><trkpt lat="38.05999371539837" lon="15.661294493554504"><ele>43.0</ele><time>2026-04-24T11:19:51Z</time></trkpt><trkpt lat="38.05995611829073" lon="15.661210752890389"><ele>43.0</ele><time>2026-04-24T11:19:54Z</time></trkpt></trkseg><trkseg><trkpt lat="38.05986394220779" lon="15.661163553867906"><ele>43.00000000000001</ele><time>2026-04-24T11:42:15.999Z</time></trkpt><trkpt lat="38.05979750283398" lon="15.661155345211991"><ele>43.0</ele><time>2026-04-24T11:42:16.999Z</time></trkpt><trkpt lat="38.05973298772449" lon="15.66114288016255"><ele>43.0</ele><time>2026-04-24T11:42:17.999Z</time></trkpt><trkpt lat="38.05966548961687" lon="15.661115498442417"><ele>43.0</ele><time>2026-04-24T11:42:18.999Z</time></trkpt><trkpt lat="38.059600125399925" lon="15.661082163659763"><ele>43.0</ele><time>2026-04-24T11:42:19.999Z</time></trkpt><trkpt lat="38.05953173516529" lon="15.661049791867308"><ele>43.00000000000001</ele><time>2026-04-24T11:42:20.999Z</time></trkpt><trkpt lat="38.059456524967004" lon="15.661013745409397"><ele>43.0</ele><time>2026-04-24T11:42:21.999Z</time></trkpt><trkpt lat="38.059369950511304" lon="15.660967184585013"><ele>41.8</ele><time>2026-04-24T11:42:22.999Z</time></trkpt><trkpt lat="38.05927735001461" lon="15.660925125872277"><ele>40.599999999999994</ele><time>2026-04-24T11:42:23.999Z</time></trkpt><trkpt lat="38.05919778275954" lon="15.660881673130806"><ele>39.400000000000006</ele><time>2026-04-24T11:42:24.999Z</time></trkpt><trkpt lat="38.059114592028585" lon="15.660827937766758"><ele>38.2</ele><time>2026-04-24T11:42:25.999Z</time></trkpt><trkpt lat="38.05903513253301" lon="15.660759223285082"><ele>37.0</ele><time>2026-04-24T11:42:26.999Z</time></trkpt><trkpt lat="38.05895983440977" lon="15.660681087808529"><ele>36.800000000000004</ele><time>2026-04-24T11:42:27.999Z</time></trkpt><trkpt lat="38.05888406791375" lon="15.660604488616544"><ele>36.6</ele><time>2026-04-24T11:42:28.999Z</time></trkpt><trkpt lat="38.05881636492955" lon="15.660520911211046"><ele>36.400000000000006</ele><time>2026-04-24T11:42:29.999Z</time></trkpt><trkpt lat="38.05874197675617" lon="15.660439280025747"><ele>36.2</ele><time>2026-04-24T11:42:30.999Z</time></trkpt><trkpt lat="38.05868806381824" lon="15.66033762822109"><ele>36.0</ele><time>2026-04-24T11:42:31.999Z</time></trkpt><trkpt lat="38.05863125042723" lon="15.660254815347326"><ele>35.6</ele><time>2026-04-24T11:42:32.999Z</time></trkpt><trkpt lat="38.05858561294878" lon="15.66018345322389"><ele>35.2</ele><time>2026-04-24T11:42:33.999Z</time></trkpt><trkpt lat="38.05841771389692" lon="15.660215161977773"><ele>34.8</ele><time>2026-04-24T11:42:35.999Z</time></trkpt><trkpt lat="38.05835705810605" lon="15.660186033168154"><ele>34.4</ele><time>2026-04-24T11:42:36.999Z</time></trkpt><trkpt lat="38.05827164646119" lon="15.660192809734777"><ele>34.0</ele><time>2026-04-24T11:42:37.999Z</time></trkpt><trkpt lat="38.05820190628949" lon="15.660178697006387"><ele>34.0</ele><time>2026-04-24T11:42:38.999Z</time></trkpt><trkpt lat="38.058144745636575" lon="15.660143081567384"><ele>34.0</ele><time>2026-04-24T11:42:39.999Z</time></trkpt><trkpt lat="38.05805476709929" lon="15.660108017753423"><ele>34.0</ele><time>2026-04-24T11:42:41.999Z</time></trkpt><trkpt lat="38.05798960661581" lon="15.660118028834951"><ele>34.0</ele><time>2026-04-24T11:42:44.999Z</time></trkpt><trkpt lat="38.057988461015995" lon="15.660292448758335"><ele>34.0</ele><time>2026-04-24T11:42:45.999Z</time></trkpt><trkpt lat="38.05798848570755" lon="15.660457927734516"><ele>34.66666666666667</ele><time>2026-04-24T11:42:47.998Z</time></trkpt><trkpt lat="38.05796407173281" lon="15.660550640296576"><ele>35.333333333333336</ele><time>2026-04-24T11:42:48.998Z</time></trkpt><trkpt lat="38.057952192304896" lon="15.660653687986875"><ele>36.0</ele><time>2026-04-24T11:42:49.998Z</time></trkpt><trkpt lat="38.05794078397046" lon="15.660751292686008"><ele>36.666666666666664</ele><time>2026-04-24T11:42:50.998Z</time></trkpt><trkpt lat="38.05794398410091" lon="15.66084618806497"><ele>37.33333333333333</ele><time>2026-04-24T11:42:51.998Z</time></trkpt><trkpt lat="38.057928776335494" lon="15.660950167448974"><ele>38.0</ele><time>2026-04-24T11:42:52.998Z</time></trkpt><trkpt lat="38.057905989775236" lon="15.661059911871698"><ele>38.8</ele><time>2026-04-24T11:42:53.998Z</time></trkpt><trkpt lat="38.05788934659375" lon="15.661179614637993"><ele>39.599999999999994</ele><time>2026-04-24T11:42:54.998Z</time></trkpt><trkpt lat="38.057851484771625" lon="15.661304166929591"><ele>40.400000000000006</ele><time>2026-04-24T11:42:55.998Z</time></trkpt><trkpt lat="38.05782461573136" lon="15.661444242425507"><ele>41.2</ele><time>2026-04-24T11:42:56.998Z</time></trkpt><trkpt lat="38.05779687495191" lon="15.661588210213482"><ele>42.0</ele><time>2026-04-24T11:42:57.998Z</time></trkpt><trkpt lat="38.05778636471956" lon="15.661748143318052"><ele>42.0</ele><time>2026-04-24T11:42:58.998Z</time></trkpt><trkpt lat="38.05776306716493" lon="15.661918345405576"><ele>42.0</ele><time>2026-04-24T11:42:59.998Z</time></trkpt><trkpt lat="38.05771952341685" lon="15.662090375275534"><ele>42.0</ele><time>2026-04-24T11:43:00.998Z</time></trkpt><trkpt lat="38.057681885713606" lon="15.662262727759327"><ele>42.0</ele><time>2026-04-24T11:43:01.998Z</time></trkpt><trkpt lat="38.057653237056066" lon="15.662445535521941"><ele>42.75</ele><time>2026-04-24T11:43:02.998Z</time></trkpt><trkpt lat="38.05763526978904" lon="15.662621075513812"><ele>43.5</ele><time>2026-04-24T11:43:03.999Z</time></trkpt><trkpt lat="38.05761180534971" lon="15.662809421016771"><ele>44.25</ele><time>2026-04-24T11:43:05Z</time></trkpt><trkpt lat="38.05758844415339" lon="15.662995976277937"><ele>45.0</ele><time>2026-04-24T11:43:06Z</time></trkpt><trkpt lat="38.05758482330339" lon="15.663193320226117"><ele>46.33333333333333</ele><time>2026-04-24T11:43:07Z</time></trkpt><trkpt lat="38.05757845805671" lon="15.663373456993016"><ele>47.666666666666664</ele><time>2026-04-24T11:43:08Z</time></trkpt><trkpt lat="38.05749837605821" lon="15.66353907624858"><ele>49.0</ele><time>2026-04-24T11:43:09Z</time></trkpt><trkpt lat="38.057465124289806" lon="15.663764304245383"><ele>50.0</ele><time>2026-04-24T11:43:10Z</time></trkpt><trkpt lat="38.057405247745976" lon="15.663958861031247"><ele>51.0</ele><time>2026-04-24T11:43:11Z</time></trkpt><trkpt lat="38.05734723053981" lon="15.664150395142496"><ele>52.0</ele><time>2026-04-24T11:43:12Z</time></trkpt><trkpt lat="38.057304678899385" lon="15.664337859388816"><ele>53.0</ele><time>2026-04-24T11:43:13Z</time></trkpt><trkpt lat="38.057258101715554" lon="15.664512994495599"><ele>54.0</ele><time>2026-04-24T11:43:14Z</time></trkpt><trkpt lat="38.05721349932145" lon="15.664679681257347"><ele>55.0</ele><time>2026-04-24T11:43:15Z</time></trkpt><trkpt lat="38.0571786637114" lon="15.664845876169109"><ele>56.0</ele><time>2026-04-24T11:43:16Z</time></trkpt><trkpt lat="38.05714983072232" lon="15.664992126551242"><ele>56.0</ele><time>2026-04-24T11:43:17Z</time></trkpt><trkpt lat="38.05712619590841" lon="15.665145761122858"><ele>56.0</ele><time>2026-04-24T11:43:18Z</time></trkpt><trkpt lat="38.05710791170402" lon="15.665292000340681"><ele>56.0</ele><time>2026-04-24T11:43:19Z</time></trkpt><trkpt lat="38.057087691909906" lon="15.665445227689437"><ele>56.0</ele><time>2026-04-24T11:43:20Z</time></trkpt><trkpt lat="38.0570520898452" lon="15.665596492850701"><ele>56.5</ele><time>2026-04-24T11:43:21Z</time></trkpt><trkpt lat="38.057002233796844" lon="15.665751403483931"><ele>57.0</ele><time>2026-04-24T11:43:22Z</time></trkpt><trkpt lat="38.05693888334454" lon="15.665904641468002"><ele>57.5</ele><time>2026-04-24T11:43:23Z</time></trkpt><trkpt lat="38.05694495102299" lon="15.66607041930033"><ele>58.0</ele><time>2026-04-24T11:43:24Z</time></trkpt><trkpt lat="38.05689536206948" lon="15.666236826390948"><ele>59.0</ele><time>2026-04-24T11:43:25Z</time></trkpt><trkpt lat="38.0568546657229" lon="15.666392239028703"><ele>60.0</ele><time>2026-04-24T11:43:26Z</time></trkpt><trkpt lat="38.05680786372511" lon="15.666561068773623"><ele>61.0</ele><time>2026-04-24T11:43:27Z</time></trkpt><trkpt lat="38.0567720834664" lon="15.666729478804324"><ele>62.0</ele><time>2026-04-24T11:43:28Z</time></trkpt><trkpt lat="38.05672329524674" lon="15.66688805907409"><ele>63.25</ele><time>2026-04-24T11:43:29Z</time></trkpt><trkpt lat="38.056665762446144" lon="15.667025303553906"><ele>64.5</ele><time>2026-04-24T11:43:30Z</time></trkpt><trkpt lat="38.05662699801169" lon="15.667177949155272"><ele>65.75</ele><time>2026-04-24T11:43:31Z</time></trkpt><trkpt lat="38.05658341825306" lon="15.667328517214658"><ele>67.0</ele><time>2026-04-24T11:43:32Z</time></trkpt><trkpt lat="38.05654100899354" lon="15.667484118434823"><ele>67.0</ele><time>2026-04-24T11:43:33Z</time></trkpt><trkpt lat="38.05646665515031" lon="15.667604728411096"><ele>67.0</ele><time>2026-04-24T11:43:34Z</time></trkpt><trkpt lat="38.05640375175306" lon="15.667752896239795"><ele>67.0</ele><time>2026-04-24T11:43:35Z</time></trkpt><trkpt lat="38.0563482844914" lon="15.66790569806035"><ele>67.0</ele><time>2026-04-24T11:43:36Z</time></trkpt><trkpt lat="38.05631976116236" lon="15.66807583228153"><ele>67.75</ele><time>2026-04-24T11:43:37Z</time></trkpt><trkpt lat="38.05625139774828" lon="15.66823465961676"><ele>68.5</ele><time>2026-04-24T11:43:38Z</time></trkpt><trkpt lat="38.05615472999374" lon="15.668360447475756"><ele>69.25</ele><time>2026-04-24T11:43:39Z</time></trkpt><trkpt lat="38.05609374243021" lon="15.66851051231961"><ele>70.0</ele><time>2026-04-24T11:43:40Z</time></trkpt><trkpt lat="38.05604430990696" lon="15.668671219903501"><ele>71.0</ele><time>2026-04-24T11:43:41Z</time></trkpt><trkpt lat="38.055981054870585" lon="15.668826438201837"><ele>72.0</ele><time>2026-04-24T11:43:42Z</time></trkpt><trkpt lat="38.05593941535937" lon="15.668995573366805"><ele>73.0</ele><time>2026-04-24T11:43:43Z</time></trkpt><trkpt lat="38.0558828766589" lon="15.669157516789022"><ele>74.0</ele><time>2026-04-24T11:43:44Z</time></trkpt><trkpt lat="38.05583066184482" lon="15.669316408538691"><ele>75.0</ele><time>2026-04-24T11:43:45Z</time></trkpt><trkpt lat="38.05576213435531" lon="15.669469931627665"><ele>76.0</ele><time>2026-04-24T11:43:46Z</time></trkpt><trkpt lat="38.05570032894544" lon="15.669630746891698"><ele>77.0</ele><time>2026-04-24T11:43:47Z</time></trkpt><trkpt lat="38.05564896023067" lon="15.66979618199618"><ele>78.0</ele><time>2026-04-24T11:43:48Z</time></trkpt><trkpt lat="38.0555468129344" lon="15.669898829366941"><ele>78.0</ele><time>2026-04-24T11:43:49Z</time></trkpt><trkpt lat="38.05547532891026" lon="15.670050641268142"><ele>78.0</ele><time>2026-04-24T11:43:50Z</time></trkpt><trkpt lat="38.055427203717706" lon="15.670209156608593"><ele>78.0</ele><time>2026-04-24T11:43:51Z</time></trkpt><trkpt lat="38.055387247491346" lon="15.67037962797588"><ele>78.0</ele><time>2026-04-24T11:43:52Z</time></trkpt><trkpt lat="38.055352022364545" lon="15.670544846069724"><ele>78.5</ele><time>2026-04-24T11:43:53Z</time></trkpt><trkpt lat="38.05532816686621" lon="15.670730706325406"><ele>79.0</ele><time>2026-04-24T11:43:54Z</time></trkpt><trkpt lat="38.05529186965496" lon="15.67089167585645"><ele>79.5</ele><time>2026-04-24T11:43:55Z</time></trkpt><trkpt lat="38.05523273838858" lon="15.671040502596975"><ele>80.0</ele><time>2026-04-24T11:43:56Z</time></trkpt><trkpt lat="38.05517121939956" lon="15.671197287768782"><ele>80.75</ele><time>2026-04-24T11:43:57Z</time></trkpt><trkpt lat="38.05511713997473" lon="15.671355852891645"><ele>81.5</ele><time>2026-04-24T11:43:58Z</time></trkpt><trkpt lat="38.055064819584686" lon="15.671498741639972"><ele>82.25</ele><time>2026-04-24T11:43:59Z</time></trkpt><trkpt lat="38.05501735129658" lon="15.671628378695845"><ele>83.0</ele><time>2026-04-24T11:44:00Z</time></trkpt><trkpt lat="38.054980615391564" lon="15.671762436790209"><ele>83.33333333333334</ele><time>2026-04-24T11:44:01Z</time></trkpt><trkpt lat="38.0549242150179" lon="15.671869488866369"><ele>83.66666666666667</ele><time>2026-04-24T11:44:02Z</time></trkpt><trkpt lat="38.05486761288673" lon="15.671946487310743"><ele>84.0</ele><time>2026-04-24T11:44:03Z</time></trkpt><trkpt lat="38.05481244232481" lon="15.672001259379178"><ele>84.33333333333333</ele><time>2026-04-24T11:44:04Z</time></trkpt><trkpt lat="38.054722121198566" lon="15.672067363518327"><ele>84.66666666666666</ele><time>2026-04-24T11:44:06Z</time></trkpt><trkpt lat="38.05467006747843" lon="15.672137586799412"><ele>85.0</ele><time>2026-04-24T11:44:09Z</time></trkpt><trkpt lat="38.054679339755346" lon="15.672286613478224"><ele>85.0</ele><time>2026-04-24T11:44:11Z</time></trkpt><trkpt lat="38.05467115422411" lon="15.672371255885729"><ele>85.0</ele><time>2026-04-24T11:44:12Z</time></trkpt><trkpt lat="38.054649392326816" lon="15.67246553303435"><ele>85.0</ele><time>2026-04-24T11:44:13Z</time></trkpt><trkpt lat="38.054627944931866" lon="15.672565181183497"><ele>85.0</ele><time>2026-04-24T11:44:14Z</time></trkpt><trkpt lat="38.054588669280214" lon="15.67267362825687"><ele>85.0</ele><time>2026-04-24T11:44:15Z</time></trkpt><trkpt lat="38.05455534729431" lon="15.67279186804006"><ele>85.0</ele><time>2026-04-24T11:44:16Z</time></trkpt><trkpt lat="38.05448695710596" lon="15.672904805589672"><ele>86.25</ele><time>2026-04-24T11:44:17Z</time></trkpt><trkpt lat="38.05443508691513" lon="15.673046609685972"><ele>87.5</ele><time>2026-04-24T11:44:18Z</time></trkpt><trkpt lat="38.05437540630387" lon="15.673184345752325"><ele>88.75</ele><time>2026-04-24T11:44:19Z</time></trkpt><trkpt lat="38.05431497469136" lon="15.67332028723351"><ele>90.0</ele><time>2026-04-24T11:44:20Z</time></trkpt><trkpt lat="38.054253905695845" lon="15.673450663556654"><ele>90.0</ele><time>2026-04-24T11:44:21Z</time></trkpt><trkpt lat="38.054191079730046" lon="15.673582385164433"><ele>90.0</ele><time>2026-04-24T11:44:22Z</time></trkpt><trkpt lat="38.05416224781228" lon="15.67373038677587"><ele>90.0</ele><time>2026-04-24T11:44:23Z</time></trkpt><trkpt lat="38.05415385765872" lon="15.673820668958268"><ele>90.0</ele><time>2026-04-24T11:44:24Z</time></trkpt><trkpt lat="38.05413147819253" lon="15.673950236823357"><ele>90.0</ele><time>2026-04-24T11:44:26Z</time></trkpt><trkpt lat="38.053879344125875" lon="15.673880726713072"><ele>90.4</ele><time>2026-04-24T11:44:30Z</time></trkpt><trkpt lat="38.053775187762064" lon="15.673812583657593"><ele>90.8</ele><time>2026-04-24T11:44:32Z</time></trkpt><trkpt lat="38.053659327540295" lon="15.6737641397699"><ele>91.19999999999999</ele><time>2026-04-24T11:44:34Z</time></trkpt><trkpt lat="38.05358871519518" lon="15.673721481864312"><ele>91.6</ele><time>2026-04-24T11:44:35Z</time></trkpt><trkpt lat="38.053504960335246" lon="15.67367949469555"><ele>92.0</ele><time>2026-04-24T11:44:36Z</time></trkpt><trkpt lat="38.05343618890507" lon="15.673641488978165"><ele>91.75</ele><time>2026-04-24T11:44:37Z</time></trkpt><trkpt lat="38.05338402348501" lon="15.67353647578451"><ele>91.5</ele><time>2026-04-24T11:44:39Z</time></trkpt><trkpt lat="38.053424240413506" lon="15.67339865004636"><ele>91.25</ele><time>2026-04-24T11:44:41Z</time></trkpt><trkpt lat="38.053478461523476" lon="15.673304301983967"><ele>91.0</ele><time>2026-04-24T11:44:42Z</time></trkpt><trkpt lat="38.05354885955757" lon="15.673141646562524"><ele>91.0</ele><time>2026-04-24T11:44:43Z</time></trkpt><trkpt lat="38.05362230697669" lon="15.672968215358214"><ele>91.0</ele><time>2026-04-24T11:44:43.999Z</time></trkpt><trkpt lat="38.05369574938359" lon="15.67278651133325"><ele>91.0</ele><time>2026-04-24T11:44:44.999Z</time></trkpt><trkpt lat="38.0537468942511" lon="15.672648697067217"><ele>91.0</ele><time>2026-04-24T11:44:45.999Z</time></trkpt><trkpt lat="38.05378207430094" lon="15.672521046125084"><ele>90.66666666666666</ele><time>2026-04-24T11:44:46.999Z</time></trkpt><trkpt lat="38.05381601540127" lon="15.67242150814235"><ele>90.33333333333333</ele><time>2026-04-24T11:44:47.999Z</time></trkpt><trkpt lat="38.05384937547847" lon="15.672324421521573"><ele>90.0</ele><time>2026-04-24T11:44:48.999Z</time></trkpt><trkpt lat="38.0538702826035" lon="15.672231316793955"><ele>89.66666666666667</ele><time>2026-04-24T11:44:49.999Z</time></trkpt><trkpt lat="38.05382871919487" lon="15.672096148791764"><ele>89.33333333333334</ele><time>2026-04-24T11:44:51.999Z</time></trkpt><trkpt lat="38.05376533921785" lon="15.672050414471583"><ele>89.0</ele><time>2026-04-24T11:44:52.999Z</time></trkpt><trkpt lat="38.053673280307336" lon="15.672013997394727"><ele>89.0</ele><time>2026-04-24T11:44:53.999Z</time></trkpt><trkpt lat="38.05354881464028" lon="15.67200647046126"><ele>89.0</ele><time>2026-04-24T11:44:54.999Z</time></trkpt><trkpt lat="38.053448193710956" lon="15.672017647356087"><ele>89.0</ele><time>2026-04-24T11:44:55.999Z</time></trkpt><trkpt lat="38.05337872519239" lon="15.672047822024947"><ele>89.0</ele><time>2026-04-24T11:44:56.999Z</time></trkpt><trkpt lat="38.05330908577753" lon="15.672081658074205"><ele>89.0</ele><time>2026-04-24T11:44:57.999Z</time></trkpt><trkpt lat="38.053236555599064" lon="15.672046777887084"><ele>89.2</ele><time>2026-04-24T11:44:58.999Z</time></trkpt><trkpt lat="38.0531456995106" lon="15.671983837176793"><ele>89.4</ele><time>2026-04-24T11:45:00.999Z</time></trkpt><trkpt lat="38.053093366064346" lon="15.671937708888938"><ele>89.6</ele><time>2026-04-24T11:45:02.999Z</time></trkpt><trkpt lat="38.053013704258895" lon="15.6721005244679"><ele>89.8</ele><time>2026-04-24T11:45:04.999Z</time></trkpt><trkpt lat="38.05295758912262" lon="15.672186972996272"><ele>90.0</ele><time>2026-04-24T11:45:05.999Z</time></trkpt><trkpt lat="38.05287330738738" lon="15.672275252139086"><ele>90.2</ele><time>2026-04-24T11:45:06.999Z</time></trkpt><trkpt lat="38.05280168199721" lon="15.672356076148377"><ele>90.4</ele><time>2026-04-24T11:45:07.999Z</time></trkpt><trkpt lat="38.05270803376823" lon="15.672395161975055"><ele>90.6</ele><time>2026-04-24T11:45:08.999Z</time></trkpt><trkpt lat="38.05258915602198" lon="15.67242301468102"><ele>90.8</ele><time>2026-04-24T11:45:09.999Z</time></trkpt><trkpt lat="38.0524785648885" lon="15.672437273577122"><ele>91.0</ele><time>2026-04-24T11:45:11Z</time></trkpt><trkpt lat="38.05239716423273" lon="15.672460824040408"><ele>91.16666666666666</ele><time>2026-04-24T11:45:12Z</time></trkpt><trkpt lat="38.052338494303406" lon="15.672533824242409"><ele>91.33333333333333</ele><time>2026-04-24T11:45:13Z</time></trkpt><trkpt lat="38.052303724723416" lon="15.672609713324682"><ele>91.5</ele><time>2026-04-24T11:45:14Z</time></trkpt><trkpt lat="38.05226035699055" lon="15.67270867037858"><ele>91.66666666666667</ele><time>2026-04-24T11:45:15Z</time></trkpt><trkpt lat="38.05224636165669" lon="15.672811665554253"><ele>91.83333333333334</ele><time>2026-04-24T11:45:16Z</time></trkpt><trkpt lat="38.05223221780301" lon="15.672936756286422"><ele>92.0</ele><time>2026-04-24T11:45:17Z</time></trkpt><trkpt lat="38.052182935694724" lon="15.673055062989064"><ele>93.0</ele><time>2026-04-24T11:45:18Z</time></trkpt><trkpt lat="38.05215067485515" lon="15.67320948150646"><ele>94.0</ele><time>2026-04-24T11:45:19Z</time></trkpt><trkpt lat="38.052086733418385" lon="15.673349301900448"><ele>95.0</ele><time>2026-04-24T11:45:20Z</time></trkpt><trkpt lat="38.05203997642294" lon="15.673484012018502"><ele>96.0</ele><time>2026-04-24T11:45:21Z</time></trkpt><trkpt lat="38.05198320216794" lon="15.67361687159179"><ele>97.0</ele><time>2026-04-24T11:45:22Z</time></trkpt><trkpt lat="38.05193917059659" lon="15.67375593881295"><ele>98.0</ele><time>2026-04-24T11:45:23Z</time></trkpt><trkpt lat="38.05190354202446" lon="15.673889761886938"><ele>99.0</ele><time>2026-04-24T11:45:24Z</time></trkpt><trkpt lat="38.05185955637726" lon="15.67404559616304"><ele>100.0</ele><time>2026-04-24T11:45:25Z</time></trkpt><trkpt lat="38.051811252165955" lon="15.674204408267633"><ele>100.0</ele><time>2026-04-24T11:45:26Z</time></trkpt><trkpt lat="38.051772043297916" lon="15.674346620200165"><ele>100.0</ele><time>2026-04-24T11:45:27Z</time></trkpt><trkpt lat="38.05172455982031" lon="15.67448071524625"><ele>100.0</ele><time>2026-04-24T11:45:28Z</time></trkpt><trkpt lat="38.05167579803011" lon="15.674630358622876"><ele>100.0</ele><time>2026-04-24T11:45:29Z</time></trkpt><trkpt lat="38.05162529663642" lon="15.674756697782973"><ele>101.0</ele><time>2026-04-24T11:45:30Z</time></trkpt><trkpt lat="38.05158332796134" lon="15.67485624067203"><ele>102.0</ele><time>2026-04-24T11:45:31Z</time></trkpt><trkpt lat="38.05154483332657" lon="15.67495455585759"><ele>103.0</ele><time>2026-04-24T11:45:32Z</time></trkpt><trkpt lat="38.051497502982585" lon="15.675092880989656"><ele>104.0</ele><time>2026-04-24T11:45:33Z</time></trkpt><trkpt lat="38.05143404082335" lon="15.675219119951397"><ele>105.0</ele><time>2026-04-24T11:45:34Z</time></trkpt><trkpt lat="38.051391072134194" lon="15.675367899554606"><ele>105.5</ele><time>2026-04-24T11:45:35Z</time></trkpt><trkpt lat="38.05134473367168" lon="15.675522386045396"><ele>106.0</ele><time>2026-04-24T11:45:36Z</time></trkpt><trkpt lat="38.051278404532034" lon="15.675665593233754"><ele>106.5</ele><time>2026-04-24T11:45:37Z</time></trkpt><trkpt lat="38.05122058508557" lon="15.675809312483201"><ele>107.0</ele><time>2026-04-24T11:45:38Z</time></trkpt><trkpt lat="38.051171648161905" lon="15.675934901674054"><ele>107.0</ele><time>2026-04-24T11:45:39Z</time></trkpt><trkpt lat="38.05111392373977" lon="15.67606403198555"><ele>106.99999999999999</ele><time>2026-04-24T11:45:40Z</time></trkpt><trkpt lat="38.05107771234286" lon="15.676204672943118"><ele>106.99999999999999</ele><time>2026-04-24T11:45:41Z</time></trkpt><trkpt lat="38.05102883233305" lon="15.67631943022133"><ele>107.0</ele><time>2026-04-24T11:45:42Z</time></trkpt><trkpt lat="38.051004166384736" lon="15.676441699005315"><ele>107.0</ele><time>2026-04-24T11:45:43Z</time></trkpt><trkpt lat="38.05096990020571" lon="15.676556776703748"><ele>107.8</ele><time>2026-04-24T11:45:44Z</time></trkpt><trkpt lat="38.05098018199598" lon="15.676664753816986"><ele>108.6</ele><time>2026-04-24T11:45:45Z</time></trkpt><trkpt lat="38.05094641489601" lon="15.676807709838814"><ele>109.39999999999999</ele><time>2026-04-24T11:45:46Z</time></trkpt><trkpt lat="38.05092150759261" lon="15.676944113106456"><ele>110.19999999999999</ele><time>2026-04-24T11:45:47Z</time></trkpt><trkpt lat="38.05089103780642" lon="15.677079003190679"><ele>111.0</ele><time>2026-04-24T11:45:48Z</time></trkpt><trkpt lat="38.050844138202926" lon="15.677204586533874"><ele>112.25</ele><time>2026-04-24T11:45:49Z</time></trkpt><trkpt lat="38.050790315512174" lon="15.67732654368245"><ele>113.5</ele><time>2026-04-24T11:45:50Z</time></trkpt><trkpt lat="38.05072729321477" lon="15.677451461571897"><ele>114.75</ele><time>2026-04-24T11:45:51Z</time></trkpt><trkpt lat="38.05065066266166" lon="15.677573117463082"><ele>116.0</ele><time>2026-04-24T11:45:52Z</time></trkpt><trkpt lat="38.050586745617466" lon="15.677692394996798"><ele>116.8</ele><time>2026-04-24T11:45:53Z</time></trkpt><trkpt lat="38.0505325480568" lon="15.677789770714952"><ele>117.6</ele><time>2026-04-24T11:45:54Z</time></trkpt><trkpt lat="38.05048629670178" lon="15.677896130056979"><ele>118.4</ele><time>2026-04-24T11:45:55Z</time></trkpt><trkpt lat="38.05044969900305" lon="15.678018239453099"><ele>119.2</ele><time>2026-04-24T11:45:56Z</time></trkpt><trkpt lat="38.05044410153081" lon="15.678152134921676"><ele>120.0</ele><time>2026-04-24T11:45:57Z</time></trkpt><trkpt lat="38.05044596531664" lon="15.678287126487055"><ele>120.0</ele><time>2026-04-24T11:45:58Z</time></trkpt><trkpt lat="38.050419093395796" lon="15.678416211384686"><ele>120.0</ele><time>2026-04-24T11:45:59Z</time></trkpt><trkpt lat="38.050433851568556" lon="15.678521021825254"><ele>120.0</ele><time>2026-04-24T11:46:00Z</time></trkpt><trkpt lat="38.050398678551375" lon="15.678613632554214"><ele>120.0</ele><time>2026-04-24T11:46:01Z</time></trkpt><trkpt lat="38.05034211794402" lon="15.678714211126424"><ele>120.0</ele><time>2026-04-24T11:46:02Z</time></trkpt><trkpt lat="38.05028499721344" lon="15.678807200758683"><ele>120.33333333333333</ele><time>2026-04-24T11:46:03Z</time></trkpt><trkpt lat="38.05023415351708" lon="15.67891491657483"><ele>120.66666666666666</ele><time>2026-04-24T11:46:04Z</time></trkpt><trkpt lat="38.05018914269139" lon="15.679030717233745"><ele>121.0</ele><time>2026-04-24T11:46:05Z</time></trkpt><trkpt lat="38.05013780177743" lon="15.679122295475675"><ele>121.33333333333333</ele><time>2026-04-24T11:46:06Z</time></trkpt><trkpt lat="38.050089531225815" lon="15.679206000223457"><ele>121.66666666666666</ele><time>2026-04-24T11:46:07Z</time></trkpt><trkpt lat="38.05003001574213" lon="15.679261361481037"><ele>122.0</ele><time>2026-04-24T11:46:08Z</time></trkpt><trkpt lat="38.04997605171068" lon="15.67936098385588"><ele>123.0</ele><time>2026-04-24T11:46:09Z</time></trkpt><trkpt lat="38.04992986372901" lon="15.679479974829952"><ele>123.99999999999999</ele><time>2026-04-24T11:46:10Z</time></trkpt><trkpt lat="38.04990082286785" lon="15.679615059718182"><ele>124.99999999999999</ele><time>2026-04-24T11:46:11Z</time></trkpt><trkpt lat="38.049893701848674" lon="15.679738634326236"><ele>126.0</ele><time>2026-04-24T11:46:12Z</time></trkpt><trkpt lat="38.0498498593055" lon="15.679838815460672"><ele>127.0</ele><time>2026-04-24T11:46:13Z</time></trkpt><trkpt lat="38.049821033076825" lon="15.679940690554664"><ele>127.0</ele><time>2026-04-24T11:46:14Z</time></trkpt><trkpt lat="38.04978623870694" lon="15.680059096007936"><ele>126.99999999999999</ele><time>2026-04-24T11:46:15Z</time></trkpt><trkpt lat="38.049746850239096" lon="15.680179416575504"><ele>126.99999999999999</ele><time>2026-04-24T11:46:16Z</time></trkpt><trkpt lat="38.04969681262658" lon="15.680300214426708"><ele>127.0</ele><time>2026-04-24T11:46:17Z</time></trkpt><trkpt lat="38.04968093581009" lon="15.68044619880224"><ele>127.0</ele><time>2026-04-24T11:46:18Z</time></trkpt><trkpt lat="38.04963493498433" lon="15.680561204906223"><ele>128.25</ele><time>2026-04-24T11:46:19Z</time></trkpt><trkpt lat="38.04959746167863" lon="15.680679939600799"><ele>129.5</ele><time>2026-04-24T11:46:20Z</time></trkpt><trkpt lat="38.04958637107842" lon="15.680795605588326"><ele>130.75</ele><time>2026-04-24T11:46:21Z</time></trkpt><trkpt lat="38.04934860361138" lon="15.68084248887817"><ele>132.0</ele><time>2026-04-24T11:46:22Z</time></trkpt><trkpt lat="38.049315737707516" lon="15.680967721710898"><ele>132.33333333333334</ele><time>2026-04-24T11:46:23Z</time></trkpt><trkpt lat="38.04954011887369" lon="15.68120931675135"><ele>132.66666666666669</ele><time>2026-04-24T11:46:24Z</time></trkpt><trkpt lat="38.04952285958722" lon="15.681349021908572"><ele>133.0</ele><time>2026-04-24T11:46:25Z</time></trkpt><trkpt lat="38.049486588992536" lon="15.681478422613818"><ele>133.0</ele><time>2026-04-24T11:46:26Z</time></trkpt><trkpt lat="38.049451848621835" lon="15.681611284233826"><ele>133.0</ele><time>2026-04-24T11:46:27Z</time></trkpt><trkpt lat="38.049117824306606" lon="15.681742066602888"><ele>133.5</ele><time>2026-04-24T11:46:28Z</time></trkpt><trkpt lat="38.04911251210056" lon="15.681880138545628"><ele>134.0</ele><time>2026-04-24T11:46:29Z</time></trkpt><trkpt lat="38.04910450519329" lon="15.68199467857535"><ele>134.5</ele><time>2026-04-24T11:46:30Z</time></trkpt><trkpt lat="38.04906433091572" lon="15.682177085422225"><ele>135.0</ele><time>2026-04-24T11:46:32Z</time></trkpt><trkpt lat="38.04901907614622" lon="15.682303919495357"><ele>136.5</ele><time>2026-04-24T11:46:33Z</time></trkpt><trkpt lat="38.048961111015146" lon="15.68249834758022"><ele>138.0</ele><time>2026-04-24T11:46:33.999Z</time></trkpt><trkpt lat="38.04892957850462" lon="15.68266802385056"><ele>139.5</ele><time>2026-04-24T11:46:34.999Z</time></trkpt><trkpt lat="38.048914708015374" lon="15.6827697735347"><ele>141.0</ele><time>2026-04-24T11:46:35.999Z</time></trkpt><trkpt lat="38.048902799326484" lon="15.682854701347184"><ele>142.0</ele><time>2026-04-24T11:46:36.999Z</time></trkpt><trkpt lat="38.04889010525303" lon="15.682945230066787"><ele>143.0</ele><time>2026-04-24T11:46:37.999Z</time></trkpt><trkpt lat="38.04887054803711" lon="15.68308470690285"><ele>144.0</ele><time>2026-04-24T11:46:39.999Z</time></trkpt><trkpt lat="38.049055171323445" lon="15.68328925967396"><ele>145.0</ele><time>2026-04-24T11:46:41.999Z</time></trkpt><trkpt lat="38.04907340583493" lon="15.683371208922642"><ele>145.0</ele><time>2026-04-24T11:46:42.999Z</time></trkpt><trkpt lat="38.04907736961584" lon="15.683459293941432"><ele>145.0</ele><time>2026-04-24T11:46:43.999Z</time></trkpt><trkpt lat="38.04908856805734" lon="15.683601427721252"><ele>145.0</ele><time>2026-04-24T11:46:45.999Z</time></trkpt><trkpt lat="38.049085649183574" lon="15.683688258965757"><ele>145.0</ele><time>2026-04-24T11:46:46.999Z</time></trkpt><trkpt lat="38.049096891895275" lon="15.683810924290084"><ele>145.0</ele><time>2026-04-24T11:46:48.999Z</time></trkpt><trkpt lat="38.04909363332272" lon="15.683910816563685"><ele>145.0</ele><time>2026-04-24T11:46:49.999Z</time></trkpt><trkpt lat="38.049097823847916" lon="15.684000673544476"><ele>145.6</ele><time>2026-04-24T11:46:50.999Z</time></trkpt><trkpt lat="38.04910923953176" lon="15.684103156637859"><ele>146.2</ele><time>2026-04-24T11:46:51.999Z</time></trkpt><trkpt lat="38.04910581056821" lon="15.68419732030087"><ele>146.8</ele><time>2026-04-24T11:46:52.999Z</time></trkpt><trkpt lat="38.04912029068493" lon="15.68428021126928"><ele>147.4</ele><time>2026-04-24T11:46:53.999Z</time></trkpt><trkpt lat="38.04896132614397" lon="15.684398505620464"><ele>148.0</ele><time>2026-04-24T11:46:54.999Z</time></trkpt><trkpt lat="38.04888245630114" lon="15.684498575741108"><ele>148.0</ele><time>2026-04-24T11:46:55.999Z</time></trkpt><trkpt lat="38.04879932379293" lon="15.684616208036354"><ele>148.0</ele><time>2026-04-24T11:46:56.999Z</time></trkpt><trkpt lat="38.0487338832896" lon="15.684750479203666"><ele>148.0</ele><time>2026-04-24T11:46:57.999Z</time></trkpt><trkpt lat="38.048653929517634" lon="15.684862466840057"><ele>148.0</ele><time>2026-04-24T11:46:58.999Z</time></trkpt><trkpt lat="38.04859102764125" lon="15.684970131399439"><ele>148.0</ele><time>2026-04-24T11:46:59.999Z</time></trkpt><trkpt lat="38.04852668966553" lon="15.685074686299034"><ele>148.0</ele><time>2026-04-24T11:47:00.999Z</time></trkpt><trkpt lat="38.048472989758714" lon="15.685198010083447"><ele>148.0</ele><time>2026-04-24T11:47:01.999Z</time></trkpt><trkpt lat="38.04842178316451" lon="15.685336256853807"><ele>148.0</ele><time>2026-04-24T11:47:02.999Z</time></trkpt><trkpt lat="38.04837746584059" lon="15.685456384416588"><ele>148.0</ele><time>2026-04-24T11:47:03.999Z</time></trkpt><trkpt lat="38.04834747822044" lon="15.685578648287686"><ele>148.6</ele><time>2026-04-24T11:47:04.999Z</time></trkpt><trkpt lat="38.04832967887728" lon="15.685680591268037"><ele>149.20000000000002</ele><time>2026-04-24T11:47:05.999Z</time></trkpt><trkpt lat="38.04831987129979" lon="15.685786419928279"><ele>149.8</ele><time>2026-04-24T11:47:06.999Z</time></trkpt><trkpt lat="38.04830339501412" lon="15.685912069304925"><ele>150.4</ele><time>2026-04-24T11:47:07.999Z</time></trkpt><trkpt lat="38.048314691000805" lon="15.686045288189737"><ele>151.0</ele><time>2026-04-24T11:47:08.999Z</time></trkpt><trkpt lat="38.048308371743374" lon="15.686185731245393"><ele>152.5</ele><time>2026-04-24T11:47:09.999Z</time></trkpt><trkpt lat="38.048293290698496" lon="15.686338033881913"><ele>154.0</ele><time>2026-04-24T11:47:10.999Z</time></trkpt><trkpt lat="38.048261281186456" lon="15.68648934498662"><ele>155.5</ele><time>2026-04-24T11:47:11.999Z</time></trkpt><trkpt lat="38.048242538218176" lon="15.686654476587355"><ele>157.0</ele><time>2026-04-24T11:47:12.999Z</time></trkpt><trkpt lat="38.04820571944963" lon="15.686826159533195"><ele>157.25</ele><time>2026-04-24T11:47:13.999Z</time></trkpt><trkpt lat="38.04817169083469" lon="15.687009394584695"><ele>157.5</ele><time>2026-04-24T11:47:14.999Z</time></trkpt><trkpt lat="38.048125555236766" lon="15.68718411294493"><ele>157.75</ele><time>2026-04-24T11:47:15.999Z</time></trkpt><trkpt lat="38.04811081526522" lon="15.6873509080825"><ele>158.0</ele><time>2026-04-24T11:47:17Z</time></trkpt><trkpt lat="38.04808044129057" lon="15.687509432211446"><ele>158.0</ele><time>2026-04-24T11:47:18Z</time></trkpt><trkpt lat="38.048054637855294" lon="15.68767262879658"><ele>158.0</ele><time>2026-04-24T11:47:18.999Z</time></trkpt><trkpt lat="38.04802229078087" lon="15.687849971958869"><ele>158.0</ele><time>2026-04-24T11:47:19.999Z</time></trkpt><trkpt lat="38.04801080670122" lon="15.688028300609965"><ele>158.0</ele><time>2026-04-24T11:47:20.999Z</time></trkpt><trkpt lat="38.04798706813772" lon="15.6881990337406"><ele>159.25</ele><time>2026-04-24T11:47:21.999Z</time></trkpt><trkpt lat="38.04796510492405" lon="15.688369820326018"><ele>160.5</ele><time>2026-04-24T11:47:22.999Z</time></trkpt><trkpt lat="38.04795118333105" lon="15.688536530278826"><ele>161.75</ele><time>2026-04-24T11:47:24Z</time></trkpt><trkpt lat="38.047952149031524" lon="15.688712110360177"><ele>163.0</ele><time>2026-04-24T11:47:25Z</time></trkpt><trkpt lat="38.04795357528032" lon="15.688894794564263"><ele>163.4</ele><time>2026-04-24T11:47:26Z</time></trkpt><trkpt lat="38.04794971421616" lon="15.68906156408646"><ele>163.8</ele><time>2026-04-24T11:47:27Z</time></trkpt><trkpt lat="38.04792724236893" lon="15.689184133848924"><ele>164.2</ele><time>2026-04-24T11:47:28Z</time></trkpt><trkpt lat="38.04791275719454" lon="15.689285974618054"><ele>164.6</ele><time>2026-04-24T11:47:29Z</time></trkpt><trkpt lat="38.04789703900874" lon="15.689392276700099"><ele>165.0</ele><time>2026-04-24T11:47:30Z</time></trkpt><trkpt lat="38.047885564246975" lon="15.689522359319087"><ele>165.8</ele><time>2026-04-24T11:47:31Z</time></trkpt><trkpt lat="38.04785425057475" lon="15.689654092478946"><ele>166.6</ele><time>2026-04-24T11:47:32Z</time></trkpt><trkpt lat="38.04783216020967" lon="15.689782751172213"><ele>167.39999999999998</ele><time>2026-04-24T11:47:33Z</time></trkpt><trkpt lat="38.04782369625913" lon="15.689913815732542"><ele>168.2</ele><time>2026-04-24T11:47:34Z</time></trkpt><trkpt lat="38.04781026229001" lon="15.690043292237576"><ele>169.0</ele><time>2026-04-24T11:47:35Z</time></trkpt><trkpt lat="38.047798383033694" lon="15.690185597530627"><ele>170.39999999999998</ele><time>2026-04-24T11:47:36Z</time></trkpt><trkpt lat="38.047788750346676" lon="15.69030037445099"><ele>171.8</ele><time>2026-04-24T11:47:37Z</time></trkpt><trkpt lat="38.04776130508346" lon="15.690449305004899"><ele>173.2</ele><time>2026-04-24T11:47:39Z</time></trkpt><trkpt lat="38.047758872131986" lon="15.69054775108127"><ele>174.60000000000002</ele><time>2026-04-24T11:47:40Z</time></trkpt><trkpt lat="38.04776112264834" lon="15.690674208950652"><ele>176.0</ele><time>2026-04-24T11:47:41Z</time></trkpt><trkpt lat="38.04778219380403" lon="15.690797289002221"><ele>176.0</ele><time>2026-04-24T11:47:42Z</time></trkpt><trkpt lat="38.047786863451876" lon="15.690924408694762"><ele>176.0</ele><time>2026-04-24T11:47:43Z</time></trkpt><trkpt lat="38.04777160683685" lon="15.69104103560584"><ele>176.0</ele><time>2026-04-24T11:47:44Z</time></trkpt><trkpt lat="38.04777204809881" lon="15.691142514600092"><ele>176.0</ele><time>2026-04-24T11:47:45Z</time></trkpt><trkpt lat="38.047771283804025" lon="15.69123846836661"><ele>176.0</ele><time>2026-04-24T11:47:46Z</time></trkpt><trkpt lat="38.047766953162096" lon="15.691331756276632"><ele>176.0</ele><time>2026-04-24T11:47:47Z</time></trkpt><trkpt lat="38.04776076821293" lon="15.691433956955176"><ele>176.66666666666666</ele><time>2026-04-24T11:47:48Z</time></trkpt><trkpt lat="38.047753764617866" lon="15.691536799276138"><ele>177.33333333333331</ele><time>2026-04-24T11:47:49Z</time></trkpt><trkpt lat="38.04774620938792" lon="15.691647027838565"><ele>178.0</ele><time>2026-04-24T11:47:50Z</time></trkpt><trkpt lat="38.04774031050986" lon="15.691752331080695"><ele>178.66666666666666</ele><time>2026-04-24T11:47:51Z</time></trkpt><trkpt lat="38.04773408505681" lon="15.69186346384608"><ele>179.33333333333334</ele><time>2026-04-24T11:47:52Z</time></trkpt><trkpt lat="38.04772881388993" lon="15.69196981703693"><ele>180.0</ele><time>2026-04-24T11:47:53Z</time></trkpt><trkpt lat="38.04774325685058" lon="15.692073948340004"><ele>180.83333333333334</ele><time>2026-04-24T11:47:54Z</time></trkpt><trkpt lat="38.0477414581626" lon="15.692183195510168"><ele>181.66666666666666</ele><time>2026-04-24T11:47:55Z</time></trkpt><trkpt lat="38.047751158984795" lon="15.692284978988289"><ele>182.5</ele><time>2026-04-24T11:47:56Z</time></trkpt><trkpt lat="38.04779182380217" lon="15.692386593065365"><ele>183.33333333333331</ele><time>2026-04-24T11:47:57Z</time></trkpt><trkpt lat="38.04780247170535" lon="15.69247271118276"><ele>184.16666666666666</ele><time>2026-04-24T11:47:58Z</time></trkpt><trkpt lat="38.04780991078357" lon="15.692560467166462"><ele>185.0</ele><time>2026-04-24T11:47:59Z</time></trkpt><trkpt lat="38.04779888663035" lon="15.692645802520492"><ele>185.0</ele><time>2026-04-24T11:48:00Z</time></trkpt><trkpt lat="38.047812858847514" lon="15.692743338575479"><ele>185.0</ele><time>2026-04-24T11:48:01Z</time></trkpt><trkpt lat="38.047834655551334" lon="15.692852050588677"><ele>185.0</ele><time>2026-04-24T11:48:02Z</time></trkpt><trkpt lat="38.04783249879499" lon="15.69295404966831"><ele>185.0</ele><time>2026-04-24T11:48:03Z</time></trkpt><trkpt lat="38.04781984901207" lon="15.693041458996118"><ele>185.0</ele><time>2026-04-24T11:48:04Z</time></trkpt><trkpt lat="38.04780138687422" lon="15.693121480877478"><ele>185.0</ele><time>2026-04-24T11:48:05Z</time></trkpt><trkpt lat="38.0477786197511" lon="15.693204255321449"><ele>185.83333333333331</ele><time>2026-04-24T11:48:06Z</time></trkpt><trkpt lat="38.047768174288876" lon="15.693364761521085"><ele>186.66666666666666</ele><time>2026-04-24T11:48:08Z</time></trkpt><trkpt lat="38.04776577000372" lon="15.69345910849258"><ele>187.5</ele><time>2026-04-24T11:48:09Z</time></trkpt><trkpt lat="38.047770595899344" lon="15.693558562477767"><ele>188.33333333333334</ele><time>2026-04-24T11:48:10Z</time></trkpt><trkpt lat="38.047781503221636" lon="15.693652586091137"><ele>189.16666666666669</ele><time>2026-04-24T11:48:11Z</time></trkpt><trkpt lat="38.04778605151459" lon="15.693752845026586"><ele>190.0</ele><time>2026-04-24T11:48:12Z</time></trkpt><trkpt lat="38.04779031839334" lon="15.69386628395105"><ele>190.5</ele><time>2026-04-24T11:48:13Z</time></trkpt><trkpt lat="38.0477874295966" lon="15.693982373243875"><ele>191.0</ele><time>2026-04-24T11:48:14Z</time></trkpt><trkpt lat="38.04778200131549" lon="15.694106398125614"><ele>191.5</ele><time>2026-04-24T11:48:15Z</time></trkpt><trkpt lat="38.047771879766856" lon="15.694212431581441"><ele>192.0</ele><time>2026-04-24T11:48:16Z</time></trkpt><trkpt lat="38.0477691985628" lon="15.694307734973266"><ele>192.49999999999997</ele><time>2026-04-24T11:48:17Z</time></trkpt><trkpt lat="38.04776713811134" lon="15.69439727019121"><ele>193.0</ele><time>2026-04-24T11:48:18Z</time></trkpt><trkpt lat="38.04776593120715" lon="15.694517249609195"><ele>193.66666666666666</ele><time>2026-04-24T11:48:19Z</time></trkpt><trkpt lat="38.047747912533765" lon="15.694627338600641"><ele>194.33333333333331</ele><time>2026-04-24T11:48:20Z</time></trkpt><trkpt lat="38.04774121968285" lon="15.694740756471438"><ele>195.0</ele><time>2026-04-24T11:48:21Z</time></trkpt><trkpt lat="38.04774432154588" lon="15.694830420216801"><ele>195.66666666666669</ele><time>2026-04-24T11:48:21.999Z</time></trkpt><trkpt lat="38.04774029964702" lon="15.694924041067566"><ele>196.33333333333334</ele><time>2026-04-24T11:48:22.999Z</time></trkpt><trkpt lat="38.04773047251339" lon="15.695071209074797"><ele>197.0</ele><time>2026-04-24T11:48:24.999Z</time></trkpt><trkpt lat="38.047705064392076" lon="15.695216306952016"><ele>198.0</ele><time>2026-04-24T11:48:26.999Z</time></trkpt><trkpt lat="38.04767262195304" lon="15.695320597456456"><ele>199.0</ele><time>2026-04-24T11:48:28.999Z</time></trkpt><trkpt lat="38.04765721816077" lon="15.695398998863658"><ele>200.0</ele><time>2026-04-24T11:48:42.999Z</time></trkpt><trkpt lat="38.047760548273104" lon="15.695537176525571"><ele>201.0</ele><time>2026-04-24T11:48:45.999Z</time></trkpt><trkpt lat="38.04779042581733" lon="15.695705465167547"><ele>202.0</ele><time>2026-04-24T11:48:47.999Z</time></trkpt><trkpt lat="38.04781382704235" lon="15.695827614517732"><ele>202.0</ele><time>2026-04-24T11:48:48.999Z</time></trkpt><trkpt lat="38.047836651962555" lon="15.695947268757314"><ele>202.0</ele><time>2026-04-24T11:48:49.999Z</time></trkpt><trkpt lat="38.04787357835205" lon="15.696068621676522"><ele>202.0</ele><time>2026-04-24T11:48:50.999Z</time></trkpt><trkpt lat="38.04789024453967" lon="15.696190509740532"><ele>202.0</ele><time>2026-04-24T11:48:51.999Z</time></trkpt><trkpt lat="38.047909182419566" lon="15.696293379906804"><ele>202.0</ele><time>2026-04-24T11:48:52.999Z</time></trkpt><trkpt lat="38.04793867694755" lon="15.696403459878644"><ele>202.16666666666666</ele><time>2026-04-24T11:48:53.999Z</time></trkpt><trkpt lat="38.047973802213875" lon="15.69649931251121"><ele>202.33333333333331</ele><time>2026-04-24T11:48:54.999Z</time></trkpt><trkpt lat="38.04797270215592" lon="15.696592432884078"><ele>202.5</ele><time>2026-04-24T11:48:55.999Z</time></trkpt><trkpt lat="38.0479861441736" lon="15.696713540837761"><ele>202.66666666666669</ele><time>2026-04-24T11:48:56.999Z</time></trkpt><trkpt lat="38.04798844371436" lon="15.696828629068573"><ele>202.83333333333334</ele><time>2026-04-24T11:48:57.999Z</time></trkpt><trkpt lat="38.04800465935344" lon="15.696909831788483"><ele>203.0</ele><time>2026-04-24T11:48:58.999Z</time></trkpt><trkpt lat="38.04797169505992" lon="15.696822508892605"><ele>203.0</ele><time>2026-04-24T11:49:02.999Z</time></trkpt><trkpt lat="38.04796895057647" lon="15.696706820122504"><ele>203.0</ele><time>2026-04-24T11:49:03.999Z</time></trkpt><trkpt lat="38.04794981275854" lon="15.696554237975192"><ele>203.0</ele><time>2026-04-24T11:49:04.999Z</time></trkpt><trkpt lat="38.04792078318536" lon="15.696412993503388"><ele>203.0</ele><time>2026-04-24T11:49:05.999Z</time></trkpt><trkpt lat="38.04789065972719" lon="15.696275489250139"><ele>203.0</ele><time>2026-04-24T11:49:06.999Z</time></trkpt><trkpt lat="38.047858574125705" lon="15.6961537839259"><ele>202.8</ele><time>2026-04-24T11:49:07.999Z</time></trkpt><trkpt lat="38.0478374085806" lon="15.696041039424209"><ele>202.60000000000002</ele><time>2026-04-24T11:49:08.999Z</time></trkpt><trkpt lat="38.04781514541129" lon="15.695924422480235"><ele>202.39999999999998</ele><time>2026-04-24T11:49:09.999Z</time></trkpt><trkpt lat="38.04767404098542" lon="15.69585658134092"><ele>202.2</ele><time>2026-04-24T11:49:10.999Z</time></trkpt><trkpt lat="38.047598022028794" lon="15.695780736809043"><ele>202.0</ele><time>2026-04-24T11:49:11.999Z</time></trkpt><trkpt lat="38.04750226656181" lon="15.695718044301872"><ele>202.2</ele><time>2026-04-24T11:49:12.999Z</time></trkpt><trkpt lat="38.04739849238279" lon="15.69565870039229"><ele>202.39999999999998</ele><time>2026-04-24T11:49:13.999Z</time></trkpt><trkpt lat="38.047294281056956" lon="15.695593644917706"><ele>202.60000000000002</ele><time>2026-04-24T11:49:14.999Z</time></trkpt><trkpt lat="38.047196405145534" lon="15.69552733925683"><ele>202.8</ele><time>2026-04-24T11:49:15.999Z</time></trkpt><trkpt lat="38.04710526816074" lon="15.695456044523318"><ele>203.0</ele><time>2026-04-24T11:49:16.999Z</time></trkpt><trkpt lat="38.04701040772651" lon="15.695386415205675"><ele>203.0</ele><time>2026-04-24T11:49:17.999Z</time></trkpt><trkpt lat="38.04691296039079" lon="15.695317966921818"><ele>203.0</ele><time>2026-04-24T11:49:18.999Z</time></trkpt><trkpt lat="38.04682125184612" lon="15.695239647757477"><ele>203.0</ele><time>2026-04-24T11:49:19.999Z</time></trkpt><trkpt lat="38.0467302370842" lon="15.695156877531366"><ele>203.0</ele><time>2026-04-24T11:49:20.999Z</time></trkpt><trkpt lat="38.046647555823" lon="15.695075781116179"><ele>203.0</ele><time>2026-04-24T11:49:21.999Z</time></trkpt><trkpt lat="38.046568579740295" lon="15.694998414425838"><ele>203.50000000000003</ele><time>2026-04-24T11:49:22.999Z</time></trkpt><trkpt lat="38.046497805439444" lon="15.694914198463826"><ele>204.0</ele><time>2026-04-24T11:49:23.999Z</time></trkpt><trkpt lat="38.046436637655404" lon="15.694818342686656"><ele>204.5</ele><time>2026-04-24T11:49:24.999Z</time></trkpt><trkpt lat="38.04638468559759" lon="15.694725954389572"><ele>205.0</ele><time>2026-04-24T11:49:25.999Z</time></trkpt><trkpt lat="38.04632963589895" lon="15.694648109370304"><ele>205.50000000000003</ele><time>2026-04-24T11:49:26.999Z</time></trkpt><trkpt lat="38.04626571911285" lon="15.694595169464256"><ele>206.0</ele><time>2026-04-24T11:49:27.999Z</time></trkpt><trkpt lat="38.04619587374811" lon="15.694563159590485"><ele>206.0</ele><time>2026-04-24T11:49:28.999Z</time></trkpt><trkpt lat="38.046109010714915" lon="15.694540421761888"><ele>206.0</ele><time>2026-04-24T11:49:29.999Z</time></trkpt><trkpt lat="38.04603155536261" lon="15.69455545281612"><ele>206.0</ele><time>2026-04-24T11:49:30.999Z</time></trkpt><trkpt lat="38.04600324875107" lon="15.694414161229908"><ele>206.0</ele><time>2026-04-24T11:49:32.999Z</time></trkpt><trkpt lat="38.04598136312047" lon="15.694331466859348"><ele>206.0</ele><time>2026-04-24T11:49:33.999Z</time></trkpt><trkpt lat="38.04594904858431" lon="15.694209367148249"><ele>206.33333333333334</ele><time>2026-04-24T11:49:36.999Z</time></trkpt><trkpt lat="38.04592837225438" lon="15.69413168457276"><ele>206.66666666666669</ele><time>2026-04-24T11:49:37.999Z</time></trkpt><trkpt lat="38.045892358826364" lon="15.694046785243376"><ele>207.0</ele><time>2026-04-24T11:49:38.999Z</time></trkpt><trkpt lat="38.0458661494508" lon="15.693946321998569"><ele>207.33333333333331</ele><time>2026-04-24T11:49:39.999Z</time></trkpt><trkpt lat="38.04581469974139" lon="15.693863883026863"><ele>207.66666666666666</ele><time>2026-04-24T11:49:40.999Z</time></trkpt><trkpt lat="38.04574990099206" lon="15.693785855764277"><ele>208.0</ele><time>2026-04-24T11:49:41.999Z</time></trkpt><trkpt lat="38.04571071170978" lon="15.693682467493336"><ele>214.8</ele><time>2026-04-24T11:49:42.999Z</time></trkpt><trkpt lat="38.045717574334354" lon="15.693532764901478"><ele>221.60000000000002</ele><time>2026-04-24T11:49:43.999Z</time></trkpt><trkpt lat="38.04568809656443" lon="15.693393220163422"><ele>228.39999999999998</ele><time>2026-04-24T11:49:44.999Z</time></trkpt><trkpt lat="38.04566326545533" lon="15.69328015012538"><ele>235.2</ele><time>2026-04-24T11:49:45.999Z</time></trkpt><trkpt lat="38.04559289051004" lon="15.693195691188704"><ele>242.0</ele><time>2026-04-24T11:49:46.999Z</time></trkpt><trkpt lat="38.045511472909276" lon="15.69309991407066"><ele>242.0</ele><time>2026-04-24T11:49:47.999Z</time></trkpt><trkpt lat="38.04543887219015" lon="15.692997232581341"><ele>242.0</ele><time>2026-04-24T11:49:48.999Z</time></trkpt><trkpt lat="38.04539166061717" lon="15.692885749162835"><ele>242.0</ele><time>2026-04-24T11:49:49.999Z</time></trkpt><trkpt lat="38.04539524766605" lon="15.692760809403406"><ele>242.0</ele><time>2026-04-24T11:49:50.999Z</time></trkpt><trkpt lat="38.04538464663022" lon="15.6926414015338"><ele>242.0</ele><time>2026-04-24T11:49:51.999Z</time></trkpt><trkpt lat="38.04542824343187" lon="15.692512048408062"><ele>241.6</ele><time>2026-04-24T11:49:52.999Z</time></trkpt><trkpt lat="38.04546804277979" lon="15.692392018213733"><ele>241.2</ele><time>2026-04-24T11:49:53.999Z</time></trkpt><trkpt lat="38.04550033070317" lon="15.692256476682442"><ele>240.8</ele><time>2026-04-24T11:49:54.999Z</time></trkpt><trkpt lat="38.045536206559206" lon="15.692123271527272"><ele>240.4</ele><time>2026-04-24T11:49:55.999Z</time></trkpt><trkpt lat="38.04554237628797" lon="15.691969782584442"><ele>240.0</ele><time>2026-04-24T11:49:56.999Z</time></trkpt><trkpt lat="38.045536470575506" lon="15.691813048387667"><ele>239.5</ele><time>2026-04-24T11:49:57.999Z</time></trkpt><trkpt lat="38.04552057864024" lon="15.69166465528415"><ele>239.0</ele><time>2026-04-24T11:49:58.999Z</time></trkpt><trkpt lat="38.045486852299945" lon="15.69152551397782"><ele>238.5</ele><time>2026-04-24T11:49:59.999Z</time></trkpt><trkpt lat="38.04543469672751" lon="15.6913846900478"><ele>238.0</ele><time>2026-04-24T11:50:00.999Z</time></trkpt><trkpt lat="38.04538100995431" lon="15.69125544282667"><ele>238.0</ele><time>2026-04-24T11:50:01.999Z</time></trkpt><trkpt lat="38.045376023910755" lon="15.691139898841763"><ele>238.0</ele><time>2026-04-24T11:50:02.999Z</time></trkpt><trkpt lat="38.04539688206111" lon="15.691032319918737"><ele>238.0</ele><time>2026-04-24T11:50:03.999Z</time></trkpt><trkpt lat="38.04540420698467" lon="15.690887000800588"><ele>238.0</ele><time>2026-04-24T11:50:04.999Z</time></trkpt><trkpt lat="38.04539097469487" lon="15.690729506508347"><ele>238.0</ele><time>2026-04-24T11:50:05.999Z</time></trkpt><trkpt lat="38.04539247507514" lon="15.690571462152457"><ele>237.2</ele><time>2026-04-24T11:50:06.999Z</time></trkpt><trkpt lat="38.04544566160212" lon="15.69044411043698"><ele>236.4</ele><time>2026-04-24T11:50:07.999Z</time></trkpt><trkpt lat="38.04548656509468" lon="15.690338350289348"><ele>235.59999999999997</ele><time>2026-04-24T11:50:08.999Z</time></trkpt><trkpt lat="38.04553010964886" lon="15.690273891839787"><ele>234.79999999999998</ele><time>2026-04-24T11:50:10.999Z</time></trkpt><trkpt lat="38.04540182206907" lon="15.690191982141757"><ele>234.0</ele><time>2026-04-24T11:50:11.999Z</time></trkpt><trkpt lat="38.045313629803" lon="15.690187189508658"><ele>234.0</ele><time>2026-04-24T11:50:12.999Z</time></trkpt><trkpt lat="38.04521838287108" lon="15.6902098665445"><ele>233.99999999999997</ele><time>2026-04-24T11:50:13.999Z</time></trkpt><trkpt lat="38.0451246643727" lon="15.690234961518012"><ele>233.99999999999997</ele><time>2026-04-24T11:50:14.999Z</time></trkpt><trkpt lat="38.04505318323704" lon="15.690262671110265"><ele>234.0</ele><time>2026-04-24T11:50:15.999Z</time></trkpt><trkpt lat="38.04499613311522" lon="15.690418077285806"><ele>234.0</ele><time>2026-04-24T11:50:17.999Z</time></trkpt><trkpt lat="38.04498396041479" lon="15.690550492097955"><ele>232.5</ele><time>2026-04-24T11:50:18.999Z</time></trkpt><trkpt lat="38.0449561813624" lon="15.690721884922452"><ele>231.0</ele><time>2026-04-24T11:50:19.999Z</time></trkpt><trkpt lat="38.04492396429992" lon="15.6908888776401"><ele>229.5</ele><time>2026-04-24T11:50:20.999Z</time></trkpt><trkpt lat="38.04490981054942" lon="15.691021947378088"><ele>228.0</ele><time>2026-04-24T11:50:21.999Z</time></trkpt><trkpt lat="38.04494135446214" lon="15.691140173692542"><ele>230.0</ele><time>2026-04-24T11:50:22.999Z</time></trkpt><trkpt lat="38.04499734167766" lon="15.691240319197961"><ele>232.0</ele><time>2026-04-24T11:50:23.999Z</time></trkpt><trkpt lat="38.04505890495547" lon="15.691325337235613"><ele>234.0</ele><time>2026-04-24T11:50:24.999Z</time></trkpt><trkpt lat="38.045080942894344" lon="15.691417806196577"><ele>236.0</ele><time>2026-04-24T11:50:25.999Z</time></trkpt><trkpt lat="38.04507764890492" lon="15.691517379486449"><ele>238.0</ele><time>2026-04-24T11:50:26.999Z</time></trkpt><trkpt lat="38.045077339593824" lon="15.691655712661692"><ele>238.0</ele><time>2026-04-24T11:50:27.999Z</time></trkpt><trkpt lat="38.04507950178281" lon="15.691834912301664"><ele>238.0</ele><time>2026-04-24T11:50:28.999Z</time></trkpt><trkpt lat="38.04509545242505" lon="15.691976005353407"><ele>238.0</ele><time>2026-04-24T11:50:29.999Z</time></trkpt><trkpt lat="38.04509618039391" lon="15.692068482777337"><ele>238.0</ele><time>2026-04-24T11:50:30.999Z</time></trkpt><trkpt lat="38.04505933008543" lon="15.69215072062523"><ele>238.0</ele><time>2026-04-24T11:50:31.999Z</time></trkpt><trkpt lat="38.04500279754054" lon="15.692256646525372"><ele>239.75</ele><time>2026-04-24T11:50:32.999Z</time></trkpt><trkpt lat="38.04495819276915" lon="15.692396202173825"><ele>241.5</ele><time>2026-04-24T11:50:33.999Z</time></trkpt><trkpt lat="38.04493258126785" lon="15.692553754512936"><ele>243.25</ele><time>2026-04-24T11:50:34.999Z</time></trkpt><trkpt lat="38.044917521326575" lon="15.692711389874223"><ele>245.0</ele><time>2026-04-24T11:50:35.999Z</time></trkpt><trkpt lat="38.044921733071504" lon="15.69286579805658"><ele>248.5</ele><time>2026-04-24T11:50:36.999Z</time></trkpt><trkpt lat="38.044939809561406" lon="15.69302076580343"><ele>252.0</ele><time>2026-04-24T11:50:37.999Z</time></trkpt><trkpt lat="38.04495563253015" lon="15.693179972942632"><ele>255.5</ele><time>2026-04-24T11:50:38.999Z</time></trkpt><trkpt lat="38.04495879697044" lon="15.693336155409078"><ele>259.0</ele><time>2026-04-24T11:50:39.999Z</time></trkpt><trkpt lat="38.04495691140443" lon="15.693485720320105"><ele>257.2</ele><time>2026-04-24T11:50:40.999Z</time></trkpt><trkpt lat="38.0449485394286" lon="15.693616564907714"><ele>255.39999999999998</ele><time>2026-04-24T11:50:41.999Z</time></trkpt><trkpt lat="38.044932549343166" lon="15.693744907928053"><ele>253.6</ele><time>2026-04-24T11:50:42.999Z</time></trkpt><trkpt lat="38.04493835435202" lon="15.693879766373518"><ele>251.8</ele><time>2026-04-24T11:50:43.999Z</time></trkpt><trkpt lat="38.04496777476878" lon="15.694025048677833"><ele>250.0</ele><time>2026-04-24T11:50:44.999Z</time></trkpt><trkpt lat="38.045015518069775" lon="15.694153806112418"><ele>250.0</ele><time>2026-04-24T11:50:45.999Z</time></trkpt><trkpt lat="38.045057636884714" lon="15.694252916814659"><ele>250.0</ele><time>2026-04-24T11:50:46.999Z</time></trkpt><trkpt lat="38.045085053681184" lon="15.694327054107038"><ele>250.0</ele><time>2026-04-24T11:50:47.999Z</time></trkpt><trkpt lat="38.045080695915416" lon="15.694493602152903"><ele>250.0</ele><time>2026-04-24T11:50:49.999Z</time></trkpt><trkpt lat="38.04503610052845" lon="15.694595356880086"><ele>250.0</ele><time>2026-04-24T11:50:50.999Z</time></trkpt><trkpt lat="38.04500832069513" lon="15.694743589702176"><ele>251.75</ele><time>2026-04-24T11:50:51.999Z</time></trkpt><trkpt lat="38.044971971666456" lon="15.694906550029415"><ele>253.5</ele><time>2026-04-24T11:50:52.999Z</time></trkpt><trkpt lat="38.04494688788234" lon="15.695072745113222"><ele>255.25</ele><time>2026-04-24T11:50:53.999Z</time></trkpt><trkpt lat="38.04488920688609" lon="15.695197829779042"><ele>257.0</ele><time>2026-04-24T11:50:54.999Z</time></trkpt><trkpt lat="38.044854629200564" lon="15.695306107952964"><ele>264.2</ele><time>2026-04-24T11:50:55.999Z</time></trkpt><trkpt lat="38.04484311942442" lon="15.695407078854947"><ele>271.4</ele><time>2026-04-24T11:50:56.999Z</time></trkpt><trkpt lat="38.044907697380125" lon="15.695519129885929"><ele>278.6</ele><time>2026-04-24T11:50:57.999Z</time></trkpt><trkpt lat="38.04494486965495" lon="15.695634858132426"><ele>285.8</ele><time>2026-04-24T11:50:58.999Z</time></trkpt><trkpt lat="38.04490711520082" lon="15.695739449349029"><ele>293.0</ele><time>2026-04-24T11:51:00.999Z</time></trkpt><trkpt lat="38.04483100317492" lon="15.695660918476253"><ele>293.0</ele><time>2026-04-24T11:51:02.999Z</time></trkpt><trkpt lat="38.044844525550545" lon="15.695560480326488"><ele>293.0</ele><time>2026-04-24T11:51:03.999Z</time></trkpt><trkpt lat="38.04481956036725" lon="15.695451122996463"><ele>293.0</ele><time>2026-04-24T11:51:04.999Z</time></trkpt><trkpt lat="38.04479352503275" lon="15.695345167849455"><ele>293.0</ele><time>2026-04-24T11:51:05.999Z</time></trkpt><trkpt lat="38.04478358102437" lon="15.695246511575819"><ele>293.0</ele><time>2026-04-24T11:51:06.999Z</time></trkpt><trkpt lat="38.04478476637951" lon="15.69515437614659"><ele>293.0</ele><time>2026-04-24T11:51:07.999Z</time></trkpt><trkpt lat="38.044825606135184" lon="15.695085950124467"><ele>292.8</ele><time>2026-04-24T11:51:08.999Z</time></trkpt><trkpt lat="38.04485732308956" lon="15.694979428880064"><ele>292.6</ele><time>2026-04-24T11:51:09.999Z</time></trkpt><trkpt lat="38.04486350078924" lon="15.694864718056719"><ele>292.4</ele><time>2026-04-24T11:51:10.999Z</time></trkpt><trkpt lat="38.04484774988229" lon="15.694737851834853"><ele>292.2</ele><time>2026-04-24T11:51:11.999Z</time></trkpt><trkpt lat="38.044830702212074" lon="15.694609423219935"><ele>292.0</ele><time>2026-04-24T11:51:12.999Z</time></trkpt><trkpt lat="38.044784292389295" lon="15.69448138109227"><ele>288.4</ele><time>2026-04-24T11:51:13.999Z</time></trkpt><trkpt lat="38.04474982789135" lon="15.694357108693362"><ele>284.79999999999995</ele><time>2026-04-24T11:51:14.999Z</time></trkpt><trkpt lat="38.04469589837532" lon="15.694250611620804"><ele>281.2</ele><time>2026-04-24T11:51:15.999Z</time></trkpt><trkpt lat="38.04461819632519" lon="15.694152530238307"><ele>277.59999999999997</ele><time>2026-04-24T11:51:16.999Z</time></trkpt><trkpt lat="38.044523506567224" lon="15.694065690688904"><ele>274.0</ele><time>2026-04-24T11:51:17.999Z</time></trkpt><trkpt lat="38.04440491430879" lon="15.693991525082234"><ele>274.0</ele><time>2026-04-24T11:51:18.999Z</time></trkpt><trkpt lat="38.04428965515115" lon="15.693918063198518"><ele>274.0</ele><time>2026-04-24T11:51:19.999Z</time></trkpt><trkpt lat="38.04419482309361" lon="15.693848060696599"><ele>274.0</ele><time>2026-04-24T11:51:20.999Z</time></trkpt><trkpt lat="38.044113562578545" lon="15.693804708075792"><ele>274.0</ele><time>2026-04-24T11:51:21.999Z</time></trkpt><trkpt lat="38.04401738132278" lon="15.693803570165198"><ele>274.0</ele><time>2026-04-24T11:51:22.999Z</time></trkpt><trkpt lat="38.04392261917264" lon="15.69385412749043"><ele>274.75</ele><time>2026-04-24T11:51:23.999Z</time></trkpt><trkpt lat="38.0438472738071" lon="15.693948900317322"><ele>275.5</ele><time>2026-04-24T11:51:24.999Z</time></trkpt><trkpt lat="38.043775115804095" lon="15.694084495057924"><ele>276.25</ele><time>2026-04-24T11:51:25.999Z</time></trkpt><trkpt lat="38.04367385857817" lon="15.694241644501737"><ele>277.0</ele><time>2026-04-24T11:51:26.999Z</time></trkpt><trkpt lat="38.043574714139694" lon="15.694379354856604"><ele>279.2</ele><time>2026-04-24T11:51:27.999Z</time></trkpt><trkpt lat="38.04349144176007" lon="15.694492293924089"><ele>281.4</ele><time>2026-04-24T11:51:28.999Z</time></trkpt><trkpt lat="38.04342370505684" lon="15.694557652352115"><ele>283.6</ele><time>2026-04-24T11:51:29.999Z</time></trkpt><trkpt lat="38.043339590253375" lon="15.69456788054621"><ele>285.8</ele><time>2026-04-24T11:51:30.999Z</time></trkpt><trkpt lat="38.04326227596085" lon="15.694558064560834"><ele>288.0</ele><time>2026-04-24T11:51:31.999Z</time></trkpt><trkpt lat="38.04317074846875" lon="15.694577572051347"><ele>288.0</ele><time>2026-04-24T11:51:33.999Z</time></trkpt><trkpt lat="38.04320725763562" lon="15.694740030181977"><ele>288.0</ele><time>2026-04-24T11:51:35.999Z</time></trkpt><trkpt lat="38.04327947992478" lon="15.694786748304624"><ele>288.0</ele><time>2026-04-24T11:51:36.999Z</time></trkpt><trkpt lat="38.043363055891064" lon="15.694789137479395"><ele>288.0</ele><time>2026-04-24T11:51:37.999Z</time></trkpt><trkpt lat="38.04343962232148" lon="15.694742977094796"><ele>288.0</ele><time>2026-04-24T11:51:38.999Z</time></trkpt><trkpt lat="38.04353019721148" lon="15.694681638419528"><ele>290.0</ele><time>2026-04-24T11:51:39.999Z</time></trkpt><trkpt lat="38.04361606615405" lon="15.694607961097164"><ele>292.0</ele><time>2026-04-24T11:51:40.999Z</time></trkpt><trkpt lat="38.04369930411176" lon="15.694540612128758"><ele>294.0</ele><time>2026-04-24T11:51:41.999Z</time></trkpt><trkpt lat="38.04377524932039" lon="15.694485058913386"><ele>296.0</ele><time>2026-04-24T11:51:42.999Z</time></trkpt><trkpt lat="38.04383636493433" lon="15.694450141742113"><ele>298.0</ele><time>2026-04-24T11:51:43.999Z</time></trkpt><trkpt lat="38.04394098679638" lon="15.69443344916326"><ele>298.0</ele><time>2026-04-24T11:51:45.999Z</time></trkpt><trkpt lat="38.04403463100438" lon="15.694454633668503"><ele>298.0</ele><time>2026-04-24T11:51:47.999Z</time></trkpt><trkpt lat="38.04401011764141" lon="15.694548077898668"><ele>298.0</ele><time>2026-04-24T11:51:49.999Z</time></trkpt><trkpt lat="38.043874046976285" lon="15.694552211847117"><ele>298.0</ele><time>2026-04-24T11:51:51.999Z</time></trkpt><trkpt lat="38.043799834329576" lon="15.694559389524343"><ele>298.0</ele><time>2026-04-24T11:51:52.999Z</time></trkpt><trkpt lat="38.04373257527263" lon="15.694574579739747"><ele>298.0</ele><time>2026-04-24T11:51:53.999Z</time></trkpt><trkpt lat="38.043663533181245" lon="15.694624562691905"><ele>298.0</ele><time>2026-04-24T11:51:54.999Z</time></trkpt><trkpt lat="38.043596777717575" lon="15.694687578416037"><ele>298.0</ele><time>2026-04-24T11:51:55.999Z</time></trkpt><trkpt lat="38.04354389943458" lon="15.694752795335795"><ele>298.0</ele><time>2026-04-24T11:51:56.999Z</time></trkpt><trkpt lat="38.04349983937448" lon="15.69482430007384"><ele>298.0</ele><time>2026-04-24T11:51:57.999Z</time></trkpt><trkpt lat="38.04345661186733" lon="15.69490041931258"><ele>298.0</ele><time>2026-04-24T11:51:58.999Z</time></trkpt><trkpt lat="38.043410408942414" lon="15.694992653277811"><ele>298.0</ele><time>2026-04-24T11:51:59.999Z</time></trkpt><trkpt lat="38.04335392239618" lon="15.695074578131813"><ele>298.0</ele><time>2026-04-24T11:52:00.999Z</time></trkpt><trkpt lat="38.04328901629426" lon="15.695132067247487"><ele>298.0</ele><time>2026-04-24T11:52:01.999Z</time></trkpt><trkpt lat="38.043210734769694" lon="15.695167491580653"><ele>298.0</ele><time>2026-04-24T11:52:02.999Z</time></trkpt><trkpt lat="38.04312050377976" lon="15.695152020883228"><ele>298.0</ele><time>2026-04-24T11:52:03.999Z</time></trkpt><trkpt lat="38.043025243388676" lon="15.69515964426756"><ele>298.0</ele><time>2026-04-24T11:52:04.999Z</time></trkpt><trkpt lat="38.0429415718324" lon="15.695183172829715"><ele>299.6</ele><time>2026-04-24T11:52:05.999Z</time></trkpt><trkpt lat="38.04288568297938" lon="15.69523990015209"><ele>301.20000000000005</ele><time>2026-04-24T11:52:06.999Z</time></trkpt><trkpt lat="38.04283641635187" lon="15.695337446782265"><ele>302.8</ele><time>2026-04-24T11:52:07.999Z</time></trkpt><trkpt lat="38.042765897808955" lon="15.695436289811026"><ele>304.40000000000003</ele><time>2026-04-24T11:52:08.999Z</time></trkpt><trkpt lat="38.04267254736355" lon="15.695499585232708"><ele>306.0</ele><time>2026-04-24T11:52:09.999Z</time></trkpt><trkpt lat="38.04259144862827" lon="15.695549545674837"><ele>306.0</ele><time>2026-04-24T11:52:10.999Z</time></trkpt><trkpt lat="38.04254809071042" lon="15.695632665270276"><ele>306.0</ele><time>2026-04-24T11:52:11.999Z</time></trkpt><trkpt lat="38.0425109176277" lon="15.695747388377432"><ele>306.0</ele><time>2026-04-24T11:52:12.999Z</time></trkpt><trkpt lat="38.04245242370554" lon="15.69587696330939"><ele>306.0</ele><time>2026-04-24T11:52:13.999Z</time></trkpt><trkpt lat="38.04236900635501" lon="15.695989182378563"><ele>306.0</ele><time>2026-04-24T11:52:14.999Z</time></trkpt><trkpt lat="38.04227438113559" lon="15.69606587922968"><ele>308.0</ele><time>2026-04-24T11:52:15.999Z</time></trkpt><trkpt lat="38.04216040354886" lon="15.696094571940888"><ele>310.0</ele><time>2026-04-24T11:52:16.999Z</time></trkpt><trkpt lat="38.04203735616971" lon="15.69611232488739"><ele>312.0</ele><time>2026-04-24T11:52:17.999Z</time></trkpt><trkpt lat="38.04193327903668" lon="15.696137066056897"><ele>314.0</ele><time>2026-04-24T11:52:18.999Z</time></trkpt><trkpt lat="38.04184988077448" lon="15.696140110749873"><ele>316.0</ele><time>2026-04-24T11:52:19.999Z</time></trkpt><trkpt lat="38.041788837060736" lon="15.696180063478023"><ele>316.0</ele><time>2026-04-24T11:52:20.999Z</time></trkpt><trkpt lat="38.04173683807141" lon="15.696259995257066"><ele>316.0</ele><time>2026-04-24T11:52:21.999Z</time></trkpt><trkpt lat="38.0416871698823" lon="15.696368491723742"><ele>316.0</ele><time>2026-04-24T11:52:22.999Z</time></trkpt><trkpt lat="38.04164259014068" lon="15.696486044315462"><ele>316.0</ele><time>2026-04-24T11:52:23.999Z</time></trkpt><trkpt lat="38.041589820303344" lon="15.69656982039184"><ele>316.0</ele><time>2026-04-24T11:52:24.999Z</time></trkpt><trkpt lat="38.041515781538614" lon="15.69660805302762"><ele>316.0</ele><time>2026-04-24T11:52:25.999Z</time></trkpt><trkpt lat="38.041450467885554" lon="15.696701695128544"><ele>314.0</ele><time>2026-04-24T11:52:26.999Z</time></trkpt><trkpt lat="38.041373568680534" lon="15.696804237468974"><ele>312.0</ele><time>2026-04-24T11:52:27.999Z</time></trkpt><trkpt lat="38.04132124080231" lon="15.696940006111953"><ele>310.0</ele><time>2026-04-24T11:52:28.999Z</time></trkpt><trkpt lat="38.041289554531524" lon="15.697107546658861"><ele>308.0</ele><time>2026-04-24T11:52:29.999Z</time></trkpt><trkpt lat="38.041278566187245" lon="15.69729740408223"><ele>308.0</ele><time>2026-04-24T11:52:30.999Z</time></trkpt><trkpt lat="38.041271692312655" lon="15.697481116000203"><ele>308.0</ele><time>2026-04-24T11:52:31.999Z</time></trkpt><trkpt lat="38.041238472978684" lon="15.697620350002598"><ele>308.0</ele><time>2026-04-24T11:52:32.999Z</time></trkpt><trkpt lat="38.04119239498933" lon="15.697739258366441"><ele>308.0</ele><time>2026-04-24T11:52:33.999Z</time></trkpt><trkpt lat="38.041157409256726" lon="15.697878909218453"><ele>311.0</ele><time>2026-04-24T11:52:34.999Z</time></trkpt><trkpt lat="38.04109574896924" lon="15.69800601800702"><ele>314.0</ele><time>2026-04-24T11:52:35.999Z</time></trkpt><trkpt lat="38.041038283185415" lon="15.698134011346506"><ele>317.0</ele><time>2026-04-24T11:52:36.999Z</time></trkpt><trkpt lat="38.04099798610872" lon="15.698239196629876"><ele>320.0</ele><time>2026-04-24T11:52:37.999Z</time></trkpt><trkpt lat="38.04094139722249" lon="15.698312853216567"><ele>323.0</ele><time>2026-04-24T11:52:38.999Z</time></trkpt><trkpt lat="38.040856301913614" lon="15.698328939963998"><ele>324.83333333333337</ele><time>2026-04-24T11:52:39.999Z</time></trkpt><trkpt lat="38.0407636203019" lon="15.698329913190923"><ele>326.6666666666667</ele><time>2026-04-24T11:52:40.999Z</time></trkpt><trkpt lat="38.04067519836103" lon="15.698319105898124"><ele>328.5</ele><time>2026-04-24T11:52:41.999Z</time></trkpt><trkpt lat="38.04062248779316" lon="15.698263134911064"><ele>330.3333333333333</ele><time>2026-04-24T11:52:42.999Z</time></trkpt><trkpt lat="38.040573345123434" lon="15.698182380851023"><ele>332.16666666666663</ele><time>2026-04-24T11:52:43.999Z</time></trkpt><trkpt lat="38.0405053194962" lon="15.698152746455449"><ele>334.0</ele><time>2026-04-24T11:52:44.999Z</time></trkpt><trkpt lat="38.04044263509349" lon="15.69813550618456"><ele>334.0</ele><time>2026-04-24T11:52:45.999Z</time></trkpt><trkpt lat="38.0403595456643" lon="15.698132577077443"><ele>334.0</ele><time>2026-04-24T11:52:46.999Z</time></trkpt><trkpt lat="38.04026529978496" lon="15.698094929901446"><ele>334.0</ele><time>2026-04-24T11:52:47.999Z</time></trkpt><trkpt lat="38.04016531982569" lon="15.698080717807011"><ele>334.0</ele><time>2026-04-24T11:52:48.999Z</time></trkpt><trkpt lat="38.04007442470754" lon="15.69804024714262"><ele>334.0</ele><time>2026-04-24T11:52:49.999Z</time></trkpt><trkpt lat="38.0399877161212" lon="15.69800668216623"><ele>342.0</ele><time>2026-04-24T11:52:50.999Z</time></trkpt><trkpt lat="38.03991075960027" lon="15.697961228310717"><ele>350.0</ele><time>2026-04-24T11:52:51.999Z</time></trkpt><trkpt lat="38.03982738350202" lon="15.697903525739811"><ele>358.0</ele><time>2026-04-24T11:52:52.999Z</time></trkpt><trkpt lat="38.03976219947945" lon="15.697829644261589"><ele>366.0</ele><time>2026-04-24T11:52:53.999Z</time></trkpt><trkpt lat="38.039709277430596" lon="15.697748816666367"><ele>374.0</ele><time>2026-04-24T11:52:54.999Z</time></trkpt><trkpt lat="38.03971746867394" lon="15.697605668215552"><ele>374.0</ele><time>2026-04-24T11:52:55.999Z</time></trkpt><trkpt lat="38.03966038360191" lon="15.697491677655538"><ele>374.0</ele><time>2026-04-24T11:52:56.999Z</time></trkpt><trkpt lat="38.03959590855266" lon="15.697351072173944"><ele>374.0</ele><time>2026-04-24T11:52:57.999Z</time></trkpt><trkpt lat="38.03950887565479" lon="15.697200779238292"><ele>374.0</ele><time>2026-04-24T11:52:58.999Z</time></trkpt><trkpt lat="38.039436230026425" lon="15.6970552372878"><ele>365.75</ele><time>2026-04-24T11:52:59.999Z</time></trkpt><trkpt lat="38.03937294386431" lon="15.696916752900277"><ele>357.5</ele><time>2026-04-24T11:53:00.999Z</time></trkpt><trkpt lat="38.0393274891355" lon="15.696761515537121"><ele>349.25</ele><time>2026-04-24T11:53:01.999Z</time></trkpt><trkpt lat="38.03929630134153" lon="15.69662096190486"><ele>341.0</ele><time>2026-04-24T11:53:02.999Z</time></trkpt><trkpt lat="38.03926621234002" lon="15.6965082468324"><ele>341.0</ele><time>2026-04-24T11:53:03.999Z</time></trkpt><trkpt lat="38.039207511611366" lon="15.696403260465532"><ele>341.0</ele><time>2026-04-24T11:53:04.999Z</time></trkpt><trkpt lat="38.03911302681937" lon="15.696316444972316"><ele>341.0</ele><time>2026-04-24T11:53:05.999Z</time></trkpt><trkpt lat="38.038991147284435" lon="15.69624403505548"><ele>341.0</ele><time>2026-04-24T11:53:06.999Z</time></trkpt><trkpt lat="38.03884693620744" lon="15.696168018219945"><ele>344.5</ele><time>2026-04-24T11:53:07.999Z</time></trkpt><trkpt lat="38.03872793583312" lon="15.696089030141954"><ele>348.0</ele><time>2026-04-24T11:53:08.999Z</time></trkpt><trkpt lat="38.03865539351434" lon="15.69596000646106"><ele>351.5</ele><time>2026-04-24T11:53:09.999Z</time></trkpt><trkpt lat="38.0385473593462" lon="15.695826106386153"><ele>355.0</ele><time>2026-04-24T11:53:10.999Z</time></trkpt><trkpt lat="38.03845851703293" lon="15.695691334004474"><ele>355.0</ele><time>2026-04-24T11:53:11.999Z</time></trkpt><trkpt lat="38.03838026153711" lon="15.695595018332755"><ele>355.0</ele><time>2026-04-24T11:53:12.999Z</time></trkpt><trkpt lat="38.03827780040121" lon="15.695506916158646"><ele>355.0</ele><time>2026-04-24T11:53:13.999Z</time></trkpt><trkpt lat="38.038147860465585" lon="15.695420007956473"><ele>355.0</ele><time>2026-04-24T11:53:14.999Z</time></trkpt><trkpt lat="38.03800297828924" lon="15.695341569193609"><ele>356.0</ele><time>2026-04-24T11:53:15.999Z</time></trkpt><trkpt lat="38.037857306105344" lon="15.695266360761694"><ele>357.0</ele><time>2026-04-24T11:53:16.999Z</time></trkpt><trkpt lat="38.03771790281599" lon="15.695179042871557"><ele>358.0</ele><time>2026-04-24T11:53:17.999Z</time></trkpt><trkpt lat="38.03759818086952" lon="15.695086748782296"><ele>358.0</ele><time>2026-04-24T11:53:18.999Z</time></trkpt><trkpt lat="38.03749480046414" lon="15.694980253034823"><ele>358.0</ele><time>2026-04-24T11:53:19.999Z</time></trkpt><trkpt lat="38.03739741428083" lon="15.694853128368583"><ele>358.0</ele><time>2026-04-24T11:53:20.999Z</time></trkpt><trkpt lat="38.03728177430502" lon="15.694739187320868"><ele>358.0</ele><time>2026-04-24T11:53:21.999Z</time></trkpt><trkpt lat="38.037183126355174" lon="15.694644196421775"><ele>361.3333333333333</ele><time>2026-04-24T11:53:22.999Z</time></trkpt><trkpt lat="38.03709677078796" lon="15.694577820806714"><ele>364.66666666666663</ele><time>2026-04-24T11:53:23.999Z</time></trkpt><trkpt lat="38.03701354244674" lon="15.694562053250115"><ele>368.0</ele><time>2026-04-24T11:53:24.999Z</time></trkpt><trkpt lat="38.036927032865215" lon="15.694593142699574"><ele>371.3333333333333</ele><time>2026-04-24T11:53:25.999Z</time></trkpt><trkpt lat="38.03684234132794" lon="15.694649299772287"><ele>374.6666666666667</ele><time>2026-04-24T11:53:26.999Z</time></trkpt><trkpt lat="38.036779695704304" lon="15.694670094086332"><ele>378.0</ele><time>2026-04-24T11:53:27.999Z</time></trkpt><trkpt lat="38.03670050566283" lon="15.6945672089171"><ele>378.0</ele><time>2026-04-24T11:53:29.999Z</time></trkpt><trkpt lat="38.03669687047407" lon="15.694448948539515"><ele>378.0</ele><time>2026-04-24T11:53:30.999Z</time></trkpt><trkpt lat="38.03664823111682" lon="15.694356979155769"><ele>378.0</ele><time>2026-04-24T11:53:31.999Z</time></trkpt><trkpt lat="38.036592200742014" lon="15.694274326303926"><ele>378.0</ele><time>2026-04-24T11:53:32.999Z</time></trkpt><trkpt lat="38.03649749893024" lon="15.694236063609639"><ele>378.0</ele><time>2026-04-24T11:53:33.999Z</time></trkpt><trkpt lat="38.03637994928423" lon="15.694226590182476"><ele>376.0</ele><time>2026-04-24T11:53:34.999Z</time></trkpt><trkpt lat="38.036238727144195" lon="15.694243525527567"><ele>374.0</ele><time>2026-04-24T11:53:35.999Z</time></trkpt><trkpt lat="38.036095825969944" lon="15.69427490604192"><ele>372.0</ele><time>2026-04-24T11:53:36.999Z</time></trkpt><trkpt lat="38.035949007558116" lon="15.69427586189334"><ele>370.0</ele><time>2026-04-24T11:53:37.999Z</time></trkpt><trkpt lat="38.03581267386078" lon="15.694297913130816"><ele>369.2</ele><time>2026-04-24T11:53:38.999Z</time></trkpt><trkpt lat="38.03570013801108" lon="15.694316415468322"><ele>368.4</ele><time>2026-04-24T11:53:39.999Z</time></trkpt><trkpt lat="38.035605789119174" lon="15.69435427207203"><ele>367.6</ele><time>2026-04-24T11:53:40.999Z</time></trkpt><trkpt lat="38.03553317834852" lon="15.694369392335998"><ele>366.8</ele><time>2026-04-24T11:53:42Z</time></trkpt><trkpt lat="38.03545163614792" lon="15.694474658367428"><ele>366.0</ele><time>2026-04-24T11:53:44Z</time></trkpt><trkpt lat="38.03539953709143" lon="15.694559763977248"><ele>369.6666666666667</ele><time>2026-04-24T11:53:46Z</time></trkpt><trkpt lat="38.03535892210003" lon="15.694645962436628"><ele>373.33333333333337</ele><time>2026-04-24T11:53:47.999Z</time></trkpt><trkpt lat="38.03530904081166" lon="15.694697474678861"><ele>377.0</ele><time>2026-04-24T11:53:50Z</time></trkpt><trkpt lat="38.035228690950746" lon="15.69479482703607"><ele>380.6666666666667</ele><time>2026-04-24T11:53:52Z</time></trkpt><trkpt lat="38.035148301588855" lon="15.694852207153104"><ele>384.33333333333337</ele><time>2026-04-24T11:53:54Z</time></trkpt><trkpt lat="38.03507029688576" lon="15.694889707501458"><ele>388.0</ele><time>2026-04-24T11:53:56Z</time></trkpt><trkpt lat="38.034995628028064" lon="15.694919019586742"><ele>387.79999999999995</ele><time>2026-04-24T11:53:59Z</time></trkpt><trkpt lat="38.034893175606776" lon="15.694913990841062"><ele>387.6</ele><time>2026-04-24T11:54:01Z</time></trkpt><trkpt lat="38.03476291126682" lon="15.694913884576687"><ele>387.4</ele><time>2026-04-24T11:54:03Z</time></trkpt><trkpt lat="38.03469818283747" lon="15.694930311448418"><ele>387.20000000000005</ele><time>2026-04-24T11:54:04Z</time></trkpt><trkpt lat="38.0346156840889" lon="15.69502568966911"><ele>387.0</ele><time>2026-04-24T11:54:06Z</time></trkpt><trkpt lat="38.03453784512444" lon="15.695158064590263"><ele>389.0</ele><time>2026-04-24T11:54:08Z</time></trkpt><trkpt lat="38.034441498961804" lon="15.69527509114694"><ele>391.0</ele><time>2026-04-24T11:54:10Z</time></trkpt><trkpt lat="38.03436879824479" lon="15.695413846138905"><ele>393.0</ele><time>2026-04-24T11:54:12Z</time></trkpt><trkpt lat="38.03432049388445" lon="15.695477237955753"><ele>395.0</ele><time>2026-04-24T11:54:13Z</time></trkpt><trkpt lat="38.03427872593269" lon="15.695542880574061"><ele>397.0</ele><time>2026-04-24T11:54:14Z</time></trkpt><trkpt lat="38.03417951868357" lon="15.695612246254596"><ele>397.00000000000006</ele><time>2026-04-24T11:54:16Z</time></trkpt><trkpt lat="38.03409040938208" lon="15.695575449354202"><ele>397.0</ele><time>2026-04-24T11:54:18Z</time></trkpt><trkpt lat="38.034027866028836" lon="15.69555501760474"><ele>397.0</ele><time>2026-04-24T11:54:20Z</time></trkpt><trkpt lat="38.03394046108703" lon="15.69546805253451"><ele>397.0</ele><time>2026-04-24T11:54:22Z</time></trkpt><trkpt lat="38.03387554364343" lon="15.695410842838058"><ele>397.00000000000006</ele><time>2026-04-24T11:54:23Z</time></trkpt><trkpt lat="38.03379637941878" lon="15.695340031287033"><ele>397.0</ele><time>2026-04-24T11:54:24Z</time></trkpt><trkpt lat="38.03370073966645" lon="15.695250105082001"><ele>397.0</ele><time>2026-04-24T11:54:25Z</time></trkpt><trkpt lat="38.03359401751517" lon="15.695147654227913"><ele>397.0</ele><time>2026-04-24T11:54:26Z</time></trkpt><trkpt lat="38.03347498684833" lon="15.695037647589292"><ele>397.0</ele><time>2026-04-24T11:54:27Z</time></trkpt><trkpt lat="38.03335236742813" lon="15.694965083398763"><ele>397.0</ele><time>2026-04-24T11:54:28Z</time></trkpt><trkpt lat="38.033265202511835" lon="15.694890172144639"><ele>397.6666666666667</ele><time>2026-04-24T11:54:29Z</time></trkpt><trkpt lat="38.03318639512509" lon="15.694847957678544"><ele>398.33333333333337</ele><time>2026-04-24T11:54:30Z</time></trkpt><trkpt lat="38.03311241161653" lon="15.694830902629905"><ele>399.0</ele><time>2026-04-24T11:54:31Z</time></trkpt><trkpt lat="38.03304526105036" lon="15.69481195842352"><ele>399.66666666666663</ele><time>2026-04-24T11:54:32Z</time></trkpt><trkpt lat="38.03297240398426" lon="15.694893987852511"><ele>400.3333333333333</ele><time>2026-04-24T11:54:33Z</time></trkpt><trkpt lat="38.032906145122304" lon="15.694985596932948"><ele>401.0</ele><time>2026-04-24T11:54:34Z</time></trkpt><trkpt lat="38.032842631230515" lon="15.695082981310382"><ele>401.0</ele><time>2026-04-24T11:54:35Z</time></trkpt><trkpt lat="38.032779042370045" lon="15.695164793821272"><ele>401.0</ele><time>2026-04-24T11:54:36Z</time></trkpt><trkpt lat="38.032724118752" lon="15.69522989653828"><ele>401.0</ele><time>2026-04-24T11:54:37Z</time></trkpt><trkpt lat="38.0326270797345" lon="15.695305872903344"><ele>401.0</ele><time>2026-04-24T11:54:39Z</time></trkpt><trkpt lat="38.03256319559979" lon="15.695294730003123"><ele>401.0</ele><time>2026-04-24T11:54:40Z</time></trkpt><trkpt lat="38.03244887473739" lon="15.695261826848219"><ele>401.8333333333333</ele><time>2026-04-24T11:54:42Z</time></trkpt><trkpt lat="38.032387765044234" lon="15.695240497914444"><ele>402.66666666666663</ele><time>2026-04-24T11:54:43Z</time></trkpt><trkpt lat="38.032325691804445" lon="15.69522215661106"><ele>403.5</ele><time>2026-04-24T11:54:44Z</time></trkpt><trkpt lat="38.03225203069635" lon="15.6952027321006"><ele>404.33333333333337</ele><time>2026-04-24T11:54:45Z</time></trkpt><trkpt lat="38.032162407832175" lon="15.695184698572655"><ele>405.1666666666667</ele><time>2026-04-24T11:54:46Z</time></trkpt><trkpt lat="38.032061276423384" lon="15.695175360706738"><ele>406.0</ele><time>2026-04-24T11:54:47Z</time></trkpt><trkpt lat="38.03197290299563" lon="15.69518306823158"><ele>406.00000000000006</ele><time>2026-04-24T11:54:48Z</time></trkpt><trkpt lat="38.03189447622124" lon="15.695172118579865"><ele>406.0</ele><time>2026-04-24T11:54:49Z</time></trkpt><trkpt lat="38.03181646116478" lon="15.695155487781818"><ele>406.0</ele><time>2026-04-24T11:54:50Z</time></trkpt><trkpt lat="38.031735554672714" lon="15.695138240566788"><ele>406.0</ele><time>2026-04-24T11:54:51Z</time></trkpt><trkpt lat="38.031653184584414" lon="15.695120681367166"><ele>406.00000000000006</ele><time>2026-04-24T11:54:52Z</time></trkpt><trkpt lat="38.03157479007576" lon="15.695102640502729"><ele>406.0</ele><time>2026-04-24T11:54:53Z</time></trkpt><trkpt lat="38.031511295580096" lon="15.695087675228283"><ele>407.50000000000006</ele><time>2026-04-24T11:54:54Z</time></trkpt><trkpt lat="38.031402257277705" lon="15.695058116019815"><ele>409.0</ele><time>2026-04-24T11:54:56Z</time></trkpt><trkpt lat="38.03133562597994" lon="15.695038047949046"><ele>410.5</ele><time>2026-04-24T11:54:58Z</time></trkpt><trkpt lat="38.03126913695782" lon="15.695019122992885"><ele>412.0</ele><time>2026-04-24T11:55:01Z</time></trkpt><trkpt lat="38.03120340571923" lon="15.695000413851062"><ele>413.50000000000006</ele><time>2026-04-24T11:55:03Z</time></trkpt><trkpt lat="38.03113413504934" lon="15.69498507944923"><ele>415.0</ele><time>2026-04-24T11:55:05Z</time></trkpt><trkpt lat="38.03104563296178" lon="15.694975464203011"><ele>415.00000000000006</ele><time>2026-04-24T11:55:06Z</time></trkpt><trkpt lat="38.03096073731461" lon="15.694962643744484"><ele>415.0</ele><time>2026-04-24T11:55:07Z</time></trkpt><trkpt lat="38.03086820455963" lon="15.694956131820069"><ele>415.0</ele><time>2026-04-24T11:55:08Z</time></trkpt><trkpt lat="38.030793661986664" lon="15.69500737568508"><ele>415.0</ele><time>2026-04-24T11:55:09Z</time></trkpt><trkpt lat="38.03071158130924" lon="15.695049768198993"><ele>415.00000000000006</ele><time>2026-04-24T11:55:10Z</time></trkpt><trkpt lat="38.03064294367707" lon="15.695100488541406"><ele>415.0</ele><time>2026-04-24T11:55:11Z</time></trkpt><trkpt lat="38.030580568201245" lon="15.695134972977302"><ele>415.00000000000006</ele><time>2026-04-24T11:55:13Z</time></trkpt><trkpt lat="38.03051363444986" lon="15.695231054815158"><ele>415.0</ele><time>2026-04-24T11:55:15Z</time></trkpt><trkpt lat="38.03047211315469" lon="15.695297601036506"><ele>415.0</ele><time>2026-04-24T11:55:16Z</time></trkpt><trkpt lat="38.03041726890861" lon="15.695338784071536"><ele>415.0</ele><time>2026-04-24T11:55:17Z</time></trkpt><trkpt lat="38.03033945887693" lon="15.695416483125312"><ele>415.00000000000006</ele><time>2026-04-24T11:55:19Z</time></trkpt><trkpt lat="38.0303082670003" lon="15.695516806109389"><ele>415.0</ele><time>2026-04-24T11:55:21Z</time></trkpt><trkpt lat="38.0303292122435" lon="15.695619317321814"><ele>415.00000000000006</ele><time>2026-04-24T11:55:23Z</time></trkpt><trkpt lat="38.03033194427535" lon="15.695731842127723"><ele>415.0</ele><time>2026-04-24T11:55:25Z</time></trkpt><trkpt lat="38.03031701718332" lon="15.695822848784973"><ele>415.0</ele><time>2026-04-24T11:55:26.999Z</time></trkpt><trkpt lat="38.030248388090165" lon="15.695865065564904"><ele>415.0</ele><time>2026-04-24T11:55:28.999Z</time></trkpt><trkpt lat="38.03018600877548" lon="15.69589982679285"><ele>415.00000000000006</ele><time>2026-04-24T11:55:30.999Z</time></trkpt><trkpt lat="38.03022539679049" lon="15.696042724146086"><ele>415.0</ele><time>2026-04-24T11:55:32.999Z</time></trkpt><trkpt lat="38.0302709052088" lon="15.696111122649892"><ele>416.33333333333337</ele><time>2026-04-24T11:55:33.999Z</time></trkpt><trkpt lat="38.030311788143095" lon="15.696214840740996"><ele>417.6666666666667</ele><time>2026-04-24T11:55:34.999Z</time></trkpt><trkpt lat="38.03029779131228" lon="15.696341603352439"><ele>419.0</ele><time>2026-04-24T11:55:35.999Z</time></trkpt><trkpt lat="38.03031808322837" lon="15.696469971199475"><ele>420.33333333333337</ele><time>2026-04-24T11:55:36.999Z</time></trkpt><trkpt lat="38.03032039990574" lon="15.696577140676489"><ele>421.6666666666667</ele><time>2026-04-24T11:55:37.999Z</time></trkpt><trkpt lat="38.03032156143705" lon="15.696659289420966"><ele>423.0</ele><time>2026-04-24T11:55:38.999Z</time></trkpt><trkpt lat="38.03040060397408" lon="15.696706873429674"><ele>423.0</ele><time>2026-04-24T11:55:40Z</time></trkpt><trkpt lat="38.03047654853066" lon="15.69673568833787"><ele>423.0</ele><time>2026-04-24T11:55:41Z</time></trkpt><trkpt lat="38.030571218545354" lon="15.69674597404588"><ele>423.0</ele><time>2026-04-24T11:55:42Z</time></trkpt><trkpt lat="38.03066960567538" lon="15.696739085406627"><ele>423.0</ele><time>2026-04-24T11:55:43Z</time></trkpt><trkpt lat="38.03076462849017" lon="15.696701292662869"><ele>423.0</ele><time>2026-04-24T11:55:44Z</time></trkpt><trkpt lat="38.03084923578" lon="15.696644026605712"><ele>423.6666666666667</ele><time>2026-04-24T11:55:45Z</time></trkpt><trkpt lat="38.03092836082181" lon="15.696615849683209"><ele>424.33333333333337</ele><time>2026-04-24T11:55:46Z</time></trkpt><trkpt lat="38.03099949288467" lon="15.696590431534196"><ele>425.0</ele><time>2026-04-24T11:55:47Z</time></trkpt><trkpt lat="38.03107422018778" lon="15.696575775815445"><ele>425.6666666666667</ele><time>2026-04-24T11:55:48Z</time></trkpt><trkpt lat="38.031145314464474" lon="15.696606992806371"><ele>426.33333333333337</ele><time>2026-04-24T11:55:49Z</time></trkpt><trkpt lat="38.031222250847236" lon="15.696649492937784"><ele>427.0</ele><time>2026-04-24T11:55:50Z</time></trkpt><trkpt lat="38.03128852306298" lon="15.696722001900422"><ele>427.0</ele><time>2026-04-24T11:55:51Z</time></trkpt><trkpt lat="38.03133260367788" lon="15.696810186823585"><ele>427.00000000000006</ele><time>2026-04-24T11:55:52Z</time></trkpt><trkpt lat="38.03133268220292" lon="15.696913995133706"><ele>427.00000000000006</ele><time>2026-04-24T11:55:53Z</time></trkpt><trkpt lat="38.03128818191874" lon="15.697028742140102"><ele>427.0</ele><time>2026-04-24T11:55:54Z</time></trkpt><trkpt lat="38.03124984851432" lon="15.697160399746583"><ele>427.0</ele><time>2026-04-24T11:55:55Z</time></trkpt><trkpt lat="38.031202359153326" lon="15.697304013319856"><ele>431.0</ele><time>2026-04-24T11:55:56Z</time></trkpt><trkpt lat="38.03115608803947" lon="15.697454775564578"><ele>435.0</ele><time>2026-04-24T11:55:57Z</time></trkpt><trkpt lat="38.031097137696335" lon="15.697603174616027"><ele>439.0</ele><time>2026-04-24T11:55:58Z</time></trkpt><trkpt lat="38.031049418838194" lon="15.697743208099524"><ele>443.0</ele><time>2026-04-24T11:55:59Z</time></trkpt><trkpt lat="38.0310110938773" lon="15.697846160031894"><ele>446.99999999999994</ele><time>2026-04-24T11:56:00Z</time></trkpt><trkpt lat="38.030978623410896" lon="15.697916059338397"><ele>451.0</ele><time>2026-04-24T11:56:01Z</time></trkpt><trkpt lat="38.03098152385617" lon="15.698039256970496"><ele>455.0</ele><time>2026-04-24T11:56:03Z</time></trkpt><trkpt lat="38.03105312311937" lon="15.698101479266997"><ele>459.0</ele><time>2026-04-24T11:56:04Z</time></trkpt><trkpt lat="38.03114879107291" lon="15.698063768233553"><ele>462.99999999999994</ele><time>2026-04-24T11:56:05Z</time></trkpt><trkpt lat="38.03122327988812" lon="15.698012537628255"><ele>467.0</ele><time>2026-04-24T11:56:06Z</time></trkpt><trkpt lat="38.03130916115552" lon="15.697924976161543"><ele>467.0</ele><time>2026-04-24T11:56:07Z</time></trkpt><trkpt lat="38.03143152020242" lon="15.697843019636572"><ele>467.0</ele><time>2026-04-24T11:56:08Z</time></trkpt><trkpt lat="38.031564118812" lon="15.697741036759215"><ele>467.0</ele><time>2026-04-24T11:56:09Z</time></trkpt><trkpt lat="38.03166789129089" lon="15.697647993211472"><ele>467.0</ele><time>2026-04-24T11:56:10Z</time></trkpt><trkpt lat="38.031746330681464" lon="15.697533572850697"><ele>465.0</ele><time>2026-04-24T11:56:11Z</time></trkpt><trkpt lat="38.03183095188644" lon="15.697422191291125"><ele>463.00000000000006</ele><time>2026-04-24T11:56:12Z</time></trkpt><trkpt lat="38.03191050041543" lon="15.697337162618762"><ele>461.00000000000006</ele><time>2026-04-24T11:56:13Z</time></trkpt><trkpt lat="38.03198016482513" lon="15.69725881932099"><ele>459.0</ele><time>2026-04-24T11:56:15Z</time></trkpt><trkpt lat="38.03204802563827" lon="15.697265470179275"><ele>457.0</ele><time>2026-04-24T11:56:17Z</time></trkpt><trkpt lat="38.03207535143438" lon="15.697339316893974"><ele>457.00000000000006</ele><time>2026-04-24T11:56:19Z</time></trkpt><trkpt lat="38.03202197880946" lon="15.69739104099521"><ele>457.0</ele><time>2026-04-24T11:56:20Z</time></trkpt><trkpt lat="38.03201081895316" lon="15.69748958124657"><ele>457.00000000000006</ele><time>2026-04-24T11:56:21Z</time></trkpt><trkpt lat="38.03200093412719" lon="15.697569126635711"><ele>457.00000000000006</ele><time>2026-04-24T11:56:22Z</time></trkpt><trkpt lat="38.03207275297451" lon="15.697627224091764"><ele>457.0</ele><time>2026-04-24T11:56:23Z</time></trkpt><trkpt lat="38.03214426294194" lon="15.69767720011415"><ele>457.00000000000006</ele><time>2026-04-24T11:56:24Z</time></trkpt><trkpt lat="38.03218392567888" lon="15.697741085241224"><ele>457.00000000000006</ele><time>2026-04-24T11:56:25Z</time></trkpt><trkpt lat="38.03218966904898" lon="15.697837658207543"><ele>460.6</ele><time>2026-04-24T11:56:26Z</time></trkpt><trkpt lat="38.03221143829111" lon="15.697932207706854"><ele>464.20000000000005</ele><time>2026-04-24T11:56:27Z</time></trkpt><trkpt lat="38.03221015029993" lon="15.698068549674488"><ele>467.8</ele><time>2026-04-24T11:56:29Z</time></trkpt><trkpt lat="38.03212197269817" lon="15.698107829733976"><ele>471.4</ele><time>2026-04-24T11:56:30Z</time></trkpt><trkpt lat="38.03205123520445" lon="15.698178905775954"><ele>475.0</ele><time>2026-04-24T11:56:31Z</time></trkpt><trkpt lat="38.03197031065635" lon="15.698238608837942"><ele>475.0</ele><time>2026-04-24T11:56:32Z</time></trkpt><trkpt lat="38.031878615163905" lon="15.69830686131491"><ele>475.0</ele><time>2026-04-24T11:56:33Z</time></trkpt><trkpt lat="38.03180898571724" lon="15.69837642679217"><ele>475.0</ele><time>2026-04-24T11:56:34Z</time></trkpt><trkpt lat="38.03176281373267" lon="15.698474484191754"><ele>475.0</ele><time>2026-04-24T11:56:35Z</time></trkpt><trkpt lat="38.03171131644067" lon="15.698579569081142"><ele>475.0</ele><time>2026-04-24T11:56:36Z</time></trkpt><trkpt lat="38.031655409738406" lon="15.698691297023982"><ele>478.0</ele><time>2026-04-24T11:56:37Z</time></trkpt><trkpt lat="38.031570330227595" lon="15.69876342933489"><ele>481.0</ele><time>2026-04-24T11:56:38Z</time></trkpt><trkpt lat="38.03148941997241" lon="15.698826882882296"><ele>484.0</ele><time>2026-04-24T11:56:39Z</time></trkpt><trkpt lat="38.03142981737369" lon="15.6989176014254"><ele>487.0</ele><time>2026-04-24T11:56:40Z</time></trkpt><trkpt lat="38.031366510362496" lon="15.69898591760241"><ele>490.0</ele><time>2026-04-24T11:56:41Z</time></trkpt><trkpt lat="38.03131540345001" lon="15.699081296308124"><ele>490.00000000000006</ele><time>2026-04-24T11:56:42Z</time></trkpt><trkpt lat="38.03126580546809" lon="15.699170230012212"><ele>490.0</ele><time>2026-04-24T11:56:43Z</time></trkpt><trkpt lat="38.03119593358041" lon="15.69919255506402"><ele>490.0</ele><time>2026-04-24T11:56:44Z</time></trkpt><trkpt lat="38.03112935724183" lon="15.699208190040807"><ele>490.0</ele><time>2026-04-24T11:56:45Z</time></trkpt><trkpt lat="38.03104927147344" lon="15.699251669989561"><ele>490.00000000000006</ele><time>2026-04-24T11:56:46Z</time></trkpt><trkpt lat="38.03097925878663" lon="15.69926697439114"><ele>490.0</ele><time>2026-04-24T11:56:47Z</time></trkpt><trkpt lat="38.03091754653642" lon="15.699325996721866"><ele>490.00000000000006</ele><time>2026-04-24T11:56:48Z</time></trkpt><trkpt lat="38.03085176240631" lon="15.69939685546798"><ele>490.0</ele><time>2026-04-24T11:56:49Z</time></trkpt><trkpt lat="38.03077880264804" lon="15.699435537043536"><ele>490.0</ele><time>2026-04-24T11:56:50Z</time></trkpt><trkpt lat="38.03067929685427" lon="15.699415116686307"><ele>490.0</ele><time>2026-04-24T11:56:52Z</time></trkpt><trkpt lat="38.030615907380266" lon="15.699396221744832"><ele>490.00000000000006</ele><time>2026-04-24T11:56:53Z</time></trkpt><trkpt lat="38.03054350836156" lon="15.699397403530183"><ele>490.0</ele><time>2026-04-24T11:56:54Z</time></trkpt><trkpt lat="38.030460034716434" lon="15.69941944392485"><ele>493.6666666666667</ele><time>2026-04-24T11:56:56Z</time></trkpt><trkpt lat="38.030474336125074" lon="15.699576460177894"><ele>497.33333333333337</ele><time>2026-04-24T11:56:58Z</time></trkpt><trkpt lat="38.030524771260055" lon="15.699628953235187"><ele>501.0</ele><time>2026-04-24T11:56:59Z</time></trkpt><trkpt lat="38.030580491979656" lon="15.699678560094553"><ele>504.66666666666663</ele><time>2026-04-24T11:57:00Z</time></trkpt><trkpt lat="38.03065166744602" lon="15.699688876266332"><ele>508.3333333333333</ele><time>2026-04-24T11:57:01Z</time></trkpt><trkpt lat="38.030750431945314" lon="15.699697622510083"><ele>512.0</ele><time>2026-04-24T11:57:02Z</time></trkpt><trkpt lat="38.03083113704226" lon="15.699750328036352"><ele>512.3333333333333</ele><time>2026-04-24T11:57:03Z</time></trkpt><trkpt lat="38.03090943089936" lon="15.699763548224142"><ele>512.6666666666666</ele><time>2026-04-24T11:57:04Z</time></trkpt><trkpt lat="38.03097688921709" lon="15.69981300888085"><ele>513.0</ele><time>2026-04-24T11:57:05Z</time></trkpt><trkpt lat="38.031044262931076" lon="15.69984068431586"><ele>513.3333333333334</ele><time>2026-04-24T11:57:06Z</time></trkpt><trkpt lat="38.031094775986006" lon="15.69990988661339"><ele>513.6666666666667</ele><time>2026-04-24T11:57:08Z</time></trkpt><trkpt lat="38.031022648901605" lon="15.699959722263825"><ele>514.0</ele><time>2026-04-24T11:57:10Z</time></trkpt><trkpt lat="38.03097429471026" lon="15.699895475548688"><ele>514.0</ele><time>2026-04-24T11:57:11Z</time></trkpt><trkpt lat="38.03083869447167" lon="15.699928479772487"><ele>514.0</ele><time>2026-04-24T11:57:13Z</time></trkpt><trkpt lat="38.0307893856738" lon="15.699986431230576"><ele>514.0</ele><time>2026-04-24T11:57:14Z</time></trkpt><trkpt lat="38.030771354567214" lon="15.70010291280496"><ele>514.0</ele><time>2026-04-24T11:57:15Z</time></trkpt><trkpt lat="38.03078373237477" lon="15.700250138938761"><ele>514.0</ele><time>2026-04-24T11:57:16Z</time></trkpt><trkpt lat="38.030770631891805" lon="15.700350386750832"><ele>519.0</ele><time>2026-04-24T11:57:17Z</time></trkpt><trkpt lat="38.030765643840326" lon="15.700435480811187"><ele>524.0</ele><time>2026-04-24T11:57:18Z</time></trkpt><trkpt lat="38.0306994788054" lon="15.70045858933959"><ele>529.0</ele><time>2026-04-24T11:57:19Z</time></trkpt><trkpt lat="38.0305655433091" lon="15.700417327166676"><ele>534.0</ele><time>2026-04-24T11:57:21Z</time></trkpt><trkpt lat="38.030468601151" lon="15.700411761780243"><ele>539.0</ele><time>2026-04-24T11:57:22Z</time></trkpt><trkpt lat="38.03035630543301" lon="15.700435277866953"><ele>539.0</ele><time>2026-04-24T11:57:23Z</time></trkpt><trkpt lat="38.030236758542266" lon="15.700480623111801"><ele>539.0</ele><time>2026-04-24T11:57:24Z</time></trkpt><trkpt lat="38.03013683835136" lon="15.70045713002359"><ele>539.0</ele><time>2026-04-24T11:57:25Z</time></trkpt><trkpt lat="38.030067363695196" lon="15.700481862546093"><ele>539.0</ele><time>2026-04-24T11:57:26Z</time></trkpt><trkpt lat="38.029982481706426" lon="15.700496259827977"><ele>539.0</ele><time>2026-04-24T11:57:28Z</time></trkpt><trkpt lat="38.02997591825293" lon="15.700652929630722"><ele>539.0</ele><time>2026-04-24T11:57:30Z</time></trkpt><trkpt lat="38.030048091232615" lon="15.700704809301746"><ele>539.0</ele><time>2026-04-24T11:57:31Z</time></trkpt><trkpt lat="38.03013640709798" lon="15.700720639297353"><ele>539.0</ele><time>2026-04-24T11:57:32Z</time></trkpt><trkpt lat="38.03020369915529" lon="15.700758623687548"><ele>539.0</ele><time>2026-04-24T11:57:33Z</time></trkpt><trkpt lat="38.03018483430262" lon="15.700848335892474"><ele>539.0</ele><time>2026-04-24T11:57:35Z</time></trkpt><trkpt lat="38.03011783406941" lon="15.700913947332518"><ele>539.0</ele><time>2026-04-24T11:57:37Z</time></trkpt><trkpt lat="38.0300229127201" lon="15.700884384962103"><ele>540.1666666666666</ele><time>2026-04-24T11:57:39Z</time></trkpt><trkpt lat="38.029961240076695" lon="15.700931474923298"><ele>541.3333333333333</ele><time>2026-04-24T12:06:48Z</time></trkpt><trkpt lat="38.029871454246695" lon="15.700881828818986"><ele>542.5</ele><time>2026-04-24T12:06:50Z</time></trkpt><trkpt lat="38.02979169683354" lon="15.7008469314754"><ele>543.6666666666666</ele><time>2026-04-24T12:06:51Z</time></trkpt><trkpt lat="38.02970789142932" lon="15.700844194629585"><ele>544.8333333333334</ele><time>2026-04-24T12:06:52Z</time></trkpt><trkpt lat="38.02962247888669" lon="15.700877765877708"><ele>546.0</ele><time>2026-04-24T12:06:53Z</time></trkpt><trkpt lat="38.0295137767277" lon="15.70089591510969"><ele>546.0</ele><time>2026-04-24T12:06:54Z</time></trkpt><trkpt lat="38.029419365905156" lon="15.700880585060066"><ele>546.0</ele><time>2026-04-24T12:06:55Z</time></trkpt><trkpt lat="38.02931883528067" lon="15.700839446766226"><ele>546.0</ele><time>2026-04-24T12:06:56Z</time></trkpt><trkpt lat="38.02919340569392" lon="15.7007791156514"><ele>546.0</ele><time>2026-04-24T12:06:57Z</time></trkpt><trkpt lat="38.02906777537218" lon="15.700725923222317"><ele>543.75</ele><time>2026-04-24T12:06:58Z</time></trkpt><trkpt lat="38.028966337139174" lon="15.70074446576553"><ele>541.5</ele><time>2026-04-24T12:07:00Z</time></trkpt><trkpt lat="38.02893458394418" lon="15.700869834650986"><ele>539.25</ele><time>2026-04-24T12:07:01Z</time></trkpt><trkpt lat="38.02886795305079" lon="15.701007516895123"><ele>537.0</ele><time>2026-04-24T12:07:02Z</time></trkpt><trkpt lat="38.02884168556147" lon="15.701171320747957"><ele>537.0</ele><time>2026-04-24T12:07:03Z</time></trkpt><trkpt lat="38.028823052160895" lon="15.701257497570019"><ele>537.0</ele><time>2026-04-24T12:07:04Z</time></trkpt><trkpt lat="38.028845701304164" lon="15.701347940154845"><ele>537.0</ele><time>2026-04-24T12:07:05Z</time></trkpt><trkpt lat="38.02882651947267" lon="15.70149268053697"><ele>537.0</ele><time>2026-04-24T12:07:06Z</time></trkpt><trkpt lat="38.02879716440618" lon="15.701627116738422"><ele>537.0</ele><time>2026-04-24T12:07:07Z</time></trkpt><trkpt lat="38.02876732008804" lon="15.701718758871335"><ele>537.0</ele><time>2026-04-24T12:07:08Z</time></trkpt><trkpt lat="38.028694325590195" lon="15.70176769422693"><ele>537.0</ele><time>2026-04-24T12:07:09Z</time></trkpt><trkpt lat="38.028637511805506" lon="15.70184576548588"><ele>537.0</ele><time>2026-04-24T12:07:10Z</time></trkpt><trkpt lat="38.02858929847335" lon="15.701929233873281"><ele>537.0</ele><time>2026-04-24T12:07:11Z</time></trkpt><trkpt lat="38.02856234539194" lon="15.70201260891082"><ele>537.0</ele><time>2026-04-24T12:07:12Z</time></trkpt><trkpt lat="38.02856885326732" lon="15.70215604239588"><ele>537.0</ele><time>2026-04-24T12:07:14Z</time></trkpt><trkpt lat="38.028623394459224" lon="15.702320095726606"><ele>539.25</ele><time>2026-04-24T12:07:16Z</time></trkpt><trkpt lat="38.02866257219544" lon="15.702431260236803"><ele>541.5</ele><time>2026-04-24T12:07:17Z</time></trkpt><trkpt lat="38.02865299138179" lon="15.702572722780374"><ele>543.75</ele><time>2026-04-24T12:07:18Z</time></trkpt><trkpt lat="38.02866040756178" lon="15.70273547337193"><ele>546.0</ele><time>2026-04-24T12:07:19Z</time></trkpt><trkpt lat="38.028699225506145" lon="15.702885467488686"><ele>547.2</ele><time>2026-04-24T12:07:20Z</time></trkpt><trkpt lat="38.02870470716463" lon="15.703010856204601"><ele>548.4000000000001</ele><time>2026-04-24T12:07:21Z</time></trkpt><trkpt lat="38.02871712097094" lon="15.703140939482903"><ele>549.6</ele><time>2026-04-24T12:07:22Z</time></trkpt><trkpt lat="38.02872228048715" lon="15.70328583823811"><ele>550.8000000000001</ele><time>2026-04-24T12:07:23Z</time></trkpt><trkpt lat="38.02875132754999" lon="15.703428324658493"><ele>552.0</ele><time>2026-04-24T12:07:24Z</time></trkpt><trkpt lat="38.02876307495398" lon="15.703576404742675"><ele>553.8000000000001</ele><time>2026-04-24T12:07:25Z</time></trkpt><trkpt lat="38.02875977308531" lon="15.703697047245551"><ele>555.6</ele><time>2026-04-24T12:07:26Z</time></trkpt><trkpt lat="38.028737119179326" lon="15.703778822236314"><ele>557.4000000000001</ele><time>2026-04-24T12:07:27Z</time></trkpt><trkpt lat="38.02869151468332" lon="15.703927152691865"><ele>559.2</ele><time>2026-04-24T12:07:29Z</time></trkpt><trkpt lat="38.02867486262909" lon="15.704043722161536"><ele>561.0</ele><time>2026-04-24T12:07:30Z</time></trkpt><trkpt lat="38.02863281507061" lon="15.704155768437667"><ele>561.0</ele><time>2026-04-24T12:07:31Z</time></trkpt><trkpt lat="38.02859035603924" lon="15.70428145672942"><ele>561.0</ele><time>2026-04-24T12:07:32Z</time></trkpt><trkpt lat="38.02857218914296" lon="15.704398216427839"><ele>561.0</ele><time>2026-04-24T12:07:33Z</time></trkpt><trkpt lat="38.0285520374706" lon="15.704492366843162"><ele>561.0</ele><time>2026-04-24T12:07:34Z</time></trkpt><trkpt lat="38.02856704675514" lon="15.70458779143525"><ele>561.0</ele><time>2026-04-24T12:07:35Z</time></trkpt><trkpt lat="38.02860456339862" lon="15.70469290026071"><ele>561.0</ele><time>2026-04-24T12:07:35.999Z</time></trkpt><trkpt lat="38.028661614903946" lon="15.704788273030259"><ele>562.0</ele><time>2026-04-24T12:07:36.999Z</time></trkpt><trkpt lat="38.02871036793069" lon="15.704891208743373"><ele>563.0</ele><time>2026-04-24T12:07:37.999Z</time></trkpt><trkpt lat="38.02874788969377" lon="15.70499740778746"><ele>564.0</ele><time>2026-04-24T12:07:38.999Z</time></trkpt><trkpt lat="38.0287865601981" lon="15.70513468901437"><ele>565.0</ele><time>2026-04-24T12:07:39.999Z</time></trkpt><trkpt lat="38.02881002738065" lon="15.705259000767516"><ele>566.0</ele><time>2026-04-24T12:07:40.999Z</time></trkpt><trkpt lat="38.02881614071886" lon="15.70536231523632"><ele>567.1666666666666</ele><time>2026-04-24T12:07:41.999Z</time></trkpt><trkpt lat="38.02879022601377" lon="15.705466121652414"><ele>568.3333333333333</ele><time>2026-04-24T12:07:42.999Z</time></trkpt><trkpt lat="38.02875423963212" lon="15.705570300475129"><ele>569.5</ele><time>2026-04-24T12:07:43.999Z</time></trkpt><trkpt lat="38.028714368801104" lon="15.705644797003984"><ele>570.6666666666666</ele><time>2026-04-24T12:07:44.999Z</time></trkpt><trkpt lat="38.02866820460414" lon="15.705735700217616"><ele>571.8333333333334</ele><time>2026-04-24T12:07:45.999Z</time></trkpt><trkpt lat="38.0286322863653" lon="15.705813287391983"><ele>573.0</ele><time>2026-04-24T12:07:46.999Z</time></trkpt><trkpt lat="38.028625587734574" lon="15.70589544555093"><ele>573.0</ele><time>2026-04-24T12:07:47.999Z</time></trkpt><trkpt lat="38.028644134755304" lon="15.705977556690067"><ele>573.0</ele><time>2026-04-24T12:07:48.999Z</time></trkpt><trkpt lat="38.02868741417206" lon="15.70607726974551"><ele>573.0</ele><time>2026-04-24T12:07:49.999Z</time></trkpt><trkpt lat="38.02873600929732" lon="15.70619970586311"><ele>573.0</ele><time>2026-04-24T12:07:50.999Z</time></trkpt><trkpt lat="38.028734600626414" lon="15.70633846249723"><ele>573.0</ele><time>2026-04-24T12:07:51.999Z</time></trkpt><trkpt lat="38.02877045996738" lon="15.70646687054742"><ele>573.8</ele><time>2026-04-24T12:07:52.999Z</time></trkpt><trkpt lat="38.028793227141506" lon="15.706610321417319"><ele>574.5999999999999</ele><time>2026-04-24T12:07:53.999Z</time></trkpt><trkpt lat="38.028830527798036" lon="15.706746715944336"><ele>575.4000000000001</ele><time>2026-04-24T12:07:54.999Z</time></trkpt><trkpt lat="38.02888867112081" lon="15.706848896571394"><ele>576.2</ele><time>2026-04-24T12:07:55.999Z</time></trkpt><trkpt lat="38.02895286383991" lon="15.706945794593116"><ele>577.0</ele><time>2026-04-24T12:07:56.999Z</time></trkpt><trkpt lat="38.02898693116179" lon="15.70702944331314"><ele>578.4</ele><time>2026-04-24T12:07:57.999Z</time></trkpt><trkpt lat="38.028954781921534" lon="15.707150775178997"><ele>579.8000000000001</ele><time>2026-04-24T12:07:59.999Z</time></trkpt><trkpt lat="38.02894491790964" lon="15.70724990375181"><ele>581.2</ele><time>2026-04-24T12:08:00.999Z</time></trkpt><trkpt lat="38.02894326449031" lon="15.707387060825095"><ele>582.6</ele><time>2026-04-24T12:08:01.999Z</time></trkpt><trkpt lat="38.02892717867914" lon="15.707524168051746"><ele>584.0</ele><time>2026-04-24T12:08:02.999Z</time></trkpt><trkpt lat="38.02887093072289" lon="15.707615491638789"><ele>584.0</ele><time>2026-04-24T12:08:03.999Z</time></trkpt><trkpt lat="38.028858284480144" lon="15.70773368579839"><ele>584.0</ele><time>2026-04-24T12:08:04.999Z</time></trkpt><trkpt lat="38.02885214804572" lon="15.707856801862128"><ele>584.0</ele><time>2026-04-24T12:08:05.999Z</time></trkpt><trkpt lat="38.028874792253426" lon="15.70800551290353"><ele>584.0</ele><time>2026-04-24T12:08:06.999Z</time></trkpt><trkpt lat="38.02889454473265" lon="15.70813480703423"><ele>584.0</ele><time>2026-04-24T12:08:07.999Z</time></trkpt><trkpt lat="38.02890032652553" lon="15.708241180960798"><ele>585.6</ele><time>2026-04-24T12:08:08.999Z</time></trkpt><trkpt lat="38.028903990484324" lon="15.708335897819541"><ele>587.2</ele><time>2026-04-24T12:08:09.999Z</time></trkpt><trkpt lat="38.02897251344065" lon="15.70850500381043"><ele>588.8000000000001</ele><time>2026-04-24T12:08:11.999Z</time></trkpt><trkpt lat="38.029036849239056" lon="15.708621815155528"><ele>590.4</ele><time>2026-04-24T12:08:12.999Z</time></trkpt><trkpt lat="38.02906775155777" lon="15.708752397559243"><ele>592.0</ele><time>2026-04-24T12:08:13.999Z</time></trkpt><trkpt lat="38.029093565043105" lon="15.708867604931998"><ele>593.3333333333334</ele><time>2026-04-24T12:08:14.999Z</time></trkpt><trkpt lat="38.02910161368691" lon="15.708974025154552"><ele>594.6666666666667</ele><time>2026-04-24T12:08:16Z</time></trkpt><trkpt lat="38.02910725906003" lon="15.709076536143545"><ele>596.0</ele><time>2026-04-24T12:08:17Z</time></trkpt><trkpt lat="38.029125846244895" lon="15.709165484356202"><ele>597.3333333333334</ele><time>2026-04-24T12:08:18Z</time></trkpt><trkpt lat="38.029146513323305" lon="15.709275954335132"><ele>598.6666666666666</ele><time>2026-04-24T12:08:19Z</time></trkpt><trkpt lat="38.029189214753266" lon="15.70937432662209"><ele>600.0</ele><time>2026-04-24T12:08:20Z</time></trkpt><trkpt lat="38.02925363151314" lon="15.709446811044348"><ele>601.2</ele><time>2026-04-24T12:08:21Z</time></trkpt><trkpt lat="38.02932181772348" lon="15.709504206387743"><ele>602.4</ele><time>2026-04-24T12:08:22Z</time></trkpt><trkpt lat="38.02940535360156" lon="15.709580269281975"><ele>603.6</ele><time>2026-04-24T12:08:23Z</time></trkpt><trkpt lat="38.029485219350974" lon="15.709663411238745"><ele>604.8</ele><time>2026-04-24T12:08:24Z</time></trkpt><trkpt lat="38.0295779348234" lon="15.709744541159262"><ele>606.0</ele><time>2026-04-24T12:08:25Z</time></trkpt><trkpt lat="38.029670467675295" lon="15.709814430680126"><ele>606.0</ele><time>2026-04-24T12:08:26Z</time></trkpt><trkpt lat="38.02974951910037" lon="15.709864143396242"><ele>606.0</ele><time>2026-04-24T12:08:27Z</time></trkpt><trkpt lat="38.02984331479643" lon="15.709922907912478"><ele>606.0</ele><time>2026-04-24T12:08:28Z</time></trkpt><trkpt lat="38.02992363901696" lon="15.709965717527071"><ele>606.0</ele><time>2026-04-24T12:08:29Z</time></trkpt><trkpt lat="38.03000123436472" lon="15.710012946881022"><ele>606.0</ele><time>2026-04-24T12:08:30Z</time></trkpt><trkpt lat="38.03005952694369" lon="15.710078762840133"><ele>606.0</ele><time>2026-04-24T12:08:31Z</time></trkpt><trkpt lat="38.03006967662178" lon="15.71017514004322"><ele>609.1666666666666</ele><time>2026-04-24T12:08:32Z</time></trkpt><trkpt lat="38.03009198514388" lon="15.710289663862069"><ele>612.3333333333334</ele><time>2026-04-24T12:08:33Z</time></trkpt><trkpt lat="38.0301051250669" lon="15.710399328763614"><ele>615.5</ele><time>2026-04-24T12:08:34Z</time></trkpt><trkpt lat="38.030097342139854" lon="15.710516675505291"><ele>618.6666666666667</ele><time>2026-04-24T12:08:36Z</time></trkpt><trkpt lat="38.03001171514372" lon="15.710508418369912"><ele>621.8333333333334</ele><time>2026-04-24T12:08:38Z</time></trkpt><trkpt lat="38.02995869930382" lon="15.710455534559465"><ele>625.0</ele><time>2026-04-24T12:08:39Z</time></trkpt><trkpt lat="38.02990634166617" lon="15.710375791701715"><ele>625.5</ele><time>2026-04-24T12:08:40Z</time></trkpt><trkpt lat="38.029871993070266" lon="15.710303135089074"><ele>626.0</ele><time>2026-04-24T12:08:41Z</time></trkpt><trkpt lat="38.029793708575106" lon="15.710260653760095"><ele>626.5</ele><time>2026-04-24T12:08:43Z</time></trkpt><trkpt lat="38.02968423126516" lon="15.710296029689845"><ele>627.0</ele><time>2026-04-24T12:08:45Z</time></trkpt><trkpt lat="38.02960390140277" lon="15.710333737715285"><ele>627.5</ele><time>2026-04-24T12:08:46Z</time></trkpt><trkpt lat="38.02952386889213" lon="15.710374264681167"><ele>628.0</ele><time>2026-04-24T12:08:47Z</time></trkpt><trkpt lat="38.029462193598235" lon="15.710431231398907"><ele>627.9999999999999</ele><time>2026-04-24T12:08:48Z</time></trkpt><trkpt lat="38.02942586218109" lon="15.710501084061336"><ele>628.0</ele><time>2026-04-24T12:08:49Z</time></trkpt><trkpt lat="38.02940488913797" lon="15.710594258950893"><ele>628.0</ele><time>2026-04-24T12:08:50Z</time></trkpt><trkpt lat="38.02937152674125" lon="15.710680735923187"><ele>628.0</ele><time>2026-04-24T12:08:51Z</time></trkpt><trkpt lat="38.02929698073407" lon="15.710701785002595"><ele>628.0</ele><time>2026-04-24T12:08:52Z</time></trkpt><trkpt lat="38.029230773394225" lon="15.710709874184216"><ele>627.9999999999999</ele><time>2026-04-24T12:08:53Z</time></trkpt><trkpt lat="38.0291485038156" lon="15.71072399541181"><ele>628.0</ele><time>2026-04-24T12:08:54Z</time></trkpt><trkpt lat="38.029073775975604" lon="15.710715054070214"><ele>626.6666666666667</ele><time>2026-04-24T12:08:55Z</time></trkpt><trkpt lat="38.029025227361494" lon="15.710660391321328"><ele>625.3333333333334</ele><time>2026-04-24T12:08:56Z</time></trkpt><trkpt lat="38.02896167911905" lon="15.710619369752594"><ele>624.0</ele><time>2026-04-24T12:08:57Z</time></trkpt><trkpt lat="38.02889762540799" lon="15.710594311506"><ele>622.6666666666666</ele><time>2026-04-24T12:08:58Z</time></trkpt><trkpt lat="38.02878258342522" lon="15.710653135418097"><ele>621.3333333333333</ele><time>2026-04-24T12:09:00Z</time></trkpt><trkpt lat="38.02870749153019" lon="15.710721920084822"><ele>620.0</ele><time>2026-04-24T12:09:01Z</time></trkpt><trkpt lat="38.0286140575525" lon="15.710793155237486"><ele>620.0</ele><time>2026-04-24T12:09:02Z</time></trkpt><trkpt lat="38.028528437362645" lon="15.710874060983553"><ele>620.0</ele><time>2026-04-24T12:09:03Z</time></trkpt><trkpt lat="38.02847095208185" lon="15.710926122955101"><ele>620.0</ele><time>2026-04-24T12:09:04Z</time></trkpt><trkpt lat="38.02845421315568" lon="15.71101520845606"><ele>620.0</ele><time>2026-04-24T12:12:27Z</time></trkpt><trkpt lat="38.02839544359798" lon="15.711094878695734"><ele>620.0</ele><time>2026-04-24T12:12:37Z</time></trkpt><trkpt lat="38.02833607216174" lon="15.711224169052516"><ele>622.4</ele><time>2026-04-24T12:12:39Z</time></trkpt><trkpt lat="38.0283329597006" lon="15.71131807752007"><ele>624.8</ele><time>2026-04-24T12:12:41Z</time></trkpt><trkpt lat="38.02845553331155" lon="15.711231121321797"><ele>627.2</ele><time>2026-04-24T12:12:44Z</time></trkpt><trkpt lat="38.02853605318653" lon="15.711121962881915"><ele>629.6</ele><time>2026-04-24T12:12:46Z</time></trkpt><trkpt lat="38.02862375662315" lon="15.71109361979855"><ele>632.0</ele><time>2026-04-24T12:12:48Z</time></trkpt><trkpt lat="38.02868690454999" lon="15.711090547873113"><ele>632.0</ele><time>2026-04-24T12:12:50Z</time></trkpt><trkpt lat="38.0287502528613" lon="15.711172905473369"><ele>632.0</ele><time>2026-04-24T12:12:52Z</time></trkpt><trkpt lat="38.028814290191434" lon="15.71127818332997"><ele>632.0</ele><time>2026-04-24T12:12:54Z</time></trkpt><trkpt lat="38.02887995702349" lon="15.711295186845033"><ele>632.0</ele><time>2026-04-24T12:12:55Z</time></trkpt><trkpt lat="38.028945361525814" lon="15.7113020451547"><ele>632.0</ele><time>2026-04-24T12:12:56Z</time></trkpt><trkpt lat="38.02900999534232" lon="15.711308341033662"><ele>632.0</ele><time>2026-04-24T12:12:57Z</time></trkpt><trkpt lat="38.029077969349146" lon="15.711327977993047"><ele>636.2</ele><time>2026-04-24T12:12:58Z</time></trkpt><trkpt lat="38.029158936008336" lon="15.711371863594481"><ele>640.4000000000001</ele><time>2026-04-24T12:12:59Z</time></trkpt><trkpt lat="38.02929744727402" lon="15.711405555153688"><ele>644.5999999999999</ele><time>2026-04-24T12:13:01Z</time></trkpt><trkpt lat="38.029364575831636" lon="15.711432354787377"><ele>648.8</ele><time>2026-04-24T12:13:02Z</time></trkpt><trkpt lat="38.0294357298252" lon="15.711465488951665"><ele>653.0</ele><time>2026-04-24T12:13:03Z</time></trkpt><trkpt lat="38.029506801272774" lon="15.711509286493246"><ele>653.0</ele><time>2026-04-24T12:13:04Z</time></trkpt><trkpt lat="38.02956487641721" lon="15.711549196933536"><ele>653.0</ele><time>2026-04-24T12:13:05Z</time></trkpt><trkpt lat="38.02963978620595" lon="15.711580595206927"><ele>653.0</ele><time>2026-04-24T12:13:06Z</time></trkpt><trkpt lat="38.029713046856784" lon="15.711604029679862"><ele>653.0</ele><time>2026-04-24T12:13:07Z</time></trkpt><trkpt lat="38.029788610141175" lon="15.711637389295442"><ele>653.0</ele><time>2026-04-24T12:13:08Z</time></trkpt><trkpt lat="38.02987199929654" lon="15.711632759692183"><ele>653.0</ele><time>2026-04-24T12:13:09Z</time></trkpt><trkpt lat="38.02992690965688" lon="15.711692150101326"><ele>653.0</ele><time>2026-04-24T12:13:11Z</time></trkpt><trkpt lat="38.02988684419958" lon="15.71178565028232"><ele>653.0</ele><time>2026-04-24T12:13:13Z</time></trkpt><trkpt lat="38.02979651545676" lon="15.711787849834668"><ele>653.0</ele><time>2026-04-24T12:13:15Z</time></trkpt><trkpt lat="38.029732735226794" lon="15.711797941538734"><ele>653.0</ele><time>2026-04-24T12:13:16Z</time></trkpt><trkpt lat="38.02965832357781" lon="15.711825967226705"><ele>653.0</ele><time>2026-04-24T12:13:17Z</time></trkpt><trkpt lat="38.02958972871335" lon="15.711805630482434"><ele>653.0</ele><time>2026-04-24T12:13:18Z</time></trkpt><trkpt lat="38.029503777979336" lon="15.711785500677069"><ele>653.0</ele><time>2026-04-24T12:13:19Z</time></trkpt><trkpt lat="38.02944015205559" lon="15.711776905884097"><ele>653.0</ele><time>2026-04-24T12:13:20Z</time></trkpt><trkpt lat="38.02935116222047" lon="15.71179003035888"><ele>653.0</ele><time>2026-04-24T12:13:23Z</time></trkpt><trkpt lat="38.02936098276573" lon="15.71193331178634"><ele>653.0</ele><time>2026-04-24T12:13:25Z</time></trkpt><trkpt lat="38.0294495403373" lon="15.711956222974687"><ele>653.0</ele><time>2026-04-24T12:13:26Z</time></trkpt><trkpt lat="38.029530199029594" lon="15.711962889453309"><ele>653.0</ele><time>2026-04-24T12:13:27Z</time></trkpt><trkpt lat="38.029625892023" lon="15.711970863195539"><ele>655.3333333333333</ele><time>2026-04-24T12:13:28Z</time></trkpt><trkpt lat="38.029717309945994" lon="15.711989932004139"><ele>657.6666666666666</ele><time>2026-04-24T12:13:29Z</time></trkpt><trkpt lat="38.02979279447843" lon="15.712030384741965"><ele>660.0</ele><time>2026-04-24T12:13:30Z</time></trkpt><trkpt lat="38.02987745459629" lon="15.71211311867032"><ele>662.3333333333334</ele><time>2026-04-24T12:13:32Z</time></trkpt><trkpt lat="38.0299048139156" lon="15.7121951656853"><ele>664.6666666666667</ele><time>2026-04-24T12:13:33Z</time></trkpt><trkpt lat="38.02994115525478" lon="15.712285620563302"><ele>667.0</ele><time>2026-04-24T12:13:34Z</time></trkpt><trkpt lat="38.02997112622521" lon="15.712405677855902"><ele>668.0</ele><time>2026-04-24T12:13:35Z</time></trkpt><trkpt lat="38.0299844444903" lon="15.712525198432873"><ele>669.0</ele><time>2026-04-24T12:13:36Z</time></trkpt><trkpt lat="38.0299978996606" lon="15.71263191639834"><ele>670.0</ele><time>2026-04-24T12:13:37Z</time></trkpt><trkpt lat="38.030009791091565" lon="15.712742608272196"><ele>671.0</ele><time>2026-04-24T12:13:38Z</time></trkpt><trkpt lat="38.03000028753726" lon="15.712829157875902"><ele>672.0</ele><time>2026-04-24T12:13:39Z</time></trkpt><trkpt lat="38.02998013016214" lon="15.712915022089941"><ele>673.0</ele><time>2026-04-24T12:13:40Z</time></trkpt><trkpt lat="38.02987155610815" lon="15.713010898187562"><ele>673.4</ele><time>2026-04-24T12:13:42Z</time></trkpt><trkpt lat="38.029802800823354" lon="15.71309700054998"><ele>673.8</ele><time>2026-04-24T12:13:43Z</time></trkpt><trkpt lat="38.02976160793427" lon="15.713188452724184"><ele>674.2</ele><time>2026-04-24T12:13:44Z</time></trkpt><trkpt lat="38.02972139598425" lon="15.713251815961623"><ele>674.6</ele><time>2026-04-24T12:13:45Z</time></trkpt><trkpt lat="38.02971273705926" lon="15.71337743318084"><ele>675.0</ele><time>2026-04-24T12:13:47Z</time></trkpt><trkpt lat="38.02968251650342" lon="15.713550160907458"><ele>676.6</ele><time>2026-04-24T12:13:49Z</time></trkpt><trkpt lat="38.02963913650062" lon="15.713660417728917"><ele>678.2</ele><time>2026-04-24T12:13:50Z</time></trkpt><trkpt lat="38.029549893172906" lon="15.713774740052312"><ele>679.8</ele><time>2026-04-24T12:13:51Z</time></trkpt><trkpt lat="38.02952824172319" lon="15.713864442017657"><ele>681.4</ele><time>2026-04-24T12:13:52Z</time></trkpt><trkpt lat="38.02949793775079" lon="15.71398999148672"><ele>683.0</ele><time>2026-04-24T12:13:54Z</time></trkpt><trkpt lat="38.0295596209245" lon="15.714068468570463"><ele>683.0</ele><time>2026-04-24T12:13:55Z</time></trkpt><trkpt lat="38.02961709608979" lon="15.714197293755259"><ele>683.0</ele><time>2026-04-24T12:13:57Z</time></trkpt><trkpt lat="38.02966573381764" lon="15.714317918146373"><ele>683.0</ele><time>2026-04-24T12:13:59Z</time></trkpt><trkpt lat="38.029690055230745" lon="15.714443849544313"><ele>683.0</ele><time>2026-04-24T12:14:01Z</time></trkpt><trkpt lat="38.02970537816122" lon="15.714560886237802"><ele>683.0</ele><time>2026-04-24T12:14:03Z</time></trkpt><trkpt lat="38.02970269325475" lon="15.714694762130518"><ele>683.0</ele><time>2026-04-24T12:14:05Z</time></trkpt><trkpt lat="38.02972842286649" lon="15.714835204708697"><ele>683.0</ele><time>2026-04-24T12:14:07Z</time></trkpt><trkpt lat="38.02976035782233" lon="15.714917200830698"><ele>683.0</ele><time>2026-04-24T12:14:08.999Z</time></trkpt><trkpt lat="38.02979880427368" lon="15.715023827034965"><ele>683.0</ele><time>2026-04-24T12:14:57Z</time></trkpt><trkpt lat="38.0298372268139" lon="15.71510873487199"><ele>683.0</ele><time>2026-04-24T12:14:59Z</time></trkpt><trkpt lat="38.02987203818202" lon="15.71522739437209"><ele>683.5999999999999</ele><time>2026-04-24T12:15:01Z</time></trkpt><trkpt lat="38.02989567308701" lon="15.715303677951306"><ele>684.1999999999999</ele><time>2026-04-24T12:15:02Z</time></trkpt><trkpt lat="38.0299039764919" lon="15.71540186965054"><ele>684.8</ele><time>2026-04-24T12:15:03Z</time></trkpt><trkpt lat="38.02996745610958" lon="15.715483839068966"><ele>685.4</ele><time>2026-04-24T12:15:04Z</time></trkpt><trkpt lat="38.030009174892534" lon="15.715607271938241"><ele>686.0</ele><time>2026-04-24T12:15:05Z</time></trkpt><trkpt lat="38.03004076474122" lon="15.715748429893795"><ele>691.4</ele><time>2026-04-24T12:15:06Z</time></trkpt><trkpt lat="38.030049172640986" lon="15.715865576218182"><ele>696.8</ele><time>2026-04-24T12:15:07Z</time></trkpt><trkpt lat="38.0300639725889" lon="15.715992310287838"><ele>702.1999999999999</ele><time>2026-04-24T12:15:08Z</time></trkpt><trkpt lat="38.030078173184215" lon="15.716131959723764"><ele>707.5999999999999</ele><time>2026-04-24T12:15:09Z</time></trkpt><trkpt lat="38.03008369047434" lon="15.716247919636352"><ele>713.0</ele><time>2026-04-24T12:15:10Z</time></trkpt><trkpt lat="38.03007068105995" lon="15.716340620631787"><ele>713.5999999999999</ele><time>2026-04-24T12:15:11Z</time></trkpt><trkpt lat="38.03007282532575" lon="15.71647038078918"><ele>714.1999999999999</ele><time>2026-04-24T12:15:12Z</time></trkpt><trkpt lat="38.03010202865253" lon="15.716580562356821"><ele>714.8</ele><time>2026-04-24T12:15:13Z</time></trkpt><trkpt lat="38.030171607818936" lon="15.716658593441798"><ele>715.4</ele><time>2026-04-24T12:15:14Z</time></trkpt><trkpt lat="38.0302114527597" lon="15.716771721569385"><ele>716.0</ele><time>2026-04-24T12:15:15Z</time></trkpt><trkpt lat="38.030254249540185" lon="15.716885471248185"><ele>715.8</ele><time>2026-04-24T12:15:16Z</time></trkpt><trkpt lat="38.03029753209731" lon="15.717013331898533"><ele>715.5999999999999</ele><time>2026-04-24T12:15:17Z</time></trkpt><trkpt lat="38.030355967652035" lon="15.717135504520705"><ele>715.4</ele><time>2026-04-24T12:15:18Z</time></trkpt><trkpt lat="38.03041588812501" lon="15.71725583514689"><ele>715.2</ele><time>2026-04-24T12:15:19Z</time></trkpt><trkpt lat="38.030474049336554" lon="15.717373390509962"><ele>715.0</ele><time>2026-04-24T12:15:20Z</time></trkpt><trkpt lat="38.03051649680577" lon="15.717485541895241"><ele>715.0</ele><time>2026-04-24T12:15:21Z</time></trkpt><trkpt lat="38.03053082261498" lon="15.717584694038598"><ele>715.0</ele><time>2026-04-24T12:15:22Z</time></trkpt><trkpt lat="38.03052445138956" lon="15.717704531064964"><ele>715.0</ele><time>2026-04-24T12:15:23Z</time></trkpt><trkpt lat="38.03047495538397" lon="15.71782278727673"><ele>715.0</ele><time>2026-04-24T12:15:24Z</time></trkpt><trkpt lat="38.030474665739526" lon="15.71794089404209"><ele>715.0</ele><time>2026-04-24T12:15:25Z</time></trkpt><trkpt lat="38.03044188875633" lon="15.718088777167353"><ele>717.0</ele><time>2026-04-24T12:15:26Z</time></trkpt><trkpt lat="38.03040432304807" lon="15.718237419058918"><ele>719.0</ele><time>2026-04-24T12:15:27Z</time></trkpt><trkpt lat="38.030339305964084" lon="15.718350334017767"><ele>721.0</ele><time>2026-04-24T12:15:28Z</time></trkpt><trkpt lat="38.03027402319677" lon="15.718460891479861"><ele>723.0</ele><time>2026-04-24T12:15:29Z</time></trkpt><trkpt lat="38.03021717576507" lon="15.718580724005651"><ele>723.8333333333334</ele><time>2026-04-24T12:15:30Z</time></trkpt><trkpt lat="38.03016508587218" lon="15.718700855248871"><ele>724.6666666666666</ele><time>2026-04-24T12:15:31Z</time></trkpt><trkpt lat="38.0301361408581" lon="15.718826308652263"><ele>725.5</ele><time>2026-04-24T12:15:32Z</time></trkpt><trkpt lat="38.030112949863074" lon="15.718926114170683"><ele>726.3333333333333</ele><time>2026-04-24T12:15:33Z</time></trkpt><trkpt lat="38.03010334335279" lon="15.719015755942802"><ele>727.1666666666666</ele><time>2026-04-24T12:15:34Z</time></trkpt><trkpt lat="38.03008785136115" lon="15.719101760913116"><ele>728.0</ele><time>2026-04-24T12:15:35Z</time></trkpt><trkpt lat="38.03001950412307" lon="15.719164151232802"><ele>728.8333333333333</ele><time>2026-04-24T12:15:36Z</time></trkpt><trkpt lat="38.02996203482412" lon="15.719254603961724"><ele>729.6666666666666</ele><time>2026-04-24T12:15:37Z</time></trkpt><trkpt lat="38.02991467194745" lon="15.719340117690347"><ele>730.5</ele><time>2026-04-24T12:15:38Z</time></trkpt><trkpt lat="38.029879757524185" lon="15.719422573209602"><ele>731.3333333333334</ele><time>2026-04-24T12:15:39Z</time></trkpt><trkpt lat="38.02986675783112" lon="15.71950630464676"><ele>732.1666666666667</ele><time>2026-04-24T12:15:40Z</time></trkpt><trkpt lat="38.02982866640861" lon="15.719634598146362"><ele>733.0</ele><time>2026-04-24T12:15:42Z</time></trkpt><trkpt lat="38.02983054777066" lon="15.719738240666278"><ele>734.8333333333334</ele><time>2026-04-24T12:15:43Z</time></trkpt><trkpt lat="38.0298199152141" lon="15.719848223480872"><ele>736.6666666666667</ele><time>2026-04-24T12:15:44Z</time></trkpt><trkpt lat="38.029811121251505" lon="15.719965136398462"><ele>738.5</ele><time>2026-04-24T12:15:45Z</time></trkpt><trkpt lat="38.029809496996926" lon="15.72006086610142"><ele>740.3333333333334</ele><time>2026-04-24T12:15:46Z</time></trkpt><trkpt lat="38.02981848354153" lon="15.720169599944606"><ele>742.1666666666666</ele><time>2026-04-24T12:15:47Z</time></trkpt><trkpt lat="38.02983366446415" lon="15.720281360347036"><ele>744.0</ele><time>2026-04-24T12:15:48Z</time></trkpt><trkpt lat="38.029824753033985" lon="15.720386285701206"><ele>744.6666666666666</ele><time>2026-04-24T12:15:49Z</time></trkpt><trkpt lat="38.029782347569075" lon="15.720467322884653"><ele>745.3333333333334</ele><time>2026-04-24T12:15:50Z</time></trkpt><trkpt lat="38.02972626735137" lon="15.720518721034553"><ele>746.0</ele><time>2026-04-24T12:15:51Z</time></trkpt><trkpt lat="38.02965966358713" lon="15.720570220274535"><ele>746.6666666666667</ele><time>2026-04-24T12:15:52Z</time></trkpt><trkpt lat="38.02958445162181" lon="15.720606705976941"><ele>747.3333333333334</ele><time>2026-04-24T12:15:53Z</time></trkpt><trkpt lat="38.02948477590557" lon="15.72065637332666"><ele>748.0</ele><time>2026-04-24T12:15:54Z</time></trkpt><trkpt lat="38.029383311396415" lon="15.720702790825737"><ele>748.0</ele><time>2026-04-24T12:15:54.999Z</time></trkpt><trkpt lat="38.02927033815055" lon="15.720723285054866"><ele>748.0</ele><time>2026-04-24T12:15:55.999Z</time></trkpt><trkpt lat="38.02914535151704" lon="15.720797101239429"><ele>748.0</ele><time>2026-04-24T12:15:56.999Z</time></trkpt><trkpt lat="38.029016166552786" lon="15.720851173581792"><ele>748.0</ele><time>2026-04-24T12:15:57.999Z</time></trkpt><trkpt lat="38.02894488751908" lon="15.720931021531849"><ele>748.0</ele><time>2026-04-24T12:15:58.999Z</time></trkpt><trkpt lat="38.02889549474398" lon="15.721001861522364"><ele>748.0</ele><time>2026-04-24T12:15:59.999Z</time></trkpt><trkpt lat="38.02885335450648" lon="15.721085454186786"><ele>748.0</ele><time>2026-04-24T12:16:00.999Z</time></trkpt><trkpt lat="38.028800233406606" lon="15.721218179017443"><ele>748.0</ele><time>2026-04-24T12:16:01.999Z</time></trkpt><trkpt lat="38.02877728125118" lon="15.721357290522242"><ele>748.0</ele><time>2026-04-24T12:16:02.999Z</time></trkpt><trkpt lat="38.02877710684055" lon="15.72146650778183"><ele>749.2</ele><time>2026-04-24T12:16:03.999Z</time></trkpt><trkpt lat="38.02879905374224" lon="15.72157885644767"><ele>750.4</ele><time>2026-04-24T12:16:04.999Z</time></trkpt><trkpt lat="38.02882302848354" lon="15.721704786157458"><ele>751.6</ele><time>2026-04-24T12:16:05.999Z</time></trkpt><trkpt lat="38.028810360207906" lon="15.721829241616568"><ele>752.8000000000001</ele><time>2026-04-24T12:16:06.999Z</time></trkpt><trkpt lat="38.02876039264323" lon="15.721952010573615"><ele>754.0</ele><time>2026-04-24T12:16:07.999Z</time></trkpt><trkpt lat="38.028700186159234" lon="15.72210007510664"><ele>756.4000000000001</ele><time>2026-04-24T12:16:08.999Z</time></trkpt><trkpt lat="38.028661304459675" lon="15.722238461061023"><ele>758.8</ele><time>2026-04-24T12:16:09.999Z</time></trkpt><trkpt lat="38.02864184691969" lon="15.722360973761857"><ele>761.2</ele><time>2026-04-24T12:16:10.999Z</time></trkpt><trkpt lat="38.02862951217039" lon="15.722484507790668"><ele>763.5999999999999</ele><time>2026-04-24T12:16:11.999Z</time></trkpt><trkpt lat="38.028641463497486" lon="15.722595592560323"><ele>766.0</ele><time>2026-04-24T12:16:12.999Z</time></trkpt><trkpt lat="38.028679325577855" lon="15.72272212812008"><ele>767.3333333333334</ele><time>2026-04-24T12:16:13.999Z</time></trkpt><trkpt lat="38.02871431887558" lon="15.722855813061315"><ele>768.6666666666667</ele><time>2026-04-24T12:16:14.999Z</time></trkpt><trkpt lat="38.02872522231573" lon="15.722954699726841"><ele>770.0</ele><time>2026-04-24T12:16:15.999Z</time></trkpt><trkpt lat="38.02874638220448" lon="15.723046211724574"><ele>771.3333333333334</ele><time>2026-04-24T12:16:16.999Z</time></trkpt><trkpt lat="38.028742399961494" lon="15.72315370846397"><ele>772.6666666666666</ele><time>2026-04-24T12:16:17.999Z</time></trkpt><trkpt lat="38.028715202441674" lon="15.72325006925923"><ele>774.0</ele><time>2026-04-24T12:16:18.999Z</time></trkpt><trkpt lat="38.02870050392128" lon="15.723387090980337"><ele>774.0</ele><time>2026-04-24T12:16:19.999Z</time></trkpt><trkpt lat="38.02869567945843" lon="15.723527307062511"><ele>774.0</ele><time>2026-04-24T12:16:20.999Z</time></trkpt><trkpt lat="38.02868096372037" lon="15.723640746735443"><ele>774.0</ele><time>2026-04-24T12:16:21.999Z</time></trkpt><trkpt lat="38.028663472552104" lon="15.723745902305374"><ele>774.0</ele><time>2026-04-24T12:16:22.999Z</time></trkpt><trkpt lat="38.02866902929724" lon="15.723829453667134"><ele>774.0</ele><time>2026-04-24T12:16:23.999Z</time></trkpt><trkpt lat="38.028646410033886" lon="15.723931755375462"><ele>774.0</ele><time>2026-04-24T12:16:24.999Z</time></trkpt><trkpt lat="38.028655883844735" lon="15.72406349266525"><ele>775.4000000000001</ele><time>2026-04-24T12:16:25.999Z</time></trkpt><trkpt lat="38.02864982753233" lon="15.72416398477862"><ele>776.8</ele><time>2026-04-24T12:16:26.999Z</time></trkpt><trkpt lat="38.02868417667252" lon="15.724265238222708"><ele>778.2</ele><time>2026-04-24T12:16:27.999Z</time></trkpt><trkpt lat="38.02874279264812" lon="15.724361305154419"><ele>779.5999999999999</ele><time>2026-04-24T12:16:28.999Z</time></trkpt><trkpt lat="38.02879042480408" lon="15.724471082941976"><ele>781.0</ele><time>2026-04-24T12:16:29.999Z</time></trkpt><trkpt lat="38.028816069577246" lon="15.7246155271907"><ele>782.1999999999999</ele><time>2026-04-24T12:16:30.999Z</time></trkpt><trkpt lat="38.028827200267564" lon="15.72476419998831"><ele>783.4</ele><time>2026-04-24T12:16:31.999Z</time></trkpt><trkpt lat="38.02885369079877" lon="15.724892896741341"><ele>784.6</ele><time>2026-04-24T12:16:32.999Z</time></trkpt><trkpt lat="38.02888115012785" lon="15.724964906334195"><ele>785.8</ele><time>2026-04-24T12:16:33.999Z</time></trkpt><trkpt lat="38.028874601575545" lon="15.725078655412853"><ele>787.0</ele><time>2026-04-24T12:16:35.999Z</time></trkpt><trkpt lat="38.028773072855294" lon="15.725160588467997"><ele>786.9999999999999</ele><time>2026-04-24T12:16:37.999Z</time></trkpt><trkpt lat="38.028683774201994" lon="15.725217169206072"><ele>787.0</ele><time>2026-04-24T12:16:39Z</time></trkpt><trkpt lat="38.028601644419595" lon="15.725268958264886"><ele>787.0</ele><time>2026-04-24T12:16:40Z</time></trkpt><trkpt lat="38.0285493117314" lon="15.725327585725559"><ele>787.0</ele><time>2026-04-24T12:16:41Z</time></trkpt><trkpt lat="38.02851658138" lon="15.725408176212868"><ele>786.9999999999999</ele><time>2026-04-24T12:16:42Z</time></trkpt><trkpt lat="38.028489706446514" lon="15.725523453516754"><ele>787.0</ele><time>2026-04-24T12:16:43Z</time></trkpt><trkpt lat="38.028442695208476" lon="15.72564364886619"><ele>787.0</ele><time>2026-04-24T12:16:44Z</time></trkpt><trkpt lat="38.02838933418763" lon="15.725758964404049"><ele>787.0</ele><time>2026-04-24T12:16:45Z</time></trkpt><trkpt lat="38.02833720009176" lon="15.72586927146759"><ele>787.0</ele><time>2026-04-24T12:16:46Z</time></trkpt><trkpt lat="38.028292504989544" lon="15.725971435206686"><ele>787.0</ele><time>2026-04-24T12:16:47Z</time></trkpt><trkpt lat="38.02825868008824" lon="15.726085507843132"><ele>787.0</ele><time>2026-04-24T12:16:48Z</time></trkpt><trkpt lat="38.02823141823722" lon="15.726190259047423"><ele>787.9999999999999</ele><time>2026-04-24T12:16:49Z</time></trkpt><trkpt lat="38.02823086203165" lon="15.726287632934689"><ele>789.0</ele><time>2026-04-24T12:16:50Z</time></trkpt><trkpt lat="38.02824438570005" lon="15.726372436656412"><ele>790.0</ele><time>2026-04-24T12:16:51Z</time></trkpt><trkpt lat="38.02826312990507" lon="15.72645200453186"><ele>791.0</ele><time>2026-04-24T12:16:52Z</time></trkpt><trkpt lat="38.02830716553768" lon="15.726526762835018"><ele>791.9999999999999</ele><time>2026-04-24T12:16:53Z</time></trkpt><trkpt lat="38.02836455841541" lon="15.726609665579204"><ele>793.0</ele><time>2026-04-24T12:16:54Z</time></trkpt><trkpt lat="38.02842916883719" lon="15.726716364442083"><ele>793.1666666666666</ele><time>2026-04-24T12:16:55Z</time></trkpt><trkpt lat="38.028449625440246" lon="15.726840410633722"><ele>793.3333333333333</ele><time>2026-04-24T12:16:56Z</time></trkpt><trkpt lat="38.02845170925906" lon="15.726936503766725"><ele>793.5</ele><time>2026-04-24T12:16:57Z</time></trkpt><trkpt lat="38.02844622110227" lon="15.727020849069378"><ele>793.6666666666667</ele><time>2026-04-24T12:16:58Z</time></trkpt><trkpt lat="38.02843892496023" lon="15.727101241480606"><ele>793.8333333333334</ele><time>2026-04-24T12:16:59Z</time></trkpt><trkpt lat="38.02842621597505" lon="15.727215756413962"><ele>794.0</ele><time>2026-04-24T12:17:00Z</time></trkpt><trkpt lat="38.028411104104975" lon="15.727346555673634"><ele>794.6666666666667</ele><time>2026-04-24T12:17:01Z</time></trkpt><trkpt lat="38.0283989985482" lon="15.72748282412448"><ele>795.3333333333334</ele><time>2026-04-24T12:17:02Z</time></trkpt><trkpt lat="38.0283912308514" lon="15.727602829540253"><ele>796.0</ele><time>2026-04-24T12:17:03Z</time></trkpt><trkpt lat="38.02837968212324" lon="15.72770214778018"><ele>796.6666666666667</ele><time>2026-04-24T12:17:04Z</time></trkpt><trkpt lat="38.02835855738336" lon="15.727796157217437"><ele>797.3333333333334</ele><time>2026-04-24T12:17:05Z</time></trkpt><trkpt lat="38.028334420199776" lon="15.727895118667597"><ele>798.0</ele><time>2026-04-24T12:17:06Z</time></trkpt><trkpt lat="38.02827208273989" lon="15.727975856607008"><ele>799.6666666666666</ele><time>2026-04-24T12:17:07Z</time></trkpt><trkpt lat="38.028229299006625" lon="15.728047661076857"><ele>801.3333333333333</ele><time>2026-04-24T12:17:08Z</time></trkpt><trkpt lat="38.028182803988265" lon="15.728107823922604"><ele>803.0</ele><time>2026-04-24T12:17:09Z</time></trkpt><trkpt lat="38.028094607470784" lon="15.72812504160059"><ele>804.6666666666666</ele><time>2026-04-24T12:17:10Z</time></trkpt><trkpt lat="38.02800371829141" lon="15.72816100264266"><ele>806.3333333333333</ele><time>2026-04-24T12:17:11Z</time></trkpt><trkpt lat="38.027900082975165" lon="15.72822043384083"><ele>808.0</ele><time>2026-04-24T12:17:12Z</time></trkpt><trkpt lat="38.02779246649564" lon="15.72827809945847"><ele>808.0</ele><time>2026-04-24T12:17:13Z</time></trkpt><trkpt lat="38.027691753718926" lon="15.72834820867047"><ele>808.0</ele><time>2026-04-24T12:17:14Z</time></trkpt><trkpt lat="38.02760982426854" lon="15.72843237929006"><ele>808.0</ele><time>2026-04-24T12:17:15Z</time></trkpt><trkpt lat="38.0275664284208" lon="15.72852473350935"><ele>808.0</ele><time>2026-04-24T12:17:16Z</time></trkpt><trkpt lat="38.02757853291704" lon="15.728636732715671"><ele>808.0</ele><time>2026-04-24T12:17:17Z</time></trkpt><trkpt lat="38.02757273304238" lon="15.728738281790283"><ele>808.4</ele><time>2026-04-24T12:17:18Z</time></trkpt><trkpt lat="38.02760298840006" lon="15.728855539242252"><ele>808.8</ele><time>2026-04-24T12:17:20Z</time></trkpt><trkpt lat="38.02763309457374" lon="15.728927188646978"><ele>809.2</ele><time>2026-04-24T12:17:22Z</time></trkpt><trkpt lat="38.027679884698614" lon="15.729015512792332"><ele>809.6</ele><time>2026-04-24T12:18:20.999Z</time></trkpt><trkpt lat="38.02775762756927" lon="15.72911489849768"><ele>810.0</ele><time>2026-04-24T12:18:22.999Z</time></trkpt><trkpt lat="38.02784762053567" lon="15.729234031468886"><ele>809.9999999999999</ele><time>2026-04-24T12:18:24.999Z</time></trkpt><trkpt lat="38.02789512081174" lon="15.729297822552287"><ele>810.0</ele><time>2026-04-24T12:18:25.999Z</time></trkpt><trkpt lat="38.027946160975894" lon="15.729359224396074"><ele>810.0</ele><time>2026-04-24T12:18:26.999Z</time></trkpt><trkpt lat="38.02800457235982" lon="15.729408095780743"><ele>810.0</ele><time>2026-04-24T12:18:27.999Z</time></trkpt><trkpt lat="38.028070328111326" lon="15.729434516069954"><ele>810.0</ele><time>2026-04-24T12:18:28.999Z</time></trkpt><trkpt lat="38.02813634145943" lon="15.729448684443833"><ele>809.9999999999999</ele><time>2026-04-24T12:18:29.999Z</time></trkpt><trkpt lat="38.028211991822566" lon="15.729500596099035"><ele>810.0</ele><time>2026-04-24T12:18:31.999Z</time></trkpt><trkpt lat="38.02828166144117" lon="15.729520179383021"><ele>809.8333333333334</ele><time>2026-04-24T12:18:51Z</time></trkpt><trkpt lat="38.02833339767782" lon="15.729571711216602"><ele>809.6666666666667</ele><time>2026-04-24T12:18:52Z</time></trkpt><trkpt lat="38.028381370560695" lon="15.72965742227309"><ele>809.5</ele><time>2026-04-24T12:18:53Z</time></trkpt><trkpt lat="38.02842032885433" lon="15.729758185053802"><ele>809.3333333333334</ele><time>2026-04-24T12:18:54Z</time></trkpt><trkpt lat="38.02844679851933" lon="15.729855072356738"><ele>809.1666666666667</ele><time>2026-04-24T12:18:55Z</time></trkpt><trkpt lat="38.02846141870893" lon="15.72994850554284"><ele>809.0</ele><time>2026-04-24T12:18:56Z</time></trkpt><trkpt lat="38.02849521701314" lon="15.73010046597605"><ele>809.0</ele><time>2026-04-24T12:18:58Z</time></trkpt><trkpt lat="38.02848889665368" lon="15.730180149918645"><ele>809.0</ele><time>2026-04-24T12:18:59Z</time></trkpt><trkpt lat="38.02849394835667" lon="15.730259998785437"><ele>809.0</ele><time>2026-04-24T12:19:00Z</time></trkpt><trkpt lat="38.028481504112" lon="15.730340720296523"><ele>809.0</ele><time>2026-04-24T12:19:01Z</time></trkpt><trkpt lat="38.0284534489062" lon="15.730421043852157"><ele>809.0</ele><time>2026-04-24T12:19:02Z</time></trkpt><trkpt lat="38.02841154546435" lon="15.730503034448397"><ele>809.0</ele><time>2026-04-24T12:19:03Z</time></trkpt><trkpt lat="38.02839447155705" lon="15.730589407783519"><ele>809.0</ele><time>2026-04-24T12:19:04Z</time></trkpt><trkpt lat="38.02840833657235" lon="15.730688778608023"><ele>808.1666666666667</ele><time>2026-04-24T12:19:05Z</time></trkpt><trkpt lat="38.028426931171516" lon="15.73079310906182"><ele>807.3333333333334</ele><time>2026-04-24T12:19:06Z</time></trkpt><trkpt lat="38.02843663028457" lon="15.730892387133526"><ele>806.5</ele><time>2026-04-24T12:19:07Z</time></trkpt><trkpt lat="38.028447842568205" lon="15.73099305853195"><ele>805.6666666666667</ele><time>2026-04-24T12:19:08Z</time></trkpt><trkpt lat="38.02846653833063" lon="15.73109477537024"><ele>804.8333333333334</ele><time>2026-04-24T12:19:09Z</time></trkpt><trkpt lat="38.02852173110696" lon="15.7311678726867"><ele>804.0</ele><time>2026-04-24T12:19:10Z</time></trkpt><trkpt lat="38.02856902257431" lon="15.731240409574106"><ele>802.8000000000001</ele><time>2026-04-24T12:19:11Z</time></trkpt><trkpt lat="38.028645085802296" lon="15.731295896645724"><ele>801.6</ele><time>2026-04-24T12:19:12Z</time></trkpt><trkpt lat="38.028710862019146" lon="15.73137123306056"><ele>800.4</ele><time>2026-04-24T12:19:13Z</time></trkpt><trkpt lat="38.02875528562695" lon="15.731494132587988"><ele>799.2</ele><time>2026-04-24T12:19:14Z</time></trkpt><trkpt lat="38.02881549160068" lon="15.731621979299495"><ele>798.0</ele><time>2026-04-24T12:19:15Z</time></trkpt><trkpt lat="38.028859363707355" lon="15.731741838906974"><ele>798.0</ele><time>2026-04-24T12:19:16Z</time></trkpt><trkpt lat="38.02886228754579" lon="15.731847125717316"><ele>798.0</ele><time>2026-04-24T12:19:17Z</time></trkpt><trkpt lat="38.028852715488405" lon="15.731931921520577"><ele>798.0</ele><time>2026-04-24T12:19:18Z</time></trkpt><trkpt lat="38.02882757101413" lon="15.732029157410064"><ele>798.0</ele><time>2026-04-24T12:19:19Z</time></trkpt><trkpt lat="38.02879330281955" lon="15.732145598111224"><ele>798.0</ele><time>2026-04-24T12:19:20Z</time></trkpt><trkpt lat="38.02875922887728" lon="15.73226811032655"><ele>798.0</ele><time>2026-04-24T12:19:21Z</time></trkpt><trkpt lat="38.02871615858252" lon="15.732390759517022"><ele>799.0</ele><time>2026-04-24T12:19:22Z</time></trkpt><trkpt lat="38.0286536065929" lon="15.732515406866023"><ele>800.0</ele><time>2026-04-24T12:19:23Z</time></trkpt><trkpt lat="38.02856834768537" lon="15.732657033253385"><ele>801.0</ele><time>2026-04-24T12:19:24Z</time></trkpt><trkpt lat="38.02849648987334" lon="15.732773999220399"><ele>802.0</ele><time>2026-04-24T12:19:25Z</time></trkpt><trkpt lat="38.028448701665035" lon="15.73286338014233"><ele>802.4000000000001</ele><time>2026-04-24T12:19:26Z</time></trkpt><trkpt lat="38.028374258506865" lon="15.732920979294212"><ele>802.8000000000001</ele><time>2026-04-24T12:19:28Z</time></trkpt><trkpt lat="38.02830312354277" lon="15.73298555230128"><ele>803.2</ele><time>2026-04-24T12:19:31Z</time></trkpt><trkpt lat="38.02823204436428" lon="15.733021184049342"><ele>803.6</ele><time>2026-04-24T12:19:32Z</time></trkpt><trkpt lat="38.028145087360976" lon="15.733065570213668"><ele>804.0</ele><time>2026-04-24T12:19:33Z</time></trkpt><trkpt lat="38.02804745001175" lon="15.733128551773484"><ele>801.75</ele><time>2026-04-24T12:19:34Z</time></trkpt><trkpt lat="38.02794929500051" lon="15.73320516801047"><ele>799.5</ele><time>2026-04-24T12:19:35Z</time></trkpt><trkpt lat="38.02785283148375" lon="15.733292290964082"><ele>797.25</ele><time>2026-04-24T12:19:36Z</time></trkpt><trkpt lat="38.02775821362142" lon="15.73338980689736"><ele>795.0</ele><time>2026-04-24T12:19:37Z</time></trkpt><trkpt lat="38.027667834126454" lon="15.73349486983567"><ele>794.25</ele><time>2026-04-24T12:19:38Z</time></trkpt><trkpt lat="38.02758274314655" lon="15.733585066761535"><ele>793.5</ele><time>2026-04-24T12:19:39Z</time></trkpt><trkpt lat="38.02749132858355" lon="15.733663289435304"><ele>792.75</ele><time>2026-04-24T12:19:40Z</time></trkpt><trkpt lat="38.02738771659751" lon="15.733725163512721"><ele>792.0</ele><time>2026-04-24T12:19:41Z</time></trkpt><trkpt lat="38.02726016828822" lon="15.733788063184933"><ele>789.75</ele><time>2026-04-24T12:19:42Z</time></trkpt><trkpt lat="38.027121895696794" lon="15.733867048429053"><ele>787.5</ele><time>2026-04-24T12:19:43Z</time></trkpt><trkpt lat="38.026994979764126" lon="15.733949436429048"><ele>785.25</ele><time>2026-04-24T12:19:44Z</time></trkpt><trkpt lat="38.02690040294555" lon="15.734054500841033"><ele>783.0</ele><time>2026-04-24T12:19:45Z</time></trkpt><trkpt lat="38.026802637610864" lon="15.734130516694803"><ele>783.0</ele><time>2026-04-24T12:19:46Z</time></trkpt><trkpt lat="38.02672427527834" lon="15.734233471107336"><ele>783.0</ele><time>2026-04-24T12:19:47Z</time></trkpt><trkpt lat="38.026651283748905" lon="15.734323471050068"><ele>783.0</ele><time>2026-04-24T12:19:48Z</time></trkpt><trkpt lat="38.026567909852055" lon="15.73440285987458"><ele>783.0</ele><time>2026-04-24T12:19:49Z</time></trkpt><trkpt lat="38.026485293539366" lon="15.73448082493168"><ele>783.0</ele><time>2026-04-24T12:19:50Z</time></trkpt><trkpt lat="38.026380551080344" lon="15.734560789292834"><ele>785.8</ele><time>2026-04-24T12:19:51Z</time></trkpt><trkpt lat="38.026303252899886" lon="15.73463581335307"><ele>788.5999999999999</ele><time>2026-04-24T12:19:52Z</time></trkpt><trkpt lat="38.026244921256634" lon="15.734699691451732"><ele>791.4000000000001</ele><time>2026-04-24T12:19:53Z</time></trkpt><trkpt lat="38.02616244692934" lon="15.73472206753049"><ele>794.2</ele><time>2026-04-24T12:19:54Z</time></trkpt><trkpt lat="38.02607059846465" lon="15.734720114885262"><ele>797.0</ele><time>2026-04-24T12:19:55Z</time></trkpt><trkpt lat="38.02597293812097" lon="15.734675632301183"><ele>797.0</ele><time>2026-04-24T12:19:56Z</time></trkpt><trkpt lat="38.02587384984753" lon="15.734675632307237"><ele>797.0</ele><time>2026-04-24T12:19:57Z</time></trkpt><trkpt lat="38.0257876177422" lon="15.734723965936267"><ele>797.0</ele><time>2026-04-24T12:19:57.999Z</time></trkpt><trkpt lat="38.02575968108826" lon="15.734828045361215"><ele>797.0</ele><time>2026-04-24T12:19:58.999Z</time></trkpt><trkpt lat="38.02570273101725" lon="15.734907373537357"><ele>797.0</ele><time>2026-04-24T12:19:59.999Z</time></trkpt><trkpt lat="38.02565203615278" lon="15.735017432590691"><ele>797.25</ele><time>2026-04-24T12:20:00.999Z</time></trkpt><trkpt lat="38.02558365847626" lon="15.735128416582832"><ele>797.5</ele><time>2026-04-24T12:20:01.999Z</time></trkpt><trkpt lat="38.02548245890193" lon="15.735213702600904"><ele>797.75</ele><time>2026-04-24T12:20:02.999Z</time></trkpt><trkpt lat="38.02535912401682" lon="15.735284901139918"><ele>798.0</ele><time>2026-04-24T12:20:03.999Z</time></trkpt><trkpt lat="38.02524629018604" lon="15.735342922979203"><ele>798.2</ele><time>2026-04-24T12:20:04.999Z</time></trkpt><trkpt lat="38.02515312118358" lon="15.735399169526476"><ele>798.4</ele><time>2026-04-24T12:20:05.999Z</time></trkpt><trkpt lat="38.025068697680766" lon="15.73547523817492"><ele>798.6</ele><time>2026-04-24T12:20:06.999Z</time></trkpt><trkpt lat="38.024993019605176" lon="15.735582405670856"><ele>798.8000000000001</ele><time>2026-04-24T12:20:07.999Z</time></trkpt><trkpt lat="38.02491576004809" lon="15.735680584039082"><ele>799.0</ele><time>2026-04-24T12:20:08.999Z</time></trkpt><trkpt lat="38.02485118403448" lon="15.735771537016246"><ele>799.0</ele><time>2026-04-24T12:20:09.999Z</time></trkpt><trkpt lat="38.024800487712454" lon="15.73586638278532"><ele>799.0</ele><time>2026-04-24T12:20:10.999Z</time></trkpt><trkpt lat="38.02476259621083" lon="15.735964413694285"><ele>799.0</ele><time>2026-04-24T12:20:11.999Z</time></trkpt><trkpt lat="38.024729479970205" lon="15.736064416914063"><ele>799.0</ele><time>2026-04-24T12:20:12.999Z</time></trkpt><trkpt lat="38.02471971679028" lon="15.736188346384269"><ele>799.0</ele><time>2026-04-24T12:20:13.999Z</time></trkpt><trkpt lat="38.02470384554591" lon="15.736302025331886"><ele>800.3333333333333</ele><time>2026-04-24T12:20:14.999Z</time></trkpt><trkpt lat="38.02468963420588" lon="15.736400730535516"><ele>801.6666666666666</ele><time>2026-04-24T12:20:15.999Z</time></trkpt><trkpt lat="38.02467154069761" lon="15.73649082495565"><ele>803.0</ele><time>2026-04-24T12:20:16.999Z</time></trkpt><trkpt lat="38.024632982420556" lon="15.736584041742466"><ele>804.3333333333333</ele><time>2026-04-24T12:20:17.999Z</time></trkpt><trkpt lat="38.02455920993508" lon="15.736645331954945"><ele>805.6666666666666</ele><time>2026-04-24T12:20:18.999Z</time></trkpt><trkpt lat="38.024465086313995" lon="15.736679197358512"><ele>807.0</ele><time>2026-04-24T12:20:19.999Z</time></trkpt><trkpt lat="38.02440375102283" lon="15.736752263846254"><ele>807.0</ele><time>2026-04-24T12:20:20.999Z</time></trkpt><trkpt lat="38.02431532044882" lon="15.736819265880628"><ele>807.0</ele><time>2026-04-24T12:20:21.999Z</time></trkpt><trkpt lat="38.024223774627046" lon="15.736889441783335"><ele>807.0</ele><time>2026-04-24T12:20:22.999Z</time></trkpt><trkpt lat="38.02413558645567" lon="15.73697080378902"><ele>807.0</ele><time>2026-04-24T12:20:23.999Z</time></trkpt><trkpt lat="38.024042953917885" lon="15.737035939823668"><ele>807.0</ele><time>2026-04-24T12:20:24.999Z</time></trkpt><trkpt lat="38.02396465997185" lon="15.737090294077975"><ele>809.1666666666666</ele><time>2026-04-24T12:20:25.999Z</time></trkpt><trkpt lat="38.02393558303037" lon="15.737176708232818"><ele>811.3333333333333</ele><time>2026-04-24T12:20:26.999Z</time></trkpt><trkpt lat="38.02388084451296" lon="15.737236361783756"><ele>813.5</ele><time>2026-04-24T12:20:27.999Z</time></trkpt><trkpt lat="38.02383062572534" lon="15.737310708544326"><ele>815.6666666666666</ele><time>2026-04-24T12:20:28.999Z</time></trkpt><trkpt lat="38.02372291018429" lon="15.737351125082132"><ele>817.8333333333333</ele><time>2026-04-24T12:20:30.999Z</time></trkpt><trkpt lat="38.023650370819745" lon="15.73733139276464"><ele>820.0</ele><time>2026-04-24T12:20:31.999Z</time></trkpt><trkpt lat="38.02356079271022" lon="15.737311585954254"><ele>820.0</ele><time>2026-04-24T12:20:32.999Z</time></trkpt><trkpt lat="38.02347288600581" lon="15.73729169317914"><ele>820.0</ele><time>2026-04-24T12:20:33.999Z</time></trkpt><trkpt lat="38.023375837863924" lon="15.73725022673796"><ele>820.0</ele><time>2026-04-24T12:20:34.999Z</time></trkpt><trkpt lat="38.023259758429035" lon="15.737182306007059"><ele>820.0</ele><time>2026-04-24T12:20:35.999Z</time></trkpt><trkpt lat="38.0231516917236" lon="15.737121544174583"><ele>820.0</ele><time>2026-04-24T12:20:36.999Z</time></trkpt><trkpt lat="38.02306219280206" lon="15.737082146718464"><ele>818.6666666666666</ele><time>2026-04-24T12:20:37.999Z</time></trkpt><trkpt lat="38.022977015472854" lon="15.737115840524948"><ele>817.3333333333333</ele><time>2026-04-24T12:20:38.999Z</time></trkpt><trkpt lat="38.02290275647609" lon="15.737090266092622"><ele>816.0</ele><time>2026-04-24T12:20:39.999Z</time></trkpt><trkpt lat="38.02283771048234" lon="15.737070346280708"><ele>814.6666666666667</ele><time>2026-04-24T12:20:40.999Z</time></trkpt><trkpt lat="38.02277479733899" lon="15.737061913113664"><ele>813.3333333333334</ele><time>2026-04-24T12:20:41.999Z</time></trkpt><trkpt lat="38.022669766037254" lon="15.737028834135192"><ele>812.0</ele><time>2026-04-24T12:20:43.999Z</time></trkpt><trkpt lat="38.02258510519113" lon="15.736927209207948"><ele>811.0000000000001</ele><time>2026-04-24T12:20:45.999Z</time></trkpt><trkpt lat="38.02252239622632" lon="15.736861189504117"><ele>810.0</ele><time>2026-04-24T12:20:46.999Z</time></trkpt><trkpt lat="38.02245447649497" lon="15.736807204887867"><ele>809.0</ele><time>2026-04-24T12:20:47.999Z</time></trkpt><trkpt lat="38.02239148352793" lon="15.736756570131135"><ele>808.0</ele><time>2026-04-24T12:20:48.999Z</time></trkpt><trkpt lat="38.02232732715321" lon="15.736710782083172"><ele>807.0000000000001</ele><time>2026-04-24T12:20:49.999Z</time></trkpt><trkpt lat="38.02223889206312" lon="15.736693660229026"><ele>806.0</ele><time>2026-04-24T12:20:51Z</time></trkpt><trkpt lat="38.02212734791611" lon="15.736688699563093"><ele>805.1999999999999</ele><time>2026-04-24T12:20:52Z</time></trkpt><trkpt lat="38.02201638704353" lon="15.736677592692564"><ele>804.4</ele><time>2026-04-24T12:20:53Z</time></trkpt><trkpt lat="38.021923657586875" lon="15.736667385789548"><ele>803.6</ele><time>2026-04-24T12:20:54Z</time></trkpt><trkpt lat="38.02184691854377" lon="15.736674657911468"><ele>802.8</ele><time>2026-04-24T12:20:55Z</time></trkpt><trkpt lat="38.02178356454431" lon="15.73668179570542"><ele>802.0</ele><time>2026-04-24T12:20:56Z</time></trkpt><trkpt lat="38.02166845883" lon="15.736744077528856"><ele>801.4000000000001</ele><time>2026-04-24T12:20:58Z</time></trkpt><trkpt lat="38.02159753021589" lon="15.736808744468133"><ele>800.8000000000001</ele><time>2026-04-24T12:20:59Z</time></trkpt><trkpt lat="38.021512329751395" lon="15.736889590423486"><ele>800.2</ele><time>2026-04-24T12:21:00Z</time></trkpt><trkpt lat="38.02143638440953" lon="15.736954305404021"><ele>799.6</ele><time>2026-04-24T12:21:01Z</time></trkpt><trkpt lat="38.02136144827775" lon="15.737002225403595"><ele>799.0</ele><time>2026-04-24T12:21:02Z</time></trkpt><trkpt lat="38.02126952754201" lon="15.73712593567881"><ele>798.3333333333333</ele><time>2026-04-24T12:21:04Z</time></trkpt><trkpt lat="38.021253867599455" lon="15.737215879016821"><ele>797.6666666666666</ele><time>2026-04-24T12:21:05Z</time></trkpt><trkpt lat="38.02123903870684" lon="15.737320849834932"><ele>797.0</ele><time>2026-04-24T12:21:06Z</time></trkpt><trkpt lat="38.02119802123506" lon="15.737464595886072"><ele>796.3333333333333</ele><time>2026-04-24T12:21:08Z</time></trkpt><trkpt lat="38.021135514701704" lon="15.7375094828319"><ele>795.6666666666666</ele><time>2026-04-24T12:21:09Z</time></trkpt><trkpt lat="38.02106074705486" lon="15.737542421520857"><ele>795.0</ele><time>2026-04-24T12:21:10Z</time></trkpt><trkpt lat="38.02098034282118" lon="15.737543906150528"><ele>795.0</ele><time>2026-04-24T12:21:11Z</time></trkpt><trkpt lat="38.02088867435496" lon="15.737504965009014"><ele>795.0</ele><time>2026-04-24T12:21:12Z</time></trkpt><trkpt lat="38.02079084753902" lon="15.737462232146088"><ele>795.0</ele><time>2026-04-24T12:21:13Z</time></trkpt><trkpt lat="38.020709674884934" lon="15.737427969359242"><ele>795.0</ele><time>2026-04-24T12:21:14Z</time></trkpt><trkpt lat="38.02064172747001" lon="15.737405698478609"><ele>795.0</ele><time>2026-04-24T12:21:15Z</time></trkpt><trkpt lat="38.020558133087455" lon="15.737398087397802"><ele>795.0</ele><time>2026-04-24T12:21:16Z</time></trkpt><trkpt lat="38.02047149285035" lon="15.737395267349102"><ele>796.0</ele><time>2026-04-24T12:21:17Z</time></trkpt><trkpt lat="38.02040681078067" lon="15.73741980644598"><ele>797.0</ele><time>2026-04-24T12:21:18Z</time></trkpt><trkpt lat="38.02035551755811" lon="15.737484916327178"><ele>798.0</ele><time>2026-04-24T12:21:19Z</time></trkpt><trkpt lat="38.02030807935964" lon="15.737585245470884"><ele>799.0</ele><time>2026-04-24T12:21:20Z</time></trkpt><trkpt lat="38.02025676141633" lon="15.737697603654999"><ele>800.0</ele><time>2026-04-24T12:21:21Z</time></trkpt><trkpt lat="38.02019719098801" lon="15.73781428544729"><ele>801.0</ele><time>2026-04-24T12:21:22Z</time></trkpt><trkpt lat="38.02012258017807" lon="15.737931052676986"><ele>801.0</ele><time>2026-04-24T12:21:23Z</time></trkpt><trkpt lat="38.02003994680493" lon="15.73804233766834"><ele>801.0</ele><time>2026-04-24T12:21:24Z</time></trkpt><trkpt lat="38.01995504684794" lon="15.738163738008568"><ele>801.0</ele><time>2026-04-24T12:21:25Z</time></trkpt><trkpt lat="38.01986968709961" lon="15.738285175825233"><ele>801.0</ele><time>2026-04-24T12:21:26Z</time></trkpt><trkpt lat="38.01977809595487" lon="15.738391915589641"><ele>802.75</ele><time>2026-04-24T12:21:27Z</time></trkpt><trkpt lat="38.01965880634191" lon="15.738473366156358"><ele>804.5</ele><time>2026-04-24T12:21:28Z</time></trkpt><trkpt lat="38.01953882978609" lon="15.738536025657169"><ele>806.25</ele><time>2026-04-24T12:21:29Z</time></trkpt><trkpt lat="38.019444915510704" lon="15.738592345314723"><ele>808.0</ele><time>2026-04-24T12:21:30Z</time></trkpt><trkpt lat="38.01937832163011" lon="15.738657121829364"><ele>807.9999999999999</ele><time>2026-04-24T12:21:31Z</time></trkpt><trkpt lat="38.01932053373992" lon="15.738759515573037"><ele>808.0</ele><time>2026-04-24T12:21:32Z</time></trkpt><trkpt lat="38.01926206834867" lon="15.738875554032253"><ele>808.0</ele><time>2026-04-24T12:21:33Z</time></trkpt><trkpt lat="38.01919341823804" lon="15.738933966837656"><ele>808.0</ele><time>2026-04-24T12:21:34Z</time></trkpt><trkpt lat="38.0191414856697" lon="15.739001711080048"><ele>807.9999999999999</ele><time>2026-04-24T12:21:36Z</time></trkpt><trkpt lat="38.01907128072872" lon="15.73898577966124"><ele>808.0</ele><time>2026-04-24T12:22:31.999Z</time></trkpt><trkpt lat="38.01898350164503" lon="15.738930152452038"><ele>811.5999999999999</ele><time>2026-04-24T12:22:42.999Z</time></trkpt><trkpt lat="38.018883844351926" lon="15.738848389731473"><ele>815.1999999999999</ele><time>2026-04-24T12:22:44.999Z</time></trkpt><trkpt lat="38.01882638976872" lon="15.73881252446184"><ele>818.8</ele><time>2026-04-24T12:22:45.999Z</time></trkpt><trkpt lat="38.01872236817176" lon="15.738751035023173"><ele>822.4</ele><time>2026-04-24T12:22:47.999Z</time></trkpt><trkpt lat="38.01865699341632" lon="15.738719709829745"><ele>826.0</ele><time>2026-04-24T12:22:48.999Z</time></trkpt><trkpt lat="38.018574123521226" lon="15.738693154629964"><ele>826.0</ele><time>2026-04-24T12:22:49.999Z</time></trkpt><trkpt lat="38.018475855487566" lon="15.738674056416997"><ele>826.0</ele><time>2026-04-24T12:22:50.999Z</time></trkpt><trkpt lat="38.01837737828801" lon="15.738654019159243"><ele>826.0</ele><time>2026-04-24T12:22:51.999Z</time></trkpt><trkpt lat="38.01828290263512" lon="15.738622235731164"><ele>826.0</ele><time>2026-04-24T12:22:52.999Z</time></trkpt><trkpt lat="38.018201322684575" lon="15.738596740017087"><ele>826.0</ele><time>2026-04-24T12:22:53.999Z</time></trkpt><trkpt lat="38.018104311715845" lon="15.73854494556697"><ele>825.4</ele><time>2026-04-24T12:22:55.999Z</time></trkpt><trkpt lat="38.0180957718312" lon="15.738433087209225"><ele>824.8</ele><time>2026-04-24T12:22:58Z</time></trkpt><trkpt lat="38.01818410680608" lon="15.738322246576608"><ele>824.1999999999999</ele><time>2026-04-24T12:23:00Z</time></trkpt><trkpt lat="38.01824751881433" lon="15.738266809721871"><ele>823.5999999999999</ele><time>2026-04-24T12:23:01Z</time></trkpt><trkpt lat="38.01831084982618" lon="15.738176026092159"><ele>823.0</ele><time>2026-04-24T12:23:02Z</time></trkpt><trkpt lat="38.01834860386718" lon="15.738085053587584"><ele>823.0</ele><time>2026-04-24T12:23:03Z</time></trkpt><trkpt lat="38.01836457033914" lon="15.73797109282465"><ele>823.0</ele><time>2026-04-24T12:23:04Z</time></trkpt><trkpt lat="38.01833683171583" lon="15.737823595072438"><ele>823.0</ele><time>2026-04-24T12:23:05Z</time></trkpt><trkpt lat="38.0183178525613" lon="15.737665781041152"><ele>823.0</ele><time>2026-04-24T12:23:06Z</time></trkpt><trkpt lat="38.01828046784021" lon="15.737512845115312"><ele>829.0</ele><time>2026-04-24T12:23:07Z</time></trkpt><trkpt lat="38.01822603292667" lon="15.73736967609864"><ele>835.0</ele><time>2026-04-24T12:23:08Z</time></trkpt><trkpt lat="38.0181506280675" lon="15.737247877255296"><ele>841.0</ele><time>2026-04-24T12:23:09Z</time></trkpt><trkpt lat="38.01805593036491" lon="15.737132028616143"><ele>847.0</ele><time>2026-04-24T12:23:10Z</time></trkpt><trkpt lat="38.01798148939034" lon="15.737018471249156"><ele>847.0</ele><time>2026-04-24T12:23:11Z</time></trkpt><trkpt lat="38.017918848986035" lon="15.736915128866805"><ele>847.0</ele><time>2026-04-24T12:23:12Z</time></trkpt><trkpt lat="38.017850336510925" lon="15.736809272230959"><ele>847.0</ele><time>2026-04-24T12:23:13Z</time></trkpt><trkpt lat="38.017790583519975" lon="15.736678285547265"><ele>847.0</ele><time>2026-04-24T12:23:14Z</time></trkpt><trkpt lat="38.01772230031359" lon="15.736536788392703"><ele>845.0</ele><time>2026-04-24T12:23:15Z</time></trkpt><trkpt lat="38.01765503355398" lon="15.736391432079742"><ele>843.0</ele><time>2026-04-24T12:23:16Z</time></trkpt><trkpt lat="38.01759113736646" lon="15.736251720454012"><ele>841.0</ele><time>2026-04-24T12:23:17Z</time></trkpt><trkpt lat="38.017558515829386" lon="15.736107717489093"><ele>839.0</ele><time>2026-04-24T12:23:18Z</time></trkpt><trkpt lat="38.01753473592893" lon="15.735966759909072"><ele>838.0000000000001</ele><time>2026-04-24T12:23:19Z</time></trkpt><trkpt lat="38.01752218381302" lon="15.735828031647685"><ele>837.0</ele><time>2026-04-24T12:23:20Z</time></trkpt><trkpt lat="38.0175022092995" lon="15.735701623375014"><ele>836.0</ele><time>2026-04-24T12:23:21Z</time></trkpt><trkpt lat="38.017475351297556" lon="15.735593948620922"><ele>835.0</ele><time>2026-04-24T12:23:22Z</time></trkpt><trkpt lat="38.0174487089077" lon="15.735517815126205"><ele>834.0000000000001</ele><time>2026-04-24T12:23:23Z</time></trkpt><trkpt lat="38.01737501919044" lon="15.735510242292078"><ele>833.0</ele><time>2026-04-24T12:23:26Z</time></trkpt><trkpt lat="38.01735625209087" lon="15.735593567074257"><ele>833.0000000000001</ele><time>2026-04-24T12:23:28Z</time></trkpt><trkpt lat="38.01735900342061" lon="15.73568483296534"><ele>833.0</ele><time>2026-04-24T12:24:45.999Z</time></trkpt><trkpt lat="38.017363435029665" lon="15.735779948697296"><ele>833.0</ele><time>2026-04-24T12:24:46.999Z</time></trkpt><trkpt lat="38.01737035752861" lon="15.735888213285637"><ele>833.0</ele><time>2026-04-24T12:24:47.999Z</time></trkpt><trkpt lat="38.01736905122823" lon="15.735992226732796"><ele>833.0000000000001</ele><time>2026-04-24T12:24:48.999Z</time></trkpt><trkpt lat="38.017374533166496" lon="15.736089985033958"><ele>833.0</ele><time>2026-04-24T12:24:49.999Z</time></trkpt><trkpt lat="38.01738252897048" lon="15.736197251056286"><ele>834.6666666666667</ele><time>2026-04-24T12:24:50.999Z</time></trkpt><trkpt lat="38.01738428655304" lon="15.736301865763052"><ele>836.3333333333334</ele><time>2026-04-24T12:24:51.999Z</time></trkpt><trkpt lat="38.01738089913554" lon="15.736409583199826"><ele>838.0</ele><time>2026-04-24T12:24:52.999Z</time></trkpt><trkpt lat="38.01737846618052" lon="15.736519769601458"><ele>839.6666666666667</ele><time>2026-04-24T12:24:53.999Z</time></trkpt><trkpt lat="38.017375423252936" lon="15.736636240315892"><ele>841.3333333333334</ele><time>2026-04-24T12:24:54.999Z</time></trkpt><trkpt lat="38.01737134071744" lon="15.736756720597185"><ele>843.0</ele><time>2026-04-24T12:24:55.999Z</time></trkpt><trkpt lat="38.01736909375159" lon="15.736878261822737"><ele>844.2</ele><time>2026-04-24T12:24:56.999Z</time></trkpt><trkpt lat="38.01736421830052" lon="15.736999695959351"><ele>845.4</ele><time>2026-04-24T12:24:57.999Z</time></trkpt><trkpt lat="38.01735255335522" lon="15.737121184978243"><ele>846.6</ele><time>2026-04-24T12:24:58.999Z</time></trkpt><trkpt lat="38.01733353223671" lon="15.737241758630445"><ele>847.8000000000001</ele><time>2026-04-24T12:24:59.999Z</time></trkpt><trkpt lat="38.017312933501614" lon="15.737359315800251"><ele>849.0</ele><time>2026-04-24T12:25:00.999Z</time></trkpt><trkpt lat="38.017292282072475" lon="15.737472059024821"><ele>849.0</ele><time>2026-04-24T12:25:01.999Z</time></trkpt><trkpt lat="38.017270826787026" lon="15.737588719715841"><ele>849.0</ele><time>2026-04-24T12:25:03Z</time></trkpt><trkpt lat="38.01724601027399" lon="15.737706597680084"><ele>849.0</ele><time>2026-04-24T12:25:04Z</time></trkpt><trkpt lat="38.017217154012876" lon="15.737827637128351"><ele>849.0</ele><time>2026-04-24T12:25:05Z</time></trkpt><trkpt lat="38.017185788076155" lon="15.737965611373932"><ele>849.0</ele><time>2026-04-24T12:25:06Z</time></trkpt><trkpt lat="38.01713717095855" lon="15.738115605016864"><ele>850.3333333333333</ele><time>2026-04-24T12:25:07Z</time></trkpt><trkpt lat="38.017078422989954" lon="15.738267412117073"><ele>851.6666666666666</ele><time>2026-04-24T12:25:08Z</time></trkpt><trkpt lat="38.01699111166799" lon="15.738435030673497"><ele>853.0</ele><time>2026-04-24T12:25:09Z</time></trkpt><trkpt lat="38.016891388563295" lon="15.738639476073745"><ele>854.0</ele><time>2026-04-24T12:25:10Z</time></trkpt><trkpt lat="38.016808609377435" lon="15.738796912757833"><ele>855.0</ele><time>2026-04-24T12:25:11Z</time></trkpt><trkpt lat="38.016737928790164" lon="15.738970562717292"><ele>856.0</ele><time>2026-04-24T12:25:12Z</time></trkpt><trkpt lat="38.01668182771628" lon="15.739171288180577"><ele>854.6666666666666</ele><time>2026-04-24T12:25:13Z</time></trkpt><trkpt lat="38.01663709007027" lon="15.739404195209088"><ele>853.3333333333333</ele><time>2026-04-24T12:25:14Z</time></trkpt><trkpt lat="38.016592763612316" lon="15.739637927356167"><ele>852.0</ele><time>2026-04-24T12:25:15Z</time></trkpt><trkpt lat="38.0165440297733" lon="15.739890610194369"><ele>852.0</ele><time>2026-04-24T12:25:16Z</time></trkpt><trkpt lat="38.016486764306464" lon="15.740125909700941"><ele>852.0</ele><time>2026-04-24T12:25:17Z</time></trkpt><trkpt lat="38.01642962277702" lon="15.740325711323257"><ele>852.0</ele><time>2026-04-24T12:25:18Z</time></trkpt><trkpt lat="38.016392000368675" lon="15.740494551245545"><ele>852.75</ele><time>2026-04-24T12:25:19Z</time></trkpt><trkpt lat="38.0163838167766" lon="15.740644794363998"><ele>853.5</ele><time>2026-04-24T12:25:20Z</time></trkpt><trkpt lat="38.01639590407899" lon="15.740810977214425"><ele>854.25</ele><time>2026-04-24T12:25:21Z</time></trkpt><trkpt lat="38.0164121028643" lon="15.740956859964502"><ele>855.0</ele><time>2026-04-24T12:25:22Z</time></trkpt><trkpt lat="38.016405365740574" lon="15.741072198711114"><ele>857.75</ele><time>2026-04-24T12:25:23Z</time></trkpt><trkpt lat="38.0163564128221" lon="15.741177048526179"><ele>860.5</ele><time>2026-04-24T12:25:24Z</time></trkpt><trkpt lat="38.01625284680878" lon="15.741303976914603"><ele>863.25</ele><time>2026-04-24T12:25:25Z</time></trkpt><trkpt lat="38.01616118619425" lon="15.741430303383325"><ele>866.0</ele><time>2026-04-24T12:25:26Z</time></trkpt><trkpt lat="38.01608605341467" lon="15.741560689987041"><ele>866.0</ele><time>2026-04-24T12:25:27Z</time></trkpt><trkpt lat="38.01602172875134" lon="15.741672085621365"><ele>865.9999999999999</ele><time>2026-04-24T12:25:28Z</time></trkpt><trkpt lat="38.015961560339534" lon="15.741766566056963"><ele>865.9999999999999</ele><time>2026-04-24T12:25:29Z</time></trkpt><trkpt lat="38.015919475314504" lon="15.74185440462435"><ele>866.0</ele><time>2026-04-24T12:25:30Z</time></trkpt><trkpt lat="38.01586506646943" lon="15.74194882337535"><ele>866.0</ele><time>2026-04-24T12:25:32Z</time></trkpt><trkpt lat="38.01582058401338" lon="15.74202339866469"><ele>867.0</ele><time>2026-04-24T12:26:49Z</time></trkpt><trkpt lat="38.01575737090199" lon="15.742120397903992"><ele>867.9999999999999</ele><time>2026-04-24T12:26:51Z</time></trkpt><trkpt lat="38.015706484555174" lon="15.742191521872575"><ele>868.9999999999999</ele><time>2026-04-24T12:26:52Z</time></trkpt><trkpt lat="38.01564842910665" lon="15.742273066766172"><ele>870.0</ele><time>2026-04-24T12:26:53Z</time></trkpt><trkpt lat="38.01558202144659" lon="15.742369151402556"><ele>871.0</ele><time>2026-04-24T12:26:54Z</time></trkpt><trkpt lat="38.01553729667011" lon="15.74247770996066"><ele>871.0</ele><time>2026-04-24T12:26:55Z</time></trkpt><trkpt lat="38.01548909145102" lon="15.742581895845362"><ele>870.9999999999999</ele><time>2026-04-24T12:26:55.999Z</time></trkpt><trkpt lat="38.01542812752771" lon="15.742685964208338"><ele>870.9999999999999</ele><time>2026-04-24T12:26:56.999Z</time></trkpt><trkpt lat="38.015366519402384" lon="15.742794057441056"><ele>871.0</ele><time>2026-04-24T12:26:57.999Z</time></trkpt><trkpt lat="38.01529751856667" lon="15.74288723720876"><ele>871.0</ele><time>2026-04-24T12:26:58.999Z</time></trkpt><trkpt lat="38.01520851573078" lon="15.742972414375494"><ele>869.25</ele><time>2026-04-24T12:26:59.999Z</time></trkpt><trkpt lat="38.015101910458334" lon="15.743083098486778"><ele>867.5</ele><time>2026-04-24T12:27:00.999Z</time></trkpt><trkpt lat="38.01499717603888" lon="15.743217577594704"><ele>865.75</ele><time>2026-04-24T12:27:01.999Z</time></trkpt><trkpt lat="38.01486888850805" lon="15.743314941782996"><ele>864.0</ele><time>2026-04-24T12:27:02.999Z</time></trkpt><trkpt lat="38.01474920060254" lon="15.743449989079403"><ele>863.2</ele><time>2026-04-24T12:27:03.999Z</time></trkpt><trkpt lat="38.014648560778745" lon="15.74355333610789"><ele>862.4000000000001</ele><time>2026-04-24T12:27:04.999Z</time></trkpt><trkpt lat="38.014575793014856" lon="15.743640794537484"><ele>861.6</ele><time>2026-04-24T12:27:05.999Z</time></trkpt><trkpt lat="38.01451821678328" lon="15.74374529484787"><ele>860.8</ele><time>2026-04-24T12:27:06.999Z</time></trkpt><trkpt lat="38.014460599073644" lon="15.743875330198566"><ele>860.0</ele><time>2026-04-24T12:27:07.999Z</time></trkpt><trkpt lat="38.014405737732496" lon="15.744006759169375"><ele>860.0000000000001</ele><time>2026-04-24T12:27:09Z</time></trkpt><trkpt lat="38.01435556269785" lon="15.74411290297247"><ele>860.0</ele><time>2026-04-24T12:27:10Z</time></trkpt><trkpt lat="38.0143132111711" lon="15.744199407292797"><ele>860.0</ele><time>2026-04-24T12:27:11Z</time></trkpt><trkpt lat="38.014298831630974" lon="15.744277232861045"><ele>860.0</ele><time>2026-04-24T12:27:12Z</time></trkpt><trkpt lat="38.014344476421506" lon="15.74441235947082"><ele>860.0000000000001</ele><time>2026-04-24T12:27:14Z</time></trkpt><trkpt lat="38.01439450257054" lon="15.74450610423005"><ele>860.0</ele><time>2026-04-24T12:27:16Z</time></trkpt><trkpt lat="38.014435735302605" lon="15.74462244203063"><ele>859.8333333333334</ele><time>2026-04-24T12:27:18Z</time></trkpt><trkpt lat="38.01448293169714" lon="15.744703475406086"><ele>859.6666666666667</ele><time>2026-04-24T12:27:20Z</time></trkpt><trkpt lat="38.0145495203009" lon="15.744729482178998"><ele>859.5</ele><time>2026-04-24T12:27:22Z</time></trkpt><trkpt lat="38.01460979899339" lon="15.744767866651987"><ele>859.3333333333333</ele><time>2026-04-24T12:27:23Z</time></trkpt><trkpt lat="38.014673824801115" lon="15.744879582495988"><ele>859.1666666666666</ele><time>2026-04-24T12:27:25Z</time></trkpt><trkpt lat="38.01470329039978" lon="15.745011962612221"><ele>859.0</ele><time>2026-04-24T12:27:28Z</time></trkpt><trkpt lat="38.014768183823605" lon="15.74511394487433"><ele>858.9999999999999</ele><time>2026-04-24T12:27:30Z</time></trkpt><trkpt lat="38.01483201990525" lon="15.745145576678107"><ele>859.0</ele><time>2026-04-24T12:27:31Z</time></trkpt><trkpt lat="38.01490636163452" lon="15.745165801804646"><ele>859.0</ele><time>2026-04-24T12:27:32Z</time></trkpt><trkpt lat="38.015010018712054" lon="15.745217462692178"><ele>859.0</ele><time>2026-04-24T12:27:34Z</time></trkpt><trkpt lat="38.01501822657275" lon="15.745330057703427"><ele>858.9999999999999</ele><time>2026-04-24T12:27:36Z</time></trkpt><trkpt lat="38.01498041299948" lon="15.745399275543033"><ele>859.0</ele><time>2026-04-24T12:27:38Z</time></trkpt><trkpt lat="38.014890816942604" lon="15.745386935430117"><ele>857.6666666666666</ele><time>2026-04-24T12:27:40Z</time></trkpt><trkpt lat="38.014778395195776" lon="15.74535829166285"><ele>856.3333333333333</ele><time>2026-04-24T12:27:42Z</time></trkpt><trkpt lat="38.01468750105707" lon="15.7453470138196"><ele>855.0</ele><time>2026-04-24T12:27:43Z</time></trkpt><trkpt lat="38.01461366840506" lon="15.745344743956386"><ele>853.6666666666667</ele><time>2026-04-24T12:27:44Z</time></trkpt><trkpt lat="38.0145241839181" lon="15.74539803106869"><ele>852.3333333333334</ele><time>2026-04-24T12:27:46Z</time></trkpt><trkpt lat="38.0144945928651" lon="15.745471751680464"><ele>851.0</ele><time>2026-04-24T12:27:47Z</time></trkpt><trkpt lat="38.01446538357075" lon="15.745596947779749"><ele>851.0</ele><time>2026-04-24T12:27:48Z</time></trkpt><trkpt lat="38.01442985451547" lon="15.74572552482035"><ele>851.0</ele><time>2026-04-24T12:27:49Z</time></trkpt><trkpt lat="38.0144090693113" lon="15.745855161893871"><ele>851.0</ele><time>2026-04-24T12:27:50Z</time></trkpt><trkpt lat="38.014391045410505" lon="15.745999358275583"><ele>851.0</ele><time>2026-04-24T12:27:51Z</time></trkpt><trkpt lat="38.01438172104719" lon="15.746132959071813"><ele>851.0</ele><time>2026-04-24T12:27:52Z</time></trkpt><trkpt lat="38.014353006853334" lon="15.746258548282663"><ele>847.5999999999999</ele><time>2026-04-24T12:27:53Z</time></trkpt><trkpt lat="38.01434043797872" lon="15.746380409627612"><ele>844.2</ele><time>2026-04-24T12:27:54Z</time></trkpt><trkpt lat="38.01430219064716" lon="15.746497213734601"><ele>840.8</ele><time>2026-04-24T12:27:55Z</time></trkpt><trkpt lat="38.01426949300827" lon="15.746638977712596"><ele>837.4000000000001</ele><time>2026-04-24T12:27:56Z</time></trkpt><trkpt lat="38.014243216882356" lon="15.746765725831716"><ele>834.0</ele><time>2026-04-24T12:27:57Z</time></trkpt><trkpt lat="38.014206067244935" lon="15.746868083820049"><ele>831.1666666666666</ele><time>2026-04-24T12:27:58Z</time></trkpt><trkpt lat="38.01418379255254" lon="15.746965008824487"><ele>828.3333333333333</ele><time>2026-04-24T12:27:59Z</time></trkpt><trkpt lat="38.01416747700322" lon="15.747076951868628"><ele>825.5</ele><time>2026-04-24T12:28:00Z</time></trkpt><trkpt lat="38.01413075496374" lon="15.7471612005707"><ele>822.6666666666666</ele><time>2026-04-24T12:28:01Z</time></trkpt><trkpt lat="38.01409139995392" lon="15.747226017967982"><ele>819.8333333333333</ele><time>2026-04-24T12:28:02Z</time></trkpt><trkpt lat="38.01403486638989" lon="15.74727679631328"><ele>817.0</ele><time>2026-04-24T12:28:03Z</time></trkpt><trkpt lat="38.01394528683601" lon="15.747272347131107"><ele>815.1666666666666</ele><time>2026-04-24T12:28:04Z</time></trkpt><trkpt lat="38.0138593915453" lon="15.747285589404"><ele>813.3333333333333</ele><time>2026-04-24T12:28:05Z</time></trkpt><trkpt lat="38.01376554096777" lon="15.747285325287097"><ele>811.5</ele><time>2026-04-24T12:28:06Z</time></trkpt><trkpt lat="38.01367927912385" lon="15.747284574421125"><ele>809.6666666666667</ele><time>2026-04-24T12:28:07Z</time></trkpt><trkpt lat="38.013604983583896" lon="15.747278491638626"><ele>807.8333333333334</ele><time>2026-04-24T12:28:08Z</time></trkpt><trkpt lat="38.013525358901575" lon="15.747257996044485"><ele>806.0</ele><time>2026-04-24T12:28:09Z</time></trkpt><trkpt lat="38.013446559357256" lon="15.747227041890396"><ele>806.0000000000001</ele><time>2026-04-24T12:28:10Z</time></trkpt><trkpt lat="38.01338538118919" lon="15.747184995404053"><ele>806.0</ele><time>2026-04-24T12:28:11Z</time></trkpt><trkpt lat="38.013335737796915" lon="15.74712463209556"><ele>806.0</ele><time>2026-04-24T12:28:12Z</time></trkpt><trkpt lat="38.01328922523725" lon="15.74703087285789"><ele>806.0</ele><time>2026-04-24T12:28:13Z</time></trkpt><trkpt lat="38.0132307021346" lon="15.746929518859766"><ele>806.0000000000001</ele><time>2026-04-24T12:28:14Z</time></trkpt><trkpt lat="38.01317913637489" lon="15.74683935313399"><ele>806.0</ele><time>2026-04-24T12:28:15Z</time></trkpt><trkpt lat="38.013132682389255" lon="15.746775063415589"><ele>803.5000000000001</ele><time>2026-04-24T12:28:16Z</time></trkpt><trkpt lat="38.01304711436088" lon="15.746714059709092"><ele>801.0</ele><time>2026-04-24T12:28:18Z</time></trkpt><trkpt lat="38.012971810488764" lon="15.74671185085628"><ele>798.5</ele><time>2026-04-24T12:28:19Z</time></trkpt><trkpt lat="38.012903359672464" lon="15.746661560113317"><ele>796.0</ele><time>2026-04-24T12:28:20Z</time></trkpt><trkpt lat="38.01282144842846" lon="15.746554751120913"><ele>793.5000000000001</ele><time>2026-04-24T12:28:22Z</time></trkpt><trkpt lat="38.01279146645161" lon="15.746467661640677"><ele>791.0</ele><time>2026-04-24T12:28:23Z</time></trkpt><trkpt lat="38.01277143826669" lon="15.746361861200747"><ele>791.0</ele><time>2026-04-24T12:28:24Z</time></trkpt><trkpt lat="38.01273401481646" lon="15.746245255424931"><ele>791.0</ele><time>2026-04-24T12:28:25Z</time></trkpt><trkpt lat="38.01269060756127" lon="15.746112919103329"><ele>791.0</ele><time>2026-04-24T12:28:26Z</time></trkpt><trkpt lat="38.01264452387976" lon="15.745983078512497"><ele>791.0</ele><time>2026-04-24T12:28:27Z</time></trkpt><trkpt lat="38.012596429567715" lon="15.745880953963546"><ele>791.0</ele><time>2026-04-24T12:28:28Z</time></trkpt><trkpt lat="38.01254107135589" lon="15.745809817268286"><ele>788.8</ele><time>2026-04-24T12:28:29Z</time></trkpt><trkpt lat="38.01248791293713" lon="15.745695611694927"><ele>786.5999999999999</ele><time>2026-04-24T12:28:31Z</time></trkpt><trkpt lat="38.01245226427211" lon="15.745583316785149"><ele>784.4</ele><time>2026-04-24T12:28:33Z</time></trkpt><trkpt lat="38.012401091293" lon="15.745523960003908"><ele>782.2</ele><time>2026-04-24T12:28:34Z</time></trkpt><trkpt lat="38.012320449456034" lon="15.745522638312831"><ele>780.0</ele><time>2026-04-24T12:28:35Z</time></trkpt><trkpt lat="38.01222308198569" lon="15.745427574154037"><ele>780.0</ele><time>2026-04-24T12:28:37Z</time></trkpt><trkpt lat="38.01215805569519" lon="15.745386723800035"><ele>780.0</ele><time>2026-04-24T12:28:38Z</time></trkpt><trkpt lat="38.012038700017186" lon="15.745341286057648"><ele>780.0</ele><time>2026-04-24T12:28:40Z</time></trkpt><trkpt lat="38.01197234130566" lon="15.74532248725553"><ele>780.0</ele><time>2026-04-24T12:28:41Z</time></trkpt><trkpt lat="38.01190865622648" lon="15.745306471773485"><ele>780.0</ele><time>2026-04-24T12:28:42Z</time></trkpt><trkpt lat="38.01183786687404" lon="15.74529559522375"><ele>780.0</ele><time>2026-04-24T12:28:43Z</time></trkpt><trkpt lat="38.01176797192727" lon="15.745300932705566"><ele>780.0</ele><time>2026-04-24T12:28:44Z</time></trkpt><trkpt lat="38.01169130495433" lon="15.745293665698801"><ele>780.0</ele><time>2026-04-24T12:28:45Z</time></trkpt><trkpt lat="38.01160725535234" lon="15.745269727600176"><ele>780.0</ele><time>2026-04-24T12:28:46.999Z</time></trkpt><trkpt lat="38.01146724893076" lon="15.745230649875545"><ele>780.0</ele><time>2026-04-24T12:28:48.999Z</time></trkpt><trkpt lat="38.01138673040311" lon="15.745228735260866"><ele>780.0</ele><time>2026-04-24T12:28:49.999Z</time></trkpt><trkpt lat="38.0113166582881" lon="15.745246350566413"><ele>779.0</ele><time>2026-04-24T12:28:50.999Z</time></trkpt><trkpt lat="38.01124775568255" lon="15.745308954546509"><ele>778.0</ele><time>2026-04-24T12:28:51.999Z</time></trkpt><trkpt lat="38.01115121108821" lon="15.745327329530477"><ele>777.0</ele><time>2026-04-24T12:28:52.999Z</time></trkpt><trkpt lat="38.01107822489938" lon="15.745355421256479"><ele>776.0</ele><time>2026-04-24T12:28:53.999Z</time></trkpt><trkpt lat="38.010999770368706" lon="15.745387002899571"><ele>775.0</ele><time>2026-04-24T12:28:54.999Z</time></trkpt><trkpt lat="38.01094077994327" lon="15.745438061631344"><ele>774.0</ele><time>2026-04-24T12:28:55.999Z</time></trkpt><trkpt lat="38.010857836122106" lon="15.74549797751184"><ele>772.0</ele><time>2026-04-24T12:28:57.999Z</time></trkpt><trkpt lat="38.010796435163876" lon="15.745478921246823"><ele>770.0</ele><time>2026-04-24T12:28:58.999Z</time></trkpt><trkpt lat="38.01069984691496" lon="15.74540967231508"><ele>768.0</ele><time>2026-04-24T12:29:00.999Z</time></trkpt><trkpt lat="38.01061843388254" lon="15.745352559232838"><ele>766.0</ele><time>2026-04-24T12:29:01.999Z</time></trkpt><trkpt lat="38.01052169945417" lon="15.745311075812557"><ele>764.0</ele><time>2026-04-24T12:29:02.999Z</time></trkpt><trkpt lat="38.010401639905915" lon="15.745331569750073"><ele>764.0</ele><time>2026-04-24T12:29:03.999Z</time></trkpt><trkpt lat="38.01029160961932" lon="15.745297892368281"><ele>764.0</ele><time>2026-04-24T12:29:04.999Z</time></trkpt><trkpt lat="38.010189894393285" lon="15.745271723932262"><ele>764.0</ele><time>2026-04-24T12:29:05.999Z</time></trkpt><trkpt lat="38.01011212944195" lon="15.745236536576476"><ele>764.0</ele><time>2026-04-24T12:29:06.999Z</time></trkpt><trkpt lat="38.01003320320529" lon="15.74513931330195"><ele>764.0</ele><time>2026-04-24T12:29:08.999Z</time></trkpt><trkpt lat="38.00994916685947" lon="15.745039123417966"><ele>764.3333333333333</ele><time>2026-04-24T12:29:10.999Z</time></trkpt><trkpt lat="38.00987433429324" lon="15.745053414088517"><ele>764.6666666666666</ele><time>2026-04-24T12:29:11.999Z</time></trkpt><trkpt lat="38.00982581602106" lon="15.745142840060595"><ele>765.0</ele><time>2026-04-24T12:29:12.999Z</time></trkpt><trkpt lat="38.00983427980964" lon="15.745250060920398"><ele>765.3333333333334</ele><time>2026-04-24T12:29:13.999Z</time></trkpt><trkpt lat="38.00985726116518" lon="15.745361494612373"><ele>765.6666666666667</ele><time>2026-04-24T12:29:15Z</time></trkpt><trkpt lat="38.009882655912726" lon="15.745449900595963"><ele>766.0</ele><time>2026-04-24T12:29:16Z</time></trkpt><trkpt lat="38.00989807348941" lon="15.745555193459541"><ele>765.6666666666667</ele><time>2026-04-24T12:29:17Z</time></trkpt><trkpt lat="38.009912946885464" lon="15.745640753191132"><ele>765.3333333333334</ele><time>2026-04-24T12:29:18Z</time></trkpt><trkpt lat="38.009975210624035" lon="15.745744646848479"><ele>765.0</ele><time>2026-04-24T12:29:20Z</time></trkpt><trkpt lat="38.01005231747257" lon="15.745834150534336"><ele>764.6666666666666</ele><time>2026-04-24T12:29:22Z</time></trkpt><trkpt lat="38.010094028434686" lon="15.74590211195809"><ele>764.3333333333333</ele><time>2026-04-24T12:29:23Z</time></trkpt><trkpt lat="38.0101248149146" lon="15.745975572977677"><ele>764.0</ele><time>2026-04-24T12:29:24Z</time></trkpt><trkpt lat="38.01013806075039" lon="15.746063514834248"><ele>761.1428571428572</ele><time>2026-04-24T12:29:25Z</time></trkpt><trkpt lat="38.01016158502786" lon="15.74614337925065"><ele>758.2857142857142</ele><time>2026-04-24T12:29:26Z</time></trkpt><trkpt lat="38.01020648010221" lon="15.746217403234414"><ele>755.4285714285714</ele><time>2026-04-24T12:29:27Z</time></trkpt><trkpt lat="38.01026159275312" lon="15.746278120374726"><ele>752.5714285714287</ele><time>2026-04-24T12:29:28Z</time></trkpt><trkpt lat="38.01031543929655" lon="15.746341916061931"><ele>749.7142857142858</ele><time>2026-04-24T12:29:29Z</time></trkpt><trkpt lat="38.01036298190536" lon="15.746408020000834"><ele>746.8571428571429</ele><time>2026-04-24T12:29:30Z</time></trkpt><trkpt lat="38.01041208659474" lon="15.746463098311187"><ele>744.0</ele><time>2026-04-24T12:29:31Z</time></trkpt><trkpt lat="38.01048459701509" lon="15.746561897445918"><ele>744.0</ele><time>2026-04-24T12:29:33Z</time></trkpt><trkpt lat="38.010453355071" lon="15.746655314828478"><ele>744.0</ele><time>2026-04-24T12:29:35Z</time></trkpt><trkpt lat="38.010369164405745" lon="15.746678744164617"><ele>744.0</ele><time>2026-04-24T12:29:37Z</time></trkpt><trkpt lat="38.01026907398781" lon="15.746624985952979"><ele>744.0</ele><time>2026-04-24T12:29:39Z</time></trkpt><trkpt lat="38.010219497651846" lon="15.746548299588248"><ele>744.0</ele><time>2026-04-24T12:29:40Z</time></trkpt><trkpt lat="38.01015327376622" lon="15.746485808300319"><ele>744.0</ele><time>2026-04-24T12:29:41Z</time></trkpt><trkpt lat="38.01008815151741" lon="15.746426274134304"><ele>744.0</ele><time>2026-04-24T12:29:42Z</time></trkpt><trkpt lat="38.0100099762779" lon="15.746370300229458"><ele>744.0</ele><time>2026-04-24T12:29:43Z</time></trkpt><trkpt lat="38.00994504295945" lon="15.746309366423061"><ele>744.0</ele><time>2026-04-24T12:29:44Z</time></trkpt><trkpt lat="38.00989724827921" lon="15.746231135242539"><ele>744.0</ele><time>2026-04-24T12:29:45Z</time></trkpt><trkpt lat="38.00984696715568" lon="15.74617410619891"><ele>744.0</ele><time>2026-04-24T12:29:46Z</time></trkpt><trkpt lat="38.00979548340069" lon="15.746114391399214"><ele>744.0</ele><time>2026-04-24T12:29:47Z</time></trkpt><trkpt lat="38.009744522722926" lon="15.746040989812176"><ele>744.3333333333334</ele><time>2026-04-24T12:29:48Z</time></trkpt><trkpt lat="38.009673926675404" lon="15.74596489840177"><ele>744.6666666666666</ele><time>2026-04-24T12:29:49Z</time></trkpt><trkpt lat="38.00959985391074" lon="15.745910288158258"><ele>745.0</ele><time>2026-04-24T12:29:50Z</time></trkpt><trkpt lat="38.00951604813603" lon="15.74588070990335"><ele>745.3333333333333</ele><time>2026-04-24T12:29:51Z</time></trkpt><trkpt lat="38.009425835310125" lon="15.745847196860556"><ele>745.6666666666666</ele><time>2026-04-24T12:29:52Z</time></trkpt><trkpt lat="38.0093484757371" lon="15.745828411561886"><ele>746.0</ele><time>2026-04-24T12:29:53Z</time></trkpt><trkpt lat="38.00926222548136" lon="15.745828390205364"><ele>746.0</ele><time>2026-04-24T12:29:54Z</time></trkpt><trkpt lat="38.00916506156783" lon="15.745828235707373"><ele>746.0</ele><time>2026-04-24T12:29:55Z</time></trkpt><trkpt lat="38.009061837911574" lon="15.745826940390204"><ele>746.0</ele><time>2026-04-24T12:29:56Z</time></trkpt><trkpt lat="38.008974998926575" lon="15.745816343359174"><ele>746.0</ele><time>2026-04-24T12:29:57Z</time></trkpt><trkpt lat="38.00890014949118" lon="15.745798476651366"><ele>746.0</ele><time>2026-04-24T12:29:58Z</time></trkpt><trkpt lat="38.00884000019329" lon="15.745766600919303"><ele>746.0</ele><time>2026-04-24T12:29:59Z</time></trkpt><trkpt lat="38.008765981477794" lon="15.745659597545881"><ele>741.8</ele><time>2026-04-24T12:30:01Z</time></trkpt><trkpt lat="38.00869100686262" lon="15.745563455477523"><ele>737.5999999999999</ele><time>2026-04-24T12:30:03Z</time></trkpt><trkpt lat="38.00864363274786" lon="15.745508993295347"><ele>733.4</ele><time>2026-04-24T12:30:07Z</time></trkpt><trkpt lat="38.00849298739065" lon="15.745536274739715"><ele>729.2</ele><time>2026-04-24T12:30:11Z</time></trkpt><trkpt lat="38.00838628912257" lon="15.745602076650218"><ele>725.0</ele><time>2026-04-24T12:30:13Z</time></trkpt><trkpt lat="38.008337770025875" lon="15.745729676179835"><ele>725.0</ele><time>2026-04-24T12:30:15Z</time></trkpt><trkpt lat="38.00837876452497" lon="15.745793332783252"><ele>725.0</ele><time>2026-04-24T12:30:16Z</time></trkpt><trkpt lat="38.008415119711216" lon="15.745870023711202"><ele>725.0</ele><time>2026-04-24T12:30:17Z</time></trkpt><trkpt lat="38.00846300586133" lon="15.745938835617313"><ele>725.0</ele><time>2026-04-24T12:30:18Z</time></trkpt><trkpt lat="38.00850675333022" lon="15.746006364962911"><ele>725.0</ele><time>2026-04-24T12:30:19Z</time></trkpt><trkpt lat="38.008548517129434" lon="15.746077439964306"><ele>725.0</ele><time>2026-04-24T12:30:20Z</time></trkpt><trkpt lat="38.008598958659825" lon="15.746159168243343"><ele>725.0</ele><time>2026-04-24T12:30:21Z</time></trkpt><trkpt lat="38.00864724917314" lon="15.746238870633436"><ele>720.6666666666666</ele><time>2026-04-24T12:30:22Z</time></trkpt><trkpt lat="38.00869792573251" lon="15.746314065525523"><ele>716.3333333333333</ele><time>2026-04-24T12:30:23Z</time></trkpt><trkpt lat="38.008739456620376" lon="15.74638642483047"><ele>712.0</ele><time>2026-04-24T12:30:24Z</time></trkpt><trkpt lat="38.00877918903609" lon="15.746457074491524"><ele>707.6666666666666</ele><time>2026-04-24T12:30:25Z</time></trkpt><trkpt lat="38.00886846148439" lon="15.746567532768351"><ele>703.3333333333334</ele><time>2026-04-24T12:30:27Z</time></trkpt><trkpt lat="38.0089241656688" lon="15.746608447509448"><ele>699.0</ele><time>2026-04-24T12:30:28Z</time></trkpt><trkpt lat="38.00898391123227" lon="15.746648756999008"><ele>699.0</ele><time>2026-04-24T12:30:29Z</time></trkpt><trkpt lat="38.009041393314725" lon="15.746687264741574"><ele>699.0</ele><time>2026-04-24T12:30:30Z</time></trkpt><trkpt lat="38.009095714339715" lon="15.746729497919361"><ele>699.0</ele><time>2026-04-24T12:30:30.999Z</time></trkpt><trkpt lat="38.009148798556886" lon="15.746784845974906"><ele>699.0</ele><time>2026-04-24T12:30:31.999Z</time></trkpt><trkpt lat="38.00919324094203" lon="15.746856505695998"><ele>699.0</ele><time>2026-04-24T12:30:32.999Z</time></trkpt><trkpt lat="38.00925360604825" lon="15.746920973249736"><ele>699.0</ele><time>2026-04-24T12:30:33.999Z</time></trkpt><trkpt lat="38.00930316524738" lon="15.746976549113961"><ele>699.0</ele><time>2026-04-24T12:30:34.999Z</time></trkpt><trkpt lat="38.00936467732662" lon="15.747091330594994"><ele>699.0</ele><time>2026-04-24T12:30:36.999Z</time></trkpt><trkpt lat="38.00935650162945" lon="15.747227036876293"><ele>699.0</ele><time>2026-04-24T12:30:38.999Z</time></trkpt><trkpt lat="38.00934012073718" lon="15.747320578986416"><ele>699.0</ele><time>2026-04-24T12:30:39.999Z</time></trkpt><trkpt lat="38.009298735667805" lon="15.747406230706057"><ele>699.0</ele><time>2026-04-24T12:30:40.999Z</time></trkpt><trkpt lat="38.00921793328419" lon="15.747519287868005"><ele>699.0</ele><time>2026-04-24T12:30:42.999Z</time></trkpt><trkpt lat="38.00917444478512" lon="15.747579647960746"><ele>699.0</ele><time>2026-04-24T12:30:43.999Z</time></trkpt><trkpt lat="38.00915776553616" lon="15.747656730865913"><ele>695.6666666666666</ele><time>2026-04-24T12:30:44.999Z</time></trkpt><trkpt lat="38.00919970480345" lon="15.747776855000657"><ele>692.3333333333334</ele><time>2026-04-24T12:30:46.999Z</time></trkpt><trkpt lat="38.009255404854116" lon="15.747838518620885"><ele>689.0</ele><time>2026-04-24T12:30:47.999Z</time></trkpt><trkpt lat="38.00930481367434" lon="15.747914660882556"><ele>685.6666666666667</ele><time>2026-04-24T12:30:48.999Z</time></trkpt><trkpt lat="38.009354787880916" lon="15.74801081369541"><ele>682.3333333333334</ele><time>2026-04-24T12:30:49.999Z</time></trkpt><trkpt lat="38.00939218407449" lon="15.74809820904151"><ele>679.0</ele><time>2026-04-24T12:30:50.999Z</time></trkpt><trkpt lat="38.00943155558447" lon="15.74818390547258"><ele>679.0</ele><time>2026-04-24T12:30:51.999Z</time></trkpt><trkpt lat="38.00946590802219" lon="15.74825856189127"><ele>679.0</ele><time>2026-04-24T12:30:52.999Z</time></trkpt><trkpt lat="38.00948950158254" lon="15.748336987982416"><ele>679.0</ele><time>2026-04-24T12:30:53.999Z</time></trkpt><trkpt lat="38.00951396338386" lon="15.748416087265639"><ele>679.0</ele><time>2026-04-24T12:30:54.999Z</time></trkpt><trkpt lat="38.00955026046108" lon="15.748493856192482"><ele>679.0</ele><time>2026-04-24T12:30:55.999Z</time></trkpt><trkpt lat="38.009586630905815" lon="15.748569688728765"><ele>679.0</ele><time>2026-04-24T12:30:56.999Z</time></trkpt><trkpt lat="38.00963132638371" lon="15.748632452744587"><ele>679.0</ele><time>2026-04-24T12:30:57.999Z</time></trkpt><trkpt lat="38.00969057705314" lon="15.748684702230483"><ele>678.0</ele><time>2026-04-24T12:30:58.999Z</time></trkpt><trkpt lat="38.00975637016864" lon="15.74873144054745"><ele>677.0</ele><time>2026-04-24T12:30:59.999Z</time></trkpt><trkpt lat="38.009834527529236" lon="15.748794499882747"><ele>676.0</ele><time>2026-04-24T12:31:00.999Z</time></trkpt><trkpt lat="38.00989342784074" lon="15.748854389079904"><ele>675.0</ele><time>2026-04-24T12:31:01.999Z</time></trkpt><trkpt lat="38.009961991612734" lon="15.748919453625623"><ele>674.0</ele><time>2026-04-24T12:31:02.999Z</time></trkpt><trkpt lat="38.01002784293625" lon="15.748955302019887"><ele>673.0</ele><time>2026-04-24T12:31:03.999Z</time></trkpt><trkpt lat="38.01009239558695" lon="15.748968074724196"><ele>673.0</ele><time>2026-04-24T12:31:04.999Z</time></trkpt><trkpt lat="38.01019522439965" lon="15.74898432389266"><ele>673.0</ele><time>2026-04-24T12:31:06.999Z</time></trkpt><trkpt lat="38.01025767808958" lon="15.749026395608231"><ele>673.0</ele><time>2026-04-24T12:31:07.999Z</time></trkpt><trkpt lat="38.01032902785121" lon="15.749063578758955"><ele>673.0</ele><time>2026-04-24T12:31:08.999Z</time></trkpt><trkpt lat="38.01040914009009" lon="15.749124878223203"><ele>673.0</ele><time>2026-04-24T12:31:10.999Z</time></trkpt><trkpt lat="38.010482140273275" lon="15.749221429348657"><ele>673.0</ele><time>2026-04-24T12:31:12.999Z</time></trkpt><trkpt lat="38.010531441027695" lon="15.749328000425061"><ele>673.0</ele><time>2026-04-24T12:31:14.999Z</time></trkpt><trkpt lat="38.01055554934489" lon="15.749444540937436"><ele>673.0</ele><time>2026-04-24T12:31:16.999Z</time></trkpt><trkpt lat="38.01059709521638" lon="15.74953404743052"><ele>673.0</ele><time>2026-04-24T12:31:18.999Z</time></trkpt><trkpt lat="38.01066516807115" lon="15.749643378522387"><ele>673.0</ele><time>2026-04-24T12:31:21Z</time></trkpt><trkpt lat="38.010685944769854" lon="15.74972337098582"><ele>667.5999999999999</ele><time>2026-04-24T12:31:22Z</time></trkpt><trkpt lat="38.010690761307416" lon="15.749813346138978"><ele>662.1999999999999</ele><time>2026-04-24T12:31:23Z</time></trkpt><trkpt lat="38.01066430240635" lon="15.749924172593753"><ele>656.8</ele><time>2026-04-24T12:31:25Z</time></trkpt><trkpt lat="38.01058038638365" lon="15.749953827471915"><ele>651.4</ele><time>2026-04-24T12:31:27Z</time></trkpt><trkpt lat="38.01053393778371" lon="15.749830154550505"><ele>646.0</ele><time>2026-04-24T12:31:29Z</time></trkpt><trkpt lat="38.010442595011305" lon="15.749743044875244"><ele>646.0</ele><time>2026-04-24T12:31:31Z</time></trkpt><trkpt lat="38.01038773405048" lon="15.749702800182538"><ele>646.0</ele><time>2026-04-24T12:31:32Z</time></trkpt><trkpt lat="38.01031028956656" lon="15.74966765261781"><ele>646.0</ele><time>2026-04-24T12:31:33Z</time></trkpt><trkpt lat="38.010243017469804" lon="15.749653611334018"><ele>646.0</ele><time>2026-04-24T12:31:34Z</time></trkpt><trkpt lat="38.010177346475345" lon="15.749679756874631"><ele>646.0</ele><time>2026-04-24T12:31:35Z</time></trkpt><trkpt lat="38.010114254906256" lon="15.749667735741774"><ele>646.0</ele><time>2026-04-24T12:31:36Z</time></trkpt><trkpt lat="38.010005652277535" lon="15.749735886060298"><ele>643.1999999999999</ele><time>2026-04-24T12:31:38Z</time></trkpt><trkpt lat="38.00993000753941" lon="15.749860889051131"><ele>640.4</ele><time>2026-04-24T12:31:40Z</time></trkpt><trkpt lat="38.00989691107753" lon="15.749935498008725"><ele>637.6</ele><time>2026-04-24T12:31:41Z</time></trkpt><trkpt lat="38.009855054537994" lon="15.75001898866973"><ele>634.8</ele><time>2026-04-24T12:31:42Z</time></trkpt><trkpt lat="38.009762061047084" lon="15.750087738614798"><ele>632.0</ele><time>2026-04-24T12:31:44Z</time></trkpt><trkpt lat="38.00969104943167" lon="15.75015146489883"><ele>632.0</ele><time>2026-04-24T12:31:46Z</time></trkpt><trkpt lat="38.0096170405581" lon="15.750255118153621"><ele>632.0</ele><time>2026-04-24T12:31:48Z</time></trkpt><trkpt lat="38.00956161536927" lon="15.750340524265496"><ele>632.0</ele><time>2026-04-24T12:31:50Z</time></trkpt><trkpt lat="38.00949724884473" lon="15.750362457132232"><ele>632.0</ele><time>2026-04-24T12:31:52Z</time></trkpt><trkpt lat="38.009443741007274" lon="15.75025994532597"><ele>632.0</ele><time>2026-04-24T12:31:54Z</time></trkpt><trkpt lat="38.00937684842892" lon="15.750193662004696"><ele>632.0</ele><time>2026-04-24T12:31:56Z</time></trkpt><trkpt lat="38.009305610862164" lon="15.75011646157208"><ele>632.0</ele><time>2026-04-24T12:31:58Z</time></trkpt><trkpt lat="38.00923461244782" lon="15.750036112437739"><ele>632.0</ele><time>2026-04-24T12:32:00Z</time></trkpt><trkpt lat="38.00914533261929" lon="15.749961662095627"><ele>632.0</ele><time>2026-04-24T12:32:02Z</time></trkpt><trkpt lat="38.009061854158006" lon="15.749892468316483"><ele>632.0</ele><time>2026-04-24T12:32:04Z</time></trkpt><trkpt lat="38.008988959194326" lon="15.749819286713358"><ele>632.0</ele><time>2026-04-24T12:32:06Z</time></trkpt><trkpt lat="38.00891712148692" lon="15.74984350819824"><ele>628.0</ele><time>2026-04-24T12:32:08Z</time></trkpt><trkpt lat="38.00891367261619" lon="15.749989997770545"><ele>624.0</ele><time>2026-04-24T12:32:10Z</time></trkpt><trkpt lat="38.008934197242" lon="15.750070359224583"><ele>620.0</ele><time>2026-04-24T12:32:11Z</time></trkpt><trkpt lat="38.00895362451572" lon="15.75014976924604"><ele>616.0</ele><time>2026-04-24T12:32:12Z</time></trkpt><trkpt lat="38.0089612501201" lon="15.750229339267642"><ele>612.0</ele><time>2026-04-24T12:32:13Z</time></trkpt><trkpt lat="38.00896171715447" lon="15.750361789809787"><ele>608.0</ele><time>2026-04-24T12:32:15Z</time></trkpt><trkpt lat="38.008955360071255" lon="15.75046363251678"><ele>604.8</ele><time>2026-04-24T12:32:17Z</time></trkpt><trkpt lat="38.00887763628744" lon="15.750564064674482"><ele>601.5999999999999</ele><time>2026-04-24T12:32:19Z</time></trkpt><trkpt lat="38.00879894189893" lon="15.750560230169217"><ele>598.4000000000001</ele><time>2026-04-24T12:32:21.999Z</time></trkpt><trkpt lat="38.00875131492606" lon="15.750470413994218"><ele>595.2</ele><time>2026-04-24T12:32:23.999Z</time></trkpt><trkpt lat="38.00867633137592" lon="15.750382087905159"><ele>592.0</ele><time>2026-04-24T12:32:25.999Z</time></trkpt><trkpt lat="38.00857524370378" lon="15.750387927103644"><ele>592.0</ele><time>2026-04-24T12:32:27.999Z</time></trkpt><trkpt lat="38.00851154396016" lon="15.75045765520594"><ele>592.0</ele><time>2026-04-24T12:32:29.999Z</time></trkpt><trkpt lat="38.008534539986314" lon="15.750549847637728"><ele>592.0</ele><time>2026-04-24T12:32:31.999Z</time></trkpt><trkpt lat="38.00859410061212" lon="15.750668393238373"><ele>592.0</ele><time>2026-04-24T12:32:33.999Z</time></trkpt><trkpt lat="38.00855235767022" lon="15.7507482117597"><ele>592.0</ele><time>2026-04-24T12:32:34.999Z</time></trkpt><trkpt lat="38.00855823441013" lon="15.750892878259902"><ele>592.0</ele><time>2026-04-24T12:32:36.999Z</time></trkpt><trkpt lat="38.00859123518914" lon="15.750971895248092"><ele>592.0</ele><time>2026-04-24T12:32:37.999Z</time></trkpt><trkpt lat="38.00862259502028" lon="15.751045903039904"><ele>592.0</ele><time>2026-04-24T12:32:38.999Z</time></trkpt><trkpt lat="38.00867489158571" lon="15.751181498107965"><ele>592.0</ele><time>2026-04-24T12:32:40.999Z</time></trkpt><trkpt lat="38.00869301385217" lon="15.751268294970549"><ele>592.0</ele><time>2026-04-24T12:32:41.999Z</time></trkpt><trkpt lat="38.00871944096721" lon="15.751348590662765"><ele>592.0</ele><time>2026-04-24T12:32:42.999Z</time></trkpt><trkpt lat="38.00875544677389" lon="15.751424734292424"><ele>589.2</ele><time>2026-04-24T12:32:43.999Z</time></trkpt><trkpt lat="38.008798502169604" lon="15.751491454665937"><ele>586.4000000000001</ele><time>2026-04-24T12:32:44.999Z</time></trkpt><trkpt lat="38.0088542930506" lon="15.751634676377481"><ele>583.5999999999999</ele><time>2026-04-24T12:32:46.999Z</time></trkpt><trkpt lat="38.00885059889166" lon="15.751753382777638"><ele>580.8</ele><time>2026-04-24T12:32:48.999Z</time></trkpt><trkpt lat="38.00874984058594" lon="15.751838973495701"><ele>578.0</ele><time>2026-04-24T12:32:50.999Z</time></trkpt><trkpt lat="38.008682651401266" lon="15.75184251480882"><ele>578.0</ele><time>2026-04-24T12:32:51.999Z</time></trkpt><trkpt lat="38.00861847899073" lon="15.751820609617248"><ele>578.0</ele><time>2026-04-24T12:32:52.999Z</time></trkpt><trkpt lat="38.00855925625099" lon="15.751717518276353"><ele>578.0</ele><time>2026-04-24T12:32:54.999Z</time></trkpt><trkpt lat="38.008517774299925" lon="15.751648120225939"><ele>578.0</ele><time>2026-04-24T12:32:55.999Z</time></trkpt><trkpt lat="38.008463043487694" lon="15.751573766453898"><ele>578.0</ele><time>2026-04-24T12:32:56.999Z</time></trkpt><trkpt lat="38.008404831495895" lon="15.75150250948207"><ele>578.0</ele><time>2026-04-24T12:32:57.999Z</time></trkpt><trkpt lat="38.00835375111996" lon="15.751437841604934"><ele>577.6666666666666</ele><time>2026-04-24T12:32:58.999Z</time></trkpt><trkpt lat="38.008311490306475" lon="15.751372283779673"><ele>577.3333333333333</ele><time>2026-04-24T12:32:59.999Z</time></trkpt><trkpt lat="38.008268646312615" lon="15.751300226155925"><ele>577.0</ele><time>2026-04-24T12:33:00.999Z</time></trkpt><trkpt lat="38.00821985979223" lon="15.751236490639243"><ele>576.6666666666666</ele><time>2026-04-24T12:33:01.999Z</time></trkpt><trkpt lat="38.00814151113782" lon="15.751192085050926"><ele>576.3333333333334</ele><time>2026-04-24T12:33:02.999Z</time></trkpt><trkpt lat="38.00806821307935" lon="15.751127463776042"><ele>576.0</ele><time>2026-04-24T12:33:03.999Z</time></trkpt><trkpt lat="38.008011516088686" lon="15.75102922672434"><ele>576.0</ele><time>2026-04-24T12:33:04.999Z</time></trkpt><trkpt lat="38.007956098614805" lon="15.750932816978649"><ele>576.0</ele><time>2026-04-24T12:33:05.999Z</time></trkpt><trkpt lat="38.00791137096842" lon="15.750834879674377"><ele>576.0</ele><time>2026-04-24T12:33:06.999Z</time></trkpt><trkpt lat="38.00787382613252" lon="15.750730240864817"><ele>576.0</ele><time>2026-04-24T12:33:07.999Z</time></trkpt><trkpt lat="38.00783694157603" lon="15.750631376365627"><ele>576.0</ele><time>2026-04-24T12:33:08.999Z</time></trkpt><trkpt lat="38.0077971700643" lon="15.75054009371164"><ele>576.0</ele><time>2026-04-24T12:33:09.999Z</time></trkpt><trkpt lat="38.00775185597984" lon="15.750457445990138"><ele>576.0</ele><time>2026-04-24T12:33:10.999Z</time></trkpt><trkpt lat="38.00768283632352" lon="15.750377457881793"><ele>576.0</ele><time>2026-04-24T12:33:11.999Z</time></trkpt><trkpt lat="38.00762257182796" lon="15.750314342905215"><ele>576.0</ele><time>2026-04-24T12:33:12.999Z</time></trkpt><trkpt lat="38.00758318557378" lon="15.75024765316064"><ele>576.0</ele><time>2026-04-24T12:33:13.999Z</time></trkpt><trkpt lat="38.00753834749127" lon="15.750170827199579"><ele>576.0</ele><time>2026-04-24T12:33:14.999Z</time></trkpt><trkpt lat="38.00748529371544" lon="15.750103644905836"><ele>576.0</ele><time>2026-04-24T12:33:15.999Z</time></trkpt><trkpt lat="38.00740734836628" lon="15.750069582093047"><ele>582.8</ele><time>2026-04-24T12:33:16.999Z</time></trkpt><trkpt lat="38.00732130403925" lon="15.750095153558757"><ele>589.6</ele><time>2026-04-24T12:33:17.999Z</time></trkpt><trkpt lat="38.00724017812578" lon="15.75018886613794"><ele>596.4</ele><time>2026-04-24T12:33:19.999Z</time></trkpt><trkpt lat="38.00725003989861" lon="15.750294023935158"><ele>603.2</ele><time>2026-04-24T12:33:20.999Z</time></trkpt><trkpt lat="38.00726627708209" lon="15.750415508211969"><ele>610.0</ele><time>2026-04-24T12:33:21.999Z</time></trkpt><trkpt lat="38.00727634481063" lon="15.750551080123541"><ele>610.0</ele><time>2026-04-24T12:33:22.999Z</time></trkpt><trkpt lat="38.00728701368582" lon="15.750699509186099"><ele>610.0</ele><time>2026-04-24T12:33:23.999Z</time></trkpt><trkpt lat="38.00728463820109" lon="15.750849243895923"><ele>610.0</ele><time>2026-04-24T12:33:24.999Z</time></trkpt><trkpt lat="38.00726725067097" lon="15.75098741752812"><ele>610.0</ele><time>2026-04-24T12:33:25.999Z</time></trkpt><trkpt lat="38.00725377958898" lon="15.751114071655676"><ele>610.0</ele><time>2026-04-24T12:33:27Z</time></trkpt><trkpt lat="38.00725584151256" lon="15.751230265953728"><ele>604.6</ele><time>2026-04-24T12:33:28Z</time></trkpt><trkpt lat="38.0072628007966" lon="15.751351955688142"><ele>599.2</ele><time>2026-04-24T12:33:29Z</time></trkpt><trkpt lat="38.00727151446786" lon="15.751474977932643"><ele>593.8</ele><time>2026-04-24T12:33:30Z</time></trkpt><trkpt lat="38.00729001025692" lon="15.75160239539658"><ele>588.4</ele><time>2026-04-24T12:33:31Z</time></trkpt><trkpt lat="38.007323973965114" lon="15.75172924877834"><ele>583.0</ele><time>2026-04-24T12:33:32Z</time></trkpt><trkpt lat="38.007360649204074" lon="15.751865512703565"><ele>579.8</ele><time>2026-04-24T12:33:33Z</time></trkpt><trkpt lat="38.00739365945871" lon="15.752000216399235"><ele>576.5999999999999</ele><time>2026-04-24T12:33:34Z</time></trkpt><trkpt lat="38.00742514054704" lon="15.752114044378665"><ele>573.4000000000001</ele><time>2026-04-24T12:33:35Z</time></trkpt><trkpt lat="38.00745146732254" lon="15.752218380957435"><ele>570.2</ele><time>2026-04-24T12:33:36Z</time></trkpt><trkpt lat="38.00747922598109" lon="15.752322930298599"><ele>567.0</ele><time>2026-04-24T12:33:37Z</time></trkpt><trkpt lat="38.0075125887899" lon="15.752416700595697"><ele>565.6666666666666</ele><time>2026-04-24T12:33:38Z</time></trkpt><trkpt lat="38.0075479745195" lon="15.752511316689215"><ele>564.3333333333334</ele><time>2026-04-24T12:33:39Z</time></trkpt><trkpt lat="38.00757095537734" lon="15.75261033067024"><ele>563.0</ele><time>2026-04-24T12:33:40Z</time></trkpt><trkpt lat="38.00757407777255" lon="15.75271182514256"><ele>561.6666666666667</ele><time>2026-04-24T12:33:41Z</time></trkpt><trkpt lat="38.00756579231412" lon="15.752814526455676"><ele>560.3333333333334</ele><time>2026-04-24T12:33:42Z</time></trkpt><trkpt lat="38.00754711855908" lon="15.75293466544781"><ele>559.0</ele><time>2026-04-24T12:33:43Z</time></trkpt><trkpt lat="38.00752287848759" lon="15.753059793216536"><ele>558.8</ele><time>2026-04-24T12:33:44Z</time></trkpt><trkpt lat="38.007484933709144" lon="15.753184563026386"><ele>558.5999999999999</ele><time>2026-04-24T12:33:45Z</time></trkpt><trkpt lat="38.007439732593426" lon="15.753299060403018"><ele>558.4</ele><time>2026-04-24T12:33:46Z</time></trkpt><trkpt lat="38.00740438367672" lon="15.753405252836309"><ele>558.1999999999999</ele><time>2026-04-24T12:33:47Z</time></trkpt><trkpt lat="38.007375781739015" lon="15.753529248455477"><ele>558.0</ele><time>2026-04-24T12:33:48Z</time></trkpt><trkpt lat="38.00736082547021" lon="15.753658896128277"><ele>555.0</ele><time>2026-04-24T12:33:49Z</time></trkpt><trkpt lat="38.00733572494122" lon="15.753810827745012"><ele>552.0</ele><time>2026-04-24T12:33:50Z</time></trkpt><trkpt lat="38.00729950582582" lon="15.753970254893108"><ele>549.0</ele><time>2026-04-24T12:33:51Z</time></trkpt><trkpt lat="38.00726127892282" lon="15.754131244113642"><ele>546.0</ele><time>2026-04-24T12:33:52Z</time></trkpt><trkpt lat="38.00722679039625" lon="15.754296688146022"><ele>543.5</ele><time>2026-04-24T12:33:53Z</time></trkpt><trkpt lat="38.00719472222052" lon="15.75445603268148"><ele>541.0</ele><time>2026-04-24T12:33:54Z</time></trkpt><trkpt lat="38.00716035522805" lon="15.754604804952086"><ele>538.5</ele><time>2026-04-24T12:33:55Z</time></trkpt><trkpt lat="38.0071264906624" lon="15.754750644830587"><ele>536.0</ele><time>2026-04-24T12:33:56Z</time></trkpt><trkpt lat="38.00710129283221" lon="15.75489551039551"><ele>536.0</ele><time>2026-04-24T12:33:57Z</time></trkpt><trkpt lat="38.00708124904616" lon="15.755039426271507"><ele>536.0</ele><time>2026-04-24T12:33:58Z</time></trkpt><trkpt lat="38.00705897311558" lon="15.755178389151654"><ele>536.0</ele><time>2026-04-24T12:33:59Z</time></trkpt><trkpt lat="38.007037050449426" lon="15.755313313857062"><ele>536.0</ele><time>2026-04-24T12:33:59.999Z</time></trkpt><trkpt lat="38.007018293332585" lon="15.755447466338635"><ele>536.0</ele><time>2026-04-24T12:34:00.999Z</time></trkpt><trkpt lat="38.00699825592481" lon="15.755583032156434"><ele>534.25</ele><time>2026-04-24T12:34:01.999Z</time></trkpt><trkpt lat="38.006969911322685" lon="15.755730062489873"><ele>532.5</ele><time>2026-04-24T12:34:02.999Z</time></trkpt><trkpt lat="38.006937241273675" lon="15.755883484681435"><ele>530.75</ele><time>2026-04-24T12:34:03.999Z</time></trkpt><trkpt lat="38.00690394354958" lon="15.756025594330147"><ele>529.0</ele><time>2026-04-24T12:34:04.999Z</time></trkpt><trkpt lat="38.00687590703227" lon="15.7561562864272"><ele>527.4</ele><time>2026-04-24T12:34:05.999Z</time></trkpt><trkpt lat="38.00684731082516" lon="15.756276250164277"><ele>525.8</ele><time>2026-04-24T12:34:06.999Z</time></trkpt><trkpt lat="38.00681649945404" lon="15.75639357752676"><ele>524.2</ele><time>2026-04-24T12:34:07.999Z</time></trkpt><trkpt lat="38.00678740207995" lon="15.756511673658222"><ele>522.6</ele><time>2026-04-24T12:34:08.999Z</time></trkpt><trkpt lat="38.006748228948936" lon="15.756642629596868"><ele>521.0</ele><time>2026-04-24T12:34:09.999Z</time></trkpt><trkpt lat="38.00670401711154" lon="15.756768541908023"><ele>520.6</ele><time>2026-04-24T12:34:10.999Z</time></trkpt><trkpt lat="38.006655278599816" lon="15.756892731451495"><ele>520.2</ele><time>2026-04-24T12:34:11.999Z</time></trkpt><trkpt lat="38.0065995853268" lon="15.757010132440671"><ele>519.8</ele><time>2026-04-24T12:34:12.999Z</time></trkpt><trkpt lat="38.0065345895627" lon="15.75712166150756"><ele>519.4</ele><time>2026-04-24T12:34:13.999Z</time></trkpt><trkpt lat="38.0064617921925" lon="15.757226266492346"><ele>519.0</ele><time>2026-04-24T12:34:14.999Z</time></trkpt><trkpt lat="38.00638591140133" lon="15.757334069877269"><ele>519.0</ele><time>2026-04-24T12:34:15.999Z</time></trkpt><trkpt lat="38.00630784412672" lon="15.757444585071072"><ele>519.0</ele><time>2026-04-24T12:34:16.999Z</time></trkpt><trkpt lat="38.006217037574544" lon="15.757539837676195"><ele>519.0</ele><time>2026-04-24T12:34:17.999Z</time></trkpt><trkpt lat="38.00614532726327" lon="15.757632568676708"><ele>519.0</ele><time>2026-04-24T12:34:18.999Z</time></trkpt><trkpt lat="38.00608068087679" lon="15.757714599081579"><ele>519.0</ele><time>2026-04-24T12:34:19.999Z</time></trkpt><trkpt lat="38.006018599591684" lon="15.757792243504172"><ele>517.8333333333334</ele><time>2026-04-24T12:34:20.999Z</time></trkpt><trkpt lat="38.005964919480064" lon="15.757875946575266"><ele>516.6666666666666</ele><time>2026-04-24T12:34:21.999Z</time></trkpt><trkpt lat="38.00589463688757" lon="15.757949913161742"><ele>515.5</ele><time>2026-04-24T12:34:22.999Z</time></trkpt><trkpt lat="38.00583209021336" lon="15.75802409900972"><ele>514.3333333333333</ele><time>2026-04-24T12:34:23.999Z</time></trkpt><trkpt lat="38.005774209886255" lon="15.758097871973277"><ele>513.1666666666666</ele><time>2026-04-24T12:34:24.999Z</time></trkpt><trkpt lat="38.0057136099025" lon="15.758171443136671"><ele>512.0</ele><time>2026-04-24T12:34:25.999Z</time></trkpt><trkpt lat="38.005653788465516" lon="15.758246546875762"><ele>512.1666666666666</ele><time>2026-04-24T12:34:26.999Z</time></trkpt><trkpt lat="38.00559723661647" lon="15.758314593311496"><ele>512.3333333333333</ele><time>2026-04-24T12:34:27.999Z</time></trkpt><trkpt lat="38.005556374778884" lon="15.758378002296352"><ele>512.5</ele><time>2026-04-24T12:34:28.999Z</time></trkpt><trkpt lat="38.00552642586343" lon="15.758503786234888"><ele>512.6666666666666</ele><time>2026-04-24T12:34:30.999Z</time></trkpt><trkpt lat="38.00556874466199" lon="15.758621813669786"><ele>512.8333333333334</ele><time>2026-04-24T12:34:34.999Z</time></trkpt><trkpt lat="38.00562275206872" lon="15.758677115524327"><ele>513.0</ele><time>2026-04-24T12:34:49.999Z</time></trkpt><trkpt lat="38.005672978101146" lon="15.758733228483745"><ele>513.0</ele><time>2026-04-24T12:34:51.999Z</time></trkpt><trkpt lat="38.00575316485356" lon="15.75880367171295"><ele>513.0</ele><time>2026-04-24T12:35:29.999Z</time></trkpt><trkpt lat="38.0058337007775" lon="15.758892071201597"><ele>513.0</ele><time>2026-04-24T12:35:31.999Z</time></trkpt><trkpt lat="38.0058845367142" lon="15.758946386828155"><ele>513.0</ele><time>2026-04-24T12:35:32.999Z</time></trkpt><trkpt lat="38.00594280467" lon="15.759004320350813"><ele>513.0</ele><time>2026-04-24T12:35:33.999Z</time></trkpt><trkpt lat="38.00600530521957" lon="15.759064763146455"><ele>513.0</ele><time>2026-04-24T12:35:34.999Z</time></trkpt><trkpt lat="38.00606765069329" lon="15.759128858042716"><ele>511.59999999999997</ele><time>2026-04-24T12:35:35.999Z</time></trkpt><trkpt lat="38.00613029194857" lon="15.759196477706665"><ele>510.19999999999993</ele><time>2026-04-24T12:35:36.999Z</time></trkpt><trkpt lat="38.00619247538994" lon="15.759260223817776"><ele>508.8</ele><time>2026-04-24T12:35:37.999Z</time></trkpt><trkpt lat="38.00628314411823" lon="15.759355128105792"><ele>507.4</ele><time>2026-04-24T12:35:39.999Z</time></trkpt><trkpt lat="38.00635367460593" lon="15.759391695373756"><ele>506.0</ele><time>2026-04-24T12:35:41.999Z</time></trkpt><trkpt lat="38.00642918652773" lon="15.759263798608814"><ele>506.0</ele><time>2026-04-24T12:36:32.999Z</time></trkpt><trkpt lat="38.0064833293005" lon="15.759180415001206"><ele>506.0</ele><time>2026-04-24T12:36:33.999Z</time></trkpt><trkpt lat="38.00654828025983" lon="15.75906716243768"><ele>506.0</ele><time>2026-04-24T12:36:34.999Z</time></trkpt><trkpt lat="38.00662695050173" lon="15.758941944900947"><ele>506.0</ele><time>2026-04-24T12:36:35.999Z</time></trkpt><trkpt lat="38.006699356749074" lon="15.758830192083352"><ele>506.0</ele><time>2026-04-24T12:36:36.999Z</time></trkpt><trkpt lat="38.00676570997819" lon="15.758712124320722"><ele>506.75</ele><time>2026-04-24T12:36:37.999Z</time></trkpt><trkpt lat="38.00685121306064" lon="15.758596335169512"><ele>507.5</ele><time>2026-04-24T12:36:38.999Z</time></trkpt><trkpt lat="38.00695173578529" lon="15.758458121003178"><ele>508.25</ele><time>2026-04-24T12:36:39.999Z</time></trkpt><trkpt lat="38.00708672019823" lon="15.758329805444456"><ele>509.0</ele><time>2026-04-24T12:36:40.999Z</time></trkpt><trkpt lat="38.00720072736663" lon="15.758222948441933"><ele>510.0</ele><time>2026-04-24T12:36:41.999Z</time></trkpt><trkpt lat="38.00732321509834" lon="15.758116315105148"><ele>511.0</ele><time>2026-04-24T12:36:42.999Z</time></trkpt><trkpt lat="38.007456517305" lon="15.75798343461843"><ele>512.0</ele><time>2026-04-24T12:36:43.999Z</time></trkpt><trkpt lat="38.00756268435349" lon="15.757854276258685"><ele>513.4</ele><time>2026-04-24T12:36:44.999Z</time></trkpt><trkpt lat="38.00765062462508" lon="15.75775771542948"><ele>514.8000000000001</ele><time>2026-04-24T12:36:45.999Z</time></trkpt><trkpt lat="38.00772932724606" lon="15.75765997934671"><ele>516.2</ele><time>2026-04-24T12:36:46.999Z</time></trkpt><trkpt lat="38.00781405907248" lon="15.757573891959161"><ele>517.6</ele><time>2026-04-24T12:36:47.999Z</time></trkpt><trkpt lat="38.007879944288796" lon="15.757491153871545"><ele>519.0</ele><time>2026-04-24T12:36:48.999Z</time></trkpt><trkpt lat="38.00795647021281" lon="15.757414581115427"><ele>519.75</ele><time>2026-04-24T12:36:49.999Z</time></trkpt><trkpt lat="38.00807365091831" lon="15.757358880669566"><ele>520.5</ele><time>2026-04-24T12:36:50.999Z</time></trkpt><trkpt lat="38.008216775237734" lon="15.757284233279202"><ele>521.25</ele><time>2026-04-24T12:36:51.999Z</time></trkpt><trkpt lat="38.00834476620549" lon="15.757204296750993"><ele>522.0</ele><time>2026-04-24T12:36:52.999Z</time></trkpt><trkpt lat="38.00847545966259" lon="15.757156648122333"><ele>524.0</ele><time>2026-04-24T12:36:53.999Z</time></trkpt><trkpt lat="38.008607853780035" lon="15.757111514605873"><ele>526.0</ele><time>2026-04-24T12:36:54.999Z</time></trkpt><trkpt lat="38.00874082225501" lon="15.7570644071862"><ele>528.0</ele><time>2026-04-24T12:36:55.999Z</time></trkpt><trkpt lat="38.008874482753164" lon="15.757018264420749"><ele>530.0</ele><time>2026-04-24T12:36:56.999Z</time></trkpt><trkpt lat="38.0089740377952" lon="15.756982514475329"><ele>530.0</ele><time>2026-04-24T12:36:57.999Z</time></trkpt><trkpt lat="38.00908440053158" lon="15.756958338404983"><ele>530.0</ele><time>2026-04-24T12:36:59.999Z</time></trkpt><trkpt lat="38.009167985433976" lon="15.75691715021872"><ele>530.0</ele><time>2026-04-24T12:37:01.999Z</time></trkpt><trkpt lat="38.00918707577298" lon="15.756758911234837"><ele>530.0</ele><time>2026-04-24T12:37:03.999Z</time></trkpt><trkpt lat="38.00922683815009" lon="15.756692991448006"><ele>530.0</ele><time>2026-04-24T12:37:04.999Z</time></trkpt><trkpt lat="38.009293260094424" lon="15.756634264615844"><ele>531.2</ele><time>2026-04-24T12:37:05.999Z</time></trkpt><trkpt lat="38.00940130992625" lon="15.756613540570452"><ele>532.4</ele><time>2026-04-24T12:37:06.999Z</time></trkpt><trkpt lat="38.009490734261796" lon="15.756569958522144"><ele>533.6</ele><time>2026-04-24T12:37:07.999Z</time></trkpt><trkpt lat="38.00958022996619" lon="15.756528419229074"><ele>534.8</ele><time>2026-04-24T12:37:08.999Z</time></trkpt><trkpt lat="38.00966323699798" lon="15.756497468014611"><ele>536.0</ele><time>2026-04-24T12:37:09.999Z</time></trkpt><trkpt lat="38.00981266586359" lon="15.75647665996975"><ele>536.0</ele><time>2026-04-24T12:37:11.999Z</time></trkpt><trkpt lat="38.00990605744536" lon="15.756476996659426"><ele>536.0</ele><time>2026-04-24T12:37:12.999Z</time></trkpt><trkpt lat="38.009993098930536" lon="15.756480189313262"><ele>536.0</ele><time>2026-04-24T12:37:13.999Z</time></trkpt><trkpt lat="38.01006397177101" lon="15.75648752066616"><ele>536.0</ele><time>2026-04-24T12:37:14.999Z</time></trkpt><trkpt lat="38.010132278476824" lon="15.756499430952715"><ele>536.0</ele><time>2026-04-24T12:37:15.999Z</time></trkpt><trkpt lat="38.01020015052206" lon="15.756541052261332"><ele>536.0</ele><time>2026-04-24T12:37:16.999Z</time></trkpt><trkpt lat="38.0102068075808" lon="15.756624475132305"><ele>538.5</ele><time>2026-04-24T12:37:18.999Z</time></trkpt><trkpt lat="38.01034042973259" lon="15.756585192664676"><ele>541.0</ele><time>2026-04-24T12:37:21.999Z</time></trkpt><trkpt lat="38.0104083219353" lon="15.756471349308837"><ele>543.5</ele><time>2026-04-24T12:37:23.999Z</time></trkpt><trkpt lat="38.010366357229806" lon="15.75634295066046"><ele>546.0</ele><time>2026-04-24T12:37:24.999Z</time></trkpt><trkpt lat="38.01042120944859" lon="15.756212579553443"><ele>546.0</ele><time>2026-04-24T12:37:26.999Z</time></trkpt><trkpt lat="38.0104925424801" lon="15.756194167936044"><ele>546.0</ele><time>2026-04-24T12:37:27.999Z</time></trkpt><trkpt lat="38.01056040837037" lon="15.756154535554868"><ele>546.0</ele><time>2026-04-24T12:37:28.999Z</time></trkpt><trkpt lat="38.01063628128858" lon="15.756101172128053"><ele>546.0</ele><time>2026-04-24T12:37:29.999Z</time></trkpt><trkpt lat="38.01071929509018" lon="15.756053491638541"><ele>546.0</ele><time>2026-04-24T12:37:30.999Z</time></trkpt><trkpt lat="38.0108129140524" lon="15.75601767568776"><ele>546.0</ele><time>2026-04-24T12:37:31.999Z</time></trkpt><trkpt lat="38.01092373783976" lon="15.755983065684703"><ele>547.75</ele><time>2026-04-24T12:37:32.999Z</time></trkpt><trkpt lat="38.011038158811516" lon="15.755939101091895"><ele>549.5</ele><time>2026-04-24T12:37:33.999Z</time></trkpt><trkpt lat="38.01115084454587" lon="15.755913268053856"><ele>551.25</ele><time>2026-04-24T12:37:34.998Z</time></trkpt><trkpt lat="38.011274826542646" lon="15.755904462157341"><ele>553.0</ele><time>2026-04-24T12:37:35.998Z</time></trkpt><trkpt lat="38.01139846138186" lon="15.755905570459122"><ele>553.0</ele><time>2026-04-24T12:37:36.998Z</time></trkpt><trkpt lat="38.011521179066136" lon="15.75591956740793"><ele>553.0</ele><time>2026-04-24T12:37:37.998Z</time></trkpt><trkpt lat="38.01162910659567" lon="15.755895530028868"><ele>553.0</ele><time>2026-04-24T12:37:38.999Z</time></trkpt><trkpt lat="38.01172471642103" lon="15.755888340153204"><ele>553.0</ele><time>2026-04-24T12:37:39.999Z</time></trkpt><trkpt lat="38.0118172751631" lon="15.75588242609852"><ele>553.0</ele><time>2026-04-24T12:37:40.999Z</time></trkpt><trkpt lat="38.01191428118314" lon="15.755877537613882"><ele>554.8</ele><time>2026-04-24T12:37:41.999Z</time></trkpt><trkpt lat="38.01202125657347" lon="15.755873005207683"><ele>556.5999999999999</ele><time>2026-04-24T12:37:42.999Z</time></trkpt><trkpt lat="38.012115633727966" lon="15.755837852928979"><ele>558.4000000000001</ele><time>2026-04-24T12:37:43.999Z</time></trkpt><trkpt lat="38.01221121056944" lon="15.75580070888545"><ele>560.2</ele><time>2026-04-24T12:37:44.999Z</time></trkpt><trkpt lat="38.01230609581462" lon="15.755779231051745"><ele>562.0</ele><time>2026-04-24T12:37:45.999Z</time></trkpt><trkpt lat="38.0123886423349" lon="15.755750415296276"><ele>562.0</ele><time>2026-04-24T12:37:46.999Z</time></trkpt><trkpt lat="38.012475291272324" lon="15.755721866266143"><ele>562.0</ele><time>2026-04-24T12:37:47.999Z</time></trkpt><trkpt lat="38.01255769768782" lon="15.75569733261906"><ele>562.0</ele><time>2026-04-24T12:37:48.999Z</time></trkpt><trkpt lat="38.01263903229926" lon="15.755677635579783"><ele>562.0</ele><time>2026-04-24T12:37:49.999Z</time></trkpt><trkpt lat="38.01271340342957" lon="15.755666204995503"><ele>562.0</ele><time>2026-04-24T12:37:50.999Z</time></trkpt><trkpt lat="38.01278654217279" lon="15.7556487136412"><ele>562.0</ele><time>2026-04-24T12:37:51.999Z</time></trkpt><trkpt lat="38.012854402865386" lon="15.755649200844442"><ele>563.5</ele><time>2026-04-24T12:37:52.999Z</time></trkpt><trkpt lat="38.0129265647277" lon="15.75567732369979"><ele>565.0</ele><time>2026-04-24T12:37:53.999Z</time></trkpt><trkpt lat="38.01299370197072" lon="15.755711834243886"><ele>566.5</ele><time>2026-04-24T12:37:54.999Z</time></trkpt><trkpt lat="38.01307884469282" lon="15.755724587835404"><ele>568.0</ele><time>2026-04-24T12:37:55.999Z</time></trkpt><trkpt lat="38.01316493424655" lon="15.75570246829368"><ele>569.5</ele><time>2026-04-24T12:37:56.999Z</time></trkpt><trkpt lat="38.01325215010867" lon="15.75569758243557"><ele>571.0</ele><time>2026-04-24T12:37:57.999Z</time></trkpt><trkpt lat="38.013331512937754" lon="15.75570028951305"><ele>572.8</ele><time>2026-04-24T12:37:58.999Z</time></trkpt><trkpt lat="38.013419349095464" lon="15.755708264511814"><ele>574.6</ele><time>2026-04-24T12:37:59.999Z</time></trkpt><trkpt lat="38.013520528928524" lon="15.755707847862782"><ele>576.4</ele><time>2026-04-24T12:38:00.999Z</time></trkpt><trkpt lat="38.01360474698426" lon="15.755692590619336"><ele>578.2</ele><time>2026-04-24T12:38:01.999Z</time></trkpt><trkpt lat="38.01368238244053" lon="15.755809257654048"><ele>580.0</ele><time>2026-04-24T12:38:02.999Z</time></trkpt><trkpt lat="38.01377746190431" lon="15.755832551401868"><ele>580.0</ele><time>2026-04-24T12:38:03.999Z</time></trkpt><trkpt lat="38.01387073932348" lon="15.75584493259906"><ele>580.0</ele><time>2026-04-24T12:38:04.999Z</time></trkpt><trkpt lat="38.01395603316623" lon="15.755855263964365"><ele>580.0</ele><time>2026-04-24T12:38:05.999Z</time></trkpt><trkpt lat="38.01404174406831" lon="15.755864222029647"><ele>580.0</ele><time>2026-04-24T12:38:06.999Z</time></trkpt><trkpt lat="38.01412580840343" lon="15.755872649397823"><ele>580.0</ele><time>2026-04-24T12:38:07.999Z</time></trkpt><trkpt lat="38.014209262362655" lon="15.755877271332338"><ele>580.0</ele><time>2026-04-24T12:38:08.999Z</time></trkpt><trkpt lat="38.01429677109721" lon="15.755849770378957"><ele>582.0</ele><time>2026-04-24T12:38:09.999Z</time></trkpt><trkpt lat="38.01438428794635" lon="15.755848519791916"><ele>584.0</ele><time>2026-04-24T12:38:10.999Z</time></trkpt><trkpt lat="38.01447897880537" lon="15.755843772388195"><ele>586.0</ele><time>2026-04-24T12:38:11.999Z</time></trkpt><trkpt lat="38.01457494922138" lon="15.755835825947116"><ele>588.0</ele><time>2026-04-24T12:38:12.999Z</time></trkpt><trkpt lat="38.01467477489308" lon="15.755810712667758"><ele>590.0</ele><time>2026-04-24T12:38:13.999Z</time></trkpt><trkpt lat="38.014777758851395" lon="15.755786669823388"><ele>590.0</ele><time>2026-04-24T12:38:14.999Z</time></trkpt><trkpt lat="38.01488274766029" lon="15.755766854469593"><ele>590.0</ele><time>2026-04-24T12:38:15.999Z</time></trkpt><trkpt lat="38.01497796519276" lon="15.755744394292629"><ele>590.0</ele><time>2026-04-24T12:38:16.999Z</time></trkpt><trkpt lat="38.015059086242324" lon="15.755728990386961"><ele>590.0</ele><time>2026-04-24T12:38:17.999Z</time></trkpt><trkpt lat="38.01512967186717" lon="15.75570449435148"><ele>590.0</ele><time>2026-04-24T12:38:18.999Z</time></trkpt><trkpt lat="38.01520976583824" lon="15.755665160103488"><ele>590.0</ele><time>2026-04-24T12:38:19.999Z</time></trkpt><trkpt lat="38.0152873002301" lon="15.75564038082981"><ele>591.8333333333333</ele><time>2026-04-24T12:38:20.999Z</time></trkpt><trkpt lat="38.01535056908499" lon="15.755626813962023"><ele>593.6666666666666</ele><time>2026-04-24T12:38:21.999Z</time></trkpt><trkpt lat="38.01546894231953" lon="15.755577193230641"><ele>595.5</ele><time>2026-04-24T12:38:23.999Z</time></trkpt><trkpt lat="38.01553272077758" lon="15.755498308935696"><ele>597.3333333333334</ele><time>2026-04-24T12:38:25.999Z</time></trkpt><trkpt lat="38.015596779574444" lon="15.755427434307785"><ele>599.1666666666667</ele><time>2026-04-24T12:38:27.999Z</time></trkpt><trkpt lat="38.01565718442661" lon="15.755361710624449"><ele>601.0</ele><time>2026-04-24T12:38:29.999Z</time></trkpt><trkpt lat="38.01570924011891" lon="15.755315823284441"><ele>601.0</ele><time>2026-04-24T12:39:15Z</time></trkpt><trkpt lat="38.01579426412334" lon="15.755227094711936"><ele>601.0</ele><time>2026-04-24T12:39:17Z</time></trkpt><trkpt lat="38.01584832959595" lon="15.755173370193216"><ele>601.0</ele><time>2026-04-24T12:39:18Z</time></trkpt><trkpt lat="38.01590282247592" lon="15.75512996664277"><ele>601.0</ele><time>2026-04-24T12:39:19Z</time></trkpt><trkpt lat="38.015972181140945" lon="15.755076291728887"><ele>601.0</ele><time>2026-04-24T12:39:20Z</time></trkpt><trkpt lat="38.016037797195985" lon="15.755004924448636"><ele>601.0</ele><time>2026-04-24T12:39:21Z</time></trkpt><trkpt lat="38.01609712877524" lon="15.754952234951633"><ele>602.2</ele><time>2026-04-24T12:39:22Z</time></trkpt><trkpt lat="38.016171192540256" lon="15.754886173627991"><ele>603.4000000000001</ele><time>2026-04-24T12:39:23Z</time></trkpt><trkpt lat="38.01625505067284" lon="15.754814505062562"><ele>604.6</ele><time>2026-04-24T12:39:24Z</time></trkpt><trkpt lat="38.016342635537995" lon="15.754750155744604"><ele>605.8000000000001</ele><time>2026-04-24T12:39:25Z</time></trkpt><trkpt lat="38.016394020307146" lon="15.754683977920589"><ele>607.0</ele><time>2026-04-24T12:39:26Z</time></trkpt><trkpt lat="38.016446578788134" lon="15.75458501275737"><ele>607.0</ele><time>2026-04-24T12:39:27Z</time></trkpt><trkpt lat="38.01648150209092" lon="15.75446854418356"><ele>607.0</ele><time>2026-04-24T12:39:28Z</time></trkpt><trkpt lat="38.0165009994894" lon="15.754347414404606"><ele>607.0</ele><time>2026-04-24T12:39:28.999Z</time></trkpt><trkpt lat="38.01655010905677" lon="15.75425371217946"><ele>607.0</ele><time>2026-04-24T12:39:29.999Z</time></trkpt><trkpt lat="38.01658922574058" lon="15.754152137779974"><ele>607.0</ele><time>2026-04-24T12:39:31.999Z</time></trkpt><trkpt lat="38.016638546923865" lon="15.75408461956392"><ele>607.0</ele><time>2026-04-24T12:39:33.999Z</time></trkpt><trkpt lat="38.01670090851615" lon="15.753937392771013"><ele>612.6666666666667</ele><time>2026-04-24T12:39:35.999Z</time></trkpt><trkpt lat="38.01670345673253" lon="15.753780980933064"><ele>618.3333333333334</ele><time>2026-04-24T12:39:37.999Z</time></trkpt><trkpt lat="38.016744256777606" lon="15.753682890172184"><ele>624.0</ele><time>2026-04-24T12:39:38.999Z</time></trkpt><trkpt lat="38.01714682373231" lon="15.75374068095071"><ele>624.0</ele><time>2026-04-24T12:39:39.999Z</time></trkpt><trkpt lat="38.01723091549515" lon="15.753653475070138"><ele>624.0</ele><time>2026-04-24T12:39:40.999Z</time></trkpt><trkpt lat="38.01731566048765" lon="15.753565383719959"><ele>624.0</ele><time>2026-04-24T12:39:41.999Z</time></trkpt><trkpt lat="38.01739502949824" lon="15.753478922523387"><ele>624.0</ele><time>2026-04-24T12:39:42.999Z</time></trkpt><trkpt lat="38.01747506565239" lon="15.753410860296272"><ele>624.0</ele><time>2026-04-24T12:39:43.999Z</time></trkpt><trkpt lat="38.01755274675581" lon="15.753362129093892"><ele>627.0</ele><time>2026-04-24T12:39:45Z</time></trkpt><trkpt lat="38.01763386639358" lon="15.75332148455897"><ele>630.0</ele><time>2026-04-24T12:39:46Z</time></trkpt><trkpt lat="38.01771119483415" lon="15.753270328657262"><ele>633.0</ele><time>2026-04-24T12:39:47Z</time></trkpt><trkpt lat="38.01779702902527" lon="15.753213739010997"><ele>636.0</ele><time>2026-04-24T12:39:48Z</time></trkpt><trkpt lat="38.017881619273936" lon="15.753159255638531"><ele>639.0</ele><time>2026-04-24T12:39:49Z</time></trkpt><trkpt lat="38.01794861823069" lon="15.75310666550625"><ele>642.0</ele><time>2026-04-24T12:39:50Z</time></trkpt><trkpt lat="38.01800103267357" lon="15.753047555674259"><ele>642.0</ele><time>2026-04-24T12:39:51Z</time></trkpt><trkpt lat="38.01804035286936" lon="15.752973457859762"><ele>642.0</ele><time>2026-04-24T12:39:52Z</time></trkpt><trkpt lat="38.01809133903261" lon="15.752880649770544"><ele>642.0</ele><time>2026-04-24T12:39:53Z</time></trkpt><trkpt lat="38.01816584750325" lon="15.75279449327503"><ele>642.0</ele><time>2026-04-24T12:39:54Z</time></trkpt><trkpt lat="38.018246037745065" lon="15.752710055142819"><ele>642.0</ele><time>2026-04-24T12:39:55Z</time></trkpt><trkpt lat="38.01833116049702" lon="15.752627409195266"><ele>644.8</ele><time>2026-04-24T12:39:56Z</time></trkpt><trkpt lat="38.01842173861463" lon="15.752528796529221"><ele>647.6</ele><time>2026-04-24T12:39:57Z</time></trkpt><trkpt lat="38.01850293046747" lon="15.752438267121782"><ele>650.4</ele><time>2026-04-24T12:39:58Z</time></trkpt><trkpt lat="38.01857403415528" lon="15.752354583073194"><ele>653.1999999999999</ele><time>2026-04-24T12:39:59Z</time></trkpt><trkpt lat="38.01863360949307" lon="15.752296763975906"><ele>656.0</ele><time>2026-04-24T12:40:00Z</time></trkpt><trkpt lat="38.01870074622892" lon="15.752245292719923"><ele>656.0</ele><time>2026-04-24T12:40:01Z</time></trkpt><trkpt lat="38.01877619693947" lon="15.752197929150764"><ele>656.0</ele><time>2026-04-24T12:40:02Z</time></trkpt><trkpt lat="38.01886799387965" lon="15.752148612112803"><ele>656.0</ele><time>2026-04-24T12:40:03Z</time></trkpt><trkpt lat="38.018953623582945" lon="15.752099408436612"><ele>656.0</ele><time>2026-04-24T12:40:04Z</time></trkpt><trkpt lat="38.01904192811186" lon="15.752024066645397"><ele>656.0</ele><time>2026-04-24T12:40:05Z</time></trkpt><trkpt lat="38.01913942194863" lon="15.751937838232848"><ele>657.5999999999999</ele><time>2026-04-24T12:40:06Z</time></trkpt><trkpt lat="38.019205076141745" lon="15.75188602712117"><ele>659.2</ele><time>2026-04-24T12:40:07Z</time></trkpt><trkpt lat="38.01927691961332" lon="15.751796226589839"><ele>660.8</ele><time>2026-04-24T12:40:09Z</time></trkpt><trkpt lat="38.0193287347805" lon="15.751700952519379"><ele>662.4000000000001</ele><time>2026-04-24T12:40:11Z</time></trkpt><trkpt lat="38.019393911288574" lon="15.751687663020732"><ele>664.0</ele><time>2026-04-24T12:40:13Z</time></trkpt><trkpt lat="38.01950811057784" lon="15.751741364311384"><ele>664.0</ele><time>2026-04-24T12:40:15Z</time></trkpt><trkpt lat="38.01956727453063" lon="15.751812591219803"><ele>664.0</ele><time>2026-04-24T12:40:16Z</time></trkpt><trkpt lat="38.01963606851504" lon="15.751882063532285"><ele>664.0</ele><time>2026-04-24T12:40:17Z</time></trkpt><trkpt lat="38.01973291799945" lon="15.751935818260606"><ele>664.0</ele><time>2026-04-24T12:40:18Z</time></trkpt><trkpt lat="38.019820819397005" lon="15.751966996106395"><ele>664.0</ele><time>2026-04-24T12:40:19Z</time></trkpt><trkpt lat="38.0198840405223" lon="15.751979340823107"><ele>664.0</ele><time>2026-04-24T12:40:20Z</time></trkpt><trkpt lat="38.02000296127731" lon="15.751944480683383"><ele>665.0</ele><time>2026-04-24T12:40:22Z</time></trkpt><trkpt lat="38.02005910319454" lon="15.751984707635438"><ele>666.0</ele><time>2026-04-24T12:40:24Z</time></trkpt><trkpt lat="38.020034353685915" lon="15.752072591437017"><ele>667.0</ele><time>2026-04-24T12:40:26Z</time></trkpt><trkpt lat="38.01999072842992" lon="15.752134432584345"><ele>668.0</ele><time>2026-04-24T12:40:28Z</time></trkpt><trkpt lat="38.0199092254954" lon="15.75216543251631"><ele>669.0</ele><time>2026-04-24T12:40:31Z</time></trkpt><trkpt lat="38.01980323115024" lon="15.752206210659939"><ele>670.0</ele><time>2026-04-24T12:40:33Z</time></trkpt><trkpt lat="38.01974253553971" lon="15.752233824832032"><ele>670.0</ele><time>2026-04-24T12:40:35Z</time></trkpt><trkpt lat="38.019682130738225" lon="15.752357266966769"><ele>670.0</ele><time>2026-04-24T12:41:44Z</time></trkpt><trkpt lat="38.01960586041177" lon="15.752392065963514"><ele>670.0</ele><time>2026-04-24T12:41:45.999Z</time></trkpt><trkpt lat="38.01959037770061" lon="15.75255496627434"><ele>670.0</ele><time>2026-04-24T12:41:46.999Z</time></trkpt><trkpt lat="38.01956108415762" lon="15.752657678171914"><ele>670.0</ele><time>2026-04-24T12:41:47.999Z</time></trkpt><trkpt lat="38.01953184141624" lon="15.752769764056179"><ele>674.4</ele><time>2026-04-24T12:41:48.999Z</time></trkpt><trkpt lat="38.019507522661534" lon="15.7528759714197"><ele>678.8</ele><time>2026-04-24T12:41:49.999Z</time></trkpt><trkpt lat="38.01950430850424" lon="15.752959313184526"><ele>683.2</ele><time>2026-04-24T12:41:51Z</time></trkpt><trkpt lat="38.019571385113196" lon="15.753059075356262"><ele>687.6</ele><time>2026-04-24T12:41:53Z</time></trkpt><trkpt lat="38.01968994614384" lon="15.75300979319654"><ele>692.0</ele><time>2026-04-24T12:41:55Z</time></trkpt><trkpt lat="38.01975138810425" lon="15.752952682572873"><ele>692.0</ele><time>2026-04-24T12:41:56Z</time></trkpt><trkpt lat="38.01981291542109" lon="15.752915086513466"><ele>692.0</ele><time>2026-04-24T12:41:57Z</time></trkpt><trkpt lat="38.019882214196095" lon="15.752896995010001"><ele>692.0</ele><time>2026-04-24T12:41:58Z</time></trkpt><trkpt lat="38.01996166907841" lon="15.752878996519485"><ele>692.0</ele><time>2026-04-24T12:41:59Z</time></trkpt><trkpt lat="38.020051141264666" lon="15.7528466035805"><ele>692.0</ele><time>2026-04-24T12:42:00Z</time></trkpt><trkpt lat="38.020161296687434" lon="15.752802542662613"><ele>692.0</ele><time>2026-04-24T12:42:01Z</time></trkpt><trkpt lat="38.02026458439775" lon="15.752775697076931"><ele>693.1666666666666</ele><time>2026-04-24T12:42:02Z</time></trkpt><trkpt lat="38.020365746776775" lon="15.752755706995144"><ele>694.3333333333333</ele><time>2026-04-24T12:42:03Z</time></trkpt><trkpt lat="38.0204508813747" lon="15.752724706693396"><ele>695.5</ele><time>2026-04-24T12:42:04Z</time></trkpt><trkpt lat="38.02052044617858" lon="15.752687662086979"><ele>696.6666666666666</ele><time>2026-04-24T12:42:05Z</time></trkpt><trkpt lat="38.02059378385595" lon="15.752630889881232"><ele>697.8333333333334</ele><time>2026-04-24T12:42:06Z</time></trkpt><trkpt lat="38.02066493404874" lon="15.752583510134782"><ele>699.0</ele><time>2026-04-24T12:42:07Z</time></trkpt><trkpt lat="38.02072488067124" lon="15.752529149515652"><ele>699.0</ele><time>2026-04-24T12:42:08Z</time></trkpt><trkpt lat="38.0207698054576" lon="15.752428361726372"><ele>699.0</ele><time>2026-04-24T12:42:09Z</time></trkpt><trkpt lat="38.020788930470026" lon="15.752323413565772"><ele>699.0</ele><time>2026-04-24T12:42:10Z</time></trkpt><trkpt lat="38.02084146464969" lon="15.752208651605695"><ele>699.0</ele><time>2026-04-24T12:42:12Z</time></trkpt><trkpt lat="38.020902073035266" lon="15.752179408521982"><ele>699.0</ele><time>2026-04-24T12:42:13Z</time></trkpt><trkpt lat="38.02099850643862" lon="15.75219211406767"><ele>699.0</ele><time>2026-04-24T12:42:15Z</time></trkpt><trkpt lat="38.021036026491316" lon="15.752289227489882"><ele>704.2</ele><time>2026-04-24T12:42:17Z</time></trkpt><trkpt lat="38.021047078683765" lon="15.752454362824116"><ele>709.4000000000001</ele><time>2026-04-24T12:42:19Z</time></trkpt><trkpt lat="38.02105269622424" lon="15.75253805979436"><ele>714.6</ele><time>2026-04-24T12:42:20Z</time></trkpt><trkpt lat="38.021046481293666" lon="15.752646626657093"><ele>719.8</ele><time>2026-04-24T12:42:21Z</time></trkpt><trkpt lat="38.021024758641204" lon="15.752740633743272"><ele>725.0</ele><time>2026-04-24T12:42:22Z</time></trkpt><trkpt lat="38.02097707768335" lon="15.752879675443362"><ele>724.2857142857143</ele><time>2026-04-24T12:42:24Z</time></trkpt><trkpt lat="38.020950644552634" lon="15.752957672160925"><ele>723.5714285714287</ele><time>2026-04-24T12:42:25Z</time></trkpt><trkpt lat="38.02091196973773" lon="15.75304924638218"><ele>722.8571428571429</ele><time>2026-04-24T12:42:26Z</time></trkpt><trkpt lat="38.020868304442594" lon="15.75311877382923"><ele>722.1428571428571</ele><time>2026-04-24T12:42:27Z</time></trkpt><trkpt lat="38.02082057267772" lon="15.753193793655086"><ele>721.4285714285714</ele><time>2026-04-24T12:42:28Z</time></trkpt><trkpt lat="38.020786368302865" lon="15.753270805543114"><ele>720.7142857142857</ele><time>2026-04-24T12:42:29Z</time></trkpt><trkpt lat="38.02077035144215" lon="15.753356287656464"><ele>720.0</ele><time>2026-04-24T12:42:30Z</time></trkpt><trkpt lat="38.020779394334156" lon="15.75343971362469"><ele>720.0</ele><time>2026-04-24T12:42:31Z</time></trkpt><trkpt lat="38.02081506700977" lon="15.753524246675065"><ele>720.0</ele><time>2026-04-24T12:42:32Z</time></trkpt><trkpt lat="38.02085513305308" lon="15.753590043200154"><ele>720.0</ele><time>2026-04-24T12:42:33Z</time></trkpt><trkpt lat="38.020906462709945" lon="15.75365841212285"><ele>720.0</ele><time>2026-04-24T12:42:34Z</time></trkpt><trkpt lat="38.02096540365901" lon="15.753707890387103"><ele>720.0</ele><time>2026-04-24T12:42:35Z</time></trkpt><trkpt lat="38.02104173994019" lon="15.753740244922765"><ele>720.0</ele><time>2026-04-24T12:42:36Z</time></trkpt><trkpt lat="38.021104789476965" lon="15.753744746696512"><ele>720.0</ele><time>2026-04-24T12:42:37Z</time></trkpt><trkpt lat="38.02118204254625" lon="15.753705460225522"><ele>723.8333333333334</ele><time>2026-04-24T12:42:51Z</time></trkpt><trkpt lat="38.02126698118704" lon="15.75371652128579"><ele>727.6666666666666</ele><time>2026-04-24T12:42:53Z</time></trkpt><trkpt lat="38.02132459855359" lon="15.753776842905802"><ele>731.5</ele><time>2026-04-24T12:42:55Z</time></trkpt><trkpt lat="38.02139573175748" lon="15.75378183573536"><ele>735.3333333333333</ele><time>2026-04-24T12:43:00Z</time></trkpt><trkpt lat="38.02150868121823" lon="15.75368042866577"><ele>739.1666666666666</ele><time>2026-04-24T12:43:02Z</time></trkpt><trkpt lat="38.02156981351017" lon="15.75364974966179"><ele>743.0</ele><time>2026-04-24T12:43:03Z</time></trkpt><trkpt lat="38.02165035845553" lon="15.75362544618702"><ele>744.8</ele><time>2026-04-24T12:43:04Z</time></trkpt><trkpt lat="38.02174529911702" lon="15.753606514259962"><ele>746.5999999999999</ele><time>2026-04-24T12:43:05Z</time></trkpt><trkpt lat="38.02184543786586" lon="15.753585533384229"><ele>748.4000000000001</ele><time>2026-04-24T12:43:06Z</time></trkpt><trkpt lat="38.02195151820988" lon="15.753569982754353"><ele>750.2</ele><time>2026-04-24T12:43:07Z</time></trkpt><trkpt lat="38.022040653606346" lon="15.753568391913198"><ele>752.0</ele><time>2026-04-24T12:43:08Z</time></trkpt><trkpt lat="38.02211807723623" lon="15.753558187799783"><ele>752.0</ele><time>2026-04-24T12:43:09Z</time></trkpt><trkpt lat="38.022198488932375" lon="15.753551310374482"><ele>752.0</ele><time>2026-04-24T12:43:10Z</time></trkpt><trkpt lat="38.02228497717578" lon="15.753570106255593"><ele>752.0</ele><time>2026-04-24T12:43:11Z</time></trkpt><trkpt lat="38.02235316999105" lon="15.753584932116562"><ele>752.0</ele><time>2026-04-24T12:43:12Z</time></trkpt><trkpt lat="38.02242420211786" lon="15.753591482804064"><ele>752.0</ele><time>2026-04-24T12:43:13Z</time></trkpt><trkpt lat="38.02250082619146" lon="15.753597421315941"><ele>752.0</ele><time>2026-04-24T12:43:14Z</time></trkpt><trkpt lat="38.022578480524196" lon="15.753586417239394"><ele>753.8333333333333</ele><time>2026-04-24T12:43:15Z</time></trkpt><trkpt lat="38.02266488201366" lon="15.753578661858176"><ele>755.6666666666666</ele><time>2026-04-24T12:43:16Z</time></trkpt><trkpt lat="38.02274249674059" lon="15.753594400522035"><ele>757.5</ele><time>2026-04-24T12:43:17Z</time></trkpt><trkpt lat="38.0228071089347" lon="15.753624936217792"><ele>759.3333333333334</ele><time>2026-04-24T12:43:18Z</time></trkpt><trkpt lat="38.02290134221131" lon="15.753662575233728"><ele>761.1666666666667</ele><time>2026-04-24T12:43:19Z</time></trkpt><trkpt lat="38.022994514549666" lon="15.753688303908246"><ele>763.0</ele><time>2026-04-24T12:43:20Z</time></trkpt><trkpt lat="38.023064084493136" lon="15.753704477109151"><ele>763.0</ele><time>2026-04-24T12:43:21Z</time></trkpt><trkpt lat="38.023185277791534" lon="15.753708876088815"><ele>763.0</ele><time>2026-04-24T12:43:23Z</time></trkpt><trkpt lat="38.023306919123826" lon="15.753618258920289"><ele>763.0</ele><time>2026-04-24T12:43:25Z</time></trkpt><trkpt lat="38.023363331935435" lon="15.753553118188174"><ele>763.0</ele><time>2026-04-24T12:43:26Z</time></trkpt><trkpt lat="38.02341539372933" lon="15.753475775629664"><ele>763.0</ele><time>2026-04-24T12:43:27Z</time></trkpt><trkpt lat="38.02348130585268" lon="15.753371527866625"><ele>767.1666666666667</ele><time>2026-04-24T12:43:29Z</time></trkpt><trkpt lat="38.023549230530556" lon="15.753400285157626"><ele>771.3333333333334</ele><time>2026-04-24T12:43:31Z</time></trkpt><trkpt lat="38.02362332756066" lon="15.753462294824452"><ele>775.5</ele><time>2026-04-24T12:43:33Z</time></trkpt><trkpt lat="38.02367632524327" lon="15.753576166523585"><ele>779.6666666666667</ele><time>2026-04-24T12:43:35Z</time></trkpt><trkpt lat="38.02372147812927" lon="15.753636175509296"><ele>783.8333333333334</ele><time>2026-04-24T12:43:36Z</time></trkpt><trkpt lat="38.023764600616126" lon="15.753708142773913"><ele>788.0</ele><time>2026-04-24T12:43:37Z</time></trkpt><trkpt lat="38.02380540131141" lon="15.753777785983605"><ele>788.0</ele><time>2026-04-24T12:43:38Z</time></trkpt><trkpt lat="38.02389781068311" lon="15.753869263595405"><ele>788.0</ele><time>2026-04-24T12:43:40Z</time></trkpt><trkpt lat="38.02395943278147" lon="15.753903927202387"><ele>788.0</ele><time>2026-04-24T12:43:41Z</time></trkpt><trkpt lat="38.02402031758439" lon="15.753930637946318"><ele>788.0</ele><time>2026-04-24T12:43:42Z</time></trkpt><trkpt lat="38.02413237577313" lon="15.753903653568782"><ele>788.0</ele><time>2026-04-24T12:43:44Z</time></trkpt><trkpt lat="38.02422580105491" lon="15.753877190838203"><ele>793.4</ele><time>2026-04-24T12:43:45.999Z</time></trkpt><trkpt lat="38.02429411934698" lon="15.753964327566344"><ele>798.8</ele><time>2026-04-24T12:43:48.999Z</time></trkpt><trkpt lat="38.024403671184615" lon="15.754014011370458"><ele>804.2</ele><time>2026-04-24T12:43:50.999Z</time></trkpt><trkpt lat="38.02446538354433" lon="15.754038357924445"><ele>809.6</ele><time>2026-04-24T12:43:51.999Z</time></trkpt><trkpt lat="38.024536405891496" lon="15.754031209815874"><ele>815.0</ele><time>2026-04-24T12:43:52.999Z</time></trkpt><trkpt lat="38.02463784063235" lon="15.754053372376966"><ele>815.0</ele><time>2026-04-24T12:43:54.999Z</time></trkpt><trkpt lat="38.02472877103451" lon="15.754071944751994"><ele>815.0</ele><time>2026-04-24T12:43:57Z</time></trkpt><trkpt lat="38.02474949331706" lon="15.753952067968651"><ele>815.0</ele><time>2026-04-24T12:43:59Z</time></trkpt><trkpt lat="38.02473777110141" lon="15.753826049663504"><ele>815.0</ele><time>2026-04-24T12:44:01Z</time></trkpt><trkpt lat="38.02478448831148" lon="15.753714848450066"><ele>815.0</ele><time>2026-04-24T12:44:03Z</time></trkpt><trkpt lat="38.02486754674328" lon="15.7536873755512"><ele>815.0</ele><time>2026-04-24T12:44:05Z</time></trkpt><trkpt lat="38.02493810852647" lon="15.75368477129205"><ele>815.0</ele><time>2026-04-24T12:44:06Z</time></trkpt><trkpt lat="38.02500306234536" lon="15.753678093925194"><ele>815.0</ele><time>2026-04-24T12:44:07Z</time></trkpt><trkpt lat="38.02506636715103" lon="15.75365274159413"><ele>815.0</ele><time>2026-04-24T12:44:08Z</time></trkpt><trkpt lat="38.02512799672408" lon="15.753619787451541"><ele>815.0</ele><time>2026-04-24T12:44:09Z</time></trkpt><trkpt lat="38.02523308868398" lon="15.753638066812591"><ele>815.0</ele><time>2026-04-24T12:44:11Z</time></trkpt><trkpt lat="38.02529977786787" lon="15.753669733969064"><ele>815.0</ele><time>2026-04-24T12:44:12Z</time></trkpt><trkpt lat="38.02537451020724" lon="15.753686426911027"><ele>818.1666666666667</ele><time>2026-04-24T12:44:13Z</time></trkpt><trkpt lat="38.02549093909973" lon="15.753646544621366"><ele>821.3333333333334</ele><time>2026-04-24T12:44:15Z</time></trkpt><trkpt lat="38.025545763218524" lon="15.753597520383709"><ele>824.5</ele><time>2026-04-24T12:44:16Z</time></trkpt><trkpt lat="38.025608803459775" lon="15.753534411417474"><ele>827.6666666666667</ele><time>2026-04-24T12:44:17Z</time></trkpt><trkpt lat="38.02568045533987" lon="15.75347746794078"><ele>830.8333333333334</ele><time>2026-04-24T12:44:18Z</time></trkpt><trkpt lat="38.02575981840871" lon="15.753414625330109"><ele>834.0</ele><time>2026-04-24T12:44:19Z</time></trkpt><trkpt lat="38.02582768329815" lon="15.753343659557709"><ele>837.4000000000001</ele><time>2026-04-24T12:44:20Z</time></trkpt><trkpt lat="38.025897011689786" lon="15.753258229144796"><ele>840.8</ele><time>2026-04-24T12:44:21Z</time></trkpt><trkpt lat="38.02596167236565" lon="15.753186929548226"><ele>844.2</ele><time>2026-04-24T12:44:22Z</time></trkpt><trkpt lat="38.026013330074605" lon="15.753122882083364"><ele>847.5999999999999</ele><time>2026-04-24T12:44:23Z</time></trkpt><trkpt lat="38.02608961310768" lon="15.752994987464083"><ele>851.0</ele><time>2026-04-24T12:44:25Z</time></trkpt><trkpt lat="38.026136845920554" lon="15.752918828088433"><ele>851.0</ele><time>2026-04-24T12:44:26Z</time></trkpt><trkpt lat="38.026197379848604" lon="15.752868973692019"><ele>851.0</ele><time>2026-04-24T12:44:27Z</time></trkpt><trkpt lat="38.02628231709165" lon="15.75282939964475"><ele>851.0</ele><time>2026-04-24T12:44:28Z</time></trkpt><trkpt lat="38.02638651279523" lon="15.752789658449206"><ele>851.0</ele><time>2026-04-24T12:44:29Z</time></trkpt><trkpt lat="38.026480101175515" lon="15.752753341410344"><ele>851.0</ele><time>2026-04-24T12:44:30Z</time></trkpt><trkpt lat="38.02655592384876" lon="15.752718834149452"><ele>852.3333333333334</ele><time>2026-04-24T12:44:31Z</time></trkpt><trkpt lat="38.02662894351777" lon="15.752679993323811"><ele>853.6666666666667</ele><time>2026-04-24T12:44:32Z</time></trkpt><trkpt lat="38.026705866516764" lon="15.752651088567509"><ele>855.0</ele><time>2026-04-24T12:44:33Z</time></trkpt><trkpt lat="38.026795236081526" lon="15.752615622226488"><ele>856.3333333333333</ele><time>2026-04-24T12:44:34Z</time></trkpt><trkpt lat="38.02687808170203" lon="15.752570494385703"><ele>857.6666666666666</ele><time>2026-04-24T12:44:35Z</time></trkpt><trkpt lat="38.02694695551004" lon="15.752516515815065"><ele>859.0</ele><time>2026-04-24T12:44:36Z</time></trkpt><trkpt lat="38.02700692733526" lon="15.752485649918794"><ele>858.9999999999999</ele><time>2026-04-24T12:44:37Z</time></trkpt><trkpt lat="38.02707606611081" lon="15.75246975037065"><ele>859.0</ele><time>2026-04-24T12:44:38Z</time></trkpt><trkpt lat="38.02715369066931" lon="15.752475024990073"><ele>859.0</ele><time>2026-04-24T12:44:39Z</time></trkpt><trkpt lat="38.02723571128531" lon="15.752474002996129"><ele>859.0</ele><time>2026-04-24T12:44:40Z</time></trkpt><trkpt lat="38.0273099814283" lon="15.752455041388778"><ele>858.9999999999999</ele><time>2026-04-24T12:44:41Z</time></trkpt><trkpt lat="38.027387167372055" lon="15.752411987425882"><ele>859.0</ele><time>2026-04-24T12:44:42Z</time></trkpt><trkpt lat="38.0274821610999" lon="15.752371232696609"><ele>860.4000000000001</ele><time>2026-04-24T12:44:43Z</time></trkpt><trkpt lat="38.02756885419766" lon="15.752336545419391"><ele>861.8000000000001</ele><time>2026-04-24T12:44:44Z</time></trkpt><trkpt lat="38.027656081263046" lon="15.752273605067899"><ele>863.1999999999999</ele><time>2026-04-24T12:44:45Z</time></trkpt><trkpt lat="38.027737495681016" lon="15.752214616307814"><ele>864.5999999999999</ele><time>2026-04-24T12:44:46Z</time></trkpt><trkpt lat="38.02782224410439" lon="15.752179272189325"><ele>866.0</ele><time>2026-04-24T12:44:47Z</time></trkpt><trkpt lat="38.02790421918663" lon="15.752157995987373"><ele>866.0</ele><time>2026-04-24T12:44:48Z</time></trkpt><trkpt lat="38.027984314726396" lon="15.75213163317227"><ele>865.9999999999999</ele><time>2026-04-24T12:44:49Z</time></trkpt><trkpt lat="38.02807117548983" lon="15.752127088541236"><ele>865.9999999999999</ele><time>2026-04-24T12:44:51Z</time></trkpt><trkpt lat="38.02812490468634" lon="15.75202396694804"><ele>866.0</ele><time>2026-04-24T12:48:56Z</time></trkpt><trkpt lat="38.02818777583383" lon="15.751884535906493"><ele>866.0</ele><time>2026-04-24T12:48:58Z</time></trkpt><trkpt lat="38.02821611610011" lon="15.751789276010797"><ele>867.6666666666667</ele><time>2026-04-24T12:48:59Z</time></trkpt><trkpt lat="38.02825368166963" lon="15.751708389218125"><ele>869.3333333333334</ele><time>2026-04-24T12:49:00Z</time></trkpt><trkpt lat="38.02830304115634" lon="15.751651180710464"><ele>871.0</ele><time>2026-04-24T12:49:01Z</time></trkpt><trkpt lat="38.028421643474786" lon="15.751614828317818"><ele>872.6666666666667</ele><time>2026-04-24T12:49:03Z</time></trkpt><trkpt lat="38.02848973389538" lon="15.751597603799976"><ele>874.3333333333334</ele><time>2026-04-24T12:49:04Z</time></trkpt><trkpt lat="38.028550939551415" lon="15.751571228525465"><ele>876.0</ele><time>2026-04-24T12:49:05Z</time></trkpt><trkpt lat="38.028627708717536" lon="15.751502430526596"><ele>876.0</ele><time>2026-04-24T12:49:07Z</time></trkpt><trkpt lat="38.02868427234577" lon="15.751459580165958"><ele>875.9999999999999</ele><time>2026-04-24T12:49:08Z</time></trkpt><trkpt lat="38.02875356980084" lon="15.751401583398136"><ele>875.9999999999999</ele><time>2026-04-24T12:49:09Z</time></trkpt><trkpt lat="38.0288291317679" lon="15.751326765622368"><ele>876.0</ele><time>2026-04-24T12:49:10Z</time></trkpt><trkpt lat="38.028906013526885" lon="15.751236473955577"><ele>876.0</ele><time>2026-04-24T12:49:11Z</time></trkpt><trkpt lat="38.02899946260213" lon="15.751179905809991"><ele>876.0</ele><time>2026-04-24T12:49:12Z</time></trkpt><trkpt lat="38.029078415911506" lon="15.751095041474805"><ele>875.9999999999999</ele><time>2026-04-24T12:49:13Z</time></trkpt><trkpt lat="38.02914596839864" lon="15.751002080381086"><ele>875.9999999999999</ele><time>2026-04-24T12:49:14Z</time></trkpt><trkpt lat="38.02920650477501" lon="15.750907649523992"><ele>876.0</ele><time>2026-04-24T12:49:15Z</time></trkpt><trkpt lat="38.02926231251385" lon="15.750814826318493"><ele>876.0</ele><time>2026-04-24T12:49:16Z</time></trkpt><trkpt lat="38.02931187337721" lon="15.750721476182774"><ele>874.5</ele><time>2026-04-24T12:49:17Z</time></trkpt><trkpt lat="38.02935891526301" lon="15.750632730215585"><ele>873.0</ele><time>2026-04-24T12:49:18Z</time></trkpt><trkpt lat="38.02940690447038" lon="15.75053235532299"><ele>871.5</ele><time>2026-04-24T12:49:19Z</time></trkpt><trkpt lat="38.02945640540573" lon="15.750424928248329"><ele>870.0</ele><time>2026-04-24T12:49:20Z</time></trkpt><trkpt lat="38.02949725146509" lon="15.750317746568669"><ele>868.5</ele><time>2026-04-24T12:49:21Z</time></trkpt><trkpt lat="38.02952974957674" lon="15.750224868967223"><ele>867.0</ele><time>2026-04-24T12:49:22Z</time></trkpt><trkpt lat="38.0295586827479" lon="15.750147299988509"><ele>867.0</ele><time>2026-04-24T12:49:23Z</time></trkpt><trkpt lat="38.029620725325984" lon="15.750042152700798"><ele>867.0</ele><time>2026-04-24T12:49:25Z</time></trkpt><trkpt lat="38.02968710597516" lon="15.750004884327973"><ele>867.0</ele><time>2026-04-24T12:49:28Z</time></trkpt><trkpt lat="38.02980628704605" lon="15.750145804722449"><ele>867.0</ele><time>2026-04-24T12:49:29Z</time></trkpt><trkpt lat="38.02989561223976" lon="15.750228203828565"><ele>867.0</ele><time>2026-04-24T12:49:30Z</time></trkpt><trkpt lat="38.029985348017114" lon="15.750313891115601"><ele>866.8</ele><time>2026-04-24T12:49:31Z</time></trkpt><trkpt lat="38.030067681801604" lon="15.750414132877705"><ele>866.6</ele><time>2026-04-24T12:49:32Z</time></trkpt><trkpt lat="38.03015287705615" lon="15.750498301230195"><ele>866.3999999999999</ele><time>2026-04-24T12:49:33Z</time></trkpt><trkpt lat="38.03023414723104" lon="15.750576582891117"><ele>866.1999999999999</ele><time>2026-04-24T12:49:34Z</time></trkpt><trkpt lat="38.03030854053843" lon="15.75064562929507"><ele>866.0</ele><time>2026-04-24T12:49:35Z</time></trkpt><trkpt lat="38.030381797195616" lon="15.75071009105459"><ele>866.0000000000001</ele><time>2026-04-24T12:49:36Z</time></trkpt><trkpt lat="38.030451644985746" lon="15.750766716444197"><ele>866.0</ele><time>2026-04-24T12:49:37Z</time></trkpt><trkpt lat="38.03051874721425" lon="15.750824258624531"><ele>866.0</ele><time>2026-04-24T12:49:38Z</time></trkpt><trkpt lat="38.030589432190155" lon="15.750880218311174"><ele>866.0</ele><time>2026-04-24T12:49:39Z</time></trkpt><trkpt lat="38.030665961361194" lon="15.750932186948473"><ele>866.0000000000001</ele><time>2026-04-24T12:49:40Z</time></trkpt><trkpt lat="38.03074886606194" lon="15.750977154825971"><ele>866.0</ele><time>2026-04-24T12:49:41Z</time></trkpt><trkpt lat="38.0308198692998" lon="15.751052791094818"><ele>867.5999999999999</ele><time>2026-04-24T12:49:42Z</time></trkpt><trkpt lat="38.03090315001567" lon="15.751113035836138"><ele>869.1999999999999</ele><time>2026-04-24T12:49:43Z</time></trkpt><trkpt lat="38.03099706769787" lon="15.751163662867874"><ele>870.8000000000001</ele><time>2026-04-24T12:49:44Z</time></trkpt><trkpt lat="38.031067913213924" lon="15.7512602897353"><ele>872.4000000000001</ele><time>2026-04-24T12:49:45Z</time></trkpt><trkpt lat="38.031142758376355" lon="15.751360656958546"><ele>874.0</ele><time>2026-04-24T12:49:46Z</time></trkpt><trkpt lat="38.03120931524086" lon="15.751444670127652"><ele>874.0</ele><time>2026-04-24T12:49:47Z</time></trkpt><trkpt lat="38.03126484177686" lon="15.751501586820167"><ele>874.0000000000001</ele><time>2026-04-24T12:49:48Z</time></trkpt><trkpt lat="38.03134318699747" lon="15.751569572594308"><ele>874.0000000000001</ele><time>2026-04-24T12:49:50Z</time></trkpt><trkpt lat="38.03148082742582" lon="15.751497611067771"><ele>874.0</ele><time>2026-04-24T12:49:52Z</time></trkpt><trkpt lat="38.03155852629218" lon="15.751441327393005"><ele>874.0</ele><time>2026-04-24T12:49:53Z</time></trkpt><trkpt lat="38.03163914043629" lon="15.751360559421983"><ele>873.4000000000001</ele><time>2026-04-24T12:49:54Z</time></trkpt><trkpt lat="38.03172190248749" lon="15.75127678967277"><ele>872.8000000000001</ele><time>2026-04-24T12:49:55Z</time></trkpt><trkpt lat="38.03181696569877" lon="15.751204971014305"><ele>872.1999999999999</ele><time>2026-04-24T12:49:56Z</time></trkpt><trkpt lat="38.03191429360326" lon="15.751154704309288"><ele>871.5999999999999</ele><time>2026-04-24T12:49:57Z</time></trkpt><trkpt lat="38.03198509247485" lon="15.75117720750498"><ele>871.0</ele><time>2026-04-24T12:49:58Z</time></trkpt><trkpt lat="38.03205071050011" lon="15.751212283461147"><ele>871.0</ele><time>2026-04-24T12:49:59Z</time></trkpt><trkpt lat="38.032149355743925" lon="15.751240091012427"><ele>870.9999999999999</ele><time>2026-04-24T12:50:00Z</time></trkpt><trkpt lat="38.03225025725318" lon="15.751299006667445"><ele>870.9999999999999</ele><time>2026-04-24T12:50:01Z</time></trkpt><trkpt lat="38.03233358182841" lon="15.751343142467547"><ele>871.0</ele><time>2026-04-24T12:50:02Z</time></trkpt><trkpt lat="38.032434212622626" lon="15.751326112230636"><ele>871.0</ele><time>2026-04-24T12:50:03Z</time></trkpt><trkpt lat="38.03251186341646" lon="15.751266707582113"><ele>871.75</ele><time>2026-04-24T12:50:04Z</time></trkpt><trkpt lat="38.03259477604943" lon="15.751160803486218"><ele>872.5</ele><time>2026-04-24T12:50:05Z</time></trkpt><trkpt lat="38.03268780449897" lon="15.751022831599395"><ele>873.25</ele><time>2026-04-24T12:50:06Z</time></trkpt><trkpt lat="38.03278127677047" lon="15.75086290955762"><ele>874.0</ele><time>2026-04-24T12:50:07Z</time></trkpt><trkpt lat="38.03285965923861" lon="15.750728969994315"><ele>875.8333333333333</ele><time>2026-04-24T12:50:08Z</time></trkpt><trkpt lat="38.032929159556446" lon="15.750624452186186"><ele>877.6666666666666</ele><time>2026-04-24T12:50:09Z</time></trkpt><trkpt lat="38.03298140541762" lon="15.750544262479933"><ele>879.5</ele><time>2026-04-24T12:50:10Z</time></trkpt><trkpt lat="38.03304250648279" lon="15.750494653759986"><ele>881.3333333333333</ele><time>2026-04-24T12:50:11Z</time></trkpt><trkpt lat="38.033129142657906" lon="15.750499758401334"><ele>883.1666666666666</ele><time>2026-04-24T12:50:11.999Z</time></trkpt><trkpt lat="38.03322114873276" lon="15.75052904905558"><ele>885.0</ele><time>2026-04-24T12:50:12.999Z</time></trkpt><trkpt lat="38.03331748627069" lon="15.750543455297818"><ele>886.6666666666666</ele><time>2026-04-24T12:50:13.999Z</time></trkpt><trkpt lat="38.0334072133725" lon="15.750517408550914"><ele>888.3333333333333</ele><time>2026-04-24T12:50:15Z</time></trkpt><trkpt lat="38.03347251588248" lon="15.750497076451426"><ele>890.0</ele><time>2026-04-24T12:50:16Z</time></trkpt><trkpt lat="38.033541803342786" lon="15.750439863265113"><ele>891.6666666666666</ele><time>2026-04-24T12:50:17Z</time></trkpt><trkpt lat="38.03358099152321" lon="15.750348910706782"><ele>893.3333333333333</ele><time>2026-04-24T12:50:18Z</time></trkpt><trkpt lat="38.03357631056691" lon="15.75020433768314"><ele>895.0</ele><time>2026-04-24T12:50:19Z</time></trkpt><trkpt lat="38.033570907710896" lon="15.7500952120126"><ele>895.0</ele><time>2026-04-24T12:50:20Z</time></trkpt><trkpt lat="38.033592400760504" lon="15.749983277004299"><ele>895.0</ele><time>2026-04-24T12:50:22Z</time></trkpt><trkpt lat="38.03370108635104" lon="15.750066138064232"><ele>895.0</ele><time>2026-04-24T12:50:26Z</time></trkpt><trkpt lat="38.03370277904149" lon="15.750188567479231"><ele>895.0</ele><time>2026-04-24T12:50:27Z</time></trkpt><trkpt lat="38.03370111549741" lon="15.750279252694357"><ele>895.0</ele><time>2026-04-24T12:50:28Z</time></trkpt><trkpt lat="38.03368797772509" lon="15.750367721905198"><ele>894.9999999999999</ele><time>2026-04-24T12:50:29Z</time></trkpt><trkpt lat="38.03371183900251" lon="15.750486705603945"><ele>895.0</ele><time>2026-04-24T12:50:31Z</time></trkpt><trkpt lat="38.03377496346525" lon="15.7505848821374"><ele>895.0</ele><time>2026-04-24T12:50:33Z</time></trkpt><trkpt lat="38.033829162942745" lon="15.750632462078022"><ele>895.0</ele><time>2026-04-24T12:50:34Z</time></trkpt><trkpt lat="38.03388239321192" lon="15.750694198390297"><ele>894.9999999999999</ele><time>2026-04-24T12:50:35Z</time></trkpt><trkpt lat="38.03393938732735" lon="15.750765777105581"><ele>895.0</ele><time>2026-04-24T12:50:36Z</time></trkpt><trkpt lat="38.03400336488165" lon="15.750836988512821"><ele>895.0</ele><time>2026-04-24T12:50:37Z</time></trkpt><trkpt lat="38.0340651032197" lon="15.750921462124678"><ele>895.0</ele><time>2026-04-24T12:50:38Z</time></trkpt><trkpt lat="38.03413331336204" lon="15.751010042484541"><ele>895.0</ele><time>2026-04-24T12:50:39Z</time></trkpt><trkpt lat="38.034205125259334" lon="15.751120085833001"><ele>895.0</ele><time>2026-04-24T12:50:40Z</time></trkpt><trkpt lat="38.034293845873556" lon="15.751225820130772"><ele>895.0</ele><time>2026-04-24T12:50:41Z</time></trkpt><trkpt lat="38.03437980257964" lon="15.751319894768473"><ele>896.5</ele><time>2026-04-24T12:50:42Z</time></trkpt><trkpt lat="38.034463115284176" lon="15.751432206271092"><ele>898.0</ele><time>2026-04-24T12:50:43Z</time></trkpt><trkpt lat="38.03456898640923" lon="15.751522827200057"><ele>899.5</ele><time>2026-04-24T12:50:44Z</time></trkpt><trkpt lat="38.03464851087737" lon="15.751637086644099"><ele>901.0</ele><time>2026-04-24T12:50:45Z</time></trkpt><trkpt lat="38.034727023676865" lon="15.75174385952538"><ele>901.0</ele><time>2026-04-24T12:50:46Z</time></trkpt><trkpt lat="38.03478109988823" lon="15.75185178316111"><ele>900.9999999999999</ele><time>2026-04-24T12:50:47Z</time></trkpt><trkpt lat="38.03484179615427" lon="15.751938509792367"><ele>900.9999999999999</ele><time>2026-04-24T12:50:48Z</time></trkpt><trkpt lat="38.034909010734296" lon="15.751995424836775"><ele>901.0</ele><time>2026-04-24T12:50:49Z</time></trkpt><trkpt lat="38.03498748850522" lon="15.752028114233763"><ele>901.0</ele><time>2026-04-24T12:50:50Z</time></trkpt><trkpt lat="38.03508355258717" lon="15.752037183602885"><ele>900.25</ele><time>2026-04-24T12:50:51Z</time></trkpt><trkpt lat="38.035194675504535" lon="15.752025959634631"><ele>899.5</ele><time>2026-04-24T12:50:52Z</time></trkpt><trkpt lat="38.03531056559631" lon="15.752024016433392"><ele>898.75</ele><time>2026-04-24T12:50:53Z</time></trkpt><trkpt lat="38.035422602925465" lon="15.752042957911033"><ele>898.0</ele><time>2026-04-24T12:50:54Z</time></trkpt><trkpt lat="38.03553915958622" lon="15.752033379102633"><ele>898.0</ele><time>2026-04-24T12:50:55Z</time></trkpt><trkpt lat="38.035659295058444" lon="15.752003564788687"><ele>898.0</ele><time>2026-04-24T12:50:56Z</time></trkpt><trkpt lat="38.03576709478158" lon="15.751958061128569"><ele>898.0</ele><time>2026-04-24T12:50:57Z</time></trkpt><trkpt lat="38.03587153395528" lon="15.751913869293364"><ele>898.0</ele><time>2026-04-24T12:50:58Z</time></trkpt><trkpt lat="38.03596558879689" lon="15.751882814980746"><ele>898.0</ele><time>2026-04-24T12:50:59Z</time></trkpt><trkpt lat="38.03605084644829" lon="15.75187688873973"><ele>899.25</ele><time>2026-04-24T12:51:00Z</time></trkpt><trkpt lat="38.036156990872534" lon="15.751894400947043"><ele>900.5</ele><time>2026-04-24T12:51:01Z</time></trkpt><trkpt lat="38.0362985764471" lon="15.751935865208415"><ele>901.75</ele><time>2026-04-24T12:51:02Z</time></trkpt><trkpt lat="38.03646082208234" lon="15.751972565594304"><ele>903.0</ele><time>2026-04-24T12:51:03Z</time></trkpt><trkpt lat="38.03662318130663" lon="15.752008892121971"><ele>907.0</ele><time>2026-04-24T12:51:04Z</time></trkpt><trkpt lat="38.0367847631524" lon="15.75204462770699"><ele>911.0</ele><time>2026-04-24T12:51:05Z</time></trkpt><trkpt lat="38.03692366236104" lon="15.75206790233961"><ele>915.0</ele><time>2026-04-24T12:51:06Z</time></trkpt><trkpt lat="38.037073073562205" lon="15.75209822455957"><ele>915.0</ele><time>2026-04-24T12:51:07Z</time></trkpt><trkpt lat="38.037198057199625" lon="15.752150200042506"><ele>915.0</ele><time>2026-04-24T12:51:08Z</time></trkpt><trkpt lat="38.03731351303807" lon="15.752205845974236"><ele>915.0</ele><time>2026-04-24T12:51:09Z</time></trkpt><trkpt lat="38.03742333234081" lon="15.752246719984928"><ele>915.0</ele><time>2026-04-24T12:51:10Z</time></trkpt><trkpt lat="38.03753886700741" lon="15.75225747059917"><ele>916.4</ele><time>2026-04-24T12:51:11Z</time></trkpt><trkpt lat="38.037645843930925" lon="15.75224851072849"><ele>917.8</ele><time>2026-04-24T12:51:12Z</time></trkpt><trkpt lat="38.037729495257054" lon="15.75224063372955"><ele>919.2</ele><time>2026-04-24T12:51:13Z</time></trkpt><trkpt lat="38.037803270702256" lon="15.752228402955478"><ele>920.6</ele><time>2026-04-24T12:51:14Z</time></trkpt><trkpt lat="38.037869865191176" lon="15.752226670600615"><ele>922.0</ele><time>2026-04-24T12:51:15Z</time></trkpt><trkpt lat="38.03797351369654" lon="15.752315250068147"><ele>922.0</ele><time>2026-04-24T12:51:17Z</time></trkpt><trkpt lat="38.038010367589834" lon="15.752417370692884"><ele>922.0</ele><time>2026-04-24T12:51:18Z</time></trkpt><trkpt lat="38.038038343733966" lon="15.752530628095698"><ele>922.0</ele><time>2026-04-24T12:51:19Z</time></trkpt><trkpt lat="38.038064085381095" lon="15.752666524973172"><ele>922.0</ele><time>2026-04-24T12:51:20Z</time></trkpt><trkpt lat="38.03809825471473" lon="15.752818948817437"><ele>922.0</ele><time>2026-04-24T12:51:21Z</time></trkpt><trkpt lat="38.03815234907556" lon="15.752981843262353"><ele>921.5</ele><time>2026-04-24T12:51:22Z</time></trkpt><trkpt lat="38.038244234501796" lon="15.75315735975138"><ele>921.0</ele><time>2026-04-24T12:51:23Z</time></trkpt><trkpt lat="38.03830165737288" lon="15.753326986771285"><ele>920.5</ele><time>2026-04-24T12:51:24Z</time></trkpt><trkpt lat="38.03835769262005" lon="15.753464128457402"><ele>920.0</ele><time>2026-04-24T12:51:25Z</time></trkpt><trkpt lat="38.0384245411223" lon="15.753585930944734"><ele>920.0</ele><time>2026-04-24T12:51:26Z</time></trkpt><trkpt lat="38.03846991818632" lon="15.753709196786131"><ele>920.0</ele><time>2026-04-24T12:51:27Z</time></trkpt><trkpt lat="38.03854701570184" lon="15.75380511961267"><ele>920.0</ele><time>2026-04-24T12:51:28Z</time></trkpt><trkpt lat="38.03863217305169" lon="15.753878911225033"><ele>920.0</ele><time>2026-04-24T12:51:29Z</time></trkpt><trkpt lat="38.038713284317595" lon="15.753968651729055"><ele>920.0</ele><time>2026-04-24T12:51:30Z</time></trkpt><trkpt lat="38.038799226918464" lon="15.754058251186738"><ele>920.0</ele><time>2026-04-24T12:51:31Z</time></trkpt><trkpt lat="38.038889923802245" lon="15.754153256209191"><ele>920.0</ele><time>2026-04-24T12:51:32Z</time></trkpt><trkpt lat="38.03898073724" lon="15.754270485630544"><ele>920.0</ele><time>2026-04-24T12:51:33Z</time></trkpt><trkpt lat="38.039048431603405" lon="15.754408075967287"><ele>920.0</ele><time>2026-04-24T12:51:34Z</time></trkpt><trkpt lat="38.03909134188586" lon="15.75452464293894"><ele>921.0000000000001</ele><time>2026-04-24T12:51:35Z</time></trkpt><trkpt lat="38.03911389711128" lon="15.75462537724942"><ele>922.0</ele><time>2026-04-24T12:51:36Z</time></trkpt><trkpt lat="38.03912383906261" lon="15.754749909169567"><ele>923.0</ele><time>2026-04-24T12:51:37Z</time></trkpt><trkpt lat="38.0391297541478" lon="15.754871330669314"><ele>924.0</ele><time>2026-04-24T12:51:38Z</time></trkpt><trkpt lat="38.03914731833515" lon="15.7549695669506"><ele>925.0000000000001</ele><time>2026-04-24T12:51:39Z</time></trkpt><trkpt lat="38.03918788438615" lon="15.755071976793221"><ele>926.0</ele><time>2026-04-24T12:51:40Z</time></trkpt><trkpt lat="38.03924665090358" lon="15.755193239158643"><ele>925.25</ele><time>2026-04-24T12:51:41Z</time></trkpt><trkpt lat="38.039308035371484" lon="15.755332395027537"><ele>924.5</ele><time>2026-04-24T12:51:42Z</time></trkpt><trkpt lat="38.03937842663262" lon="15.755480312864945"><ele>923.75</ele><time>2026-04-24T12:51:43Z</time></trkpt><trkpt lat="38.03943556039492" lon="15.755641321246095"><ele>923.0</ele><time>2026-04-24T12:51:44Z</time></trkpt><trkpt lat="38.03948778075896" lon="15.755791931120449"><ele>923.0</ele><time>2026-04-24T12:51:45Z</time></trkpt><trkpt lat="38.039539198097025" lon="15.755942204763922"><ele>923.0</ele><time>2026-04-24T12:51:46Z</time></trkpt><trkpt lat="38.0395796125251" lon="15.756109044705056"><ele>923.0</ele><time>2026-04-24T12:51:47Z</time></trkpt><trkpt lat="38.039633325045806" lon="15.756265622669817"><ele>923.0</ele><time>2026-04-24T12:51:48Z</time></trkpt><trkpt lat="38.03968689296528" lon="15.756425292237086"><ele>922.75</ele><time>2026-04-24T12:51:49Z</time></trkpt><trkpt lat="38.039754278845756" lon="15.756565080151278"><ele>922.5</ele><time>2026-04-24T12:51:50Z</time></trkpt><trkpt lat="38.03981437907784" lon="15.75668214297659"><ele>922.25</ele><time>2026-04-24T12:51:51Z</time></trkpt><trkpt lat="38.03990824593169" lon="15.756789145363616"><ele>922.0</ele><time>2026-04-24T12:51:52Z</time></trkpt><trkpt lat="38.040001985186656" lon="15.756899715273121"><ele>924.25</ele><time>2026-04-24T12:51:53Z</time></trkpt><trkpt lat="38.04012090983912" lon="15.757006608957537"><ele>926.5</ele><time>2026-04-24T12:51:54Z</time></trkpt><trkpt lat="38.040246184494116" lon="15.757121839004416"><ele>928.75</ele><time>2026-04-24T12:51:55Z</time></trkpt><trkpt lat="38.04033905413" lon="15.757237540524208"><ele>931.0</ele><time>2026-04-24T12:51:56Z</time></trkpt><trkpt lat="38.0404364978433" lon="15.757348579883423"><ele>931.0</ele><time>2026-04-24T12:51:57Z</time></trkpt><trkpt lat="38.04052412495602" lon="15.757452050660586"><ele>931.0</ele><time>2026-04-24T12:51:58Z</time></trkpt><trkpt lat="38.04061347857045" lon="15.757550861984585"><ele>931.0</ele><time>2026-04-24T12:51:59Z</time></trkpt><trkpt lat="38.040671877813566" lon="15.757680884397193"><ele>931.0</ele><time>2026-04-24T12:52:00Z</time></trkpt><trkpt lat="38.04070630162487" lon="15.75783069272789"><ele>932.5999999999999</ele><time>2026-04-24T12:52:01Z</time></trkpt><trkpt lat="38.04072546991821" lon="15.757973221238045"><ele>934.1999999999999</ele><time>2026-04-24T12:52:02Z</time></trkpt><trkpt lat="38.04072042338458" lon="15.758105548297195"><ele>935.8000000000001</ele><time>2026-04-24T12:52:03Z</time></trkpt><trkpt lat="38.04068640666805" lon="15.758245704783748"><ele>937.4000000000001</ele><time>2026-04-24T12:52:04Z</time></trkpt><trkpt lat="38.040642869998216" lon="15.758367267041294"><ele>939.0</ele><time>2026-04-24T12:52:05Z</time></trkpt><trkpt lat="38.0405844803695" lon="15.758467649394662"><ele>939.0</ele><time>2026-04-24T12:52:06Z</time></trkpt><trkpt lat="38.04050500651076" lon="15.758581711184535"><ele>939.0000000000001</ele><time>2026-04-24T12:52:07Z</time></trkpt><trkpt lat="38.0404186577465" lon="15.758690651654339"><ele>939.0000000000001</ele><time>2026-04-24T12:52:08Z</time></trkpt><trkpt lat="38.04034301156433" lon="15.758774896920633"><ele>939.0</ele><time>2026-04-24T12:52:09Z</time></trkpt><trkpt lat="38.04027840397455" lon="15.758845357659197"><ele>939.0</ele><time>2026-04-24T12:52:10Z</time></trkpt><trkpt lat="38.0402017442531" lon="15.758916178452049"><ele>939.0</ele><time>2026-04-24T12:52:11Z</time></trkpt><trkpt lat="38.04011979486323" lon="15.758992985415684"><ele>939.0000000000001</ele><time>2026-04-24T12:52:12Z</time></trkpt><trkpt lat="38.040056500829536" lon="15.75912255810595"><ele>939.0000000000001</ele><time>2026-04-24T12:52:13Z</time></trkpt><trkpt lat="38.040002299591656" lon="15.759256838405943"><ele>939.0</ele><time>2026-04-24T12:52:14Z</time></trkpt><trkpt lat="38.039961663144005" lon="15.75934955776679"><ele>939.0</ele><time>2026-04-24T12:52:14.999Z</time></trkpt><trkpt lat="38.03988706755539" lon="15.759425129719222"><ele>938.2</ele><time>2026-04-24T12:52:16.999Z</time></trkpt><trkpt lat="38.03976677146595" lon="15.759378501462871"><ele>937.4000000000001</ele><time>2026-04-24T12:52:18.999Z</time></trkpt><trkpt lat="38.03968550643281" lon="15.759363785896833"><ele>936.6</ele><time>2026-04-24T12:52:19.999Z</time></trkpt><trkpt lat="38.03958026557512" lon="15.759392240470575"><ele>935.8</ele><time>2026-04-24T12:52:22Z</time></trkpt><trkpt lat="38.039533130304925" lon="15.75947313622542"><ele>935.0</ele><time>2026-04-24T12:52:23Z</time></trkpt><trkpt lat="38.0394861934477" lon="15.759576848266654"><ele>935.0000000000001</ele><time>2026-04-24T12:52:24Z</time></trkpt><trkpt lat="38.039440718827066" lon="15.759697120807772"><ele>935.0</ele><time>2026-04-24T12:52:25Z</time></trkpt><trkpt lat="38.03940230122114" lon="15.759785978136176"><ele>935.0</ele><time>2026-04-24T12:52:26Z</time></trkpt><trkpt lat="38.03936851028867" lon="15.759873492291135"><ele>935.0</ele><time>2026-04-24T12:52:27Z</time></trkpt><trkpt lat="38.039356197087585" lon="15.75996634153817"><ele>935.0000000000001</ele><time>2026-04-24T12:52:28Z</time></trkpt><trkpt lat="38.039342808858116" lon="15.760074131968798"><ele>935.0</ele><time>2026-04-24T12:52:29Z</time></trkpt><trkpt lat="38.03932071501698" lon="15.760177457471565"><ele>934.25</ele><time>2026-04-24T12:52:30Z</time></trkpt><trkpt lat="38.03931008325278" lon="15.76032425779986"><ele>933.5</ele><time>2026-04-24T12:52:32Z</time></trkpt><trkpt lat="38.03909974977438" lon="15.760390433042168"><ele>932.75</ele><time>2026-04-24T12:52:34Z</time></trkpt><trkpt lat="38.03903219928418" lon="15.760401804288568"><ele>932.0</ele><time>2026-04-24T12:52:35Z</time></trkpt><trkpt lat="38.03895744245707" lon="15.760390346237914"><ele>932.0</ele><time>2026-04-24T12:52:36Z</time></trkpt><trkpt lat="38.038865644611775" lon="15.760386920986065"><ele>932.0</ele><time>2026-04-24T12:52:37Z</time></trkpt><trkpt lat="38.03876416843982" lon="15.760387036268565"><ele>932.0</ele><time>2026-04-24T12:52:38Z</time></trkpt><trkpt lat="38.03866688822864" lon="15.760381270126858"><ele>932.0</ele><time>2026-04-24T12:52:39Z</time></trkpt><trkpt lat="38.03857819300754" lon="15.760373208568609"><ele>932.0</ele><time>2026-04-24T12:52:40Z</time></trkpt><trkpt lat="38.03849276670546" lon="15.76035040782869"><ele>932.0</ele><time>2026-04-24T12:52:41Z</time></trkpt><trkpt lat="38.03839784405305" lon="15.760308659281126"><ele>932.0</ele><time>2026-04-24T12:52:42Z</time></trkpt><trkpt lat="38.03830762071832" lon="15.760277273614761"><ele>932.0</ele><time>2026-04-24T12:52:43Z</time></trkpt><trkpt lat="38.03822329343294" lon="15.760262991943318"><ele>932.0</ele><time>2026-04-24T12:52:44Z</time></trkpt><trkpt lat="38.03815545612376" lon="15.760252286514072"><ele>932.0</ele><time>2026-04-24T12:52:45Z</time></trkpt><trkpt lat="38.03805391538806" lon="15.760284025355556"><ele>934.0000000000001</ele><time>2026-04-24T12:52:47Z</time></trkpt><trkpt lat="38.03803680422087" lon="15.760410988624757"><ele>936.0</ele><time>2026-04-24T12:52:49Z</time></trkpt><trkpt lat="38.03806951917267" lon="15.760508214796682"><ele>938.0</ele><time>2026-04-24T12:52:51Z</time></trkpt><trkpt lat="38.038067552591606" lon="15.760594175457513"><ele>940.0</ele><time>2026-04-24T12:52:53Z</time></trkpt><trkpt lat="38.03810973155928" lon="15.760690391927186"><ele>942.0000000000001</ele><time>2026-04-24T12:52:55Z</time></trkpt><trkpt lat="38.03819717117003" lon="15.760741629518146"><ele>944.0</ele><time>2026-04-24T12:52:57Z</time></trkpt><trkpt lat="38.03825445554222" lon="15.760795704392262"><ele>944.0000000000001</ele><time>2026-04-24T12:52:59Z</time></trkpt><trkpt lat="38.03829271270398" lon="15.76089520629703"><ele>944.0</ele><time>2026-04-24T12:53:03Z</time></trkpt><trkpt lat="38.03830433622544" lon="15.76098062223813"><ele>944.0</ele><time>2026-04-24T12:53:05Z</time></trkpt><trkpt lat="38.03832637772589" lon="15.761088504461847"><ele>944.0</ele><time>2026-04-24T12:53:07Z</time></trkpt><trkpt lat="38.03837469769618" lon="15.76118593652451"><ele>944.0000000000001</ele><time>2026-04-24T12:53:09Z</time></trkpt><trkpt lat="38.038420793403795" lon="15.761299654674621"><ele>944.0</ele><time>2026-04-24T12:53:11Z</time></trkpt><trkpt lat="38.03838486202479" lon="15.761420201357753"><ele>945.0</ele><time>2026-04-24T12:53:13Z</time></trkpt><trkpt lat="38.038341115172734" lon="15.761546346703499"><ele>946.0000000000001</ele><time>2026-04-24T12:53:15Z</time></trkpt><trkpt lat="38.03826602093855" lon="15.761631292431865"><ele>947.0000000000001</ele><time>2026-04-24T12:53:17Z</time></trkpt><trkpt lat="38.03819766447916" lon="15.761693533584985"><ele>948.0</ele><time>2026-04-24T12:53:19Z</time></trkpt><trkpt lat="38.038118139332816" lon="15.761764592837997"><ele>949.0</ele><time>2026-04-24T12:53:21Z</time></trkpt><trkpt lat="38.03804260815734" lon="15.761835001762327"><ele>949.0</ele><time>2026-04-24T12:53:23Z</time></trkpt><trkpt lat="38.03797594762532" lon="15.76188725432872"><ele>936.0</ele><time>2026-04-24T12:54:09.999Z</time></trkpt><trkpt lat="38.03790155139831" lon="15.76196751516675"><ele>936.0</ele><time>2026-04-24T12:54:11.999Z</time></trkpt><trkpt lat="38.03784159236869" lon="15.762003668477682"><ele>936.0</ele><time>2026-04-24T12:54:12.999Z</time></trkpt><trkpt lat="38.03774701324679" lon="15.762048606572227"><ele>936.0</ele><time>2026-04-24T12:54:14.999Z</time></trkpt></trkseg><trkseg><trkpt lat="38.037619886483014" lon="15.76201736734872"><ele>936.0</ele><time>2026-04-24T13:09:05.999Z</time></trkpt><trkpt lat="38.037568301205" lon="15.762075015849701"><ele>936.0</ele><time>2026-04-24T13:09:08.001Z</time></trkpt><trkpt lat="38.03748156762649" lon="15.762133591234829"><ele>936.0</ele><time>2026-04-24T13:09:20.001Z</time></trkpt><trkpt lat="38.03740105055156" lon="15.762158712159845"><ele>936.0</ele><time>2026-04-24T13:09:22Z</time></trkpt><trkpt lat="38.037333252571635" lon="15.762142405477322"><ele>936.0</ele><time>2026-04-24T13:09:41Z</time></trkpt><trkpt lat="38.0372529713171" lon="15.762133311913528"><ele>936.0</ele><time>2026-04-24T13:09:43Z</time></trkpt><trkpt lat="38.037164383584766" lon="15.762163923033684"><ele>938.3333333333334</ele><time>2026-04-24T13:10:09Z</time></trkpt><trkpt lat="38.03710043184535" lon="15.762193881559819"><ele>940.6666666666667</ele><time>2026-04-24T13:10:11Z</time></trkpt><trkpt lat="38.03702631510237" lon="15.762241612802521"><ele>943.0</ele><time>2026-04-24T13:10:14Z</time></trkpt><trkpt lat="38.036968008474474" lon="15.76227345035957"><ele>945.3333333333334</ele><time>2026-04-24T13:10:16Z</time></trkpt><trkpt lat="38.03687502662269" lon="15.762355856790245"><ele>947.6666666666667</ele><time>2026-04-24T13:10:18Z</time></trkpt><trkpt lat="38.03682216121491" lon="15.762408783450804"><ele>950.0</ele><time>2026-04-24T13:10:19Z</time></trkpt><trkpt lat="38.03676313331435" lon="15.762461199622637"><ele>950.0</ele><time>2026-04-24T13:10:20Z</time></trkpt><trkpt lat="38.03670194350355" lon="15.762509954723209"><ele>950.0</ele><time>2026-04-24T13:10:21Z</time></trkpt><trkpt lat="38.03662564628755" lon="15.762555412210672"><ele>950.0</ele><time>2026-04-24T13:10:22Z</time></trkpt><trkpt lat="38.03653711708135" lon="15.76259056885865"><ele>950.0</ele><time>2026-04-24T13:10:23Z</time></trkpt><trkpt lat="38.036425910305674" lon="15.762609917265683"><ele>950.0</ele><time>2026-04-24T13:10:24Z</time></trkpt><trkpt lat="38.03631515929077" lon="15.762633559829213"><ele>950.2</ele><time>2026-04-24T13:10:25Z</time></trkpt><trkpt lat="38.036220328934085" lon="15.762664164686226"><ele>950.4</ele><time>2026-04-24T13:10:26Z</time></trkpt><trkpt lat="38.036133959616265" lon="15.762715728486967"><ele>950.5999999999999</ele><time>2026-04-24T13:10:27Z</time></trkpt><trkpt lat="38.03604282168211" lon="15.762780932426196"><ele>950.8</ele><time>2026-04-24T13:10:28Z</time></trkpt><trkpt lat="38.03594680278151" lon="15.762855058079218"><ele>951.0</ele><time>2026-04-24T13:10:29Z</time></trkpt><trkpt lat="38.035869689031" lon="15.762895771532758"><ele>950.8333333333334</ele><time>2026-04-24T13:10:30Z</time></trkpt><trkpt lat="38.03576756937741" lon="15.762887542647206"><ele>950.6666666666667</ele><time>2026-04-24T13:10:32Z</time></trkpt><trkpt lat="38.03570502679087" lon="15.762865360461095"><ele>950.5</ele><time>2026-04-24T13:10:34Z</time></trkpt><trkpt lat="38.03573553697045" lon="15.762770353968872"><ele>950.3333333333334</ele><time>2026-04-24T13:10:38Z</time></trkpt><trkpt lat="38.03579244466534" lon="15.762698603159102"><ele>950.1666666666667</ele><time>2026-04-24T13:10:41Z</time></trkpt><trkpt lat="38.03573812503703" lon="15.762807522304913"><ele>950.0</ele><time>2026-04-24T13:11:15Z</time></trkpt><trkpt lat="38.03571343065337" lon="15.7628958849526"><ele>950.0000000000001</ele><time>2026-04-24T13:11:16Z</time></trkpt><trkpt lat="38.035683259850785" lon="15.762985210195705"><ele>950.0</ele><time>2026-04-24T13:11:17Z</time></trkpt><trkpt lat="38.03565654678823" lon="15.763060802975012"><ele>950.0</ele><time>2026-04-24T13:11:18Z</time></trkpt><trkpt lat="38.03559044206089" lon="15.76318957884817"><ele>950.0</ele><time>2026-04-24T13:11:20Z</time></trkpt><trkpt lat="38.035548456729266" lon="15.763249591013746"><ele>950.0000000000001</ele><time>2026-04-24T13:11:21Z</time></trkpt><trkpt lat="38.03550329306299" lon="15.763309719236966"><ele>950.0</ele><time>2026-04-24T13:11:22Z</time></trkpt><trkpt lat="38.03545456411637" lon="15.76337053655409"><ele>950.0000000000001</ele><time>2026-04-24T13:11:23Z</time></trkpt><trkpt lat="38.03540723697177" lon="15.763441543641063"><ele>950.0</ele><time>2026-04-24T13:11:24Z</time></trkpt><trkpt lat="38.03536552990049" lon="15.763527687253621"><ele>950.0</ele><time>2026-04-24T13:11:25Z</time></trkpt><trkpt lat="38.03533601273439" lon="15.763628705602539"><ele>950.0</ele><time>2026-04-24T13:11:26Z</time></trkpt><trkpt lat="38.035324776436575" lon="15.76374686102655"><ele>950.0000000000001</ele><time>2026-04-24T13:11:27Z</time></trkpt><trkpt lat="38.035334622302464" lon="15.763877343371455"><ele>950.0</ele><time>2026-04-24T13:11:28Z</time></trkpt><trkpt lat="38.03535570477795" lon="15.764026611252499"><ele>950.5</ele><time>2026-04-24T13:11:29Z</time></trkpt><trkpt lat="38.03536014572376" lon="15.764178947037722"><ele>951.0</ele><time>2026-04-24T13:11:30Z</time></trkpt><trkpt lat="38.03534130797653" lon="15.764337942708961"><ele>951.5</ele><time>2026-04-24T13:11:31Z</time></trkpt><trkpt lat="38.03530394872706" lon="15.764499272725073"><ele>952.0</ele><time>2026-04-24T13:11:32Z</time></trkpt><trkpt lat="38.03525803377624" lon="15.764674962787245"><ele>952.3333333333333</ele><time>2026-04-24T13:11:33Z</time></trkpt><trkpt lat="38.03520872263978" lon="15.76488133935521"><ele>952.6666666666667</ele><time>2026-04-24T13:11:34Z</time></trkpt><trkpt lat="38.03516067001932" lon="15.7650881216776"><ele>953.0</ele><time>2026-04-24T13:11:35Z</time></trkpt><trkpt lat="38.03510979990176" lon="15.765302408828473"><ele>955.0</ele><time>2026-04-24T13:11:36Z</time></trkpt><trkpt lat="38.03506996303888" lon="15.765542900416396"><ele>957.0</ele><time>2026-04-24T13:11:37Z</time></trkpt><trkpt lat="38.035030827990944" lon="15.7657720807951"><ele>959.0</ele><time>2026-04-24T13:11:38Z</time></trkpt><trkpt lat="38.034981820708126" lon="15.765988172241796"><ele>958.6666666666667</ele><time>2026-04-24T13:11:39Z</time></trkpt><trkpt lat="38.03493789363362" lon="15.766205078230868"><ele>958.3333333333333</ele><time>2026-04-24T13:11:40Z</time></trkpt><trkpt lat="38.03489603550241" lon="15.766427491809777"><ele>958.0</ele><time>2026-04-24T13:11:41Z</time></trkpt><trkpt lat="38.03484982262306" lon="15.766648659290045"><ele>958.0</ele><time>2026-04-24T13:11:42Z</time></trkpt><trkpt lat="38.034803479686424" lon="15.76685942459557"><ele>958.0</ele><time>2026-04-24T13:11:43Z</time></trkpt><trkpt lat="38.03475777579971" lon="15.767059374741637"><ele>958.0</ele><time>2026-04-24T13:11:44Z</time></trkpt><trkpt lat="38.03471221872393" lon="15.76725187585863"><ele>959.5</ele><time>2026-04-24T13:11:45Z</time></trkpt><trkpt lat="38.03465292095847" lon="15.767429212833758"><ele>961.0</ele><time>2026-04-24T13:11:46Z</time></trkpt><trkpt lat="38.034581784569454" lon="15.767584313135487"><ele>962.5</ele><time>2026-04-24T13:11:47Z</time></trkpt><trkpt lat="38.03451220975404" lon="15.767744365894591"><ele>964.0</ele><time>2026-04-24T13:11:48Z</time></trkpt><trkpt lat="38.03444403044148" lon="15.767902026386025"><ele>965.75</ele><time>2026-04-24T13:11:49Z</time></trkpt><trkpt lat="38.03437540707562" lon="15.768055050534247"><ele>967.5</ele><time>2026-04-24T13:11:50Z</time></trkpt><trkpt lat="38.03430377031852" lon="15.768202858198963"><ele>969.25</ele><time>2026-04-24T13:11:51Z</time></trkpt><trkpt lat="38.03423521185595" lon="15.768354664666568"><ele>971.0</ele><time>2026-04-24T13:11:52Z</time></trkpt><trkpt lat="38.03418320167162" lon="15.76848798707276"><ele>971.1666666666667</ele><time>2026-04-24T13:11:53Z</time></trkpt><trkpt lat="38.03414631727337" lon="15.768601643641025"><ele>971.3333333333334</ele><time>2026-04-24T13:11:54Z</time></trkpt><trkpt lat="38.034113947961224" lon="15.768678685558916"><ele>971.5</ele><time>2026-04-24T13:11:55Z</time></trkpt><trkpt lat="38.03406827161879" lon="15.76875763153841"><ele>971.6666666666667</ele><time>2026-04-24T13:11:57Z</time></trkpt><trkpt lat="38.03400450907661" lon="15.76881848280374"><ele>971.8333333333334</ele><time>2026-04-24T13:12:01Z</time></trkpt><trkpt lat="38.03391599655144" lon="15.768866666474304"><ele>972.0</ele><time>2026-04-24T13:12:37Z</time></trkpt><trkpt lat="38.03383768128738" lon="15.768925981059143"><ele>972.0</ele><time>2026-04-24T13:12:38Z</time></trkpt><trkpt lat="38.0337537702178" lon="15.769002977188991"><ele>972.0</ele><time>2026-04-24T13:12:39Z</time></trkpt><trkpt lat="38.03365945513466" lon="15.7690898628739"><ele>972.0</ele><time>2026-04-24T13:12:40Z</time></trkpt><trkpt lat="38.033528347398295" lon="15.769181518036623"><ele>972.0</ele><time>2026-04-24T13:12:41Z</time></trkpt><trkpt lat="38.03340995164187" lon="15.76924356364726"><ele>972.3333333333333</ele><time>2026-04-24T13:12:42Z</time></trkpt><trkpt lat="38.03326186967556" lon="15.769277348372206"><ele>972.6666666666666</ele><time>2026-04-24T13:12:42.999Z</time></trkpt><trkpt lat="38.03309797550719" lon="15.76928840159881"><ele>973.0</ele><time>2026-04-24T13:12:43.999Z</time></trkpt><trkpt lat="38.03291550371221" lon="15.769293584130097"><ele>973.0</ele><time>2026-04-24T13:12:44.999Z</time></trkpt><trkpt lat="38.032746638058654" lon="15.769302566325475"><ele>973.0</ele><time>2026-04-24T13:12:45.999Z</time></trkpt><trkpt lat="38.032621926754416" lon="15.769301588830219"><ele>973.0</ele><time>2026-04-24T13:12:46.999Z</time></trkpt><trkpt lat="38.032521204395294" lon="15.769299594032942"><ele>973.0</ele><time>2026-04-24T13:12:47.999Z</time></trkpt><trkpt lat="38.03244367426448" lon="15.769299487290263"><ele>972.8</ele><time>2026-04-24T13:12:48.999Z</time></trkpt><trkpt lat="38.0323821957375" lon="15.769324120740547"><ele>972.5999999999999</ele><time>2026-04-24T13:12:49.999Z</time></trkpt><trkpt lat="38.03230552435943" lon="15.76938909497203"><ele>972.4000000000001</ele><time>2026-04-24T13:12:50.999Z</time></trkpt><trkpt lat="38.032222834021205" lon="15.769498131337452"><ele>972.2</ele><time>2026-04-24T13:12:51.999Z</time></trkpt><trkpt lat="38.032167376076266" lon="15.769589466399594"><ele>972.0</ele><time>2026-04-24T13:12:52.999Z</time></trkpt><trkpt lat="38.03212366606521" lon="15.769698342998725"><ele>973.2</ele><time>2026-04-24T13:12:54.999Z</time></trkpt><trkpt lat="38.0321591650721" lon="15.769803361141927"><ele>974.4000000000001</ele><time>2026-04-24T13:12:56.999Z</time></trkpt><trkpt lat="38.03222150128643" lon="15.769888954085454"><ele>975.5999999999999</ele><time>2026-04-24T13:12:57.999Z</time></trkpt><trkpt lat="38.03230118737054" lon="15.769994527471095"><ele>976.8</ele><time>2026-04-24T13:12:58.999Z</time></trkpt><trkpt lat="38.032387385812015" lon="15.770140528292202"><ele>978.0</ele><time>2026-04-24T13:12:59.999Z</time></trkpt><trkpt lat="38.032470631294146" lon="15.770301567378983"><ele>980.0</ele><time>2026-04-24T13:13:00.999Z</time></trkpt><trkpt lat="38.03256259453027" lon="15.770472987084936"><ele>982.0</ele><time>2026-04-24T13:13:01.999Z</time></trkpt><trkpt lat="38.032660119090025" lon="15.770633432835242"><ele>984.0</ele><time>2026-04-24T13:13:02.999Z</time></trkpt><trkpt lat="38.03275926139211" lon="15.770794015939101"><ele>984.0</ele><time>2026-04-24T13:13:03.999Z</time></trkpt><trkpt lat="38.032845386695506" lon="15.770936846726268"><ele>984.0000000000001</ele><time>2026-04-24T13:13:04.999Z</time></trkpt><trkpt lat="38.0329109482181" lon="15.771052990579575"><ele>984.0000000000001</ele><time>2026-04-24T13:13:05.999Z</time></trkpt><trkpt lat="38.03295124336632" lon="15.771156532020758"><ele>984.0</ele><time>2026-04-24T13:13:06.999Z</time></trkpt><trkpt lat="38.03298030593068" lon="15.771260539447404"><ele>984.0</ele><time>2026-04-24T13:13:07.999Z</time></trkpt><trkpt lat="38.03297356002653" lon="15.771379248539455"><ele>986.75</ele><time>2026-04-24T13:13:08.999Z</time></trkpt><trkpt lat="38.03293396575526" lon="15.771509023762183"><ele>989.5</ele><time>2026-04-24T13:13:09.999Z</time></trkpt><trkpt lat="38.032892518980795" lon="15.771654516177685"><ele>992.25</ele><time>2026-04-24T13:13:10.999Z</time></trkpt><trkpt lat="38.032859323698005" lon="15.77180724272716"><ele>995.0</ele><time>2026-04-24T13:13:11.999Z</time></trkpt><trkpt lat="38.0328367462531" lon="15.771963553983039"><ele>995.0</ele><time>2026-04-24T13:13:12.999Z</time></trkpt><trkpt lat="38.032826253097994" lon="15.772116834383418"><ele>995.0</ele><time>2026-04-24T13:13:13.999Z</time></trkpt><trkpt lat="38.03280795230071" lon="15.77225886192063"><ele>995.0</ele><time>2026-04-24T13:13:14.999Z</time></trkpt><trkpt lat="38.032792193815744" lon="15.772375186125112"><ele>995.0</ele><time>2026-04-24T13:13:15.999Z</time></trkpt><trkpt lat="38.03277650396948" lon="15.772496452558647"><ele>995.0</ele><time>2026-04-24T13:13:16.999Z</time></trkpt><trkpt lat="38.03273633689346" lon="15.772633010606047"><ele>994.4</ele><time>2026-04-24T13:13:17.999Z</time></trkpt><trkpt lat="38.032679144016406" lon="15.772775551981564"><ele>993.8</ele><time>2026-04-24T13:13:18.999Z</time></trkpt><trkpt lat="38.032619426720125" lon="15.772889079536196"><ele>993.2</ele><time>2026-04-24T13:13:20Z</time></trkpt><trkpt lat="38.032566576281624" lon="15.772971299523928"><ele>992.6</ele><time>2026-04-24T13:13:21Z</time></trkpt><trkpt lat="38.032530007430786" lon="15.773051795192172"><ele>992.0</ele><time>2026-04-24T13:13:22Z</time></trkpt><trkpt lat="38.032513007928316" lon="15.773147071782304"><ele>992.0</ele><time>2026-04-24T13:13:23Z</time></trkpt><trkpt lat="38.03251770424494" lon="15.773264712678621"><ele>992.0</ele><time>2026-04-24T13:13:24Z</time></trkpt><trkpt lat="38.032555867816775" lon="15.773388203779358"><ele>992.0</ele><time>2026-04-24T13:13:25Z</time></trkpt><trkpt lat="38.03261086334012" lon="15.773511589727532"><ele>992.0</ele><time>2026-04-24T13:13:26Z</time></trkpt><trkpt lat="38.03264647601804" lon="15.773647804468043"><ele>992.0</ele><time>2026-04-24T13:13:27Z</time></trkpt><trkpt lat="38.03267279037716" lon="15.773816637901986"><ele>992.3333333333334</ele><time>2026-04-24T13:13:28Z</time></trkpt><trkpt lat="38.03269931436014" lon="15.774005191151414"><ele>992.6666666666667</ele><time>2026-04-24T13:13:29Z</time></trkpt><trkpt lat="38.03272699909105" lon="15.774253654195837"><ele>993.0</ele><time>2026-04-24T13:13:30Z</time></trkpt><trkpt lat="38.03276190887623" lon="15.774504888973889"><ele>993.0</ele><time>2026-04-24T13:13:31Z</time></trkpt><trkpt lat="38.03279639289204" lon="15.774723844246276"><ele>993.0</ele><time>2026-04-24T13:13:32Z</time></trkpt><trkpt lat="38.03282252648311" lon="15.774940236897868"><ele>993.0</ele><time>2026-04-24T13:13:33Z</time></trkpt><trkpt lat="38.03283701670272" lon="15.775132360113801"><ele>993.0</ele><time>2026-04-24T13:13:34Z</time></trkpt><trkpt lat="38.032843045914646" lon="15.775249124747763"><ele>993.0</ele><time>2026-04-24T13:13:35Z</time></trkpt><trkpt lat="38.032841709119275" lon="15.775151923110263"><ele>993.0</ele><time>2026-04-24T13:13:47Z</time></trkpt><trkpt lat="38.03282314074653" lon="15.775016609037271"><ele>993.0</ele><time>2026-04-24T13:13:49Z</time></trkpt><trkpt lat="38.032825943260754" lon="15.774921904519248"><ele>993.0</ele><time>2026-04-24T13:13:51Z</time></trkpt><trkpt lat="38.032901566104115" lon="15.774961517795036"><ele>993.0</ele><time>2026-04-24T13:14:39Z</time></trkpt><trkpt lat="38.03293057159722" lon="15.77505735533881"><ele>993.0</ele><time>2026-04-24T13:14:39.999Z</time></trkpt><trkpt lat="38.03296711498118" lon="15.775170735969695"><ele>993.0</ele><time>2026-04-24T13:14:41.999Z</time></trkpt><trkpt lat="38.03306634131401" lon="15.775187350799866"><ele>993.0</ele><time>2026-04-24T13:14:43.999Z</time></trkpt><trkpt lat="38.03314518895431" lon="15.775171778524388"><ele>993.0</ele><time>2026-04-24T13:14:44.999Z</time></trkpt><trkpt lat="38.03322215061156" lon="15.775152931199544"><ele>993.0</ele><time>2026-04-24T13:14:45.999Z</time></trkpt><trkpt lat="38.033290659219574" lon="15.775105355171272"><ele>993.0</ele><time>2026-04-24T13:14:46.999Z</time></trkpt><trkpt lat="38.033346634830565" lon="15.77503224664828"><ele>993.0</ele><time>2026-04-24T13:14:47.999Z</time></trkpt><trkpt lat="38.03346946278247" lon="15.77499576672992"><ele>993.0</ele><time>2026-04-24T13:14:49.999Z</time></trkpt><trkpt lat="38.03356094354661" lon="15.775005523908447"><ele>993.0</ele><time>2026-04-24T13:14:50.999Z</time></trkpt><trkpt lat="38.03364349732228" lon="15.775019253945413"><ele>993.0</ele><time>2026-04-24T13:14:51.999Z</time></trkpt><trkpt lat="38.03370601180208" lon="15.775051178808601"><ele>993.0</ele><time>2026-04-24T13:14:52.999Z</time></trkpt><trkpt lat="38.03379329597045" lon="15.775170191036601"><ele>994.2</ele><time>2026-04-24T13:14:54.999Z</time></trkpt><trkpt lat="38.03384580359322" lon="15.775255642884247"><ele>995.4</ele><time>2026-04-24T13:14:55.999Z</time></trkpt><trkpt lat="38.03390687477006" lon="15.77532642905301"><ele>996.6000000000001</ele><time>2026-04-24T13:14:56.999Z</time></trkpt><trkpt lat="38.03390018130162" lon="15.775460829247974"><ele>997.8000000000001</ele><time>2026-04-24T13:15:00.999Z</time></trkpt><trkpt lat="38.033923000656074" lon="15.775596436794064"><ele>999.0</ele><time>2026-04-24T13:15:02.999Z</time></trkpt><trkpt lat="38.033934751447454" lon="15.775681592395745"><ele>999.0</ele><time>2026-04-24T13:15:03.999Z</time></trkpt><trkpt lat="38.03392599817268" lon="15.775782275352576"><ele>999.0000000000001</ele><time>2026-04-24T13:15:04.999Z</time></trkpt><trkpt lat="38.03389792469444" lon="15.775875441459805"><ele>999.0000000000001</ele><time>2026-04-24T13:15:05.999Z</time></trkpt><trkpt lat="38.03384922139994" lon="15.775978459230966"><ele>999.0</ele><time>2026-04-24T13:15:06.999Z</time></trkpt><trkpt lat="38.03380750674504" lon="15.776101681085459"><ele>999.0</ele><time>2026-04-24T13:15:07.999Z</time></trkpt><trkpt lat="38.03377124352465" lon="15.77628156994795"><ele>999.8000000000001</ele><time>2026-04-24T13:15:08.999Z</time></trkpt><trkpt lat="38.033731273509325" lon="15.776454755357342"><ele>1000.6000000000001</ele><time>2026-04-24T13:15:09.999Z</time></trkpt><trkpt lat="38.03368954517602" lon="15.776571367833421"><ele>1001.4</ele><time>2026-04-24T13:15:10.999Z</time></trkpt><trkpt lat="38.033639337538084" lon="15.776691486238752"><ele>1002.2</ele><time>2026-04-24T13:15:11.999Z</time></trkpt><trkpt lat="38.03359739062583" lon="15.776797358422428"><ele>1003.0</ele><time>2026-04-24T13:15:12.999Z</time></trkpt><trkpt lat="38.03356707791106" lon="15.776875437341976"><ele>1002.9999999999999</ele><time>2026-04-24T13:15:13.999Z</time></trkpt><trkpt lat="38.03352767088478" lon="15.776969357025832"><ele>1003.0</ele><time>2026-04-24T13:15:15.999Z</time></trkpt><trkpt lat="38.033509960768704" lon="15.777065598948381"><ele>1003.0</ele><time>2026-04-24T13:15:16.999Z</time></trkpt><trkpt lat="38.03350645099515" lon="15.777177065569663"><ele>1003.0</ele><time>2026-04-24T13:15:17.999Z</time></trkpt><trkpt lat="38.03348761930487" lon="15.777309645587183"><ele>1002.9999999999999</ele><time>2026-04-24T13:15:18.999Z</time></trkpt><trkpt lat="38.03346906737893" lon="15.77740316978672"><ele>1003.0</ele><time>2026-04-24T13:15:19.999Z</time></trkpt><trkpt lat="38.033473029454484" lon="15.777504988549662"><ele>1002.9999999999999</ele><time>2026-04-24T13:15:21.999Z</time></trkpt><trkpt lat="38.03348304764919" lon="15.77763536943288"><ele>1003.0</ele><time>2026-04-24T13:15:26Z</time></trkpt><trkpt lat="38.03346658692373" lon="15.777544777895926"><ele>1003.0</ele><time>2026-04-24T13:16:00Z</time></trkpt><trkpt lat="38.03342683275078" lon="15.77747873751886"><ele>1003.0</ele><time>2026-04-24T13:16:04Z</time></trkpt><trkpt lat="38.03338205637805" lon="15.777538005280473"><ele>1002.9999999999999</ele><time>2026-04-24T13:16:34Z</time></trkpt><trkpt lat="38.03329389429468" lon="15.777657106357623"><ele>1003.0</ele><time>2026-04-24T13:16:36Z</time></trkpt><trkpt lat="38.03326125322878" lon="15.777738215366378"><ele>1004.0</ele><time>2026-04-24T13:16:37Z</time></trkpt><trkpt lat="38.033230529044374" lon="15.777812256174142"><ele>1005.0</ele><time>2026-04-24T13:16:38Z</time></trkpt><trkpt lat="38.03306891241829" lon="15.777868541547699"><ele>1006.0</ele><time>2026-04-24T13:16:39Z</time></trkpt><trkpt lat="38.03305491542387" lon="15.777999914475766"><ele>1007.0</ele><time>2026-04-24T13:16:41Z</time></trkpt><trkpt lat="38.03302145655335" lon="15.778078238431442"><ele>1008.0</ele><time>2026-04-24T13:16:43.999Z</time></trkpt><trkpt lat="38.03301288533149" lon="15.778164664655408"><ele>1008.0</ele><time>2026-04-24T13:16:45.999Z</time></trkpt><trkpt lat="38.033009193533374" lon="15.778256829667031"><ele>1008.0</ele><time>2026-04-24T13:16:46.999Z</time></trkpt><trkpt lat="38.03299440589865" lon="15.77835604558187"><ele>1008.0</ele><time>2026-04-24T13:16:47.999Z</time></trkpt><trkpt lat="38.032980297188416" lon="15.77846929464652"><ele>1008.0</ele><time>2026-04-24T13:16:48.999Z</time></trkpt><trkpt lat="38.03296720822158" lon="15.778599814286524"><ele>1008.0</ele><time>2026-04-24T13:16:49.999Z</time></trkpt><trkpt lat="38.0329521495683" lon="15.778746610502672"><ele>1008.25</ele><time>2026-04-24T13:16:50.999Z</time></trkpt><trkpt lat="38.03293087808729" lon="15.778903432955806"><ele>1008.5</ele><time>2026-04-24T13:16:51.999Z</time></trkpt><trkpt lat="38.03290325206225" lon="15.779064014153382"><ele>1008.75</ele><time>2026-04-24T13:16:52.999Z</time></trkpt><trkpt lat="38.03287645946546" lon="15.779223063857248"><ele>1009.0</ele><time>2026-04-24T13:16:53.999Z</time></trkpt><trkpt lat="38.03285491785071" lon="15.779370882616341"><ele>1010.0</ele><time>2026-04-24T13:16:54.999Z</time></trkpt><trkpt lat="38.03283865299797" lon="15.779514203796122"><ele>1011.0</ele><time>2026-04-24T13:16:55.999Z</time></trkpt><trkpt lat="38.03280761742697" lon="15.779650336167073"><ele>1012.0</ele><time>2026-04-24T13:16:56.999Z</time></trkpt><trkpt lat="38.03282946835472" lon="15.77979236715916"><ele>1013.0</ele><time>2026-04-24T13:16:57.999Z</time></trkpt><trkpt lat="38.03285905036028" lon="15.779938934948097"><ele>1013.0</ele><time>2026-04-24T13:16:58.999Z</time></trkpt><trkpt lat="38.032896888832255" lon="15.780105208471673"><ele>1013.0</ele><time>2026-04-24T13:16:59.999Z</time></trkpt><trkpt lat="38.03291435700646" lon="15.780263755625242"><ele>1013.0</ele><time>2026-04-24T13:17:00.999Z</time></trkpt><trkpt lat="38.03288604748281" lon="15.780403305141514"><ele>1013.0</ele><time>2026-04-24T13:17:01.999Z</time></trkpt><trkpt lat="38.032899489295886" lon="15.780550790078806"><ele>1013.25</ele><time>2026-04-24T13:17:02.999Z</time></trkpt><trkpt lat="38.03291269378871" lon="15.78069543079744"><ele>1013.5</ele><time>2026-04-24T13:17:03.999Z</time></trkpt><trkpt lat="38.03295613002381" lon="15.780842154960585"><ele>1013.75</ele><time>2026-04-24T13:17:04.999Z</time></trkpt><trkpt lat="38.033013058217655" lon="15.780996090708486"><ele>1014.0</ele><time>2026-04-24T13:17:05.999Z</time></trkpt><trkpt lat="38.033056251148814" lon="15.781148170116712"><ele>1013.4000000000001</ele><time>2026-04-24T13:17:06.999Z</time></trkpt><trkpt lat="38.03308116633099" lon="15.781285507352251"><ele>1012.8000000000001</ele><time>2026-04-24T13:17:07.999Z</time></trkpt><trkpt lat="38.03310809192346" lon="15.781407647698835"><ele>1012.1999999999999</ele><time>2026-04-24T13:17:08.999Z</time></trkpt><trkpt lat="38.03314558677989" lon="15.78151041466438"><ele>1011.5999999999999</ele><time>2026-04-24T13:17:09.999Z</time></trkpt><trkpt lat="38.03319948978614" lon="15.781590509931767"><ele>1011.0</ele><time>2026-04-24T13:17:10.999Z</time></trkpt><trkpt lat="38.03327756427319" lon="15.781651120838932"><ele>1009.75</ele><time>2026-04-24T13:17:11.999Z</time></trkpt><trkpt lat="38.03338504326573" lon="15.781707798732203"><ele>1008.5</ele><time>2026-04-24T13:17:12.999Z</time></trkpt><trkpt lat="38.033506658633065" lon="15.781795757161296"><ele>1007.25</ele><time>2026-04-24T13:17:13.999Z</time></trkpt><trkpt lat="38.03363831327612" lon="15.781861773429867"><ele>1006.0</ele><time>2026-04-24T13:17:14.999Z</time></trkpt><trkpt lat="38.03376565528876" lon="15.78192304543578"><ele>1002.5</ele><time>2026-04-24T13:17:15.999Z</time></trkpt><trkpt lat="38.033894897396856" lon="15.781969662458286"><ele>999.0</ele><time>2026-04-24T13:17:16.999Z</time></trkpt><trkpt lat="38.034021237435475" lon="15.782031773106956"><ele>995.5</ele><time>2026-04-24T13:17:17.999Z</time></trkpt><trkpt lat="38.0341459505288" lon="15.782104196687225"><ele>992.0</ele><time>2026-04-24T13:17:18.999Z</time></trkpt><trkpt lat="38.03426698353012" lon="15.782164305249974"><ele>992.0</ele><time>2026-04-24T13:17:19.999Z</time></trkpt><trkpt lat="38.034392021191756" lon="15.782217801230106"><ele>992.0</ele><time>2026-04-24T13:17:20.999Z</time></trkpt><trkpt lat="38.03450276163005" lon="15.782326970917293"><ele>992.0</ele><time>2026-04-24T13:17:21.999Z</time></trkpt><trkpt lat="38.034635980230824" lon="15.782414717872884"><ele>992.0</ele><time>2026-04-24T13:17:22.999Z</time></trkpt><trkpt lat="38.03475771558197" lon="15.782513036960134"><ele>992.0</ele><time>2026-04-24T13:17:23.999Z</time></trkpt><trkpt lat="38.0348702069265" lon="15.782607059535879"><ele>992.0</ele><time>2026-04-24T13:17:24.999Z</time></trkpt><trkpt lat="38.034978505539996" lon="15.782691678950883"><ele>992.0</ele><time>2026-04-24T13:17:25.999Z</time></trkpt><trkpt lat="38.03507474632249" lon="15.78277951683013"><ele>992.0</ele><time>2026-04-24T13:17:26.999Z</time></trkpt><trkpt lat="38.03516781177937" lon="15.782871209683222"><ele>988.0</ele><time>2026-04-24T13:17:27.999Z</time></trkpt><trkpt lat="38.03526522519744" lon="15.78297865007594"><ele>984.0</ele><time>2026-04-24T13:17:28.999Z</time></trkpt><trkpt lat="38.03536713353294" lon="15.783090472722241"><ele>980.0</ele><time>2026-04-24T13:17:29.999Z</time></trkpt><trkpt lat="38.03547328454566" lon="15.78319943560654"><ele>976.0</ele><time>2026-04-24T13:17:30.999Z</time></trkpt><trkpt lat="38.03568184929269" lon="15.783413610773444"><ele>977.0</ele><time>2026-04-24T13:17:33Z</time></trkpt><trkpt lat="38.03578989109098" lon="15.783521636877245"><ele>978.0</ele><time>2026-04-24T13:17:34Z</time></trkpt><trkpt lat="38.03590082925862" lon="15.783629767978743"><ele>979.0</ele><time>2026-04-24T13:17:35Z</time></trkpt><trkpt lat="38.03600706334907" lon="15.783742705123684"><ele>980.0</ele><time>2026-04-24T13:17:36Z</time></trkpt><trkpt lat="38.036115054882096" lon="15.783865940542334"><ele>980.0</ele><time>2026-04-24T13:17:37Z</time></trkpt><trkpt lat="38.03622350607558" lon="15.783977002972863"><ele>980.0</ele><time>2026-04-24T13:17:38Z</time></trkpt><trkpt lat="38.036341046290524" lon="15.784066154359508"><ele>980.0</ele><time>2026-04-24T13:17:39Z</time></trkpt><trkpt lat="38.036462961664526" lon="15.784140300543939"><ele>980.0</ele><time>2026-04-24T13:17:40Z</time></trkpt><trkpt lat="38.036589994466006" lon="15.784207921950937"><ele>982.25</ele><time>2026-04-24T13:17:41Z</time></trkpt><trkpt lat="38.03672273981252" lon="15.784265310717924"><ele>984.5</ele><time>2026-04-24T13:17:42Z</time></trkpt><trkpt lat="38.03684823662213" lon="15.784305428098383"><ele>986.75</ele><time>2026-04-24T13:17:43Z</time></trkpt><trkpt lat="38.03696507214744" lon="15.784327341857438"><ele>989.0</ele><time>2026-04-24T13:17:44Z</time></trkpt><trkpt lat="38.03709761086802" lon="15.784323288688674"><ele>989.0</ele><time>2026-04-24T13:17:45Z</time></trkpt><trkpt lat="38.037243081294996" lon="15.784310937806548"><ele>989.0</ele><time>2026-04-24T13:17:46Z</time></trkpt><trkpt lat="38.03739542470428" lon="15.784312304263828"><ele>989.0</ele><time>2026-04-24T13:17:47Z</time></trkpt><trkpt lat="38.03755143138415" lon="15.784276013385986"><ele>989.0</ele><time>2026-04-24T13:17:48Z</time></trkpt><trkpt lat="38.03770534755185" lon="15.784237673460838"><ele>989.0</ele><time>2026-04-24T13:17:49Z</time></trkpt><trkpt lat="38.03784592991545" lon="15.78421048387899"><ele>989.0</ele><time>2026-04-24T13:17:50Z</time></trkpt><trkpt lat="38.03798657619214" lon="15.784189933259233"><ele>989.0</ele><time>2026-04-24T13:17:51Z</time></trkpt><trkpt lat="38.0381325065289" lon="15.78415214884163"><ele>989.0</ele><time>2026-04-24T13:17:52Z</time></trkpt><trkpt lat="38.03828035344892" lon="15.784138925139729"><ele>989.0</ele><time>2026-04-24T13:17:53Z</time></trkpt><trkpt lat="38.03843184717202" lon="15.784119756658395"><ele>989.0</ele><time>2026-04-24T13:17:54Z</time></trkpt><trkpt lat="38.03858560034656" lon="15.784107039852541"><ele>989.6666666666667</ele><time>2026-04-24T13:17:55Z</time></trkpt><trkpt lat="38.03874131514973" lon="15.784102178461769"><ele>990.3333333333333</ele><time>2026-04-24T13:17:56Z</time></trkpt><trkpt lat="38.03889264445766" lon="15.78409196410767"><ele>991.0</ele><time>2026-04-24T13:17:57Z</time></trkpt><trkpt lat="38.039042119650816" lon="15.784063368336342"><ele>989.3333333333333</ele><time>2026-04-24T13:17:58Z</time></trkpt><trkpt lat="38.0391993677374" lon="15.784040922984444"><ele>987.6666666666667</ele><time>2026-04-24T13:17:59Z</time></trkpt><trkpt lat="38.03935349603117" lon="15.783969229011827"><ele>986.0</ele><time>2026-04-24T13:18:00Z</time></trkpt><trkpt lat="38.03951296952307" lon="15.783899069620222"><ele>986.0</ele><time>2026-04-24T13:18:01Z</time></trkpt><trkpt lat="38.0396710737816" lon="15.783817350299762"><ele>986.0</ele><time>2026-04-24T13:18:02Z</time></trkpt><trkpt lat="38.039826623133436" lon="15.783720341373222"><ele>986.0</ele><time>2026-04-24T13:18:03Z</time></trkpt><trkpt lat="38.03997420532848" lon="15.783608109144009"><ele>986.3333333333334</ele><time>2026-04-24T13:18:04Z</time></trkpt><trkpt lat="38.04012140552599" lon="15.783493922050683"><ele>986.6666666666667</ele><time>2026-04-24T13:18:05Z</time></trkpt><trkpt lat="38.04025743104481" lon="15.78340131976712"><ele>987.0</ele><time>2026-04-24T13:18:06Z</time></trkpt><trkpt lat="38.04038484808609" lon="15.783310068428744"><ele>987.0</ele><time>2026-04-24T13:18:07Z</time></trkpt><trkpt lat="38.04050448264319" lon="15.783202273793046"><ele>987.0</ele><time>2026-04-24T13:18:08Z</time></trkpt><trkpt lat="38.04062507265824" lon="15.783091302200663"><ele>987.0</ele><time>2026-04-24T13:18:09Z</time></trkpt><trkpt lat="38.040752967567116" lon="15.783008150529032"><ele>987.0</ele><time>2026-04-24T13:18:10Z</time></trkpt><trkpt lat="38.040846388220565" lon="15.782911943697203"><ele>987.25</ele><time>2026-04-24T13:18:11Z</time></trkpt><trkpt lat="38.04094320702955" lon="15.782835085345074"><ele>987.5</ele><time>2026-04-24T13:18:12Z</time></trkpt><trkpt lat="38.04104032523377" lon="15.782748647011545"><ele>987.75</ele><time>2026-04-24T13:18:13Z</time></trkpt><trkpt lat="38.0411513735708" lon="15.782669439166659"><ele>988.0</ele><time>2026-04-24T13:18:14Z</time></trkpt><trkpt lat="38.04126354162521" lon="15.782572216594478"><ele>989.75</ele><time>2026-04-24T13:18:15Z</time></trkpt><trkpt lat="38.04137266875918" lon="15.782475499722548"><ele>991.5</ele><time>2026-04-24T13:18:16Z</time></trkpt><trkpt lat="38.04148099408794" lon="15.782370718485332"><ele>993.25</ele><time>2026-04-24T13:18:17Z</time></trkpt><trkpt lat="38.04158220874779" lon="15.782251603877537"><ele>995.0</ele><time>2026-04-24T13:18:18Z</time></trkpt><trkpt lat="38.04169235122387" lon="15.782145343146405"><ele>995.0</ele><time>2026-04-24T13:18:19Z</time></trkpt><trkpt lat="38.04180402161361" lon="15.78203278880203"><ele>995.0</ele><time>2026-04-24T13:18:20Z</time></trkpt><trkpt lat="38.04194316966585" lon="15.78197694950828"><ele>995.0</ele><time>2026-04-24T13:18:21Z</time></trkpt><trkpt lat="38.04208734545319" lon="15.781924092237539"><ele>995.0</ele><time>2026-04-24T13:18:22Z</time></trkpt><trkpt lat="38.04222389829597" lon="15.781852065636057"><ele>995.5000000000001</ele><time>2026-04-24T13:18:23Z</time></trkpt><trkpt lat="38.04234418264743" lon="15.781811799256607"><ele>996.0</ele><time>2026-04-24T13:18:24Z</time></trkpt><trkpt lat="38.042435098799935" lon="15.781784853187133"><ele>996.5</ele><time>2026-04-24T13:18:25Z</time></trkpt><trkpt lat="38.042516483576875" lon="15.781761349785727"><ele>997.0</ele><time>2026-04-24T13:18:26Z</time></trkpt><trkpt lat="38.04258276421125" lon="15.781733769366262"><ele>997.5000000000001</ele><time>2026-04-24T13:18:27Z</time></trkpt><trkpt lat="38.04264810638187" lon="15.781720383003691"><ele>998.0</ele><time>2026-04-24T13:18:28Z</time></trkpt><trkpt lat="38.04271876353219" lon="15.78167417895988"><ele>998.0000000000001</ele><time>2026-04-24T13:18:30Z</time></trkpt><trkpt lat="38.042790400364005" lon="15.781657795122921"><ele>998.0</ele><time>2026-04-24T13:18:47.999Z</time></trkpt><trkpt lat="38.04285768389453" lon="15.781645949491589"><ele>998.0000000000001</ele><time>2026-04-24T13:20:40.999Z</time></trkpt><trkpt lat="38.042931467121946" lon="15.781615022137034"><ele>998.0000000000001</ele><time>2026-04-24T13:20:43.999Z</time></trkpt><trkpt lat="38.042996847053956" lon="15.781581346843623"><ele>998.0</ele><time>2026-04-24T13:20:47.999Z</time></trkpt><trkpt lat="38.04306420186392" lon="15.781548491655164"><ele>998.0000000000001</ele><time>2026-04-24T13:21:01.999Z</time></trkpt><trkpt lat="38.0431293714238" lon="15.781515069617077"><ele>998.0000000000001</ele><time>2026-04-24T13:21:43Z</time></trkpt><trkpt lat="38.0431951255712" lon="15.781480681489548"><ele>998.0</ele><time>2026-04-24T13:21:45Z</time></trkpt><trkpt lat="38.043281107617084" lon="15.781435714576517"><ele>998.0</ele><time>2026-04-24T13:21:48Z</time></trkpt><trkpt lat="38.043358497450015" lon="15.781420462761933"><ele>998.0</ele><time>2026-04-24T13:21:53Z</time></trkpt><trkpt lat="38.04421663369572" lon="15.782006430723836"><ele>994.5000000000001</ele><time>2026-04-24T13:25:33.999Z</time></trkpt><trkpt lat="38.04427991825765" lon="15.78207258304889"><ele>991.0</ele><time>2026-04-24T13:25:35.999Z</time></trkpt><trkpt lat="38.04437194399072" lon="15.782072584916083"><ele>987.5</ele><time>2026-04-24T13:25:37.999Z</time></trkpt><trkpt lat="38.04443878218257" lon="15.782077359645843"><ele>984.0</ele><time>2026-04-24T13:25:38.999Z</time></trkpt><trkpt lat="38.04451775889151" lon="15.782092176533144"><ele>980.5000000000001</ele><time>2026-04-24T13:25:39.999Z</time></trkpt><trkpt lat="38.04460766969328" lon="15.78209854686723"><ele>977.0</ele><time>2026-04-24T13:25:40.999Z</time></trkpt><trkpt lat="38.04470540891351" lon="15.782088789712981"><ele>977.0</ele><time>2026-04-24T13:25:41.999Z</time></trkpt><trkpt lat="38.044799413558664" lon="15.782077515776352"><ele>977.0</ele><time>2026-04-24T13:25:42.999Z</time></trkpt><trkpt lat="38.04489376352398" lon="15.782086736659176"><ele>977.0</ele><time>2026-04-24T13:25:43.999Z</time></trkpt><trkpt lat="38.04498419122011" lon="15.782066620059608"><ele>977.0</ele><time>2026-04-24T13:25:44.999Z</time></trkpt><trkpt lat="38.04507231068149" lon="15.782023171056027"><ele>977.0</ele><time>2026-04-24T13:25:45.999Z</time></trkpt><trkpt lat="38.04515948099745" lon="15.781946138076819"><ele>978.0</ele><time>2026-04-24T13:25:46.999Z</time></trkpt><trkpt lat="38.045233774285926" lon="15.78183928224146"><ele>979.0</ele><time>2026-04-24T13:25:47.999Z</time></trkpt><trkpt lat="38.0453222099187" lon="15.781750745099712"><ele>980.0</ele><time>2026-04-24T13:25:48.999Z</time></trkpt><trkpt lat="38.04542095803876" lon="15.781661519201098"><ele>981.0</ele><time>2026-04-24T13:25:49.999Z</time></trkpt><trkpt lat="38.045532190218054" lon="15.781591881367007"><ele>981.0</ele><time>2026-04-24T13:25:50.999Z</time></trkpt><trkpt lat="38.0456643574705" lon="15.78153661247716"><ele>981.0</ele><time>2026-04-24T13:25:51.999Z</time></trkpt><trkpt lat="38.04580927465591" lon="15.781495400180829"><ele>981.0</ele><time>2026-04-24T13:25:52.999Z</time></trkpt><trkpt lat="38.04594280574901" lon="15.781465473126747"><ele>981.0</ele><time>2026-04-24T13:25:53.999Z</time></trkpt><trkpt lat="38.0460654653382" lon="15.781447989876192"><ele>979.75</ele><time>2026-04-24T13:25:55Z</time></trkpt><trkpt lat="38.046190689954706" lon="15.781446991658513"><ele>978.5</ele><time>2026-04-24T13:25:56Z</time></trkpt><trkpt lat="38.0463246369787" lon="15.781451322891703"><ele>977.25</ele><time>2026-04-24T13:25:57Z</time></trkpt><trkpt lat="38.04646459552468" lon="15.781456553652918"><ele>976.0</ele><time>2026-04-24T13:25:58Z</time></trkpt><trkpt lat="38.046606452591305" lon="15.781466492260964"><ele>975.25</ele><time>2026-04-24T13:25:59Z</time></trkpt><trkpt lat="38.04674082685242" lon="15.781475575393353"><ele>974.5</ele><time>2026-04-24T13:26:00Z</time></trkpt><trkpt lat="38.046857126942214" lon="15.781480259904946"><ele>973.75</ele><time>2026-04-24T13:26:01Z</time></trkpt><trkpt lat="38.046977267214444" lon="15.781467016976796"><ele>973.0</ele><time>2026-04-24T13:26:02Z</time></trkpt><trkpt lat="38.04708109058965" lon="15.781437129381093"><ele>972.9999999999999</ele><time>2026-04-24T13:26:03Z</time></trkpt><trkpt lat="38.04716944052755" lon="15.78142603747485"><ele>973.0</ele><time>2026-04-24T13:26:04Z</time></trkpt><trkpt lat="38.047249260818596" lon="15.781372066366279"><ele>973.0</ele><time>2026-04-24T13:26:05Z</time></trkpt><trkpt lat="38.047318499818495" lon="15.781316675148974"><ele>973.0</ele><time>2026-04-24T13:26:06Z</time></trkpt><trkpt lat="38.04738279816648" lon="15.78126523645372"><ele>972.9999999999999</ele><time>2026-04-24T13:26:07Z</time></trkpt><trkpt lat="38.04744009958424" lon="15.7812193953044"><ele>973.0</ele><time>2026-04-24T13:26:08Z</time></trkpt><trkpt lat="38.04740350307449" lon="15.780982047044708"><ele>972.2857142857142</ele><time>2026-04-24T13:26:09Z</time></trkpt><trkpt lat="38.047432364681185" lon="15.780887910543479"><ele>971.5714285714286</ele><time>2026-04-24T13:26:10Z</time></trkpt><trkpt lat="38.04747683071414" lon="15.780799768074118"><ele>970.8571428571429</ele><time>2026-04-24T13:26:11Z</time></trkpt><trkpt lat="38.04754085154808" lon="15.780740282541377"><ele>970.1428571428571</ele><time>2026-04-24T13:26:12Z</time></trkpt><trkpt lat="38.04761027130927" lon="15.7807264075821"><ele>969.4285714285713</ele><time>2026-04-24T13:26:13Z</time></trkpt><trkpt lat="38.04767551996448" lon="15.780747317409094"><ele>968.7142857142857</ele><time>2026-04-24T13:26:14Z</time></trkpt><trkpt lat="38.047735404439536" lon="15.780793668207915"><ele>968.0</ele><time>2026-04-24T13:26:15Z</time></trkpt><trkpt lat="38.047779658504425" lon="15.78087294801812"><ele>969.4285714285713</ele><time>2026-04-24T13:26:16Z</time></trkpt><trkpt lat="38.04779141262876" lon="15.780961497570832"><ele>970.8571428571428</ele><time>2026-04-24T13:26:17Z</time></trkpt><trkpt lat="38.04776999701517" lon="15.781075012206323"><ele>972.2857142857142</ele><time>2026-04-24T13:26:19Z</time></trkpt><trkpt lat="38.04781759875186" lon="15.781137674321146"><ele>973.7142857142858</ele><time>2026-04-24T13:26:22Z</time></trkpt><trkpt lat="38.047876646584825" lon="15.781106389684753"><ele>975.1428571428572</ele><time>2026-04-24T13:26:47.999Z</time></trkpt><trkpt lat="38.04793118852596" lon="15.781062516997032"><ele>976.5714285714287</ele><time>2026-04-24T13:26:49.999Z</time></trkpt><trkpt lat="38.04794682511937" lon="15.780978396492293"><ele>978.0</ele><time>2026-04-24T13:27:27.999Z</time></trkpt><trkpt lat="38.04796566305348" lon="15.78082648805591"><ele>978.0</ele><time>2026-04-24T13:27:29.999Z</time></trkpt><trkpt lat="38.04797908411109" lon="15.78072894270759"><ele>978.0</ele><time>2026-04-24T13:27:30.999Z</time></trkpt><trkpt lat="38.04799562807223" lon="15.780634121801945"><ele>978.0</ele><time>2026-04-24T13:27:31.999Z</time></trkpt><trkpt lat="38.04801569676749" lon="15.780533795930749"><ele>978.0</ele><time>2026-04-24T13:27:32.999Z</time></trkpt><trkpt lat="38.04803329865535" lon="15.78043307865008"><ele>978.0</ele><time>2026-04-24T13:27:33.999Z</time></trkpt><trkpt lat="38.04804472129107" lon="15.78034070122497"><ele>978.0</ele><time>2026-04-24T13:27:34.999Z</time></trkpt><trkpt lat="38.048053758277476" lon="15.780256693180158"><ele>977.3333333333334</ele><time>2026-04-24T13:27:35.999Z</time></trkpt><trkpt lat="38.04806831782112" lon="15.78017429832851"><ele>976.6666666666667</ele><time>2026-04-24T13:27:36.999Z</time></trkpt><trkpt lat="38.048094148200214" lon="15.780081949242785"><ele>976.0</ele><time>2026-04-24T13:27:37.999Z</time></trkpt><trkpt lat="38.048167626396406" lon="15.780027390203408"><ele>975.3333333333334</ele><time>2026-04-24T13:27:38.999Z</time></trkpt><trkpt lat="38.04821919284762" lon="15.779944510453298"><ele>974.6666666666667</ele><time>2026-04-24T13:27:39.999Z</time></trkpt><trkpt lat="38.048263970704845" lon="15.779851366955539"><ele>974.0</ele><time>2026-04-24T13:27:40.999Z</time></trkpt><trkpt lat="38.048319369418934" lon="15.77976031536364"><ele>975.5000000000001</ele><time>2026-04-24T13:27:41.999Z</time></trkpt><trkpt lat="38.0483794662079" lon="15.779677411931644"><ele>977.0</ele><time>2026-04-24T13:27:42.999Z</time></trkpt><trkpt lat="38.04844775669443" lon="15.779603421525358"><ele>978.5</ele><time>2026-04-24T13:27:43.999Z</time></trkpt><trkpt lat="38.048510816903246" lon="15.779540778736752"><ele>980.0</ele><time>2026-04-24T13:27:44.999Z</time></trkpt><trkpt lat="38.0485706395927" lon="15.779487370655952"><ele>981.5000000000001</ele><time>2026-04-24T13:27:45.999Z</time></trkpt><trkpt lat="38.048638411552105" lon="15.779432057956491"><ele>983.0</ele><time>2026-04-24T13:27:46.999Z</time></trkpt><trkpt lat="38.04871347753455" lon="15.779366996910182"><ele>983.25</ele><time>2026-04-24T13:27:47.999Z</time></trkpt><trkpt lat="38.04879384722664" lon="15.779299226627295"><ele>983.5</ele><time>2026-04-24T13:27:48.999Z</time></trkpt><trkpt lat="38.048881768504735" lon="15.77921900101961"><ele>983.75</ele><time>2026-04-24T13:27:49.999Z</time></trkpt><trkpt lat="38.04899751503485" lon="15.77911697524481"><ele>984.0</ele><time>2026-04-24T13:27:50.999Z</time></trkpt><trkpt lat="38.04910517756163" lon="15.779018309357236"><ele>985.8000000000001</ele><time>2026-04-24T13:27:51.999Z</time></trkpt><trkpt lat="38.04920232321611" lon="15.778972902998055"><ele>987.6000000000001</ele><time>2026-04-24T13:27:52.999Z</time></trkpt><trkpt lat="38.04928473984924" lon="15.778935609516685"><ele>989.4</ele><time>2026-04-24T13:27:53.999Z</time></trkpt><trkpt lat="38.049377333901305" lon="15.778907790075142"><ele>991.2</ele><time>2026-04-24T13:27:54.999Z</time></trkpt><trkpt lat="38.049474755017584" lon="15.778861482312653"><ele>993.0</ele><time>2026-04-24T13:27:55.999Z</time></trkpt><trkpt lat="38.04957378437569" lon="15.778842201301119"><ele>993.0</ele><time>2026-04-24T13:27:56.999Z</time></trkpt><trkpt lat="38.04967101928449" lon="15.778843461626453"><ele>993.0</ele><time>2026-04-24T13:27:57.999Z</time></trkpt><trkpt lat="38.04973934093149" lon="15.778815579082195"><ele>993.0</ele><time>2026-04-24T13:27:58.999Z</time></trkpt><trkpt lat="38.04982479718408" lon="15.778780198856369"><ele>993.0</ele><time>2026-04-24T13:28:04Z</time></trkpt><trkpt lat="38.04994112327004" lon="15.778804435331477"><ele>993.0</ele><time>2026-04-24T13:28:06Z</time></trkpt><trkpt lat="38.05002924517242" lon="15.77884218472623"><ele>994.5999999999999</ele><time>2026-04-24T13:28:07Z</time></trkpt><trkpt lat="38.05010660072496" lon="15.778894017405628"><ele>996.1999999999999</ele><time>2026-04-24T13:28:08Z</time></trkpt><trkpt lat="38.05014760187489" lon="15.77899584919811"><ele>997.8</ele><time>2026-04-24T13:28:09Z</time></trkpt><trkpt lat="38.05018646784944" lon="15.779123464195033"><ele>999.4</ele><time>2026-04-24T13:28:10Z</time></trkpt><trkpt lat="38.05026077591995" lon="15.77928484087999"><ele>1001.0</ele><time>2026-04-24T13:28:11Z</time></trkpt><trkpt lat="38.0503316109637" lon="15.779443667296478"><ele>1001.0</ele><time>2026-04-24T13:28:12Z</time></trkpt><trkpt lat="38.05037835372086" lon="15.779540434235383"><ele>1000.9999999999999</ele><time>2026-04-24T13:28:13Z</time></trkpt><trkpt lat="38.05047132009254" lon="15.779595229382608"><ele>1000.9999999999999</ele><time>2026-04-24T13:28:16Z</time></trkpt><trkpt lat="38.050603436720884" lon="15.779617328917388"><ele>1001.0</ele><time>2026-04-24T13:28:18Z</time></trkpt><trkpt lat="38.050697404458184" lon="15.779639603295031"><ele>1001.0</ele><time>2026-04-24T13:28:19Z</time></trkpt><trkpt lat="38.05080287882994" lon="15.779661806106587"><ele>1003.1666666666667</ele><time>2026-04-24T13:28:20Z</time></trkpt><trkpt lat="38.0508653938999" lon="15.77968834328661"><ele>1005.3333333333334</ele><time>2026-04-24T13:28:22Z</time></trkpt><trkpt lat="38.05095917868988" lon="15.779624913455711"><ele>1007.5</ele><time>2026-04-24T13:28:31Z</time></trkpt><trkpt lat="38.05105939968047" lon="15.779630010091624"><ele>1009.6666666666667</ele><time>2026-04-24T13:28:32.999Z</time></trkpt><trkpt lat="38.05114449640779" lon="15.779678167707662"><ele>1011.8333333333334</ele><time>2026-04-24T13:28:34.999Z</time></trkpt><trkpt lat="38.051221857787475" lon="15.779688156243855"><ele>1014.0</ele><time>2026-04-24T13:28:36.999Z</time></trkpt><trkpt lat="38.0513086789947" lon="15.779589730026101"><ele>1014.0</ele><time>2026-04-24T13:28:38.999Z</time></trkpt><trkpt lat="38.05138562055812" lon="15.779660157895172"><ele>1014.0000000000001</ele><time>2026-04-24T13:28:40.999Z</time></trkpt><trkpt lat="38.05146043331394" lon="15.77973865564958"><ele>1014.0000000000001</ele><time>2026-04-24T13:28:44.999Z</time></trkpt><trkpt lat="38.05145004011772" lon="15.779878929084797"><ele>1014.0</ele><time>2026-04-24T13:28:46.999Z</time></trkpt><trkpt lat="38.05145163079787" lon="15.780035144401962"><ele>1014.0</ele><time>2026-04-24T13:28:48.999Z</time></trkpt><trkpt lat="38.05145036593673" lon="15.7801193626474"><ele>1014.2857142857142</ele><time>2026-04-24T13:28:49.999Z</time></trkpt><trkpt lat="38.051452026325336" lon="15.78019958654289"><ele>1014.5714285714287</ele><time>2026-04-24T13:28:50.999Z</time></trkpt><trkpt lat="38.05145567489121" lon="15.78028687301888"><ele>1014.8571428571429</ele><time>2026-04-24T13:28:51.999Z</time></trkpt><trkpt lat="38.051462884113064" lon="15.780376326942271"><ele>1015.1428571428571</ele><time>2026-04-24T13:28:52.999Z</time></trkpt><trkpt lat="38.05146068172916" lon="15.780458103136985"><ele>1015.4285714285713</ele><time>2026-04-24T13:28:53.999Z</time></trkpt><trkpt lat="38.0514584473175" lon="15.780544335556412"><ele>1015.7142857142858</ele><time>2026-04-24T13:28:54.999Z</time></trkpt><trkpt lat="38.05143197899346" lon="15.78065966852376"><ele>1016.0</ele><time>2026-04-24T13:28:56.999Z</time></trkpt><trkpt lat="38.05136707138684" lon="15.780696270718195"><ele>1016.0</ele><time>2026-04-24T13:28:58.999Z</time></trkpt><trkpt lat="38.05141059925155" lon="15.780831109657115"><ele>1015.9999999999999</ele><time>2026-04-24T13:29:03.999Z</time></trkpt><trkpt lat="38.05146864649631" lon="15.780900949856147"><ele>1015.9999999999999</ele><time>2026-04-24T13:29:06.999Z</time></trkpt><trkpt lat="38.05142581883834" lon="15.781037095815465"><ele>1016.0</ele><time>2026-04-24T13:29:09.999Z</time></trkpt><trkpt lat="38.051409115547685" lon="15.78113497473974"><ele>1016.0</ele><time>2026-04-24T13:29:10.999Z</time></trkpt><trkpt lat="38.05140393230811" lon="15.781253803264365"><ele>1015.4</ele><time>2026-04-24T13:29:11.999Z</time></trkpt><trkpt lat="38.05136742256125" lon="15.78138393674639"><ele>1014.8</ele><time>2026-04-24T13:29:12.999Z</time></trkpt><trkpt lat="38.051340989525436" lon="15.781527567895903"><ele>1014.1999999999999</ele><time>2026-04-24T13:29:13.999Z</time></trkpt><trkpt lat="38.0513121525549" lon="15.78164453822141"><ele>1013.5999999999999</ele><time>2026-04-24T13:29:14.999Z</time></trkpt><trkpt lat="38.05130153764536" lon="15.781740465965223"><ele>1013.0</ele><time>2026-04-24T13:29:15.999Z</time></trkpt><trkpt lat="38.05132515034365" lon="15.781819790715488"><ele>1013.3333333333334</ele><time>2026-04-24T13:29:16.999Z</time></trkpt><trkpt lat="38.05141681404803" lon="15.781941701980534"><ele>1013.6666666666667</ele><time>2026-04-24T13:29:18.999Z</time></trkpt><trkpt lat="38.05147112182688" lon="15.782021378384217"><ele>1014.0</ele><time>2026-04-24T13:29:19.999Z</time></trkpt><trkpt lat="38.0514988011889" lon="15.78210969903526"><ele>1014.3333333333333</ele><time>2026-04-24T13:29:20.999Z</time></trkpt><trkpt lat="38.05150378322262" lon="15.782196237865232"><ele>1014.6666666666666</ele><time>2026-04-24T13:29:21.999Z</time></trkpt><trkpt lat="38.051513902995005" lon="15.782281909181027"><ele>1015.0</ele><time>2026-04-24T13:29:22.999Z</time></trkpt><trkpt lat="38.05152726406596" lon="15.782388162344226"><ele>1014.9999999999999</ele><time>2026-04-24T13:29:23.999Z</time></trkpt><trkpt lat="38.05151861843361" lon="15.782481270513697"><ele>1015.0</ele><time>2026-04-24T13:29:24.999Z</time></trkpt><trkpt lat="38.05145545385345" lon="15.78257639262242"><ele>1015.0</ele><time>2026-04-24T13:29:26.999Z</time></trkpt><trkpt lat="38.05138832579085" lon="15.782585192871203"><ele>1015.0</ele><time>2026-04-24T13:29:27.999Z</time></trkpt><trkpt lat="38.05130743799202" lon="15.78266526510543"><ele>1014.9999999999999</ele><time>2026-04-24T13:29:28.999Z</time></trkpt><trkpt lat="38.05124191363312" lon="15.782718399032136"><ele>1015.0</ele><time>2026-04-24T13:29:29.999Z</time></trkpt><trkpt lat="38.05122430930034" lon="15.782867531729968"><ele>1015.8</ele><time>2026-04-24T13:29:31.999Z</time></trkpt><trkpt lat="38.05125262365974" lon="15.782982539077732"><ele>1016.6</ele><time>2026-04-24T13:29:32.999Z</time></trkpt><trkpt lat="38.051252399484156" lon="15.783094151150612"><ele>1017.4000000000001</ele><time>2026-04-24T13:29:33.999Z</time></trkpt><trkpt lat="38.05120702393683" lon="15.783239012904795"><ele>1018.2</ele><time>2026-04-24T13:29:35.999Z</time></trkpt><trkpt lat="38.051193674766125" lon="15.783335706130837"><ele>1019.0</ele><time>2026-04-24T13:29:36.999Z</time></trkpt><trkpt lat="38.051170563633185" lon="15.783427008935384"><ele>1018.0</ele><time>2026-04-24T13:29:37.999Z</time></trkpt><trkpt lat="38.051161148700935" lon="15.783539660318912"><ele>1017.0000000000001</ele><time>2026-04-24T13:29:38.999Z</time></trkpt><trkpt lat="38.05115567130574" lon="15.783673232387494"><ele>1016.0000000000001</ele><time>2026-04-24T13:29:39.999Z</time></trkpt><trkpt lat="38.051157660912054" lon="15.783791070164414"><ele>1015.0</ele><time>2026-04-24T13:29:40.999Z</time></trkpt><trkpt lat="38.0511593931421" lon="15.783893664099903"><ele>1014.0</ele><time>2026-04-24T13:29:41.999Z</time></trkpt><trkpt lat="38.05115999662561" lon="15.78401243175642"><ele>1014.0</ele><time>2026-04-24T13:29:42.999Z</time></trkpt><trkpt lat="38.05117100159935" lon="15.784123016558324"><ele>1014.0</ele><time>2026-04-24T13:29:43.999Z</time></trkpt><trkpt lat="38.051173785314596" lon="15.784212584560152"><ele>1014.0</ele><time>2026-04-24T13:29:44.999Z</time></trkpt><trkpt lat="38.051133604900464" lon="15.784316196086722"><ele>1014.0</ele><time>2026-04-24T13:29:46.999Z</time></trkpt><trkpt lat="38.05123484916525" lon="15.784401209347479"><ele>1014.0</ele><time>2026-04-24T13:29:50.999Z</time></trkpt><trkpt lat="38.051312822978495" lon="15.784402374396386"><ele>1014.0</ele><time>2026-04-24T13:29:51.999Z</time></trkpt><trkpt lat="38.05139809631747" lon="15.784402570741493"><ele>1013.5</ele><time>2026-04-24T13:29:52.999Z</time></trkpt><trkpt lat="38.05150131821895" lon="15.784396739873872"><ele>1013.0</ele><time>2026-04-24T13:29:53.999Z</time></trkpt><trkpt lat="38.05161384927192" lon="15.78439038314997"><ele>1012.5</ele><time>2026-04-24T13:29:54.999Z</time></trkpt><trkpt lat="38.05177564634702" lon="15.784363485704768"><ele>1012.0</ele><time>2026-04-24T13:29:55.999Z</time></trkpt><trkpt lat="38.05195967748594" lon="15.784371533728494"><ele>1014.3333333333333</ele><time>2026-04-24T13:29:56.999Z</time></trkpt><trkpt lat="38.05212374999814" lon="15.78438055428924"><ele>1016.6666666666667</ele><time>2026-04-24T13:29:57.999Z</time></trkpt><trkpt lat="38.05227560461879" lon="15.784401066454814"><ele>1019.0</ele><time>2026-04-24T13:29:58.999Z</time></trkpt><trkpt lat="38.05243440839483" lon="15.784434610734777"><ele>1021.6666666666667</ele><time>2026-04-24T13:29:59.999Z</time></trkpt><trkpt lat="38.052599777636395" lon="15.784473816682432"><ele>1024.3333333333333</ele><time>2026-04-24T13:30:00.999Z</time></trkpt><trkpt lat="38.05277322855155" lon="15.784508595900778"><ele>1027.0</ele><time>2026-04-24T13:30:01.999Z</time></trkpt><trkpt lat="38.0529433908075" lon="15.784537637779668"><ele>1027.0</ele><time>2026-04-24T13:30:02.999Z</time></trkpt><trkpt lat="38.05311340660887" lon="15.784548969000733"><ele>1027.0</ele><time>2026-04-24T13:30:03.999Z</time></trkpt><trkpt lat="38.053283356216824" lon="15.784527055389225"><ele>1027.0</ele><time>2026-04-24T13:30:04.999Z</time></trkpt><trkpt lat="38.05344417683819" lon="15.784498158018268"><ele>1029.5</ele><time>2026-04-24T13:30:06Z</time></trkpt><trkpt lat="38.05357041813706" lon="15.784484205999505"><ele>1032.0</ele><time>2026-04-24T13:30:07Z</time></trkpt><trkpt lat="38.05367744830723" lon="15.784480079173408"><ele>1034.5</ele><time>2026-04-24T13:30:08Z</time></trkpt><trkpt lat="38.05377272464594" lon="15.784509511377507"><ele>1037.0</ele><time>2026-04-24T13:30:09Z</time></trkpt><trkpt lat="38.05387773397588" lon="15.784610072032168"><ele>1037.0</ele><time>2026-04-24T13:30:10Z</time></trkpt><trkpt lat="38.05402161785991" lon="15.784677841059665"><ele>1037.0</ele><time>2026-04-24T13:30:11Z</time></trkpt><trkpt lat="38.054163207643285" lon="15.784762352550194"><ele>1037.0</ele><time>2026-04-24T13:30:12Z</time></trkpt><trkpt lat="38.05430511019754" lon="15.784809665466794"><ele>1038.5</ele><time>2026-04-24T13:30:13Z</time></trkpt><trkpt lat="38.054431824671056" lon="15.784837476279707"><ele>1040.0</ele><time>2026-04-24T13:30:14Z</time></trkpt><trkpt lat="38.05453763496407" lon="15.784868058350089"><ele>1041.5</ele><time>2026-04-24T13:30:15Z</time></trkpt><trkpt lat="38.054647968269094" lon="15.784908174598794"><ele>1043.0</ele><time>2026-04-24T13:30:16Z</time></trkpt><trkpt lat="38.05476541193114" lon="15.784949702414357"><ele>1043.0</ele><time>2026-04-24T13:30:17Z</time></trkpt><trkpt lat="38.05488700522692" lon="15.78498429216058"><ele>1043.0</ele><time>2026-04-24T13:30:18Z</time></trkpt><trkpt lat="38.05501264887642" lon="15.785017748845517"><ele>1043.0</ele><time>2026-04-24T13:30:19Z</time></trkpt><trkpt lat="38.055141799184426" lon="15.785054038186113"><ele>1043.0</ele><time>2026-04-24T13:30:20Z</time></trkpt><trkpt lat="38.05527385250828" lon="15.78507622375836"><ele>1042.75</ele><time>2026-04-24T13:30:21Z</time></trkpt><trkpt lat="38.05540537390604" lon="15.785118653358268"><ele>1042.5</ele><time>2026-04-24T13:30:22Z</time></trkpt><trkpt lat="38.05554078535899" lon="15.785143463683475"><ele>1042.25</ele><time>2026-04-24T13:30:23Z</time></trkpt><trkpt lat="38.055679128354264" lon="15.785168315209171"><ele>1042.0</ele><time>2026-04-24T13:30:24Z</time></trkpt><trkpt lat="38.05582089153296" lon="15.785183653406715"><ele>1036.5</ele><time>2026-04-24T13:30:25Z</time></trkpt><trkpt lat="38.055963574171834" lon="15.785209923925338"><ele>1031.0</ele><time>2026-04-24T13:30:26Z</time></trkpt><trkpt lat="38.05610356614373" lon="15.785224470701166"><ele>1025.5</ele><time>2026-04-24T13:30:27Z</time></trkpt><trkpt lat="38.05623916072727" lon="15.785220003956189"><ele>1020.0</ele><time>2026-04-24T13:30:28Z</time></trkpt><trkpt lat="38.05638425386967" lon="15.78520655018177"><ele>1020.0</ele><time>2026-04-24T13:30:29Z</time></trkpt><trkpt lat="38.05653222342801" lon="15.78519143672904"><ele>1020.0</ele><time>2026-04-24T13:30:30Z</time></trkpt><trkpt lat="38.05668121636044" lon="15.785190232798952"><ele>1020.0</ele><time>2026-04-24T13:30:31Z</time></trkpt><trkpt lat="38.056830772218966" lon="15.7852182352712"><ele>1020.0</ele><time>2026-04-24T13:30:32Z</time></trkpt><trkpt lat="38.056980473387995" lon="15.78526444085457"><ele>1019.3333333333333</ele><time>2026-04-24T13:30:33Z</time></trkpt><trkpt lat="38.05713578825967" lon="15.785312036427621"><ele>1018.6666666666666</ele><time>2026-04-24T13:30:34Z</time></trkpt><trkpt lat="38.057295859161" lon="15.78533572605803"><ele>1018.0</ele><time>2026-04-24T13:30:35Z</time></trkpt><trkpt lat="38.05745702184113" lon="15.785342946775389"><ele>1020.6666666666666</ele><time>2026-04-24T13:30:36Z</time></trkpt><trkpt lat="38.05761916452504" lon="15.785340414117183"><ele>1023.3333333333333</ele><time>2026-04-24T13:30:37Z</time></trkpt><trkpt lat="38.05778140804988" lon="15.785331138574136"><ele>1026.0</ele><time>2026-04-24T13:30:38Z</time></trkpt><trkpt lat="38.05794278085371" lon="15.785322799402158"><ele>1026.0</ele><time>2026-04-24T13:30:39Z</time></trkpt><trkpt lat="38.05809987759059" lon="15.785327789350562"><ele>1026.0</ele><time>2026-04-24T13:30:40Z</time></trkpt><trkpt lat="38.05825656040437" lon="15.785351608521363"><ele>1026.0</ele><time>2026-04-24T13:30:40.999Z</time></trkpt><trkpt lat="38.058413659812814" lon="15.785386303315681"><ele>1028.0</ele><time>2026-04-24T13:30:41.999Z</time></trkpt><trkpt lat="38.05857251751768" lon="15.785428189050014"><ele>1030.0</ele><time>2026-04-24T13:30:42.999Z</time></trkpt><trkpt lat="38.058728063803066" lon="15.785471736735072"><ele>1032.0</ele><time>2026-04-24T13:30:43.999Z</time></trkpt><trkpt lat="38.05888174975326" lon="15.78550625001565"><ele>1032.0</ele><time>2026-04-24T13:30:44.999Z</time></trkpt><trkpt lat="38.059037800341656" lon="15.785519759662657"><ele>1032.0</ele><time>2026-04-24T13:30:45.999Z</time></trkpt><trkpt lat="38.05919696469595" lon="15.785506550382616"><ele>1032.0</ele><time>2026-04-24T13:30:46.999Z</time></trkpt><trkpt lat="38.05935119961827" lon="15.785470357593063"><ele>1035.3333333333333</ele><time>2026-04-24T13:30:47.999Z</time></trkpt><trkpt lat="38.05950769840209" lon="15.785421322436118"><ele>1038.6666666666665</ele><time>2026-04-24T13:30:48.999Z</time></trkpt><trkpt lat="38.059663212816425" lon="15.785398226991553"><ele>1042.0</ele><time>2026-04-24T13:30:49.999Z</time></trkpt><trkpt lat="38.05981115402017" lon="15.785363036898268"><ele>1042.0</ele><time>2026-04-24T13:30:50.999Z</time></trkpt><trkpt lat="38.05994208191916" lon="15.785313352216557"><ele>1042.0</ele><time>2026-04-24T13:30:51.999Z</time></trkpt><trkpt lat="38.06005739358242" lon="15.785304982605474"><ele>1042.0</ele><time>2026-04-24T13:30:52.999Z</time></trkpt><trkpt lat="38.060150267964005" lon="15.785322739865085"><ele>1042.0</ele><time>2026-04-24T13:30:53.999Z</time></trkpt><trkpt lat="38.06023332300757" lon="15.785375950493453"><ele>1042.0</ele><time>2026-04-24T13:30:54.999Z</time></trkpt><trkpt lat="38.06033389929183" lon="15.78547585483283"><ele>1044.25</ele><time>2026-04-24T13:30:55.999Z</time></trkpt><trkpt lat="38.06044525271611" lon="15.785590733255626"><ele>1046.5</ele><time>2026-04-24T13:30:56.999Z</time></trkpt><trkpt lat="38.0605603614045" lon="15.785706440678803"><ele>1048.75</ele><time>2026-04-24T13:30:57.999Z</time></trkpt><trkpt lat="38.06067628078152" lon="15.785828765017627"><ele>1051.0</ele><time>2026-04-24T13:30:58.999Z</time></trkpt><trkpt lat="38.060784676404396" lon="15.785961109886749"><ele>1052.25</ele><time>2026-04-24T13:30:59.999Z</time></trkpt><trkpt lat="38.06087829356754" lon="15.786110399314598"><ele>1053.5</ele><time>2026-04-24T13:31:00.999Z</time></trkpt><trkpt lat="38.06095390525904" lon="15.786272265646138"><ele>1054.75</ele><time>2026-04-24T13:31:01.999Z</time></trkpt><trkpt lat="38.06102388660063" lon="15.786430771365488"><ele>1056.0</ele><time>2026-04-24T13:31:02.999Z</time></trkpt><trkpt lat="38.061078763541325" lon="15.78656937029959"><ele>1056.0</ele><time>2026-04-24T13:31:03.999Z</time></trkpt><trkpt lat="38.06110471568212" lon="15.786711267324534"><ele>1056.0</ele><time>2026-04-24T13:31:04.999Z</time></trkpt><trkpt lat="38.06111018044492" lon="15.786870151149207"><ele>1056.0</ele><time>2026-04-24T13:31:05.999Z</time></trkpt><trkpt lat="38.0611095843984" lon="15.787032814440202"><ele>1056.0</ele><time>2026-04-24T13:31:06.999Z</time></trkpt><trkpt lat="38.06111216535073" lon="15.787196136181242"><ele>1057.0</ele><time>2026-04-24T13:31:07.999Z</time></trkpt><trkpt lat="38.06111282915292" lon="15.787361719686764"><ele>1058.0</ele><time>2026-04-24T13:31:08.999Z</time></trkpt><trkpt lat="38.06110827725811" lon="15.787533480673448"><ele>1059.0</ele><time>2026-04-24T13:31:09.999Z</time></trkpt><trkpt lat="38.06110747929768" lon="15.787704095165315"><ele>1060.0</ele><time>2026-04-24T13:31:10.999Z</time></trkpt><trkpt lat="38.06110891231877" lon="15.7878696864511"><ele>1060.0</ele><time>2026-04-24T13:31:11.999Z</time></trkpt><trkpt lat="38.06110775823177" lon="15.788068151736868"><ele>1060.0</ele><time>2026-04-24T13:31:12.999Z</time></trkpt><trkpt lat="38.0611052034581" lon="15.788306920561977"><ele>1060.0</ele><time>2026-04-24T13:31:13.999Z</time></trkpt><trkpt lat="38.061102362287826" lon="15.788557041770439"><ele>1063.75</ele><time>2026-04-24T13:31:14.999Z</time></trkpt><trkpt lat="38.061099674429734" lon="15.788773313676595"><ele>1067.5</ele><time>2026-04-24T13:31:15.999Z</time></trkpt><trkpt lat="38.06111039588127" lon="15.788934444027843"><ele>1071.25</ele><time>2026-04-24T13:31:16.999Z</time></trkpt><trkpt lat="38.06111154335133" lon="15.789036733480156"><ele>1075.0</ele><time>2026-04-24T13:31:17.999Z</time></trkpt><trkpt lat="38.06100940378717" lon="15.789136155047748"><ele>1075.0</ele><time>2026-04-24T13:31:19.999Z</time></trkpt><trkpt lat="38.060915749770615" lon="15.789135258769544"><ele>1075.0</ele><time>2026-04-24T13:31:20.999Z</time></trkpt><trkpt lat="38.06083668246872" lon="15.78904034685682"><ele>1075.0</ele><time>2026-04-24T13:31:21.999Z</time></trkpt><trkpt lat="38.06077070137474" lon="15.788917396342235"><ele>1075.0</ele><time>2026-04-24T13:31:22.999Z</time></trkpt><trkpt lat="38.06068470667393" lon="15.788849348254983"><ele>1075.0</ele><time>2026-04-24T13:31:23.999Z</time></trkpt><trkpt lat="38.06059036419948" lon="15.788829704186252"><ele>1074.0</ele><time>2026-04-24T13:31:24.999Z</time></trkpt><trkpt lat="38.06049737091707" lon="15.788846869517318"><ele>1073.0</ele><time>2026-04-24T13:31:25.999Z</time></trkpt><trkpt lat="38.0604011869921" lon="15.788904552667598"><ele>1072.0</ele><time>2026-04-24T13:31:26.999Z</time></trkpt><trkpt lat="38.06030353444258" lon="15.78899340343164"><ele>1071.0</ele><time>2026-04-24T13:31:27.999Z</time></trkpt><trkpt lat="38.0602098497297" lon="15.789083574608796"><ele>1070.0</ele><time>2026-04-24T13:31:28.999Z</time></trkpt><trkpt lat="38.0601293717144" lon="15.789195479301686"><ele>1070.0</ele><time>2026-04-24T13:31:29.999Z</time></trkpt><trkpt lat="38.06006530181943" lon="15.789335236987538"><ele>1070.0</ele><time>2026-04-24T13:31:30.999Z</time></trkpt><trkpt lat="38.05998522280712" lon="15.789476119089171"><ele>1070.0</ele><time>2026-04-24T13:31:31.999Z</time></trkpt><trkpt lat="38.05992481435001" lon="15.789644694674845"><ele>1070.0</ele><time>2026-04-24T13:31:32.999Z</time></trkpt><trkpt lat="38.05983996843713" lon="15.78981445572004"><ele>1072.6666666666667</ele><time>2026-04-24T13:31:33.999Z</time></trkpt><trkpt lat="38.05975052598146" lon="15.789995993584698"><ele>1075.3333333333333</ele><time>2026-04-24T13:31:34.999Z</time></trkpt><trkpt lat="38.05965612351329" lon="15.790187210040463"><ele>1078.0</ele><time>2026-04-24T13:31:35.999Z</time></trkpt><trkpt lat="38.0595574562631" lon="15.790387178668436"><ele>1078.0</ele><time>2026-04-24T13:31:36.999Z</time></trkpt><trkpt lat="38.05945157667873" lon="15.790593551717953"><ele>1078.0</ele><time>2026-04-24T13:31:37.999Z</time></trkpt><trkpt lat="38.05934050829672" lon="15.790807460982007"><ele>1078.0</ele><time>2026-04-24T13:31:38.999Z</time></trkpt><trkpt lat="38.059237913222134" lon="15.7910241210775"><ele>1081.3333333333333</ele><time>2026-04-24T13:31:39.999Z</time></trkpt><trkpt lat="38.05913833144024" lon="15.791252308924639"><ele>1084.6666666666667</ele><time>2026-04-24T13:31:40.999Z</time></trkpt><trkpt lat="38.0590232788611" lon="15.791470993991263"><ele>1088.0</ele><time>2026-04-24T13:31:41.999Z</time></trkpt><trkpt lat="38.05894160547607" lon="15.791696771799451"><ele>1081.6666666666667</ele><time>2026-04-24T13:31:42.999Z</time></trkpt><trkpt lat="38.05885638793848" lon="15.791890051494375"><ele>1075.3333333333333</ele><time>2026-04-24T13:31:43.999Z</time></trkpt><trkpt lat="38.05876639936495" lon="15.792043548920955"><ele>1069.0</ele><time>2026-04-24T13:31:44.999Z</time></trkpt><trkpt lat="38.058728544960914" lon="15.792200407608124"><ele>1069.0</ele><time>2026-04-24T13:31:45.999Z</time></trkpt><trkpt lat="38.058706754538996" lon="15.79233006623151"><ele>1069.0</ele><time>2026-04-24T13:31:46.999Z</time></trkpt><trkpt lat="38.058723954522534" lon="15.792452857751675"><ele>1069.0</ele><time>2026-04-24T13:31:47.999Z</time></trkpt><trkpt lat="38.058781137722484" lon="15.792605612712187"><ele>1069.0</ele><time>2026-04-24T13:31:48.999Z</time></trkpt><trkpt lat="38.05885760654586" lon="15.792790537619563"><ele>1063.0</ele><time>2026-04-24T13:31:49.999Z</time></trkpt><trkpt lat="38.05893738816884" lon="15.792994995225207"><ele>1057.0</ele><time>2026-04-24T13:31:50.999Z</time></trkpt><trkpt lat="38.059017906738134" lon="15.793200641706681"><ele>1051.0</ele><time>2026-04-24T13:31:51.999Z</time></trkpt><trkpt lat="38.05910783070038" lon="15.79341482602669"><ele>1064.0</ele><time>2026-04-24T13:31:52.999Z</time></trkpt><trkpt lat="38.05920076496428" lon="15.793638982547396"><ele>1077.0</ele><time>2026-04-24T13:31:53.999Z</time></trkpt><trkpt lat="38.059293565786184" lon="15.793873693791753"><ele>1090.0</ele><time>2026-04-24T13:31:54.999Z</time></trkpt><trkpt lat="38.05938786630111" lon="15.794113952062832"><ele>1087.0</ele><time>2026-04-24T13:31:55.999Z</time></trkpt><trkpt lat="38.05948653773642" lon="15.794360692198836"><ele>1084.0</ele><time>2026-04-24T13:31:56.999Z</time></trkpt><trkpt lat="38.05958619373522" lon="15.794600277029321"><ele>1081.0</ele><time>2026-04-24T13:31:57.999Z</time></trkpt><trkpt lat="38.059671084198854" lon="15.794804885604687"><ele>1081.0</ele><time>2026-04-24T13:31:58.999Z</time></trkpt><trkpt lat="38.059740268290696" lon="15.794973813266068"><ele>1081.0</ele><time>2026-04-24T13:31:59.999Z</time></trkpt><trkpt lat="38.05979909188378" lon="15.795119528467385"><ele>1081.0</ele><time>2026-04-24T13:32:00.999Z</time></trkpt><trkpt lat="38.05984592633174" lon="15.795258570799149"><ele>1081.0</ele><time>2026-04-24T13:32:01.999Z</time></trkpt><trkpt lat="38.05986335873646" lon="15.79538692141288"><ele>1084.3999999999999</ele><time>2026-04-24T13:32:02.999Z</time></trkpt><trkpt lat="38.059843803025764" lon="15.795494268110948"><ele>1087.8</ele><time>2026-04-24T13:32:03.999Z</time></trkpt><trkpt lat="38.059794469326576" lon="15.795585194128307"><ele>1091.1999999999998</ele><time>2026-04-24T13:32:04.999Z</time></trkpt><trkpt lat="38.05969656892311" lon="15.795648777923523"><ele>1094.6</ele><time>2026-04-24T13:32:05.999Z</time></trkpt><trkpt lat="38.059577250246775" lon="15.795752934865453"><ele>1098.0</ele><time>2026-04-24T13:32:06.999Z</time></trkpt><trkpt lat="38.0594747572757" lon="15.795889468885921"><ele>1100.75</ele><time>2026-04-24T13:32:07.999Z</time></trkpt><trkpt lat="38.05938976808712" lon="15.796031281991517"><ele>1103.5</ele><time>2026-04-24T13:32:08.999Z</time></trkpt><trkpt lat="38.059344506066935" lon="15.796178930318467"><ele>1106.25</ele><time>2026-04-24T13:32:09.999Z</time></trkpt><trkpt lat="38.05932155843411" lon="15.796353008106099"><ele>1109.0</ele><time>2026-04-24T13:32:10.999Z</time></trkpt><trkpt lat="38.05929971519953" lon="15.796551239588675"><ele>1109.0</ele><time>2026-04-24T13:32:11.999Z</time></trkpt><trkpt lat="38.05927267871332" lon="15.79676566102692"><ele>1109.0</ele><time>2026-04-24T13:32:12.999Z</time></trkpt><trkpt lat="38.05923980261674" lon="15.796993997266902"><ele>1109.0</ele><time>2026-04-24T13:32:13.999Z</time></trkpt><trkpt lat="38.05920974372955" lon="15.797233916385967"><ele>1109.3333333333335</ele><time>2026-04-24T13:32:14.999Z</time></trkpt><trkpt lat="38.05917973706971" lon="15.797475801062804"><ele>1109.6666666666667</ele><time>2026-04-24T13:32:15.999Z</time></trkpt><trkpt lat="38.05914080096811" lon="15.797725454876657"><ele>1110.0</ele><time>2026-04-24T13:32:16.999Z</time></trkpt><trkpt lat="38.059105170044674" lon="15.797971134109229"><ele>1106.6666666666667</ele><time>2026-04-24T13:32:17.999Z</time></trkpt><trkpt lat="38.05907106260112" lon="15.798201395175594"><ele>1103.3333333333335</ele><time>2026-04-24T13:32:18.999Z</time></trkpt><trkpt lat="38.05904009234375" lon="15.798399531907474"><ele>1100.0</ele><time>2026-04-24T13:32:19.999Z</time></trkpt><trkpt lat="38.059020689066294" lon="15.798589498981473"><ele>1095.6666666666667</ele><time>2026-04-24T13:32:21Z</time></trkpt><trkpt lat="38.058978277319774" lon="15.798766605228247"><ele>1091.3333333333333</ele><time>2026-04-24T13:32:22Z</time></trkpt><trkpt lat="38.05895190843344" lon="15.798945328657105"><ele>1087.0</ele><time>2026-04-24T13:32:23Z</time></trkpt><trkpt lat="38.059093938291646" lon="15.799155837340978"><ele>1093.0</ele><time>2026-04-24T13:32:24Z</time></trkpt><trkpt lat="38.05913537255384" lon="15.799326286924043"><ele>1099.0</ele><time>2026-04-24T13:32:25Z</time></trkpt><trkpt lat="38.05916290812212" lon="15.799478153154267"><ele>1105.0</ele><time>2026-04-24T13:32:26Z</time></trkpt><trkpt lat="38.0591762250904" lon="15.79962304125639"><ele>1111.0</ele><time>2026-04-24T13:32:27Z</time></trkpt><trkpt lat="38.05917617007731" lon="15.79977879727808"><ele>1111.0</ele><time>2026-04-24T13:32:28Z</time></trkpt><trkpt lat="38.05916554554537" lon="15.799950470767955"><ele>1111.0</ele><time>2026-04-24T13:32:29Z</time></trkpt><trkpt lat="38.059150187455494" lon="15.800137585817923"><ele>1111.0</ele><time>2026-04-24T13:32:30Z</time></trkpt><trkpt lat="38.05913547218096" lon="15.800329397344981"><ele>1111.0</ele><time>2026-04-24T13:32:31Z</time></trkpt><trkpt lat="38.05912302473254" lon="15.800514178329754"><ele>1110.2</ele><time>2026-04-24T13:32:32Z</time></trkpt><trkpt lat="38.05911015137381" lon="15.80067718928574"><ele>1109.3999999999999</ele><time>2026-04-24T13:32:33Z</time></trkpt><trkpt lat="38.05909131234695" lon="15.80081550962708"><ele>1108.6</ele><time>2026-04-24T13:32:34Z</time></trkpt><trkpt lat="38.05906819115931" lon="15.800935613055263"><ele>1107.8</ele><time>2026-04-24T13:32:35Z</time></trkpt><trkpt lat="38.05902678710196" lon="15.801052985328333"><ele>1107.0</ele><time>2026-04-24T13:32:36Z</time></trkpt><trkpt lat="38.058956523475736" lon="15.801157582843453"><ele>1110.3333333333333</ele><time>2026-04-24T13:32:36.999Z</time></trkpt><trkpt lat="38.05885301888717" lon="15.801255044971008"><ele>1113.6666666666665</ele><time>2026-04-24T13:32:37.999Z</time></trkpt><trkpt lat="38.05873058158307" lon="15.801376678604374"><ele>1117.0</ele><time>2026-04-24T13:32:38.999Z</time></trkpt><trkpt lat="38.05858414684434" lon="15.801538823222396"><ele>1117.0</ele><time>2026-04-24T13:32:39.999Z</time></trkpt><trkpt lat="38.05843202224618" lon="15.801720191918445"><ele>1117.0</ele><time>2026-04-24T13:32:40.999Z</time></trkpt><trkpt lat="38.05829768843298" lon="15.801869257747745"><ele>1117.0</ele><time>2026-04-24T13:32:41.999Z</time></trkpt><trkpt lat="38.05817979203784" lon="15.8020023491583"><ele>1116.3333333333333</ele><time>2026-04-24T13:32:42.999Z</time></trkpt><trkpt lat="38.0580630372073" lon="15.80213963461863"><ele>1115.6666666666667</ele><time>2026-04-24T13:32:43.999Z</time></trkpt><trkpt lat="38.057938982420914" lon="15.802282779342134"><ele>1115.0</ele><time>2026-04-24T13:32:44.999Z</time></trkpt><trkpt lat="38.05781072372051" lon="15.802426044460665"><ele>1115.0</ele><time>2026-04-24T13:32:45.999Z</time></trkpt><trkpt lat="38.0576853698041" lon="15.802566817749629"><ele>1115.0</ele><time>2026-04-24T13:32:46.999Z</time></trkpt><trkpt lat="38.05756152864918" lon="15.802709123521836"><ele>1115.0</ele><time>2026-04-24T13:32:47.999Z</time></trkpt><trkpt lat="38.057439511890585" lon="15.802849750918572"><ele>1114.75</ele><time>2026-04-24T13:32:48.999Z</time></trkpt><trkpt lat="38.05732610178167" lon="15.802973611285845"><ele>1114.5</ele><time>2026-04-24T13:32:49.999Z</time></trkpt><trkpt lat="38.05722102948084" lon="15.803087713003608"><ele>1114.25</ele><time>2026-04-24T13:32:50.999Z</time></trkpt><trkpt lat="38.05712628623592" lon="15.803216588243735"><ele>1114.0</ele><time>2026-04-24T13:32:51.999Z</time></trkpt><trkpt lat="38.057046908000224" lon="15.80337386005663"><ele>1114.0</ele><time>2026-04-24T13:32:52.999Z</time></trkpt><trkpt lat="38.05698013631908" lon="15.803549303906182"><ele>1114.0</ele><time>2026-04-24T13:32:53.999Z</time></trkpt><trkpt lat="38.05692288429168" lon="15.80373561570308"><ele>1114.0</ele><time>2026-04-24T13:32:54.999Z</time></trkpt><trkpt lat="38.05687569394909" lon="15.803935388441904"><ele>1114.0</ele><time>2026-04-24T13:32:55.999Z</time></trkpt><trkpt lat="38.05683221454252" lon="15.804161389794466"><ele>1114.0</ele><time>2026-04-24T13:32:56.999Z</time></trkpt><trkpt lat="38.05678947940163" lon="15.804387683587855"><ele>1114.0</ele><time>2026-04-24T13:32:57.999Z</time></trkpt><trkpt lat="38.05675037176199" lon="15.804618720484605"><ele>1116.3333333333333</ele><time>2026-04-24T13:32:58.999Z</time></trkpt><trkpt lat="38.05671231716974" lon="15.804841949229427"><ele>1118.6666666666667</ele><time>2026-04-24T13:32:59.999Z</time></trkpt><trkpt lat="38.05668186116769" lon="15.80506731805287"><ele>1121.0</ele><time>2026-04-24T13:33:00.999Z</time></trkpt><trkpt lat="38.05666118307738" lon="15.805291517111604"><ele>1121.25</ele><time>2026-04-24T13:33:01.999Z</time></trkpt><trkpt lat="38.05663848978043" lon="15.805478581400784"><ele>1121.5</ele><time>2026-04-24T13:33:02.999Z</time></trkpt><trkpt lat="38.05662380754272" lon="15.805649920814515"><ele>1121.75</ele><time>2026-04-24T13:33:03.999Z</time></trkpt><trkpt lat="38.05662039129044" lon="15.805807658702907"><ele>1122.0</ele><time>2026-04-24T13:33:04.999Z</time></trkpt><trkpt lat="38.05663749765591" lon="15.805982507951335"><ele>1123.25</ele><time>2026-04-24T13:33:05.999Z</time></trkpt><trkpt lat="38.056674623867124" lon="15.806166187219736"><ele>1124.5</ele><time>2026-04-24T13:33:06.999Z</time></trkpt><trkpt lat="38.0566991374787" lon="15.806352801360422"><ele>1125.75</ele><time>2026-04-24T13:33:07.999Z</time></trkpt><trkpt lat="38.05669121632426" lon="15.80654419578356"><ele>1127.0</ele><time>2026-04-24T13:33:08.999Z</time></trkpt><trkpt lat="38.05666048228989" lon="15.80674093723905"><ele>1127.6666666666667</ele><time>2026-04-24T13:33:09.999Z</time></trkpt><trkpt lat="38.05664364695325" lon="15.806933528646091"><ele>1128.3333333333333</ele><time>2026-04-24T13:33:10.999Z</time></trkpt><trkpt lat="38.056662705244605" lon="15.807156537686723"><ele>1129.0</ele><time>2026-04-24T13:33:11.999Z</time></trkpt><trkpt lat="38.05669230271293" lon="15.807407635433524"><ele>1129.3333333333333</ele><time>2026-04-24T13:33:12.999Z</time></trkpt><trkpt lat="38.0566949116081" lon="15.807687063968284"><ele>1129.6666666666667</ele><time>2026-04-24T13:33:13.999Z</time></trkpt><trkpt lat="38.05667420262964" lon="15.807965183559952"><ele>1130.0</ele><time>2026-04-24T13:33:14.999Z</time></trkpt><trkpt lat="38.05665590952463" lon="15.808171911544013"><ele>1130.0</ele><time>2026-04-24T13:33:15.999Z</time></trkpt><trkpt lat="38.056643637749" lon="15.80831249430528"><ele>1130.0</ele><time>2026-04-24T13:33:16.999Z</time></trkpt><trkpt lat="38.05663825156182" lon="15.80840714199466"><ele>1130.0</ele><time>2026-04-24T13:33:17.999Z</time></trkpt><trkpt lat="38.05670140075549" lon="15.808458681892787"><ele>1130.0</ele><time>2026-04-24T13:33:20.999Z</time></trkpt><trkpt lat="38.05677298396493" lon="15.80841354986352"><ele>1130.0</ele><time>2026-04-24T13:33:22.999Z</time></trkpt><trkpt lat="38.05678778377173" lon="15.808281385863713"><ele>1130.0</ele><time>2026-04-24T13:33:24.999Z</time></trkpt><trkpt lat="38.05683672924921" lon="15.808166745815376"><ele>1130.0</ele><time>2026-04-24T13:33:26.999Z</time></trkpt><trkpt lat="38.05688828376357" lon="15.808098167848485"><ele>1130.0</ele><time>2026-04-24T13:33:27.999Z</time></trkpt><trkpt lat="38.05695991876731" lon="15.80804074330539"><ele>1130.0</ele><time>2026-04-24T13:33:28.999Z</time></trkpt><trkpt lat="38.05703894611109" lon="15.807984310157615"><ele>1130.0</ele><time>2026-04-24T13:33:29.999Z</time></trkpt><trkpt lat="38.05712412775977" lon="15.807925997941274"><ele>1130.0</ele><time>2026-04-24T13:33:30.999Z</time></trkpt><trkpt lat="38.05722440833514" lon="15.807861627568604"><ele>1130.0</ele><time>2026-04-24T13:33:31.999Z</time></trkpt><trkpt lat="38.05733565091305" lon="15.807795027421363"><ele>1130.0</ele><time>2026-04-24T13:33:32.999Z</time></trkpt><trkpt lat="38.057454769916454" lon="15.807733016809669"><ele>1130.0</ele><time>2026-04-24T13:33:33.999Z</time></trkpt><trkpt lat="38.05757751704533" lon="15.807670879601655"><ele>1130.0</ele><time>2026-04-24T13:33:34.999Z</time></trkpt><trkpt lat="38.057712282774354" lon="15.807617483510812"><ele>1132.3333333333335</ele><time>2026-04-24T13:33:35.999Z</time></trkpt><trkpt lat="38.0578494674758" lon="15.807561603810724"><ele>1134.6666666666667</ele><time>2026-04-24T13:33:36.999Z</time></trkpt><trkpt lat="38.05799864594447" lon="15.807524731767355"><ele>1137.0</ele><time>2026-04-24T13:33:37.999Z</time></trkpt><trkpt lat="38.058152766560404" lon="15.807497305979032"><ele>1138.6666666666667</ele><time>2026-04-24T13:33:38.999Z</time></trkpt><trkpt lat="38.05831266419437" lon="15.807474697397106"><ele>1140.3333333333335</ele><time>2026-04-24T13:33:39.999Z</time></trkpt><trkpt lat="38.058478832736604" lon="15.80745183170477"><ele>1142.0</ele><time>2026-04-24T13:33:40.999Z</time></trkpt><trkpt lat="38.05864635894698" lon="15.807429019514213"><ele>1142.0</ele><time>2026-04-24T13:33:41.999Z</time></trkpt><trkpt lat="38.05882081945341" lon="15.807405843974834"><ele>1142.0</ele><time>2026-04-24T13:33:42.999Z</time></trkpt><trkpt lat="38.05899448293072" lon="15.807379219950539"><ele>1142.0</ele><time>2026-04-24T13:33:43.999Z</time></trkpt><trkpt lat="38.059168630118016" lon="15.807351886798674"><ele>1144.0</ele><time>2026-04-24T13:33:44.999Z</time></trkpt><trkpt lat="38.05934044095829" lon="15.807328634321333"><ele>1146.0</ele><time>2026-04-24T13:33:45.999Z</time></trkpt><trkpt lat="38.05949991364329" lon="15.807317692968775"><ele>1148.0</ele><time>2026-04-24T13:33:46.999Z</time></trkpt><trkpt lat="38.059660549429275" lon="15.807324172023128"><ele>1148.0</ele><time>2026-04-24T13:33:47.999Z</time></trkpt><trkpt lat="38.05982509998573" lon="15.807357542807281"><ele>1148.0</ele><time>2026-04-24T13:33:48.999Z</time></trkpt><trkpt lat="38.05999777477291" lon="15.80741078685064"><ele>1148.0</ele><time>2026-04-24T13:33:49.999Z</time></trkpt><trkpt lat="38.06016719483601" lon="15.807480719350654"><ele>1149.0</ele><time>2026-04-24T13:33:50.999Z</time></trkpt><trkpt lat="38.060335470199284" lon="15.80755788046814"><ele>1150.0</ele><time>2026-04-24T13:33:51.999Z</time></trkpt><trkpt lat="38.06050701173225" lon="15.807643434279834"><ele>1151.0</ele><time>2026-04-24T13:33:52.999Z</time></trkpt><trkpt lat="38.06067962368465" lon="15.807737206680768"><ele>1153.0</ele><time>2026-04-24T13:33:53.999Z</time></trkpt><trkpt lat="38.06085090733128" lon="15.807840598748712"><ele>1155.0</ele><time>2026-04-24T13:33:54.999Z</time></trkpt><trkpt lat="38.06101731209092" lon="15.807972248799722"><ele>1157.0</ele><time>2026-04-24T13:33:55.999Z</time></trkpt><trkpt lat="38.06117931466141" lon="15.808122244992214"><ele>1157.0</ele><time>2026-04-24T13:33:56.999Z</time></trkpt><trkpt lat="38.06134468226587" lon="15.808300340992522"><ele>1157.0</ele><time>2026-04-24T13:33:57.999Z</time></trkpt><trkpt lat="38.061498803787075" lon="15.808467710981104"><ele>1157.0</ele><time>2026-04-24T13:33:58.999Z</time></trkpt><trkpt lat="38.06160976888866" lon="15.808622942404979"><ele>1157.75</ele><time>2026-04-24T13:33:59.999Z</time></trkpt><trkpt lat="38.06166907876506" lon="15.808764393801765"><ele>1158.5</ele><time>2026-04-24T13:34:00.999Z</time></trkpt><trkpt lat="38.06170532739766" lon="15.808918464396598"><ele>1159.25</ele><time>2026-04-24T13:34:01.999Z</time></trkpt><trkpt lat="38.061764607427044" lon="15.80910876826993"><ele>1160.0</ele><time>2026-04-24T13:34:02.999Z</time></trkpt><trkpt lat="38.061750137502635" lon="15.809347122899215"><ele>1161.3333333333335</ele><time>2026-04-24T13:34:03.999Z</time></trkpt><trkpt lat="38.06172960169262" lon="15.809590280950307"><ele>1162.6666666666667</ele><time>2026-04-24T13:34:04.999Z</time></trkpt><trkpt lat="38.06172278452519" lon="15.80984161218274"><ele>1164.0</ele><time>2026-04-24T13:34:05.999Z</time></trkpt><trkpt lat="38.06172923469827" lon="15.810068078717057"><ele>1164.0</ele><time>2026-04-24T13:34:06.999Z</time></trkpt><trkpt lat="38.06173068658256" lon="15.81019717238952"><ele>1164.0</ele><time>2026-04-24T13:34:07.999Z</time></trkpt><trkpt lat="38.06171822521625" lon="15.81029668232555"><ele>1164.0</ele><time>2026-04-24T13:34:09.999Z</time></trkpt><trkpt lat="38.06178087495452" lon="15.810269376088812"><ele>1164.0</ele><time>2026-04-24T13:34:14.999Z</time></trkpt><trkpt lat="38.06174478297108" lon="15.810137538400964"><ele>1164.0</ele><time>2026-04-24T13:34:16.999Z</time></trkpt><trkpt lat="38.061740290275324" lon="15.810057031297474"><ele>1164.0</ele><time>2026-04-24T13:34:18Z</time></trkpt><trkpt lat="38.06173814479519" lon="15.809956211980408"><ele>1164.0</ele><time>2026-04-24T13:34:19Z</time></trkpt><trkpt lat="38.06174103411961" lon="15.809840091414266"><ele>1164.0</ele><time>2026-04-24T13:34:20Z</time></trkpt><trkpt lat="38.06173701877169" lon="15.809718334915617"><ele>1164.0</ele><time>2026-04-24T13:34:21Z</time></trkpt><trkpt lat="38.06173713340114" lon="15.80959038589474"><ele>1164.0</ele><time>2026-04-24T13:34:22Z</time></trkpt><trkpt lat="38.06173774926776" lon="15.80945461742518"><ele>1164.0</ele><time>2026-04-24T13:34:23Z</time></trkpt><trkpt lat="38.061740050353905" lon="15.809313032832229"><ele>1163.2</ele><time>2026-04-24T13:34:24Z</time></trkpt><trkpt lat="38.06173945013337" lon="15.809183592941844"><ele>1162.4</ele><time>2026-04-24T13:34:25Z</time></trkpt><trkpt lat="38.06173795575742" lon="15.809077437313633"><ele>1161.6</ele><time>2026-04-24T13:34:26Z</time></trkpt><trkpt lat="38.06174287303078" lon="15.808976789176532"><ele>1160.8</ele><time>2026-04-24T13:34:27Z</time></trkpt><trkpt lat="38.061849207245935" lon="15.808801571207507"><ele>1160.0</ele><time>2026-04-24T13:34:29Z</time></trkpt><trkpt lat="38.061916063688926" lon="15.808710074897874"><ele>1160.0</ele><time>2026-04-24T13:34:30Z</time></trkpt><trkpt lat="38.06196253403166" lon="15.808590829003753"><ele>1160.0</ele><time>2026-04-24T13:34:31Z</time></trkpt><trkpt lat="38.061978327199284" lon="15.808445503927246"><ele>1160.0</ele><time>2026-04-24T13:34:32Z</time></trkpt><trkpt lat="38.06198349928008" lon="15.808289656995692"><ele>1160.0</ele><time>2026-04-24T13:34:33Z</time></trkpt><trkpt lat="38.06199007326525" lon="15.808120831659446"><ele>1159.5</ele><time>2026-04-24T13:34:34Z</time></trkpt><trkpt lat="38.062006478990966" lon="15.80795071326471"><ele>1159.0</ele><time>2026-04-24T13:34:35Z</time></trkpt><trkpt lat="38.06201529524611" lon="15.807790732523063"><ele>1158.5</ele><time>2026-04-24T13:34:36Z</time></trkpt><trkpt lat="38.0620139967297" lon="15.807638240511066"><ele>1158.0</ele><time>2026-04-24T13:34:37Z</time></trkpt><trkpt lat="38.06198767260433" lon="15.807501639462023"><ele>1157.6</ele><time>2026-04-24T13:34:38Z</time></trkpt><trkpt lat="38.061948693910736" lon="15.807377302853103"><ele>1157.1999999999998</ele><time>2026-04-24T13:34:39Z</time></trkpt><trkpt lat="38.06189536530382" lon="15.807256155725309"><ele>1156.8</ele><time>2026-04-24T13:34:40Z</time></trkpt><trkpt lat="38.06186164418227" lon="15.807159648822703"><ele>1156.3999999999999</ele><time>2026-04-24T13:34:41Z</time></trkpt><trkpt lat="38.06193834180066" lon="15.807028333560964"><ele>1156.0</ele><time>2026-04-24T13:34:42.999Z</time></trkpt><trkpt lat="38.06202167817215" lon="15.806965039534314"><ele>1156.0</ele><time>2026-04-24T13:34:43.999Z</time></trkpt><trkpt lat="38.06212968998118" lon="15.806897996718817"><ele>1156.0</ele><time>2026-04-24T13:34:44.999Z</time></trkpt><trkpt lat="38.062270848040406" lon="15.806821384781752"><ele>1156.0</ele><time>2026-04-24T13:34:45.999Z</time></trkpt><trkpt lat="38.0624516975146" lon="15.80671765574946"><ele>1153.3333333333333</ele><time>2026-04-24T13:34:46.999Z</time></trkpt><trkpt lat="38.062612885719346" lon="15.80661456895337"><ele>1150.6666666666667</ele><time>2026-04-24T13:34:47.999Z</time></trkpt><trkpt lat="38.06274372109448" lon="15.806518046517448"><ele>1148.0</ele><time>2026-04-24T13:34:48.999Z</time></trkpt><trkpt lat="38.062862936679586" lon="15.806435533744532"><ele>1148.0</ele><time>2026-04-24T13:34:49.999Z</time></trkpt><trkpt lat="38.06297001399194" lon="15.80636677260716"><ele>1148.0</ele><time>2026-04-24T13:34:50.999Z</time></trkpt><trkpt lat="38.06306320820769" lon="15.806310898044027"><ele>1148.0</ele><time>2026-04-24T13:34:51.999Z</time></trkpt><trkpt lat="38.06316152990312" lon="15.806264526134703"><ele>1148.0</ele><time>2026-04-24T13:34:52.999Z</time></trkpt><trkpt lat="38.06325960462774" lon="15.80622888494322"><ele>1148.0</ele><time>2026-04-24T13:34:53.999Z</time></trkpt><trkpt lat="38.06335692223622" lon="15.806200115279681"><ele>1146.4</ele><time>2026-04-24T13:34:54.999Z</time></trkpt><trkpt lat="38.06344957404398" lon="15.806153129609855"><ele>1144.8</ele><time>2026-04-24T13:34:55.999Z</time></trkpt><trkpt lat="38.063544297319815" lon="15.806103707356458"><ele>1143.2</ele><time>2026-04-24T13:34:56.999Z</time></trkpt><trkpt lat="38.06364104249172" lon="15.806060123618932"><ele>1141.6</ele><time>2026-04-24T13:34:57.999Z</time></trkpt><trkpt lat="38.06374074963674" lon="15.806026018153672"><ele>1140.0</ele><time>2026-04-24T13:34:58.999Z</time></trkpt><trkpt lat="38.063843213656575" lon="15.805989607525069"><ele>1140.0</ele><time>2026-04-24T13:34:59.999Z</time></trkpt><trkpt lat="38.06394328768239" lon="15.805948972116223"><ele>1140.0</ele><time>2026-04-24T13:35:00.999Z</time></trkpt><trkpt lat="38.06404105321064" lon="15.805911451844262"><ele>1140.0</ele><time>2026-04-24T13:35:01.999Z</time></trkpt><trkpt lat="38.06413475376157" lon="15.80587196209978"><ele>1140.0</ele><time>2026-04-24T13:35:02.999Z</time></trkpt><trkpt lat="38.06421537931894" lon="15.805808631736065"><ele>1140.0</ele><time>2026-04-24T13:35:03.999Z</time></trkpt><trkpt lat="38.06429239061472" lon="15.805726601868848"><ele>1137.8</ele><time>2026-04-24T13:35:04.999Z</time></trkpt><trkpt lat="38.06437768303408" lon="15.80565318298888"><ele>1135.6</ele><time>2026-04-24T13:35:05.999Z</time></trkpt><trkpt lat="38.06445232434536" lon="15.805605073058175"><ele>1133.4</ele><time>2026-04-24T13:35:06.999Z</time></trkpt><trkpt lat="38.06450425961071" lon="15.805554196163982"><ele>1131.2</ele><time>2026-04-24T13:35:07.999Z</time></trkpt><trkpt lat="38.06451948605261" lon="15.805436308036724"><ele>1129.0</ele><time>2026-04-24T13:35:09.999Z</time></trkpt><trkpt lat="38.06445150482409" lon="15.80533542202479"><ele>1129.0</ele><time>2026-04-24T13:35:11.999Z</time></trkpt><trkpt lat="38.06441776397759" lon="15.805254278720021"><ele>1129.0</ele><time>2026-04-24T13:35:12.999Z</time></trkpt><trkpt lat="38.06439991902076" lon="15.80516102422101"><ele>1129.0</ele><time>2026-04-24T13:35:13.999Z</time></trkpt><trkpt lat="38.06439800256748" lon="15.805061833448448"><ele>1129.0</ele><time>2026-04-24T13:35:14.999Z</time></trkpt><trkpt lat="38.064408020937016" lon="15.804975760133052"><ele>1129.0</ele><time>2026-04-24T13:35:15.999Z</time></trkpt><trkpt lat="38.06441784592064" lon="15.804892594026558"><ele>1129.0</ele><time>2026-04-24T13:35:16.999Z</time></trkpt><trkpt lat="38.06442250652625" lon="15.80473144665001"><ele>1128.6666666666665</ele><time>2026-04-24T13:35:18.999Z</time></trkpt><trkpt lat="38.06443480437399" lon="15.804648119202422"><ele>1128.3333333333333</ele><time>2026-04-24T13:35:19.999Z</time></trkpt><trkpt lat="38.06444711590102" lon="15.804562748761931"><ele>1128.0</ele><time>2026-04-24T13:35:20.999Z</time></trkpt><trkpt lat="38.06445556097993" lon="15.804474263215457"><ele>1127.6666666666667</ele><time>2026-04-24T13:35:21.999Z</time></trkpt><trkpt lat="38.06446439086545" lon="15.804346465555147"><ele>1127.3333333333335</ele><time>2026-04-24T13:35:24Z</time></trkpt><trkpt lat="38.06441907002838" lon="15.804287182455285"><ele>1127.0</ele><time>2026-04-24T13:35:29Z</time></trkpt><trkpt lat="38.06429368584008" lon="15.804226969488967"><ele>1126.8</ele><time>2026-04-24T13:35:31Z</time></trkpt><trkpt lat="38.06424371984894" lon="15.804130035289619"><ele>1126.6</ele><time>2026-04-24T13:35:32Z</time></trkpt><trkpt lat="38.064211415427486" lon="15.804008830342088"><ele>1126.3999999999999</ele><time>2026-04-24T13:35:33Z</time></trkpt><trkpt lat="38.06418296275841" lon="15.80389034368899"><ele>1126.2</ele><time>2026-04-24T13:35:34Z</time></trkpt><trkpt lat="38.064152375028044" lon="15.803782059895115"><ele>1126.0</ele><time>2026-04-24T13:35:35Z</time></trkpt><trkpt lat="38.06412811402983" lon="15.803682898031028"><ele>1126.0</ele><time>2026-04-24T13:35:36Z</time></trkpt><trkpt lat="38.06413489625043" lon="15.803577548271521"><ele>1126.0</ele><time>2026-04-24T13:35:38Z</time></trkpt><trkpt lat="38.064226361433704" lon="15.803513489762961"><ele>1126.0</ele><time>2026-04-24T13:35:40Z</time></trkpt><trkpt lat="38.06430803921026" lon="15.803467030850198"><ele>1126.0</ele><time>2026-04-24T13:35:41Z</time></trkpt><trkpt lat="38.06439356565761" lon="15.803419827296745"><ele>1126.0</ele><time>2026-04-24T13:35:42Z</time></trkpt><trkpt lat="38.064485601238424" lon="15.803375263560563"><ele>1125.75</ele><time>2026-04-24T13:35:43Z</time></trkpt><trkpt lat="38.06458921495263" lon="15.803334254330453"><ele>1125.5</ele><time>2026-04-24T13:35:44Z</time></trkpt><trkpt lat="38.064693108907335" lon="15.803282943069288"><ele>1125.25</ele><time>2026-04-24T13:35:45Z</time></trkpt><trkpt lat="38.06479984357465" lon="15.803215146208187"><ele>1125.0</ele><time>2026-04-24T13:35:46Z</time></trkpt><trkpt lat="38.064919400013146" lon="15.803137466420628"><ele>1126.3333333333333</ele><time>2026-04-24T13:35:47Z</time></trkpt><trkpt lat="38.06504944386407" lon="15.80305679066384"><ele>1127.6666666666665</ele><time>2026-04-24T13:35:48Z</time></trkpt><trkpt lat="38.065192321564446" lon="15.802980200369635"><ele>1129.0</ele><time>2026-04-24T13:35:49Z</time></trkpt><trkpt lat="38.065348840944715" lon="15.802893174787044"><ele>1129.0</ele><time>2026-04-24T13:35:50Z</time></trkpt><trkpt lat="38.065466774387176" lon="15.802824308607445"><ele>1129.0</ele><time>2026-04-24T13:35:51Z</time></trkpt><trkpt lat="38.06556126170081" lon="15.80275940953818"><ele>1129.0</ele><time>2026-04-24T13:35:52Z</time></trkpt><trkpt lat="38.06564817250607" lon="15.80281045583265"><ele>1129.0</ele><time>2026-04-24T13:35:56Z</time></trkpt><trkpt lat="38.0656812854646" lon="15.802980826421441"><ele>1129.0</ele><time>2026-04-24T13:35:58Z</time></trkpt><trkpt lat="38.065714397590554" lon="15.803088550300954"><ele>1129.0</ele><time>2026-04-24T13:35:59Z</time></trkpt><trkpt lat="38.06574826761065" lon="15.803200440766405"><ele>1129.0</ele><time>2026-04-24T13:36:00Z</time></trkpt><trkpt lat="38.06578210052839" lon="15.803338735514185"><ele>1129.0</ele><time>2026-04-24T13:36:01Z</time></trkpt><trkpt lat="38.065830870891084" lon="15.803499836540968"><ele>1129.0</ele><time>2026-04-24T13:36:02Z</time></trkpt><trkpt lat="38.065875942368656" lon="15.803672467325347"><ele>1130.75</ele><time>2026-04-24T13:36:03Z</time></trkpt><trkpt lat="38.065908451822914" lon="15.803830958220384"><ele>1132.5</ele><time>2026-04-24T13:36:04Z</time></trkpt><trkpt lat="38.0659248105303" lon="15.803954256780793"><ele>1134.25</ele><time>2026-04-24T13:36:05Z</time></trkpt><trkpt lat="38.06596741590869" lon="15.804091444950478"><ele>1136.0</ele><time>2026-04-24T13:36:06Z</time></trkpt><trkpt lat="38.06600997597893" lon="15.804271249132926"><ele>1136.75</ele><time>2026-04-24T13:36:07Z</time></trkpt><trkpt lat="38.066048319763695" lon="15.804459725500488"><ele>1137.5</ele><time>2026-04-24T13:36:08Z</time></trkpt><trkpt lat="38.066060391552845" lon="15.804613010018167"><ele>1138.25</ele><time>2026-04-24T13:36:09Z</time></trkpt><trkpt lat="38.066064151034674" lon="15.804757468935913"><ele>1139.0</ele><time>2026-04-24T13:36:10Z</time></trkpt><trkpt lat="38.06607479376798" lon="15.804869709619144"><ele>1139.0</ele><time>2026-04-24T13:36:11Z</time></trkpt><trkpt lat="38.0660906936975" lon="15.804992776217725"><ele>1139.0</ele><time>2026-04-24T13:36:12Z</time></trkpt><trkpt lat="38.066086616332996" lon="15.805104042111738"><ele>1139.0</ele><time>2026-04-24T13:36:13Z</time></trkpt><trkpt lat="38.06607431781179" lon="15.80520515555394"><ele>1139.0</ele><time>2026-04-24T13:36:14Z</time></trkpt><trkpt lat="38.0660699867061" lon="15.805354400010774"><ele>1139.0</ele><time>2026-04-24T13:36:16Z</time></trkpt><trkpt lat="38.066084727846864" lon="15.80545917433795"><ele>1139.4</ele><time>2026-04-24T13:36:17Z</time></trkpt><trkpt lat="38.066112096547684" lon="15.805601099612415"><ele>1139.8000000000002</ele><time>2026-04-24T13:36:18Z</time></trkpt><trkpt lat="38.06613913513013" lon="15.805719692863176"><ele>1140.1999999999998</ele><time>2026-04-24T13:36:19Z</time></trkpt><trkpt lat="38.06615486921916" lon="15.805818218288255"><ele>1140.6</ele><time>2026-04-24T13:36:20Z</time></trkpt><trkpt lat="38.066168532123605" lon="15.805902152387"><ele>1141.0</ele><time>2026-04-24T13:36:21Z</time></trkpt><trkpt lat="38.066186448125706" lon="15.80601559611858"><ele>1141.3999999999999</ele><time>2026-04-24T13:36:22Z</time></trkpt><trkpt lat="38.066205227301054" lon="15.806153615894466"><ele>1141.8</ele><time>2026-04-24T13:36:23Z</time></trkpt><trkpt lat="38.06621419387754" lon="15.806298710663382"><ele>1142.1999999999998</ele><time>2026-04-24T13:36:24.001Z</time></trkpt><trkpt lat="38.06623465645858" lon="15.80643699575405"><ele>1142.6</ele><time>2026-04-24T13:36:25.001Z</time></trkpt><trkpt lat="38.06625967027446" lon="15.806525897399139"><ele>1143.0</ele><time>2026-04-24T13:36:26.001Z</time></trkpt><trkpt lat="38.06629272176321" lon="15.806601164989372"><ele>1143.0</ele><time>2026-04-24T13:36:27.001Z</time></trkpt><trkpt lat="38.06635152218317" lon="15.806739929113633"><ele>1143.0</ele><time>2026-04-24T13:36:28.001Z</time></trkpt><trkpt lat="38.066393810016976" lon="15.806915495708177"><ele>1143.0</ele><time>2026-04-24T13:36:29.001Z</time></trkpt><trkpt lat="38.066411068695096" lon="15.8070869861622"><ele>1143.0</ele><time>2026-04-24T13:36:30.001Z</time></trkpt><trkpt lat="38.066429447075414" lon="15.807233535628818"><ele>1143.6</ele><time>2026-04-24T13:36:31.001Z</time></trkpt><trkpt lat="38.066456818467934" lon="15.80735342623322"><ele>1144.1999999999998</ele><time>2026-04-24T13:36:32.001Z</time></trkpt><trkpt lat="38.066475157576136" lon="15.807472634750683"><ele>1144.8</ele><time>2026-04-24T13:36:33.001Z</time></trkpt><trkpt lat="38.066501313726306" lon="15.807582127522526"><ele>1145.3999999999999</ele><time>2026-04-24T13:36:34.001Z</time></trkpt><trkpt lat="38.06653852343991" lon="15.807735982194531"><ele>1146.0</ele><time>2026-04-24T13:36:35.001Z</time></trkpt><trkpt lat="38.06657213664548" lon="15.807902210072426"><ele>1147.0</ele><time>2026-04-24T13:36:36.001Z</time></trkpt><trkpt lat="38.06659200192599" lon="15.808046426065953"><ele>1148.0</ele><time>2026-04-24T13:36:37.001Z</time></trkpt><trkpt lat="38.06660254145435" lon="15.808165862482236"><ele>1149.0</ele><time>2026-04-24T13:36:38.001Z</time></trkpt><trkpt lat="38.066611824769645" lon="15.80831173178151"><ele>1150.0</ele><time>2026-04-24T13:36:39.001Z</time></trkpt><trkpt lat="38.066635538396966" lon="15.808473066250205"><ele>1150.0</ele><time>2026-04-24T13:36:40.001Z</time></trkpt><trkpt lat="38.066652245181075" lon="15.808605300534932"><ele>1150.0</ele><time>2026-04-24T13:36:41.001Z</time></trkpt><trkpt lat="38.06667468006386" lon="15.808709598008313"><ele>1150.0</ele><time>2026-04-24T13:36:42.001Z</time></trkpt><trkpt lat="38.06671439911597" lon="15.80884416674526"><ele>1150.0</ele><time>2026-04-24T13:36:43.001Z</time></trkpt><trkpt lat="38.06675229302091" lon="15.808985295806563"><ele>1150.0</ele><time>2026-04-24T13:36:44.001Z</time></trkpt><trkpt lat="38.066795455920975" lon="15.809125253052475"><ele>1150.0</ele><time>2026-04-24T13:36:45.001Z</time></trkpt><trkpt lat="38.06685444734114" lon="15.809285503543387"><ele>1150.0</ele><time>2026-04-24T13:36:46.001Z</time></trkpt><trkpt lat="38.06691217179904" lon="15.80946056489116"><ele>1150.0</ele><time>2026-04-24T13:36:47.001Z</time></trkpt><trkpt lat="38.066979586678684" lon="15.809656444777923"><ele>1150.25</ele><time>2026-04-24T13:36:48Z</time></trkpt><trkpt lat="38.06705683948325" lon="15.809849278795461"><ele>1150.5</ele><time>2026-04-24T13:36:49Z</time></trkpt><trkpt lat="38.06712118756399" lon="15.810014299109936"><ele>1150.75</ele><time>2026-04-24T13:36:50Z</time></trkpt><trkpt lat="38.0671701369469" lon="15.810136551015813"><ele>1151.0</ele><time>2026-04-24T13:36:51Z</time></trkpt><trkpt lat="38.06721672209485" lon="15.810254416441632"><ele>1152.2</ele><time>2026-04-24T13:36:52Z</time></trkpt><trkpt lat="38.067275002783255" lon="15.810359760471824"><ele>1153.3999999999999</ele><time>2026-04-24T13:36:53Z</time></trkpt><trkpt lat="38.06734687497157" lon="15.81045640203503"><ele>1154.6</ele><time>2026-04-24T13:36:54Z</time></trkpt><trkpt lat="38.067399627135714" lon="15.810523016983682"><ele>1155.8</ele><time>2026-04-24T13:36:55Z</time></trkpt><trkpt lat="38.06745832861507" lon="15.810596328477105"><ele>1157.0</ele><time>2026-04-24T13:36:56Z</time></trkpt><trkpt lat="38.06751784937834" lon="15.810703605754687"><ele>1157.1666666666667</ele><time>2026-04-24T13:36:57Z</time></trkpt><trkpt lat="38.06758873689506" lon="15.810765496583821"><ele>1157.3333333333335</ele><time>2026-04-24T13:36:59Z</time></trkpt><trkpt lat="38.06768279610154" lon="15.810843755952844"><ele>1157.5</ele><time>2026-04-24T13:37:01Z</time></trkpt><trkpt lat="38.06774556927742" lon="15.810901410747343"><ele>1157.6666666666667</ele><time>2026-04-24T13:37:02Z</time></trkpt><trkpt lat="38.06779925860208" lon="15.810954461966778"><ele>1157.8333333333333</ele><time>2026-04-24T13:37:03Z</time></trkpt><trkpt lat="38.0678568321314" lon="15.81100159851673"><ele>1158.0</ele><time>2026-04-24T13:37:04Z</time></trkpt><trkpt lat="38.067946639076496" lon="15.811057022614392"><ele>1158.3333333333333</ele><time>2026-04-24T13:37:06Z</time></trkpt><trkpt lat="38.068043508898754" lon="15.811123649612165"><ele>1158.6666666666667</ele><time>2026-04-24T13:37:08Z</time></trkpt><trkpt lat="38.06811984808968" lon="15.81118402900798"><ele>1159.0</ele><time>2026-04-24T13:37:10Z</time></trkpt><trkpt lat="38.068173903069024" lon="15.811241204628013"><ele>1159.3333333333335</ele><time>2026-04-24T13:37:32Z</time></trkpt><trkpt lat="38.06822748237197" lon="15.811291784872756"><ele>1159.6666666666667</ele><time>2026-04-24T13:37:33Z</time></trkpt><trkpt lat="38.0682855498801" lon="15.8113704520538"><ele>1160.0</ele><time>2026-04-24T13:37:34Z</time></trkpt><trkpt lat="38.06834427367545" lon="15.811458061871472"><ele>1160.3333333333335</ele><time>2026-04-24T13:38:52.001Z</time></trkpt><trkpt lat="38.068380184183624" lon="15.811540447782098"><ele>1160.6666666666667</ele><time>2026-04-24T13:38:53Z</time></trkpt><trkpt lat="38.06840582989104" lon="15.811658294971782"><ele>1161.0</ele><time>2026-04-24T13:38:54Z</time></trkpt><trkpt lat="38.068418633464226" lon="15.811758681938198"><ele>1161.3333333333333</ele><time>2026-04-24T13:38:55Z</time></trkpt><trkpt lat="38.06842867417291" lon="15.811853511064015"><ele>1161.6666666666665</ele><time>2026-04-24T13:38:56Z</time></trkpt><trkpt lat="38.068446968241055" lon="15.811931592402372"><ele>1162.0</ele><time>2026-04-24T13:38:57Z</time></trkpt><trkpt lat="38.06849117410432" lon="15.812062978357599"><ele>1162.3333333333333</ele><time>2026-04-24T13:38:59Z</time></trkpt><trkpt lat="38.06854690896072" lon="15.812198118331972"><ele>1162.6666666666665</ele><time>2026-04-24T13:39:01Z</time></trkpt><trkpt lat="38.06858600940921" lon="15.812269327105405"><ele>1163.0</ele><time>2026-04-24T13:39:02Z</time></trkpt><trkpt lat="38.06863097892805" lon="15.812342426268174"><ele>1163.3333333333333</ele><time>2026-04-24T13:39:03Z</time></trkpt><trkpt lat="38.06867592850857" lon="15.812429084039524"><ele>1163.6666666666667</ele><time>2026-04-24T13:39:04Z</time></trkpt><trkpt lat="38.06874394537941" lon="15.81253001930839"><ele>1164.0</ele><time>2026-04-24T13:39:05Z</time></trkpt><trkpt lat="38.06880957729649" lon="15.812650074620015"><ele>1164.2</ele><time>2026-04-24T13:39:06Z</time></trkpt><trkpt lat="38.06886815522062" lon="15.812769183980036"><ele>1164.4</ele><time>2026-04-24T13:39:07Z</time></trkpt><trkpt lat="38.06891514986522" lon="15.812914163039114"><ele>1164.6</ele><time>2026-04-24T13:39:08Z</time></trkpt><trkpt lat="38.06894987274855" lon="15.813018343825552"><ele>1164.8</ele><time>2026-04-24T13:39:09Z</time></trkpt><trkpt lat="38.06900000344842" lon="15.813145466546624"><ele>1165.0</ele><time>2026-04-24T13:39:10Z</time></trkpt><trkpt lat="38.06906620871516" lon="15.813255784580118"><ele>1165.6</ele><time>2026-04-24T13:39:11Z</time></trkpt><trkpt lat="38.06912494246416" lon="15.813352440876299"><ele>1166.2</ele><time>2026-04-24T13:39:12Z</time></trkpt><trkpt lat="38.06917890309588" lon="15.81343517596089"><ele>1166.8</ele><time>2026-04-24T13:39:13Z</time></trkpt><trkpt lat="38.06923872283294" lon="15.813518999401335"><ele>1167.4</ele><time>2026-04-24T13:39:14Z</time></trkpt><trkpt lat="38.06930445365591" lon="15.813593277539342"><ele>1168.0</ele><time>2026-04-24T13:39:15Z</time></trkpt><trkpt lat="38.06938482801008" lon="15.813674288551123"><ele>1168.4</ele><time>2026-04-24T13:39:16Z</time></trkpt><trkpt lat="38.06947633309046" lon="15.813784934451887"><ele>1168.8</ele><time>2026-04-24T13:39:17Z</time></trkpt><trkpt lat="38.06955531615123" lon="15.813892372478344"><ele>1169.2</ele><time>2026-04-24T13:39:18Z</time></trkpt><trkpt lat="38.06962136166996" lon="15.814002980482066"><ele>1169.6</ele><time>2026-04-24T13:39:19Z</time></trkpt><trkpt lat="38.0696699535887" lon="15.814106944352899"><ele>1170.0</ele><time>2026-04-24T13:39:20Z</time></trkpt><trkpt lat="38.0697088139204" lon="15.81420813656869"><ele>1170.0</ele><time>2026-04-24T13:39:21Z</time></trkpt><trkpt lat="38.06974508347919" lon="15.814304167072608"><ele>1170.0</ele><time>2026-04-24T13:39:22Z</time></trkpt><trkpt lat="38.069796708584875" lon="15.814410588499719"><ele>1170.0</ele><time>2026-04-24T13:39:23Z</time></trkpt><trkpt lat="38.06985745254141" lon="15.814529524591276"><ele>1170.0</ele><time>2026-04-24T13:39:24Z</time></trkpt><trkpt lat="38.069901721795596" lon="15.814665451614507"><ele>1170.0</ele><time>2026-04-24T13:39:25Z</time></trkpt><trkpt lat="38.06993127565693" lon="15.814801374201608"><ele>1170.75</ele><time>2026-04-24T13:39:26Z</time></trkpt><trkpt lat="38.06994691577382" lon="15.814932931304613"><ele>1171.5</ele><time>2026-04-24T13:39:27Z</time></trkpt><trkpt lat="38.06997607447541" lon="15.815073457905937"><ele>1172.25</ele><time>2026-04-24T13:39:28Z</time></trkpt><trkpt lat="38.07001121748004" lon="15.815218293795185"><ele>1173.0</ele><time>2026-04-24T13:39:29Z</time></trkpt><trkpt lat="38.07008585155913" lon="15.815412103876715"><ele>1173.6666666666667</ele><time>2026-04-24T13:39:30Z</time></trkpt><trkpt lat="38.070156936900545" lon="15.815613583479085"><ele>1174.3333333333335</ele><time>2026-04-24T13:39:31Z</time></trkpt><trkpt lat="38.07022447690362" lon="15.815810412349085"><ele>1175.0</ele><time>2026-04-24T13:39:32Z</time></trkpt><trkpt lat="38.070283847345415" lon="15.815958883025674"><ele>1175.0</ele><time>2026-04-24T13:39:33Z</time></trkpt><trkpt lat="38.0703263114834" lon="15.816066712963888"><ele>1175.0</ele><time>2026-04-24T13:39:34Z</time></trkpt><trkpt lat="38.07035837900683" lon="15.816148835591276"><ele>1175.0</ele><time>2026-04-24T13:39:35Z</time></trkpt><trkpt lat="38.07040202316837" lon="15.816226965960483"><ele>1175.0</ele><time>2026-04-24T13:39:38Z</time></trkpt><trkpt lat="38.0703905973028" lon="15.816333976432306"><ele>1175.0</ele><time>2026-04-24T13:39:40Z</time></trkpt><trkpt lat="38.070362479530175" lon="15.816407936105843"><ele>1175.0</ele><time>2026-04-24T13:39:41Z</time></trkpt><trkpt lat="38.070353148729836" lon="15.816494718512187"><ele>1175.0</ele><time>2026-04-24T13:39:42Z</time></trkpt><trkpt lat="38.07035319239829" lon="15.816597362848118"><ele>1175.0</ele><time>2026-04-24T13:39:43Z</time></trkpt><trkpt lat="38.070359367358236" lon="15.81671319206325"><ele>1175.0</ele><time>2026-04-24T13:39:44Z</time></trkpt><trkpt lat="38.07036898509814" lon="15.816835980054465"><ele>1175.0</ele><time>2026-04-24T13:39:45Z</time></trkpt><trkpt lat="38.07039194657461" lon="15.816967013322628"><ele>1175.0</ele><time>2026-04-24T13:39:46Z</time></trkpt><trkpt lat="38.07042706713187" lon="15.817099346101664"><ele>1175.75</ele><time>2026-04-24T13:39:47Z</time></trkpt><trkpt lat="38.070455109464774" lon="15.817242447496813"><ele>1176.5</ele><time>2026-04-24T13:39:48Z</time></trkpt><trkpt lat="38.07049172837762" lon="15.817385362342248"><ele>1177.25</ele><time>2026-04-24T13:39:49Z</time></trkpt><trkpt lat="38.070527607858715" lon="15.81753650149876"><ele>1178.0</ele><time>2026-04-24T13:39:50Z</time></trkpt><trkpt lat="38.070562662999514" lon="15.817681634932493"><ele>1178.75</ele><time>2026-04-24T13:39:51Z</time></trkpt><trkpt lat="38.070600936863315" lon="15.81783282762736"><ele>1179.5</ele><time>2026-04-24T13:39:52Z</time></trkpt><trkpt lat="38.070635846508104" lon="15.817993290627582"><ele>1180.25</ele><time>2026-04-24T13:39:53Z</time></trkpt><trkpt lat="38.07067099792323" lon="15.818152958079493"><ele>1181.0</ele><time>2026-04-24T13:39:54Z</time></trkpt><trkpt lat="38.07070777632673" lon="15.818321087473393"><ele>1181.0</ele><time>2026-04-24T13:39:55Z</time></trkpt><trkpt lat="38.07075198085707" lon="15.81851362966977"><ele>1181.0</ele><time>2026-04-24T13:39:56Z</time></trkpt><trkpt lat="38.07080120252866" lon="15.818718504627592"><ele>1181.0</ele><time>2026-04-24T13:39:57Z</time></trkpt><trkpt lat="38.07084828460023" lon="15.818928851646046"><ele>1181.0</ele><time>2026-04-24T13:39:58Z</time></trkpt><trkpt lat="38.070897993025135" lon="15.81914801452123"><ele>1181.0</ele><time>2026-04-24T13:39:59Z</time></trkpt><trkpt lat="38.07094293735118" lon="15.819360502571659"><ele>1181.0</ele><time>2026-04-24T13:40:00Z</time></trkpt><trkpt lat="38.07098274179739" lon="15.819571600679335"><ele>1182.6666666666667</ele><time>2026-04-24T13:40:01Z</time></trkpt><trkpt lat="38.07101303393586" lon="15.819790000298948"><ele>1184.3333333333333</ele><time>2026-04-24T13:40:02Z</time></trkpt><trkpt lat="38.071044405045804" lon="15.820007991585545"><ele>1186.0</ele><time>2026-04-24T13:40:03Z</time></trkpt><trkpt lat="38.07107683499771" lon="15.820227743446539"><ele>1186.0</ele><time>2026-04-24T13:40:04Z</time></trkpt><trkpt lat="38.071109378107" lon="15.820445769367035"><ele>1186.0</ele><time>2026-04-24T13:40:05Z</time></trkpt><trkpt lat="38.07113909562416" lon="15.820656834090734"><ele>1186.0</ele><time>2026-04-24T13:40:06Z</time></trkpt><trkpt lat="38.07116435928151" lon="15.82084824405671"><ele>1186.75</ele><time>2026-04-24T13:40:07Z</time></trkpt><trkpt lat="38.07118741357327" lon="15.8210127713217"><ele>1187.5</ele><time>2026-04-24T13:40:08Z</time></trkpt><trkpt lat="38.07121834674011" lon="15.821149291438239"><ele>1188.25</ele><time>2026-04-24T13:40:09Z</time></trkpt><trkpt lat="38.071277463526485" lon="15.821285318628998"><ele>1189.0</ele><time>2026-04-24T13:40:10Z</time></trkpt><trkpt lat="38.071369838807726" lon="15.821429409191321"><ele>1189.0</ele><time>2026-04-24T13:40:11Z</time></trkpt><trkpt lat="38.07147750780705" lon="15.821580304197173"><ele>1189.0</ele><time>2026-04-24T13:40:12Z</time></trkpt><trkpt lat="38.071564505903645" lon="15.821721698867094"><ele>1189.0</ele><time>2026-04-24T13:40:13Z</time></trkpt><trkpt lat="38.07163649880386" lon="15.82184262910757"><ele>1189.0</ele><time>2026-04-24T13:40:14Z</time></trkpt><trkpt lat="38.07169878381907" lon="15.82194760408379"><ele>1190.5</ele><time>2026-04-24T13:40:15Z</time></trkpt><trkpt lat="38.071755759342395" lon="15.822034994857919"><ele>1192.0</ele><time>2026-04-24T13:40:16Z</time></trkpt><trkpt lat="38.07179873081607" lon="15.822122588441548"><ele>1193.5</ele><time>2026-04-24T13:40:17Z</time></trkpt><trkpt lat="38.07180748026673" lon="15.822209807495236"><ele>1195.0</ele><time>2026-04-24T13:40:19Z</time></trkpt><trkpt lat="38.07174999726638" lon="15.822266302727511"><ele>1196.5</ele><time>2026-04-24T13:40:28Z</time></trkpt><trkpt lat="38.071678316624926" lon="15.82226431153569"><ele>1198.0</ele><time>2026-04-24T13:40:29Z</time></trkpt><trkpt lat="38.0716202443447" lon="15.822205950385886"><ele>1198.0</ele><time>2026-04-24T13:40:30Z</time></trkpt><trkpt lat="38.07156338105462" lon="15.822139844247095"><ele>1198.0</ele><time>2026-04-24T13:40:31.999Z</time></trkpt><trkpt lat="38.071450691377976" lon="15.822123203767392"><ele>1198.0</ele><time>2026-04-24T13:43:08Z</time></trkpt><trkpt lat="38.07148811527092" lon="15.82220029196031"><ele>1198.0</ele><time>2026-04-24T13:43:11Z</time></trkpt><trkpt lat="38.07159899296901" lon="15.822206534248634"><ele>1198.0</ele><time>2026-04-24T13:43:13Z</time></trkpt><trkpt lat="38.07166524521177" lon="15.822222140785051"><ele>1198.0</ele><time>2026-04-24T13:43:14Z</time></trkpt><trkpt lat="38.07173510613724" lon="15.822252804093997"><ele>1198.0</ele><time>2026-04-24T13:43:15Z</time></trkpt><trkpt lat="38.07180082293133" lon="15.822285733531762"><ele>1198.0</ele><time>2026-04-24T13:43:16Z</time></trkpt><trkpt lat="38.071880251847105" lon="15.822361451238205"><ele>1198.0</ele><time>2026-04-24T13:43:18Z</time></trkpt><trkpt lat="38.071911550962284" lon="15.822457755149417"><ele>1198.0</ele><time>2026-04-24T13:43:20Z</time></trkpt><trkpt lat="38.071858996246235" lon="15.822611526081296"><ele>1198.0</ele><time>2026-04-24T13:43:22Z</time></trkpt><trkpt lat="38.07182183023441" lon="15.82269877573879"><ele>1198.0</ele><time>2026-04-24T13:43:23Z</time></trkpt><trkpt lat="38.071775831444974" lon="15.822767374167869"><ele>1198.0</ele><time>2026-04-24T13:43:24Z</time></trkpt><trkpt lat="38.071717705979836" lon="15.822846839475442"><ele>1198.0</ele><time>2026-04-24T13:43:25Z</time></trkpt><trkpt lat="38.07166983197249" lon="15.822939501197304"><ele>1198.0</ele><time>2026-04-24T13:43:26Z</time></trkpt><trkpt lat="38.07159897872183" lon="15.823050485929137"><ele>1198.0</ele><time>2026-04-24T13:43:27Z</time></trkpt><trkpt lat="38.07152129108882" lon="15.823176453636668"><ele>1198.0</ele><time>2026-04-24T13:43:28Z</time></trkpt><trkpt lat="38.0714224642929" lon="15.823309550980762"><ele>1198.0</ele><time>2026-04-24T13:43:29Z</time></trkpt><trkpt lat="38.071318626858336" lon="15.823454597287503"><ele>1198.0</ele><time>2026-04-24T13:43:30Z</time></trkpt><trkpt lat="38.071226780587395" lon="15.823555900150666"><ele>1198.0</ele><time>2026-04-24T13:43:31Z</time></trkpt><trkpt lat="38.07117072153989" lon="15.823658278645803"><ele>1199.25</ele><time>2026-04-24T13:43:32Z</time></trkpt><trkpt lat="38.0711293235377" lon="15.823760538771772"><ele>1200.5</ele><time>2026-04-24T13:43:33Z</time></trkpt><trkpt lat="38.07105987108072" lon="15.823893032255304"><ele>1201.75</ele><time>2026-04-24T13:43:34Z</time></trkpt><trkpt lat="38.07099580378906" lon="15.824067001330997"><ele>1203.0</ele><time>2026-04-24T13:43:35Z</time></trkpt><trkpt lat="38.07092214596482" lon="15.824226350686637"><ele>1203.0</ele><time>2026-04-24T13:43:36Z</time></trkpt><trkpt lat="38.070844010184835" lon="15.824374128167731"><ele>1203.0</ele><time>2026-04-24T13:43:37Z</time></trkpt><trkpt lat="38.07079061161416" lon="15.824514481991827"><ele>1203.0</ele><time>2026-04-24T13:43:38Z</time></trkpt><trkpt lat="38.07074730952504" lon="15.82466817498397"><ele>1203.0</ele><time>2026-04-24T13:43:39Z</time></trkpt><trkpt lat="38.070703213139886" lon="15.824852403855617"><ele>1203.0</ele><time>2026-04-24T13:43:40Z</time></trkpt><trkpt lat="38.07067138478305" lon="15.825029318997286"><ele>1203.0</ele><time>2026-04-24T13:43:41Z</time></trkpt><trkpt lat="38.07063364170137" lon="15.82518690898339"><ele>1203.0</ele><time>2026-04-24T13:43:42Z</time></trkpt><trkpt lat="38.07058962533555" lon="15.825362163646213"><ele>1203.0</ele><time>2026-04-24T13:43:43Z</time></trkpt><trkpt lat="38.07054783311143" lon="15.825536845653032"><ele>1205.0</ele><time>2026-04-24T13:43:44Z</time></trkpt><trkpt lat="38.07050336559291" lon="15.825716999768236"><ele>1207.0</ele><time>2026-04-24T13:43:45Z</time></trkpt><trkpt lat="38.07046504976955" lon="15.825884704207473"><ele>1209.0</ele><time>2026-04-24T13:43:46Z</time></trkpt><trkpt lat="38.07043233310739" lon="15.826046237780195"><ele>1211.0</ele><time>2026-04-24T13:43:47Z</time></trkpt><trkpt lat="38.070404154332245" lon="15.82620531445565"><ele>1212.6</ele><time>2026-04-24T13:43:48Z</time></trkpt><trkpt lat="38.07038122213255" lon="15.826340622957902"><ele>1214.1999999999998</ele><time>2026-04-24T13:43:49Z</time></trkpt><trkpt lat="38.07036426200687" lon="15.82644759140849"><ele>1215.8000000000002</ele><time>2026-04-24T13:43:50Z</time></trkpt><trkpt lat="38.07035813560851" lon="15.826553053461321"><ele>1217.4</ele><time>2026-04-24T13:43:51Z</time></trkpt><trkpt lat="38.0703633242126" lon="15.826674448231705"><ele>1219.0</ele><time>2026-04-24T13:43:52Z</time></trkpt><trkpt lat="38.070397769715804" lon="15.826808556899804"><ele>1218.0</ele><time>2026-04-24T13:43:53Z</time></trkpt><trkpt lat="38.07041598133448" lon="15.826943325749793"><ele>1217.0</ele><time>2026-04-24T13:43:54Z</time></trkpt><trkpt lat="38.07042423128533" lon="15.82705413236847"><ele>1216.0</ele><time>2026-04-24T13:43:55Z</time></trkpt><trkpt lat="38.07044771846338" lon="15.827158066447424"><ele>1215.0</ele><time>2026-04-24T13:43:56Z</time></trkpt><trkpt lat="38.070492316861504" lon="15.827227387357032"><ele>1214.0</ele><time>2026-04-24T13:43:57Z</time></trkpt><trkpt lat="38.07055316033965" lon="15.827260140794587"><ele>1213.0</ele><time>2026-04-24T13:43:58Z</time></trkpt><trkpt lat="38.070620361827736" lon="15.827271973251175"><ele>1213.0</ele><time>2026-04-24T13:43:59Z</time></trkpt><trkpt lat="38.07071650556564" lon="15.827251532190813"><ele>1213.0</ele><time>2026-04-24T13:44:00Z</time></trkpt><trkpt lat="38.07082057701937" lon="15.827254553681438"><ele>1213.0</ele><time>2026-04-24T13:44:01Z</time></trkpt><trkpt lat="38.0709073788446" lon="15.827296276900336"><ele>1213.0</ele><time>2026-04-24T13:44:02Z</time></trkpt><trkpt lat="38.07096922239826" lon="15.827347889491458"><ele>1213.0</ele><time>2026-04-24T13:44:03Z</time></trkpt><trkpt lat="38.071024396950556" lon="15.82745225512821"><ele>1213.4</ele><time>2026-04-24T13:44:05Z</time></trkpt><trkpt lat="38.070977397187995" lon="15.82756092637822"><ele>1213.8</ele><time>2026-04-24T13:44:07Z</time></trkpt><trkpt lat="38.070928759018535" lon="15.827611748635308"><ele>1214.2</ele><time>2026-04-24T13:44:08Z</time></trkpt><trkpt lat="38.0708126019045" lon="15.827653328236973"><ele>1214.6</ele><time>2026-04-24T13:44:10Z</time></trkpt><trkpt lat="38.070735419781315" lon="15.827703965660193"><ele>1215.0</ele><time>2026-04-24T13:44:11Z</time></trkpt><trkpt lat="38.07071632161201" lon="15.827865809546559"><ele>1212.0</ele><time>2026-04-24T13:44:13Z</time></trkpt><trkpt lat="38.07072426481545" lon="15.827990318152331"><ele>1209.0</ele><time>2026-04-24T13:44:14Z</time></trkpt><trkpt lat="38.070730954373865" lon="15.828150070624826"><ele>1206.0</ele><time>2026-04-24T13:44:15Z</time></trkpt><trkpt lat="38.07073361349004" lon="15.828288164072656"><ele>1203.0</ele><time>2026-04-24T13:44:16Z</time></trkpt><trkpt lat="38.070740190490696" lon="15.828400694263363"><ele>1200.0</ele><time>2026-04-24T13:44:17Z</time></trkpt><trkpt lat="38.07073941073101" lon="15.828496930133042"><ele>1199.5</ele><time>2026-04-24T13:44:17.999Z</time></trkpt><trkpt lat="38.070740567513866" lon="15.828603296833515"><ele>1199.0</ele><time>2026-04-24T13:44:18.999Z</time></trkpt><trkpt lat="38.07073582350119" lon="15.828707078708646"><ele>1198.5</ele><time>2026-04-24T13:44:19.999Z</time></trkpt><trkpt lat="38.07074130820376" lon="15.8287977246708"><ele>1198.0</ele><time>2026-04-24T13:44:20.999Z</time></trkpt><trkpt lat="38.070784957296254" lon="15.82887260291941"><ele>1197.5</ele><time>2026-04-24T13:44:21.999Z</time></trkpt><trkpt lat="38.0708424291224" lon="15.828953705705375"><ele>1197.0</ele><time>2026-04-24T13:44:22.999Z</time></trkpt><trkpt lat="38.07090661760639" lon="15.828987828069161"><ele>1197.0</ele><time>2026-04-24T13:44:23.999Z</time></trkpt><trkpt lat="38.07098613272784" lon="15.828984298908473"><ele>1197.0</ele><time>2026-04-24T13:44:24.999Z</time></trkpt><trkpt lat="38.07107906167617" lon="15.828931551449"><ele>1197.0</ele><time>2026-04-24T13:44:25.999Z</time></trkpt><trkpt lat="38.07118971468569" lon="15.828871113264055"><ele>1197.0</ele><time>2026-04-24T13:44:26.999Z</time></trkpt><trkpt lat="38.071267306926494" lon="15.82883808547497"><ele>1197.0</ele><time>2026-04-24T13:44:27.999Z</time></trkpt><trkpt lat="38.07136173876927" lon="15.82884540221547"><ele>1197.0</ele><time>2026-04-24T13:44:28.999Z</time></trkpt><trkpt lat="38.0714693661589" lon="15.82887518906964"><ele>1197.0</ele><time>2026-04-24T13:44:29.999Z</time></trkpt><trkpt lat="38.071549156302254" lon="15.828898898728623"><ele>1197.0</ele><time>2026-04-24T13:44:30.999Z</time></trkpt><trkpt lat="38.07162840986223" lon="15.828978268386972"><ele>1197.0</ele><time>2026-04-24T13:44:32.999Z</time></trkpt><trkpt lat="38.07163478665151" lon="15.829059993964036"><ele>1197.0</ele><time>2026-04-24T13:44:33.999Z</time></trkpt><trkpt lat="38.07161857223206" lon="15.829140628094317"><ele>1197.0</ele><time>2026-04-24T13:44:34.999Z</time></trkpt><trkpt lat="38.07156757253709" lon="15.82919612846315"><ele>1197.0</ele><time>2026-04-24T13:44:35.999Z</time></trkpt><trkpt lat="38.07149529523912" lon="15.829214156280349"><ele>1197.0</ele><time>2026-04-24T13:44:36.999Z</time></trkpt><trkpt lat="38.07139518416051" lon="15.829209744907109"><ele>1197.0</ele><time>2026-04-24T13:44:37.999Z</time></trkpt><trkpt lat="38.07129942149821" lon="15.829210777942777"><ele>1197.0</ele><time>2026-04-24T13:44:38.999Z</time></trkpt><trkpt lat="38.0712185004862" lon="15.829230312943777"><ele>1197.0</ele><time>2026-04-24T13:44:39.999Z</time></trkpt><trkpt lat="38.07112871632991" lon="15.829246162677828"><ele>1197.0</ele><time>2026-04-24T13:44:40.999Z</time></trkpt><trkpt lat="38.07105271301825" lon="15.8292915409941"><ele>1195.6666666666667</ele><time>2026-04-24T13:44:41.999Z</time></trkpt><trkpt lat="38.071000217375214" lon="15.829346468710451"><ele>1194.3333333333333</ele><time>2026-04-24T13:44:42.999Z</time></trkpt><trkpt lat="38.07097050173598" lon="15.829427393256882"><ele>1193.0</ele><time>2026-04-24T13:44:43.999Z</time></trkpt><trkpt lat="38.070951443707486" lon="15.829543203614296"><ele>1191.6666666666665</ele><time>2026-04-24T13:44:44.999Z</time></trkpt><trkpt lat="38.070897971029105" lon="15.829641932938454"><ele>1190.3333333333333</ele><time>2026-04-24T13:44:45.999Z</time></trkpt><trkpt lat="38.070826985680604" lon="15.829729777325724"><ele>1189.0</ele><time>2026-04-24T13:44:47Z</time></trkpt><trkpt lat="38.07078294936759" lon="15.829816622881571"><ele>1187.6000000000001</ele><time>2026-04-24T13:44:48Z</time></trkpt><trkpt lat="38.07075116663616" lon="15.829908862949654"><ele>1186.2</ele><time>2026-04-24T13:44:49Z</time></trkpt><trkpt lat="38.07070145974046" lon="15.829972129357662"><ele>1184.8000000000002</ele><time>2026-04-24T13:44:50Z</time></trkpt><trkpt lat="38.070569783027544" lon="15.829953119191659"><ele>1183.4</ele><time>2026-04-24T13:44:52Z</time></trkpt><trkpt lat="38.07048678049994" lon="15.829901655695608"><ele>1182.0</ele><time>2026-04-24T13:44:53Z</time></trkpt><trkpt lat="38.0704064781212" lon="15.829868829153469"><ele>1182.0</ele><time>2026-04-24T13:44:54Z</time></trkpt><trkpt lat="38.07032573849261" lon="15.829841824389026"><ele>1182.0</ele><time>2026-04-24T13:44:55Z</time></trkpt><trkpt lat="38.07024106514725" lon="15.829812077368263"><ele>1182.0</ele><time>2026-04-24T13:44:56Z</time></trkpt><trkpt lat="38.07017064803089" lon="15.829803706725823"><ele>1182.0</ele><time>2026-04-24T13:44:57Z</time></trkpt><trkpt lat="38.070051302177596" lon="15.829831226617197"><ele>1182.0</ele><time>2026-04-24T13:44:59Z</time></trkpt><trkpt lat="38.06996031464626" lon="15.829868469615853"><ele>1179.4</ele><time>2026-04-24T13:45:01Z</time></trkpt><trkpt lat="38.06987177286653" lon="15.829887952806153"><ele>1176.8000000000002</ele><time>2026-04-24T13:45:23.999Z</time></trkpt><trkpt lat="38.06974654718977" lon="15.82985600820055"><ele>1174.2</ele><time>2026-04-24T13:45:25.999Z</time></trkpt><trkpt lat="38.069672994958665" lon="15.829852787453838"><ele>1171.6000000000001</ele><time>2026-04-24T13:45:26.999Z</time></trkpt><trkpt lat="38.069586207217704" lon="15.829848155678222"><ele>1169.0</ele><time>2026-04-24T13:45:27.998Z</time></trkpt><trkpt lat="38.0695063789114" lon="15.829842066407988"><ele>1169.0</ele><time>2026-04-24T13:45:28.998Z</time></trkpt><trkpt lat="38.069426957247366" lon="15.8298350157698"><ele>1169.0</ele><time>2026-04-24T13:45:29.998Z</time></trkpt><trkpt lat="38.069336215777945" lon="15.829833608878705"><ele>1169.0</ele><time>2026-04-24T13:45:30.998Z</time></trkpt><trkpt lat="38.06923839300257" lon="15.829837965599028"><ele>1169.0</ele><time>2026-04-24T13:45:31.998Z</time></trkpt><trkpt lat="38.06914800761536" lon="15.8298532332555"><ele>1169.0</ele><time>2026-04-24T13:45:32.998Z</time></trkpt><trkpt lat="38.06905918865524" lon="15.829875240036836"><ele>1164.6666666666667</ele><time>2026-04-24T13:45:33.998Z</time></trkpt><trkpt lat="38.06898318233814" lon="15.82990786518134"><ele>1160.3333333333335</ele><time>2026-04-24T13:45:34.998Z</time></trkpt><trkpt lat="38.06892010581193" lon="15.829947934597651"><ele>1156.0</ele><time>2026-04-24T13:45:35.998Z</time></trkpt><trkpt lat="38.06885313628373" lon="15.83004520058919"><ele>1151.6666666666667</ele><time>2026-04-24T13:45:37.998Z</time></trkpt><trkpt lat="38.06888745277025" lon="15.830154646138952"><ele>1147.3333333333333</ele><time>2026-04-24T13:45:38.998Z</time></trkpt><trkpt lat="38.068956692886644" lon="15.830229439957515"><ele>1143.0</ele><time>2026-04-24T13:45:39.998Z</time></trkpt><trkpt lat="38.0690404414265" lon="15.83027524867164"><ele>1144.6666666666667</ele><time>2026-04-24T13:45:40.998Z</time></trkpt><trkpt lat="38.06910178347949" lon="15.830388973740991"><ele>1146.3333333333333</ele><time>2026-04-24T13:45:41.998Z</time></trkpt><trkpt lat="38.06917237038135" lon="15.830472749117863"><ele>1148.0</ele><time>2026-04-24T13:45:42.998Z</time></trkpt><trkpt lat="38.06922338773806" lon="15.830562568805922"><ele>1149.6666666666665</ele><time>2026-04-24T13:45:43.998Z</time></trkpt><trkpt lat="38.06928246303975" lon="15.830631332501833"><ele>1151.3333333333333</ele><time>2026-04-24T13:45:44.998Z</time></trkpt><trkpt lat="38.069330083628394" lon="15.830704086556578"><ele>1153.0</ele><time>2026-04-24T13:45:45.998Z</time></trkpt><trkpt lat="38.06935194442203" lon="15.830781741101063"><ele>1153.0</ele><time>2026-04-24T13:45:46.998Z</time></trkpt><trkpt lat="38.06934408323968" lon="15.83088066390911"><ele>1153.0</ele><time>2026-04-24T13:45:47.998Z</time></trkpt><trkpt lat="38.06931996181613" lon="15.83100031957221"><ele>1153.0</ele><time>2026-04-24T13:45:48.998Z</time></trkpt><trkpt lat="38.06929407530689" lon="15.83111356852117"><ele>1153.0</ele><time>2026-04-24T13:45:49.998Z</time></trkpt><trkpt lat="38.06928856094406" lon="15.831208545986682"><ele>1153.0</ele><time>2026-04-24T13:45:50.998Z</time></trkpt><trkpt lat="38.06931271334829" lon="15.831284955884344"><ele>1153.0</ele><time>2026-04-24T13:45:51.998Z</time></trkpt><trkpt lat="38.06940134247735" lon="15.831359953017555"><ele>1149.1666666666665</ele><time>2026-04-24T13:45:53.998Z</time></trkpt><trkpt lat="38.069539064729405" lon="15.831378427172929"><ele>1145.3333333333333</ele><time>2026-04-24T13:45:55.998Z</time></trkpt><trkpt lat="38.069609380120326" lon="15.831389521857924"><ele>1141.5</ele><time>2026-04-24T13:45:56.998Z</time></trkpt><trkpt lat="38.06967545271789" lon="15.831379345138735"><ele>1137.6666666666667</ele><time>2026-04-24T13:45:57.998Z</time></trkpt><trkpt lat="38.06976605072368" lon="15.831368040960275"><ele>1133.8333333333335</ele><time>2026-04-24T13:45:59.998Z</time></trkpt><trkpt lat="38.06980413631526" lon="15.831443266622246"><ele>1130.0</ele><time>2026-04-24T13:46:02.998Z</time></trkpt><trkpt lat="38.0697329644044" lon="15.831466278673924"><ele>1130.0</ele><time>2026-04-24T13:46:04.998Z</time></trkpt><trkpt lat="38.06964136036075" lon="15.831522915504957"><ele>1130.0</ele><time>2026-04-24T13:46:06.998Z</time></trkpt><trkpt lat="38.069564695031204" lon="15.83160495539639"><ele>1130.0</ele><time>2026-04-24T13:46:08.998Z</time></trkpt><trkpt lat="38.06959178402977" lon="15.831706824562982"><ele>1130.0</ele><time>2026-04-24T13:46:10.998Z</time></trkpt><trkpt lat="38.0696590139794" lon="15.831751602793238"><ele>1130.0</ele><time>2026-04-24T13:46:12.998Z</time></trkpt><trkpt lat="38.06973177952215" lon="15.8316838771723"><ele>1130.0</ele><time>2026-04-24T13:46:14.998Z</time></trkpt><trkpt lat="38.06983117292347" lon="15.831622626329466"><ele>1130.0</ele><time>2026-04-24T13:46:35.997Z</time></trkpt><trkpt lat="38.06990554668246" lon="15.831575955189605"><ele>1130.0</ele><time>2026-04-24T13:46:36.997Z</time></trkpt><trkpt lat="38.06997608324204" lon="15.831519517837723"><ele>1130.0</ele><time>2026-04-24T13:46:37.997Z</time></trkpt><trkpt lat="38.07003677387902" lon="15.831461558712443"><ele>1130.0</ele><time>2026-04-24T13:46:38.997Z</time></trkpt><trkpt lat="38.07009561971538" lon="15.831410635043367"><ele>1130.0</ele><time>2026-04-24T13:46:39.997Z</time></trkpt><trkpt lat="38.07017188638986" lon="15.831363389189702"><ele>1131.0</ele><time>2026-04-24T13:46:40.997Z</time></trkpt><trkpt lat="38.07026208072411" lon="15.831312064783148"><ele>1132.0</ele><time>2026-04-24T13:46:41.997Z</time></trkpt><trkpt lat="38.07034991984549" lon="15.831258501958485"><ele>1133.0</ele><time>2026-04-24T13:46:42.997Z</time></trkpt><trkpt lat="38.070425267580006" lon="15.831224248248422"><ele>1134.0</ele><time>2026-04-24T13:46:43.997Z</time></trkpt><trkpt lat="38.07049429714267" lon="15.831201718487042"><ele>1135.0</ele><time>2026-04-24T13:46:44.997Z</time></trkpt><trkpt lat="38.070567670359004" lon="15.831180298991587"><ele>1136.0</ele><time>2026-04-24T13:46:45.997Z</time></trkpt><trkpt lat="38.07065361181377" lon="15.831156750325176"><ele>1136.0</ele><time>2026-04-24T13:46:46.997Z</time></trkpt><trkpt lat="38.07074229315436" lon="15.831130444738701"><ele>1136.0</ele><time>2026-04-24T13:46:47.997Z</time></trkpt><trkpt lat="38.07082624640659" lon="15.831096847761408"><ele>1136.0</ele><time>2026-04-24T13:46:48.997Z</time></trkpt><trkpt lat="38.070915224874376" lon="15.831105810123937"><ele>1136.0</ele><time>2026-04-24T13:46:49.997Z</time></trkpt><trkpt lat="38.07099268215253" lon="15.831148822116957"><ele>1136.0</ele><time>2026-04-24T13:46:50.997Z</time></trkpt><trkpt lat="38.07105653158594" lon="15.831196218638208"><ele>1136.0</ele><time>2026-04-24T13:46:51.997Z</time></trkpt><trkpt lat="38.071134727023534" lon="15.83122677040925"><ele>1132.0</ele><time>2026-04-24T13:46:52.998Z</time></trkpt><trkpt lat="38.071207217325934" lon="15.831264194312965"><ele>1128.0</ele><time>2026-04-24T13:46:53.998Z</time></trkpt><trkpt lat="38.071273061530945" lon="15.8313050431026"><ele>1124.0</ele><time>2026-04-24T13:46:54.998Z</time></trkpt><trkpt lat="38.07133889898885" lon="15.83134733752753"><ele>1120.0</ele><time>2026-04-24T13:46:55.998Z</time></trkpt><trkpt lat="38.071405683977424" lon="15.831377446147604"><ele>1116.0</ele><time>2026-04-24T13:46:56.998Z</time></trkpt><trkpt lat="38.07149811314902" lon="15.831440631471418"><ele>1112.0</ele><time>2026-04-24T13:46:58.999Z</time></trkpt><trkpt lat="38.07152377142277" lon="15.831523425241262"><ele>1112.0</ele><time>2026-04-24T13:47:00.999Z</time></trkpt><trkpt lat="38.0714258290697" lon="15.83156357656614"><ele>1112.0</ele><time>2026-04-24T13:47:02.999Z</time></trkpt><trkpt lat="38.07136418434288" lon="15.83158318792082"><ele>1112.0</ele><time>2026-04-24T13:47:03.999Z</time></trkpt><trkpt lat="38.07126737762378" lon="15.831452150830271"><ele>1112.0</ele><time>2026-04-24T13:47:04.999Z</time></trkpt><trkpt lat="38.071184259336654" lon="15.831464983676092"><ele>1112.0</ele><time>2026-04-24T13:47:05.999Z</time></trkpt><trkpt lat="38.07111728965174" lon="15.831478714142076"><ele>1112.0</ele><time>2026-04-24T13:47:06.999Z</time></trkpt><trkpt lat="38.07101204788727" lon="15.831594303654727"><ele>1112.0</ele><time>2026-04-24T13:47:08.999Z</time></trkpt><trkpt lat="38.07093572654245" lon="15.831684361149465"><ele>1112.0</ele><time>2026-04-24T13:47:09.999Z</time></trkpt><trkpt lat="38.07085156344453" lon="15.831802137690282"><ele>1112.0</ele><time>2026-04-24T13:47:10.999Z</time></trkpt><trkpt lat="38.070756774969276" lon="15.831896150227584"><ele>1107.0</ele><time>2026-04-24T13:47:11.999Z</time></trkpt><trkpt lat="38.07066690125464" lon="15.831996073940283"><ele>1102.0</ele><time>2026-04-24T13:47:12.999Z</time></trkpt><trkpt lat="38.07059036835328" lon="15.832103270011434"><ele>1097.0</ele><time>2026-04-24T13:47:13.999Z</time></trkpt><trkpt lat="38.070498126684136" lon="15.832160228537532"><ele>1092.0</ele><time>2026-04-24T13:47:14.999Z</time></trkpt><trkpt lat="38.07044118545873" lon="15.832237010862416"><ele>1087.0</ele><time>2026-04-24T13:47:15.999Z</time></trkpt><trkpt lat="38.07037505825828" lon="15.832307381180712"><ele>1087.0</ele><time>2026-04-24T13:47:17.999Z</time></trkpt><trkpt lat="38.070423560114904" lon="15.832358863176918"><ele>1087.0</ele><time>2026-04-24T13:47:19Z</time></trkpt><trkpt lat="38.07048699015937" lon="15.832383028102608"><ele>1087.0</ele><time>2026-04-24T13:47:20Z</time></trkpt><trkpt lat="38.07059338547404" lon="15.832408857390611"><ele>1087.0</ele><time>2026-04-24T13:47:21Z</time></trkpt><trkpt lat="38.07070783341298" lon="15.832486047684391"><ele>1087.0</ele><time>2026-04-24T13:47:22Z</time></trkpt><trkpt lat="38.07078998732641" lon="15.83256037229541"><ele>1086.0</ele><time>2026-04-24T13:47:23Z</time></trkpt><trkpt lat="38.07088732981668" lon="15.83260640437807"><ele>1085.0</ele><time>2026-04-24T13:47:25Z</time></trkpt><trkpt lat="38.07090220127323" lon="15.832696967510211"><ele>1084.0</ele><time>2026-04-24T13:47:27Z</time></trkpt><trkpt lat="38.07078072499861" lon="15.832710752194211"><ele>1083.0</ele><time>2026-04-24T13:47:29Z</time></trkpt><trkpt lat="38.070724230118635" lon="15.832644531415909"><ele>1082.0</ele><time>2026-04-24T13:47:30Z</time></trkpt><trkpt lat="38.070650610214884" lon="15.832653550400533"><ele>1081.0</ele><time>2026-04-24T13:47:31Z</time></trkpt><trkpt lat="38.070625438747555" lon="15.832740373059108"><ele>1075.6</ele><time>2026-04-24T13:47:33Z</time></trkpt><trkpt lat="38.0706528190502" lon="15.832813977368412"><ele>1070.1999999999998</ele><time>2026-04-24T13:47:34Z</time></trkpt><trkpt lat="38.07077954785957" lon="15.832860243748454"><ele>1064.8000000000002</ele><time>2026-04-24T13:47:36Z</time></trkpt><trkpt lat="38.07077657608355" lon="15.832950874387397"><ele>1059.4</ele><time>2026-04-24T13:47:38Z</time></trkpt><trkpt lat="38.07064718104617" lon="15.832887893181036"><ele>1054.0</ele><time>2026-04-24T13:47:40Z</time></trkpt><trkpt lat="38.070545051976076" lon="15.832866999739807"><ele>1053.0</ele><time>2026-04-24T13:47:41Z</time></trkpt><trkpt lat="38.070452612290374" lon="15.832845676494113"><ele>1052.0</ele><time>2026-04-24T13:47:42Z</time></trkpt><trkpt lat="38.07037337073557" lon="15.832828753111983"><ele>1051.0</ele><time>2026-04-24T13:47:43Z</time></trkpt><trkpt lat="38.070303399003215" lon="15.832850410187596"><ele>1050.0</ele><time>2026-04-24T13:47:44Z</time></trkpt><trkpt lat="38.07023618012052" lon="15.83284961063995"><ele>1049.0</ele><time>2026-04-24T13:47:45Z</time></trkpt><trkpt lat="38.070158233102994" lon="15.83288246935723"><ele>1048.0</ele><time>2026-04-24T13:47:46Z</time></trkpt><trkpt lat="38.07009547203302" lon="15.832905173136872"><ele>1048.0</ele><time>2026-04-24T13:47:47Z</time></trkpt><trkpt lat="38.07002709428823" lon="15.832929622159693"><ele>1048.0</ele><time>2026-04-24T13:47:48Z</time></trkpt><trkpt lat="38.06993550109511" lon="15.832969432781741"><ele>1048.0</ele><time>2026-04-24T13:47:49Z</time></trkpt><trkpt lat="38.06985217318008" lon="15.833010654230083"><ele>1048.0</ele><time>2026-04-24T13:47:50Z</time></trkpt><trkpt lat="38.069783061484245" lon="15.833046801063317"><ele>1048.0</ele><time>2026-04-24T13:47:51Z</time></trkpt><trkpt lat="38.0697004836981" lon="15.833096794770702"><ele>1048.0</ele><time>2026-04-24T13:47:52Z</time></trkpt><trkpt lat="38.06960524373949" lon="15.833150332059503"><ele>1050.8</ele><time>2026-04-24T13:47:53Z</time></trkpt><trkpt lat="38.06953013161205" lon="15.83320368435693"><ele>1053.6</ele><time>2026-04-24T13:47:54Z</time></trkpt><trkpt lat="38.069469497146684" lon="15.833284729249106"><ele>1056.4</ele><time>2026-04-24T13:47:55Z</time></trkpt><trkpt lat="38.06936673787008" lon="15.833281233576088"><ele>1059.2</ele><time>2026-04-24T13:47:56Z</time></trkpt><trkpt lat="38.06928385766176" lon="15.833305989871988"><ele>1062.0</ele><time>2026-04-24T13:47:57Z</time></trkpt><trkpt lat="38.06918838216279" lon="15.833356933811485"><ele>1059.75</ele><time>2026-04-24T13:47:58Z</time></trkpt><trkpt lat="38.06908667106031" lon="15.833448176659731"><ele>1057.5</ele><time>2026-04-24T13:47:58.999Z</time></trkpt><trkpt lat="38.06901147825157" lon="15.833569620415581"><ele>1055.25</ele><time>2026-04-24T13:47:59.999Z</time></trkpt><trkpt lat="38.068932054599415" lon="15.83367097902936"><ele>1053.0</ele><time>2026-04-24T13:48:00.999Z</time></trkpt><trkpt lat="38.068802639628586" lon="15.833689277651"><ele>1050.8</ele><time>2026-04-24T13:48:01.999Z</time></trkpt><trkpt lat="38.06873060001019" lon="15.833770360431338"><ele>1048.6</ele><time>2026-04-24T13:48:02.999Z</time></trkpt><trkpt lat="38.06866859103655" lon="15.833868601194954"><ele>1046.4</ele><time>2026-04-24T13:48:03.999Z</time></trkpt><trkpt lat="38.06860726332951" lon="15.833973658179763"><ele>1044.2</ele><time>2026-04-24T13:48:04.999Z</time></trkpt><trkpt lat="38.06855490210984" lon="15.834062351137893"><ele>1042.0</ele><time>2026-04-24T13:48:05.999Z</time></trkpt><trkpt lat="38.06850829232599" lon="15.834139718613548"><ele>1042.0</ele><time>2026-04-24T13:48:06.999Z</time></trkpt><trkpt lat="38.0684592531301" lon="15.834237362055337"><ele>1042.0</ele><time>2026-04-24T13:48:07.999Z</time></trkpt><trkpt lat="38.06841683968133" lon="15.83432797020394"><ele>1042.0</ele><time>2026-04-24T13:48:08.999Z</time></trkpt><trkpt lat="38.06838469230755" lon="15.83442466151431"><ele>1042.0</ele><time>2026-04-24T13:48:09.999Z</time></trkpt><trkpt lat="38.068347527917325" lon="15.834527991898646"><ele>1042.0</ele><time>2026-04-24T13:48:10.999Z</time></trkpt><trkpt lat="38.06829701237511" lon="15.834604104937405"><ele>1042.0</ele><time>2026-04-24T13:48:11.999Z</time></trkpt><trkpt lat="38.06824003981772" lon="15.834697012106522"><ele>1034.2</ele><time>2026-04-24T13:48:12.999Z</time></trkpt><trkpt lat="38.06815921394568" lon="15.83477339788172"><ele>1026.4</ele><time>2026-04-24T13:48:13.999Z</time></trkpt><trkpt lat="38.068065834881295" lon="15.834829265550114"><ele>1018.5999999999999</ele><time>2026-04-24T13:48:14.999Z</time></trkpt><trkpt lat="38.068018684635554" lon="15.834883956802269"><ele>1010.8</ele><time>2026-04-24T13:48:15.999Z</time></trkpt><trkpt lat="38.06788882380203" lon="15.834880341917026"><ele>1003.0</ele><time>2026-04-24T13:48:17.999Z</time></trkpt><trkpt lat="38.06782234301119" lon="15.834838194293441"><ele>1002.9999999999999</ele><time>2026-04-24T13:48:18.999Z</time></trkpt><trkpt lat="38.06776939310912" lon="15.834787949912426"><ele>1003.0</ele><time>2026-04-24T13:48:19.999Z</time></trkpt><trkpt lat="38.067725705695615" lon="15.834705118256514"><ele>1003.0</ele><time>2026-04-24T13:48:20.999Z</time></trkpt><trkpt lat="38.06766085309902" lon="15.834595923211287"><ele>1003.0</ele><time>2026-04-24T13:48:21.999Z</time></trkpt><trkpt lat="38.06761720298082" lon="15.83451047307095"><ele>1002.9999999999999</ele><time>2026-04-24T13:48:22.999Z</time></trkpt><trkpt lat="38.067570967224604" lon="15.83442933335526"><ele>1003.0</ele><time>2026-04-24T13:48:23.999Z</time></trkpt><trkpt lat="38.0675285946833" lon="15.834345882600397"><ele>1002.9999999999999</ele><time>2026-04-24T13:48:24.999Z</time></trkpt><trkpt lat="38.067471154136015" lon="15.834387160196108"><ele>1003.0</ele><time>2026-04-24T13:48:27.999Z</time></trkpt><trkpt lat="38.067471538546606" lon="15.834565177686686"><ele>1003.0</ele><time>2026-04-24T13:48:29.999Z</time></trkpt><trkpt lat="38.0674848347334" lon="15.83466056365459"><ele>1003.0</ele><time>2026-04-24T13:48:30.999Z</time></trkpt><trkpt lat="38.06750183036751" lon="15.83475138665276"><ele>1002.9999999999999</ele><time>2026-04-24T13:48:31.999Z</time></trkpt><trkpt lat="38.067517364635485" lon="15.834842329805738"><ele>1003.0</ele><time>2026-04-24T13:48:32.999Z</time></trkpt><trkpt lat="38.06753050425508" lon="15.834935420361312"><ele>1002.9999999999999</ele><time>2026-04-24T13:48:33.999Z</time></trkpt><trkpt lat="38.06756320974816" lon="15.835024910760472"><ele>1003.0</ele><time>2026-04-24T13:48:34.999Z</time></trkpt><trkpt lat="38.067616589747836" lon="15.83509219430615"><ele>1003.0</ele><time>2026-04-24T13:48:35.999Z</time></trkpt><trkpt lat="38.067680473827835" lon="15.835160418007565"><ele>1003.0</ele><time>2026-04-24T13:48:36.999Z</time></trkpt><trkpt lat="38.067730645982095" lon="15.835219500327113"><ele>1002.9999999999999</ele><time>2026-04-24T13:48:37.999Z</time></trkpt><trkpt lat="38.06782230189964" lon="15.835294794809572"><ele>1003.0</ele><time>2026-04-24T13:48:39.999Z</time></trkpt><trkpt lat="38.067849727075966" lon="15.835390811207686"><ele>997.9999999999999</ele><time>2026-04-24T13:48:42.999Z</time></trkpt><trkpt lat="38.067768730078086" lon="15.835416571004306"><ele>993.0</ele><time>2026-04-24T13:48:44.999Z</time></trkpt><trkpt lat="38.06771188715326" lon="15.83537097628528"><ele>988.0</ele><time>2026-04-24T13:48:45.999Z</time></trkpt><trkpt lat="38.06766217635669" lon="15.835296664619827"><ele>983.0</ele><time>2026-04-24T13:48:46.999Z</time></trkpt><trkpt lat="38.0675851476918" lon="15.835210958325028"><ele>977.9999999999999</ele><time>2026-04-24T13:48:47.999Z</time></trkpt><trkpt lat="38.06750920997135" lon="15.83514447831779"><ele>973.0</ele><time>2026-04-24T13:48:48.999Z</time></trkpt><trkpt lat="38.06743828499049" lon="15.835081409032652"><ele>970.3333333333333</ele><time>2026-04-24T13:48:49.999Z</time></trkpt><trkpt lat="38.06737827274531" lon="15.835034559923162"><ele>967.6666666666666</ele><time>2026-04-24T13:48:50.999Z</time></trkpt><trkpt lat="38.067321526735526" lon="15.834970042433596"><ele>965.0</ele><time>2026-04-24T13:48:51.999Z</time></trkpt><trkpt lat="38.06727753616174" lon="15.834909698350248"><ele>962.3333333333333</ele><time>2026-04-24T13:48:52.999Z</time></trkpt><trkpt lat="38.06722569447253" lon="15.83478950832512"><ele>959.6666666666666</ele><time>2026-04-24T13:48:54.999Z</time></trkpt><trkpt lat="38.06714276584929" lon="15.834787491157673"><ele>957.0</ele><time>2026-04-24T13:48:59Z</time></trkpt><trkpt lat="38.06715750073086" lon="15.834912372856845"><ele>957.0</ele><time>2026-04-24T13:49:01Z</time></trkpt><trkpt lat="38.06721318247298" lon="15.834981785969594"><ele>957.0</ele><time>2026-04-24T13:49:02Z</time></trkpt><trkpt lat="38.06728954344086" lon="15.835063516496819"><ele>957.0</ele><time>2026-04-24T13:49:03Z</time></trkpt><trkpt lat="38.06736695885861" lon="15.835184566545943"><ele>957.0</ele><time>2026-04-24T13:49:04Z</time></trkpt><trkpt lat="38.0674410896074" lon="15.835286020437605"><ele>957.0</ele><time>2026-04-24T13:49:05Z</time></trkpt><trkpt lat="38.06749501894244" lon="15.835365487207973"><ele>960.2</ele><time>2026-04-24T13:49:06Z</time></trkpt><trkpt lat="38.06754171740952" lon="15.835446684579138"><ele>963.4000000000001</ele><time>2026-04-24T13:49:07Z</time></trkpt><trkpt lat="38.06758296714198" lon="15.835597568743953"><ele>966.5999999999999</ele><time>2026-04-24T13:49:09Z</time></trkpt><trkpt lat="38.06760157398503" lon="15.835676467987044"><ele>969.8</ele><time>2026-04-24T13:49:10Z</time></trkpt><trkpt lat="38.06765946864855" lon="15.835799705672589"><ele>973.0</ele><time>2026-04-24T13:49:12Z</time></trkpt><trkpt lat="38.06776369546001" lon="15.83586094062648"><ele>972.9999999999999</ele><time>2026-04-24T13:49:14Z</time></trkpt><trkpt lat="38.06779881071607" lon="15.835946667861045"><ele>973.0</ele><time>2026-04-24T13:49:18Z</time></trkpt><trkpt lat="38.06773117486472" lon="15.835960554122536"><ele>973.0</ele><time>2026-04-24T13:49:20Z</time></trkpt><trkpt lat="38.06766778453266" lon="15.835926228369072"><ele>973.0</ele><time>2026-04-24T13:49:21Z</time></trkpt><trkpt lat="38.06757700503937" lon="15.835873893215192"><ele>972.9999999999999</ele><time>2026-04-24T13:49:22Z</time></trkpt><trkpt lat="38.067511079924216" lon="15.83582707820578"><ele>973.0</ele><time>2026-04-24T13:49:23Z</time></trkpt><trkpt lat="38.067421311580595" lon="15.83571122843468"><ele>966.4</ele><time>2026-04-24T13:49:25Z</time></trkpt><trkpt lat="38.06738502052564" lon="15.835625261197702"><ele>959.8</ele><time>2026-04-24T13:49:26Z</time></trkpt><trkpt lat="38.06731825126831" lon="15.835502261443457"><ele>953.2</ele><time>2026-04-24T13:49:27Z</time></trkpt><trkpt lat="38.067228965615676" lon="15.835412022097147"><ele>946.6</ele><time>2026-04-24T13:49:28Z</time></trkpt><trkpt lat="38.067161993983156" lon="15.8353376782547"><ele>940.0</ele><time>2026-04-24T13:49:29Z</time></trkpt><trkpt lat="38.06708641997629" lon="15.835284386976493"><ele>939.9999999999999</ele><time>2026-04-24T13:49:30Z</time></trkpt><trkpt lat="38.06701964250157" lon="15.83524564693763"><ele>940.0</ele><time>2026-04-24T13:49:31Z</time></trkpt><trkpt lat="38.06694021882126" lon="15.835232056222058"><ele>940.0</ele><time>2026-04-24T13:49:32Z</time></trkpt><trkpt lat="38.06685531374641" lon="15.835228708962784"><ele>940.0</ele><time>2026-04-24T13:49:33Z</time></trkpt><trkpt lat="38.06674941159356" lon="15.835155701049288"><ele>939.9999999999999</ele><time>2026-04-24T13:49:35Z</time></trkpt><trkpt lat="38.066712141396856" lon="15.83508378291626"><ele>940.0</ele><time>2026-04-24T13:49:36Z</time></trkpt><trkpt lat="38.06669094898501" lon="15.83500819015238"><ele>943.4</ele><time>2026-04-24T13:49:37Z</time></trkpt><trkpt lat="38.06669371752023" lon="15.83489925081881"><ele>946.8</ele><time>2026-04-24T13:49:39Z</time></trkpt><trkpt lat="38.06673105585045" lon="15.834794251016287"><ele>950.2</ele><time>2026-04-24T13:49:41Z</time></trkpt><trkpt lat="38.06676997740675" lon="15.83471397480399"><ele>953.6</ele><time>2026-04-24T13:49:42Z</time></trkpt><trkpt lat="38.06679352329464" lon="15.834611043830618"><ele>957.0</ele><time>2026-04-24T13:49:43Z</time></trkpt><trkpt lat="38.06680932799832" lon="15.834464052567075"><ele>957.0</ele><time>2026-04-24T13:49:44Z</time></trkpt><trkpt lat="38.066818948749734" lon="15.834356156447193"><ele>957.0</ele><time>2026-04-24T13:49:45Z</time></trkpt><trkpt lat="38.066825047952435" lon="15.834275482789918"><ele>957.0</ele><time>2026-04-24T13:49:47Z</time></trkpt><trkpt lat="38.066740756652045" lon="15.834262484489521"><ele>957.0</ele><time>2026-04-24T13:49:50Z</time></trkpt><trkpt lat="38.06671526662082" lon="15.83437986782485"><ele>957.0</ele><time>2026-04-24T13:49:52Z</time></trkpt><trkpt lat="38.06670082204029" lon="15.834480824387505"><ele>957.0</ele><time>2026-04-24T13:49:53Z</time></trkpt><trkpt lat="38.06667059940296" lon="15.834598425443643"><ele>957.0</ele><time>2026-04-24T13:49:54Z</time></trkpt><trkpt lat="38.06661712149697" lon="15.834684647986853"><ele>957.0</ele><time>2026-04-24T13:49:55Z</time></trkpt><trkpt lat="38.066558852225356" lon="15.834772826697384"><ele>957.0</ele><time>2026-04-24T13:49:56Z</time></trkpt><trkpt lat="38.06651887222329" lon="15.834852007642525"><ele>957.0</ele><time>2026-04-24T13:49:57Z</time></trkpt><trkpt lat="38.06650284788765" lon="15.834977754458881"><ele>957.0</ele><time>2026-04-24T13:49:58.999Z</time></trkpt><trkpt lat="38.066516798718986" lon="15.83505884229895"><ele>957.0</ele><time>2026-04-24T13:49:59.999Z</time></trkpt><trkpt lat="38.06655443346932" lon="15.835165142514214"><ele>953.6</ele><time>2026-04-24T13:50:00.999Z</time></trkpt><trkpt lat="38.06660160718347" lon="15.835280516421898"><ele>950.2</ele><time>2026-04-24T13:50:01.999Z</time></trkpt><trkpt lat="38.06664602921858" lon="15.835372138376735"><ele>946.8</ele><time>2026-04-24T13:50:02.999Z</time></trkpt><trkpt lat="38.06676052368733" lon="15.83544719544044"><ele>943.4</ele><time>2026-04-24T13:50:04.999Z</time></trkpt><trkpt lat="38.06685739945371" lon="15.835477960666744"><ele>940.0</ele><time>2026-04-24T13:50:05.999Z</time></trkpt><trkpt lat="38.0669546451425" lon="15.835516172997897"><ele>940.0</ele><time>2026-04-24T13:50:06.999Z</time></trkpt><trkpt lat="38.06701088231437" lon="15.835567390488833"><ele>939.9999999999999</ele><time>2026-04-24T13:50:07.999Z</time></trkpt><trkpt lat="38.0670562698754" lon="15.835629602176175"><ele>940.0</ele><time>2026-04-24T13:50:08.999Z</time></trkpt><trkpt lat="38.067097599106795" lon="15.835695510413473"><ele>940.0</ele><time>2026-04-24T13:50:09.999Z</time></trkpt><trkpt lat="38.06712442385523" lon="15.835775285014662"><ele>939.9999999999999</ele><time>2026-04-24T13:50:10.999Z</time></trkpt><trkpt lat="38.06714119385847" lon="15.835865024381002"><ele>940.0</ele><time>2026-04-24T13:50:11.999Z</time></trkpt><trkpt lat="38.06715830542033" lon="15.83596440829365"><ele>940.0</ele><time>2026-04-24T13:50:12.999Z</time></trkpt><trkpt lat="38.06718926231413" lon="15.836054374031091"><ele>937.8571428571428</ele><time>2026-04-24T13:50:13.999Z</time></trkpt><trkpt lat="38.067226923655355" lon="15.836125689093592"><ele>935.7142857142856</ele><time>2026-04-24T13:50:14.999Z</time></trkpt><trkpt lat="38.067279996274245" lon="15.83619452886481"><ele>933.5714285714286</ele><time>2026-04-24T13:50:15.999Z</time></trkpt><trkpt lat="38.067336206175504" lon="15.836253933546814"><ele>931.4285714285713</ele><time>2026-04-24T13:50:16.999Z</time></trkpt><trkpt lat="38.06739744538274" lon="15.836294955405615"><ele>929.2857142857142</ele><time>2026-04-24T13:50:17.999Z</time></trkpt><trkpt lat="38.06746964540541" lon="15.836312518382261"><ele>927.1428571428571</ele><time>2026-04-24T13:50:18.999Z</time></trkpt><trkpt lat="38.06754843199883" lon="15.83631185222165"><ele>925.0</ele><time>2026-04-24T13:50:19.999Z</time></trkpt><trkpt lat="38.06761552089827" lon="15.836319779538604"><ele>924.9999999999999</ele><time>2026-04-24T13:50:20.999Z</time></trkpt><trkpt lat="38.067671978164675" lon="15.836364583319991"><ele>925.0</ele><time>2026-04-24T13:50:21.999Z</time></trkpt><trkpt lat="38.06771606894955" lon="15.836430422650137"><ele>925.0</ele><time>2026-04-24T13:50:22.999Z</time></trkpt><trkpt lat="38.0677575716724" lon="15.836503023751815"><ele>925.0</ele><time>2026-04-24T13:50:23.999Z</time></trkpt><trkpt lat="38.067858307346874" lon="15.836524467288935"><ele>924.9999999999999</ele><time>2026-04-24T13:50:25.999Z</time></trkpt><trkpt lat="38.067923210177746" lon="15.836490458652857"><ele>925.0</ele><time>2026-04-24T13:50:26.999Z</time></trkpt><trkpt lat="38.06801181525347" lon="15.83643798459701"><ele>924.9999999999999</ele><time>2026-04-24T13:50:27.999Z</time></trkpt><trkpt lat="38.06811318538232" lon="15.836425324909289"><ele>925.0</ele><time>2026-04-24T13:50:28.999Z</time></trkpt><trkpt lat="38.068197169370556" lon="15.83643072902194"><ele>925.0</ele><time>2026-04-24T13:50:29.999Z</time></trkpt><trkpt lat="38.06827045951201" lon="15.836412028050418"><ele>925.0</ele><time>2026-04-24T13:50:30.999Z</time></trkpt><trkpt lat="38.06833893146649" lon="15.836363439717053"><ele>924.9999999999999</ele><time>2026-04-24T13:50:31.999Z</time></trkpt><trkpt lat="38.06840495948975" lon="15.836297267077041"><ele>925.0</ele><time>2026-04-24T13:50:32.999Z</time></trkpt><trkpt lat="38.06847939429716" lon="15.836246502386048"><ele>925.4</ele><time>2026-04-24T13:50:33.999Z</time></trkpt><trkpt lat="38.06855701004035" lon="15.8361816759049"><ele>925.8</ele><time>2026-04-24T13:50:34.999Z</time></trkpt><trkpt lat="38.06861123154103" lon="15.836114256391753"><ele>926.2</ele><time>2026-04-24T13:50:35.999Z</time></trkpt><trkpt lat="38.06865423463332" lon="15.836052422342707"><ele>926.6</ele><time>2026-04-24T13:50:36.999Z</time></trkpt><trkpt lat="38.068738403173285" lon="15.835939215797909"><ele>927.0</ele><time>2026-04-24T13:50:38.999Z</time></trkpt><trkpt lat="38.06881733674906" lon="15.835873064532445"><ele>927.0</ele><time>2026-04-24T13:50:40.999Z</time></trkpt><trkpt lat="38.06891473980388" lon="15.835920534032777"><ele>927.0</ele><time>2026-04-24T13:50:42.999Z</time></trkpt><trkpt lat="38.06896598625709" lon="15.836001837382085"><ele>927.0</ele><time>2026-04-24T13:50:43.999Z</time></trkpt><trkpt lat="38.06900511244076" lon="15.83608581247024"><ele>927.0</ele><time>2026-04-24T13:50:44.999Z</time></trkpt><trkpt lat="38.069050044068334" lon="15.836141922675548"><ele>927.0</ele><time>2026-04-24T13:50:45.999Z</time></trkpt><trkpt lat="38.06911782028126" lon="15.836177495315113"><ele>927.0</ele><time>2026-04-24T13:50:46.999Z</time></trkpt><trkpt lat="38.06921406667856" lon="15.836220791245292"><ele>925.4000000000001</ele><time>2026-04-24T13:50:47.999Z</time></trkpt><trkpt lat="38.06929335884759" lon="15.836259549548156"><ele>923.8000000000001</ele><time>2026-04-24T13:50:48.999Z</time></trkpt><trkpt lat="38.06936182311752" lon="15.836272517385733"><ele>922.2</ele><time>2026-04-24T13:50:49.999Z</time></trkpt><trkpt lat="38.06946036336702" lon="15.836221344075476"><ele>920.6</ele><time>2026-04-24T13:50:51.999Z</time></trkpt><trkpt lat="38.069561342117915" lon="15.83611650237803"><ele>919.0</ele><time>2026-04-24T13:50:53.999Z</time></trkpt><trkpt lat="38.06963792534273" lon="15.836094887823295"><ele>918.9999999999999</ele><time>2026-04-24T13:50:54.999Z</time></trkpt><trkpt lat="38.06971812616029" lon="15.836091259752013"><ele>919.0</ele><time>2026-04-24T13:50:55.999Z</time></trkpt><trkpt lat="38.06979836280185" lon="15.83610025260622"><ele>919.0</ele><time>2026-04-24T13:50:56.999Z</time></trkpt><trkpt lat="38.069881269292274" lon="15.836111530499014"><ele>919.0</ele><time>2026-04-24T13:50:57.999Z</time></trkpt><trkpt lat="38.0699562892444" lon="15.836128616878325"><ele>918.9999999999999</ele><time>2026-04-24T13:50:58.999Z</time></trkpt><trkpt lat="38.07002342321007" lon="15.836167101369707"><ele>919.0</ele><time>2026-04-24T13:50:59.999Z</time></trkpt><trkpt lat="38.07008278529539" lon="15.836220774182994"><ele>919.1666666666666</ele><time>2026-04-24T13:51:00.999Z</time></trkpt><trkpt lat="38.07014394649896" lon="15.836278932886461"><ele>919.3333333333333</ele><time>2026-04-24T13:51:01.999Z</time></trkpt><trkpt lat="38.07020275758643" lon="15.8363416337351"><ele>919.5</ele><time>2026-04-24T13:51:02.999Z</time></trkpt><trkpt lat="38.070265150784365" lon="15.83638435231139"><ele>919.6666666666667</ele><time>2026-04-24T13:51:03.999Z</time></trkpt><trkpt lat="38.07032638301394" lon="15.836415808402943"><ele>919.8333333333334</ele><time>2026-04-24T13:51:05Z</time></trkpt><trkpt lat="38.07041376689507" lon="15.836514313354915"><ele>920.0</ele><time>2026-04-24T13:51:07Z</time></trkpt><trkpt lat="38.07045912408901" lon="15.83665875551778"><ele>920.0</ele><time>2026-04-24T13:51:09Z</time></trkpt><trkpt lat="38.07047180412579" lon="15.836740826125917"><ele>920.0</ele><time>2026-04-24T13:51:10Z</time></trkpt><trkpt lat="38.07051180941054" lon="15.836865885928873"><ele>920.0</ele><time>2026-04-24T13:51:12Z</time></trkpt><trkpt lat="38.070638901650454" lon="15.836928881619238"><ele>920.0</ele><time>2026-04-24T13:51:14Z</time></trkpt><trkpt lat="38.070715933115125" lon="15.836979776670429"><ele>920.0</ele><time>2026-04-24T13:51:15Z</time></trkpt><trkpt lat="38.07078675266906" lon="15.837023804252373"><ele>922.3333333333334</ele><time>2026-04-24T13:51:16Z</time></trkpt><trkpt lat="38.07084445231556" lon="15.837071545671513"><ele>924.6666666666667</ele><time>2026-04-24T13:51:17Z</time></trkpt><trkpt lat="38.070888621774095" lon="15.837169138955923"><ele>927.0</ele><time>2026-04-24T13:51:19Z</time></trkpt><trkpt lat="38.07098596359225" lon="15.837195947070356"><ele>929.3333333333333</ele><time>2026-04-24T13:51:22Z</time></trkpt><trkpt lat="38.07102130494105" lon="15.837267382307408"><ele>931.6666666666666</ele><time>2026-04-24T13:51:24Z</time></trkpt><trkpt lat="38.07096964314824" lon="15.837359688829244"><ele>934.0</ele><time>2026-04-24T13:51:26Z</time></trkpt><trkpt lat="38.07090525158821" lon="15.837406688253253"><ele>933.9999999999999</ele><time>2026-04-24T13:51:28Z</time></trkpt><trkpt lat="38.07082529721417" lon="15.837468967146537"><ele>934.0</ele><time>2026-04-24T13:52:07.999Z</time></trkpt><trkpt lat="38.070754712315676" lon="15.837457383230017"><ele>934.0</ele><time>2026-04-24T13:52:09.999Z</time></trkpt><trkpt lat="38.070692476079" lon="15.837409216015342"><ele>934.0</ele><time>2026-04-24T13:52:11.999Z</time></trkpt><trkpt lat="38.070603758141694" lon="15.837357495691586"><ele>933.9999999999999</ele><time>2026-04-24T13:52:13.999Z</time></trkpt><trkpt lat="38.070501050036846" lon="15.837307881626728"><ele>934.0</ele><time>2026-04-24T13:52:15.999Z</time></trkpt><trkpt lat="38.07040467150396" lon="15.837289094524696"><ele>932.4999999999999</ele><time>2026-04-24T13:52:17.999Z</time></trkpt><trkpt lat="38.07031609712294" lon="15.837272190435074"><ele>931.0</ele><time>2026-04-24T13:52:19.999Z</time></trkpt><trkpt lat="38.07021582525861" lon="15.837256249775228"><ele>929.5</ele><time>2026-04-24T13:52:21.999Z</time></trkpt><trkpt lat="38.07015113009243" lon="15.837225966382189"><ele>928.0</ele><time>2026-04-24T13:52:22.999Z</time></trkpt><trkpt lat="38.070101645493224" lon="15.837156405361375"><ele>926.4999999999999</ele><time>2026-04-24T13:52:23.999Z</time></trkpt><trkpt lat="38.07002045880331" lon="15.83715514130527"><ele>925.0</ele><time>2026-04-24T13:52:25.999Z</time></trkpt><trkpt lat="38.0699863870289" lon="15.837303268790402"><ele>924.9999999999999</ele><time>2026-04-24T13:52:27.999Z</time></trkpt><trkpt lat="38.069971388636795" lon="15.837384512516058"><ele>925.0</ele><time>2026-04-24T13:52:28.999Z</time></trkpt><trkpt lat="38.06993119610674" lon="15.83745760626138"><ele>925.0</ele><time>2026-04-24T13:52:29.999Z</time></trkpt><trkpt lat="38.06989606958349" lon="15.837524803504099"><ele>925.0</ele><time>2026-04-24T13:52:30.999Z</time></trkpt><trkpt lat="38.06985728168962" lon="15.837661432936962"><ele>924.9999999999999</ele><time>2026-04-24T13:52:32.999Z</time></trkpt><trkpt lat="38.069808612778104" lon="15.837804082781506"><ele>925.0</ele><time>2026-04-24T13:52:34.999Z</time></trkpt><trkpt lat="38.069779081345274" lon="15.837876558507135"><ele>924.0</ele><time>2026-04-24T13:52:35.999Z</time></trkpt><trkpt lat="38.06974385439563" lon="15.837948795398109"><ele>923.0</ele><time>2026-04-24T13:52:36.999Z</time></trkpt><trkpt lat="38.06970104824869" lon="15.838017022319505"><ele>922.0</ele><time>2026-04-24T13:52:37.999Z</time></trkpt><trkpt lat="38.06964880654649" lon="15.83807448341969"><ele>921.0</ele><time>2026-04-24T13:52:38.999Z</time></trkpt><trkpt lat="38.06958699929576" lon="15.838109233182632"><ele>920.0</ele><time>2026-04-24T13:52:39.999Z</time></trkpt><trkpt lat="38.06952609405605" lon="15.838137888572083"><ele>919.0</ele><time>2026-04-24T13:52:40.999Z</time></trkpt><trkpt lat="38.06947058644993" lon="15.838247736141868"><ele>918.0</ele><time>2026-04-24T13:52:42.999Z</time></trkpt><trkpt lat="38.06946067468556" lon="15.838335452303113"><ele>918.0</ele><time>2026-04-24T13:52:43.999Z</time></trkpt><trkpt lat="38.069427841705185" lon="15.83843469076231"><ele>918.0</ele><time>2026-04-24T13:52:44.999Z</time></trkpt><trkpt lat="38.069371529504004" lon="15.838542884679162"><ele>918.0</ele><time>2026-04-24T13:52:45.999Z</time></trkpt><trkpt lat="38.06933223467122" lon="15.838635929231398"><ele>918.0</ele><time>2026-04-24T13:52:46.999Z</time></trkpt><trkpt lat="38.06928940967723" lon="15.838704600998701"><ele>918.0</ele><time>2026-04-24T13:52:47.999Z</time></trkpt><trkpt lat="38.069210209010436" lon="15.838732658620001"><ele>918.0</ele><time>2026-04-24T13:52:48.999Z</time></trkpt><trkpt lat="38.06912491179831" lon="15.83876224624805"><ele>918.0</ele><time>2026-04-24T13:52:49.999Z</time></trkpt><trkpt lat="38.06906813601904" lon="15.838829870732337"><ele>918.0</ele><time>2026-04-24T13:52:50.999Z</time></trkpt><trkpt lat="38.06905720924872" lon="15.838944766366996"><ele>918.0</ele><time>2026-04-24T13:52:51.999Z</time></trkpt><trkpt lat="38.06898431216697" lon="15.839058394451419"><ele>918.0</ele><time>2026-04-24T13:52:52.999Z</time></trkpt><trkpt lat="38.06895536196308" lon="15.839142968738852"><ele>918.0</ele><time>2026-04-24T13:52:53.999Z</time></trkpt><trkpt lat="38.06894963321852" lon="15.83924777723863"><ele>918.0</ele><time>2026-04-24T13:52:54.999Z</time></trkpt><trkpt lat="38.06894452954102" lon="15.839358473878265"><ele>925.3333333333334</ele><time>2026-04-24T13:52:55.999Z</time></trkpt><trkpt lat="38.06891506824419" lon="15.839475016555886"><ele>932.6666666666667</ele><time>2026-04-24T13:52:56.999Z</time></trkpt><trkpt lat="38.06889124925431" lon="15.83956492430945"><ele>940.0</ele><time>2026-04-24T13:52:57.999Z</time></trkpt><trkpt lat="38.06881751263794" lon="15.839624356282933"><ele>947.3333333333334</ele><time>2026-04-24T13:52:59.999Z</time></trkpt><trkpt lat="38.068744876889184" lon="15.839627287544676"><ele>954.6666666666667</ele><time>2026-04-24T13:53:00.999Z</time></trkpt><trkpt lat="38.06866355301514" lon="15.839574501515175"><ele>962.0</ele><time>2026-04-24T13:53:01.999Z</time></trkpt><trkpt lat="38.06855970332722" lon="15.839497855435104"><ele>962.0000000000001</ele><time>2026-04-24T13:53:02.999Z</time></trkpt><trkpt lat="38.068463825924105" lon="15.839426673058078"><ele>962.0</ele><time>2026-04-24T13:53:03.999Z</time></trkpt><trkpt lat="38.068394880588585" lon="15.839380276048205"><ele>962.0</ele><time>2026-04-24T13:53:04.999Z</time></trkpt><trkpt lat="38.068336080114264" lon="15.839334758440032"><ele>962.0</ele><time>2026-04-24T13:53:05.999Z</time></trkpt><trkpt lat="38.06827075634422" lon="15.839283518270221"><ele>962.0000000000001</ele><time>2026-04-24T13:53:06.999Z</time></trkpt><trkpt lat="38.068199417045435" lon="15.839243775832468"><ele>962.0</ele><time>2026-04-24T13:53:07.999Z</time></trkpt><trkpt lat="38.068125349507106" lon="15.839192718101389"><ele>956.5000000000001</ele><time>2026-04-24T13:53:08.999Z</time></trkpt><trkpt lat="38.068059534300524" lon="15.839159890729718"><ele>951.0</ele><time>2026-04-24T13:53:10Z</time></trkpt><trkpt lat="38.06799167707695" lon="15.839116505863727"><ele>945.5</ele><time>2026-04-24T13:53:11Z</time></trkpt><trkpt lat="38.06791827436506" lon="15.8390749838475"><ele>940.0</ele><time>2026-04-24T13:53:12Z</time></trkpt><trkpt lat="38.06784224354616" lon="15.83903061661728"><ele>934.5000000000001</ele><time>2026-04-24T13:53:13Z</time></trkpt><trkpt lat="38.0677658059947" lon="15.838973512861676"><ele>929.0</ele><time>2026-04-24T13:53:14Z</time></trkpt><trkpt lat="38.06769168378299" lon="15.838912182709198"><ele>929.0</ele><time>2026-04-24T13:53:15Z</time></trkpt><trkpt lat="38.06762257108458" lon="15.838864125777144"><ele>929.0000000000001</ele><time>2026-04-24T13:53:16Z</time></trkpt><trkpt lat="38.06754939070197" lon="15.838829748222945"><ele>929.0</ele><time>2026-04-24T13:53:17Z</time></trkpt><trkpt lat="38.06748164482978" lon="15.838791123138009"><ele>929.0</ele><time>2026-04-24T13:53:18Z</time></trkpt><trkpt lat="38.067424283664224" lon="15.838738000728751"><ele>929.0000000000001</ele><time>2026-04-24T13:53:19Z</time></trkpt><trkpt lat="38.067370958309006" lon="15.838670706016973"><ele>929.0</ele><time>2026-04-24T13:53:20Z</time></trkpt><trkpt lat="38.067339582284376" lon="15.838595619132704"><ele>929.0</ele><time>2026-04-24T13:53:21Z</time></trkpt><trkpt lat="38.067253801205325" lon="15.83850509619481"><ele>931.0</ele><time>2026-04-24T13:53:23Z</time></trkpt><trkpt lat="38.067184373483514" lon="15.838499107478683"><ele>933.0000000000001</ele><time>2026-04-24T13:53:24Z</time></trkpt><trkpt lat="38.06711781066476" lon="15.838490360487814"><ele>935.0</ele><time>2026-04-24T13:53:25Z</time></trkpt><trkpt lat="38.06705677961881" lon="15.838461288778195"><ele>937.0</ele><time>2026-04-24T13:53:26Z</time></trkpt><trkpt lat="38.067011143580785" lon="15.838399410924417"><ele>939.0000000000001</ele><time>2026-04-24T13:53:27Z</time></trkpt><trkpt lat="38.06697769912602" lon="15.838327398042145"><ele>941.0</ele><time>2026-04-24T13:53:28Z</time></trkpt><trkpt lat="38.06692349100023" lon="15.838238987750163"><ele>943.0</ele><time>2026-04-24T13:53:30Z</time></trkpt><trkpt lat="38.066796112257094" lon="15.838276852294838"><ele>935.8333333333333</ele><time>2026-04-24T13:53:32Z</time></trkpt><trkpt lat="38.066726643232734" lon="15.83832211528709"><ele>928.6666666666666</ele><time>2026-04-24T13:53:33Z</time></trkpt><trkpt lat="38.06666406644978" lon="15.838356599481221"><ele>921.5</ele><time>2026-04-24T13:53:34Z</time></trkpt><trkpt lat="38.06659561908449" lon="15.838381565985442"><ele>914.3333333333333</ele><time>2026-04-24T13:53:35Z</time></trkpt><trkpt lat="38.06650875637007" lon="15.83838671413472"><ele>907.1666666666666</ele><time>2026-04-24T13:53:36Z</time></trkpt><trkpt lat="38.0664350971317" lon="15.838378814704393"><ele>900.0</ele><time>2026-04-24T13:53:37Z</time></trkpt><trkpt lat="38.066322894685904" lon="15.83833838875788"><ele>900.0</ele><time>2026-04-24T13:53:39Z</time></trkpt><trkpt lat="38.066239769261145" lon="15.838272543383553"><ele>900.0</ele><time>2026-04-24T13:53:40Z</time></trkpt><trkpt lat="38.06616616269439" lon="15.838198454629424"><ele>900.0</ele><time>2026-04-24T13:53:41Z</time></trkpt><trkpt lat="38.066074462799115" lon="15.838105308172697"><ele>900.0</ele><time>2026-04-24T13:53:42Z</time></trkpt><trkpt lat="38.06597057758536" lon="15.838015667337945"><ele>900.0</ele><time>2026-04-24T13:53:43Z</time></trkpt><trkpt lat="38.065898325837715" lon="15.837949324511989"><ele>900.0</ele><time>2026-04-24T13:53:44Z</time></trkpt><trkpt lat="38.065831640267525" lon="15.837884448773838"><ele>900.0</ele><time>2026-04-24T13:53:45Z</time></trkpt><trkpt lat="38.06573860390023" lon="15.837864370787123"><ele>900.0</ele><time>2026-04-24T13:53:47Z</time></trkpt><trkpt lat="38.06561234039727" lon="15.83797441797419"><ele>900.0</ele><time>2026-04-24T13:53:49Z</time></trkpt><trkpt lat="38.06555774624947" lon="15.83804313564727"><ele>900.0</ele><time>2026-04-24T13:53:50Z</time></trkpt><trkpt lat="38.06550519439149" lon="15.838155047183724"><ele>899.0</ele><time>2026-04-24T13:53:52Z</time></trkpt><trkpt lat="38.06548496419699" lon="15.838277568926316"><ele>898.0</ele><time>2026-04-24T13:53:53Z</time></trkpt><trkpt lat="38.06546386220571" lon="15.838398464073924"><ele>897.0</ele><time>2026-04-24T13:53:54Z</time></trkpt><trkpt lat="38.06544146340738" lon="15.838481639687902"><ele>896.0</ele><time>2026-04-24T13:53:55Z</time></trkpt><trkpt lat="38.06536923723819" lon="15.838559183645975"><ele>895.0</ele><time>2026-04-24T13:53:57Z</time></trkpt><trkpt lat="38.06524356260304" lon="15.838547974113412"><ele>894.9999999999999</ele><time>2026-04-24T13:53:59Z</time></trkpt><trkpt lat="38.065171280823485" lon="15.838495963236177"><ele>895.0</ele><time>2026-04-24T13:54:00Z</time></trkpt><trkpt lat="38.06511453571022" lon="15.83842686620803"><ele>895.0</ele><time>2026-04-24T13:54:01Z</time></trkpt><trkpt lat="38.065069660310044" lon="15.838333884875043"><ele>895.0</ele><time>2026-04-24T13:54:02Z</time></trkpt><trkpt lat="38.065043595238194" lon="15.838221604684271"><ele>894.9999999999999</ele><time>2026-04-24T13:54:03Z</time></trkpt><trkpt lat="38.06501817508026" lon="15.838140246610942"><ele>895.0</ele><time>2026-04-24T13:54:04Z</time></trkpt><trkpt lat="38.06493371273683" lon="15.838013433335467"><ele>904.0</ele><time>2026-04-24T13:54:06Z</time></trkpt><trkpt lat="38.06485944235904" lon="15.837938140669747"><ele>913.0</ele><time>2026-04-24T13:54:07Z</time></trkpt><trkpt lat="38.06477112980614" lon="15.837870475561811"><ele>922.0</ele><time>2026-04-24T13:54:08Z</time></trkpt><trkpt lat="38.06468778611369" lon="15.83780880736694"><ele>931.0</ele><time>2026-04-24T13:54:09Z</time></trkpt><trkpt lat="38.064616650858625" lon="15.837757580341888"><ele>940.0</ele><time>2026-04-24T13:54:10Z</time></trkpt><trkpt lat="38.06454597026291" lon="15.837682060252495"><ele>940.0</ele><time>2026-04-24T13:54:11Z</time></trkpt><trkpt lat="38.06447877758617" lon="15.83766037305231"><ele>940.0</ele><time>2026-04-24T13:54:12Z</time></trkpt><trkpt lat="38.06439444842437" lon="15.837649579573403"><ele>940.0</ele><time>2026-04-24T13:54:13Z</time></trkpt><trkpt lat="38.06429927288201" lon="15.837637886841971"><ele>940.0</ele><time>2026-04-24T13:54:14Z</time></trkpt><trkpt lat="38.06419268776433" lon="15.837632420700709"><ele>940.0</ele><time>2026-04-24T13:54:15Z</time></trkpt><trkpt lat="38.064078951397306" lon="15.837634807666356"><ele>938.1666666666666</ele><time>2026-04-24T13:54:16Z</time></trkpt><trkpt lat="38.063991485503415" lon="15.837638547649345"><ele>936.3333333333333</ele><time>2026-04-24T13:54:17Z</time></trkpt><trkpt lat="38.06391933428082" lon="15.837628931538177"><ele>934.5</ele><time>2026-04-24T13:54:18Z</time></trkpt><trkpt lat="38.06383196914451" lon="15.83759779020409"><ele>932.6666666666667</ele><time>2026-04-24T13:54:19Z</time></trkpt><trkpt lat="38.063733293940466" lon="15.837542855101667"><ele>930.8333333333334</ele><time>2026-04-24T13:54:20Z</time></trkpt><trkpt lat="38.06365667071073" lon="15.837503419560756"><ele>929.0</ele><time>2026-04-24T13:54:20.999Z</time></trkpt><trkpt lat="38.06358064661451" lon="15.837365935304009"><ele>929.0000000000001</ele><time>2026-04-24T13:54:22.999Z</time></trkpt><trkpt lat="38.06353887523186" lon="15.837253845979298"><ele>929.0</ele><time>2026-04-24T13:54:23.999Z</time></trkpt><trkpt lat="38.06349280028878" lon="15.837169194760467"><ele>929.0</ele><time>2026-04-24T13:54:24.999Z</time></trkpt><trkpt lat="38.06343553300822" lon="15.837083705030311"><ele>929.0</ele><time>2026-04-24T13:54:25.999Z</time></trkpt><trkpt lat="38.06339508860241" lon="15.8370143025469"><ele>929.0000000000001</ele><time>2026-04-24T13:54:26.999Z</time></trkpt><trkpt lat="38.06332912961797" lon="15.83694084601044"><ele>929.0</ele><time>2026-04-24T13:54:27.999Z</time></trkpt><trkpt lat="38.0632317144428" lon="15.836867863335922"><ele>926.0000000000001</ele><time>2026-04-24T13:54:28.999Z</time></trkpt><trkpt lat="38.06315795268802" lon="15.83677738506649"><ele>923.0</ele><time>2026-04-24T13:54:29.999Z</time></trkpt><trkpt lat="38.063110395269845" lon="15.83669673016177"><ele>920.0</ele><time>2026-04-24T13:54:30.999Z</time></trkpt><trkpt lat="38.06301538811923" lon="15.836627994034002"><ele>917.0</ele><time>2026-04-24T13:54:32.999Z</time></trkpt><trkpt lat="38.06295044080718" lon="15.83662589822709"><ele>914.0000000000001</ele><time>2026-04-24T13:54:33.999Z</time></trkpt><trkpt lat="38.0628666932538" lon="15.836632895411588"><ele>911.0</ele><time>2026-04-24T13:54:34.999Z</time></trkpt><trkpt lat="38.06276370276991" lon="15.836655856149411"><ele>911.0000000000001</ele><time>2026-04-24T13:54:35.999Z</time></trkpt><trkpt lat="38.06266124465589" lon="15.83668718218267"><ele>911.0</ele><time>2026-04-24T13:54:36.999Z</time></trkpt><trkpt lat="38.06256351829287" lon="15.83671391515309"><ele>911.0</ele><time>2026-04-24T13:54:37.999Z</time></trkpt><trkpt lat="38.06248030200544" lon="15.836724290741305"><ele>911.0</ele><time>2026-04-24T13:54:38.999Z</time></trkpt><trkpt lat="38.06240577144806" lon="15.836729716891385"><ele>911.0000000000001</ele><time>2026-04-24T13:54:39.999Z</time></trkpt><trkpt lat="38.06233626093288" lon="15.836721867589352"><ele>911.0</ele><time>2026-04-24T13:54:41.999Z</time></trkpt><trkpt lat="38.06235272015596" lon="15.836816280450574"><ele>918.0000000000001</ele><time>2026-04-24T13:54:44.999Z</time></trkpt><trkpt lat="38.06245824385304" lon="15.836819125927253"><ele>925.0</ele><time>2026-04-24T13:54:46.999Z</time></trkpt><trkpt lat="38.06252141048591" lon="15.836828373776722"><ele>932.0</ele><time>2026-04-24T13:54:47.999Z</time></trkpt><trkpt lat="38.06258879537745" lon="15.836845532993324"><ele>939.0</ele><time>2026-04-24T13:54:48.999Z</time></trkpt><trkpt lat="38.0626891614447" lon="15.836866466992374"><ele>946.0000000000001</ele><time>2026-04-24T13:54:50.999Z</time></trkpt><trkpt lat="38.062794658630324" lon="15.836899954947755"><ele>953.0</ele><time>2026-04-24T13:54:52.999Z</time></trkpt><trkpt lat="38.062872142700506" lon="15.836924617074736"><ele>953.0000000000001</ele><time>2026-04-24T13:54:53.999Z</time></trkpt><trkpt lat="38.062944124184185" lon="15.836955784322516"><ele>953.0</ele><time>2026-04-24T13:54:54.999Z</time></trkpt><trkpt lat="38.063015387748976" lon="15.836988835221748"><ele>953.0</ele><time>2026-04-24T13:54:55.999Z</time></trkpt><trkpt lat="38.06307835229322" lon="15.83702038318148"><ele>953.0</ele><time>2026-04-24T13:54:56.999Z</time></trkpt><trkpt lat="38.063152273561656" lon="15.83705859499983"><ele>953.0000000000001</ele><time>2026-04-24T13:54:58.999Z</time></trkpt><trkpt lat="38.06308095478694" lon="15.837119918000644"><ele>953.0</ele><time>2026-04-24T13:55:01.999Z</time></trkpt><trkpt lat="38.062975094788385" lon="15.837075223203927"><ele>953.0000000000001</ele><time>2026-04-24T13:55:03.999Z</time></trkpt><trkpt lat="38.06287867530873" lon="15.837048443381263"><ele>953.0</ele><time>2026-04-24T13:55:05.999Z</time></trkpt><trkpt lat="38.06275657215627" lon="15.837085515743288"><ele>953.0</ele><time>2026-04-24T13:55:07.999Z</time></trkpt><trkpt lat="38.06268765943599" lon="15.837105524518451"><ele>953.0</ele><time>2026-04-24T13:55:08.999Z</time></trkpt><trkpt lat="38.06262121562704" lon="15.83712763127526"><ele>953.0000000000001</ele><time>2026-04-24T13:55:09.999Z</time></trkpt><trkpt lat="38.062549163216396" lon="15.837165673056933"><ele>953.0</ele><time>2026-04-24T13:55:10.999Z</time></trkpt><trkpt lat="38.06246842702826" lon="15.837186586176834"><ele>953.5999999999999</ele><time>2026-04-24T13:55:11.999Z</time></trkpt><trkpt lat="38.06237449167534" lon="15.837187659910459"><ele>954.1999999999999</ele><time>2026-04-24T13:55:12.999Z</time></trkpt><trkpt lat="38.06228982936821" lon="15.837183644907677"><ele>954.8</ele><time>2026-04-24T13:55:13.999Z</time></trkpt><trkpt lat="38.06217508741785" lon="15.837185579968668"><ele>955.4</ele><time>2026-04-24T13:55:14.999Z</time></trkpt><trkpt lat="38.06205821306316" lon="15.837153962454707"><ele>956.0</ele><time>2026-04-24T13:55:16Z</time></trkpt><trkpt lat="38.06194065296995" lon="15.837130962373148"><ele>956.0000000000001</ele><time>2026-04-24T13:55:17Z</time></trkpt><trkpt lat="38.06185679843728" lon="15.837104541356716"><ele>956.0</ele><time>2026-04-24T13:55:18Z</time></trkpt><trkpt lat="38.06177910448115" lon="15.837108467747564"><ele>956.0</ele><time>2026-04-24T13:55:19Z</time></trkpt><trkpt lat="38.06170138434444" lon="15.837099665274689"><ele>956.0</ele><time>2026-04-24T13:55:20Z</time></trkpt><trkpt lat="38.06162059728673" lon="15.837124820832793"><ele>956.0000000000001</ele><time>2026-04-24T13:55:22Z</time></trkpt><trkpt lat="38.06156430704856" lon="15.837205436171697"><ele>956.0</ele><time>2026-04-24T13:55:24Z</time></trkpt><trkpt lat="38.06145179215774" lon="15.837289149192063"><ele>953.5000000000001</ele><time>2026-04-24T13:56:58.999Z</time></trkpt><trkpt lat="38.061361419784056" lon="15.837381388987449"><ele>951.0</ele><time>2026-04-24T13:57:00.999Z</time></trkpt><trkpt lat="38.06131457293717" lon="15.83743936594755"><ele>948.5</ele><time>2026-04-24T13:57:01.999Z</time></trkpt><trkpt lat="38.06124932539413" lon="15.837500769115593"><ele>946.0</ele><time>2026-04-24T13:57:02.999Z</time></trkpt><trkpt lat="38.061187664011975" lon="15.837546586965557"><ele>943.5000000000001</ele><time>2026-04-24T13:57:03.999Z</time></trkpt><trkpt lat="38.06111426438684" lon="15.837589522250084"><ele>941.0</ele><time>2026-04-24T13:57:04.999Z</time></trkpt><trkpt lat="38.06103510894163" lon="15.837628572928644"><ele>945.1666666666667</ele><time>2026-04-24T13:57:05.999Z</time></trkpt><trkpt lat="38.0609627794486" lon="15.837663079937704"><ele>949.3333333333334</ele><time>2026-04-24T13:57:06.999Z</time></trkpt><trkpt lat="38.06088404167687" lon="15.837671486187006"><ele>953.5</ele><time>2026-04-24T13:57:07.999Z</time></trkpt><trkpt lat="38.060804279075995" lon="15.837658763471858"><ele>957.6666666666667</ele><time>2026-04-24T13:57:08.999Z</time></trkpt><trkpt lat="38.0607391328422" lon="15.837657753300324"><ele>961.8333333333334</ele><time>2026-04-24T13:57:09.999Z</time></trkpt><trkpt lat="38.0606741742849" lon="15.837744307944572"><ele>966.0</ele><time>2026-04-24T13:57:11.999Z</time></trkpt><trkpt lat="38.06062471882845" lon="15.837821402119575"><ele>954.5999999999999</ele><time>2026-04-24T13:57:12.999Z</time></trkpt><trkpt lat="38.0605918451468" lon="15.837962098283432"><ele>943.1999999999999</ele><time>2026-04-24T13:57:14.999Z</time></trkpt><trkpt lat="38.060608674941584" lon="15.838057401673815"><ele>931.8000000000001</ele><time>2026-04-24T13:57:15.999Z</time></trkpt><trkpt lat="38.06062814587475" lon="15.838175270158176"><ele>920.4000000000001</ele><time>2026-04-24T13:57:16.999Z</time></trkpt><trkpt lat="38.06061982807642" lon="15.83829848138667"><ele>909.0</ele><time>2026-04-24T13:57:17.999Z</time></trkpt><trkpt lat="38.060594990991916" lon="15.838405738926811"><ele>908.4000000000001</ele><time>2026-04-24T13:57:18.999Z</time></trkpt><trkpt lat="38.06059519296878" lon="15.838496678714273"><ele>907.8000000000001</ele><time>2026-04-24T13:57:20.999Z</time></trkpt><trkpt lat="38.06067609227176" lon="15.838622145272433"><ele>907.1999999999999</ele><time>2026-04-24T13:57:23Z</time></trkpt><trkpt lat="38.06073102667664" lon="15.838698198047446"><ele>906.5999999999999</ele><time>2026-04-24T13:57:24Z</time></trkpt><trkpt lat="38.06077743226414" lon="15.838761451469916"><ele>906.0</ele><time>2026-04-24T13:57:25Z</time></trkpt><trkpt lat="38.06086897230114" lon="15.83887288180233"><ele>916.4</ele><time>2026-04-24T13:57:27Z</time></trkpt><trkpt lat="38.06092455806412" lon="15.838930315602616"><ele>926.8</ele><time>2026-04-24T13:57:28Z</time></trkpt><trkpt lat="38.0609887251893" lon="15.839001976927998"><ele>937.1999999999999</ele><time>2026-04-24T13:57:29Z</time></trkpt><trkpt lat="38.06109225650964" lon="15.839087998943539"><ele>947.5999999999999</ele><time>2026-04-24T13:57:30Z</time></trkpt><trkpt lat="38.06118903994526" lon="15.83917111828844"><ele>958.0</ele><time>2026-04-24T13:57:31Z</time></trkpt><trkpt lat="38.06127933473792" lon="15.839251660201501"><ele>954.2</ele><time>2026-04-24T13:57:32Z</time></trkpt><trkpt lat="38.061350266157845" lon="15.839332583549382"><ele>950.4</ele><time>2026-04-24T13:57:33Z</time></trkpt><trkpt lat="38.0614250661091" lon="15.839438703291854"><ele>946.6000000000001</ele><time>2026-04-24T13:57:34Z</time></trkpt><trkpt lat="38.06150077804959" lon="15.839542577637417"><ele>942.8000000000001</ele><time>2026-04-24T13:57:35Z</time></trkpt><trkpt lat="38.0615704948055" lon="15.839636219794015"><ele>939.0</ele><time>2026-04-24T13:57:36Z</time></trkpt><trkpt lat="38.061646021385066" lon="15.839736631112736"><ele>946.8333333333334</ele><time>2026-04-24T13:57:37Z</time></trkpt><trkpt lat="38.061725000979536" lon="15.839827181002711"><ele>954.6666666666667</ele><time>2026-04-24T13:57:38Z</time></trkpt><trkpt lat="38.06178129465624" lon="15.839905168881437"><ele>962.5</ele><time>2026-04-24T13:57:39Z</time></trkpt><trkpt lat="38.06182540810715" lon="15.839994936686486"><ele>970.3333333333334</ele><time>2026-04-24T13:57:40Z</time></trkpt><trkpt lat="38.061866350095244" lon="15.84008799669092"><ele>978.1666666666667</ele><time>2026-04-24T13:57:41Z</time></trkpt><trkpt lat="38.06190618717109" lon="15.840173829464181"><ele>986.0</ele><time>2026-04-24T13:57:42Z</time></trkpt><trkpt lat="38.061935928671176" lon="15.840277929347133"><ele>988.0000000000001</ele><time>2026-04-24T13:57:43Z</time></trkpt><trkpt lat="38.06195300427253" lon="15.840409683699491"><ele>990.0</ele><time>2026-04-24T13:57:44Z</time></trkpt><trkpt lat="38.06197408690818" lon="15.84052787401997"><ele>992.0</ele><time>2026-04-24T13:57:45Z</time></trkpt><trkpt lat="38.06198433977159" lon="15.840639768853691"><ele>994.0</ele><time>2026-04-24T13:57:46Z</time></trkpt><trkpt lat="38.061991288448795" lon="15.840736432502373"><ele>996.0000000000001</ele><time>2026-04-24T13:57:47Z</time></trkpt><trkpt lat="38.06201426508587" lon="15.84081129676755"><ele>998.0</ele><time>2026-04-24T13:57:48Z</time></trkpt><trkpt lat="38.06199280142112" lon="15.840933228165063"><ele>998.0</ele><time>2026-04-24T13:57:50Z</time></trkpt><trkpt lat="38.06192097105912" lon="15.84097863402744"><ele>998.0</ele><time>2026-04-24T13:57:51Z</time></trkpt><trkpt lat="38.06182863461051" lon="15.840995750179209"><ele>998.0</ele><time>2026-04-24T13:57:52Z</time></trkpt><trkpt lat="38.06172152144426" lon="15.840983117122416"><ele>998.0</ele><time>2026-04-24T13:57:53Z</time></trkpt><trkpt lat="38.06162898095136" lon="15.840960889828349"><ele>998.0</ele><time>2026-04-24T13:57:54Z</time></trkpt><trkpt lat="38.06153668127488" lon="15.840959488883819"><ele>998.8</ele><time>2026-04-24T13:57:55Z</time></trkpt><trkpt lat="38.06144400792659" lon="15.840990033955768"><ele>999.5999999999999</ele><time>2026-04-24T13:57:56Z</time></trkpt><trkpt lat="38.06135805454471" lon="15.841057082250558"><ele>1000.4000000000001</ele><time>2026-04-24T13:57:57Z</time></trkpt><trkpt lat="38.06127336231808" lon="15.841122530663561"><ele>1001.2</ele><time>2026-04-24T13:57:58Z</time></trkpt><trkpt lat="38.061200065917" lon="15.841147757498089"><ele>1002.0</ele><time>2026-04-24T13:57:59Z</time></trkpt><trkpt lat="38.06111751048164" lon="15.841161779160723"><ele>1002.0</ele><time>2026-04-24T13:58:00Z</time></trkpt><trkpt lat="38.061007897573006" lon="15.841204846517414"><ele>1002.0</ele><time>2026-04-24T13:58:02Z</time></trkpt><trkpt lat="38.06097122545722" lon="15.841284333288295"><ele>1002.0</ele><time>2026-04-24T13:58:03Z</time></trkpt><trkpt lat="38.060943476462946" lon="15.841407764575125"><ele>1002.0</ele><time>2026-04-24T13:58:04Z</time></trkpt><trkpt lat="38.06092740725535" lon="15.841545500399464"><ele>1002.0</ele><time>2026-04-24T13:58:05Z</time></trkpt><trkpt lat="38.06090879262724" lon="15.841689105106054"><ele>999.2</ele><time>2026-04-24T13:58:06Z</time></trkpt><trkpt lat="38.06086117099672" lon="15.841852588597224"><ele>996.4000000000001</ele><time>2026-04-24T13:58:07Z</time></trkpt><trkpt lat="38.06081437078779" lon="15.841985275635453"><ele>993.5999999999999</ele><time>2026-04-24T13:58:08Z</time></trkpt><trkpt lat="38.06078360618575" lon="15.84208529728244"><ele>990.8</ele><time>2026-04-24T13:58:09Z</time></trkpt><trkpt lat="38.06077595895842" lon="15.842181064363153"><ele>988.0</ele><time>2026-04-24T13:58:10Z</time></trkpt><trkpt lat="38.060810256405205" lon="15.842356677185492"><ele>988.0</ele><time>2026-04-24T13:58:12Z</time></trkpt><trkpt lat="38.06077543326961" lon="15.842503109037525"><ele>988.0</ele><time>2026-04-24T13:58:14Z</time></trkpt><trkpt lat="38.06071826162438" lon="15.842561888985024"><ele>988.0</ele><time>2026-04-24T13:58:15Z</time></trkpt><trkpt lat="38.060647532897654" lon="15.842617255993437"><ele>988.0</ele><time>2026-04-24T13:58:16Z</time></trkpt><trkpt lat="38.060567474146175" lon="15.842680190234287"><ele>988.0</ele><time>2026-04-24T13:58:17Z</time></trkpt><trkpt lat="38.060480501315546" lon="15.842749797085181"><ele>994.8</ele><time>2026-04-24T13:58:18Z</time></trkpt><trkpt lat="38.06037482562731" lon="15.842819021342262"><ele>1001.5999999999999</ele><time>2026-04-24T13:58:19Z</time></trkpt><trkpt lat="38.06028580001362" lon="15.842873407461957"><ele>1008.4000000000001</ele><time>2026-04-24T13:58:20Z</time></trkpt><trkpt lat="38.06018071546816" lon="15.842944421692541"><ele>1015.2</ele><time>2026-04-24T13:58:21Z</time></trkpt><trkpt lat="38.06009305957239" lon="15.84300997109291"><ele>1022.0</ele><time>2026-04-24T13:58:22Z</time></trkpt><trkpt lat="38.06001629096745" lon="15.843048865417677"><ele>1022.0000000000001</ele><time>2026-04-24T13:58:23Z</time></trkpt><trkpt lat="38.059957799034756" lon="15.843092065879409"><ele>1022.0</ele><time>2026-04-24T13:58:24Z</time></trkpt><trkpt lat="38.05991380421353" lon="15.843155658108074"><ele>1022.0</ele><time>2026-04-24T13:58:25Z</time></trkpt><trkpt lat="38.059872390147" lon="15.843249195704724"><ele>1022.0</ele><time>2026-04-24T13:58:26Z</time></trkpt><trkpt lat="38.05983884003119" lon="15.843330945756719"><ele>1022.0000000000001</ele><time>2026-04-24T13:58:27Z</time></trkpt><trkpt lat="38.059799535660744" lon="15.843466738451731"><ele>1022.0</ele><time>2026-04-24T13:58:29Z</time></trkpt><trkpt lat="38.059824928561895" lon="15.843580826787411"><ele>1022.3333333333334</ele><time>2026-04-24T13:58:31Z</time></trkpt><trkpt lat="38.059861913627735" lon="15.843668723565218"><ele>1022.6666666666667</ele><time>2026-04-24T13:58:31.999Z</time></trkpt><trkpt lat="38.059878812206264" lon="15.843761901349025"><ele>1023.0</ele><time>2026-04-24T13:58:32.999Z</time></trkpt><trkpt lat="38.059888818136294" lon="15.843854699750558"><ele>1023.3333333333333</ele><time>2026-04-24T13:58:33.999Z</time></trkpt><trkpt lat="38.05990966785058" lon="15.843934939139874"><ele>1023.6666666666666</ele><time>2026-04-24T13:58:34.999Z</time></trkpt><trkpt lat="38.059947092198925" lon="15.844031941252359"><ele>1024.0</ele><time>2026-04-24T13:58:35.999Z</time></trkpt><trkpt lat="38.05997997925452" lon="15.844136007849816"><ele>1024.0</ele><time>2026-04-24T13:58:36.999Z</time></trkpt><trkpt lat="38.06000945310962" lon="15.844240452909057"><ele>1024.0</ele><time>2026-04-24T13:58:37.999Z</time></trkpt><trkpt lat="38.06003661937117" lon="15.844333561535793"><ele>1024.0</ele><time>2026-04-24T13:58:38.999Z</time></trkpt><trkpt lat="38.06006696399687" lon="15.8444772190909"><ele>1024.0</ele><time>2026-04-24T13:58:40.999Z</time></trkpt><trkpt lat="38.06007674276934" lon="15.844560580486915"><ele>1024.0</ele><time>2026-04-24T13:58:41.999Z</time></trkpt><trkpt lat="38.060018896452576" lon="15.84469577860157"><ele>1022.8333333333333</ele><time>2026-04-24T13:58:43.999Z</time></trkpt><trkpt lat="38.05996217740601" lon="15.844776774207624"><ele>1021.6666666666666</ele><time>2026-04-24T13:58:44.999Z</time></trkpt><trkpt lat="38.0599505269116" lon="15.84485543899335"><ele>1020.5</ele><time>2026-04-24T13:58:45.999Z</time></trkpt><trkpt lat="38.06003146705671" lon="15.844953875847697"><ele>1019.3333333333333</ele><time>2026-04-24T13:58:47.999Z</time></trkpt><trkpt lat="38.06011916447262" lon="15.84497601490472"><ele>1018.1666666666666</ele><time>2026-04-24T13:58:48.999Z</time></trkpt><trkpt lat="38.060211058414275" lon="15.845020192442485"><ele>1017.0</ele><time>2026-04-24T13:58:49.999Z</time></trkpt><trkpt lat="38.060265585071996" lon="15.845094027503725"><ele>1018.8333333333334</ele><time>2026-04-24T13:58:50.999Z</time></trkpt><trkpt lat="38.060313398127164" lon="15.845180698998215"><ele>1020.6666666666667</ele><time>2026-04-24T13:58:51.999Z</time></trkpt><trkpt lat="38.0603413645465" lon="15.84525801140426"><ele>1022.5</ele><time>2026-04-24T13:58:52.999Z</time></trkpt><trkpt lat="38.06037665778475" lon="15.845353534063504"><ele>1024.3333333333335</ele><time>2026-04-24T13:58:53.999Z</time></trkpt><trkpt lat="38.06042063617405" lon="15.845422137596625"><ele>1026.1666666666667</ele><time>2026-04-24T13:58:54.999Z</time></trkpt><trkpt lat="38.06045848711021" lon="15.84553176573931"><ele>1028.0</ele><time>2026-04-24T13:58:56.999Z</time></trkpt><trkpt lat="38.0603808639349" lon="15.84560881964597"><ele>1028.0</ele><time>2026-04-24T13:58:58.999Z</time></trkpt><trkpt lat="38.060307824578594" lon="15.84562499837488"><ele>1028.0</ele><time>2026-04-24T13:58:59.999Z</time></trkpt><trkpt lat="38.060215670354665" lon="15.845603076811779"><ele>1028.0</ele><time>2026-04-24T13:59:00.999Z</time></trkpt><trkpt lat="38.06011797761134" lon="15.845554817927344"><ele>1028.0</ele><time>2026-04-24T13:59:01.999Z</time></trkpt><trkpt lat="38.06000286427206" lon="15.84558457362029"><ele>1028.0</ele><time>2026-04-24T13:59:03.999Z</time></trkpt><trkpt lat="38.05995096296702" lon="15.845649899495719"><ele>1026.2</ele><time>2026-04-24T13:59:04.999Z</time></trkpt><trkpt lat="38.05990684594848" lon="15.845741164205156"><ele>1024.4</ele><time>2026-04-24T13:59:05.999Z</time></trkpt><trkpt lat="38.05987637397015" lon="15.845863122797804"><ele>1022.6000000000001</ele><time>2026-04-24T13:59:06.999Z</time></trkpt><trkpt lat="38.05983726166379" lon="15.84595158072393"><ele>1020.8000000000001</ele><time>2026-04-24T13:59:07.999Z</time></trkpt><trkpt lat="38.059719736419304" lon="15.846041396398977"><ele>1019.0</ele><time>2026-04-24T13:59:09.999Z</time></trkpt><trkpt lat="38.05964104159602" lon="15.846099172816652"><ele>1028.6000000000001</ele><time>2026-04-24T13:59:10.999Z</time></trkpt><trkpt lat="38.059572054943466" lon="15.846143666408825"><ele>1038.2</ele><time>2026-04-24T13:59:11.999Z</time></trkpt><trkpt lat="38.059479702108625" lon="15.846160851429833"><ele>1047.8000000000002</ele><time>2026-04-24T13:59:12.999Z</time></trkpt><trkpt lat="38.05937932284204" lon="15.846145991484685"><ele>1057.4</ele><time>2026-04-24T13:59:13.999Z</time></trkpt><trkpt lat="38.05927182557193" lon="15.846116505608743"><ele>1067.0</ele><time>2026-04-24T13:59:14.999Z</time></trkpt><trkpt lat="38.05918788724752" lon="15.846109190616462"><ele>1067.8333333333335</ele><time>2026-04-24T13:59:15.999Z</time></trkpt><trkpt lat="38.05909160967153" lon="15.846109835218241"><ele>1068.6666666666667</ele><time>2026-04-24T13:59:16.999Z</time></trkpt><trkpt lat="38.05902757572775" lon="15.846082213458574"><ele>1069.5</ele><time>2026-04-24T13:59:17.999Z</time></trkpt><trkpt lat="38.058972215834" lon="15.84600882249967"><ele>1070.3333333333333</ele><time>2026-04-24T13:59:18.999Z</time></trkpt><trkpt lat="38.05893212293709" lon="15.84590859304513"><ele>1071.1666666666665</ele><time>2026-04-24T13:59:19.999Z</time></trkpt><trkpt lat="38.05886181470248" lon="15.845822942208317"><ele>1072.0</ele><time>2026-04-24T13:59:21.999Z</time></trkpt><trkpt lat="38.058723891671676" lon="15.845860895117227"><ele>1072.0</ele><time>2026-04-24T13:59:23.999Z</time></trkpt><trkpt lat="38.05868880578673" lon="15.845934356879702"><ele>1072.0</ele><time>2026-04-24T13:59:24.999Z</time></trkpt><trkpt lat="38.05863569078699" lon="15.846060899982563"><ele>1072.0</ele><time>2026-04-24T13:59:25.999Z</time></trkpt><trkpt lat="38.05858609073221" lon="15.846134042461152"><ele>1072.0</ele><time>2026-04-24T13:59:26.999Z</time></trkpt><trkpt lat="38.0584808979368" lon="15.846154933113704"><ele>1072.0</ele><time>2026-04-24T13:59:29Z</time></trkpt><trkpt lat="38.05839314099148" lon="15.846099627845385"><ele>1067.8</ele><time>2026-04-24T13:59:31Z</time></trkpt><trkpt lat="38.05837089742538" lon="15.845911951063728"><ele>1063.6</ele><time>2026-04-24T13:59:33Z</time></trkpt><trkpt lat="38.05833262119061" lon="15.84582064241354"><ele>1059.3999999999999</ele><time>2026-04-24T13:59:34Z</time></trkpt><trkpt lat="38.058280387962014" lon="15.845750898456357"><ele>1055.2</ele><time>2026-04-24T13:59:35Z</time></trkpt><trkpt lat="38.058215815110444" lon="15.84570872867515"><ele>1051.0</ele><time>2026-04-24T13:59:36Z</time></trkpt><trkpt lat="38.058129970947235" lon="15.845674599869579"><ele>1051.0</ele><time>2026-04-24T13:59:37Z</time></trkpt><trkpt lat="38.058024436016986" lon="15.845657302653574"><ele>1051.0</ele><time>2026-04-24T13:59:38Z</time></trkpt><trkpt lat="38.05791743781909" lon="15.845652304374019"><ele>1051.0</ele><time>2026-04-24T13:59:39Z</time></trkpt><trkpt lat="38.05783077741884" lon="15.845613683435635"><ele>1051.0</ele><time>2026-04-24T13:59:40Z</time></trkpt><trkpt lat="38.05774607612748" lon="15.845529396947152"><ele>1051.0</ele><time>2026-04-24T13:59:41Z</time></trkpt><trkpt lat="38.057658848634816" lon="15.845436429027492"><ele>1051.0</ele><time>2026-04-24T13:59:42Z</time></trkpt><trkpt lat="38.05758472279306" lon="15.8453543889147"><ele>1051.0</ele><time>2026-04-24T13:59:43Z</time></trkpt><trkpt lat="38.05751845258085" lon="15.845279084031406"><ele>1051.0</ele><time>2026-04-24T13:59:44Z</time></trkpt><trkpt lat="38.057472248818236" lon="15.845187570171195"><ele>1051.0</ele><time>2026-04-24T13:59:45Z</time></trkpt><trkpt lat="38.057454133915975" lon="15.84504208280845"><ele>1051.0</ele><time>2026-04-24T13:59:46Z</time></trkpt><trkpt lat="38.05742824915621" lon="15.844884042732774"><ele>1046.8</ele><time>2026-04-24T13:59:47Z</time></trkpt><trkpt lat="38.05740747438884" lon="15.844738310961334"><ele>1042.6</ele><time>2026-04-24T13:59:48Z</time></trkpt><trkpt lat="38.057394789905196" lon="15.84462035282782"><ele>1038.4</ele><time>2026-04-24T13:59:49Z</time></trkpt><trkpt lat="38.05739426201522" lon="15.844515736660036"><ele>1034.2</ele><time>2026-04-24T13:59:50Z</time></trkpt><trkpt lat="38.057389898095586" lon="15.844423209773844"><ele>1030.0</ele><time>2026-04-24T13:59:51Z</time></trkpt><trkpt lat="38.0573271237766" lon="15.844279941044698"><ele>1030.0</ele><time>2026-04-24T13:59:53Z</time></trkpt><trkpt lat="38.05725526416365" lon="15.844228872071149"><ele>1030.0</ele><time>2026-04-24T13:59:54Z</time></trkpt><trkpt lat="38.057171008081404" lon="15.844174558711554"><ele>1030.0</ele><time>2026-04-24T13:59:55Z</time></trkpt><trkpt lat="38.057054742171076" lon="15.844170670956917"><ele>1030.0</ele><time>2026-04-24T13:59:57Z</time></trkpt><trkpt lat="38.05699405094251" lon="15.844211036941548"><ele>1030.0</ele><time>2026-04-24T13:59:58Z</time></trkpt><trkpt lat="38.056933982118636" lon="15.844300669488488"><ele>1030.0</ele><time>2026-04-24T13:59:59Z</time></trkpt><trkpt lat="38.056850782629176" lon="15.844348024236949"><ele>1030.0</ele><time>2026-04-24T14:00:00Z</time></trkpt><trkpt lat="38.05673522316723" lon="15.844365208357198"><ele>1030.0</ele><time>2026-04-24T14:00:01Z</time></trkpt><trkpt lat="38.056628972339645" lon="15.844390452769982"><ele>1030.0</ele><time>2026-04-24T14:00:02Z</time></trkpt><trkpt lat="38.05653202722075" lon="15.8444747421065"><ele>1030.0</ele><time>2026-04-24T14:00:04Z</time></trkpt><trkpt lat="38.05650719555199" lon="15.844611795116123"><ele>1030.4</ele><time>2026-04-24T14:00:06Z</time></trkpt><trkpt lat="38.05650264218939" lon="15.84473019079019"><ele>1030.8</ele><time>2026-04-24T14:00:06.999Z</time></trkpt><trkpt lat="38.05651429825059" lon="15.84485240039135"><ele>1031.2</ele><time>2026-04-24T14:00:07.999Z</time></trkpt><trkpt lat="38.0565201094271" lon="15.84496050831728"><ele>1031.6</ele><time>2026-04-24T14:00:08.999Z</time></trkpt><trkpt lat="38.056489244373914" lon="15.845067330162482"><ele>1032.0</ele><time>2026-04-24T14:00:09.999Z</time></trkpt><trkpt lat="38.056452734557986" lon="15.845164922165429"><ele>1032.0</ele><time>2026-04-24T14:00:10.999Z</time></trkpt><trkpt lat="38.05637352946862" lon="15.845238117908519"><ele>1032.0</ele><time>2026-04-24T14:00:12.999Z</time></trkpt><trkpt lat="38.05630225588516" lon="15.84527334419434"><ele>1032.0</ele><time>2026-04-24T14:00:13.999Z</time></trkpt><trkpt lat="38.056183004707854" lon="15.845322312144981"><ele>1032.0</ele><time>2026-04-24T14:00:14.999Z</time></trkpt><trkpt lat="38.056076016175" lon="15.845381173613642"><ele>1032.0</ele><time>2026-04-24T14:00:15.999Z</time></trkpt><trkpt lat="38.05601853174295" lon="15.845423942558076"><ele>1032.0</ele><time>2026-04-24T14:00:16.999Z</time></trkpt><trkpt lat="38.055970881093856" lon="15.845492685917309"><ele>1032.0</ele><time>2026-04-24T14:00:17.999Z</time></trkpt><trkpt lat="38.055934998727366" lon="15.845598051451107"><ele>1032.0</ele><time>2026-04-24T14:00:18.999Z</time></trkpt><trkpt lat="38.05591977441491" lon="15.845708599160133"><ele>1032.0</ele><time>2026-04-24T14:00:19.999Z</time></trkpt><trkpt lat="38.05590326545511" lon="15.845827026232927"><ele>1032.0</ele><time>2026-04-24T14:00:20.999Z</time></trkpt><trkpt lat="38.0558560636234" lon="15.845901425917196"><ele>1032.0</ele><time>2026-04-24T14:00:21.999Z</time></trkpt><trkpt lat="38.05579112859634" lon="15.845942525302826"><ele>1037.1666666666667</ele><time>2026-04-24T14:00:22.999Z</time></trkpt><trkpt lat="38.05571503524221" lon="15.845962547314452"><ele>1042.3333333333333</ele><time>2026-04-24T14:00:23.999Z</time></trkpt><trkpt lat="38.055638046618334" lon="15.845984117025393"><ele>1047.5</ele><time>2026-04-24T14:00:24.999Z</time></trkpt><trkpt lat="38.05555452919186" lon="15.846046711059405"><ele>1052.6666666666665</ele><time>2026-04-24T14:00:25.999Z</time></trkpt><trkpt lat="38.05547820783421" lon="15.84610702223225"><ele>1057.8333333333333</ele><time>2026-04-24T14:00:26.999Z</time></trkpt><trkpt lat="38.05540350898126" lon="15.846077113127397"><ele>1063.0</ele><time>2026-04-24T14:00:28.999Z</time></trkpt><trkpt lat="38.05535669687921" lon="15.846012218176018"><ele>1057.3333333333333</ele><time>2026-04-24T14:00:29.999Z</time></trkpt><trkpt lat="38.05531754197689" lon="15.845922564924097"><ele>1051.6666666666665</ele><time>2026-04-24T14:00:30.999Z</time></trkpt><trkpt lat="38.05529475067656" lon="15.845799700116515"><ele>1046.0</ele><time>2026-04-24T14:00:31.999Z</time></trkpt><trkpt lat="38.05526949693512" lon="15.845715576600437"><ele>1040.3333333333333</ele><time>2026-04-24T14:00:32.999Z</time></trkpt><trkpt lat="38.0552126228065" lon="15.845639131865182"><ele>1034.6666666666667</ele><time>2026-04-24T14:00:33.999Z</time></trkpt><trkpt lat="38.05515606930652" lon="15.84558864234235"><ele>1029.0</ele><time>2026-04-24T14:00:34.999Z</time></trkpt><trkpt lat="38.055054156142475" lon="15.845587895503261"><ele>1029.0</ele><time>2026-04-24T14:00:36.999Z</time></trkpt><trkpt lat="38.05499892364704" lon="15.845641145455193"><ele>1029.0</ele><time>2026-04-24T14:00:37.999Z</time></trkpt><trkpt lat="38.054938461714045" lon="15.845715222149627"><ele>1029.0</ele><time>2026-04-24T14:00:38.999Z</time></trkpt><trkpt lat="38.054889223571095" lon="15.845791584413277"><ele>1029.0</ele><time>2026-04-24T14:00:39.999Z</time></trkpt><trkpt lat="38.054854034252294" lon="15.845901874345634"><ele>1029.0</ele><time>2026-04-24T14:00:40.999Z</time></trkpt><trkpt lat="38.05480256846244" lon="15.846016480283636"><ele>1029.0</ele><time>2026-04-24T14:00:41.999Z</time></trkpt><trkpt lat="38.054751182498514" lon="15.84614485432167"><ele>1032.4</ele><time>2026-04-24T14:00:43.999Z</time></trkpt><trkpt lat="38.05467023909646" lon="15.84617650429681"><ele>1035.8000000000002</ele><time>2026-04-24T14:00:44.999Z</time></trkpt><trkpt lat="38.05455877747947" lon="15.846198226672154"><ele>1039.1999999999998</ele><time>2026-04-24T14:00:45.999Z</time></trkpt><trkpt lat="38.05446173476028" lon="15.84623815417522"><ele>1042.6</ele><time>2026-04-24T14:00:46.999Z</time></trkpt><trkpt lat="38.05440569345756" lon="15.846294913601106"><ele>1046.0</ele><time>2026-04-24T14:00:47.999Z</time></trkpt><trkpt lat="38.054334129543186" lon="15.846379426900603"><ele>1046.0</ele><time>2026-04-24T14:00:48.999Z</time></trkpt><trkpt lat="38.05423766310692" lon="15.846498110162857"><ele>1046.0</ele><time>2026-04-24T14:00:49.999Z</time></trkpt><trkpt lat="38.0541422185897" lon="15.846623027289757"><ele>1046.0</ele><time>2026-04-24T14:00:50.999Z</time></trkpt><trkpt lat="38.05405733148248" lon="15.846704113216791"><ele>1046.0</ele><time>2026-04-24T14:00:51.999Z</time></trkpt><trkpt lat="38.0539211017103" lon="15.846706329596595"><ele>1043.6</ele><time>2026-04-24T14:00:53.999Z</time></trkpt><trkpt lat="38.05382510200776" lon="15.8466888878577"><ele>1041.1999999999998</ele><time>2026-04-24T14:00:54.999Z</time></trkpt><trkpt lat="38.05373605677171" lon="15.846718616822889"><ele>1038.8000000000002</ele><time>2026-04-24T14:00:56.999Z</time></trkpt><trkpt lat="38.05367337632924" lon="15.846875706068321"><ele>1036.4</ele><time>2026-04-24T14:00:58.999Z</time></trkpt><trkpt lat="38.05360582135521" lon="15.846932065231643"><ele>1034.0</ele><time>2026-04-24T14:00:59.999Z</time></trkpt><trkpt lat="38.053530447792596" lon="15.846994392305081"><ele>1034.0</ele><time>2026-04-24T14:01:00.999Z</time></trkpt><trkpt lat="38.05345245532384" lon="15.847056727839528"><ele>1034.0</ele><time>2026-04-24T14:01:01.999Z</time></trkpt><trkpt lat="38.05337267725279" lon="15.847128932281217"><ele>1034.0</ele><time>2026-04-24T14:01:02.999Z</time></trkpt><trkpt lat="38.053319025245926" lon="15.847237762482857"><ele>1034.0</ele><time>2026-04-24T14:01:04.999Z</time></trkpt><trkpt lat="38.053365388812324" lon="15.847386624376853"><ele>1034.0</ele><time>2026-04-24T14:01:06.999Z</time></trkpt><trkpt lat="38.05340418103577" lon="15.847485434028053"><ele>1034.0</ele><time>2026-04-24T14:01:07.999Z</time></trkpt><trkpt lat="38.05342288817533" lon="15.847577340568687"><ele>1034.0</ele><time>2026-04-24T14:01:08.999Z</time></trkpt><trkpt lat="38.05342795310265" lon="15.847669579773438"><ele>1034.0</ele><time>2026-04-24T14:01:09.999Z</time></trkpt><trkpt lat="38.05341684767697" lon="15.847765598689548"><ele>1034.0</ele><time>2026-04-24T14:01:10.999Z</time></trkpt><trkpt lat="38.053414774615746" lon="15.847854839449834"><ele>1034.0</ele><time>2026-04-24T14:01:11.999Z</time></trkpt><trkpt lat="38.05344071701113" lon="15.847932813916247"><ele>1034.0</ele><time>2026-04-24T14:01:12.999Z</time></trkpt><trkpt lat="38.05348972833077" lon="15.84801060915314"><ele>1034.0</ele><time>2026-04-24T14:01:13.999Z</time></trkpt><trkpt lat="38.05355625043143" lon="15.848054385854137"><ele>1035.5</ele><time>2026-04-24T14:01:14.999Z</time></trkpt><trkpt lat="38.05362687243577" lon="15.848094784005589"><ele>1037.0</ele><time>2026-04-24T14:01:15.999Z</time></trkpt><trkpt lat="38.05366612650787" lon="15.848221216753505"><ele>1038.5</ele><time>2026-04-24T14:01:17.999Z</time></trkpt><trkpt lat="38.0536420842744" lon="15.848300915924371"><ele>1040.0</ele><time>2026-04-24T14:01:18.999Z</time></trkpt><trkpt lat="38.05360793884544" lon="15.848373943779295"><ele>1041.5</ele><time>2026-04-24T14:01:19.999Z</time></trkpt><trkpt lat="38.05356055325561" lon="15.848435218798999"><ele>1043.0</ele><time>2026-04-24T14:01:20.999Z</time></trkpt><trkpt lat="38.05349016131042" lon="15.848499913154567"><ele>1040.8</ele><time>2026-04-24T14:01:21.999Z</time></trkpt><trkpt lat="38.05341079647656" lon="15.848573231824455"><ele>1038.6</ele><time>2026-04-24T14:01:22.999Z</time></trkpt><trkpt lat="38.05333535081423" lon="15.848617015215709"><ele>1036.4</ele><time>2026-04-24T14:01:23.999Z</time></trkpt><trkpt lat="38.05324397598254" lon="15.848672807281787"><ele>1034.2</ele><time>2026-04-24T14:01:25.999Z</time></trkpt><trkpt lat="38.053240997501156" lon="15.848829568785353"><ele>1032.0</ele><time>2026-04-24T14:01:27.999Z</time></trkpt><trkpt lat="38.053252573545066" lon="15.848935709737495"><ele>1032.0</ele><time>2026-04-24T14:01:28.999Z</time></trkpt><trkpt lat="38.053280138690944" lon="15.849058020498195"><ele>1032.0</ele><time>2026-04-24T14:01:29.999Z</time></trkpt><trkpt lat="38.0533042814284" lon="15.849167888443857"><ele>1032.0</ele><time>2026-04-24T14:01:30.999Z</time></trkpt><trkpt lat="38.053323534687806" lon="15.849253594566218"><ele>1032.0</ele><time>2026-04-24T14:01:31.999Z</time></trkpt><trkpt lat="38.05334684381995" lon="15.849330430860668"><ele>1032.0</ele><time>2026-04-24T14:01:32.999Z</time></trkpt><trkpt lat="38.05332416739437" lon="15.849432830955145"><ele>1032.0</ele><time>2026-04-24T14:01:35Z</time></trkpt><trkpt lat="38.053190424126896" lon="15.849475288276512"><ele>1039.6</ele><time>2026-04-24T14:01:37Z</time></trkpt><trkpt lat="38.05309462615141" lon="15.8494700730058"><ele>1047.2</ele><time>2026-04-24T14:01:38Z</time></trkpt><trkpt lat="38.053017101204645" lon="15.849476351665842"><ele>1054.8</ele><time>2026-04-24T14:01:39Z</time></trkpt><trkpt lat="38.05293872639906" lon="15.849600657806663"><ele>1062.4</ele><time>2026-04-24T14:01:41Z</time></trkpt><trkpt lat="38.05290999660827" lon="15.849715867891991"><ele>1070.0</ele><time>2026-04-24T14:01:41.999Z</time></trkpt><trkpt lat="38.05285417079159" lon="15.849873110120507"><ele>1070.0</ele><time>2026-04-24T14:01:42.999Z</time></trkpt><trkpt lat="38.052806442081106" lon="15.850004236523397"><ele>1070.0</ele><time>2026-04-24T14:01:44Z</time></trkpt><trkpt lat="38.05276134031261" lon="15.850122953103316"><ele>1070.0</ele><time>2026-04-24T14:01:44.999Z</time></trkpt><trkpt lat="38.05271533023432" lon="15.850226905218266"><ele>1070.0</ele><time>2026-04-24T14:01:45.999Z</time></trkpt><trkpt lat="38.05268672267034" lon="15.850308202149895"><ele>1070.0</ele><time>2026-04-24T14:01:47Z</time></trkpt><trkpt lat="38.05268270980234" lon="15.85038953532799"><ele>1070.0</ele><time>2026-04-24T14:01:47.999Z</time></trkpt><trkpt lat="38.0526571300642" lon="15.85050264343955"><ele>1081.0</ele><time>2026-04-24T14:01:49.999Z</time></trkpt><trkpt lat="38.05247559292816" lon="15.850485435722057"><ele>1092.0</ele><time>2026-04-24T14:05:48Z</time></trkpt><trkpt lat="38.05238776593421" lon="15.85039244945848"><ele>1103.0</ele><time>2026-04-24T14:05:50Z</time></trkpt><trkpt lat="38.05233169311046" lon="15.850325345810766"><ele>1114.0</ele><time>2026-04-24T14:05:51Z</time></trkpt><trkpt lat="38.052260559684235" lon="15.85025636399979"><ele>1116.6666666666665</ele><time>2026-04-24T14:05:52Z</time></trkpt><trkpt lat="38.05217775015262" lon="15.85021804141919"><ele>1119.3333333333333</ele><time>2026-04-24T14:05:53Z</time></trkpt><trkpt lat="38.052082766425585" lon="15.850209176685468"><ele>1122.0</ele><time>2026-04-24T14:05:54Z</time></trkpt><trkpt lat="38.051986964794615" lon="15.850196461590242"><ele>1124.6666666666667</ele><time>2026-04-24T14:05:55Z</time></trkpt><trkpt lat="38.05192619402968" lon="15.850161609309204"><ele>1127.3333333333335</ele><time>2026-04-24T14:05:56Z</time></trkpt><trkpt lat="38.05187436946181" lon="15.850052993892122"><ele>1130.0</ele><time>2026-04-24T14:05:57Z</time></trkpt><trkpt lat="38.05177498676134" lon="15.849923110221866"><ele>1124.25</ele><time>2026-04-24T14:05:58Z</time></trkpt><trkpt lat="38.05164916387368" lon="15.849782286314591"><ele>1118.5</ele><time>2026-04-24T14:05:59Z</time></trkpt><trkpt lat="38.051545758862254" lon="15.849647345423232"><ele>1112.75</ele><time>2026-04-24T14:06:00Z</time></trkpt><trkpt lat="38.05147808422238" lon="15.849545740347292"><ele>1107.0</ele><time>2026-04-24T14:06:01Z</time></trkpt><trkpt lat="38.0514348277469" lon="15.849475175218368"><ele>1107.0</ele><time>2026-04-24T14:06:02Z</time></trkpt><trkpt lat="38.05137088449517" lon="15.849445790306778"><ele>1107.0</ele><time>2026-04-24T14:06:03Z</time></trkpt><trkpt lat="38.05128517100213" lon="15.849447960930501"><ele>1107.0</ele><time>2026-04-24T14:06:04Z</time></trkpt><trkpt lat="38.0511804854106" lon="15.849476132544087"><ele>1107.0</ele><time>2026-04-24T14:06:05Z</time></trkpt><trkpt lat="38.05106539916493" lon="15.849546618780357"><ele>1107.0</ele><time>2026-04-24T14:06:06Z</time></trkpt><trkpt lat="38.0509620029549" lon="15.849623835583358"><ele>1107.0</ele><time>2026-04-24T14:06:07Z</time></trkpt><trkpt lat="38.05089114962039" lon="15.849661154337047"><ele>1107.0</ele><time>2026-04-24T14:06:08Z</time></trkpt><trkpt lat="38.050796009349085" lon="15.849541803790206"><ele>1107.0</ele><time>2026-04-24T14:06:10Z</time></trkpt><trkpt lat="38.05072298111092" lon="15.849409132552852"><ele>1107.0</ele><time>2026-04-24T14:06:11Z</time></trkpt><trkpt lat="38.050606610593995" lon="15.849259440402733"><ele>1108.5</ele><time>2026-04-24T14:06:12Z</time></trkpt><trkpt lat="38.050486059224376" lon="15.84911057418334"><ele>1110.0</ele><time>2026-04-24T14:06:13Z</time></trkpt><trkpt lat="38.05040226613085" lon="15.848970851655917"><ele>1111.5</ele><time>2026-04-24T14:06:14Z</time></trkpt><trkpt lat="38.05034722423647" lon="15.848826160134365"><ele>1113.0</ele><time>2026-04-24T14:06:15Z</time></trkpt><trkpt lat="38.050312707834344" lon="15.848636692400168"><ele>1108.4</ele><time>2026-04-24T14:06:16Z</time></trkpt><trkpt lat="38.0502943591768" lon="15.848452011775004"><ele>1103.8</ele><time>2026-04-24T14:06:17Z</time></trkpt><trkpt lat="38.05029298333484" lon="15.84830373621563"><ele>1099.2</ele><time>2026-04-24T14:06:18Z</time></trkpt><trkpt lat="38.05031423330095" lon="15.84821833146008"><ele>1094.6</ele><time>2026-04-24T14:06:19Z</time></trkpt><trkpt lat="38.05033848323904" lon="15.848122878628184"><ele>1090.0</ele><time>2026-04-24T14:06:20Z</time></trkpt><trkpt lat="38.0502394776183" lon="15.847955298494977"><ele>1090.0</ele><time>2026-04-24T14:06:22Z</time></trkpt><trkpt lat="38.05012354917701" lon="15.847844108160894"><ele>1090.0</ele><time>2026-04-24T14:06:23Z</time></trkpt><trkpt lat="38.04997292898463" lon="15.84772487923209"><ele>1090.0</ele><time>2026-04-24T14:06:24Z</time></trkpt><trkpt lat="38.0498572450626" lon="15.84761987852388"><ele>1093.0</ele><time>2026-04-24T14:06:25Z</time></trkpt><trkpt lat="38.04978685624431" lon="15.847534951962409"><ele>1096.0</ele><time>2026-04-24T14:06:26Z</time></trkpt><trkpt lat="38.04973567492617" lon="15.847429469340067"><ele>1099.0</ele><time>2026-04-24T14:06:27Z</time></trkpt><trkpt lat="38.04971016450147" lon="15.847291179047271"><ele>1102.0</ele><time>2026-04-24T14:06:28Z</time></trkpt><trkpt lat="38.04970775585995" lon="15.84712316038111"><ele>1105.0</ele><time>2026-04-24T14:06:29Z</time></trkpt><trkpt lat="38.04970335014819" lon="15.847011235056025"><ele>1105.0</ele><time>2026-04-24T14:06:30Z</time></trkpt><trkpt lat="38.049683641826384" lon="15.846914064265345"><ele>1105.0</ele><time>2026-04-24T14:06:31Z</time></trkpt><trkpt lat="38.04962837216102" lon="15.846844177478147"><ele>1105.0</ele><time>2026-04-24T14:06:32Z</time></trkpt><trkpt lat="38.049531114164274" lon="15.846774264033582"><ele>1105.0</ele><time>2026-04-24T14:06:33Z</time></trkpt><trkpt lat="38.04941544792105" lon="15.846716574191305"><ele>1105.0</ele><time>2026-04-24T14:06:34Z</time></trkpt><trkpt lat="38.049286277828756" lon="15.846632909614012"><ele>1102.0</ele><time>2026-04-24T14:06:35Z</time></trkpt><trkpt lat="38.049208085707036" lon="15.846510847526654"><ele>1099.0</ele><time>2026-04-24T14:06:36Z</time></trkpt><trkpt lat="38.04912508389985" lon="15.846407799860094"><ele>1096.0</ele><time>2026-04-24T14:06:37Z</time></trkpt><trkpt lat="38.04906594343905" lon="15.846317889646201"><ele>1093.0</ele><time>2026-04-24T14:06:38Z</time></trkpt><trkpt lat="38.04901904338995" lon="15.846253008961078"><ele>1090.0</ele><time>2026-04-24T14:06:39Z</time></trkpt><trkpt lat="38.04891032841929" lon="15.846130506321522"><ele>1090.0</ele><time>2026-04-24T14:06:40Z</time></trkpt><trkpt lat="38.04881036563724" lon="15.846074144028023"><ele>1090.0</ele><time>2026-04-24T14:06:41Z</time></trkpt><trkpt lat="38.04872601062872" lon="15.846015609701515"><ele>1090.0</ele><time>2026-04-24T14:06:42Z</time></trkpt><trkpt lat="38.04865525521415" lon="15.845965877801362"><ele>1090.0</ele><time>2026-04-24T14:06:43Z</time></trkpt><trkpt lat="38.048550515758265" lon="15.845965756733918"><ele>1090.0</ele><time>2026-04-24T14:06:45Z</time></trkpt><trkpt lat="38.04847989810025" lon="15.846012863056153"><ele>1090.0</ele><time>2026-04-24T14:06:46Z</time></trkpt><trkpt lat="38.04834904775891" lon="15.846103495975399"><ele>1090.0</ele><time>2026-04-24T14:06:47Z</time></trkpt><trkpt lat="38.04821683750745" lon="15.846157700504628"><ele>1090.0</ele><time>2026-04-24T14:06:48Z</time></trkpt><trkpt lat="38.04813423647973" lon="15.846200287032513"><ele>1090.0</ele><time>2026-04-24T14:06:49Z</time></trkpt><trkpt lat="38.048044849925695" lon="15.846251042455693"><ele>1085.6666666666665</ele><time>2026-04-24T14:06:50Z</time></trkpt><trkpt lat="38.04795380439407" lon="15.84626694286099"><ele>1081.3333333333333</ele><time>2026-04-24T14:06:51Z</time></trkpt><trkpt lat="38.04786542340194" lon="15.846275815740867"><ele>1077.0</ele><time>2026-04-24T14:06:52Z</time></trkpt><trkpt lat="38.047776848496596" lon="15.846262365933262"><ele>1072.6666666666667</ele><time>2026-04-24T14:06:53Z</time></trkpt><trkpt lat="38.0476857211472" lon="15.846242579257389"><ele>1068.3333333333335</ele><time>2026-04-24T14:06:54Z</time></trkpt><trkpt lat="38.047617766430136" lon="15.846255494102673"><ele>1064.0</ele><time>2026-04-24T14:06:55Z</time></trkpt><trkpt lat="38.047524476351924" lon="15.846375531016035"><ele>1064.0</ele><time>2026-04-24T14:06:57Z</time></trkpt><trkpt lat="38.04748055440725" lon="15.846487615755587"><ele>1064.0</ele><time>2026-04-24T14:06:58Z</time></trkpt><trkpt lat="38.04743276272169" lon="15.846625276408453"><ele>1064.0</ele><time>2026-04-24T14:06:59Z</time></trkpt><trkpt lat="38.047359201224275" lon="15.846792456199873"><ele>1064.0</ele><time>2026-04-24T14:07:00Z</time></trkpt><trkpt lat="38.04729451916653" lon="15.84695703749449"><ele>1062.3333333333335</ele><time>2026-04-24T14:07:01Z</time></trkpt><trkpt lat="38.04726551404154" lon="15.847072576783125"><ele>1060.6666666666667</ele><time>2026-04-24T14:07:02Z</time></trkpt><trkpt lat="38.04723602829083" lon="15.847175751027237"><ele>1059.0</ele><time>2026-04-24T14:07:03Z</time></trkpt><trkpt lat="38.04721509809706" lon="15.847269078868628"><ele>1057.3333333333333</ele><time>2026-04-24T14:07:04Z</time></trkpt><trkpt lat="38.04719022969407" lon="15.847385286736204"><ele>1055.6666666666665</ele><time>2026-04-24T14:07:05Z</time></trkpt><trkpt lat="38.04716383524904" lon="15.847473674277534"><ele>1054.0</ele><time>2026-04-24T14:07:06Z</time></trkpt><trkpt lat="38.04715429000814" lon="15.84755421137214"><ele>1059.6666666666665</ele><time>2026-04-24T14:07:07Z</time></trkpt><trkpt lat="38.04714552444141" lon="15.847644828421089"><ele>1065.3333333333333</ele><time>2026-04-24T14:07:08Z</time></trkpt><trkpt lat="38.04708520427369" lon="15.847697680757824"><ele>1071.0</ele><time>2026-04-24T14:07:09Z</time></trkpt><trkpt lat="38.0469954697222" lon="15.847717711279735"><ele>1076.6666666666667</ele><time>2026-04-24T14:07:10Z</time></trkpt><trkpt lat="38.04690062000707" lon="15.847786565236987"><ele>1082.3333333333335</ele><time>2026-04-24T14:07:11Z</time></trkpt><trkpt lat="38.04682045225334" lon="15.84785153567105"><ele>1088.0</ele><time>2026-04-24T14:07:12Z</time></trkpt><trkpt lat="38.04675081283709" lon="15.847887656636955"><ele>1088.0</ele><time>2026-04-24T14:07:13Z</time></trkpt><trkpt lat="38.04667951185285" lon="15.847892460861146"><ele>1088.0</ele><time>2026-04-24T14:07:14Z</time></trkpt><trkpt lat="38.04659805668021" lon="15.847879765367814"><ele>1088.0</ele><time>2026-04-24T14:07:15Z</time></trkpt><trkpt lat="38.04650686767306" lon="15.84785526739554"><ele>1088.0</ele><time>2026-04-24T14:07:16Z</time></trkpt><trkpt lat="38.04642052783556" lon="15.84786215551666"><ele>1088.0</ele><time>2026-04-24T14:07:17Z</time></trkpt><trkpt lat="38.04633368293648" lon="15.847902129624018"><ele>1088.0</ele><time>2026-04-24T14:07:18Z</time></trkpt><trkpt lat="38.046264505591004" lon="15.847965965638869"><ele>1085.4</ele><time>2026-04-24T14:07:19Z</time></trkpt><trkpt lat="38.04617176200131" lon="15.848019393690619"><ele>1082.8</ele><time>2026-04-24T14:07:20Z</time></trkpt><trkpt lat="38.04608490953171" lon="15.848011715157686"><ele>1080.2</ele><time>2026-04-24T14:07:21Z</time></trkpt><trkpt lat="38.04599785927988" lon="15.847992059232583"><ele>1077.6</ele><time>2026-04-24T14:07:22Z</time></trkpt><trkpt lat="38.04589953367598" lon="15.847978222033117"><ele>1075.0</ele><time>2026-04-24T14:07:23Z</time></trkpt><trkpt lat="38.045809863778864" lon="15.847987898680952"><ele>1073.0</ele><time>2026-04-24T14:07:24Z</time></trkpt><trkpt lat="38.04570450457662" lon="15.84801721655115"><ele>1071.0</ele><time>2026-04-24T14:07:24.999Z</time></trkpt><trkpt lat="38.045586603399734" lon="15.848043849271594"><ele>1069.0</ele><time>2026-04-24T14:07:25.999Z</time></trkpt><trkpt lat="38.04548309656662" lon="15.848062442259355"><ele>1067.0</ele><time>2026-04-24T14:07:26.999Z</time></trkpt><trkpt lat="38.04538582422321" lon="15.848077770866889"><ele>1065.0</ele><time>2026-04-24T14:07:27.999Z</time></trkpt><trkpt lat="38.04529235900638" lon="15.848106524584422"><ele>1065.0</ele><time>2026-04-24T14:07:28.999Z</time></trkpt><trkpt lat="38.045179340247344" lon="15.848141378803446"><ele>1065.0</ele><time>2026-04-24T14:07:29.999Z</time></trkpt><trkpt lat="38.04506202115705" lon="15.84817015362732"><ele>1065.0</ele><time>2026-04-24T14:07:30.999Z</time></trkpt><trkpt lat="38.04492596264691" lon="15.848203636740982"><ele>1065.0</ele><time>2026-04-24T14:07:31.999Z</time></trkpt><trkpt lat="38.0448070463808" lon="15.848214102825825"><ele>1064.0</ele><time>2026-04-24T14:07:32.999Z</time></trkpt><trkpt lat="38.044695275384186" lon="15.848221744553838"><ele>1063.0</ele><time>2026-04-24T14:07:33.999Z</time></trkpt><trkpt lat="38.044573689831395" lon="15.848258176325684"><ele>1062.0</ele><time>2026-04-24T14:07:34.999Z</time></trkpt><trkpt lat="38.044470292382755" lon="15.84831181853418"><ele>1061.0</ele><time>2026-04-24T14:07:35.999Z</time></trkpt><trkpt lat="38.04438661637977" lon="15.84833860142468"><ele>1060.0</ele><time>2026-04-24T14:07:36.999Z</time></trkpt><trkpt lat="38.044293736826994" lon="15.848308872372685"><ele>1060.0</ele><time>2026-04-24T14:07:37.999Z</time></trkpt><trkpt lat="38.04419470638116" lon="15.848264716082447"><ele>1060.0</ele><time>2026-04-24T14:07:38.999Z</time></trkpt><trkpt lat="38.04409466104325" lon="15.848206265250514"><ele>1060.0</ele><time>2026-04-24T14:07:39.999Z</time></trkpt><trkpt lat="38.04398377994238" lon="15.848170876469865"><ele>1060.0</ele><time>2026-04-24T14:07:40.999Z</time></trkpt><trkpt lat="38.043897586643915" lon="15.8481592698372"><ele>1060.0</ele><time>2026-04-24T14:07:41.999Z</time></trkpt><trkpt lat="38.04381440485495" lon="15.848189027824306"><ele>1058.4</ele><time>2026-04-24T14:07:42.999Z</time></trkpt><trkpt lat="38.04375408303728" lon="15.848248272542609"><ele>1056.8</ele><time>2026-04-24T14:07:43.999Z</time></trkpt><trkpt lat="38.04370221184995" lon="15.848326546583731"><ele>1055.2</ele><time>2026-04-24T14:07:44.999Z</time></trkpt><trkpt lat="38.04367340391822" lon="15.848435498479574"><ele>1053.6</ele><time>2026-04-24T14:07:45.999Z</time></trkpt><trkpt lat="38.04365362099077" lon="15.848605952054175"><ele>1052.0</ele><time>2026-04-24T14:07:46.999Z</time></trkpt><trkpt lat="38.04359949783117" lon="15.848732678483579"><ele>1052.0</ele><time>2026-04-24T14:07:47.999Z</time></trkpt><trkpt lat="38.04351960369505" lon="15.84882295242585"><ele>1052.0</ele><time>2026-04-24T14:07:48.999Z</time></trkpt><trkpt lat="38.04344935604537" lon="15.848897190848117"><ele>1052.0</ele><time>2026-04-24T14:07:49.999Z</time></trkpt><trkpt lat="38.04339337605551" lon="15.84898910525163"><ele>1052.0</ele><time>2026-04-24T14:07:51Z</time></trkpt><trkpt lat="38.04334618780211" lon="15.84908486999648"><ele>1052.0</ele><time>2026-04-24T14:07:52Z</time></trkpt><trkpt lat="38.043302457460676" lon="15.849165400448017"><ele>1051.0</ele><time>2026-04-24T14:07:53Z</time></trkpt><trkpt lat="38.043269359874365" lon="15.84928359923782"><ele>1050.0</ele><time>2026-04-24T14:07:55Z</time></trkpt><trkpt lat="38.04336407029155" lon="15.849435531287247"><ele>1049.0</ele><time>2026-04-24T14:07:57Z</time></trkpt><trkpt lat="38.043438395794055" lon="15.849515341064063"><ele>1048.0</ele><time>2026-04-24T14:07:58Z</time></trkpt><trkpt lat="38.043517629499256" lon="15.849554297322051"><ele>1047.0</ele><time>2026-04-24T14:07:59Z</time></trkpt><trkpt lat="38.043584180160536" lon="15.849535706713066"><ele>1047.0</ele><time>2026-04-24T14:08:00Z</time></trkpt><trkpt lat="38.04365836000124" lon="15.849479560927335"><ele>1047.0</ele><time>2026-04-24T14:08:01Z</time></trkpt><trkpt lat="38.043726796437426" lon="15.849399793712497"><ele>1047.0</ele><time>2026-04-24T14:08:02Z</time></trkpt><trkpt lat="38.04378656716059" lon="15.849334569132157"><ele>1047.0</ele><time>2026-04-24T14:08:03Z</time></trkpt><trkpt lat="38.04387034600897" lon="15.84930067404711"><ele>1047.0</ele><time>2026-04-24T14:08:04Z</time></trkpt><trkpt lat="38.04397265263245" lon="15.84930035586595"><ele>1047.0</ele><time>2026-04-24T14:08:05Z</time></trkpt><trkpt lat="38.04406051200192" lon="15.849328577498236"><ele>1045.8</ele><time>2026-04-24T14:08:06Z</time></trkpt><trkpt lat="38.0441335368203" lon="15.849394946987749"><ele>1044.6</ele><time>2026-04-24T14:08:07Z</time></trkpt><trkpt lat="38.04420527630541" lon="15.849473869442104"><ele>1043.3999999999999</ele><time>2026-04-24T14:08:08Z</time></trkpt><trkpt lat="38.04427653768961" lon="15.849541555102963"><ele>1042.2</ele><time>2026-04-24T14:08:09Z</time></trkpt><trkpt lat="38.04438023608835" lon="15.849502106996683"><ele>1041.0</ele><time>2026-04-24T14:08:11Z</time></trkpt><trkpt lat="38.044428722328796" lon="15.849425438989531"><ele>1041.0</ele><time>2026-04-24T14:08:12Z</time></trkpt><trkpt lat="38.044481583141" lon="15.849336875502017"><ele>1041.0</ele><time>2026-04-24T14:08:13Z</time></trkpt><trkpt lat="38.04452634145188" lon="15.849278921222863"><ele>1041.0</ele><time>2026-04-24T14:08:14Z</time></trkpt><trkpt lat="38.04466725284106" lon="15.849312623899893"><ele>1041.0</ele><time>2026-04-24T14:08:16Z</time></trkpt><trkpt lat="38.04476350028196" lon="15.849376470261973"><ele>1041.0</ele><time>2026-04-24T14:08:17Z</time></trkpt><trkpt lat="38.04487979837218" lon="15.849471303219683"><ele>1042.2</ele><time>2026-04-24T14:08:18Z</time></trkpt><trkpt lat="38.044993492421305" lon="15.849536303345136"><ele>1043.3999999999999</ele><time>2026-04-24T14:08:19Z</time></trkpt><trkpt lat="38.04508770136739" lon="15.849580524354552"><ele>1044.6</ele><time>2026-04-24T14:08:20Z</time></trkpt><trkpt lat="38.04517435582799" lon="15.849648740124668"><ele>1045.8</ele><time>2026-04-24T14:08:21Z</time></trkpt><trkpt lat="38.04523972070495" lon="15.849741603118439"><ele>1047.0</ele><time>2026-04-24T14:08:22Z</time></trkpt><trkpt lat="38.04530079622956" lon="15.849793792550773"><ele>1047.0</ele><time>2026-04-24T14:08:23Z</time></trkpt><trkpt lat="38.045367584204506" lon="15.849805835665421"><ele>1047.0</ele><time>2026-04-24T14:08:24Z</time></trkpt><trkpt lat="38.04547759055261" lon="15.849813316936942"><ele>1047.0</ele><time>2026-04-24T14:08:25Z</time></trkpt><trkpt lat="38.04560566086623" lon="15.849807958345204"><ele>1047.0</ele><time>2026-04-24T14:08:26Z</time></trkpt><trkpt lat="38.045710621782455" lon="15.84979639249536"><ele>1047.0</ele><time>2026-04-24T14:08:27Z</time></trkpt><trkpt lat="38.045794961447875" lon="15.84984618711529"><ele>1048.0</ele><time>2026-04-24T14:08:28Z</time></trkpt><trkpt lat="38.04589709805591" lon="15.849928212559913"><ele>1049.0</ele><time>2026-04-24T14:08:29Z</time></trkpt><trkpt lat="38.04600457815663" lon="15.850010353086416"><ele>1050.0</ele><time>2026-04-24T14:08:30Z</time></trkpt><trkpt lat="38.046090525010726" lon="15.85006666125683"><ele>1051.0</ele><time>2026-04-24T14:08:31Z</time></trkpt><trkpt lat="38.04618207362154" lon="15.850121193291415"><ele>1052.0</ele><time>2026-04-24T14:08:32Z</time></trkpt><trkpt lat="38.04626027357428" lon="15.850175155919981"><ele>1052.0</ele><time>2026-04-24T14:08:33Z</time></trkpt><trkpt lat="38.04632534139739" lon="15.85023493080342"><ele>1052.0</ele><time>2026-04-24T14:08:34Z</time></trkpt><trkpt lat="38.04639294880316" lon="15.850348616143517"><ele>1052.0</ele><time>2026-04-24T14:08:36Z</time></trkpt><trkpt lat="38.046339670009466" lon="15.850501918101795"><ele>1052.0</ele><time>2026-04-24T14:08:38Z</time></trkpt><trkpt lat="38.04626189691412" lon="15.850544207087552"><ele>1052.0</ele><time>2026-04-24T14:08:39Z</time></trkpt><trkpt lat="38.046162619764395" lon="15.850566286187636"><ele>1052.0</ele><time>2026-04-24T14:08:40Z</time></trkpt><trkpt lat="38.046076693302275" lon="15.850602288695702"><ele>1052.0</ele><time>2026-04-24T14:08:41Z</time></trkpt><trkpt lat="38.04600256665111" lon="15.850646867125532"><ele>1052.0</ele><time>2026-04-24T14:08:42Z</time></trkpt><trkpt lat="38.045929796220356" lon="15.850710724402617"><ele>1052.0</ele><time>2026-04-24T14:08:43Z</time></trkpt><trkpt lat="38.04584763841435" lon="15.850803700057853"><ele>1052.0</ele><time>2026-04-24T14:08:44Z</time></trkpt><trkpt lat="38.045744957678735" lon="15.850910141699682"><ele>1048.4</ele><time>2026-04-24T14:08:45Z</time></trkpt><trkpt lat="38.04565414086158" lon="15.850998078243101"><ele>1044.8000000000002</ele><time>2026-04-24T14:08:46Z</time></trkpt><trkpt lat="38.04559948422171" lon="15.851063530113235"><ele>1041.2</ele><time>2026-04-24T14:08:47Z</time></trkpt><trkpt lat="38.04552881921086" lon="15.8511495177091"><ele>1037.6000000000001</ele><time>2026-04-24T14:08:49Z</time></trkpt><trkpt lat="38.04550363892079" lon="15.851229489953708"><ele>1034.0</ele><time>2026-04-24T14:08:51Z</time></trkpt><trkpt lat="38.045461660938074" lon="15.851349136714152"><ele>1034.0</ele><time>2026-04-24T14:08:56Z</time></trkpt><trkpt lat="38.04545061689686" lon="15.851456483095271"><ele>1034.0</ele><time>2026-04-24T14:10:21Z</time></trkpt><trkpt lat="38.045467666044615" lon="15.851572932334696"><ele>1034.0</ele><time>2026-04-24T14:10:23Z</time></trkpt><trkpt lat="38.04545980857967" lon="15.851659990715318"><ele>1034.0</ele><time>2026-04-24T14:10:24Z</time></trkpt><trkpt lat="38.045443651560824" lon="15.851758711886646"><ele>1034.0</ele><time>2026-04-24T14:10:25Z</time></trkpt><trkpt lat="38.04543803605292" lon="15.851849599768581"><ele>1034.0</ele><time>2026-04-24T14:10:26Z</time></trkpt><trkpt lat="38.04550249446174" lon="15.851976116897358"><ele>1034.4</ele><time>2026-04-24T14:10:28Z</time></trkpt><trkpt lat="38.045557397703504" lon="15.852043808718372"><ele>1034.8000000000002</ele><time>2026-04-24T14:10:29Z</time></trkpt><trkpt lat="38.04565110652526" lon="15.852074118170384"><ele>1035.1999999999998</ele><time>2026-04-24T14:10:30Z</time></trkpt><trkpt lat="38.04574167896484" lon="15.852136267994744"><ele>1035.6</ele><time>2026-04-24T14:10:31Z</time></trkpt><trkpt lat="38.04582874126556" lon="15.852210727333626"><ele>1036.0</ele><time>2026-04-24T14:10:32Z</time></trkpt><trkpt lat="38.04590307493052" lon="15.852260187885017"><ele>1039.25</ele><time>2026-04-24T14:10:33Z</time></trkpt><trkpt lat="38.045991419224954" lon="15.852269993707019"><ele>1042.5</ele><time>2026-04-24T14:10:34Z</time></trkpt><trkpt lat="38.04609479365148" lon="15.852236468500351"><ele>1045.75</ele><time>2026-04-24T14:10:35Z</time></trkpt><trkpt lat="38.0462267361026" lon="15.852189853975666"><ele>1049.0</ele><time>2026-04-24T14:10:36Z</time></trkpt><trkpt lat="38.04639301473262" lon="15.85215288173526"><ele>1049.0</ele><time>2026-04-24T14:10:37Z</time></trkpt><trkpt lat="38.04656433701221" lon="15.852147006036109"><ele>1049.0</ele><time>2026-04-24T14:10:38Z</time></trkpt><trkpt lat="38.04669415305924" lon="15.852149395659849"><ele>1049.0</ele><time>2026-04-24T14:10:39Z</time></trkpt><trkpt lat="38.04682022431046" lon="15.852141281852647"><ele>1049.0</ele><time>2026-04-24T14:10:40Z</time></trkpt><trkpt lat="38.04695385155044" lon="15.852178249783869"><ele>1052.25</ele><time>2026-04-24T14:10:41Z</time></trkpt><trkpt lat="38.04709276889954" lon="15.852222980842315"><ele>1055.5</ele><time>2026-04-24T14:10:42Z</time></trkpt><trkpt lat="38.04723133160491" lon="15.852281641980364"><ele>1058.75</ele><time>2026-04-24T14:10:43Z</time></trkpt><trkpt lat="38.04736307588446" lon="15.852355633264796"><ele>1062.0</ele><time>2026-04-24T14:10:44Z</time></trkpt><trkpt lat="38.04748322790576" lon="15.852414165619466"><ele>1065.0</ele><time>2026-04-24T14:10:45Z</time></trkpt><trkpt lat="38.047596522849034" lon="15.85243738912322"><ele>1068.0</ele><time>2026-04-24T14:10:46Z</time></trkpt><trkpt lat="38.047709460533866" lon="15.8524170824712"><ele>1071.0</ele><time>2026-04-24T14:10:47Z</time></trkpt><trkpt lat="38.047815070293204" lon="15.85236145318789"><ele>1074.0</ele><time>2026-04-24T14:10:48Z</time></trkpt><trkpt lat="38.04790640500718" lon="15.852337140796399"><ele>1077.0</ele><time>2026-04-24T14:10:49Z</time></trkpt><trkpt lat="38.0479794556936" lon="15.85236816605206"><ele>1077.0</ele><time>2026-04-24T14:10:50Z</time></trkpt><trkpt lat="38.048028862176764" lon="15.852444118436772"><ele>1077.0</ele><time>2026-04-24T14:10:51Z</time></trkpt><trkpt lat="38.048060115708104" lon="15.852562097340416"><ele>1077.0</ele><time>2026-04-24T14:10:52Z</time></trkpt><trkpt lat="38.048089344194494" lon="15.852718072483652"><ele>1077.0</ele><time>2026-04-24T14:10:53Z</time></trkpt><trkpt lat="38.04813447784657" lon="15.852863082332863"><ele>1077.0</ele><time>2026-04-24T14:10:54Z</time></trkpt><trkpt lat="38.04820659735685" lon="15.852975719348064"><ele>1077.3333333333333</ele><time>2026-04-24T14:10:55Z</time></trkpt><trkpt lat="38.048283598413065" lon="15.853028321716666"><ele>1077.6666666666667</ele><time>2026-04-24T14:10:56Z</time></trkpt><trkpt lat="38.04836217685266" lon="15.853027584311551"><ele>1078.0</ele><time>2026-04-24T14:10:57Z</time></trkpt><trkpt lat="38.04843141007848" lon="15.853016209976653"><ele>1078.3333333333335</ele><time>2026-04-24T14:10:58Z</time></trkpt><trkpt lat="38.04847194616867" lon="15.852940854638659"><ele>1078.6666666666667</ele><time>2026-04-24T14:10:59Z</time></trkpt><trkpt lat="38.048463664204576" lon="15.85282243842405"><ele>1079.0</ele><time>2026-04-24T14:11:00Z</time></trkpt><trkpt lat="38.04837059105923" lon="15.852736670282694"><ele>1079.0</ele><time>2026-04-24T14:11:01Z</time></trkpt><trkpt lat="38.04833022784245" lon="15.85264144018188"><ele>1079.0</ele><time>2026-04-24T14:11:02Z</time></trkpt><trkpt lat="38.04831259981986" lon="15.852526120115217"><ele>1079.0</ele><time>2026-04-24T14:11:03Z</time></trkpt><trkpt lat="38.04835707323604" lon="15.852379342508685"><ele>1079.0</ele><time>2026-04-24T14:11:04Z</time></trkpt><trkpt lat="38.04835953267847" lon="15.85221184387896"><ele>1079.0</ele><time>2026-04-24T14:11:05Z</time></trkpt><trkpt lat="38.0483313038753" lon="15.852060781057352"><ele>1078.5</ele><time>2026-04-24T14:11:05.999Z</time></trkpt><trkpt lat="38.048241287157836" lon="15.85192972743301"><ele>1078.0</ele><time>2026-04-24T14:11:06.999Z</time></trkpt><trkpt lat="38.04815955939106" lon="15.851794044220929"><ele>1077.5</ele><time>2026-04-24T14:11:07.999Z</time></trkpt><trkpt lat="38.04810097976458" lon="15.851639642840352"><ele>1077.0</ele><time>2026-04-24T14:11:08.999Z</time></trkpt><trkpt lat="38.048059731251676" lon="15.85151045782203"><ele>1084.0</ele><time>2026-04-24T14:11:09.999Z</time></trkpt><trkpt lat="38.04801904998405" lon="15.85133414351331"><ele>1091.0</ele><time>2026-04-24T14:11:10.999Z</time></trkpt><trkpt lat="38.0479788983843" lon="15.85114022729052"><ele>1098.0</ele><time>2026-04-24T14:11:11.999Z</time></trkpt><trkpt lat="38.04793933801897" lon="15.850955737309222"><ele>1098.5</ele><time>2026-04-24T14:11:12.999Z</time></trkpt><trkpt lat="38.04789625043934" lon="15.850788814866046"><ele>1099.0</ele><time>2026-04-24T14:11:13.999Z</time></trkpt><trkpt lat="38.04782887076883" lon="15.85064979939493"><ele>1099.5</ele><time>2026-04-24T14:11:14.999Z</time></trkpt><trkpt lat="38.04775865204718" lon="15.850516744118538"><ele>1100.0</ele><time>2026-04-24T14:11:15.999Z</time></trkpt><trkpt lat="38.04767916700562" lon="15.850364398373165"><ele>1100.0</ele><time>2026-04-24T14:11:16.999Z</time></trkpt><trkpt lat="38.047592520444596" lon="15.850205813618162"><ele>1100.0</ele><time>2026-04-24T14:11:17.999Z</time></trkpt><trkpt lat="38.047526111036774" lon="15.850043313255288"><ele>1100.0</ele><time>2026-04-24T14:11:18.999Z</time></trkpt><trkpt lat="38.04747654153323" lon="15.849870330128653"><ele>1100.0</ele><time>2026-04-24T14:11:19.999Z</time></trkpt><trkpt lat="38.047457701691755" lon="15.849723413838953"><ele>1102.8</ele><time>2026-04-24T14:11:20.999Z</time></trkpt><trkpt lat="38.04743943659433" lon="15.8496355710489"><ele>1105.6</ele><time>2026-04-24T14:11:21.999Z</time></trkpt><trkpt lat="38.04753875948369" lon="15.84956400121824"><ele>1108.4</ele><time>2026-04-24T14:11:23.999Z</time></trkpt><trkpt lat="38.04763231488378" lon="15.849577420184636"><ele>1111.2</ele><time>2026-04-24T14:11:24.999Z</time></trkpt><trkpt lat="38.047747263708516" lon="15.849632048123196"><ele>1114.0</ele><time>2026-04-24T14:11:25.999Z</time></trkpt><trkpt lat="38.047867937220126" lon="15.84972050870989"><ele>1114.0</ele><time>2026-04-24T14:11:26.999Z</time></trkpt><trkpt lat="38.04798920212568" lon="15.849796626625738"><ele>1114.0</ele><time>2026-04-24T14:11:27.999Z</time></trkpt><trkpt lat="38.04811493580971" lon="15.849855698516427"><ele>1114.0</ele><time>2026-04-24T14:11:28.999Z</time></trkpt><trkpt lat="38.04823920955899" lon="15.849914108511912"><ele>1114.0</ele><time>2026-04-24T14:11:29.999Z</time></trkpt><trkpt lat="38.0483670902486" lon="15.849976694956345"><ele>1115.75</ele><time>2026-04-24T14:11:30.999Z</time></trkpt><trkpt lat="38.04850108139253" lon="15.850046907631102"><ele>1117.5</ele><time>2026-04-24T14:11:31.999Z</time></trkpt><trkpt lat="38.04863862797846" lon="15.850121269582395"><ele>1119.25</ele><time>2026-04-24T14:11:32.999Z</time></trkpt><trkpt lat="38.048780501355736" lon="15.850196911535736"><ele>1121.0</ele><time>2026-04-24T14:11:33.999Z</time></trkpt><trkpt lat="38.048923458630405" lon="15.85027219635005"><ele>1121.0</ele><time>2026-04-24T14:11:34.999Z</time></trkpt><trkpt lat="38.04906555241721" lon="15.850350246150143"><ele>1121.0</ele><time>2026-04-24T14:11:35.999Z</time></trkpt><trkpt lat="38.04920213966685" lon="15.850435914949175"><ele>1121.0</ele><time>2026-04-24T14:11:36.999Z</time></trkpt><trkpt lat="38.04932361237375" lon="15.850534973007724"><ele>1123.25</ele><time>2026-04-24T14:11:37.999Z</time></trkpt><trkpt lat="38.049422657113396" lon="15.850641827305607"><ele>1125.5</ele><time>2026-04-24T14:11:38.999Z</time></trkpt><trkpt lat="38.049512626534316" lon="15.850764006738348"><ele>1127.75</ele><time>2026-04-24T14:11:39.999Z</time></trkpt><trkpt lat="38.04962946450328" lon="15.85087889965925"><ele>1130.0</ele><time>2026-04-24T14:11:40.999Z</time></trkpt><trkpt lat="38.049737669399775" lon="15.851019643732544"><ele>1130.0</ele><time>2026-04-24T14:11:41.999Z</time></trkpt><trkpt lat="38.04985082653292" lon="15.85115598257822"><ele>1130.0</ele><time>2026-04-24T14:11:42.999Z</time></trkpt><trkpt lat="38.04994682926325" lon="15.851305900195594"><ele>1130.0</ele><time>2026-04-24T14:11:43.999Z</time></trkpt><trkpt lat="38.05006061598574" lon="15.851436436809042"><ele>1136.0</ele><time>2026-04-24T14:11:44.999Z</time></trkpt><trkpt lat="38.050180624059095" lon="15.851546604900129"><ele>1142.0</ele><time>2026-04-24T14:11:45.999Z</time></trkpt><trkpt lat="38.05031626440938" lon="15.851642417894347"><ele>1148.0</ele><time>2026-04-24T14:11:46.999Z</time></trkpt><trkpt lat="38.0504439435037" lon="15.85176487405993"><ele>1143.3333333333335</ele><time>2026-04-24T14:11:47.999Z</time></trkpt><trkpt lat="38.05056698615205" lon="15.851895168629389"><ele>1138.6666666666667</ele><time>2026-04-24T14:11:48.999Z</time></trkpt><trkpt lat="38.050670022897194" lon="15.852051797080374"><ele>1134.0</ele><time>2026-04-24T14:11:49.999Z</time></trkpt><trkpt lat="38.05077662599018" lon="15.852194578782187"><ele>1138.0</ele><time>2026-04-24T14:11:50.999Z</time></trkpt><trkpt lat="38.05086309972094" lon="15.852319629979524"><ele>1142.0</ele><time>2026-04-24T14:11:51.999Z</time></trkpt><trkpt lat="38.05094566968572" lon="15.852424400562748"><ele>1146.0</ele><time>2026-04-24T14:11:52.999Z</time></trkpt><trkpt lat="38.05104043439921" lon="15.852509296479868"><ele>1150.0</ele><time>2026-04-24T14:11:53.999Z</time></trkpt><trkpt lat="38.051125620845305" lon="15.852570944388036"><ele>1150.0</ele><time>2026-04-24T14:11:54.999Z</time></trkpt><trkpt lat="38.05125197539156" lon="15.852561737922828"><ele>1150.0</ele><time>2026-04-24T14:11:55.999Z</time></trkpt><trkpt lat="38.05139475536481" lon="15.852553076986938"><ele>1150.0</ele><time>2026-04-24T14:11:56.999Z</time></trkpt><trkpt lat="38.05155800529389" lon="15.852539773491088"><ele>1150.0</ele><time>2026-04-24T14:11:57.999Z</time></trkpt><trkpt lat="38.05174117270897" lon="15.8525510633719"><ele>1152.25</ele><time>2026-04-24T14:11:58.999Z</time></trkpt><trkpt lat="38.05188621558429" lon="15.852528324567176"><ele>1154.5</ele><time>2026-04-24T14:11:59.999Z</time></trkpt><trkpt lat="38.052009813871265" lon="15.852526640577482"><ele>1156.75</ele><time>2026-04-24T14:12:00.999Z</time></trkpt><trkpt lat="38.05211112708283" lon="15.852534336112884"><ele>1159.0</ele><time>2026-04-24T14:12:01.999Z</time></trkpt><trkpt lat="38.05219494969394" lon="15.852524510029966"><ele>1159.0</ele><time>2026-04-24T14:12:02.999Z</time></trkpt><trkpt lat="38.05228405915565" lon="15.852467983341203"><ele>1159.0</ele><time>2026-04-24T14:12:03.999Z</time></trkpt><trkpt lat="38.052389502680306" lon="15.852373256439101"><ele>1159.0</ele><time>2026-04-24T14:12:04.999Z</time></trkpt><trkpt lat="38.05251467080604" lon="15.852315096526105"><ele>1159.0</ele><time>2026-04-24T14:12:05.999Z</time></trkpt><trkpt lat="38.05263013579496" lon="15.852265416899192"><ele>1159.5</ele><time>2026-04-24T14:12:06.999Z</time></trkpt><trkpt lat="38.05276986148243" lon="15.852219163230009"><ele>1160.0</ele><time>2026-04-24T14:12:07.999Z</time></trkpt><trkpt lat="38.052880811200566" lon="15.85215796733042"><ele>1160.5</ele><time>2026-04-24T14:12:09Z</time></trkpt><trkpt lat="38.052975438816375" lon="15.852141412659343"><ele>1161.0</ele><time>2026-04-24T14:12:10Z</time></trkpt><trkpt lat="38.05306833389822" lon="15.852169477928715"><ele>1161.0</ele><time>2026-04-24T14:12:11Z</time></trkpt><trkpt lat="38.053149096453275" lon="15.852267488808186"><ele>1161.0</ele><time>2026-04-24T14:12:12Z</time></trkpt><trkpt lat="38.05320025306213" lon="15.85236532628044"><ele>1161.0</ele><time>2026-04-24T14:12:13Z</time></trkpt><trkpt lat="38.053243887251185" lon="15.852482076450105"><ele>1161.0</ele><time>2026-04-24T14:12:14Z</time></trkpt><trkpt lat="38.053309509722006" lon="15.852549934195794"><ele>1161.0</ele><time>2026-04-24T14:12:15Z</time></trkpt><trkpt lat="38.05337337962945" lon="15.852561894007506"><ele>1163.0</ele><time>2026-04-24T14:12:16Z</time></trkpt><trkpt lat="38.053474545494694" lon="15.852450290582937"><ele>1165.0</ele><time>2026-04-24T14:12:18Z</time></trkpt><trkpt lat="38.053534690824684" lon="15.85235984910573"><ele>1167.0</ele><time>2026-04-24T14:12:19Z</time></trkpt><trkpt lat="38.05360853285978" lon="15.852233451092555"><ele>1169.0</ele><time>2026-04-24T14:12:20Z</time></trkpt><trkpt lat="38.053671574003275" lon="15.852116808274687"><ele>1169.0</ele><time>2026-04-24T14:12:21Z</time></trkpt><trkpt lat="38.05371615564073" lon="15.851995866063643"><ele>1169.0</ele><time>2026-04-24T14:12:22Z</time></trkpt><trkpt lat="38.0537657182643" lon="15.851892185548765"><ele>1169.0</ele><time>2026-04-24T14:12:23Z</time></trkpt><trkpt lat="38.05382315478831" lon="15.851816578083358"><ele>1169.0</ele><time>2026-04-24T14:12:24Z</time></trkpt><trkpt lat="38.05390249175994" lon="15.851788885767883"><ele>1169.0</ele><time>2026-04-24T14:12:25Z</time></trkpt><trkpt lat="38.054017124088354" lon="15.85173016521809"><ele>1172.25</ele><time>2026-04-24T14:12:26Z</time></trkpt><trkpt lat="38.054143252015436" lon="15.851659792507482"><ele>1175.5</ele><time>2026-04-24T14:12:27Z</time></trkpt><trkpt lat="38.054251547092065" lon="15.851580625999748"><ele>1178.75</ele><time>2026-04-24T14:12:28Z</time></trkpt><trkpt lat="38.0543280478504" lon="15.851527432894049"><ele>1182.0</ele><time>2026-04-24T14:12:29Z</time></trkpt><trkpt lat="38.05443349866266" lon="15.851478982833411"><ele>1182.0</ele><time>2026-04-24T14:12:30Z</time></trkpt><trkpt lat="38.05454304410123" lon="15.85143948059008"><ele>1182.0</ele><time>2026-04-24T14:12:31Z</time></trkpt><trkpt lat="38.05466669964626" lon="15.851412459784845"><ele>1182.0</ele><time>2026-04-24T14:12:32Z</time></trkpt><trkpt lat="38.05480924499578" lon="15.85139953825749"><ele>1182.0</ele><time>2026-04-24T14:12:33Z</time></trkpt><trkpt lat="38.054951392258324" lon="15.851394732387742"><ele>1183.0</ele><time>2026-04-24T14:12:34Z</time></trkpt><trkpt lat="38.05507519720463" lon="15.851390279823978"><ele>1184.0</ele><time>2026-04-24T14:12:35Z</time></trkpt><trkpt lat="38.05517898004535" lon="15.851364607070296"><ele>1185.0</ele><time>2026-04-24T14:12:36Z</time></trkpt><trkpt lat="38.0552798973261" lon="15.85136226757729"><ele>1186.0</ele><time>2026-04-24T14:12:37Z</time></trkpt><trkpt lat="38.05536049865787" lon="15.85138897806446"><ele>1187.0</ele><time>2026-04-24T14:12:38Z</time></trkpt><trkpt lat="38.055430171263495" lon="15.851401891131268"><ele>1187.0</ele><time>2026-04-24T14:12:39Z</time></trkpt><trkpt lat="38.05551482848431" lon="15.851483879838755"><ele>1187.0</ele><time>2026-04-24T14:12:41Z</time></trkpt><trkpt lat="38.055486969400874" lon="15.851649279439089"><ele>1187.0</ele><time>2026-04-24T14:12:43Z</time></trkpt><trkpt lat="38.055474538890934" lon="15.851759483578594"><ele>1187.0</ele><time>2026-04-24T14:12:44Z</time></trkpt><trkpt lat="38.0554887576118" lon="15.851855951068478"><ele>1187.0</ele><time>2026-04-24T14:12:45Z</time></trkpt><trkpt lat="38.05552948132703" lon="15.851979247374524"><ele>1187.8</ele><time>2026-04-24T14:12:46Z</time></trkpt><trkpt lat="38.05557503519009" lon="15.852084732255049"><ele>1188.6</ele><time>2026-04-24T14:12:47Z</time></trkpt><trkpt lat="38.055650610482665" lon="15.852177914359041"><ele>1189.3999999999999</ele><time>2026-04-24T14:12:48Z</time></trkpt><trkpt lat="38.05573665002662" lon="15.852248610396144"><ele>1190.2</ele><time>2026-04-24T14:12:49Z</time></trkpt><trkpt lat="38.05582613407593" lon="15.852316377746442"><ele>1191.0</ele><time>2026-04-24T14:12:50Z</time></trkpt><trkpt lat="38.055901175016245" lon="15.852400550936562"><ele>1191.0</ele><time>2026-04-24T14:12:51Z</time></trkpt><trkpt lat="38.05596304644806" lon="15.852489839781326"><ele>1191.0</ele><time>2026-04-24T14:12:52Z</time></trkpt><trkpt lat="38.056003727691355" lon="15.852587810929101"><ele>1191.0</ele><time>2026-04-24T14:12:53Z</time></trkpt><trkpt lat="38.056008053340285" lon="15.852716791988732"><ele>1191.0</ele><time>2026-04-24T14:12:54Z</time></trkpt><trkpt lat="38.05604020026708" lon="15.852836842270396"><ele>1191.0</ele><time>2026-04-24T14:12:55Z</time></trkpt><trkpt lat="38.05606735621572" lon="15.852957832472324"><ele>1192.3999999999999</ele><time>2026-04-24T14:12:56Z</time></trkpt><trkpt lat="38.05602552089259" lon="15.853086405889936"><ele>1193.8</ele><time>2026-04-24T14:12:57.999Z</time></trkpt><trkpt lat="38.05591881494642" lon="15.853114460288614"><ele>1195.1999999999998</ele><time>2026-04-24T14:12:59.999Z</time></trkpt><trkpt lat="38.05582439440341" lon="15.853122889718408"><ele>1196.6</ele><time>2026-04-24T14:13:00.999Z</time></trkpt><trkpt lat="38.055753188047696" lon="15.853143733904812"><ele>1198.0</ele><time>2026-04-24T14:13:01.999Z</time></trkpt><trkpt lat="38.05575097354837" lon="15.853320352169268"><ele>1198.8</ele><time>2026-04-24T14:13:03.999Z</time></trkpt><trkpt lat="38.05577529635441" lon="15.853405586999"><ele>1199.6</ele><time>2026-04-24T14:13:04.999Z</time></trkpt><trkpt lat="38.05582980138156" lon="15.853499263950035"><ele>1200.4</ele><time>2026-04-24T14:13:05.999Z</time></trkpt><trkpt lat="38.055873517966155" lon="15.85362096904179"><ele>1201.2</ele><time>2026-04-24T14:13:06.999Z</time></trkpt><trkpt lat="38.05593817147398" lon="15.853781794614836"><ele>1202.0</ele><time>2026-04-24T14:13:07.999Z</time></trkpt><trkpt lat="38.05600552256946" lon="15.853951474940612"><ele>1202.0</ele><time>2026-04-24T14:13:08.999Z</time></trkpt><trkpt lat="38.056074936976074" lon="15.854088464768996"><ele>1202.0</ele><time>2026-04-24T14:13:09.999Z</time></trkpt><trkpt lat="38.05609793564978" lon="15.85419839832609"><ele>1202.0</ele><time>2026-04-24T14:13:10.999Z</time></trkpt><trkpt lat="38.05612136720331" lon="15.854362390484782"><ele>1202.0</ele><time>2026-04-24T14:13:12.999Z</time></trkpt><trkpt lat="38.056126740603275" lon="15.854516572585338"><ele>1201.6</ele><time>2026-04-24T14:13:13.999Z</time></trkpt><trkpt lat="38.05614306931104" lon="15.854664958157876"><ele>1201.2</ele><time>2026-04-24T14:13:14.999Z</time></trkpt><trkpt lat="38.0561644040564" lon="15.854780520290566"><ele>1200.8</ele><time>2026-04-24T14:13:15.999Z</time></trkpt><trkpt lat="38.05619562439376" lon="15.854883372545945"><ele>1200.4</ele><time>2026-04-24T14:13:16.999Z</time></trkpt><trkpt lat="38.0562564543283" lon="15.854968930958892"><ele>1200.0</ele><time>2026-04-24T14:13:17.999Z</time></trkpt><trkpt lat="38.05636666424533" lon="15.855004851387594"><ele>1200.0</ele><time>2026-04-24T14:13:18.999Z</time></trkpt><trkpt lat="38.05647562780439" lon="15.85509300086776"><ele>1200.0</ele><time>2026-04-24T14:13:19.999Z</time></trkpt><trkpt lat="38.05656355892432" lon="15.855181161687955"><ele>1200.0</ele><time>2026-04-24T14:13:20.999Z</time></trkpt><trkpt lat="38.05662428146485" lon="15.855247583053384"><ele>1200.0</ele><time>2026-04-24T14:13:21.999Z</time></trkpt><trkpt lat="38.0566797603212" lon="15.855306928126211"><ele>1200.0</ele><time>2026-04-24T14:13:22.999Z</time></trkpt><trkpt lat="38.05675281549386" lon="15.85536010283979"><ele>1202.25</ele><time>2026-04-24T14:13:23.999Z</time></trkpt><trkpt lat="38.056836273460235" lon="15.855425828119044"><ele>1204.5</ele><time>2026-04-24T14:13:25.999Z</time></trkpt><trkpt lat="38.056944264505574" lon="15.85549451895605"><ele>1206.75</ele><time>2026-04-24T14:13:27.999Z</time></trkpt><trkpt lat="38.05709044947644" lon="15.855281117447174"><ele>1209.0</ele><time>2026-04-24T14:13:28.999Z</time></trkpt><trkpt lat="38.05715127880297" lon="15.855259586259901"><ele>1209.0</ele><time>2026-04-24T14:13:29.999Z</time></trkpt><trkpt lat="38.057228946536775" lon="15.855306948808352"><ele>1209.0</ele><time>2026-04-24T14:13:31.999Z</time></trkpt><trkpt lat="38.05728116184695" lon="15.855454760980672"><ele>1209.0</ele><time>2026-04-24T14:13:33.999Z</time></trkpt><trkpt lat="38.05730613950979" lon="15.855529984507836"><ele>1209.0</ele><time>2026-04-24T14:13:34.999Z</time></trkpt><trkpt lat="38.05736478767869" lon="15.85559063707039"><ele>1209.0</ele><time>2026-04-24T14:13:35.999Z</time></trkpt><trkpt lat="38.057430667254" lon="15.855655238480189"><ele>1209.0</ele><time>2026-04-24T14:13:36.999Z</time></trkpt><trkpt lat="38.057486656822405" lon="15.855713191386345"><ele>1211.4</ele><time>2026-04-24T14:13:37.999Z</time></trkpt><trkpt lat="38.05756529220194" lon="15.85580653295677"><ele>1213.8000000000002</ele><time>2026-04-24T14:13:39.999Z</time></trkpt><trkpt lat="38.057630316162744" lon="15.855817393678358"><ele>1216.1999999999998</ele><time>2026-04-24T14:13:40.999Z</time></trkpt><trkpt lat="38.05761857771767" lon="15.85571122687565"><ele>1218.6</ele><time>2026-04-24T14:13:42.999Z</time></trkpt><trkpt lat="38.05749134121152" lon="15.855575718748032"><ele>1221.0</ele><time>2026-04-24T14:13:44.999Z</time></trkpt><trkpt lat="38.05748798097068" lon="15.855488108360225"><ele>1221.0</ele><time>2026-04-24T14:13:45.999Z</time></trkpt><trkpt lat="38.0575121945166" lon="15.855370801074228"><ele>1221.0</ele><time>2026-04-24T14:13:46.999Z</time></trkpt><trkpt lat="38.057546160749126" lon="15.855259509496642"><ele>1221.0</ele><time>2026-04-24T14:13:47.999Z</time></trkpt><trkpt lat="38.05758399356705" lon="15.855148471954509"><ele>1221.0</ele><time>2026-04-24T14:13:48.999Z</time></trkpt><trkpt lat="38.05762451553895" lon="15.85503848023662"><ele>1221.0</ele><time>2026-04-24T14:13:49.999Z</time></trkpt><trkpt lat="38.05765665443364" lon="15.854933934558348"><ele>1220.2</ele><time>2026-04-24T14:13:50.999Z</time></trkpt><trkpt lat="38.05765225621084" lon="15.854847227425221"><ele>1219.3999999999999</ele><time>2026-04-24T14:13:51.999Z</time></trkpt><trkpt lat="38.057589743783055" lon="15.854725402158158"><ele>1218.6</ele><time>2026-04-24T14:13:53.999Z</time></trkpt><trkpt lat="38.05746499907955" lon="15.854746829074333"><ele>1217.8</ele><time>2026-04-24T14:13:54.999Z</time></trkpt><trkpt lat="38.05734462596833" lon="15.854710287026665"><ele>1217.0</ele><time>2026-04-24T14:13:55.999Z</time></trkpt><trkpt lat="38.05726920488556" lon="15.854655208722418"><ele>1217.0</ele><time>2026-04-24T14:13:56.999Z</time></trkpt><trkpt lat="38.05723987997427" lon="15.854565640867282"><ele>1217.0</ele><time>2026-04-24T14:13:57.999Z</time></trkpt><trkpt lat="38.057264464747604" lon="15.854479155221295"><ele>1217.0</ele><time>2026-04-24T14:13:58.999Z</time></trkpt><trkpt lat="38.057310919445534" lon="15.854395488373227"><ele>1217.0</ele><time>2026-04-24T14:13:59.999Z</time></trkpt><trkpt lat="38.0573595630214" lon="15.854286318813145"><ele>1217.0</ele><time>2026-04-24T14:14:00.999Z</time></trkpt><trkpt lat="38.05744198511121" lon="15.854167467723938"><ele>1220.4</ele><time>2026-04-24T14:14:01.999Z</time></trkpt><trkpt lat="38.05752093215279" lon="15.85407658417197"><ele>1223.8000000000002</ele><time>2026-04-24T14:14:02.999Z</time></trkpt><trkpt lat="38.057649297488155" lon="15.854021161779944"><ele>1227.2</ele><time>2026-04-24T14:14:03.999Z</time></trkpt><trkpt lat="38.0577335393316" lon="15.853975415536972"><ele>1230.6000000000001</ele><time>2026-04-24T14:14:04.999Z</time></trkpt><trkpt lat="38.05780048076963" lon="15.853959413641752"><ele>1234.0</ele><time>2026-04-24T14:14:05.999Z</time></trkpt><trkpt lat="38.05785484566056" lon="15.854045047902282"><ele>1234.0</ele><time>2026-04-24T14:14:07.999Z</time></trkpt><trkpt lat="38.0578578365937" lon="15.854133420629804"><ele>1234.0</ele><time>2026-04-24T14:14:09Z</time></trkpt><trkpt lat="38.05787635359153" lon="15.85425248921407"><ele>1234.0</ele><time>2026-04-24T14:14:10Z</time></trkpt><trkpt lat="38.057940622719734" lon="15.85435906472734"><ele>1234.0</ele><time>2026-04-24T14:14:11Z</time></trkpt><trkpt lat="38.05803382282233" lon="15.8544299418355"><ele>1234.0</ele><time>2026-04-24T14:14:12Z</time></trkpt><trkpt lat="38.05811073840394" lon="15.854491505702438"><ele>1233.2</ele><time>2026-04-24T14:14:13Z</time></trkpt><trkpt lat="38.05814821796071" lon="15.854566486105652"><ele>1232.4</ele><time>2026-04-24T14:14:14Z</time></trkpt><trkpt lat="38.05813821307871" lon="15.85467250181485"><ele>1231.6</ele><time>2026-04-24T14:14:15Z</time></trkpt><trkpt lat="38.058128569916775" lon="15.854795369066537"><ele>1230.8</ele><time>2026-04-24T14:14:16Z</time></trkpt><trkpt lat="38.058193182981924" lon="15.8548719904268"><ele>1230.0</ele><time>2026-04-24T14:14:19Z</time></trkpt><trkpt lat="38.05828194496824" lon="15.854788652075216"><ele>1230.0</ele><time>2026-04-24T14:14:21Z</time></trkpt><trkpt lat="38.05829736083166" lon="15.85468686951896"><ele>1230.0</ele><time>2026-04-24T14:14:22Z</time></trkpt><trkpt lat="38.05828462434187" lon="15.854555770604723"><ele>1230.0</ele><time>2026-04-24T14:14:23Z</time></trkpt><trkpt lat="38.05826479929372" lon="15.854411077378025"><ele>1230.0</ele><time>2026-04-24T14:14:24Z</time></trkpt><trkpt lat="38.05826001268505" lon="15.854268533307234"><ele>1230.0</ele><time>2026-04-24T14:14:25Z</time></trkpt><trkpt lat="38.0582824021438" lon="15.854144204027175"><ele>1234.0</ele><time>2026-04-24T14:14:26Z</time></trkpt><trkpt lat="38.05832325147773" lon="15.854038034831866"><ele>1238.0</ele><time>2026-04-24T14:14:27Z</time></trkpt><trkpt lat="38.058378401904164" lon="15.853943015829964"><ele>1242.0</ele><time>2026-04-24T14:14:28Z</time></trkpt><trkpt lat="38.058452033516176" lon="15.853847330319292"><ele>1246.0</ele><time>2026-04-24T14:14:29Z</time></trkpt><trkpt lat="38.05852987908206" lon="15.853801931431498"><ele>1250.0</ele><time>2026-04-24T14:14:30Z</time></trkpt><trkpt lat="38.05861774623179" lon="15.853765041615944"><ele>1250.0</ele><time>2026-04-24T14:14:31Z</time></trkpt><trkpt lat="38.05870905067261" lon="15.853710102050842"><ele>1250.0</ele><time>2026-04-24T14:14:32Z</time></trkpt><trkpt lat="38.05879902649266" lon="15.853649585699442"><ele>1250.0</ele><time>2026-04-24T14:14:33Z</time></trkpt><trkpt lat="38.05889402433023" lon="15.853633276310708"><ele>1250.0</ele><time>2026-04-24T14:14:34Z</time></trkpt><trkpt lat="38.058966632938336" lon="15.853651310398925"><ele>1250.0</ele><time>2026-04-24T14:14:35Z</time></trkpt><trkpt lat="38.059054341869526" lon="15.85369429209471"><ele>1250.0</ele><time>2026-04-24T14:14:37Z</time></trkpt><trkpt lat="38.059115366674575" lon="15.853670964924664"><ele>1250.0</ele><time>2026-04-24T14:14:41Z</time></trkpt><trkpt lat="38.05917454961605" lon="15.853626057746544"><ele>1250.0</ele><time>2026-04-24T14:14:55Z</time></trkpt><trkpt lat="38.05922355112084" lon="15.853572175907262"><ele>1250.0</ele><time>2026-04-24T14:14:57Z</time></trkpt><trkpt lat="38.05931274240251" lon="15.853457762042769"><ele>1250.0</ele><time>2026-04-24T14:14:59Z</time></trkpt><trkpt lat="38.059375110389844" lon="15.853416626419655"><ele>1250.0</ele><time>2026-04-24T14:15:00Z</time></trkpt><trkpt lat="38.05946371192042" lon="15.853378291542445"><ele>1253.6</ele><time>2026-04-24T14:15:01Z</time></trkpt><trkpt lat="38.05956902667986" lon="15.85335780460918"><ele>1257.2</ele><time>2026-04-24T14:15:02Z</time></trkpt><trkpt lat="38.05967069361619" lon="15.853361690000112"><ele>1260.8</ele><time>2026-04-24T14:15:03Z</time></trkpt><trkpt lat="38.05977296251107" lon="15.853371172294917"><ele>1264.4</ele><time>2026-04-24T14:15:04Z</time></trkpt><trkpt lat="38.05985742246865" lon="15.85338913598548"><ele>1268.0</ele><time>2026-04-24T14:15:05Z</time></trkpt><trkpt lat="38.0599492347059" lon="15.853367104572028"><ele>1267.25</ele><time>2026-04-24T14:15:06Z</time></trkpt><trkpt lat="38.060036479114466" lon="15.853299499568532"><ele>1266.5</ele><time>2026-04-24T14:15:07Z</time></trkpt><trkpt lat="38.06012578615728" lon="15.853195557581556"><ele>1265.75</ele><time>2026-04-24T14:15:08Z</time></trkpt><trkpt lat="38.060246319906106" lon="15.853057953760302"><ele>1265.0</ele><time>2026-04-24T14:15:09Z</time></trkpt><trkpt lat="38.0603717789893" lon="15.8529260016412"><ele>1265.0</ele><time>2026-04-24T14:15:10Z</time></trkpt><trkpt lat="38.06046570007432" lon="15.852836159358043"><ele>1265.0</ele><time>2026-04-24T14:15:11Z</time></trkpt><trkpt lat="38.06055712080655" lon="15.852773194839328"><ele>1265.0</ele><time>2026-04-24T14:15:12Z</time></trkpt><trkpt lat="38.06064002410883" lon="15.85272148782902"><ele>1265.0</ele><time>2026-04-24T14:15:13Z</time></trkpt><trkpt lat="38.060710963019" lon="15.852673364545257"><ele>1265.0</ele><time>2026-04-24T14:15:14Z</time></trkpt><trkpt lat="38.06076521782015" lon="15.852623546319876"><ele>1267.8333333333335</ele><time>2026-04-24T14:15:15Z</time></trkpt><trkpt lat="38.060813269305484" lon="15.8525688240234"><ele>1270.6666666666667</ele><time>2026-04-24T14:15:16Z</time></trkpt><trkpt lat="38.060878832779025" lon="15.852492919355596"><ele>1273.5</ele><time>2026-04-24T14:15:18Z</time></trkpt><trkpt lat="38.06094819707599" lon="15.852450094539856"><ele>1276.3333333333333</ele><time>2026-04-24T14:15:22Z</time></trkpt><trkpt lat="38.06102175033043" lon="15.852408692469398"><ele>1279.1666666666665</ele><time>2026-04-24T14:15:25Z</time></trkpt><trkpt lat="38.061066660814944" lon="15.85235033108752"><ele>1282.0</ele><time>2026-04-24T14:15:47Z</time></trkpt><trkpt lat="38.06115719208104" lon="15.852314259154848"><ele>1282.0</ele><time>2026-04-24T14:15:49Z</time></trkpt><trkpt lat="38.06120549914137" lon="15.852256389317281"><ele>1282.0</ele><time>2026-04-24T14:15:50Z</time></trkpt><trkpt lat="38.06127574629799" lon="15.852264855361241"><ele>1282.0</ele><time>2026-04-24T14:15:58Z</time></trkpt><trkpt lat="38.061392651248056" lon="15.852278945360586"><ele>1282.0</ele><time>2026-04-24T14:16:00Z</time></trkpt><trkpt lat="38.06165665118128" lon="15.852651811943547"><ele>1280.0</ele><time>2026-04-24T14:16:03Z</time></trkpt><trkpt lat="38.061746991321066" lon="15.852663486507936"><ele>1278.0</ele><time>2026-04-24T14:16:04Z</time></trkpt><trkpt lat="38.061822311459665" lon="15.8526585163401"><ele>1276.0</ele><time>2026-04-24T14:16:05Z</time></trkpt><trkpt lat="38.06189155076846" lon="15.852625943446862"><ele>1274.0</ele><time>2026-04-24T14:16:06Z</time></trkpt><trkpt lat="38.06195622208185" lon="15.85254601297382"><ele>1272.0</ele><time>2026-04-24T14:16:07Z</time></trkpt><trkpt lat="38.06202445672301" lon="15.852425905021029"><ele>1270.0</ele><time>2026-04-24T14:16:08Z</time></trkpt><trkpt lat="38.062076260413136" lon="15.852314018472327"><ele>1270.0</ele><time>2026-04-24T14:16:09Z</time></trkpt><trkpt lat="38.062095972718275" lon="15.852228475271383"><ele>1270.0</ele><time>2026-04-24T14:16:10Z</time></trkpt><trkpt lat="38.06205660271577" lon="15.852034443439845"><ele>1270.0</ele><time>2026-04-24T14:16:12Z</time></trkpt><trkpt lat="38.06201686438754" lon="15.851917406338703"><ele>1270.0</ele><time>2026-04-24T14:16:13Z</time></trkpt><trkpt lat="38.06200977616019" lon="15.851828278352357"><ele>1270.0</ele><time>2026-04-24T14:16:14.001Z</time></trkpt><trkpt lat="38.062030937588034" lon="15.851747561885501"><ele>1271.4</ele><time>2026-04-24T14:16:15.001Z</time></trkpt><trkpt lat="38.062083162715666" lon="15.851690023274374"><ele>1272.8</ele><time>2026-04-24T14:16:16.001Z</time></trkpt><trkpt lat="38.06216993923115" lon="15.851663659011688"><ele>1274.2</ele><time>2026-04-24T14:16:17.001Z</time></trkpt><trkpt lat="38.06228782615542" lon="15.851654798653064"><ele>1275.6</ele><time>2026-04-24T14:16:18.001Z</time></trkpt><trkpt lat="38.062398105640085" lon="15.85165692738433"><ele>1277.0</ele><time>2026-04-24T14:16:19.001Z</time></trkpt><trkpt lat="38.06248034242427" lon="15.851642030006616"><ele>1273.0</ele><time>2026-04-24T14:16:20.001Z</time></trkpt><trkpt lat="38.06257087419241" lon="15.851577339537995"><ele>1269.0</ele><time>2026-04-24T14:16:21.001Z</time></trkpt><trkpt lat="38.06270050873549" lon="15.851488908049443"><ele>1265.0</ele><time>2026-04-24T14:16:22.001Z</time></trkpt><trkpt lat="38.06282205728259" lon="15.851447990607285"><ele>1261.0</ele><time>2026-04-24T14:16:23.001Z</time></trkpt><trkpt lat="38.06292892820837" lon="15.851447121015811"><ele>1261.0</ele><time>2026-04-24T14:16:24.001Z</time></trkpt><trkpt lat="38.063016876285175" lon="15.851439053786862"><ele>1261.0</ele><time>2026-04-24T14:16:25Z</time></trkpt><trkpt lat="38.063109806522505" lon="15.851379485954729"><ele>1261.0</ele><time>2026-04-24T14:16:26Z</time></trkpt><trkpt lat="38.06320567395821" lon="15.851268287619106"><ele>1261.0</ele><time>2026-04-24T14:16:27Z</time></trkpt><trkpt lat="38.06332131575848" lon="15.85114462470111"><ele>1256.6666666666665</ele><time>2026-04-24T14:16:28Z</time></trkpt><trkpt lat="38.06345360180633" lon="15.851035990145121"><ele>1252.3333333333333</ele><time>2026-04-24T14:16:29Z</time></trkpt><trkpt lat="38.063596881748026" lon="15.850951166839572"><ele>1248.0</ele><time>2026-04-24T14:16:30Z</time></trkpt><trkpt lat="38.06373671886048" lon="15.85086679775381"><ele>1248.0</ele><time>2026-04-24T14:16:31Z</time></trkpt><trkpt lat="38.06385288924498" lon="15.8507696851741"><ele>1248.0</ele><time>2026-04-24T14:16:32Z</time></trkpt><trkpt lat="38.06395288197642" lon="15.8506897953965"><ele>1248.0</ele><time>2026-04-24T14:16:33Z</time></trkpt><trkpt lat="38.06405037685832" lon="15.850659683660016"><ele>1248.0</ele><time>2026-04-24T14:16:34Z</time></trkpt><trkpt lat="38.0641595157525" lon="15.850666506988965"><ele>1249.4</ele><time>2026-04-24T14:16:35Z</time></trkpt><trkpt lat="38.06424278074946" lon="15.85071768190181"><ele>1250.8</ele><time>2026-04-24T14:16:36Z</time></trkpt><trkpt lat="38.064305593152774" lon="15.850770585760628"><ele>1252.2</ele><time>2026-04-24T14:16:37Z</time></trkpt><trkpt lat="38.06440458671444" lon="15.850714248442177"><ele>1253.6</ele><time>2026-04-24T14:16:39Z</time></trkpt><trkpt lat="38.06447607848183" lon="15.850633081701869"><ele>1255.0</ele><time>2026-04-24T14:16:40Z</time></trkpt><trkpt lat="38.06458461371344" lon="15.850564842586447"><ele>1255.0</ele><time>2026-04-24T14:16:41Z</time></trkpt><trkpt lat="38.06472501530661" lon="15.850523849088509"><ele>1255.0</ele><time>2026-04-24T14:16:42Z</time></trkpt><trkpt lat="38.064862551191275" lon="15.85049411675967"><ele>1255.0</ele><time>2026-04-24T14:16:43Z</time></trkpt><trkpt lat="38.06494592955182" lon="15.85044333271466"><ele>1255.0</ele><time>2026-04-24T14:16:44Z</time></trkpt><trkpt lat="38.06500839121913" lon="15.850381513108472"><ele>1254.0</ele><time>2026-04-24T14:16:45Z</time></trkpt><trkpt lat="38.06504983370843" lon="15.8502898480641"><ele>1253.0</ele><time>2026-04-24T14:16:46Z</time></trkpt><trkpt lat="38.065095442110945" lon="15.850159406262796"><ele>1252.0</ele><time>2026-04-24T14:16:47Z</time></trkpt><trkpt lat="38.06516343884148" lon="15.85000595401878"><ele>1251.0</ele><time>2026-04-24T14:16:48Z</time></trkpt><trkpt lat="38.06521981876569" lon="15.849867946420998"><ele>1255.5</ele><time>2026-04-24T14:16:49Z</time></trkpt><trkpt lat="38.06524474630124" lon="15.849744890977586"><ele>1260.0</ele><time>2026-04-24T14:16:50Z</time></trkpt><trkpt lat="38.06526676515547" lon="15.849580994857117"><ele>1264.5</ele><time>2026-04-24T14:16:51Z</time></trkpt><trkpt lat="38.06529988013882" lon="15.849408890381408"><ele>1269.0</ele><time>2026-04-24T14:16:52Z</time></trkpt><trkpt lat="38.06533105064831" lon="15.849281560819533"><ele>1269.0</ele><time>2026-04-24T14:16:53Z</time></trkpt><trkpt lat="38.065377451512916" lon="15.849199805476177"><ele>1269.0</ele><time>2026-04-24T14:16:54Z</time></trkpt><trkpt lat="38.065464432041814" lon="15.849107451916582"><ele>1269.0</ele><time>2026-04-24T14:16:55Z</time></trkpt><trkpt lat="38.06556591085725" lon="15.84899686111103"><ele>1269.0</ele><time>2026-04-24T14:16:56Z</time></trkpt><trkpt lat="38.06563493616795" lon="15.848917052528002"><ele>1269.0</ele><time>2026-04-24T14:16:57Z</time></trkpt><trkpt lat="38.065706844300365" lon="15.848867451879386"><ele>1270.6666666666667</ele><time>2026-04-24T14:16:58Z</time></trkpt><trkpt lat="38.06579513984354" lon="15.848853500706648"><ele>1272.3333333333333</ele><time>2026-04-24T14:16:59Z</time></trkpt><trkpt lat="38.065882444402106" lon="15.848857099953426"><ele>1274.0</ele><time>2026-04-24T14:17:00Z</time></trkpt><trkpt lat="38.06598483231144" lon="15.84883795128084"><ele>1275.6666666666665</ele><time>2026-04-24T14:17:02Z</time></trkpt><trkpt lat="38.06604922509935" lon="15.848775804461885"><ele>1277.3333333333333</ele><time>2026-04-24T14:17:03Z</time></trkpt><trkpt lat="38.066098650374485" lon="15.848689615535013"><ele>1279.0</ele><time>2026-04-24T14:17:04Z</time></trkpt><trkpt lat="38.066113268525804" lon="15.84860344142708"><ele>1279.0</ele><time>2026-04-24T14:17:05Z</time></trkpt><trkpt lat="38.066111798841554" lon="15.848506770219792"><ele>1279.0</ele><time>2026-04-24T14:17:06Z</time></trkpt><trkpt lat="38.06613267406286" lon="15.84836823016991"><ele>1279.0</ele><time>2026-04-24T14:17:07Z</time></trkpt><trkpt lat="38.06618929723951" lon="15.848258131822266"><ele>1279.0</ele><time>2026-04-24T14:17:08Z</time></trkpt><trkpt lat="38.06626745085322" lon="15.848148203836113"><ele>1279.0</ele><time>2026-04-24T14:17:09Z</time></trkpt><trkpt lat="38.06634932624395" lon="15.84803043130192"><ele>1281.2</ele><time>2026-04-24T14:17:10Z</time></trkpt><trkpt lat="38.06641977411659" lon="15.84792043224971"><ele>1283.4</ele><time>2026-04-24T14:17:11Z</time></trkpt><trkpt lat="38.06648799532552" lon="15.847842888052275"><ele>1285.6</ele><time>2026-04-24T14:17:12Z</time></trkpt><trkpt lat="38.06655034080967" lon="15.847802675296256"><ele>1287.8</ele><time>2026-04-24T14:17:13Z</time></trkpt><trkpt lat="38.066653706065615" lon="15.847845919068273"><ele>1290.0</ele><time>2026-04-24T14:17:15Z</time></trkpt><trkpt lat="38.066701812989905" lon="15.847916272111943"><ele>1290.0</ele><time>2026-04-24T14:17:16Z</time></trkpt><trkpt lat="38.06676339577769" lon="15.847997784729943"><ele>1290.0</ele><time>2026-04-24T14:17:17Z</time></trkpt><trkpt lat="38.066855494994236" lon="15.84809539479614"><ele>1290.0</ele><time>2026-04-24T14:17:18Z</time></trkpt><trkpt lat="38.066950545861154" lon="15.84820163129985"><ele>1290.0</ele><time>2026-04-24T14:17:19Z</time></trkpt><trkpt lat="38.06703658922717" lon="15.848325989947819"><ele>1290.0</ele><time>2026-04-24T14:17:20Z</time></trkpt><trkpt lat="38.06707663751272" lon="15.848411162116268"><ele>1290.0</ele><time>2026-04-24T14:17:21Z</time></trkpt><trkpt lat="38.067194865210354" lon="15.848474304815175"><ele>1290.0</ele><time>2026-04-24T14:17:23Z</time></trkpt><trkpt lat="38.06728668362892" lon="15.848505036619303"><ele>1290.0</ele><time>2026-04-24T14:17:24Z</time></trkpt><trkpt lat="38.06739476879895" lon="15.848524063448494"><ele>1290.0</ele><time>2026-04-24T14:17:25Z</time></trkpt><trkpt lat="38.067481424085294" lon="15.848571008837956"><ele>1290.2</ele><time>2026-04-24T14:17:26Z</time></trkpt><trkpt lat="38.06756061481643" lon="15.848650021937082"><ele>1290.4</ele><time>2026-04-24T14:17:27Z</time></trkpt><trkpt lat="38.067623780871756" lon="15.848742980498828"><ele>1290.6</ele><time>2026-04-24T14:17:28Z</time></trkpt><trkpt lat="38.06769711924789" lon="15.848839676710696"><ele>1290.8</ele><time>2026-04-24T14:17:29Z</time></trkpt><trkpt lat="38.067776492413316" lon="15.848963331766559"><ele>1291.0</ele><time>2026-04-24T14:17:30Z</time></trkpt><trkpt lat="38.067843862451504" lon="15.849078688148776"><ele>1291.0</ele><time>2026-04-24T14:17:31Z</time></trkpt><trkpt lat="38.067884045039825" lon="15.849195141732705"><ele>1291.0</ele><time>2026-04-24T14:17:32Z</time></trkpt><trkpt lat="38.06793503197326" lon="15.849303004784602"><ele>1291.0</ele><time>2026-04-24T14:17:33Z</time></trkpt><trkpt lat="38.06798878518992" lon="15.849349885489316"><ele>1291.0</ele><time>2026-04-24T14:17:34Z</time></trkpt><trkpt lat="38.06805185309504" lon="15.849368922680009"><ele>1291.0</ele><time>2026-04-24T14:17:35Z</time></trkpt><trkpt lat="38.06813792154927" lon="15.849377970740916"><ele>1291.0</ele><time>2026-04-24T14:17:36Z</time></trkpt><trkpt lat="38.06822619739015" lon="15.849494341640254"><ele>1291.6</ele><time>2026-04-24T14:17:38Z</time></trkpt><trkpt lat="38.06822974279962" lon="15.849583029100868"><ele>1292.1999999999998</ele><time>2026-04-24T14:17:39Z</time></trkpt><trkpt lat="38.06822390432826" lon="15.84969545077047"><ele>1292.8000000000002</ele><time>2026-04-24T14:17:40Z</time></trkpt><trkpt lat="38.06823953700194" lon="15.849831390358053"><ele>1293.4</ele><time>2026-04-24T14:17:41Z</time></trkpt><trkpt lat="38.068264163738114" lon="15.849919679658504"><ele>1294.0</ele><time>2026-04-24T14:17:42Z</time></trkpt><trkpt lat="38.06837443086959" lon="15.849946814221989"><ele>1294.8000000000002</ele><time>2026-04-24T14:17:44Z</time></trkpt><trkpt lat="38.068453174664" lon="15.849946186660015"><ele>1295.6000000000001</ele><time>2026-04-24T14:17:45Z</time></trkpt><trkpt lat="38.068518252455355" lon="15.84995914430042"><ele>1296.4</ele><time>2026-04-24T14:17:46Z</time></trkpt><trkpt lat="38.06858227932318" lon="15.850115068865218"><ele>1297.2</ele><time>2026-04-24T14:17:48Z</time></trkpt><trkpt lat="38.06863079934893" lon="15.850233115081945"><ele>1298.0</ele><time>2026-04-24T14:17:49Z</time></trkpt><trkpt lat="38.068683526060255" lon="15.850295071143709"><ele>1298.0</ele><time>2026-04-24T14:17:50Z</time></trkpt><trkpt lat="38.06874167642819" lon="15.850330380807314"><ele>1298.0</ele><time>2026-04-24T14:17:51Z</time></trkpt><trkpt lat="38.06881298264958" lon="15.850329177237217"><ele>1298.0</ele><time>2026-04-24T14:17:52Z</time></trkpt><trkpt lat="38.06892849083004" lon="15.850341609980134"><ele>1298.0</ele><time>2026-04-24T14:17:53Z</time></trkpt><trkpt lat="38.06905103377778" lon="15.85035323874558"><ele>1298.0</ele><time>2026-04-24T14:17:54Z</time></trkpt><trkpt lat="38.06913888913768" lon="15.850360110391406"><ele>1299.2</ele><time>2026-04-24T14:17:55Z</time></trkpt><trkpt lat="38.069204500250166" lon="15.850328757224721"><ele>1300.4</ele><time>2026-04-24T14:17:56Z</time></trkpt><trkpt lat="38.06927618817022" lon="15.850259149333368"><ele>1301.6000000000001</ele><time>2026-04-24T14:17:57Z</time></trkpt><trkpt lat="38.069382436507276" lon="15.850281553415863"><ele>1302.8000000000002</ele><time>2026-04-24T14:17:58Z</time></trkpt><trkpt lat="38.06948094757726" lon="15.850193940275478"><ele>1304.0</ele><time>2026-04-24T14:17:59Z</time></trkpt><trkpt lat="38.069538780803555" lon="15.850148197385392"><ele>1304.0</ele><time>2026-04-24T14:18:00Z</time></trkpt><trkpt lat="38.069588830583484" lon="15.85020581053432"><ele>1304.0</ele><time>2026-04-24T14:18:02Z</time></trkpt><trkpt lat="38.06961397813819" lon="15.850357058151"><ele>1304.0</ele><time>2026-04-24T14:18:04Z</time></trkpt><trkpt lat="38.069634520451174" lon="15.850483039044036"><ele>1304.0</ele><time>2026-04-24T14:18:05Z</time></trkpt><trkpt lat="38.06967270260884" lon="15.8505500307819"><ele>1304.0</ele><time>2026-04-24T14:18:06Z</time></trkpt><trkpt lat="38.06977236646009" lon="15.850536689157536"><ele>1304.0</ele><time>2026-04-24T14:18:08Z</time></trkpt><trkpt lat="38.069851460707554" lon="15.850493195881965"><ele>1304.0</ele><time>2026-04-24T14:18:09Z</time></trkpt><trkpt lat="38.06996092075382" lon="15.850428994956268"><ele>1304.0</ele><time>2026-04-24T14:18:10Z</time></trkpt><trkpt lat="38.07004988545261" lon="15.85039218678393"><ele>1304.0</ele><time>2026-04-24T14:18:11Z</time></trkpt><trkpt lat="38.0701222583535" lon="15.850343419853356"><ele>1304.0</ele><time>2026-04-24T14:18:12Z</time></trkpt><trkpt lat="38.07017630181594" lon="15.850272401709727"><ele>1303.6</ele><time>2026-04-24T14:18:13Z</time></trkpt><trkpt lat="38.070227633838705" lon="15.85019245431403"><ele>1303.2</ele><time>2026-04-24T14:18:14Z</time></trkpt><trkpt lat="38.07027891605628" lon="15.85010060941339"><ele>1302.8</ele><time>2026-04-24T14:18:15Z</time></trkpt><trkpt lat="38.070335251717125" lon="15.85004043014578"><ele>1302.3999999999999</ele><time>2026-04-24T14:18:16Z</time></trkpt><trkpt lat="38.07050589757339" lon="15.850058567206016"><ele>1302.0</ele><time>2026-04-24T14:18:17.999Z</time></trkpt><trkpt lat="38.07056766959241" lon="15.850074140118132"><ele>1302.0</ele><time>2026-04-24T14:18:19.001Z</time></trkpt><trkpt lat="38.07061759781432" lon="15.850150936712476"><ele>1302.0</ele><time>2026-04-24T14:18:22.001Z</time></trkpt><trkpt lat="38.0706316370841" lon="15.850245747536567"><ele>1302.0</ele><time>2026-04-24T14:18:35Z</time></trkpt><trkpt lat="38.070647602145804" lon="15.850326931156898"><ele>1302.0</ele><time>2026-04-24T14:18:36Z</time></trkpt><trkpt lat="38.07066317545192" lon="15.850439229110508"><ele>1302.0</ele><time>2026-04-24T14:18:37Z</time></trkpt><trkpt lat="38.07068825717246" lon="15.8505498183973"><ele>1302.0</ele><time>2026-04-24T14:18:38Z</time></trkpt><trkpt lat="38.070713103245964" lon="15.85066270545768"><ele>1302.0</ele><time>2026-04-24T14:18:39Z</time></trkpt><trkpt lat="38.07075795990688" lon="15.850776734981995"><ele>1302.0</ele><time>2026-04-24T14:18:40Z</time></trkpt><trkpt lat="38.07080240648597" lon="15.850910362594108"><ele>1302.0</ele><time>2026-04-24T14:18:41Z</time></trkpt><trkpt lat="38.0708615940795" lon="15.851052640266515"><ele>1302.0</ele><time>2026-04-24T14:18:42Z</time></trkpt><trkpt lat="38.070901686623834" lon="15.851178861414851"><ele>1302.0</ele><time>2026-04-24T14:18:43Z</time></trkpt><trkpt lat="38.0709434507605" lon="15.85129368695109"><ele>1302.0</ele><time>2026-04-24T14:18:44Z</time></trkpt><trkpt lat="38.0709784111261" lon="15.851433553473614"><ele>1302.0</ele><time>2026-04-24T14:18:45Z</time></trkpt><trkpt lat="38.07100255977601" lon="15.851563063763802"><ele>1302.0</ele><time>2026-04-24T14:18:46Z</time></trkpt><trkpt lat="38.0710439349721" lon="15.851703889572486"><ele>1302.0</ele><time>2026-04-24T14:18:47Z</time></trkpt><trkpt lat="38.07109840360432" lon="15.851827816654904"><ele>1302.0</ele><time>2026-04-24T14:18:48Z</time></trkpt><trkpt lat="38.071135593776" lon="15.851909353747507"><ele>1302.0</ele><time>2026-04-24T14:18:49Z</time></trkpt><trkpt lat="38.07116425808976" lon="15.852007904393139"><ele>1302.0</ele><time>2026-04-24T14:18:50Z</time></trkpt><trkpt lat="38.07121729583914" lon="15.852108020217328"><ele>1302.0</ele><time>2026-04-24T14:18:51Z</time></trkpt><trkpt lat="38.071278288400414" lon="15.85222276912579"><ele>1302.0</ele><time>2026-04-24T14:18:52Z</time></trkpt><trkpt lat="38.071356801355954" lon="15.852339301961003"><ele>1302.0</ele><time>2026-04-24T14:18:53Z</time></trkpt><trkpt lat="38.07142248746422" lon="15.852391384869732"><ele>1302.0</ele><time>2026-04-24T14:18:54Z</time></trkpt><trkpt lat="38.0714991458592" lon="15.852416210232239"><ele>1302.0</ele><time>2026-04-24T14:18:55Z</time></trkpt><trkpt lat="38.07160425540874" lon="15.852433561398138"><ele>1302.0</ele><time>2026-04-24T14:18:56Z</time></trkpt><trkpt lat="38.07169057077579" lon="15.852449562931616"><ele>1302.0</ele><time>2026-04-24T14:18:57Z</time></trkpt><trkpt lat="38.07174215557364" lon="15.852532490816486"><ele>1302.0</ele><time>2026-04-24T14:18:59Z</time></trkpt><trkpt lat="38.07176067424867" lon="15.852634554620035"><ele>1300.8333333333333</ele><time>2026-04-24T14:19:00Z</time></trkpt><trkpt lat="38.07177194816436" lon="15.852742955332891"><ele>1299.6666666666667</ele><time>2026-04-24T14:19:01Z</time></trkpt><trkpt lat="38.07179626031386" lon="15.852821435313187"><ele>1298.5</ele><time>2026-04-24T14:19:02Z</time></trkpt><trkpt lat="38.07185617938339" lon="15.852914609634427"><ele>1297.3333333333335</ele><time>2026-04-24T14:19:03Z</time></trkpt><trkpt lat="38.07191134631445" lon="15.852987103109955"><ele>1296.1666666666667</ele><time>2026-04-24T14:19:04Z</time></trkpt><trkpt lat="38.071984742266146" lon="15.853043536672129"><ele>1295.0</ele><time>2026-04-24T14:19:05Z</time></trkpt><trkpt lat="38.0720697315608" lon="15.853091277001564"><ele>1295.0</ele><time>2026-04-24T14:19:06Z</time></trkpt><trkpt lat="38.07215549361027" lon="15.85312546050075"><ele>1295.0</ele><time>2026-04-24T14:19:07Z</time></trkpt><trkpt lat="38.07224814019299" lon="15.853160805477199"><ele>1295.0</ele><time>2026-04-24T14:19:08Z</time></trkpt><trkpt lat="38.07234427907539" lon="15.853184633119403"><ele>1295.0</ele><time>2026-04-24T14:19:09Z</time></trkpt><trkpt lat="38.07243227993882" lon="15.853205533554274"><ele>1295.0</ele><time>2026-04-24T14:19:10Z</time></trkpt><trkpt lat="38.07251295514703" lon="15.85326042136687"><ele>1294.6</ele><time>2026-04-24T14:19:11Z</time></trkpt><trkpt lat="38.072602794803714" lon="15.853344382517392"><ele>1294.2</ele><time>2026-04-24T14:19:12Z</time></trkpt><trkpt lat="38.07269057994745" lon="15.853418964618154"><ele>1293.8000000000002</ele><time>2026-04-24T14:19:13Z</time></trkpt><trkpt lat="38.07277638250056" lon="15.853489692739435"><ele>1293.4</ele><time>2026-04-24T14:19:14Z</time></trkpt><trkpt lat="38.07284925291477" lon="15.853570804547871"><ele>1293.0</ele><time>2026-04-24T14:19:15Z</time></trkpt><trkpt lat="38.07290787992345" lon="15.853642370609581"><ele>1293.0</ele><time>2026-04-24T14:19:16Z</time></trkpt><trkpt lat="38.072955429741505" lon="15.853707418064827"><ele>1293.0</ele><time>2026-04-24T14:19:17Z</time></trkpt><trkpt lat="38.07298699972847" lon="15.85387736268461"><ele>1293.0</ele><time>2026-04-24T14:19:19Z</time></trkpt><trkpt lat="38.07296573555536" lon="15.85400145723765"><ele>1293.0</ele><time>2026-04-24T14:19:20Z</time></trkpt><trkpt lat="38.07293595354556" lon="15.854097662646648"><ele>1293.0</ele><time>2026-04-24T14:19:21Z</time></trkpt><trkpt lat="38.07285593077968" lon="15.85426306647626"><ele>1292.6666666666667</ele><time>2026-04-24T14:19:23Z</time></trkpt><trkpt lat="38.072785444114345" lon="15.854363135814271"><ele>1292.3333333333333</ele><time>2026-04-24T14:19:24Z</time></trkpt><trkpt lat="38.07272216705149" lon="15.85446327320912"><ele>1292.0</ele><time>2026-04-24T14:19:25Z</time></trkpt><trkpt lat="38.072681733426634" lon="15.854557593435393"><ele>1291.6666666666665</ele><time>2026-04-24T14:19:26Z</time></trkpt><trkpt lat="38.072640118970426" lon="15.85463060408802"><ele>1291.3333333333333</ele><time>2026-04-24T14:19:27Z</time></trkpt><trkpt lat="38.07258809372701" lon="15.854676001435454"><ele>1291.0</ele><time>2026-04-24T14:19:28Z</time></trkpt><trkpt lat="38.07251094088554" lon="15.854704118452647"><ele>1291.0</ele><time>2026-04-24T14:19:29Z</time></trkpt><trkpt lat="38.07243875105465" lon="15.854716008391632"><ele>1291.0</ele><time>2026-04-24T14:19:30Z</time></trkpt><trkpt lat="38.07239177397729" lon="15.854776159435334"><ele>1291.0</ele><time>2026-04-24T14:19:31Z</time></trkpt><trkpt lat="38.07239108036766" lon="15.854856905238437"><ele>1291.0</ele><time>2026-04-24T14:19:32Z</time></trkpt><trkpt lat="38.07246903191714" lon="15.854984940818202"><ele>1291.0</ele><time>2026-04-24T14:19:34Z</time></trkpt><trkpt lat="38.07249408174936" lon="15.855069953323438"><ele>1291.0</ele><time>2026-04-24T14:19:35Z</time></trkpt><trkpt lat="38.07250925403239" lon="15.855179503058755"><ele>1291.0</ele><time>2026-04-24T14:19:36Z</time></trkpt><trkpt lat="38.07251792235164" lon="15.85531309922071"><ele>1291.0</ele><time>2026-04-24T14:19:37Z</time></trkpt><trkpt lat="38.07252579758397" lon="15.855438138299224"><ele>1291.0</ele><time>2026-04-24T14:19:38Z</time></trkpt><trkpt lat="38.072540477454766" lon="15.855546996100577"><ele>1291.0</ele><time>2026-04-24T14:19:39Z</time></trkpt><trkpt lat="38.07256126403714" lon="15.855646034559433"><ele>1291.0</ele><time>2026-04-24T14:19:40Z</time></trkpt><trkpt lat="38.07257770072759" lon="15.855726167867044"><ele>1291.0</ele><time>2026-04-24T14:19:41Z</time></trkpt><trkpt lat="38.07263949037868" lon="15.855783739796063"><ele>1291.0</ele><time>2026-04-24T14:19:43Z</time></trkpt><trkpt lat="38.072749370033385" lon="15.85571408486943"><ele>1291.0</ele><time>2026-04-24T14:19:45Z</time></trkpt><trkpt lat="38.07288041685671" lon="15.855708235582295"><ele>1291.0</ele><time>2026-04-24T14:19:47Z</time></trkpt><trkpt lat="38.072977513128194" lon="15.855655266190253"><ele>1291.0</ele><time>2026-04-24T14:19:49Z</time></trkpt><trkpt lat="38.07304743339487" lon="15.855545683577914"><ele>1291.0</ele><time>2026-04-24T14:19:51Z</time></trkpt><trkpt lat="38.07315366970332" lon="15.855510955212953"><ele>1291.0</ele><time>2026-04-24T14:19:53Z</time></trkpt><trkpt lat="38.0731462668536" lon="15.855646367228303"><ele>1291.0</ele><time>2026-04-24T14:19:56Z</time></trkpt><trkpt lat="38.07311870046236" lon="15.855735598394137"><ele>1291.0</ele><time>2026-04-24T14:19:57Z</time></trkpt><trkpt lat="38.073079229832906" lon="15.85582333635824"><ele>1291.0</ele><time>2026-04-24T14:19:58Z</time></trkpt><trkpt lat="38.073060660343934" lon="15.855910213216559"><ele>1291.0</ele><time>2026-04-24T14:19:59Z</time></trkpt><trkpt lat="38.073065631392396" lon="15.856024723281848"><ele>1289.0</ele><time>2026-04-24T14:20:00Z</time></trkpt><trkpt lat="38.07307586034998" lon="15.856147452235199"><ele>1287.0</ele><time>2026-04-24T14:20:01Z</time></trkpt><trkpt lat="38.073147233664976" lon="15.856237843813519"><ele>1285.0</ele><time>2026-04-24T14:20:03Z</time></trkpt><trkpt lat="38.07325013677768" lon="15.85615841539286"><ele>1283.0</ele><time>2026-04-24T14:20:05Z</time></trkpt><trkpt lat="38.07329156974323" lon="15.856079258177893"><ele>1281.0</ele><time>2026-04-24T14:20:06Z</time></trkpt><trkpt lat="38.07334020312793" lon="15.855962768902703"><ele>1286.0</ele><time>2026-04-24T14:20:07Z</time></trkpt><trkpt lat="38.07337454847685" lon="15.855828549200165"><ele>1291.0</ele><time>2026-04-24T14:20:08Z</time></trkpt><trkpt lat="38.07341915933913" lon="15.855754617604278"><ele>1296.0</ele><time>2026-04-24T14:20:10Z</time></trkpt><trkpt lat="38.07348744271539" lon="15.855849853512508"><ele>1301.0</ele><time>2026-04-24T14:20:11.999Z</time></trkpt><trkpt lat="38.07349444312648" lon="15.855948696453305"><ele>1306.0</ele><time>2026-04-24T14:20:12.999Z</time></trkpt><trkpt lat="38.07349423199648" lon="15.856077085877141"><ele>1306.0</ele><time>2026-04-24T14:20:13.999Z</time></trkpt><trkpt lat="38.073508249078024" lon="15.85620558545053"><ele>1306.0</ele><time>2026-04-24T14:20:14.999Z</time></trkpt><trkpt lat="38.073531021967234" lon="15.856291575553337"><ele>1306.0</ele><time>2026-04-24T14:20:15.999Z</time></trkpt><trkpt lat="38.07358148419748" lon="15.856415824649956"><ele>1306.0</ele><time>2026-04-24T14:20:17.999Z</time></trkpt><trkpt lat="38.073630680562985" lon="15.856477512155914"><ele>1306.0</ele><time>2026-04-24T14:20:18.999Z</time></trkpt><trkpt lat="38.07369655242612" lon="15.856531125324091"><ele>1306.0</ele><time>2026-04-24T14:20:19.999Z</time></trkpt><trkpt lat="38.07377908276737" lon="15.856588402556124"><ele>1306.0</ele><time>2026-04-24T14:20:20.999Z</time></trkpt><trkpt lat="38.073863391656566" lon="15.856645479920534"><ele>1306.0</ele><time>2026-04-24T14:20:21.999Z</time></trkpt><trkpt lat="38.073931237786965" lon="15.856661618366555"><ele>1306.0</ele><time>2026-04-24T14:20:22.999Z</time></trkpt><trkpt lat="38.07405089726152" lon="15.856590204903656"><ele>1306.0</ele><time>2026-04-24T14:20:25Z</time></trkpt><trkpt lat="38.07412201476233" lon="15.856531270508711"><ele>1306.0</ele><time>2026-04-24T14:20:26Z</time></trkpt><trkpt lat="38.07422435004813" lon="15.856492739278861"><ele>1310.4</ele><time>2026-04-24T14:20:27Z</time></trkpt><trkpt lat="38.074321915833686" lon="15.856499893488076"><ele>1314.8</ele><time>2026-04-24T14:20:28Z</time></trkpt><trkpt lat="38.07441315160963" lon="15.856520971059965"><ele>1319.2</ele><time>2026-04-24T14:20:29Z</time></trkpt><trkpt lat="38.0744924142382" lon="15.85655930153029"><ele>1323.6000000000001</ele><time>2026-04-24T14:20:30Z</time></trkpt><trkpt lat="38.074561022885575" lon="15.856623954357103"><ele>1328.0</ele><time>2026-04-24T14:20:31Z</time></trkpt><trkpt lat="38.07462309855371" lon="15.856709809631795"><ele>1328.0</ele><time>2026-04-24T14:20:32Z</time></trkpt><trkpt lat="38.07468569810405" lon="15.856763364488451"><ele>1328.0</ele><time>2026-04-24T14:20:33Z</time></trkpt><trkpt lat="38.074765630074914" lon="15.856791019877257"><ele>1328.0</ele><time>2026-04-24T14:20:34Z</time></trkpt><trkpt lat="38.074868347421436" lon="15.856801800851386"><ele>1328.0</ele><time>2026-04-24T14:20:35Z</time></trkpt><trkpt lat="38.074973779575515" lon="15.856809196012597"><ele>1328.0</ele><time>2026-04-24T14:20:36Z</time></trkpt><trkpt lat="38.07505686178163" lon="15.856800943350917"><ele>1329.0</ele><time>2026-04-24T14:20:37Z</time></trkpt><trkpt lat="38.07513867502731" lon="15.856782465969735"><ele>1330.0</ele><time>2026-04-24T14:20:38Z</time></trkpt><trkpt lat="38.0752401919952" lon="15.856744625655713"><ele>1331.0</ele><time>2026-04-24T14:20:39Z</time></trkpt><trkpt lat="38.075369254698195" lon="15.856710243724514"><ele>1332.0</ele><time>2026-04-24T14:20:40Z</time></trkpt><trkpt lat="38.07548194606368" lon="15.856686855288054"><ele>1333.0</ele><time>2026-04-24T14:20:41Z</time></trkpt><trkpt lat="38.075587557945305" lon="15.856690715690831"><ele>1333.0</ele><time>2026-04-24T14:20:42Z</time></trkpt><trkpt lat="38.07568460826581" lon="15.856691066802819"><ele>1333.0</ele><time>2026-04-24T14:20:43Z</time></trkpt><trkpt lat="38.0757754300391" lon="15.856673445042691"><ele>1333.0</ele><time>2026-04-24T14:20:44Z</time></trkpt><trkpt lat="38.07586103415362" lon="15.856657376329572"><ele>1333.0</ele><time>2026-04-24T14:20:45Z</time></trkpt><trkpt lat="38.075944281108015" lon="15.856607020874472"><ele>1333.0</ele><time>2026-04-24T14:20:46Z</time></trkpt><trkpt lat="38.07602610074537" lon="15.856532047366015"><ele>1331.2</ele><time>2026-04-24T14:20:47Z</time></trkpt><trkpt lat="38.07609600572565" lon="15.856451615771874"><ele>1329.4</ele><time>2026-04-24T14:20:48Z</time></trkpt><trkpt lat="38.07615861724007" lon="15.85638010415452"><ele>1327.6000000000001</ele><time>2026-04-24T14:20:49Z</time></trkpt><trkpt lat="38.076227322872754" lon="15.856348056777843"><ele>1325.8000000000002</ele><time>2026-04-24T14:20:50Z</time></trkpt><trkpt lat="38.07632470120157" lon="15.856341077536765"><ele>1324.0</ele><time>2026-04-24T14:20:51Z</time></trkpt><trkpt lat="38.07646731642407" lon="15.856341782707842"><ele>1324.0</ele><time>2026-04-24T14:20:52Z</time></trkpt><trkpt lat="38.076584963508274" lon="15.856347900091569"><ele>1324.0</ele><time>2026-04-24T14:20:53Z</time></trkpt><trkpt lat="38.07667333837778" lon="15.85634674717827"><ele>1324.0</ele><time>2026-04-24T14:20:54Z</time></trkpt><trkpt lat="38.07673685778433" lon="15.856345873818745"><ele>1324.0</ele><time>2026-04-24T14:20:55Z</time></trkpt><trkpt lat="38.076857825512604" lon="15.856356170354537"><ele>1324.0</ele><time>2026-04-24T14:20:57Z</time></trkpt><trkpt lat="38.07692904161032" lon="15.856423315421441"><ele>1324.0</ele><time>2026-04-24T14:20:59Z</time></trkpt><trkpt lat="38.07690976989111" lon="15.856538918449692"><ele>1324.0</ele><time>2026-04-24T14:21:01Z</time></trkpt><trkpt lat="38.076919853994625" lon="15.856633491689212"><ele>1324.0</ele><time>2026-04-24T14:21:03Z</time></trkpt><trkpt lat="38.076975054668566" lon="15.85672969285763"><ele>1324.0</ele><time>2026-04-24T14:21:05Z</time></trkpt><trkpt lat="38.07706795411102" lon="15.856798691427732"><ele>1324.0</ele><time>2026-04-24T14:21:07Z</time></trkpt><trkpt lat="38.07717765944977" lon="15.856869047993067"><ele>1325.5</ele><time>2026-04-24T14:21:09Z</time></trkpt><trkpt lat="38.07725230440521" lon="15.856980597171908"><ele>1327.0</ele><time>2026-04-24T14:21:11Z</time></trkpt><trkpt lat="38.07723346856056" lon="15.85708135475752"><ele>1328.5</ele><time>2026-04-24T14:21:13Z</time></trkpt><trkpt lat="38.077168356542614" lon="15.857144643173626"><ele>1330.0</ele><time>2026-04-24T14:21:15Z</time></trkpt><trkpt lat="38.077086939260916" lon="15.857110661707672"><ele>1331.5</ele><time>2026-04-24T14:21:17Z</time></trkpt><trkpt lat="38.07701898204612" lon="15.85710157145274"><ele>1333.0</ele><time>2026-04-24T14:21:18Z</time></trkpt><trkpt lat="38.076943242879445" lon="15.85710849847163"><ele>1333.0</ele><time>2026-04-24T14:21:19Z</time></trkpt><trkpt lat="38.076865578029036" lon="15.857123721336364"><ele>1333.0</ele><time>2026-04-24T14:21:20Z</time></trkpt><trkpt lat="38.07677236790904" lon="15.85714867442201"><ele>1333.0</ele><time>2026-04-24T14:21:21Z</time></trkpt><trkpt lat="38.076674757840436" lon="15.85715754477147"><ele>1333.0</ele><time>2026-04-24T14:21:22Z</time></trkpt><trkpt lat="38.076595447314034" lon="15.857154608337149"><ele>1333.0</ele><time>2026-04-24T14:21:23Z</time></trkpt><trkpt lat="38.07648800269818" lon="15.857188452834393"><ele>1330.2</ele><time>2026-04-24T14:21:25Z</time></trkpt><trkpt lat="38.07640215880448" lon="15.857249083989922"><ele>1327.4</ele><time>2026-04-24T14:21:27Z</time></trkpt><trkpt lat="38.07633927218626" lon="15.857386113037274"><ele>1324.6000000000001</ele><time>2026-04-24T14:21:29Z</time></trkpt><trkpt lat="38.07630828428758" lon="15.857487151535702"><ele>1321.8000000000002</ele><time>2026-04-24T14:21:30Z</time></trkpt><trkpt lat="38.07623351831837" lon="15.85757235459935"><ele>1319.0</ele><time>2026-04-24T14:21:31Z</time></trkpt><trkpt lat="38.07616896669936" lon="15.857670099471365"><ele>1319.0</ele><time>2026-04-24T14:21:32Z</time></trkpt><trkpt lat="38.07612991594803" lon="15.857769140181622"><ele>1319.0</ele><time>2026-04-24T14:21:33Z</time></trkpt><trkpt lat="38.07611246160292" lon="15.857881682385791"><ele>1319.0</ele><time>2026-04-24T14:21:34Z</time></trkpt><trkpt lat="38.076093334344726" lon="15.858027987175543"><ele>1319.0</ele><time>2026-04-24T14:21:35Z</time></trkpt><trkpt lat="38.076061026520655" lon="15.858186899941508"><ele>1319.0</ele><time>2026-04-24T14:21:36Z</time></trkpt><trkpt lat="38.07602700375864" lon="15.858316867355672"><ele>1322.0</ele><time>2026-04-24T14:21:37Z</time></trkpt><trkpt lat="38.07597639590135" lon="15.858452509054253"><ele>1325.0</ele><time>2026-04-24T14:21:38Z</time></trkpt><trkpt lat="38.07593632977401" lon="15.858585851673451"><ele>1328.0</ele><time>2026-04-24T14:21:39Z</time></trkpt><trkpt lat="38.07592682060666" lon="15.858731910663952"><ele>1331.0</ele><time>2026-04-24T14:21:40Z</time></trkpt><trkpt lat="38.075912716154605" lon="15.858924492716964"><ele>1331.0</ele><time>2026-04-24T14:21:41Z</time></trkpt><trkpt lat="38.075895853416384" lon="15.859107716931527"><ele>1331.0</ele><time>2026-04-24T14:21:42Z</time></trkpt><trkpt lat="38.07586864935952" lon="15.859323201147909"><ele>1331.0</ele><time>2026-04-24T14:21:43Z</time></trkpt><trkpt lat="38.07585073265679" lon="15.859515239152792"><ele>1333.6</ele><time>2026-04-24T14:21:44Z</time></trkpt><trkpt lat="38.07582880059825" lon="15.85967203052636"><ele>1336.1999999999998</ele><time>2026-04-24T14:21:45Z</time></trkpt><trkpt lat="38.075816874425776" lon="15.859819173093463"><ele>1338.8000000000002</ele><time>2026-04-24T14:21:46Z</time></trkpt><trkpt lat="38.075824959917625" lon="15.859920016021231"><ele>1341.4</ele><time>2026-04-24T14:21:47Z</time></trkpt><trkpt lat="38.07584976919834" lon="15.860010842374574"><ele>1344.0</ele><time>2026-04-24T14:21:48Z</time></trkpt><trkpt lat="38.07589696088396" lon="15.860135793518818"><ele>1344.6</ele><time>2026-04-24T14:21:49Z</time></trkpt><trkpt lat="38.07594209762111" lon="15.860261633276075"><ele>1345.2</ele><time>2026-04-24T14:21:50Z</time></trkpt><trkpt lat="38.075965552136516" lon="15.860353789877061"><ele>1345.8</ele><time>2026-04-24T14:21:51Z</time></trkpt><trkpt lat="38.075917886107646" lon="15.860417424419369"><ele>1346.3999999999999</ele><time>2026-04-24T14:21:52.999Z</time></trkpt><trkpt lat="38.07578450023851" lon="15.8603819101602"><ele>1347.0</ele><time>2026-04-24T14:21:54.999Z</time></trkpt><trkpt lat="38.07567751801824" lon="15.86034830837068"><ele>1347.0</ele><time>2026-04-24T14:21:55.999Z</time></trkpt><trkpt lat="38.075551467271914" lon="15.86030780420709"><ele>1347.0</ele><time>2026-04-24T14:21:56.999Z</time></trkpt><trkpt lat="38.07543140464344" lon="15.860252788171332"><ele>1347.0</ele><time>2026-04-24T14:21:57.999Z</time></trkpt><trkpt lat="38.075318005150635" lon="15.860155895163784"><ele>1347.0</ele><time>2026-04-24T14:21:58.999Z</time></trkpt><trkpt lat="38.07525477453756" lon="15.860091856895917"><ele>1347.0</ele><time>2026-04-24T14:21:59.999Z</time></trkpt><trkpt lat="38.07516639531594" lon="15.860103834067482"><ele>1347.0</ele><time>2026-04-24T14:22:01.999Z</time></trkpt><trkpt lat="38.07511038526212" lon="15.860177159553864"><ele>1347.0</ele><time>2026-04-24T14:22:02.999Z</time></trkpt><trkpt lat="38.07504584785599" lon="15.860281346107426"><ele>1347.0</ele><time>2026-04-24T14:22:03.999Z</time></trkpt><trkpt lat="38.07497712266586" lon="15.860400513936634"><ele>1347.0</ele><time>2026-04-24T14:22:04.999Z</time></trkpt><trkpt lat="38.074930565693286" lon="15.860502410105596"><ele>1347.0</ele><time>2026-04-24T14:22:05.999Z</time></trkpt><trkpt lat="38.074897274654596" lon="15.860609620212262"><ele>1347.0</ele><time>2026-04-24T14:22:06.999Z</time></trkpt><trkpt lat="38.07489021792948" lon="15.860702769175132"><ele>1347.0</ele><time>2026-04-24T14:22:07.999Z</time></trkpt><trkpt lat="38.074912847584535" lon="15.860797374510204"><ele>1347.0</ele><time>2026-04-24T14:22:08.999Z</time></trkpt><trkpt lat="38.07496295485744" lon="15.860906238628528"><ele>1347.0</ele><time>2026-04-24T14:22:09.999Z</time></trkpt><trkpt lat="38.07501023749144" lon="15.861033465043025"><ele>1347.0</ele><time>2026-04-24T14:22:10.999Z</time></trkpt><trkpt lat="38.0750278547414" lon="15.861177567940175"><ele>1347.0</ele><time>2026-04-24T14:22:11.999Z</time></trkpt><trkpt lat="38.0750125499555" lon="15.861340741372013"><ele>1347.0</ele><time>2026-04-24T14:22:12.999Z</time></trkpt><trkpt lat="38.07497080118277" lon="15.861519421236967"><ele>1347.0</ele><time>2026-04-24T14:22:13.999Z</time></trkpt><trkpt lat="38.07492432297424" lon="15.861674452219171"><ele>1346.9999999999998</ele><time>2026-04-24T14:22:14.999Z</time></trkpt><trkpt lat="38.07487900680331" lon="15.8617853008847"><ele>1347.0</ele><time>2026-04-24T14:22:15.999Z</time></trkpt><trkpt lat="38.07484394339169" lon="15.861863674178078"><ele>1347.0</ele><time>2026-04-24T14:22:16.999Z</time></trkpt><trkpt lat="38.074792689314016" lon="15.861913194667475"><ele>1347.0</ele><time>2026-04-24T14:22:17.999Z</time></trkpt><trkpt lat="38.074716120500085" lon="15.861913082567387"><ele>1347.0</ele><time>2026-04-24T14:22:18.999Z</time></trkpt><trkpt lat="38.07465491222594" lon="15.861884544050445"><ele>1346.9999999999998</ele><time>2026-04-24T14:22:19.999Z</time></trkpt><trkpt lat="38.074617911597294" lon="15.861810718194306"><ele>1347.0</ele><time>2026-04-24T14:22:20.999Z</time></trkpt><trkpt lat="38.074581756179086" lon="15.86171800135307"><ele>1347.0</ele><time>2026-04-24T14:22:21.999Z</time></trkpt><trkpt lat="38.07452456364685" lon="15.8616428522252"><ele>1347.0</ele><time>2026-04-24T14:22:22.999Z</time></trkpt><trkpt lat="38.074437438358615" lon="15.861625487404048"><ele>1347.0</ele><time>2026-04-24T14:22:23.999Z</time></trkpt><trkpt lat="38.07432805287461" lon="15.861637763627362"><ele>1347.0</ele><time>2026-04-24T14:22:24.999Z</time></trkpt><trkpt lat="38.07419389199338" lon="15.861639894580133"><ele>1347.0</ele><time>2026-04-24T14:22:25.999Z</time></trkpt><trkpt lat="38.07410182694574" lon="15.861628714507654"><ele>1347.8</ele><time>2026-04-24T14:22:26.999Z</time></trkpt><trkpt lat="38.07398953754908" lon="15.861700070789498"><ele>1348.6</ele><time>2026-04-24T14:22:28.999Z</time></trkpt><trkpt lat="38.07392711159432" lon="15.861809230194543"><ele>1349.3999999999999</ele><time>2026-04-24T14:22:29.999Z</time></trkpt><trkpt lat="38.07389509909531" lon="15.861931324432787"><ele>1350.1999999999998</ele><time>2026-04-24T14:22:31Z</time></trkpt><trkpt lat="38.073885089588885" lon="15.86206307670326"><ele>1351.0</ele><time>2026-04-24T14:22:32Z</time></trkpt><trkpt lat="38.0738664095328" lon="15.862209028206692"><ele>1351.0</ele><time>2026-04-24T14:22:33Z</time></trkpt><trkpt lat="38.07384980412779" lon="15.862326914694549"><ele>1351.0</ele><time>2026-04-24T14:22:34Z</time></trkpt><trkpt lat="38.073804159708274" lon="15.862406748965105"><ele>1351.0</ele><time>2026-04-24T14:22:35Z</time></trkpt><trkpt lat="38.07373303022759" lon="15.862453028526959"><ele>1351.0</ele><time>2026-04-24T14:22:36Z</time></trkpt><trkpt lat="38.07363618650255" lon="15.862484085772378"><ele>1351.0</ele><time>2026-04-24T14:22:37Z</time></trkpt><trkpt lat="38.073523219140675" lon="15.862494329166642"><ele>1351.0</ele><time>2026-04-24T14:22:38Z</time></trkpt><trkpt lat="38.07345995694863" lon="15.862495883404574"><ele>1351.0</ele><time>2026-04-24T14:22:39Z</time></trkpt><trkpt lat="38.07349386913206" lon="15.862601764496858"><ele>1351.0</ele><time>2026-04-24T14:22:44Z</time></trkpt><trkpt lat="38.07350247364955" lon="15.862814242234696"><ele>1351.0</ele><time>2026-04-24T14:23:42.999Z</time></trkpt><trkpt lat="38.07344986477926" lon="15.862921368920203"><ele>1351.0</ele><time>2026-04-24T14:23:44.999Z</time></trkpt><trkpt lat="38.07349133941314" lon="15.86301442410968"><ele>1351.6</ele><time>2026-04-24T14:23:46.999Z</time></trkpt><trkpt lat="38.07361531589644" lon="15.863065364488468"><ele>1352.1999999999998</ele><time>2026-04-24T14:23:48.999Z</time></trkpt><trkpt lat="38.07369462673617" lon="15.863037863173728"><ele>1352.8000000000002</ele><time>2026-04-24T14:23:49.999Z</time></trkpt><trkpt lat="38.07378276199513" lon="15.862965062065895"><ele>1353.4</ele><time>2026-04-24T14:23:50.999Z</time></trkpt><trkpt lat="38.0738786582352" lon="15.86285873447469"><ele>1354.0</ele><time>2026-04-24T14:23:51.999Z</time></trkpt><trkpt lat="38.07397884858736" lon="15.862753602655806"><ele>1354.0</ele><time>2026-04-24T14:23:52.999Z</time></trkpt><trkpt lat="38.07407530661207" lon="15.862672647418313"><ele>1354.0</ele><time>2026-04-24T14:23:53.999Z</time></trkpt><trkpt lat="38.07415702924019" lon="15.862620787923385"><ele>1354.0</ele><time>2026-04-24T14:23:54.999Z</time></trkpt><trkpt lat="38.0742225174925" lon="15.862608346058131"><ele>1354.0</ele><time>2026-04-24T14:23:55.999Z</time></trkpt><trkpt lat="38.07425680663185" lon="15.862688209540392"><ele>1354.0</ele><time>2026-04-24T14:23:57.999Z</time></trkpt><trkpt lat="38.07417948693621" lon="15.862806811549449"><ele>1357.0</ele><time>2026-04-24T14:23:59.999Z</time></trkpt><trkpt lat="38.074128729007235" lon="15.862865358810787"><ele>1360.0</ele><time>2026-04-24T14:24:00.999Z</time></trkpt><trkpt lat="38.074167864568494" lon="15.86294947717653"><ele>1363.0</ele><time>2026-04-24T14:24:02.999Z</time></trkpt><trkpt lat="38.07429812603492" lon="15.862905967488938"><ele>1366.0</ele><time>2026-04-24T14:24:04.999Z</time></trkpt><trkpt lat="38.07436804409155" lon="15.862856329476166"><ele>1369.0</ele><time>2026-04-24T14:24:05.999Z</time></trkpt><trkpt lat="38.07444927876345" lon="15.862806489843452"><ele>1369.0</ele><time>2026-04-24T14:24:06.999Z</time></trkpt><trkpt lat="38.074535577339766" lon="15.862766690900148"><ele>1369.0</ele><time>2026-04-24T14:24:07.999Z</time></trkpt><trkpt lat="38.074630403957016" lon="15.86273629364649"><ele>1369.0</ele><time>2026-04-24T14:24:08.999Z</time></trkpt><trkpt lat="38.07472952746609" lon="15.862719388612232"><ele>1369.0</ele><time>2026-04-24T14:24:09.999Z</time></trkpt><trkpt lat="38.07482951514454" lon="15.862715470714909"><ele>1369.0</ele><time>2026-04-24T14:24:10.999Z</time></trkpt><trkpt lat="38.07493286398581" lon="15.862723238873222"><ele>1372.4</ele><time>2026-04-24T14:24:11.999Z</time></trkpt><trkpt lat="38.075037477383454" lon="15.862745470474128"><ele>1375.8000000000002</ele><time>2026-04-24T14:24:12.999Z</time></trkpt><trkpt lat="38.075143137327004" lon="15.862769352051995"><ele>1379.1999999999998</ele><time>2026-04-24T14:24:13.999Z</time></trkpt><trkpt lat="38.07523036387039" lon="15.862765023570553"><ele>1382.6</ele><time>2026-04-24T14:24:14.999Z</time></trkpt><trkpt lat="38.07529093335309" lon="15.862716497102127"><ele>1386.0</ele><time>2026-04-24T14:24:15.999Z</time></trkpt><trkpt lat="38.07534383473537" lon="15.862639320326682"><ele>1382.6</ele><time>2026-04-24T14:24:16.999Z</time></trkpt><trkpt lat="38.07538506675038" lon="15.862538016570088"><ele>1379.1999999999998</ele><time>2026-04-24T14:24:17.999Z</time></trkpt><trkpt lat="38.075405552753026" lon="15.862417999655024"><ele>1375.8000000000002</ele><time>2026-04-24T14:24:18.999Z</time></trkpt><trkpt lat="38.07542799474573" lon="15.862301399419417"><ele>1372.4</ele><time>2026-04-24T14:24:19.999Z</time></trkpt><trkpt lat="38.07547909883869" lon="15.86221069920723"><ele>1369.0</ele><time>2026-04-24T14:24:20.999Z</time></trkpt><trkpt lat="38.075562310018555" lon="15.862142910427005"><ele>1369.0</ele><time>2026-04-24T14:24:21.999Z</time></trkpt><trkpt lat="38.07566103737389" lon="15.862091048955028"><ele>1369.0</ele><time>2026-04-24T14:24:22.999Z</time></trkpt><trkpt lat="38.075764239055786" lon="15.86207194105587"><ele>1369.0</ele><time>2026-04-24T14:24:23.999Z</time></trkpt><trkpt lat="38.07586899356907" lon="15.86209227580668"><ele>1369.0</ele><time>2026-04-24T14:24:24.999Z</time></trkpt><trkpt lat="38.07598205026756" lon="15.86213961314124"><ele>1369.0</ele><time>2026-04-24T14:24:25.999Z</time></trkpt><trkpt lat="38.07611433570177" lon="15.86219973435846"><ele>1373.25</ele><time>2026-04-24T14:24:26.999Z</time></trkpt><trkpt lat="38.07627107263305" lon="15.862269384305979"><ele>1377.5</ele><time>2026-04-24T14:24:27.999Z</time></trkpt><trkpt lat="38.07639479845231" lon="15.862313654692901"><ele>1381.75</ele><time>2026-04-24T14:24:28.999Z</time></trkpt><trkpt lat="38.07650396912641" lon="15.86235185448676"><ele>1386.0</ele><time>2026-04-24T14:24:29.999Z</time></trkpt><trkpt lat="38.076599630250804" lon="15.862403193831254"><ele>1387.1666666666667</ele><time>2026-04-24T14:24:30.999Z</time></trkpt><trkpt lat="38.076668298923444" lon="15.86246861191659"><ele>1388.3333333333333</ele><time>2026-04-24T14:24:31.999Z</time></trkpt><trkpt lat="38.076722367190214" lon="15.862551645652372"><ele>1389.5</ele><time>2026-04-24T14:24:32.999Z</time></trkpt><trkpt lat="38.07676460670698" lon="15.862632010492382"><ele>1390.6666666666665</ele><time>2026-04-24T14:24:33.999Z</time></trkpt><trkpt lat="38.076867167774424" lon="15.862661192415336"><ele>1391.8333333333333</ele><time>2026-04-24T14:24:35.999Z</time></trkpt><trkpt lat="38.07692518500985" lon="15.86262502795353"><ele>1393.0</ele><time>2026-04-24T14:24:37Z</time></trkpt><trkpt lat="38.07699138859459" lon="15.862560206433795"><ele>1393.0</ele><time>2026-04-24T14:24:38Z</time></trkpt><trkpt lat="38.07706891638893" lon="15.862472876051289"><ele>1393.0</ele><time>2026-04-24T14:24:39Z</time></trkpt><trkpt lat="38.07715148550159" lon="15.86240783044827"><ele>1393.0</ele><time>2026-04-24T14:24:40Z</time></trkpt><trkpt lat="38.07722729858177" lon="15.862380943253436"><ele>1393.0</ele><time>2026-04-24T14:24:41Z</time></trkpt><trkpt lat="38.07731678197756" lon="15.862389996817216"><ele>1393.0</ele><time>2026-04-24T14:24:42Z</time></trkpt><trkpt lat="38.077403733446744" lon="15.862397516194672"><ele>1395.6000000000001</ele><time>2026-04-24T14:24:43Z</time></trkpt><trkpt lat="38.07748090065528" lon="15.862287993283228"><ele>1398.2</ele><time>2026-04-24T14:24:45Z</time></trkpt><trkpt lat="38.077480036199645" lon="15.862180368774203"><ele>1400.8</ele><time>2026-04-24T14:24:46Z</time></trkpt><trkpt lat="38.077467463495495" lon="15.862025490045356"><ele>1403.4</ele><time>2026-04-24T14:24:47Z</time></trkpt><trkpt lat="38.07748827280673" lon="15.861871496766417"><ele>1406.0</ele><time>2026-04-24T14:24:48Z</time></trkpt><trkpt lat="38.07755690895503" lon="15.861755640316392"><ele>1406.0</ele><time>2026-04-24T14:24:49Z</time></trkpt><trkpt lat="38.07763366371223" lon="15.861697748223575"><ele>1406.0</ele><time>2026-04-24T14:24:50Z</time></trkpt><trkpt lat="38.077714997292" lon="15.861618832990326"><ele>1406.0</ele><time>2026-04-24T14:24:51Z</time></trkpt><trkpt lat="38.0778427333354" lon="15.861505368590445"><ele>1406.0</ele><time>2026-04-24T14:24:52Z</time></trkpt><trkpt lat="38.07798746386439" lon="15.861391104403495"><ele>1406.0</ele><time>2026-04-24T14:24:53Z</time></trkpt><trkpt lat="38.07810500228563" lon="15.861312400519138"><ele>1406.0</ele><time>2026-04-24T14:24:54Z</time></trkpt><trkpt lat="38.078205410507834" lon="15.861281351214055"><ele>1406.0</ele><time>2026-04-24T14:24:55Z</time></trkpt><trkpt lat="38.07830503320908" lon="15.861273352428073"><ele>1406.0</ele><time>2026-04-24T14:24:56Z</time></trkpt><trkpt lat="38.078432387441865" lon="15.861285041343033"><ele>1410.3333333333335</ele><time>2026-04-24T14:24:57Z</time></trkpt><trkpt lat="38.07857842442408" lon="15.861296921262332"><ele>1414.6666666666667</ele><time>2026-04-24T14:24:58Z</time></trkpt><trkpt lat="38.07875521367802" lon="15.861319871072647"><ele>1419.0</ele><time>2026-04-24T14:24:59Z</time></trkpt><trkpt lat="38.07891149667927" lon="15.861334326287931"><ele>1419.0</ele><time>2026-04-24T14:25:00Z</time></trkpt><trkpt lat="38.07904787353507" lon="15.86133991796442"><ele>1419.0</ele><time>2026-04-24T14:25:01Z</time></trkpt><trkpt lat="38.079163189549355" lon="15.861362530735212"><ele>1419.0</ele><time>2026-04-24T14:25:02Z</time></trkpt><trkpt lat="38.07926836978203" lon="15.861396337204425"><ele>1419.0</ele><time>2026-04-24T14:25:03Z</time></trkpt><trkpt lat="38.079365599618434" lon="15.861393181308333"><ele>1418.2</ele><time>2026-04-24T14:25:04Z</time></trkpt><trkpt lat="38.07946175773199" lon="15.861332644704037"><ele>1417.4</ele><time>2026-04-24T14:25:05Z</time></trkpt><trkpt lat="38.079565564931016" lon="15.861245394190615"><ele>1416.6</ele><time>2026-04-24T14:25:06Z</time></trkpt><trkpt lat="38.07966843977235" lon="15.861158259186803"><ele>1415.8</ele><time>2026-04-24T14:25:07Z</time></trkpt><trkpt lat="38.079760393373164" lon="15.861137438967493"><ele>1415.0</ele><time>2026-04-24T14:25:08Z</time></trkpt><trkpt lat="38.07982512875711" lon="15.86116614298627"><ele>1415.0</ele><time>2026-04-24T14:25:09Z</time></trkpt><trkpt lat="38.07992186968331" lon="15.861210227646847"><ele>1415.0</ele><time>2026-04-24T14:25:10Z</time></trkpt><trkpt lat="38.08002783266848" lon="15.861210078532284"><ele>1415.0</ele><time>2026-04-24T14:25:11Z</time></trkpt><trkpt lat="38.08011012260554" lon="15.861139036628094"><ele>1415.0</ele><time>2026-04-24T14:25:12Z</time></trkpt><trkpt lat="38.080186004821115" lon="15.861055382837964"><ele>1415.0</ele><time>2026-04-24T14:25:13Z</time></trkpt><trkpt lat="38.08025637926346" lon="15.861012568914292"><ele>1415.0</ele><time>2026-04-24T14:25:14Z</time></trkpt><trkpt lat="38.08035771981307" lon="15.861033793987158"><ele>1415.0</ele><time>2026-04-24T14:25:15Z</time></trkpt><trkpt lat="38.080465023493225" lon="15.861087617131693"><ele>1415.0</ele><time>2026-04-24T14:25:16Z</time></trkpt><trkpt lat="38.08058890616154" lon="15.86117770695911"><ele>1415.0</ele><time>2026-04-24T14:25:17Z</time></trkpt><trkpt lat="38.08071751730191" lon="15.861251741891493"><ele>1411.75</ele><time>2026-04-24T14:25:18Z</time></trkpt><trkpt lat="38.080830648674905" lon="15.861253578888032"><ele>1408.5</ele><time>2026-04-24T14:25:19Z</time></trkpt><trkpt lat="38.080951586632565" lon="15.861224430272385"><ele>1405.25</ele><time>2026-04-24T14:25:20Z</time></trkpt><trkpt lat="38.08110277867157" lon="15.861173504882682"><ele>1402.0</ele><time>2026-04-24T14:25:21Z</time></trkpt><trkpt lat="38.08124392640208" lon="15.861128180877795"><ele>1402.0</ele><time>2026-04-24T14:25:22Z</time></trkpt><trkpt lat="38.081358708607794" lon="15.86109855213412"><ele>1402.0</ele><time>2026-04-24T14:25:23Z</time></trkpt><trkpt lat="38.08146029453434" lon="15.861040716970416"><ele>1402.0</ele><time>2026-04-24T14:25:24Z</time></trkpt><trkpt lat="38.0815515201296" lon="15.86092463879934"><ele>1402.0</ele><time>2026-04-24T14:25:25Z</time></trkpt><trkpt lat="38.08166449476331" lon="15.860800424153805"><ele>1402.0</ele><time>2026-04-24T14:25:26Z</time></trkpt><trkpt lat="38.08179021130085" lon="15.860698501181332"><ele>1402.0</ele><time>2026-04-24T14:25:27Z</time></trkpt><trkpt lat="38.08191828924135" lon="15.86064976038797"><ele>1402.0</ele><time>2026-04-24T14:25:28Z</time></trkpt><trkpt lat="38.08204936047339" lon="15.860601816528302"><ele>1402.0</ele><time>2026-04-24T14:25:29Z</time></trkpt><trkpt lat="38.08219081644236" lon="15.860532657823018"><ele>1402.0</ele><time>2026-04-24T14:25:30Z</time></trkpt><trkpt lat="38.08230796704903" lon="15.860450889973741"><ele>1402.0</ele><time>2026-04-24T14:25:31Z</time></trkpt><trkpt lat="38.08241250709281" lon="15.860376839077338"><ele>1402.0</ele><time>2026-04-24T14:25:32Z</time></trkpt><trkpt lat="38.082516502353045" lon="15.860309329333992"><ele>1402.0</ele><time>2026-04-24T14:25:33Z</time></trkpt><trkpt lat="38.08263828291508" lon="15.860245274272428"><ele>1401.3333333333333</ele><time>2026-04-24T14:25:34Z</time></trkpt><trkpt lat="38.082794155563505" lon="15.86018794574037"><ele>1400.6666666666667</ele><time>2026-04-24T14:25:35Z</time></trkpt><trkpt lat="38.082951826330685" lon="15.860117225190931"><ele>1400.0</ele><time>2026-04-24T14:25:36Z</time></trkpt><trkpt lat="38.083093163657004" lon="15.86004527477685"><ele>1402.0</ele><time>2026-04-24T14:25:36.999Z</time></trkpt><trkpt lat="38.083210782681284" lon="15.859964435822544"><ele>1404.0</ele><time>2026-04-24T14:25:37.999Z</time></trkpt><trkpt lat="38.08330866243617" lon="15.859894158973773"><ele>1406.0</ele><time>2026-04-24T14:25:38.999Z</time></trkpt><trkpt lat="38.083378240295644" lon="15.859850199831328"><ele>1408.0</ele><time>2026-04-24T14:25:39.999Z</time></trkpt><trkpt lat="38.08347195372928" lon="15.859889134847752"><ele>1410.0</ele><time>2026-04-24T14:25:41.999Z</time></trkpt><trkpt lat="38.083524194183994" lon="15.859971974982281"><ele>1409.2</ele><time>2026-04-24T14:25:42.999Z</time></trkpt><trkpt lat="38.083605043141105" lon="15.860094366648802"><ele>1408.4</ele><time>2026-04-24T14:25:43.999Z</time></trkpt><trkpt lat="38.08369028571299" lon="15.86018541903422"><ele>1407.6</ele><time>2026-04-24T14:25:44.999Z</time></trkpt><trkpt lat="38.08379401065405" lon="15.86024902120959"><ele>1406.8</ele><time>2026-04-24T14:25:45.999Z</time></trkpt><trkpt lat="38.083876057986735" lon="15.860282633360473"><ele>1406.0</ele><time>2026-04-24T14:25:46.999Z</time></trkpt><trkpt lat="38.08396381709027" lon="15.860285073181952"><ele>1406.0</ele><time>2026-04-24T14:25:47.999Z</time></trkpt><trkpt lat="38.08405088467672" lon="15.860251078264215"><ele>1406.0</ele><time>2026-04-24T14:25:48.999Z</time></trkpt><trkpt lat="38.084147616698985" lon="15.860175627230246"><ele>1406.0</ele><time>2026-04-24T14:25:49.999Z</time></trkpt><trkpt lat="38.08425702945074" lon="15.860102136299242"><ele>1406.0</ele><time>2026-04-24T14:25:50.999Z</time></trkpt><trkpt lat="38.08434862521342" lon="15.860033175382101"><ele>1406.0</ele><time>2026-04-24T14:25:51.999Z</time></trkpt><trkpt lat="38.0844355727167" lon="15.859948622602907"><ele>1408.4</ele><time>2026-04-24T14:25:52.999Z</time></trkpt><trkpt lat="38.084507693264406" lon="15.859844214334876"><ele>1410.8</ele><time>2026-04-24T14:25:53.999Z</time></trkpt><trkpt lat="38.08457187532728" lon="15.859769032163374"><ele>1413.2</ele><time>2026-04-24T14:25:54.999Z</time></trkpt><trkpt lat="38.08463308294441" lon="15.859740738269625"><ele>1415.6000000000001</ele><time>2026-04-24T14:25:55.999Z</time></trkpt><trkpt lat="38.08473965450696" lon="15.85981642188265"><ele>1418.0</ele><time>2026-04-24T14:25:57.999Z</time></trkpt><trkpt lat="38.084780782433654" lon="15.859904345913073"><ele>1418.0</ele><time>2026-04-24T14:25:58.999Z</time></trkpt><trkpt lat="38.084836062098255" lon="15.860027691739528"><ele>1418.0</ele><time>2026-04-24T14:25:59.999Z</time></trkpt><trkpt lat="38.0849140289335" lon="15.860138301693286"><ele>1418.0</ele><time>2026-04-24T14:26:00.999Z</time></trkpt><trkpt lat="38.08502646726071" lon="15.860232204596693"><ele>1418.0</ele><time>2026-04-24T14:26:01.999Z</time></trkpt><trkpt lat="38.08515239196249" lon="15.860345669941802"><ele>1417.5</ele><time>2026-04-24T14:26:02.999Z</time></trkpt><trkpt lat="38.08524919773843" lon="15.860457194480887"><ele>1417.0</ele><time>2026-04-24T14:26:03.999Z</time></trkpt><trkpt lat="38.08532793493618" lon="15.860562202888863"><ele>1416.5</ele><time>2026-04-24T14:26:04.999Z</time></trkpt><trkpt lat="38.085391966697124" lon="15.860684064397566"><ele>1416.0</ele><time>2026-04-24T14:26:05.999Z</time></trkpt><trkpt lat="38.08544261915988" lon="15.860830590820655"><ele>1414.75</ele><time>2026-04-24T14:26:06.999Z</time></trkpt><trkpt lat="38.08548431836723" lon="15.860998608868982"><ele>1413.5</ele><time>2026-04-24T14:26:07.999Z</time></trkpt><trkpt lat="38.085516737906595" lon="15.861183221645014"><ele>1412.25</ele><time>2026-04-24T14:26:08.999Z</time></trkpt><trkpt lat="38.08552728709659" lon="15.861375145308914"><ele>1411.0</ele><time>2026-04-24T14:26:09.999Z</time></trkpt><trkpt lat="38.08553715096666" lon="15.861527710030368"><ele>1411.0</ele><time>2026-04-24T14:26:10.999Z</time></trkpt><trkpt lat="38.08556347627621" lon="15.861657911520599"><ele>1411.0</ele><time>2026-04-24T14:26:11.999Z</time></trkpt><trkpt lat="38.08561797983633" lon="15.861790284567522"><ele>1411.0</ele><time>2026-04-24T14:26:12.999Z</time></trkpt><trkpt lat="38.08571000093301" lon="15.861934436132238"><ele>1411.0</ele><time>2026-04-24T14:26:13.999Z</time></trkpt><trkpt lat="38.08580921140328" lon="15.862089814375565"><ele>1411.25</ele><time>2026-04-24T14:26:14.999Z</time></trkpt><trkpt lat="38.08591536969504" lon="15.862233162376116"><ele>1411.5</ele><time>2026-04-24T14:26:15.999Z</time></trkpt><trkpt lat="38.08602771288212" lon="15.862359167766682"><ele>1411.75</ele><time>2026-04-24T14:26:16.999Z</time></trkpt><trkpt lat="38.08613775148075" lon="15.862456771735157"><ele>1412.0</ele><time>2026-04-24T14:26:17.999Z</time></trkpt><trkpt lat="38.08626075161751" lon="15.86254682570699"><ele>1411.25</ele><time>2026-04-24T14:26:18.999Z</time></trkpt><trkpt lat="38.086393484981194" lon="15.86262616701103"><ele>1410.5</ele><time>2026-04-24T14:26:19.999Z</time></trkpt><trkpt lat="38.08653447109394" lon="15.862702240794295"><ele>1409.75</ele><time>2026-04-24T14:26:20.999Z</time></trkpt><trkpt lat="38.08666771552228" lon="15.862777668440229"><ele>1409.0</ele><time>2026-04-24T14:26:21.999Z</time></trkpt><trkpt lat="38.08678586633348" lon="15.86284034590982"><ele>1409.0</ele><time>2026-04-24T14:26:22.999Z</time></trkpt><trkpt lat="38.086909128947504" lon="15.862901189632849"><ele>1409.0</ele><time>2026-04-24T14:26:23.999Z</time></trkpt><trkpt lat="38.08703212211683" lon="15.862977869086391"><ele>1409.0</ele><time>2026-04-24T14:26:24.999Z</time></trkpt><trkpt lat="38.08714332300712" lon="15.863050298915473"><ele>1409.0</ele><time>2026-04-24T14:26:25.999Z</time></trkpt><trkpt lat="38.08724966447623" lon="15.86314125654028"><ele>1409.0</ele><time>2026-04-24T14:26:26.999Z</time></trkpt><trkpt lat="38.08735771501692" lon="15.86324836491412"><ele>1409.0</ele><time>2026-04-24T14:26:27.999Z</time></trkpt><trkpt lat="38.087469557360386" lon="15.863363849329478"><ele>1409.0</ele><time>2026-04-24T14:26:28.999Z</time></trkpt><trkpt lat="38.08757531479737" lon="15.863492212406172"><ele>1409.0</ele><time>2026-04-24T14:26:29.999Z</time></trkpt><trkpt lat="38.08767221032363" lon="15.863648568661349"><ele>1406.75</ele><time>2026-04-24T14:26:30.999Z</time></trkpt><trkpt lat="38.087747646504496" lon="15.863815203710448"><ele>1404.5</ele><time>2026-04-24T14:26:31.999Z</time></trkpt><trkpt lat="38.08781611225332" lon="15.86397322400217"><ele>1402.25</ele><time>2026-04-24T14:26:32.999Z</time></trkpt><trkpt lat="38.087871903803446" lon="15.864121351421224"><ele>1400.0</ele><time>2026-04-24T14:26:33.999Z</time></trkpt><trkpt lat="38.08790217868093" lon="15.864248680917791"><ele>1398.6</ele><time>2026-04-24T14:26:34.999Z</time></trkpt><trkpt lat="38.08790539138697" lon="15.864358333035982"><ele>1397.2</ele><time>2026-04-24T14:26:35.999Z</time></trkpt><trkpt lat="38.08787979711645" lon="15.864464012005154"><ele>1395.8000000000002</ele><time>2026-04-24T14:26:36.999Z</time></trkpt><trkpt lat="38.08782652471326" lon="15.864571115233481"><ele>1394.4</ele><time>2026-04-24T14:26:37.999Z</time></trkpt><trkpt lat="38.08776432334991" lon="15.864736300667333"><ele>1393.0</ele><time>2026-04-24T14:26:38.999Z</time></trkpt><trkpt lat="38.08771804305221" lon="15.864915409273586"><ele>1393.0</ele><time>2026-04-24T14:26:39.999Z</time></trkpt><trkpt lat="38.08768983467016" lon="15.86509287003207"><ele>1393.0</ele><time>2026-04-24T14:26:40.999Z</time></trkpt><trkpt lat="38.08767392824836" lon="15.865259820622478"><ele>1393.0</ele><time>2026-04-24T14:26:41.999Z</time></trkpt><trkpt lat="38.087662169180675" lon="15.865395402676985"><ele>1393.0</ele><time>2026-04-24T14:26:43Z</time></trkpt><trkpt lat="38.087670401475386" lon="15.865516931168418"><ele>1391.75</ele><time>2026-04-24T14:26:44Z</time></trkpt><trkpt lat="38.0877088849463" lon="15.865648369982045"><ele>1390.5</ele><time>2026-04-24T14:26:45Z</time></trkpt><trkpt lat="38.087751694319934" lon="15.865797112267995"><ele>1389.25</ele><time>2026-04-24T14:26:46Z</time></trkpt><trkpt lat="38.087823179061786" lon="15.865964792564641"><ele>1388.0</ele><time>2026-04-24T14:26:47Z</time></trkpt><trkpt lat="38.08787117003134" lon="15.866108110748247"><ele>1388.0</ele><time>2026-04-24T14:26:48Z</time></trkpt><trkpt lat="38.08789580944211" lon="15.86624054162723"><ele>1388.0</ele><time>2026-04-24T14:26:49Z</time></trkpt><trkpt lat="38.08789178139983" lon="15.86636985210103"><ele>1388.0</ele><time>2026-04-24T14:26:50Z</time></trkpt><trkpt lat="38.08787342270324" lon="15.866515357633356"><ele>1388.0</ele><time>2026-04-24T14:26:51Z</time></trkpt><trkpt lat="38.08786036994868" lon="15.866651884558944"><ele>1388.0</ele><time>2026-04-24T14:26:52Z</time></trkpt><trkpt lat="38.08788030048066" lon="15.866745497766878"><ele>1388.0</ele><time>2026-04-24T14:26:53Z</time></trkpt><trkpt lat="38.08794322585374" lon="15.866801335169233"><ele>1388.0</ele><time>2026-04-24T14:26:54Z</time></trkpt><trkpt lat="38.08803446027365" lon="15.866854208880946"><ele>1388.0</ele><time>2026-04-24T14:26:55Z</time></trkpt><trkpt lat="38.08814642948953" lon="15.86692240416395"><ele>1388.0</ele><time>2026-04-24T14:26:56Z</time></trkpt><trkpt lat="38.088251229453" lon="15.86698798239299"><ele>1388.0</ele><time>2026-04-24T14:26:57Z</time></trkpt><trkpt lat="38.08836217977166" lon="15.867041214896581"><ele>1388.0</ele><time>2026-04-24T14:26:58Z</time></trkpt><trkpt lat="38.0884839690329" lon="15.867066838842183"><ele>1388.0</ele><time>2026-04-24T14:26:59Z</time></trkpt><trkpt lat="38.088604861396966" lon="15.86708520877835"><ele>1388.0</ele><time>2026-04-24T14:27:00Z</time></trkpt><trkpt lat="38.08872174870865" lon="15.867123833604989"><ele>1388.0</ele><time>2026-04-24T14:27:01Z</time></trkpt><trkpt lat="38.088833600229584" lon="15.867186435637631"><ele>1388.0</ele><time>2026-04-24T14:27:02Z</time></trkpt><trkpt lat="38.08894041715281" lon="15.867262359612745"><ele>1388.0</ele><time>2026-04-24T14:27:03Z</time></trkpt><trkpt lat="38.0890433625159" lon="15.867351810027259"><ele>1388.0</ele><time>2026-04-24T14:27:04Z</time></trkpt><trkpt lat="38.08915740201928" lon="15.867453369348322"><ele>1388.0</ele><time>2026-04-24T14:27:05Z</time></trkpt><trkpt lat="38.08928824117336" lon="15.867545995888102"><ele>1386.0</ele><time>2026-04-24T14:27:06Z</time></trkpt><trkpt lat="38.089453190133035" lon="15.86766652642086"><ele>1384.0</ele><time>2026-04-24T14:27:07Z</time></trkpt><trkpt lat="38.08962549877769" lon="15.86780753007364"><ele>1382.0</ele><time>2026-04-24T14:27:08Z</time></trkpt><trkpt lat="38.089789138530314" lon="15.867952986216032"><ele>1385.6666666666667</ele><time>2026-04-24T14:27:09Z</time></trkpt><trkpt lat="38.08994749327119" lon="15.868072635227351"><ele>1389.3333333333333</ele><time>2026-04-24T14:27:10Z</time></trkpt><trkpt lat="38.09006913911575" lon="15.86820131628567"><ele>1393.0</ele><time>2026-04-24T14:27:11Z</time></trkpt><trkpt lat="38.090210616278675" lon="15.868361208166185"><ele>1392.25</ele><time>2026-04-24T14:27:12Z</time></trkpt><trkpt lat="38.09034341489599" lon="15.868517432377676"><ele>1391.5</ele><time>2026-04-24T14:27:13Z</time></trkpt><trkpt lat="38.090432205553235" lon="15.868630683618631"><ele>1390.75</ele><time>2026-04-24T14:27:14Z</time></trkpt><trkpt lat="38.090483046310375" lon="15.8687111954815"><ele>1390.0</ele><time>2026-04-24T14:27:15Z</time></trkpt><trkpt lat="38.09048849951456" lon="15.868832550796728"><ele>1390.0</ele><time>2026-04-24T14:27:17Z</time></trkpt><trkpt lat="38.09045498470845" lon="15.868928754406827"><ele>1390.0</ele><time>2026-04-24T14:27:18Z</time></trkpt><trkpt lat="38.09041580420979" lon="15.869061669636713"><ele>1390.0</ele><time>2026-04-24T14:27:19Z</time></trkpt><trkpt lat="38.09038337106951" lon="15.869217480233985"><ele>1390.0</ele><time>2026-04-24T14:27:20Z</time></trkpt><trkpt lat="38.090374230221755" lon="15.869382992623116"><ele>1391.5</ele><time>2026-04-24T14:27:21Z</time></trkpt><trkpt lat="38.090374755929446" lon="15.869544035345042"><ele>1393.0</ele><time>2026-04-24T14:27:22Z</time></trkpt><trkpt lat="38.09038135937809" lon="15.86969382881377"><ele>1394.5</ele><time>2026-04-24T14:27:23Z</time></trkpt><trkpt lat="38.090412923221294" lon="15.86986879280686"><ele>1396.0</ele><time>2026-04-24T14:27:24Z</time></trkpt><trkpt lat="38.09046670038549" lon="15.870067229593158"><ele>1397.25</ele><time>2026-04-24T14:27:25Z</time></trkpt><trkpt lat="38.09047772822554" lon="15.870265822257501"><ele>1398.5</ele><time>2026-04-24T14:27:25.999Z</time></trkpt><trkpt lat="38.09048795660632" lon="15.87046259687983"><ele>1399.75</ele><time>2026-04-24T14:27:26.999Z</time></trkpt><trkpt lat="38.09050803523107" lon="15.870614214586585"><ele>1401.0</ele><time>2026-04-24T14:27:27.999Z</time></trkpt><trkpt lat="38.09054615472988" lon="15.870719318576512"><ele>1401.0</ele><time>2026-04-24T14:27:28.999Z</time></trkpt><trkpt lat="38.090605446319415" lon="15.870767921082168"><ele>1401.0</ele><time>2026-04-24T14:27:30.999Z</time></trkpt><trkpt lat="38.09071871958313" lon="15.870643177537815"><ele>1401.0</ele><time>2026-04-24T14:27:32.999Z</time></trkpt><trkpt lat="38.090780590151695" lon="15.870528719393604"><ele>1401.0</ele><time>2026-04-24T14:27:33.999Z</time></trkpt><trkpt lat="38.09085109923758" lon="15.870419099243065"><ele>1401.0</ele><time>2026-04-24T14:27:34.999Z</time></trkpt><trkpt lat="38.09092668305404" lon="15.87031031166699"><ele>1402.1999999999998</ele><time>2026-04-24T14:27:35.999Z</time></trkpt><trkpt lat="38.09100569974023" lon="15.870204027334003"><ele>1403.3999999999999</ele><time>2026-04-24T14:27:36.999Z</time></trkpt><trkpt lat="38.091070508212596" lon="15.870130458661615"><ele>1404.6</ele><time>2026-04-24T14:27:37.999Z</time></trkpt><trkpt lat="38.091144155441086" lon="15.870080818219114"><ele>1405.8</ele><time>2026-04-24T14:27:38.999Z</time></trkpt><trkpt lat="38.09123077862344" lon="15.870071793890668"><ele>1407.0</ele><time>2026-04-24T14:27:39.999Z</time></trkpt><trkpt lat="38.09131267488185" lon="15.870063082950708"><ele>1407.0</ele><time>2026-04-24T14:27:40.999Z</time></trkpt><trkpt lat="38.09138726321829" lon="15.870064737306267"><ele>1407.0</ele><time>2026-04-24T14:27:41.999Z</time></trkpt><trkpt lat="38.0914489045781" lon="15.870115040294838"><ele>1407.0</ele><time>2026-04-24T14:27:42.999Z</time></trkpt><trkpt lat="38.09149705384336" lon="15.870189026858501"><ele>1407.0</ele><time>2026-04-24T14:27:43.999Z</time></trkpt><trkpt lat="38.091547195607475" lon="15.870286389604798"><ele>1407.0</ele><time>2026-04-24T14:27:44.999Z</time></trkpt><trkpt lat="38.091595867720706" lon="15.870388308583106"><ele>1407.0</ele><time>2026-04-24T14:27:45.999Z</time></trkpt><trkpt lat="38.09165576282352" lon="15.870469142258049"><ele>1410.1999999999998</ele><time>2026-04-24T14:27:46.999Z</time></trkpt><trkpt lat="38.091732643262176" lon="15.87052068103737"><ele>1413.4</ele><time>2026-04-24T14:27:47.999Z</time></trkpt><trkpt lat="38.09179904542439" lon="15.87053179246278"><ele>1416.6</ele><time>2026-04-24T14:27:48.999Z</time></trkpt><trkpt lat="38.091905465913754" lon="15.870409579730643"><ele>1419.8000000000002</ele><time>2026-04-24T14:27:50.999Z</time></trkpt><trkpt lat="38.091958732280936" lon="15.870322256596413"><ele>1423.0</ele><time>2026-04-24T14:27:51.999Z</time></trkpt><trkpt lat="38.092025101736" lon="15.870243456887179"><ele>1423.0</ele><time>2026-04-24T14:27:52.999Z</time></trkpt><trkpt lat="38.09210951041221" lon="15.870182537606906"><ele>1423.0</ele><time>2026-04-24T14:27:53.999Z</time></trkpt><trkpt lat="38.09220204955733" lon="15.870121344967115"><ele>1423.0</ele><time>2026-04-24T14:27:54.999Z</time></trkpt><trkpt lat="38.092269946227674" lon="15.870029216627366"><ele>1423.0</ele><time>2026-04-24T14:27:55.999Z</time></trkpt><trkpt lat="38.09234266598442" lon="15.869913642942484"><ele>1423.0</ele><time>2026-04-24T14:27:56.999Z</time></trkpt><trkpt lat="38.09241818926142" lon="15.869767564032456"><ele>1431.6666666666665</ele><time>2026-04-24T14:27:57.999Z</time></trkpt><trkpt lat="38.092496686115986" lon="15.869629264073994"><ele>1440.3333333333333</ele><time>2026-04-24T14:27:58.999Z</time></trkpt><trkpt lat="38.09258600669346" lon="15.869477648129964"><ele>1449.0</ele><time>2026-04-24T14:27:59.999Z</time></trkpt><trkpt lat="38.092710373298054" lon="15.869321945626327"><ele>1450.4</ele><time>2026-04-24T14:28:00.999Z</time></trkpt><trkpt lat="38.09281019732369" lon="15.869218325446878"><ele>1451.8000000000002</ele><time>2026-04-24T14:28:01.999Z</time></trkpt><trkpt lat="38.09287880124924" lon="15.869153907950903"><ele>1453.1999999999998</ele><time>2026-04-24T14:28:02.999Z</time></trkpt><trkpt lat="38.09293899221902" lon="15.869119432635143"><ele>1454.6</ele><time>2026-04-24T14:28:03.999Z</time></trkpt><trkpt lat="38.093048783151445" lon="15.869178129917497"><ele>1456.0</ele><time>2026-04-24T14:28:05.999Z</time></trkpt><trkpt lat="38.09307910441339" lon="15.869253558748603"><ele>1455.75</ele><time>2026-04-24T14:28:06.999Z</time></trkpt><trkpt lat="38.093124696784336" lon="15.869345104514252"><ele>1455.5</ele><time>2026-04-24T14:28:07.999Z</time></trkpt><trkpt lat="38.093253757200216" lon="15.869359119603448"><ele>1455.25</ele><time>2026-04-24T14:28:09.999Z</time></trkpt><trkpt lat="38.09336989926553" lon="15.869296067847403"><ele>1455.0</ele><time>2026-04-24T14:28:10.999Z</time></trkpt><trkpt lat="38.09350446450643" lon="15.869224360614282"><ele>1457.5</ele><time>2026-04-24T14:28:11.999Z</time></trkpt><trkpt lat="38.09362348560606" lon="15.869166002858211"><ele>1460.0</ele><time>2026-04-24T14:28:12.999Z</time></trkpt><trkpt lat="38.09373422792738" lon="15.869154213984318"><ele>1462.5</ele><time>2026-04-24T14:28:13.999Z</time></trkpt><trkpt lat="38.093852887183296" lon="15.869168148993035"><ele>1465.0</ele><time>2026-04-24T14:28:14.999Z</time></trkpt><trkpt lat="38.09398593750229" lon="15.869187767802888"><ele>1466.75</ele><time>2026-04-24T14:28:15.999Z</time></trkpt><trkpt lat="38.09410949328993" lon="15.869206393739393"><ele>1468.5</ele><time>2026-04-24T14:28:16.999Z</time></trkpt><trkpt lat="38.09422068895214" lon="15.869258758258857"><ele>1470.25</ele><time>2026-04-24T14:28:17.999Z</time></trkpt><trkpt lat="38.09433079282191" lon="15.869343251120116"><ele>1472.0</ele><time>2026-04-24T14:28:18.999Z</time></trkpt><trkpt lat="38.09444412760811" lon="15.86943161299196"><ele>1472.0</ele><time>2026-04-24T14:28:19.999Z</time></trkpt><trkpt lat="38.09457089953045" lon="15.869499536905154"><ele>1472.0</ele><time>2026-04-24T14:28:20.999Z</time></trkpt><trkpt lat="38.09468796736687" lon="15.869545073712615"><ele>1472.0</ele><time>2026-04-24T14:28:21.999Z</time></trkpt><trkpt lat="38.09479641870237" lon="15.869569632633063"><ele>1472.0</ele><time>2026-04-24T14:28:22.999Z</time></trkpt><trkpt lat="38.09491907388567" lon="15.869564676405089"><ele>1474.5</ele><time>2026-04-24T14:28:23.999Z</time></trkpt><trkpt lat="38.09505172962659" lon="15.869536316169608"><ele>1477.0</ele><time>2026-04-24T14:28:24.999Z</time></trkpt><trkpt lat="38.09518976886186" lon="15.869509156086952"><ele>1479.5</ele><time>2026-04-24T14:28:25.999Z</time></trkpt><trkpt lat="38.0953118509765" lon="15.869521855995274"><ele>1482.0</ele><time>2026-04-24T14:28:26.999Z</time></trkpt><trkpt lat="38.095378731820375" lon="15.869553369610237"><ele>1482.0</ele><time>2026-04-24T14:28:27.999Z</time></trkpt><trkpt lat="38.095417069111754" lon="15.869671933160658"><ele>1482.0</ele><time>2026-04-24T14:28:29.999Z</time></trkpt><trkpt lat="38.09540712382972" lon="15.869757513790377"><ele>1482.0</ele><time>2026-04-24T14:28:30.999Z</time></trkpt><trkpt lat="38.095362920515576" lon="15.869843087231542"><ele>1482.0</ele><time>2026-04-24T14:28:31.999Z</time></trkpt><trkpt lat="38.09530991153078" lon="15.869957379278818"><ele>1482.0</ele><time>2026-04-24T14:28:32.999Z</time></trkpt><trkpt lat="38.09526109090349" lon="15.870092171054955"><ele>1483.0</ele><time>2026-04-24T14:28:33.999Z</time></trkpt><trkpt lat="38.095245280750596" lon="15.87019564760588"><ele>1484.0</ele><time>2026-04-24T14:28:34.999Z</time></trkpt><trkpt lat="38.09531836488559" lon="15.870261360967929"><ele>1485.0</ele><time>2026-04-24T14:28:36.999Z</time></trkpt><trkpt lat="38.095381236486176" lon="15.87022612410396"><ele>1486.0</ele><time>2026-04-24T14:28:37.999Z</time></trkpt><trkpt lat="38.09546533515938" lon="15.870171040581106"><ele>1487.0</ele><time>2026-04-24T14:28:38.999Z</time></trkpt><trkpt lat="38.095568186370876" lon="15.870130198630603"><ele>1488.0</ele><time>2026-04-24T14:28:39.999Z</time></trkpt><trkpt lat="38.09567813565627" lon="15.870111468671222"><ele>1490.6000000000001</ele><time>2026-04-24T14:28:40.999Z</time></trkpt><trkpt lat="38.09576354281314" lon="15.870128424117574"><ele>1493.2</ele><time>2026-04-24T14:28:41.999Z</time></trkpt><trkpt lat="38.095822443829796" lon="15.87018448159114"><ele>1495.8</ele><time>2026-04-24T14:28:42.999Z</time></trkpt><trkpt lat="38.09584381075934" lon="15.870338861220768"><ele>1498.4</ele><time>2026-04-24T14:28:44.999Z</time></trkpt><trkpt lat="38.09582774526087" lon="15.870476390509221"><ele>1501.0</ele><time>2026-04-24T14:28:45.999Z</time></trkpt><trkpt lat="38.095807856395105" lon="15.870614384080202"><ele>1501.0</ele><time>2026-04-24T14:28:46.999Z</time></trkpt><trkpt lat="38.09581420722474" lon="15.870744141311395"><ele>1501.0</ele><time>2026-04-24T14:28:47.999Z</time></trkpt><trkpt lat="38.09581868603995" lon="15.870884293416667"><ele>1501.0</ele><time>2026-04-24T14:28:49Z</time></trkpt><trkpt lat="38.095793246050555" lon="15.871037820888256"><ele>1501.0</ele><time>2026-04-24T14:28:50Z</time></trkpt><trkpt lat="38.095772708074534" lon="15.87118713394181"><ele>1500.8333333333333</ele><time>2026-04-24T14:28:51Z</time></trkpt><trkpt lat="38.09574799791553" lon="15.871315394866937"><ele>1500.6666666666665</ele><time>2026-04-24T14:28:52Z</time></trkpt><trkpt lat="38.09570573757679" lon="15.871398845579584"><ele>1500.5</ele><time>2026-04-24T14:28:53Z</time></trkpt><trkpt lat="38.09563815850757" lon="15.871433187251515"><ele>1500.3333333333333</ele><time>2026-04-24T14:28:54Z</time></trkpt><trkpt lat="38.0955434823114" lon="15.871465047012109"><ele>1500.1666666666667</ele><time>2026-04-24T14:28:55Z</time></trkpt><trkpt lat="38.095458918263134" lon="15.871519246602144"><ele>1500.0</ele><time>2026-04-24T14:28:56Z</time></trkpt><trkpt lat="38.09542217910131" lon="15.871590928831552"><ele>1500.0</ele><time>2026-04-24T14:28:57Z</time></trkpt><trkpt lat="38.09546291940441" lon="15.871721381435991"><ele>1500.0</ele><time>2026-04-24T14:28:59Z</time></trkpt><trkpt lat="38.095529358071744" lon="15.871775403297445"><ele>1500.0</ele><time>2026-04-24T14:29:00Z</time></trkpt><trkpt lat="38.09561768110311" lon="15.871842700459018"><ele>1500.0</ele><time>2026-04-24T14:29:01Z</time></trkpt><trkpt lat="38.095709846068246" lon="15.871934027699709"><ele>1500.0</ele><time>2026-04-24T14:29:02Z</time></trkpt><trkpt lat="38.09580870053478" lon="15.872041987128124"><ele>1504.75</ele><time>2026-04-24T14:29:03Z</time></trkpt><trkpt lat="38.09590226473341" lon="15.872147859657652"><ele>1509.5</ele><time>2026-04-24T14:29:04Z</time></trkpt><trkpt lat="38.095963608699215" lon="15.87225997636813"><ele>1514.25</ele><time>2026-04-24T14:29:05Z</time></trkpt><trkpt lat="38.09603602550297" lon="15.872380825271033"><ele>1519.0</ele><time>2026-04-24T14:29:06Z</time></trkpt><trkpt lat="38.09609888038874" lon="15.872502870677264"><ele>1520.5</ele><time>2026-04-24T14:29:07Z</time></trkpt><trkpt lat="38.09617661046518" lon="15.872643408360695"><ele>1522.0</ele><time>2026-04-24T14:29:08Z</time></trkpt><trkpt lat="38.0962438420777" lon="15.872781364487155"><ele>1523.5</ele><time>2026-04-24T14:29:09Z</time></trkpt><trkpt lat="38.09631519265553" lon="15.872892538099691"><ele>1525.0</ele><time>2026-04-24T14:29:10Z</time></trkpt><trkpt lat="38.09641672463507" lon="15.872979095530845"><ele>1525.0</ele><time>2026-04-24T14:29:11Z</time></trkpt><trkpt lat="38.09652217222232" lon="15.873072784820295"><ele>1525.0</ele><time>2026-04-24T14:29:12Z</time></trkpt><trkpt lat="38.09661848657784" lon="15.873194213481074"><ele>1525.0</ele><time>2026-04-24T14:29:13Z</time></trkpt><trkpt lat="38.096696543075176" lon="15.87333637265875"><ele>1525.0</ele><time>2026-04-24T14:29:14Z</time></trkpt><trkpt lat="38.096769354267565" lon="15.873487351121877"><ele>1525.5</ele><time>2026-04-24T14:29:15Z</time></trkpt><trkpt lat="38.09684373553529" lon="15.87360139416461"><ele>1526.0</ele><time>2026-04-24T14:29:16Z</time></trkpt><trkpt lat="38.09693800059475" lon="15.873691372261233"><ele>1526.5</ele><time>2026-04-24T14:29:17Z</time></trkpt><trkpt lat="38.097051305954295" lon="15.873748097896083"><ele>1527.0</ele><time>2026-04-24T14:29:18Z</time></trkpt><trkpt lat="38.097158926421386" lon="15.873767165543935"><ele>1527.0</ele><time>2026-04-24T14:29:19Z</time></trkpt><trkpt lat="38.09728036321621" lon="15.87375551540348"><ele>1527.0</ele><time>2026-04-24T14:29:20Z</time></trkpt><trkpt lat="38.09742306858982" lon="15.873731229630412"><ele>1527.0</ele><time>2026-04-24T14:29:21Z</time></trkpt><trkpt lat="38.09755924454063" lon="15.873729376391859"><ele>1527.0</ele><time>2026-04-24T14:29:22Z</time></trkpt><trkpt lat="38.097697967678904" lon="15.873763731025134"><ele>1528.6666666666667</ele><time>2026-04-24T14:29:23Z</time></trkpt><trkpt lat="38.09786739694923" lon="15.873804322218833"><ele>1530.3333333333335</ele><time>2026-04-24T14:29:23.999Z</time></trkpt><trkpt lat="38.098041387559654" lon="15.87383865994144"><ele>1532.0</ele><time>2026-04-24T14:29:24.999Z</time></trkpt><trkpt lat="38.098189507449504" lon="15.873864035686752"><ele>1533.25</ele><time>2026-04-24T14:29:25.999Z</time></trkpt><trkpt lat="38.09831728453201" lon="15.87390017121165"><ele>1534.5</ele><time>2026-04-24T14:29:26.999Z</time></trkpt><trkpt lat="38.098431931439585" lon="15.873959682355837"><ele>1535.75</ele><time>2026-04-24T14:29:27.999Z</time></trkpt><trkpt lat="38.09854013353992" lon="15.87404678178218"><ele>1537.0</ele><time>2026-04-24T14:29:28.999Z</time></trkpt><trkpt lat="38.09863723934706" lon="15.87413154354401"><ele>1537.0</ele><time>2026-04-24T14:29:29.999Z</time></trkpt><trkpt lat="38.09872094237304" lon="15.874161971633765"><ele>1537.0</ele><time>2026-04-24T14:29:30.999Z</time></trkpt><trkpt lat="38.098798129508346" lon="15.874124521135846"><ele>1537.0</ele><time>2026-04-24T14:29:31.999Z</time></trkpt><trkpt lat="38.098895398995886" lon="15.874069536371817"><ele>1537.0</ele><time>2026-04-24T14:29:32.999Z</time></trkpt><trkpt lat="38.09899353443637" lon="15.874036054918985"><ele>1537.0</ele><time>2026-04-24T14:29:33.999Z</time></trkpt><trkpt lat="38.099088673268206" lon="15.874058903365015"><ele>1537.3999999999999</ele><time>2026-04-24T14:29:34.999Z</time></trkpt><trkpt lat="38.099199616996124" lon="15.874124339444824"><ele>1537.8</ele><time>2026-04-24T14:29:35.999Z</time></trkpt><trkpt lat="38.099291306825805" lon="15.874189375672502"><ele>1538.2</ele><time>2026-04-24T14:29:36.999Z</time></trkpt><trkpt lat="38.0993672876547" lon="15.874258064720207"><ele>1538.6</ele><time>2026-04-24T14:29:37.999Z</time></trkpt><trkpt lat="38.099444993923406" lon="15.87435424177567"><ele>1539.0</ele><time>2026-04-24T14:29:38.999Z</time></trkpt><trkpt lat="38.099519312761224" lon="15.874464960542307"><ele>1539.75</ele><time>2026-04-24T14:29:39.999Z</time></trkpt><trkpt lat="38.09959199429954" lon="15.874565839366936"><ele>1540.5</ele><time>2026-04-24T14:29:40.999Z</time></trkpt><trkpt lat="38.099682627900705" lon="15.874669229909424"><ele>1541.25</ele><time>2026-04-24T14:29:41.999Z</time></trkpt><trkpt lat="38.09979424877863" lon="15.874765774048452"><ele>1542.0</ele><time>2026-04-24T14:29:42.999Z</time></trkpt><trkpt lat="38.099921928536034" lon="15.874865606939524"><ele>1539.6666666666667</ele><time>2026-04-24T14:29:43.999Z</time></trkpt><trkpt lat="38.10007368630365" lon="15.874967954099468"><ele>1537.3333333333335</ele><time>2026-04-24T14:29:44.999Z</time></trkpt><trkpt lat="38.10026033401034" lon="15.875076616896502"><ele>1535.0</ele><time>2026-04-24T14:29:45.999Z</time></trkpt><trkpt lat="38.10044966752533" lon="15.875189108487689"><ele>1534.0</ele><time>2026-04-24T14:29:46.999Z</time></trkpt><trkpt lat="38.10061162110449" lon="15.87529481371332"><ele>1533.0</ele><time>2026-04-24T14:29:47.999Z</time></trkpt><trkpt lat="38.10075375817648" lon="15.87538391142"><ele>1532.0</ele><time>2026-04-24T14:29:48.999Z</time></trkpt><trkpt lat="38.100882870466464" lon="15.87546911829963"><ele>1531.5</ele><time>2026-04-24T14:29:49.999Z</time></trkpt><trkpt lat="38.101005696328286" lon="15.875571871957845"><ele>1531.0</ele><time>2026-04-24T14:29:50.999Z</time></trkpt><trkpt lat="38.10111320626433" lon="15.875715288378005"><ele>1530.5</ele><time>2026-04-24T14:29:51.999Z</time></trkpt><trkpt lat="38.101199572174544" lon="15.875834578760385"><ele>1530.0</ele><time>2026-04-24T14:29:52.999Z</time></trkpt><trkpt lat="38.10125696398071" lon="15.875949303172648"><ele>1531.5</ele><time>2026-04-24T14:29:53.999Z</time></trkpt><trkpt lat="38.101293431151134" lon="15.876086875846177"><ele>1533.0</ele><time>2026-04-24T14:29:54.999Z</time></trkpt><trkpt lat="38.101289453829814" lon="15.876236318764052"><ele>1534.5</ele><time>2026-04-24T14:29:55.999Z</time></trkpt><trkpt lat="38.10127769106785" lon="15.876398184997976"><ele>1536.0</ele><time>2026-04-24T14:29:56.999Z</time></trkpt><trkpt lat="38.10125716458453" lon="15.876548622486915"><ele>1536.0</ele><time>2026-04-24T14:29:57.999Z</time></trkpt><trkpt lat="38.101197022744614" lon="15.876682462596047"><ele>1536.0</ele><time>2026-04-24T14:29:58.999Z</time></trkpt><trkpt lat="38.10111829782474" lon="15.876826222618538"><ele>1536.0</ele><time>2026-04-24T14:29:59.999Z</time></trkpt><trkpt lat="38.10105774252254" lon="15.876977297816302"><ele>1536.0</ele><time>2026-04-24T14:30:00.999Z</time></trkpt><trkpt lat="38.101051081053065" lon="15.877099995317748"><ele>1537.1666666666667</ele><time>2026-04-24T14:30:01.999Z</time></trkpt><trkpt lat="38.10105662667584" lon="15.877202732221269"><ele>1538.3333333333335</ele><time>2026-04-24T14:30:02.999Z</time></trkpt><trkpt lat="38.10108490493634" lon="15.877310762626573"><ele>1539.5</ele><time>2026-04-24T14:30:03.999Z</time></trkpt><trkpt lat="38.10111540265943" lon="15.877397043165487"><ele>1540.6666666666667</ele><time>2026-04-24T14:30:04.999Z</time></trkpt><trkpt lat="38.10119184572855" lon="15.877378147427898"><ele>1541.8333333333335</ele><time>2026-04-24T14:30:06.999Z</time></trkpt><trkpt lat="38.101252627505126" lon="15.877250446318392"><ele>1543.0</ele><time>2026-04-24T14:30:08.999Z</time></trkpt><trkpt lat="38.10128669154192" lon="15.877151279316127"><ele>1543.0</ele><time>2026-04-24T14:30:09.999Z</time></trkpt><trkpt lat="38.10133197934151" lon="15.877056129657387"><ele>1543.0</ele><time>2026-04-24T14:30:10.999Z</time></trkpt><trkpt lat="38.101407965890424" lon="15.877050162701392"><ele>1543.0</ele><time>2026-04-24T14:30:12.999Z</time></trkpt><trkpt lat="38.10144239148103" lon="15.877151782229653"><ele>1543.0</ele><time>2026-04-24T14:30:14.999Z</time></trkpt><trkpt lat="38.10140307747239" lon="15.877301754916012"><ele>1543.0</ele><time>2026-04-24T14:30:16.999Z</time></trkpt><trkpt lat="38.101373014914756" lon="15.877404365108884"><ele>1543.0000000000002</ele><time>2026-04-24T14:30:17.999Z</time></trkpt><trkpt lat="38.101360212093375" lon="15.877519856849936"><ele>1543.0</ele><time>2026-04-24T14:30:18.999Z</time></trkpt><trkpt lat="38.10135639926429" lon="15.87763761543767"><ele>1543.0</ele><time>2026-04-24T14:30:19.999Z</time></trkpt><trkpt lat="38.10136378503728" lon="15.87773826404091"><ele>1543.0</ele><time>2026-04-24T14:30:20.999Z</time></trkpt><trkpt lat="38.10140121637" lon="15.877837446252773"><ele>1543.0000000000002</ele><time>2026-04-24T14:30:21.999Z</time></trkpt><trkpt lat="38.10146519485697" lon="15.877923134214027"><ele>1543.0</ele><time>2026-04-24T14:30:22.999Z</time></trkpt><trkpt lat="38.101542969045354" lon="15.87799832014998"><ele>1547.6000000000001</ele><time>2026-04-24T14:30:23.999Z</time></trkpt><trkpt lat="38.101627043671485" lon="15.878075689114246"><ele>1552.2</ele><time>2026-04-24T14:30:24.999Z</time></trkpt><trkpt lat="38.10172643846056" lon="15.878177989774654"><ele>1556.8</ele><time>2026-04-24T14:30:25.999Z</time></trkpt><trkpt lat="38.101818545601034" lon="15.878264093861931"><ele>1561.4</ele><time>2026-04-24T14:30:26.999Z</time></trkpt><trkpt lat="38.10187885924641" lon="15.878333480173655"><ele>1566.0</ele><time>2026-04-24T14:30:27.999Z</time></trkpt><trkpt lat="38.101950268659444" lon="15.878310518772363"><ele>1566.0</ele><time>2026-04-24T14:30:29.999Z</time></trkpt><trkpt lat="38.10200282609462" lon="15.878152187625673"><ele>1566.0</ele><time>2026-04-24T14:30:31.999Z</time></trkpt><trkpt lat="38.1020370607272" lon="15.878051844001604"><ele>1566.0</ele><time>2026-04-24T14:30:32.999Z</time></trkpt><trkpt lat="38.102092228834195" lon="15.87793358999805"><ele>1566.0</ele><time>2026-04-24T14:30:33.999Z</time></trkpt><trkpt lat="38.102149626660115" lon="15.877834580798714"><ele>1566.0</ele><time>2026-04-24T14:30:34.999Z</time></trkpt><trkpt lat="38.10220907530918" lon="15.877723956477668"><ele>1566.0</ele><time>2026-04-24T14:30:35.999Z</time></trkpt><trkpt lat="38.10228109510245" lon="15.877619844024462"><ele>1566.0</ele><time>2026-04-24T14:30:36.999Z</time></trkpt><trkpt lat="38.10236340129982" lon="15.877526087853665"><ele>1566.0</ele><time>2026-04-24T14:30:37.999Z</time></trkpt><trkpt lat="38.10245403879543" lon="15.877426047655073"><ele>1566.0</ele><time>2026-04-24T14:30:38.999Z</time></trkpt><trkpt lat="38.102540796247894" lon="15.877332208969268"><ele>1567.4</ele><time>2026-04-24T14:30:39.999Z</time></trkpt><trkpt lat="38.1026120434592" lon="15.877260241970022"><ele>1568.8</ele><time>2026-04-24T14:30:40.999Z</time></trkpt><trkpt lat="38.102674487064554" lon="15.877204299734158"><ele>1570.2</ele><time>2026-04-24T14:30:41.999Z</time></trkpt><trkpt lat="38.102764656593976" lon="15.877154674733847"><ele>1571.6000000000001</ele><time>2026-04-24T14:30:42.999Z</time></trkpt><trkpt lat="38.10286840213351" lon="15.87712138350202"><ele>1573.0</ele><time>2026-04-24T14:30:43.999Z</time></trkpt><trkpt lat="38.10297200825848" lon="15.877113270269124"><ele>1573.0</ele><time>2026-04-24T14:30:44.999Z</time></trkpt><trkpt lat="38.10306125906802" lon="15.877140861340816"><ele>1573.0</ele><time>2026-04-24T14:30:45.999Z</time></trkpt><trkpt lat="38.103137292101906" lon="15.87719572017562"><ele>1573.0</ele><time>2026-04-24T14:30:46.999Z</time></trkpt><trkpt lat="38.103224422754536" lon="15.877246824929207"><ele>1573.0</ele><time>2026-04-24T14:30:47.999Z</time></trkpt><trkpt lat="38.10331547150274" lon="15.877282682195862"><ele>1573.0</ele><time>2026-04-24T14:30:48.999Z</time></trkpt><trkpt lat="38.103423506984434" lon="15.877292640365491"><ele>1575.0</ele><time>2026-04-24T14:30:49.998Z</time></trkpt><trkpt lat="38.1035344557026" lon="15.87726628594077"><ele>1577.0</ele><time>2026-04-24T14:30:50.998Z</time></trkpt><trkpt lat="38.103644052835065" lon="15.87722812661851"><ele>1579.0</ele><time>2026-04-24T14:30:51.998Z</time></trkpt><trkpt lat="38.10374370439298" lon="15.877173122166575"><ele>1581.0</ele><time>2026-04-24T14:30:52.998Z</time></trkpt><trkpt lat="38.10384058625226" lon="15.877093667470234"><ele>1581.0</ele><time>2026-04-24T14:30:53.998Z</time></trkpt><trkpt lat="38.10395391879735" lon="15.876983647865552"><ele>1581.0</ele><time>2026-04-24T14:30:55Z</time></trkpt><trkpt lat="38.104074774409035" lon="15.876848300115022"><ele>1581.0</ele><time>2026-04-24T14:30:56Z</time></trkpt><trkpt lat="38.104207077982494" lon="15.876714077050071"><ele>1582.0</ele><time>2026-04-24T14:30:57Z</time></trkpt><trkpt lat="38.104309806949935" lon="15.876613103104132"><ele>1583.0</ele><time>2026-04-24T14:30:58Z</time></trkpt><trkpt lat="38.10440995978418" lon="15.876539027918053"><ele>1584.0</ele><time>2026-04-24T14:30:59Z</time></trkpt><trkpt lat="38.10452672931087" lon="15.876469469169232"><ele>1585.0</ele><time>2026-04-24T14:31:00Z</time></trkpt><trkpt lat="38.104627936723354" lon="15.87642087668582"><ele>1585.0000000000002</ele><time>2026-04-24T14:31:01Z</time></trkpt><trkpt lat="38.10469958404858" lon="15.87637388297721"><ele>1585.0</ele><time>2026-04-24T14:31:02Z</time></trkpt><trkpt lat="38.10476164474244" lon="15.876343252184235"><ele>1585.0</ele><time>2026-04-24T14:31:03Z</time></trkpt><trkpt lat="38.10483501062427" lon="15.876435271681475"><ele>1585.0</ele><time>2026-04-24T14:31:05Z</time></trkpt><trkpt lat="38.10482049318907" lon="15.876532140505844"><ele>1585.0000000000002</ele><time>2026-04-24T14:31:05.999Z</time></trkpt><trkpt lat="38.10479399255448" lon="15.876631959011801"><ele>1585.0</ele><time>2026-04-24T14:31:06.999Z</time></trkpt><trkpt lat="38.1048408470411" lon="15.876761180675972"><ele>1587.2</ele><time>2026-04-24T14:31:08.999Z</time></trkpt><trkpt lat="38.10491363974972" lon="15.876804215860297"><ele>1589.4</ele><time>2026-04-24T14:31:09.999Z</time></trkpt><trkpt lat="38.105004876878944" lon="15.87680826912782"><ele>1591.6</ele><time>2026-04-24T14:31:10.999Z</time></trkpt><trkpt lat="38.10510883681416" lon="15.876767135033202"><ele>1593.8</ele><time>2026-04-24T14:31:11.999Z</time></trkpt><trkpt lat="38.10525609391656" lon="15.876739597999276"><ele>1596.0</ele><time>2026-04-24T14:31:12.999Z</time></trkpt><trkpt lat="38.105400669229574" lon="15.876729404848435"><ele>1596.0</ele><time>2026-04-24T14:31:13.999Z</time></trkpt><trkpt lat="38.10552913219925" lon="15.876743193038902"><ele>1596.0</ele><time>2026-04-24T14:31:14.999Z</time></trkpt><trkpt lat="38.10564153892484" lon="15.876774716135998"><ele>1596.0</ele><time>2026-04-24T14:31:15.999Z</time></trkpt><trkpt lat="38.10574041724095" lon="15.876803737559467"><ele>1596.0</ele><time>2026-04-24T14:31:16.999Z</time></trkpt><trkpt lat="38.10583953794354" lon="15.87682571101154"><ele>1596.0</ele><time>2026-04-24T14:31:17.999Z</time></trkpt><trkpt lat="38.105938293598804" lon="15.876823437817492"><ele>1595.8</ele><time>2026-04-24T14:31:18.999Z</time></trkpt><trkpt lat="38.10603853970573" lon="15.876794738302342"><ele>1595.6</ele><time>2026-04-24T14:31:19.999Z</time></trkpt><trkpt lat="38.106140777913886" lon="15.876752795245261"><ele>1595.4</ele><time>2026-04-24T14:31:20.999Z</time></trkpt><trkpt lat="38.106224437578874" lon="15.876698400548486"><ele>1595.2</ele><time>2026-04-24T14:31:21.999Z</time></trkpt><trkpt lat="38.106285211861355" lon="15.876612468788705"><ele>1595.0</ele><time>2026-04-24T14:31:22.999Z</time></trkpt><trkpt lat="38.106349953571055" lon="15.876522593082235"><ele>1595.0</ele><time>2026-04-24T14:31:23.999Z</time></trkpt><trkpt lat="38.10642978383297" lon="15.876484119851183"><ele>1595.0</ele><time>2026-04-24T14:31:24.999Z</time></trkpt><trkpt lat="38.106494263766805" lon="15.876482231799987"><ele>1595.0</ele><time>2026-04-24T14:31:25.999Z</time></trkpt><trkpt lat="38.10657673029231" lon="15.876519648482903"><ele>1595.0</ele><time>2026-04-24T14:31:26.999Z</time></trkpt><trkpt lat="38.10668672611721" lon="15.876589499200724"><ele>1595.0</ele><time>2026-04-24T14:31:27.999Z</time></trkpt><trkpt lat="38.10683106959568" lon="15.87667316678459"><ele>1595.25</ele><time>2026-04-24T14:31:28.999Z</time></trkpt><trkpt lat="38.10696238971884" lon="15.8767414354571"><ele>1595.5</ele><time>2026-04-24T14:31:29.999Z</time></trkpt><trkpt lat="38.107078194252985" lon="15.876789514185786"><ele>1595.75</ele><time>2026-04-24T14:31:30.999Z</time></trkpt><trkpt lat="38.107201685254026" lon="15.876834584680122"><ele>1596.0</ele><time>2026-04-24T14:31:31.999Z</time></trkpt><trkpt lat="38.107322163235935" lon="15.876902441973488"><ele>1597.0</ele><time>2026-04-24T14:31:32.999Z</time></trkpt><trkpt lat="38.10743587897646" lon="15.876955570528736"><ele>1598.0</ele><time>2026-04-24T14:31:33.999Z</time></trkpt><trkpt lat="38.107557577102256" lon="15.877026525095044"><ele>1599.0</ele><time>2026-04-24T14:31:34.999Z</time></trkpt><trkpt lat="38.10765340677121" lon="15.877097367191508"><ele>1600.0</ele><time>2026-04-24T14:31:35.999Z</time></trkpt><trkpt lat="38.10774336584428" lon="15.877120538067373"><ele>1600.0</ele><time>2026-04-24T14:31:36.999Z</time></trkpt><trkpt lat="38.107832461541506" lon="15.877112813291486"><ele>1600.0</ele><time>2026-04-24T14:31:37.999Z</time></trkpt><trkpt lat="38.107934327187166" lon="15.877097337480153"><ele>1600.0</ele><time>2026-04-24T14:31:38.999Z</time></trkpt><trkpt lat="38.108045793151035" lon="15.87711828501578"><ele>1600.0</ele><time>2026-04-24T14:31:39.999Z</time></trkpt><trkpt lat="38.10818188179704" lon="15.877195942993081"><ele>1601.0</ele><time>2026-04-24T14:31:40.999Z</time></trkpt><trkpt lat="38.10829297704158" lon="15.877304102769129"><ele>1602.0</ele><time>2026-04-24T14:31:41.999Z</time></trkpt><trkpt lat="38.10837427327265" lon="15.877409504186256"><ele>1603.0</ele><time>2026-04-24T14:31:42.999Z</time></trkpt><trkpt lat="38.108452693261604" lon="15.877488471254487"><ele>1604.0</ele><time>2026-04-24T14:31:43.999Z</time></trkpt><trkpt lat="38.10855493101382" lon="15.877534821859486"><ele>1604.0</ele><time>2026-04-24T14:31:44.999Z</time></trkpt><trkpt lat="38.1086717854309" lon="15.877565064894"><ele>1604.0</ele><time>2026-04-24T14:31:45.999Z</time></trkpt><trkpt lat="38.10880890409345" lon="15.877582225737829"><ele>1604.0</ele><time>2026-04-24T14:31:46.999Z</time></trkpt><trkpt lat="38.10893190261237" lon="15.877595160164883"><ele>1604.0</ele><time>2026-04-24T14:31:47.999Z</time></trkpt><trkpt lat="38.10905440386159" lon="15.877597350419943"><ele>1605.6666666666665</ele><time>2026-04-24T14:31:48.999Z</time></trkpt><trkpt lat="38.10917477987985" lon="15.877570977769356"><ele>1607.3333333333335</ele><time>2026-04-24T14:31:49.999Z</time></trkpt><trkpt lat="38.10933445086203" lon="15.877528827177194"><ele>1609.0</ele><time>2026-04-24T14:31:50.999Z</time></trkpt><trkpt lat="38.10950058973828" lon="15.877493688099083"><ele>1609.0</ele><time>2026-04-24T14:31:51.999Z</time></trkpt><trkpt lat="38.109660886846015" lon="15.877479299517084"><ele>1609.0</ele><time>2026-04-24T14:31:52.999Z</time></trkpt><trkpt lat="38.10979047610084" lon="15.877450845457865"><ele>1609.0</ele><time>2026-04-24T14:31:54Z</time></trkpt><trkpt lat="38.10989773692927" lon="15.877428991430317"><ele>1609.0</ele><time>2026-04-24T14:31:55Z</time></trkpt><trkpt lat="38.1099653752761" lon="15.877386592085815"><ele>1609.6</ele><time>2026-04-24T14:31:56Z</time></trkpt><trkpt lat="38.110017702853604" lon="15.877321224689974"><ele>1610.2</ele><time>2026-04-24T14:31:57Z</time></trkpt><trkpt lat="38.11008412362935" lon="15.877223353739291"><ele>1610.8</ele><time>2026-04-24T14:31:58Z</time></trkpt><trkpt lat="38.110166300465536" lon="15.877172042538286"><ele>1611.3999999999999</ele><time>2026-04-24T14:31:59Z</time></trkpt><trkpt lat="38.1102642288668" lon="15.877140446701317"><ele>1612.0</ele><time>2026-04-24T14:32:00Z</time></trkpt><trkpt lat="38.11038424444942" lon="15.87708216461078"><ele>1612.0</ele><time>2026-04-24T14:32:01Z</time></trkpt><trkpt lat="38.11048663751162" lon="15.876989348146019"><ele>1612.0</ele><time>2026-04-24T14:32:02Z</time></trkpt><trkpt lat="38.1105771031507" lon="15.87688082132805"><ele>1612.0</ele><time>2026-04-24T14:32:03Z</time></trkpt><trkpt lat="38.11067219628415" lon="15.876775720139348"><ele>1612.0</ele><time>2026-04-24T14:32:04Z</time></trkpt><trkpt lat="38.110770744482075" lon="15.876671430399783"><ele>1613.3999999999999</ele><time>2026-04-24T14:32:05Z</time></trkpt><trkpt lat="38.110863382352036" lon="15.876584749833938"><ele>1614.8</ele><time>2026-04-24T14:32:06Z</time></trkpt><trkpt lat="38.110952613838435" lon="15.876499209678347"><ele>1616.2</ele><time>2026-04-24T14:32:07Z</time></trkpt><trkpt lat="38.11103717553725" lon="15.876433849395744"><ele>1617.6</ele><time>2026-04-24T14:32:08Z</time></trkpt><trkpt lat="38.111130469142786" lon="15.876394142297888"><ele>1619.0</ele><time>2026-04-24T14:32:09Z</time></trkpt><trkpt lat="38.1112359610837" lon="15.876368940709975"><ele>1619.0</ele><time>2026-04-24T14:32:10Z</time></trkpt><trkpt lat="38.11134535217786" lon="15.87636604805743"><ele>1619.0</ele><time>2026-04-24T14:32:11Z</time></trkpt><trkpt lat="38.111440729248216" lon="15.876394998432877"><ele>1619.0</ele><time>2026-04-24T14:32:12Z</time></trkpt><trkpt lat="38.111525118323186" lon="15.876449516944897"><ele>1619.0</ele><time>2026-04-24T14:32:13Z</time></trkpt><trkpt lat="38.11161408630352" lon="15.876523729855899"><ele>1619.0</ele><time>2026-04-24T14:32:14Z</time></trkpt><trkpt lat="38.11169308182196" lon="15.876559724496657"><ele>1619.8000000000002</ele><time>2026-04-24T14:32:15Z</time></trkpt><trkpt lat="38.111773572660354" lon="15.876473825536143"><ele>1620.6000000000001</ele><time>2026-04-24T14:32:17Z</time></trkpt><trkpt lat="38.11178867567494" lon="15.876384057096052"><ele>1621.4</ele><time>2026-04-24T14:32:18Z</time></trkpt><trkpt lat="38.1118301591916" lon="15.876264895109875"><ele>1622.2</ele><time>2026-04-24T14:32:19Z</time></trkpt><trkpt lat="38.111895901921024" lon="15.876159887163485"><ele>1623.0</ele><time>2026-04-24T14:32:20Z</time></trkpt><trkpt lat="38.11197066623916" lon="15.876085772359867"><ele>1623.0</ele><time>2026-04-24T14:32:21Z</time></trkpt><trkpt lat="38.11204044096493" lon="15.876053615549772"><ele>1623.0</ele><time>2026-04-24T14:32:22Z</time></trkpt><trkpt lat="38.112110367848594" lon="15.876050704976153"><ele>1623.0</ele><time>2026-04-24T14:32:23Z</time></trkpt><trkpt lat="38.112196309896405" lon="15.876070863360924"><ele>1623.0</ele><time>2026-04-24T14:32:24Z</time></trkpt><trkpt lat="38.11229739181857" lon="15.87608720653136"><ele>1623.0</ele><time>2026-04-24T14:32:25Z</time></trkpt><trkpt lat="38.11241297494987" lon="15.87608663732162"><ele>1623.0</ele><time>2026-04-24T14:32:26Z</time></trkpt><trkpt lat="38.11252736957236" lon="15.876075823551389"><ele>1625.5</ele><time>2026-04-24T14:32:27Z</time></trkpt><trkpt lat="38.1126459486324" lon="15.876060441130562"><ele>1628.0</ele><time>2026-04-24T14:32:28Z</time></trkpt><trkpt lat="38.11276222546423" lon="15.876049376248295"><ele>1630.5</ele><time>2026-04-24T14:32:29Z</time></trkpt><trkpt lat="38.112876813059195" lon="15.876069557211498"><ele>1633.0</ele><time>2026-04-24T14:32:30Z</time></trkpt><trkpt lat="38.112988440513035" lon="15.876112429448776"><ele>1633.0</ele><time>2026-04-24T14:32:31Z</time></trkpt><trkpt lat="38.11309491032101" lon="15.876166770659449"><ele>1633.0</ele><time>2026-04-24T14:32:32Z</time></trkpt><trkpt lat="38.113194567885024" lon="15.876211554690006"><ele>1633.0</ele><time>2026-04-24T14:32:33Z</time></trkpt><trkpt lat="38.11329811149778" lon="15.87624563775522"><ele>1633.0</ele><time>2026-04-24T14:32:34Z</time></trkpt><trkpt lat="38.11340134321224" lon="15.876262467391834"><ele>1633.0</ele><time>2026-04-24T14:32:35Z</time></trkpt><trkpt lat="38.113506501432354" lon="15.876256289572835"><ele>1636.75</ele><time>2026-04-24T14:32:36Z</time></trkpt><trkpt lat="38.11361460205218" lon="15.876228421118293"><ele>1640.5</ele><time>2026-04-24T14:32:37Z</time></trkpt><trkpt lat="38.113715698236135" lon="15.876175062084416"><ele>1644.25</ele><time>2026-04-24T14:32:38Z</time></trkpt><trkpt lat="38.113812445855885" lon="15.876100240858886"><ele>1648.0</ele><time>2026-04-24T14:32:39Z</time></trkpt><trkpt lat="38.11390587417762" lon="15.876000106839777"><ele>1646.0</ele><time>2026-04-24T14:32:40Z</time></trkpt><trkpt lat="38.11399087959697" lon="15.87588585944105"><ele>1644.0</ele><time>2026-04-24T14:32:41Z</time></trkpt><trkpt lat="38.114077874260346" lon="15.875760000491038"><ele>1642.0</ele><time>2026-04-24T14:32:42Z</time></trkpt><trkpt lat="38.114155194414316" lon="15.87562067126646"><ele>1640.0</ele><time>2026-04-24T14:32:42.999Z</time></trkpt><trkpt lat="38.11423689603234" lon="15.875474764585645"><ele>1642.0</ele><time>2026-04-24T14:32:43.999Z</time></trkpt><trkpt lat="38.11432189158041" lon="15.875324318389142"><ele>1644.0</ele><time>2026-04-24T14:32:44.999Z</time></trkpt><trkpt lat="38.114404902376386" lon="15.875176670461615"><ele>1646.0</ele><time>2026-04-24T14:32:45.999Z</time></trkpt><trkpt lat="38.11450066490536" lon="15.875030193035744"><ele>1648.0</ele><time>2026-04-24T14:32:46.999Z</time></trkpt><trkpt lat="38.11458720134527" lon="15.874879899383172"><ele>1648.0</ele><time>2026-04-24T14:32:47.999Z</time></trkpt><trkpt lat="38.11465592166147" lon="15.874710765157529"><ele>1648.0</ele><time>2026-04-24T14:32:48.999Z</time></trkpt><trkpt lat="38.11470420952368" lon="15.874510712528322"><ele>1648.0</ele><time>2026-04-24T14:32:49.999Z</time></trkpt><trkpt lat="38.11475654880032" lon="15.87429931188759"><ele>1648.5</ele><time>2026-04-24T14:32:50.999Z</time></trkpt><trkpt lat="38.114828202416604" lon="15.874088518472867"><ele>1649.0</ele><time>2026-04-24T14:32:51.999Z</time></trkpt><trkpt lat="38.11490518562801" lon="15.873930169542067"><ele>1649.5</ele><time>2026-04-24T14:32:52.999Z</time></trkpt><trkpt lat="38.11495582695406" lon="15.873798707631721"><ele>1650.0</ele><time>2026-04-24T14:32:53.999Z</time></trkpt><trkpt lat="38.114950644102244" lon="15.873683600534292"><ele>1652.25</ele><time>2026-04-24T14:32:54.999Z</time></trkpt><trkpt lat="38.11492184554079" lon="15.87354861994982"><ele>1654.5</ele><time>2026-04-24T14:32:55.999Z</time></trkpt><trkpt lat="38.11486082168412" lon="15.873375549771117"><ele>1656.75</ele><time>2026-04-24T14:32:56.999Z</time></trkpt><trkpt lat="38.114789488240326" lon="15.873195618661413"><ele>1659.0</ele><time>2026-04-24T14:32:57.999Z</time></trkpt><trkpt lat="38.11474350125106" lon="15.873048882284145"><ele>1659.0</ele><time>2026-04-24T14:32:58.999Z</time></trkpt><trkpt lat="38.11473250085655" lon="15.872919113771193"><ele>1659.0</ele><time>2026-04-24T14:32:59.999Z</time></trkpt><trkpt lat="38.114751969777394" lon="15.872804910630526"><ele>1659.0</ele><time>2026-04-24T14:33:01.001Z</time></trkpt><trkpt lat="38.114801901616346" lon="15.872668487908808"><ele>1659.0</ele><time>2026-04-24T14:33:02.001Z</time></trkpt><trkpt lat="38.11486878408957" lon="15.872533182997538"><ele>1659.0</ele><time>2026-04-24T14:33:03.001Z</time></trkpt><trkpt lat="38.114955666837915" lon="15.8724116723977"><ele>1661.4</ele><time>2026-04-24T14:33:04.001Z</time></trkpt><trkpt lat="38.11506072497917" lon="15.872312870141146"><ele>1663.8000000000002</ele><time>2026-04-24T14:33:05.001Z</time></trkpt><trkpt lat="38.11515887648179" lon="15.872244796635647"><ele>1666.1999999999998</ele><time>2026-04-24T14:33:06.001Z</time></trkpt><trkpt lat="38.11524275610457" lon="15.872178244750696"><ele>1668.6</ele><time>2026-04-24T14:33:07.001Z</time></trkpt><trkpt lat="38.11531620810638" lon="15.87210073788336"><ele>1671.0</ele><time>2026-04-24T14:33:08.001Z</time></trkpt><trkpt lat="38.11538771743122" lon="15.872006592373257"><ele>1671.0</ele><time>2026-04-24T14:33:09.001Z</time></trkpt><trkpt lat="38.11546148194032" lon="15.871899424999521"><ele>1671.0</ele><time>2026-04-24T14:33:10.001Z</time></trkpt><trkpt lat="38.11553408027154" lon="15.87178782469062"><ele>1671.0</ele><time>2026-04-24T14:33:11.001Z</time></trkpt><trkpt lat="38.11559962536851" lon="15.871666961496068"><ele>1671.0</ele><time>2026-04-24T14:33:12.001Z</time></trkpt><trkpt lat="38.1156744755079" lon="15.871546386134382"><ele>1671.5</ele><time>2026-04-24T14:33:13.001Z</time></trkpt><trkpt lat="38.115743777174096" lon="15.871420230056492"><ele>1672.0</ele><time>2026-04-24T14:33:14.001Z</time></trkpt><trkpt lat="38.115832564948015" lon="15.871285701724874"><ele>1672.5</ele><time>2026-04-24T14:33:15Z</time></trkpt><trkpt lat="38.11592717740435" lon="15.87116256253312"><ele>1673.0</ele><time>2026-04-24T14:33:16Z</time></trkpt><trkpt lat="38.11603364455288" lon="15.871062000667166"><ele>1673.0</ele><time>2026-04-24T14:33:17Z</time></trkpt><trkpt lat="38.11614315398996" lon="15.87096017557671"><ele>1673.0</ele><time>2026-04-24T14:33:18Z</time></trkpt><trkpt lat="38.116244776585866" lon="15.870848625069494"><ele>1673.0</ele><time>2026-04-24T14:33:19Z</time></trkpt><trkpt lat="38.11631729204093" lon="15.870720205012217"><ele>1673.0</ele><time>2026-04-24T14:33:20Z</time></trkpt><trkpt lat="38.11638680410612" lon="15.870577986503982"><ele>1673.5</ele><time>2026-04-24T14:33:21Z</time></trkpt><trkpt lat="38.11647697149733" lon="15.870433892407103"><ele>1674.0</ele><time>2026-04-24T14:33:22Z</time></trkpt><trkpt lat="38.11652918553855" lon="15.870273297047344"><ele>1674.5</ele><time>2026-04-24T14:33:23Z</time></trkpt><trkpt lat="38.11657118351768" lon="15.870098575847116"><ele>1675.0</ele><time>2026-04-24T14:33:24Z</time></trkpt><trkpt lat="38.11662943242673" lon="15.869910013371344"><ele>1673.6666666666667</ele><time>2026-04-24T14:33:25Z</time></trkpt><trkpt lat="38.11671284099157" lon="15.869716768239252"><ele>1672.3333333333335</ele><time>2026-04-24T14:33:26Z</time></trkpt><trkpt lat="38.11682032403667" lon="15.869537909118526"><ele>1671.0</ele><time>2026-04-24T14:33:27Z</time></trkpt><trkpt lat="38.11695070626901" lon="15.869335154425604"><ele>1670.0</ele><time>2026-04-24T14:33:28Z</time></trkpt><trkpt lat="38.11706407215264" lon="15.86917918074882"><ele>1669.0</ele><time>2026-04-24T14:33:29Z</time></trkpt><trkpt lat="38.11714839127354" lon="15.869046160231855"><ele>1668.0</ele><time>2026-04-24T14:33:30Z</time></trkpt><trkpt lat="38.117202449360505" lon="15.868922248891305"><ele>1667.0</ele><time>2026-04-24T14:33:31Z</time></trkpt><trkpt lat="38.11723663326863" lon="15.868768133665839"><ele>1667.0</ele><time>2026-04-24T14:33:32Z</time></trkpt><trkpt lat="38.117238840475956" lon="15.86861024812021"><ele>1667.0</ele><time>2026-04-24T14:33:33Z</time></trkpt><trkpt lat="38.11722232943179" lon="15.86843601922791"><ele>1667.0</ele><time>2026-04-24T14:33:34Z</time></trkpt><trkpt lat="38.11719496055131" lon="15.868212906319446"><ele>1667.0</ele><time>2026-04-24T14:33:35Z</time></trkpt><trkpt lat="38.11717094403561" lon="15.867970219351825"><ele>1666.3333333333333</ele><time>2026-04-24T14:33:36Z</time></trkpt><trkpt lat="38.11715902502229" lon="15.867747963560289"><ele>1665.6666666666665</ele><time>2026-04-24T14:33:37Z</time></trkpt><trkpt lat="38.11714948946106" lon="15.8675606175773"><ele>1665.0</ele><time>2026-04-24T14:33:38Z</time></trkpt><trkpt lat="38.11717416723027" lon="15.867381621754356"><ele>1665.0</ele><time>2026-04-24T14:33:39Z</time></trkpt><trkpt lat="38.11720711121889" lon="15.8672107903565"><ele>1665.0</ele><time>2026-04-24T14:33:40Z</time></trkpt><trkpt lat="38.117257791210115" lon="15.86704581903491"><ele>1665.0</ele><time>2026-04-24T14:33:41Z</time></trkpt><trkpt lat="38.11730688942753" lon="15.866891380221562"><ele>1665.0</ele><time>2026-04-24T14:33:42Z</time></trkpt><trkpt lat="38.1173279032313" lon="15.866729434542451"><ele>1663.6666666666665</ele><time>2026-04-24T14:33:43Z</time></trkpt><trkpt lat="38.11732242876272" lon="15.866543057794676"><ele>1662.3333333333333</ele><time>2026-04-24T14:33:44Z</time></trkpt><trkpt lat="38.117302539509964" lon="15.866344520396297"><ele>1661.0</ele><time>2026-04-24T14:33:45Z</time></trkpt><trkpt lat="38.11728906046376" lon="15.866141045358756"><ele>1661.0</ele><time>2026-04-24T14:33:46Z</time></trkpt><trkpt lat="38.11728324637803" lon="15.865959190408349"><ele>1661.0</ele><time>2026-04-24T14:33:47Z</time></trkpt><trkpt lat="38.11730804085321" lon="15.865798289641253"><ele>1661.0</ele><time>2026-04-24T14:33:48Z</time></trkpt><trkpt lat="38.11736475033957" lon="15.865649901726186"><ele>1661.0</ele><time>2026-04-24T14:33:49Z</time></trkpt><trkpt lat="38.117434588084045" lon="15.865497718926608"><ele>1663.75</ele><time>2026-04-24T14:33:50Z</time></trkpt><trkpt lat="38.117516986791216" lon="15.865345436003345"><ele>1666.5</ele><time>2026-04-24T14:33:51Z</time></trkpt><trkpt lat="38.11761780259149" lon="15.86520508577017"><ele>1669.25</ele><time>2026-04-24T14:33:52Z</time></trkpt><trkpt lat="38.11772316403777" lon="15.865099778763565"><ele>1672.0</ele><time>2026-04-24T14:33:53Z</time></trkpt><trkpt lat="38.11782469998825" lon="15.865007466894825"><ele>1672.0</ele><time>2026-04-24T14:33:54Z</time></trkpt><trkpt lat="38.11790008287173" lon="15.864939880805087"><ele>1672.0</ele><time>2026-04-24T14:33:55Z</time></trkpt><trkpt lat="38.11801797788533" lon="15.86490631467423"><ele>1672.0</ele><time>2026-04-24T14:33:56Z</time></trkpt><trkpt lat="38.11812065641487" lon="15.864912680467182"><ele>1672.0</ele><time>2026-04-24T14:33:57Z</time></trkpt><trkpt lat="38.11820408056877" lon="15.86496484688966"><ele>1672.0</ele><time>2026-04-24T14:33:58Z</time></trkpt><trkpt lat="38.118275169814474" lon="15.86505660432307"><ele>1672.0</ele><time>2026-04-24T14:33:59Z</time></trkpt><trkpt lat="38.11832606350593" lon="15.86518329915717"><ele>1672.0</ele><time>2026-04-24T14:34:00Z</time></trkpt><trkpt lat="38.11839385323345" lon="15.865367990854407"><ele>1672.0</ele><time>2026-04-24T14:34:01Z</time></trkpt><trkpt lat="38.118449369768584" lon="15.865568677433517"><ele>1672.0</ele><time>2026-04-24T14:34:02Z</time></trkpt><trkpt lat="38.11848529884515" lon="15.86570567515382"><ele>1672.0</ele><time>2026-04-24T14:34:03Z</time></trkpt><trkpt lat="38.11852896703254" lon="15.865864627009902"><ele>1672.0</ele><time>2026-04-24T14:34:04Z</time></trkpt><trkpt lat="38.11857076863992" lon="15.866029103987113"><ele>1672.0</ele><time>2026-04-24T14:34:05Z</time></trkpt><trkpt lat="38.118617112739216" lon="15.866184937915301"><ele>1672.0</ele><time>2026-04-24T14:34:06Z</time></trkpt><trkpt lat="38.118670548464856" lon="15.866331888172695"><ele>1673.0</ele><time>2026-04-24T14:34:07Z</time></trkpt><trkpt lat="38.11873442200353" lon="15.866507032299662"><ele>1674.0</ele><time>2026-04-24T14:34:08Z</time></trkpt><trkpt lat="38.11882092331986" lon="15.866660919356917"><ele>1675.0</ele><time>2026-04-24T14:34:09Z</time></trkpt><trkpt lat="38.118904449544004" lon="15.866786181622109"><ele>1676.0</ele><time>2026-04-24T14:34:10Z</time></trkpt><trkpt lat="38.118978896572116" lon="15.866898060575986"><ele>1676.0</ele><time>2026-04-24T14:34:11Z</time></trkpt><trkpt lat="38.11906475882499" lon="15.866972044009822"><ele>1676.0</ele><time>2026-04-24T14:34:12Z</time></trkpt><trkpt lat="38.119172572791264" lon="15.867015924685283"><ele>1676.0</ele><time>2026-04-24T14:34:13Z</time></trkpt><trkpt lat="38.119303301960606" lon="15.867054982638813"><ele>1676.0</ele><time>2026-04-24T14:34:14Z</time></trkpt><trkpt lat="38.11944242601099" lon="15.867128569536177"><ele>1672.0</ele><time>2026-04-24T14:34:15Z</time></trkpt><trkpt lat="38.119575138585304" lon="15.86722738992336"><ele>1668.0</ele><time>2026-04-24T14:34:16Z</time></trkpt><trkpt lat="38.11968701557994" lon="15.86732094083544"><ele>1664.0</ele><time>2026-04-24T14:34:17Z</time></trkpt><trkpt lat="38.119781966934994" lon="15.86739365593955"><ele>1660.0</ele><time>2026-04-24T14:34:18Z</time></trkpt><trkpt lat="38.11986813735139" lon="15.867430361384685"><ele>1657.0</ele><time>2026-04-24T14:34:19Z</time></trkpt><trkpt lat="38.11995822720653" lon="15.867422978899048"><ele>1654.0</ele><time>2026-04-24T14:34:20Z</time></trkpt><trkpt lat="38.12006539609305" lon="15.867381873214049"><ele>1651.0</ele><time>2026-04-24T14:34:21Z</time></trkpt><trkpt lat="38.12018426139461" lon="15.867329114585319"><ele>1648.0</ele><time>2026-04-24T14:34:22Z</time></trkpt><trkpt lat="38.12031004622579" lon="15.867302621847092"><ele>1648.0</ele><time>2026-04-24T14:34:23Z</time></trkpt><trkpt lat="38.12043858242122" lon="15.867317717338645"><ele>1648.0</ele><time>2026-04-24T14:34:24Z</time></trkpt><trkpt lat="38.12057383065929" lon="15.867363682264841"><ele>1648.0</ele><time>2026-04-24T14:34:25Z</time></trkpt><trkpt lat="38.12070171944024" lon="15.867399808256454"><ele>1648.0</ele><time>2026-04-24T14:34:26Z</time></trkpt><trkpt lat="38.120805205367915" lon="15.867383302266711"><ele>1646.6000000000001</ele><time>2026-04-24T14:34:27Z</time></trkpt><trkpt lat="38.12088685415179" lon="15.867324001891395"><ele>1645.2</ele><time>2026-04-24T14:34:28Z</time></trkpt><trkpt lat="38.120958141090284" lon="15.867230915177243"><ele>1643.8</ele><time>2026-04-24T14:34:29Z</time></trkpt><trkpt lat="38.12103330332542" lon="15.86712140023024"><ele>1642.4</ele><time>2026-04-24T14:34:30Z</time></trkpt><trkpt lat="38.12112526064583" lon="15.86699042707999"><ele>1641.0</ele><time>2026-04-24T14:34:31Z</time></trkpt><trkpt lat="38.12124036406661" lon="15.866879744063672"><ele>1641.0</ele><time>2026-04-24T14:34:32Z</time></trkpt><trkpt lat="38.12136559201697" lon="15.866784827720409"><ele>1641.0</ele><time>2026-04-24T14:34:33Z</time></trkpt><trkpt lat="38.12153450254847" lon="15.866696986633357"><ele>1641.0</ele><time>2026-04-24T14:34:34Z</time></trkpt><trkpt lat="38.1217301587831" lon="15.866602787029592"><ele>1641.3333333333335</ele><time>2026-04-24T14:34:35Z</time></trkpt><trkpt lat="38.12194734620173" lon="15.866491353134892"><ele>1641.6666666666667</ele><time>2026-04-24T14:34:36Z</time></trkpt><trkpt lat="38.122139799775205" lon="15.866394398678413"><ele>1642.0</ele><time>2026-04-24T14:34:37Z</time></trkpt><trkpt lat="38.122312755713786" lon="15.866319127093083"><ele>1641.0</ele><time>2026-04-24T14:34:38Z</time></trkpt><trkpt lat="38.12248014588447" lon="15.866232704884593"><ele>1640.0</ele><time>2026-04-24T14:34:39Z</time></trkpt><trkpt lat="38.12265698295577" lon="15.866149238122093"><ele>1639.0</ele><time>2026-04-24T14:34:40Z</time></trkpt><trkpt lat="38.12281832854014" lon="15.866047179045998"><ele>1641.0</ele><time>2026-04-24T14:34:41Z</time></trkpt><trkpt lat="38.12295951385373" lon="15.865934997210822"><ele>1643.0</ele><time>2026-04-24T14:34:41.999Z</time></trkpt><trkpt lat="38.12309925340608" lon="15.865802645376842"><ele>1645.0</ele><time>2026-04-24T14:34:42.999Z</time></trkpt><trkpt lat="38.12324079156902" lon="15.865655444417268"><ele>1647.0</ele><time>2026-04-24T14:34:43.999Z</time></trkpt><trkpt lat="38.123373121068475" lon="15.865523313618734"><ele>1649.0</ele><time>2026-04-24T14:34:44.999Z</time></trkpt><trkpt lat="38.123489754932514" lon="15.865420529091928"><ele>1651.0</ele><time>2026-04-24T14:34:45.999Z</time></trkpt><trkpt lat="38.12362620629503" lon="15.865342955326858"><ele>1651.0</ele><time>2026-04-24T14:34:46.999Z</time></trkpt><trkpt lat="38.12379180891454" lon="15.86530150865097"><ele>1651.0</ele><time>2026-04-24T14:34:47.999Z</time></trkpt><trkpt lat="38.12396094497968" lon="15.865286971814912"><ele>1651.0</ele><time>2026-04-24T14:34:48.999Z</time></trkpt><trkpt lat="38.124109665480354" lon="15.86528382353932"><ele>1653.1999999999998</ele><time>2026-04-24T14:34:49.999Z</time></trkpt><trkpt lat="38.12421980025856" lon="15.865250122908282"><ele>1655.3999999999999</ele><time>2026-04-24T14:34:50.999Z</time></trkpt><trkpt lat="38.12430010733455" lon="15.865176398512029"><ele>1657.6</ele><time>2026-04-24T14:34:51.999Z</time></trkpt><trkpt lat="38.124373054768306" lon="15.865088932162077"><ele>1659.8</ele><time>2026-04-24T14:34:52.999Z</time></trkpt><trkpt lat="38.12446430009034" lon="15.864995775458045"><ele>1662.0</ele><time>2026-04-24T14:34:53.999Z</time></trkpt><trkpt lat="38.12457451995237" lon="15.864918073810108"><ele>1662.0</ele><time>2026-04-24T14:34:54.999Z</time></trkpt><trkpt lat="38.124684270784215" lon="15.864893088932376"><ele>1662.0</ele><time>2026-04-24T14:34:55.999Z</time></trkpt><trkpt lat="38.12479877090813" lon="15.864919299492074"><ele>1662.0</ele><time>2026-04-24T14:34:56.999Z</time></trkpt><trkpt lat="38.124936574198294" lon="15.864937318623202"><ele>1662.0</ele><time>2026-04-24T14:34:57.999Z</time></trkpt><trkpt lat="38.12507651832714" lon="15.864940848743416"><ele>1665.25</ele><time>2026-04-24T14:34:58.999Z</time></trkpt><trkpt lat="38.12522422224372" lon="15.864911777822185"><ele>1668.5</ele><time>2026-04-24T14:34:59.999Z</time></trkpt><trkpt lat="38.12535854749565" lon="15.864874354479724"><ele>1671.75</ele><time>2026-04-24T14:35:00.999Z</time></trkpt><trkpt lat="38.125462278003326" lon="15.864834202595135"><ele>1675.0</ele><time>2026-04-24T14:35:01.999Z</time></trkpt><trkpt lat="38.12553577740084" lon="15.86478470857867"><ele>1675.0</ele><time>2026-04-24T14:35:02.999Z</time></trkpt><trkpt lat="38.125586604961505" lon="15.864709091477778"><ele>1675.0</ele><time>2026-04-24T14:35:03.999Z</time></trkpt><trkpt lat="38.125639786430405" lon="15.86459455318936"><ele>1675.0</ele><time>2026-04-24T14:35:04.999Z</time></trkpt><trkpt lat="38.125696278719566" lon="15.864456078171143"><ele>1675.0</ele><time>2026-04-24T14:35:05.999Z</time></trkpt><trkpt lat="38.12576712503418" lon="15.864333423017406"><ele>1675.0</ele><time>2026-04-24T14:35:07Z</time></trkpt><trkpt lat="38.12585214922507" lon="15.864224119992395"><ele>1675.25</ele><time>2026-04-24T14:35:08Z</time></trkpt><trkpt lat="38.125971269886364" lon="15.864161651354552"><ele>1675.5</ele><time>2026-04-24T14:35:09Z</time></trkpt><trkpt lat="38.126093262375775" lon="15.86409868847157"><ele>1675.75</ele><time>2026-04-24T14:35:10Z</time></trkpt><trkpt lat="38.126205594163466" lon="15.864031110570467"><ele>1676.0</ele><time>2026-04-24T14:35:11Z</time></trkpt><trkpt lat="38.12629803273123" lon="15.863944746542359"><ele>1676.0</ele><time>2026-04-24T14:35:12Z</time></trkpt><trkpt lat="38.12637212086458" lon="15.863833294659877"><ele>1676.0</ele><time>2026-04-24T14:35:13Z</time></trkpt><trkpt lat="38.12642530843581" lon="15.863700449881179"><ele>1676.0</ele><time>2026-04-24T14:35:14Z</time></trkpt><trkpt lat="38.12645978909867" lon="15.8635445966307"><ele>1676.0</ele><time>2026-04-24T14:35:15Z</time></trkpt><trkpt lat="38.12648031735062" lon="15.863381708009236"><ele>1676.0</ele><time>2026-04-24T14:35:16Z</time></trkpt><trkpt lat="38.12648586993761" lon="15.863213750287334"><ele>1676.0</ele><time>2026-04-24T14:35:17Z</time></trkpt><trkpt lat="38.1264745247514" lon="15.863045611911406"><ele>1676.0</ele><time>2026-04-24T14:35:18Z</time></trkpt><trkpt lat="38.12647127300343" lon="15.862882849758867"><ele>1676.0</ele><time>2026-04-24T14:35:19Z</time></trkpt><trkpt lat="38.1264929160488" lon="15.862734871101184"><ele>1673.0</ele><time>2026-04-24T14:35:20Z</time></trkpt><trkpt lat="38.12653163566953" lon="15.862598449633344"><ele>1670.0</ele><time>2026-04-24T14:35:21Z</time></trkpt><trkpt lat="38.12658951922881" lon="15.862473285996419"><ele>1667.0</ele><time>2026-04-24T14:35:22Z</time></trkpt><trkpt lat="38.12666091621968" lon="15.862369685352045"><ele>1664.0</ele><time>2026-04-24T14:35:23Z</time></trkpt><trkpt lat="38.12673260169193" lon="15.86226797309144"><ele>1661.0</ele><time>2026-04-24T14:35:24Z</time></trkpt><trkpt lat="38.12683544952849" lon="15.86217892577304"><ele>1661.0</ele><time>2026-04-24T14:35:25Z</time></trkpt><trkpt lat="38.12694567867961" lon="15.862091831975576"><ele>1661.0</ele><time>2026-04-24T14:35:26Z</time></trkpt><trkpt lat="38.12705459809192" lon="15.862036026561992"><ele>1661.0</ele><time>2026-04-24T14:35:27Z</time></trkpt><trkpt lat="38.12716813475556" lon="15.861988284450167"><ele>1661.0</ele><time>2026-04-24T14:35:28Z</time></trkpt><trkpt lat="38.12727298681084" lon="15.861931130430627"><ele>1661.0</ele><time>2026-04-24T14:35:29Z</time></trkpt><trkpt lat="38.12736759620709" lon="15.861861711832422"><ele>1661.0</ele><time>2026-04-24T14:35:30Z</time></trkpt><trkpt lat="38.12745443753469" lon="15.861788267600703"><ele>1661.0</ele><time>2026-04-24T14:35:31Z</time></trkpt><trkpt lat="38.127534778426025" lon="15.86170818525102"><ele>1661.0</ele><time>2026-04-24T14:35:32Z</time></trkpt><trkpt lat="38.12760175298577" lon="15.86161809797326"><ele>1661.0</ele><time>2026-04-24T14:35:33Z</time></trkpt><trkpt lat="38.12765208195589" lon="15.861515998003867"><ele>1660.0</ele><time>2026-04-24T14:35:34Z</time></trkpt><trkpt lat="38.127693862634764" lon="15.861379110710844"><ele>1659.0</ele><time>2026-04-24T14:35:35Z</time></trkpt><trkpt lat="38.12772380595932" lon="15.861226818261748"><ele>1658.0</ele><time>2026-04-24T14:35:36Z</time></trkpt><trkpt lat="38.127767864218995" lon="15.861048513390442"><ele>1657.0</ele><time>2026-04-24T14:35:37Z</time></trkpt><trkpt lat="38.127811999548435" lon="15.860862142090658"><ele>1654.6666666666667</ele><time>2026-04-24T14:35:38Z</time></trkpt><trkpt lat="38.12786929138519" lon="15.86065923359921"><ele>1652.3333333333335</ele><time>2026-04-24T14:35:39Z</time></trkpt><trkpt lat="38.127937319359276" lon="15.860463836202534"><ele>1650.0</ele><time>2026-04-24T14:35:40Z</time></trkpt><trkpt lat="38.128009692339184" lon="15.860284996308458"><ele>1648.6666666666665</ele><time>2026-04-24T14:35:41Z</time></trkpt><trkpt lat="38.12809633151219" lon="15.86010725706802"><ele>1647.3333333333333</ele><time>2026-04-24T14:35:42Z</time></trkpt><trkpt lat="38.12821546151276" lon="15.859925915477486"><ele>1646.0</ele><time>2026-04-24T14:35:43Z</time></trkpt><trkpt lat="38.128347491050796" lon="15.85973493514248"><ele>1646.75</ele><time>2026-04-24T14:35:44Z</time></trkpt><trkpt lat="38.12845221445301" lon="15.859556247851392"><ele>1647.5</ele><time>2026-04-24T14:35:45Z</time></trkpt><trkpt lat="38.12851900152238" lon="15.859400440593618"><ele>1648.25</ele><time>2026-04-24T14:35:46Z</time></trkpt><trkpt lat="38.12857275849069" lon="15.859258776571057"><ele>1649.0</ele><time>2026-04-24T14:35:47Z</time></trkpt><trkpt lat="38.12864046767679" lon="15.859150579900858"><ele>1649.0</ele><time>2026-04-24T14:35:48Z</time></trkpt><trkpt lat="38.128733066191955" lon="15.859076526507113"><ele>1649.0</ele><time>2026-04-24T14:35:49Z</time></trkpt><trkpt lat="38.12886155863138" lon="15.859015045483488"><ele>1649.0</ele><time>2026-04-24T14:35:50Z</time></trkpt><trkpt lat="38.12901877805298" lon="15.858928768988383"><ele>1649.0</ele><time>2026-04-24T14:35:51Z</time></trkpt><trkpt lat="38.12917004756686" lon="15.858826308653136"><ele>1650.25</ele><time>2026-04-24T14:35:52Z</time></trkpt><trkpt lat="38.12930851816105" lon="15.858740676912836"><ele>1651.5</ele><time>2026-04-24T14:35:53Z</time></trkpt><trkpt lat="38.129445446069774" lon="15.858692734717236"><ele>1652.75</ele><time>2026-04-24T14:35:54Z</time></trkpt><trkpt lat="38.12957937854924" lon="15.85867460315663"><ele>1654.0</ele><time>2026-04-24T14:35:55Z</time></trkpt><trkpt lat="38.12970934240772" lon="15.858683790697155"><ele>1654.0</ele><time>2026-04-24T14:35:56Z</time></trkpt><trkpt lat="38.12983665477101" lon="15.858727079051091"><ele>1654.0</ele><time>2026-04-24T14:35:57Z</time></trkpt><trkpt lat="38.1299730203078" lon="15.858799336434013"><ele>1654.0</ele><time>2026-04-24T14:35:58Z</time></trkpt><trkpt lat="38.13010835399302" lon="15.858871481943412"><ele>1654.0</ele><time>2026-04-24T14:35:59Z</time></trkpt><trkpt lat="38.130240245071676" lon="15.858917790785863"><ele>1651.8000000000002</ele><time>2026-04-24T14:36:00Z</time></trkpt><trkpt lat="38.13036858746199" lon="15.858924157075167"><ele>1649.6000000000001</ele><time>2026-04-24T14:36:01Z</time></trkpt><trkpt lat="38.13048860353259" lon="15.85890259272499"><ele>1647.4</ele><time>2026-04-24T14:36:02Z</time></trkpt><trkpt lat="38.13059127840463" lon="15.858879705113656"><ele>1645.2</ele><time>2026-04-24T14:36:03Z</time></trkpt><trkpt lat="38.13068347441509" lon="15.858893391233275"><ele>1643.0</ele><time>2026-04-24T14:36:04Z</time></trkpt><trkpt lat="38.130763355975326" lon="15.85895427102596"><ele>1640.6000000000001</ele><time>2026-04-24T14:36:05Z</time></trkpt><trkpt lat="38.13082633042905" lon="15.859048226280914"><ele>1638.2</ele><time>2026-04-24T14:36:06Z</time></trkpt><trkpt lat="38.130857050204796" lon="15.85916119992807"><ele>1635.8</ele><time>2026-04-24T14:36:07Z</time></trkpt><trkpt lat="38.13085110605589" lon="15.859289973446293"><ele>1633.4</ele><time>2026-04-24T14:36:08Z</time></trkpt><trkpt lat="38.13081556315144" lon="15.859430885192527"><ele>1631.0</ele><time>2026-04-24T14:36:09Z</time></trkpt><trkpt lat="38.13077904871195" lon="15.859573797760083"><ele>1630.1999999999998</ele><time>2026-04-24T14:36:10Z</time></trkpt><trkpt lat="38.1307709416843" lon="15.859695751623898"><ele>1629.3999999999999</ele><time>2026-04-24T14:36:11Z</time></trkpt><trkpt lat="38.13080206062935" lon="15.859797892059413"><ele>1628.6</ele><time>2026-04-24T14:36:12Z</time></trkpt><trkpt lat="38.13086456828612" lon="15.859885060180334"><ele>1627.8</ele><time>2026-04-24T14:36:13Z</time></trkpt><trkpt lat="38.130932283332335" lon="15.859944256674195"><ele>1627.0</ele><time>2026-04-24T14:36:14Z</time></trkpt><trkpt lat="38.13103448867481" lon="15.85998389062872"><ele>1627.0</ele><time>2026-04-24T14:36:15Z</time></trkpt><trkpt lat="38.13117604599176" lon="15.860036150663886"><ele>1627.0</ele><time>2026-04-24T14:36:16Z</time></trkpt><trkpt lat="38.131319298378884" lon="15.860105109611757"><ele>1627.0</ele><time>2026-04-24T14:36:17Z</time></trkpt><trkpt lat="38.13145786466203" lon="15.860194503240399"><ele>1623.75</ele><time>2026-04-24T14:36:18Z</time></trkpt><trkpt lat="38.131571949064465" lon="15.860300314054756"><ele>1620.5</ele><time>2026-04-24T14:36:19Z</time></trkpt><trkpt lat="38.13166577836492" lon="15.860408646935175"><ele>1617.25</ele><time>2026-04-24T14:36:20Z</time></trkpt><trkpt lat="38.131756977947155" lon="15.860484925374012"><ele>1614.0</ele><time>2026-04-24T14:36:21Z</time></trkpt><trkpt lat="38.13185804534744" lon="15.860510961345142"><ele>1614.0</ele><time>2026-04-24T14:36:22Z</time></trkpt><trkpt lat="38.13196631540195" lon="15.860509704565123"><ele>1614.0</ele><time>2026-04-24T14:36:23Z</time></trkpt><trkpt lat="38.13208898793971" lon="15.860490678734323"><ele>1614.0</ele><time>2026-04-24T14:36:24Z</time></trkpt><trkpt lat="38.132223781951645" lon="15.860454158656411"><ele>1614.0</ele><time>2026-04-24T14:36:25Z</time></trkpt><trkpt lat="38.13234067644127" lon="15.860417336321035"><ele>1612.5</ele><time>2026-04-24T14:36:26Z</time></trkpt><trkpt lat="38.13244363402663" lon="15.860415835384591"><ele>1611.0</ele><time>2026-04-24T14:36:27Z</time></trkpt><trkpt lat="38.13255243632522" lon="15.86045806375609"><ele>1609.5</ele><time>2026-04-24T14:36:28Z</time></trkpt><trkpt lat="38.132662250342854" lon="15.860532962535832"><ele>1608.0</ele><time>2026-04-24T14:36:29Z</time></trkpt><trkpt lat="38.132767276192986" lon="15.8606018578179"><ele>1608.0</ele><time>2026-04-24T14:36:30Z</time></trkpt><trkpt lat="38.13286551261804" lon="15.860615774522692"><ele>1608.0</ele><time>2026-04-24T14:36:31Z</time></trkpt><trkpt lat="38.132975083344135" lon="15.86056864977784"><ele>1608.0</ele><time>2026-04-24T14:36:32Z</time></trkpt><trkpt lat="38.133094972240634" lon="15.860494961658379"><ele>1608.0</ele><time>2026-04-24T14:36:33Z</time></trkpt><trkpt lat="38.13320621760684" lon="15.860464850757598"><ele>1606.0</ele><time>2026-04-24T14:36:34Z</time></trkpt><trkpt lat="38.133320004028455" lon="15.860475422606529"><ele>1604.0</ele><time>2026-04-24T14:36:34.999Z</time></trkpt><trkpt lat="38.13344897503876" lon="15.86052420371753"><ele>1602.0</ele><time>2026-04-24T14:36:35.999Z</time></trkpt><trkpt lat="38.13361987329834" lon="15.8605710792036"><ele>1600.0</ele><time>2026-04-24T14:36:36.999Z</time></trkpt><trkpt lat="38.13380874120068" lon="15.860591900048295"><ele>1600.0</ele><time>2026-04-24T14:36:37.999Z</time></trkpt><trkpt lat="38.133981179632435" lon="15.860599035043705"><ele>1600.0</ele><time>2026-04-24T14:36:38.999Z</time></trkpt><trkpt lat="38.13413853028659" lon="15.860600945054804"><ele>1600.0</ele><time>2026-04-24T14:36:39.999Z</time></trkpt><trkpt lat="38.13428407736561" lon="15.860606274534572"><ele>1598.75</ele><time>2026-04-24T14:36:40.999Z</time></trkpt><trkpt lat="38.134410723001785" lon="15.860584887755968"><ele>1597.5</ele><time>2026-04-24T14:36:41.999Z</time></trkpt><trkpt lat="38.13452742649631" lon="15.86052367581361"><ele>1596.25</ele><time>2026-04-24T14:36:42.999Z</time></trkpt><trkpt lat="38.13463302257846" lon="15.860435408709002"><ele>1595.0</ele><time>2026-04-24T14:36:43.999Z</time></trkpt><trkpt lat="38.13473717370425" lon="15.860331322386354"><ele>1595.0</ele><time>2026-04-24T14:36:44.999Z</time></trkpt><trkpt lat="38.13483077326791" lon="15.860204556032977"><ele>1595.0</ele><time>2026-04-24T14:36:45.999Z</time></trkpt><trkpt lat="38.13491109015378" lon="15.860073686863212"><ele>1595.0</ele><time>2026-04-24T14:36:46.999Z</time></trkpt><trkpt lat="38.13499583827223" lon="15.859977705125097"><ele>1595.0</ele><time>2026-04-24T14:36:47.999Z</time></trkpt><trkpt lat="38.135090324158256" lon="15.85992513548428"><ele>1595.8</ele><time>2026-04-24T14:36:48.999Z</time></trkpt><trkpt lat="38.13518742506452" lon="15.859882769794815"><ele>1596.6</ele><time>2026-04-24T14:36:49.999Z</time></trkpt><trkpt lat="38.13525591924103" lon="15.859804083842487"><ele>1597.4</ele><time>2026-04-24T14:36:50.999Z</time></trkpt><trkpt lat="38.135293724822645" lon="15.859690089542688"><ele>1598.2</ele><time>2026-04-24T14:36:51.999Z</time></trkpt><trkpt lat="38.135291426503564" lon="15.85954942557107"><ele>1599.0</ele><time>2026-04-24T14:36:52.999Z</time></trkpt><trkpt lat="38.13526912829461" lon="15.859388992487865"><ele>1599.4</ele><time>2026-04-24T14:36:53.999Z</time></trkpt><trkpt lat="38.135245759638565" lon="15.8592369101715"><ele>1599.8000000000002</ele><time>2026-04-24T14:36:54.999Z</time></trkpt><trkpt lat="38.13525225299062" lon="15.859117532556567"><ele>1600.1999999999998</ele><time>2026-04-24T14:36:55.999Z</time></trkpt><trkpt lat="38.1352980230606" lon="15.85901558417449"><ele>1600.6</ele><time>2026-04-24T14:36:56.999Z</time></trkpt><trkpt lat="38.13536999519836" lon="15.858904277552286"><ele>1601.0</ele><time>2026-04-24T14:36:57.999Z</time></trkpt><trkpt lat="38.13543891703126" lon="15.85879203227673"><ele>1601.0</ele><time>2026-04-24T14:36:58.999Z</time></trkpt><trkpt lat="38.13547263666605" lon="15.858664986867229"><ele>1601.0</ele><time>2026-04-24T14:36:59.999Z</time></trkpt><trkpt lat="38.13546409599507" lon="15.85852995339083"><ele>1601.0</ele><time>2026-04-24T14:37:00.999Z</time></trkpt><trkpt lat="38.13542878606286" lon="15.858397403036635"><ele>1601.0</ele><time>2026-04-24T14:37:01.999Z</time></trkpt><trkpt lat="38.135400609607984" lon="15.858260973554655"><ele>1601.0</ele><time>2026-04-24T14:37:02.999Z</time></trkpt><trkpt lat="38.13542052366444" lon="15.858136105387752"><ele>1601.8</ele><time>2026-04-24T14:37:03.999Z</time></trkpt><trkpt lat="38.135482006588305" lon="15.858034699167888"><ele>1602.6</ele><time>2026-04-24T14:37:04.999Z</time></trkpt><trkpt lat="38.13556533642401" lon="15.857945919754222"><ele>1603.4</ele><time>2026-04-24T14:37:05.999Z</time></trkpt><trkpt lat="38.135647257989355" lon="15.857843957484528"><ele>1604.2</ele><time>2026-04-24T14:37:06.999Z</time></trkpt><trkpt lat="38.13571972970375" lon="15.857725174075249"><ele>1605.0</ele><time>2026-04-24T14:37:07.999Z</time></trkpt><trkpt lat="38.1357885775103" lon="15.857600618723026"><ele>1605.0</ele><time>2026-04-24T14:37:08.999Z</time></trkpt><trkpt lat="38.135871499379675" lon="15.857507544525292"><ele>1605.0</ele><time>2026-04-24T14:37:09.999Z</time></trkpt><trkpt lat="38.13597505655195" lon="15.857454349506481"><ele>1605.0</ele><time>2026-04-24T14:37:10.999Z</time></trkpt><trkpt lat="38.13608987542443" lon="15.85742506902217"><ele>1605.0</ele><time>2026-04-24T14:37:12Z</time></trkpt><trkpt lat="38.13618724847965" lon="15.85737973347126"><ele>1605.0</ele><time>2026-04-24T14:37:13Z</time></trkpt><trkpt lat="38.13624919033288" lon="15.857297641919136"><ele>1605.0</ele><time>2026-04-24T14:37:14Z</time></trkpt><trkpt lat="38.136277240483786" lon="15.85718155004125"><ele>1605.0</ele><time>2026-04-24T14:37:15Z</time></trkpt><trkpt lat="38.13628232071964" lon="15.857029571400208"><ele>1605.0</ele><time>2026-04-24T14:37:16Z</time></trkpt><trkpt lat="38.136289092021364" lon="15.85684905638456"><ele>1605.0</ele><time>2026-04-24T14:37:17Z</time></trkpt><trkpt lat="38.13631716982512" lon="15.856668375513314"><ele>1602.75</ele><time>2026-04-24T14:37:18Z</time></trkpt><trkpt lat="38.13636045910709" lon="15.856503242220416"><ele>1600.5</ele><time>2026-04-24T14:37:19Z</time></trkpt><trkpt lat="38.13637346385565" lon="15.856339866148877"><ele>1598.25</ele><time>2026-04-24T14:37:20Z</time></trkpt><trkpt lat="38.1363585957446" lon="15.856164200900025"><ele>1596.0</ele><time>2026-04-24T14:37:21Z</time></trkpt><trkpt lat="38.13637346211753" lon="15.856003117197726"><ele>1594.8</ele><time>2026-04-24T14:37:22Z</time></trkpt><trkpt lat="38.13640319130726" lon="15.855873587736282"><ele>1593.6</ele><time>2026-04-24T14:37:23Z</time></trkpt><trkpt lat="38.13645870154051" lon="15.855774155572972"><ele>1592.4</ele><time>2026-04-24T14:37:24Z</time></trkpt><trkpt lat="38.13654093727738" lon="15.855679718094336"><ele>1591.2</ele><time>2026-04-24T14:37:25Z</time></trkpt><trkpt lat="38.13664970091754" lon="15.8555750162466"><ele>1590.0</ele><time>2026-04-24T14:37:26Z</time></trkpt><trkpt lat="38.136744122145856" lon="15.85545707862703"><ele>1593.2</ele><time>2026-04-24T14:37:27Z</time></trkpt><trkpt lat="38.13683628424293" lon="15.855381058644939"><ele>1596.4</ele><time>2026-04-24T14:37:28Z</time></trkpt><trkpt lat="38.13693629115223" lon="15.855325813284097"><ele>1599.6</ele><time>2026-04-24T14:37:29Z</time></trkpt><trkpt lat="38.13704430660786" lon="15.85529032818034"><ele>1602.8</ele><time>2026-04-24T14:37:30Z</time></trkpt><trkpt lat="38.137138944695785" lon="15.85524991975185"><ele>1606.0</ele><time>2026-04-24T14:37:31Z</time></trkpt><trkpt lat="38.13720480344593" lon="15.855197743388514"><ele>1606.0</ele><time>2026-04-24T14:37:32Z</time></trkpt><trkpt lat="38.1372468784946" lon="15.85513298212945"><ele>1606.0</ele><time>2026-04-24T14:37:33Z</time></trkpt><trkpt lat="38.13727297489333" lon="15.854988322900372"><ele>1606.0</ele><time>2026-04-24T14:37:35Z</time></trkpt><trkpt lat="38.137254601785145" lon="15.85488191975609"><ele>1606.0</ele><time>2026-04-24T14:37:36Z</time></trkpt><trkpt lat="38.13722179001455" lon="15.854758524291647"><ele>1606.0</ele><time>2026-04-24T14:37:37Z</time></trkpt><trkpt lat="38.13716381847047" lon="15.854605814805284"><ele>1604.75</ele><time>2026-04-24T14:37:38Z</time></trkpt><trkpt lat="38.13710235729706" lon="15.854451475420499"><ele>1603.5</ele><time>2026-04-24T14:37:39Z</time></trkpt><trkpt lat="38.13705336372208" lon="15.85429606019427"><ele>1602.25</ele><time>2026-04-24T14:37:40Z</time></trkpt><trkpt lat="38.13699403884657" lon="15.854141726873987"><ele>1601.0</ele><time>2026-04-24T14:37:41Z</time></trkpt><trkpt lat="38.13689533258044" lon="15.854013126818966"><ele>1600.75</ele><time>2026-04-24T14:37:42Z</time></trkpt><trkpt lat="38.136770061438156" lon="15.853902788015507"><ele>1600.5</ele><time>2026-04-24T14:37:43Z</time></trkpt><trkpt lat="38.136653441034376" lon="15.853802072349714"><ele>1600.25</ele><time>2026-04-24T14:37:44Z</time></trkpt><trkpt lat="38.1365787717039" lon="15.85368947965413"><ele>1600.0</ele><time>2026-04-24T14:37:45Z</time></trkpt><trkpt lat="38.13656020080437" lon="15.853575831000319"><ele>1600.25</ele><time>2026-04-24T14:37:46Z</time></trkpt><trkpt lat="38.13656390152002" lon="15.853439625695222"><ele>1600.5</ele><time>2026-04-24T14:37:47Z</time></trkpt><trkpt lat="38.13658539305996" lon="15.85326844719084"><ele>1600.75</ele><time>2026-04-24T14:37:48Z</time></trkpt><trkpt lat="38.1365882024369" lon="15.853087373658433"><ele>1601.0</ele><time>2026-04-24T14:37:49Z</time></trkpt><trkpt lat="38.13658229488849" lon="15.85294373961293"><ele>1601.0</ele><time>2026-04-24T14:37:50Z</time></trkpt><trkpt lat="38.136586131858216" lon="15.852788413139995"><ele>1601.0</ele><time>2026-04-24T14:37:51Z</time></trkpt><trkpt lat="38.136601978184515" lon="15.852630984166877"><ele>1601.0</ele><time>2026-04-24T14:37:52Z</time></trkpt><trkpt lat="38.13663552961755" lon="15.852467531649728"><ele>1601.0</ele><time>2026-04-24T14:37:53Z</time></trkpt><trkpt lat="38.13667418229527" lon="15.85232025967475"><ele>1600.8</ele><time>2026-04-24T14:37:54Z</time></trkpt><trkpt lat="38.13672152464466" lon="15.8521968927877"><ele>1600.6</ele><time>2026-04-24T14:37:55Z</time></trkpt><trkpt lat="38.13678858263968" lon="15.85210736660926"><ele>1600.4</ele><time>2026-04-24T14:37:56Z</time></trkpt><trkpt lat="38.13687079036663" lon="15.852050477431598"><ele>1600.2</ele><time>2026-04-24T14:37:57Z</time></trkpt><trkpt lat="38.1369675906815" lon="15.852042307452002"><ele>1600.0</ele><time>2026-04-24T14:37:58Z</time></trkpt><trkpt lat="38.13705853064342" lon="15.852099243593326"><ele>1600.0000000000002</ele><time>2026-04-24T14:37:59Z</time></trkpt><trkpt lat="38.13711569774713" lon="15.852188334374494"><ele>1600.0</ele><time>2026-04-24T14:38:00Z</time></trkpt><trkpt lat="38.137147385704104" lon="15.852300044455326"><ele>1600.0</ele><time>2026-04-24T14:38:01Z</time></trkpt><trkpt lat="38.137189507471874" lon="15.852382756926456"><ele>1600.0</ele><time>2026-04-24T14:38:02Z</time></trkpt><trkpt lat="38.137269549086" lon="15.852416560931239"><ele>1600.0000000000002</ele><time>2026-04-24T14:38:03Z</time></trkpt><trkpt lat="38.13737222194645" lon="15.852418151849678"><ele>1600.0</ele><time>2026-04-24T14:38:04Z</time></trkpt><trkpt lat="38.137482038019506" lon="15.852429278456878"><ele>1598.4</ele><time>2026-04-24T14:38:05Z</time></trkpt><trkpt lat="38.13756971529768" lon="15.8524791272907"><ele>1596.8</ele><time>2026-04-24T14:38:06Z</time></trkpt><trkpt lat="38.13765481266921" lon="15.85256288599155"><ele>1595.1999999999998</ele><time>2026-04-24T14:38:07Z</time></trkpt><trkpt lat="38.1377306984095" lon="15.85265500457959"><ele>1593.6</ele><time>2026-04-24T14:38:08Z</time></trkpt><trkpt lat="38.1377938260694" lon="15.852740002540015"><ele>1592.0</ele><time>2026-04-24T14:38:09Z</time></trkpt><trkpt lat="38.137838144095795" lon="15.852831180128696"><ele>1592.0</ele><time>2026-04-24T14:38:10Z</time></trkpt><trkpt lat="38.13785714415353" lon="15.852935000938928"><ele>1592.0</ele><time>2026-04-24T14:38:11Z</time></trkpt><trkpt lat="38.13784163323398" lon="15.853049079254307"><ele>1592.0</ele><time>2026-04-24T14:38:12Z</time></trkpt><trkpt lat="38.137803989264995" lon="15.853175758312352"><ele>1592.0</ele><time>2026-04-24T14:38:13Z</time></trkpt><trkpt lat="38.13775206545321" lon="15.853295736223119"><ele>1592.0</ele><time>2026-04-24T14:38:14Z</time></trkpt><trkpt lat="38.13768554796085" lon="15.853386086509298"><ele>1592.0</ele><time>2026-04-24T14:38:15Z</time></trkpt><trkpt lat="38.137631863722824" lon="15.853451508947384"><ele>1592.0</ele><time>2026-04-24T14:38:16Z</time></trkpt><trkpt lat="38.137621786006164" lon="15.853595304737249"><ele>1592.0</ele><time>2026-04-24T14:38:18Z</time></trkpt><trkpt lat="38.13767579887617" lon="15.853675409491334"><ele>1592.0</ele><time>2026-04-24T14:38:19Z</time></trkpt><trkpt lat="38.137750150235114" lon="15.853756208379105"><ele>1592.0</ele><time>2026-04-24T14:38:20Z</time></trkpt><trkpt lat="38.137833038503366" lon="15.853834604414198"><ele>1592.6</ele><time>2026-04-24T14:38:21Z</time></trkpt><trkpt lat="38.13789069577422" lon="15.853930758975778"><ele>1593.1999999999998</ele><time>2026-04-24T14:38:22Z</time></trkpt><trkpt lat="38.13792841189294" lon="15.854035621087329"><ele>1593.8</ele><time>2026-04-24T14:38:23Z</time></trkpt><trkpt lat="38.13799730910413" lon="15.854112863805195"><ele>1594.4</ele><time>2026-04-24T14:38:24Z</time></trkpt><trkpt lat="38.13808078813034" lon="15.854165532605846"><ele>1595.0</ele><time>2026-04-24T14:38:25Z</time></trkpt><trkpt lat="38.138152265523374" lon="15.854219425903631"><ele>1596.2</ele><time>2026-04-24T14:38:26Z</time></trkpt><trkpt lat="38.138193559201326" lon="15.854294579806249"><ele>1597.4</ele><time>2026-04-24T14:38:27Z</time></trkpt><trkpt lat="38.138207124433244" lon="15.85440509190902"><ele>1598.6</ele><time>2026-04-24T14:38:28Z</time></trkpt><trkpt lat="38.13820043406857" lon="15.854566754735847"><ele>1599.8</ele><time>2026-04-24T14:38:29Z</time></trkpt><trkpt lat="38.13820175333231" lon="15.854756480682335"><ele>1601.0</ele><time>2026-04-24T14:38:30Z</time></trkpt><trkpt lat="38.13822032333802" lon="15.854904465576285"><ele>1597.4</ele><time>2026-04-24T14:38:31Z</time></trkpt><trkpt lat="38.1382525348307" lon="15.854997765263208"><ele>1593.8</ele><time>2026-04-24T14:38:32Z</time></trkpt><trkpt lat="38.13830429179215" lon="15.855092788750962"><ele>1590.2</ele><time>2026-04-24T14:38:33Z</time></trkpt><trkpt lat="38.138386532668356" lon="15.85520963032538"><ele>1586.6000000000001</ele><time>2026-04-24T14:38:34Z</time></trkpt><trkpt lat="38.13845974931022" lon="15.855359315839694"><ele>1583.0</ele><time>2026-04-24T14:38:35Z</time></trkpt><trkpt lat="38.1385110211548" lon="15.85547914319577"><ele>1583.0</ele><time>2026-04-24T14:38:36Z</time></trkpt><trkpt lat="38.13854413928783" lon="15.855570453989362"><ele>1583.0</ele><time>2026-04-24T14:38:37Z</time></trkpt><trkpt lat="38.1386746849114" lon="15.855592755431486"><ele>1583.0</ele><time>2026-04-24T14:38:38.999Z</time></trkpt><trkpt lat="38.13879569570078" lon="15.8555820321602"><ele>1583.0</ele><time>2026-04-24T14:38:39.999Z</time></trkpt><trkpt lat="38.1389136479978" lon="15.85561436944466"><ele>1583.0</ele><time>2026-04-24T14:38:40.999Z</time></trkpt><trkpt lat="38.139004778711254" lon="15.855658323196272"><ele>1583.0</ele><time>2026-04-24T14:38:41.999Z</time></trkpt><trkpt lat="38.13909658265243" lon="15.855592729565428"><ele>1583.0</ele><time>2026-04-24T14:38:43.999Z</time></trkpt><trkpt lat="38.139128239049555" lon="15.855427745759814"><ele>1583.0</ele><time>2026-04-24T14:38:45.999Z</time></trkpt><trkpt lat="38.13913560415241" lon="15.855290475793607"><ele>1583.0</ele><time>2026-04-24T14:38:46.999Z</time></trkpt><trkpt lat="38.13913787060677" lon="15.855162142435901"><ele>1577.6000000000001</ele><time>2026-04-24T14:38:47.999Z</time></trkpt><trkpt lat="38.13914779602443" lon="15.855013370369422"><ele>1572.2</ele><time>2026-04-24T14:38:48.999Z</time></trkpt><trkpt lat="38.139166300465625" lon="15.854886646651162"><ele>1566.8</ele><time>2026-04-24T14:38:49.999Z</time></trkpt><trkpt lat="38.13919854304407" lon="15.85476343046219"><ele>1561.4</ele><time>2026-04-24T14:38:50.999Z</time></trkpt><trkpt lat="38.13922669158748" lon="15.854656591440778"><ele>1556.0</ele><time>2026-04-24T14:38:51.999Z</time></trkpt><trkpt lat="38.139276139004764" lon="15.854559659076859"><ele>1556.0</ele><time>2026-04-24T14:38:52.999Z</time></trkpt><trkpt lat="38.13934253093238" lon="15.854472587437236"><ele>1556.0</ele><time>2026-04-24T14:38:53.999Z</time></trkpt><trkpt lat="38.13944163410699" lon="15.854392460891502"><ele>1556.0</ele><time>2026-04-24T14:38:54.999Z</time></trkpt><trkpt lat="38.13954839985316" lon="15.854305148803"><ele>1556.0</ele><time>2026-04-24T14:38:55.999Z</time></trkpt><trkpt lat="38.139649529728075" lon="15.854206169263659"><ele>1553.0</ele><time>2026-04-24T14:38:56.999Z</time></trkpt><trkpt lat="38.13973712444507" lon="15.854111356507286"><ele>1550.0</ele><time>2026-04-24T14:38:57.999Z</time></trkpt><trkpt lat="38.13981234472803" lon="15.854047690417092"><ele>1547.0</ele><time>2026-04-24T14:38:58.999Z</time></trkpt><trkpt lat="38.139891691287765" lon="15.854025850776377"><ele>1544.0</ele><time>2026-04-24T14:38:59.999Z</time></trkpt><trkpt lat="38.13997119513614" lon="15.854041302858999"><ele>1541.0</ele><time>2026-04-24T14:39:00.999Z</time></trkpt><trkpt lat="38.14005673323208" lon="15.854087865797517"><ele>1540.9999999999998</ele><time>2026-04-24T14:39:01.999Z</time></trkpt><trkpt lat="38.14015187062273" lon="15.854132124036829"><ele>1541.0</ele><time>2026-04-24T14:39:02.999Z</time></trkpt><trkpt lat="38.140239659855766" lon="15.85412535779261"><ele>1541.0</ele><time>2026-04-24T14:39:03.999Z</time></trkpt><trkpt lat="38.14030364959446" lon="15.854105296893684"><ele>1541.0</ele><time>2026-04-24T14:39:04.999Z</time></trkpt><trkpt lat="38.140363654012155" lon="15.853983811699091"><ele>1540.9999999999998</ele><time>2026-04-24T14:39:06.999Z</time></trkpt><trkpt lat="38.1403573701849" lon="15.85389395114315"><ele>1541.0</ele><time>2026-04-24T14:39:07.999Z</time></trkpt><trkpt lat="38.14032701182161" lon="15.853780094825074"><ele>1540.9999999999998</ele><time>2026-04-24T14:39:08.999Z</time></trkpt><trkpt lat="38.140284302560225" lon="15.853666654635646"><ele>1541.0</ele><time>2026-04-24T14:39:09.999Z</time></trkpt><trkpt lat="38.14027031702381" lon="15.853567415991694"><ele>1541.0</ele><time>2026-04-24T14:39:10.999Z</time></trkpt><trkpt lat="38.140304039420165" lon="15.853493479453391"><ele>1541.0</ele><time>2026-04-24T14:39:11.999Z</time></trkpt><trkpt lat="38.14036871896693" lon="15.853426638989287"><ele>1540.9999999999998</ele><time>2026-04-24T14:39:12.999Z</time></trkpt><trkpt lat="38.140458589382966" lon="15.85338529993707"><ele>1541.0</ele><time>2026-04-24T14:39:13.999Z</time></trkpt><trkpt lat="38.14052784263447" lon="15.853339391499915"><ele>1534.75</ele><time>2026-04-24T14:39:14.999Z</time></trkpt><trkpt lat="38.140574119736854" lon="15.853162078247456"><ele>1528.5</ele><time>2026-04-24T14:39:16.999Z</time></trkpt><trkpt lat="38.140551436107735" lon="15.853017881564263"><ele>1522.25</ele><time>2026-04-24T14:39:18Z</time></trkpt><trkpt lat="38.1405294364251" lon="15.852839315698898"><ele>1516.0</ele><time>2026-04-24T14:39:19Z</time></trkpt><trkpt lat="38.140543819974454" lon="15.85272261292287"><ele>1516.0</ele><time>2026-04-24T14:39:20Z</time></trkpt><trkpt lat="38.14059107303359" lon="15.85265457779519"><ele>1516.0</ele><time>2026-04-24T14:39:21Z</time></trkpt><trkpt lat="38.14066321092937" lon="15.852630558138626"><ele>1516.0</ele><time>2026-04-24T14:39:22Z</time></trkpt><trkpt lat="38.14076773196069" lon="15.852613966014765"><ele>1516.0</ele><time>2026-04-24T14:39:23Z</time></trkpt><trkpt lat="38.140887457385205" lon="15.852572383794806"><ele>1516.0</ele><time>2026-04-24T14:39:24Z</time></trkpt><trkpt lat="38.14099289389856" lon="15.852474494890503"><ele>1516.1666666666665</ele><time>2026-04-24T14:39:25Z</time></trkpt><trkpt lat="38.1410639909311" lon="15.85234742648661"><ele>1516.3333333333333</ele><time>2026-04-24T14:39:26Z</time></trkpt><trkpt lat="38.1410975467538" lon="15.852223618471697"><ele>1516.5</ele><time>2026-04-24T14:39:27Z</time></trkpt><trkpt lat="38.141097664263015" lon="15.85212488803595"><ele>1516.6666666666667</ele><time>2026-04-24T14:39:28Z</time></trkpt><trkpt lat="38.1410565790869" lon="15.85205538732956"><ele>1516.8333333333335</ele><time>2026-04-24T14:39:29Z</time></trkpt><trkpt lat="38.140988445144" lon="15.85203743853109"><ele>1517.0</ele><time>2026-04-24T14:39:30Z</time></trkpt><trkpt lat="38.140927578224364" lon="15.852069786263394"><ele>1517.0</ele><time>2026-04-24T14:39:31Z</time></trkpt><trkpt lat="38.14089295180382" lon="15.852142792871959"><ele>1517.0</ele><time>2026-04-24T14:39:32Z</time></trkpt><trkpt lat="38.140886232179724" lon="15.852231917465016"><ele>1517.0</ele><time>2026-04-24T14:39:33Z</time></trkpt><trkpt lat="38.14085911476803" lon="15.852334552246388"><ele>1517.0</ele><time>2026-04-24T14:39:34Z</time></trkpt><trkpt lat="38.14080870507945" lon="15.852413122802087"><ele>1517.0</ele><time>2026-04-24T14:39:35Z</time></trkpt><trkpt lat="38.14074470021121" lon="15.852440395053623"><ele>1517.0</ele><time>2026-04-24T14:39:36Z</time></trkpt><trkpt lat="38.140659539741655" lon="15.852417158046192"><ele>1512.75</ele><time>2026-04-24T14:39:37Z</time></trkpt><trkpt lat="38.14055143645075" lon="15.852350776701254"><ele>1508.5</ele><time>2026-04-24T14:39:38Z</time></trkpt><trkpt lat="38.140422213831656" lon="15.85228294494172"><ele>1504.25</ele><time>2026-04-24T14:39:39Z</time></trkpt><trkpt lat="38.140304491322816" lon="15.852241904934964"><ele>1500.0</ele><time>2026-04-24T14:39:40Z</time></trkpt><trkpt lat="38.140201189781116" lon="15.85225054912867"><ele>1500.0</ele><time>2026-04-24T14:39:41Z</time></trkpt><trkpt lat="38.14011722605063" lon="15.852295075360562"><ele>1500.0</ele><time>2026-04-24T14:39:42Z</time></trkpt><trkpt lat="38.14005258839187" lon="15.85237833630313"><ele>1500.0</ele><time>2026-04-24T14:39:43Z</time></trkpt><trkpt lat="38.13999816180288" lon="15.852507124273647"><ele>1500.0</ele><time>2026-04-24T14:39:44Z</time></trkpt><trkpt lat="38.13992700410483" lon="15.85264126655322"><ele>1500.0</ele><time>2026-04-24T14:39:45Z</time></trkpt><trkpt lat="38.139849568882774" lon="15.852744703259129"><ele>1502.5</ele><time>2026-04-24T14:39:46Z</time></trkpt><trkpt lat="38.13976811211452" lon="15.852805332426824"><ele>1505.0</ele><time>2026-04-24T14:39:47Z</time></trkpt><trkpt lat="38.139695315494" lon="15.852820114573023"><ele>1507.5</ele><time>2026-04-24T14:39:48Z</time></trkpt><trkpt lat="38.13963702703949" lon="15.852783557272666"><ele>1510.0</ele><time>2026-04-24T14:39:49Z</time></trkpt><trkpt lat="38.13960659555632" lon="15.852699843664706"><ele>1512.5</ele><time>2026-04-24T14:39:50Z</time></trkpt><trkpt lat="38.139608659725546" lon="15.852610043147273"><ele>1515.0</ele><time>2026-04-24T14:39:51Z</time></trkpt><trkpt lat="38.13964866336302" lon="15.852518197130433"><ele>1515.0</ele><time>2026-04-24T14:39:52Z</time></trkpt><trkpt lat="38.1397168594657" lon="15.852451118964478"><ele>1515.0</ele><time>2026-04-24T14:39:53Z</time></trkpt><trkpt lat="38.13980458707685" lon="15.852379944130876"><ele>1515.0</ele><time>2026-04-24T14:39:54Z</time></trkpt><trkpt lat="38.13987745656731" lon="15.852250241128731"><ele>1515.0</ele><time>2026-04-24T14:39:55Z</time></trkpt><trkpt lat="38.1399177063205" lon="15.852098849180372"><ele>1515.0</ele><time>2026-04-24T14:39:56Z</time></trkpt><trkpt lat="38.13994742508245" lon="15.851969424645098"><ele>1511.25</ele><time>2026-04-24T14:39:57Z</time></trkpt><trkpt lat="38.14000875919691" lon="15.851867695723923"><ele>1507.5</ele><time>2026-04-24T14:39:58Z</time></trkpt><trkpt lat="38.14010540373985" lon="15.851813638616829"><ele>1503.75</ele><time>2026-04-24T14:39:59Z</time></trkpt><trkpt lat="38.14021260325111" lon="15.851728497130742"><ele>1500.0</ele><time>2026-04-24T14:40:00Z</time></trkpt><trkpt lat="38.140305819391656" lon="15.851625145011624"><ele>1498.25</ele><time>2026-04-24T14:40:01Z</time></trkpt><trkpt lat="38.140365315927255" lon="15.851483937028217"><ele>1496.5</ele><time>2026-04-24T14:40:02Z</time></trkpt><trkpt lat="38.14044696256376" lon="15.85132828795202"><ele>1494.75</ele><time>2026-04-24T14:40:03Z</time></trkpt><trkpt lat="38.14053945216841" lon="15.851184825038196"><ele>1493.0</ele><time>2026-04-24T14:40:04Z</time></trkpt><trkpt lat="38.14061132258211" lon="15.851080211510332"><ele>1493.0</ele><time>2026-04-24T14:40:05Z</time></trkpt><trkpt lat="38.14068915500996" lon="15.850996796053506"><ele>1493.0</ele><time>2026-04-24T14:40:06Z</time></trkpt><trkpt lat="38.14079995810131" lon="15.850947043662172"><ele>1493.0</ele><time>2026-04-24T14:40:07Z</time></trkpt><trkpt lat="38.14093989786621" lon="15.85092898991601"><ele>1493.0</ele><time>2026-04-24T14:40:08Z</time></trkpt><trkpt lat="38.14109139180939" lon="15.850910048878491"><ele>1488.75</ele><time>2026-04-24T14:40:09Z</time></trkpt><trkpt lat="38.14123994767908" lon="15.850900810763406"><ele>1484.5</ele><time>2026-04-24T14:40:10Z</time></trkpt><trkpt lat="38.14137089517588" lon="15.850885321239469"><ele>1480.25</ele><time>2026-04-24T14:40:11Z</time></trkpt><trkpt lat="38.14148029690031" lon="15.850885041523787"><ele>1476.0</ele><time>2026-04-24T14:40:12Z</time></trkpt><trkpt lat="38.14158700118646" lon="15.850933479924882"><ele>1477.0</ele><time>2026-04-24T14:40:13Z</time></trkpt><trkpt lat="38.14168540067499" lon="15.85102092079857"><ele>1478.0</ele><time>2026-04-24T14:40:14Z</time></trkpt><trkpt lat="38.141787952600346" lon="15.851148535561448"><ele>1479.0</ele><time>2026-04-24T14:40:15Z</time></trkpt><trkpt lat="38.141881291618915" lon="15.851258635539807"><ele>1480.0</ele><time>2026-04-24T14:40:16Z</time></trkpt><trkpt lat="38.14196077810518" lon="15.851327197502982"><ele>1480.0</ele><time>2026-04-24T14:40:17Z</time></trkpt><trkpt lat="38.1420728105361" lon="15.85130544272515"><ele>1480.0</ele><time>2026-04-24T14:40:19Z</time></trkpt><trkpt lat="38.14210411164118" lon="15.851139545992604"><ele>1480.0</ele><time>2026-04-24T14:40:21Z</time></trkpt><trkpt lat="38.14209759025978" lon="15.851004256588892"><ele>1480.0</ele><time>2026-04-24T14:40:22Z</time></trkpt><trkpt lat="38.142095673845" lon="15.850848113325307"><ele>1476.5</ele><time>2026-04-24T14:40:23Z</time></trkpt><trkpt lat="38.142117904380115" lon="15.85068654075409"><ele>1473.0</ele><time>2026-04-24T14:40:24Z</time></trkpt><trkpt lat="38.14213746115975" lon="15.850523114468746"><ele>1469.5</ele><time>2026-04-24T14:40:25Z</time></trkpt><trkpt lat="38.142155691238926" lon="15.850362341079427"><ele>1466.0</ele><time>2026-04-24T14:40:26Z</time></trkpt><trkpt lat="38.14216797045266" lon="15.850220793502242"><ele>1467.25</ele><time>2026-04-24T14:40:27Z</time></trkpt><trkpt lat="38.1421794508948" lon="15.850064782345928"><ele>1468.5</ele><time>2026-04-24T14:40:28Z</time></trkpt><trkpt lat="38.142178573105454" lon="15.849904657070253"><ele>1469.75</ele><time>2026-04-24T14:40:29Z</time></trkpt><trkpt lat="38.142167043549605" lon="15.849739701555183"><ele>1471.0</ele><time>2026-04-24T14:40:30Z</time></trkpt><trkpt lat="38.142159964325444" lon="15.849578814006126"><ele>1471.0</ele><time>2026-04-24T14:40:31Z</time></trkpt><trkpt lat="38.142155550306505" lon="15.849441928237702"><ele>1471.0</ele><time>2026-04-24T14:40:32Z</time></trkpt><trkpt lat="38.14216800658362" lon="15.849333475232612"><ele>1471.0</ele><time>2026-04-24T14:40:33Z</time></trkpt><trkpt lat="38.142219532324795" lon="15.849235096667448"><ele>1471.0</ele><time>2026-04-24T14:40:34Z</time></trkpt><trkpt lat="38.1423168781812" lon="15.84910646003764"><ele>1471.0</ele><time>2026-04-24T14:40:35Z</time></trkpt><trkpt lat="38.14239715901271" lon="15.84897113057049"><ele>1469.0</ele><time>2026-04-24T14:40:36Z</time></trkpt><trkpt lat="38.14246508205965" lon="15.84887714420998"><ele>1467.0</ele><time>2026-04-24T14:40:37Z</time></trkpt><trkpt lat="38.142542445621345" lon="15.848822510121884"><ele>1465.0</ele><time>2026-04-24T14:40:38Z</time></trkpt><trkpt lat="38.14263464156474" lon="15.848815225365243"><ele>1463.0</ele><time>2026-04-24T14:40:39Z</time></trkpt><trkpt lat="38.142739814392286" lon="15.848860493921116"><ele>1461.0</ele><time>2026-04-24T14:40:39.999Z</time></trkpt><trkpt lat="38.14285830726531" lon="15.848919690687497"><ele>1461.0</ele><time>2026-04-24T14:40:40.999Z</time></trkpt><trkpt lat="38.14298212201505" lon="15.848981008306152"><ele>1461.0</ele><time>2026-04-24T14:40:41.999Z</time></trkpt><trkpt lat="38.14310874820398" lon="15.84901670158544"><ele>1461.0</ele><time>2026-04-24T14:40:42.999Z</time></trkpt><trkpt lat="38.14320819611414" lon="15.849019466485027"><ele>1461.0</ele><time>2026-04-24T14:40:43.999Z</time></trkpt><trkpt lat="38.143304509153566" lon="15.849010799583569"><ele>1461.4</ele><time>2026-04-24T14:40:44.999Z</time></trkpt><trkpt lat="38.14337898479056" lon="15.848988710247134"><ele>1461.8</ele><time>2026-04-24T14:40:45.999Z</time></trkpt><trkpt lat="38.14344014857102" lon="15.848958532453729"><ele>1462.2</ele><time>2026-04-24T14:40:46.999Z</time></trkpt><trkpt lat="38.14348919486538" lon="15.848834340569068"><ele>1462.6000000000001</ele><time>2026-04-24T14:40:48.999Z</time></trkpt><trkpt lat="38.14346201638495" lon="15.848720183316045"><ele>1463.0</ele><time>2026-04-24T14:40:49.999Z</time></trkpt><trkpt lat="38.14341910553754" lon="15.848566029396958"><ele>1460.25</ele><time>2026-04-24T14:40:50.999Z</time></trkpt><trkpt lat="38.143383494540245" lon="15.848398346974053"><ele>1457.5</ele><time>2026-04-24T14:40:51.999Z</time></trkpt><trkpt lat="38.143372962741395" lon="15.848217738849527"><ele>1454.75</ele><time>2026-04-24T14:40:52.999Z</time></trkpt><trkpt lat="38.14338927776847" lon="15.84808334782204"><ele>1452.0</ele><time>2026-04-24T14:40:53.999Z</time></trkpt><trkpt lat="38.14337954865369" lon="15.847968275271786"><ele>1452.0</ele><time>2026-04-24T14:40:54.999Z</time></trkpt><trkpt lat="38.14331650410633" lon="15.847863978385305"><ele>1452.0</ele><time>2026-04-24T14:40:55.999Z</time></trkpt><trkpt lat="38.143225626610395" lon="15.847746740140156"><ele>1452.0</ele><time>2026-04-24T14:40:56.999Z</time></trkpt><trkpt lat="38.143136261753675" lon="15.847595741909439"><ele>1452.0</ele><time>2026-04-24T14:40:57.999Z</time></trkpt><trkpt lat="38.1430510573095" lon="15.84744971853044"><ele>1452.0</ele><time>2026-04-24T14:40:58.999Z</time></trkpt><trkpt lat="38.1429993588177" lon="15.847330832549442"><ele>1452.0</ele><time>2026-04-24T14:40:59.999Z</time></trkpt><trkpt lat="38.14297458312327" lon="15.847221000965664"><ele>1452.0</ele><time>2026-04-24T14:41:00.999Z</time></trkpt><trkpt lat="38.14297221211226" lon="15.847099146462986"><ele>1452.0</ele><time>2026-04-24T14:41:01.999Z</time></trkpt><trkpt lat="38.14298141724388" lon="15.84695193539441"><ele>1452.0</ele><time>2026-04-24T14:41:02.999Z</time></trkpt><trkpt lat="38.14297898601153" lon="15.846806459631503"><ele>1450.25</ele><time>2026-04-24T14:41:03.999Z</time></trkpt><trkpt lat="38.1429225044134" lon="15.846578107517649"><ele>1448.5</ele><time>2026-04-24T14:41:04.999Z</time></trkpt><trkpt lat="38.14289260562077" lon="15.846433995600755"><ele>1446.75</ele><time>2026-04-24T14:41:05.999Z</time></trkpt><trkpt lat="38.14288018054594" lon="15.846296557495714"><ele>1445.0</ele><time>2026-04-24T14:41:06.999Z</time></trkpt><trkpt lat="38.14289208069336" lon="15.846148454748171"><ele>1445.0</ele><time>2026-04-24T14:41:07.999Z</time></trkpt><trkpt lat="38.14291993302692" lon="15.845976213822688"><ele>1445.0</ele><time>2026-04-24T14:41:08.999Z</time></trkpt><trkpt lat="38.14293108917462" lon="15.845796615853859"><ele>1445.0</ele><time>2026-04-24T14:41:09.999Z</time></trkpt><trkpt lat="38.142937969228896" lon="15.845613337167384"><ele>1445.0</ele><time>2026-04-24T14:41:10.999Z</time></trkpt><trkpt lat="38.14295360825686" lon="15.845451788824384"><ele>1444.8</ele><time>2026-04-24T14:41:11.999Z</time></trkpt><trkpt lat="38.14298849753702" lon="15.845324954768365"><ele>1444.6</ele><time>2026-04-24T14:41:12.999Z</time></trkpt><trkpt lat="38.14304263393974" lon="15.84525009489695"><ele>1444.4</ele><time>2026-04-24T14:41:13.999Z</time></trkpt><trkpt lat="38.14313502563536" lon="15.845188527011047"><ele>1444.2</ele><time>2026-04-24T14:41:14.999Z</time></trkpt><trkpt lat="38.14326231538813" lon="15.845137111648157"><ele>1444.0</ele><time>2026-04-24T14:41:15.999Z</time></trkpt><trkpt lat="38.143372882736365" lon="15.845113146364863"><ele>1444.0</ele><time>2026-04-24T14:41:16.999Z</time></trkpt><trkpt lat="38.14344882749782" lon="15.845126566074928"><ele>1444.0</ele><time>2026-04-24T14:41:17.999Z</time></trkpt><trkpt lat="38.143531882692926" lon="15.845196655403678"><ele>1444.0</ele><time>2026-04-24T14:41:18.999Z</time></trkpt><trkpt lat="38.143635522133245" lon="15.845308452111258"><ele>1444.0</ele><time>2026-04-24T14:41:19.999Z</time></trkpt><trkpt lat="38.143736840886696" lon="15.845419792482131"><ele>1444.0</ele><time>2026-04-24T14:41:20.999Z</time></trkpt><trkpt lat="38.143819194183" lon="15.845543332208901"><ele>1444.0</ele><time>2026-04-24T14:41:21.999Z</time></trkpt><trkpt lat="38.14388402053878" lon="15.845641562148334"><ele>1444.0</ele><time>2026-04-24T14:41:23Z</time></trkpt><trkpt lat="38.14393777311869" lon="15.845708479871941"><ele>1444.0</ele><time>2026-04-24T14:41:24Z</time></trkpt><trkpt lat="38.144004672668814" lon="15.845703708521244"><ele>1444.0</ele><time>2026-04-24T14:41:25Z</time></trkpt><trkpt lat="38.1440578532531" lon="15.845649204931531"><ele>1444.0</ele><time>2026-04-24T14:41:26Z</time></trkpt><trkpt lat="38.14408727534822" lon="15.845557902767167"><ele>1444.0</ele><time>2026-04-24T14:41:27Z</time></trkpt><trkpt lat="38.144079564952214" lon="15.845447270202245"><ele>1444.0</ele><time>2026-04-24T14:41:28Z</time></trkpt><trkpt lat="38.144025009018215" lon="15.84534342051562"><ele>1444.0</ele><time>2026-04-24T14:41:29Z</time></trkpt><trkpt lat="38.1439513837568" lon="15.845235882457512"><ele>1444.0</ele><time>2026-04-24T14:41:30Z</time></trkpt><trkpt lat="38.143890315114724" lon="15.845122032230169"><ele>1444.0</ele><time>2026-04-24T14:41:31Z</time></trkpt><trkpt lat="38.14382590683029" lon="15.845008461022642"><ele>1444.0</ele><time>2026-04-24T14:41:32Z</time></trkpt><trkpt lat="38.143759318904884" lon="15.84489548223432"><ele>1438.75</ele><time>2026-04-24T14:41:33Z</time></trkpt><trkpt lat="38.14369639316126" lon="15.844775896511088"><ele>1433.5</ele><time>2026-04-24T14:41:34Z</time></trkpt><trkpt lat="38.14363515267314" lon="15.844650888151945"><ele>1428.25</ele><time>2026-04-24T14:41:35Z</time></trkpt><trkpt lat="38.143589232652374" lon="15.84450700465237"><ele>1423.0</ele><time>2026-04-24T14:41:36Z</time></trkpt><trkpt lat="38.143542715083896" lon="15.844353732791522"><ele>1422.2</ele><time>2026-04-24T14:41:37Z</time></trkpt><trkpt lat="38.143503726129666" lon="15.844213275044547"><ele>1421.4</ele><time>2026-04-24T14:41:38Z</time></trkpt><trkpt lat="38.14348590504022" lon="15.844088661505769"><ele>1420.6000000000001</ele><time>2026-04-24T14:41:39Z</time></trkpt><trkpt lat="38.143490248548645" lon="15.843980140022813"><ele>1419.8000000000002</ele><time>2026-04-24T14:41:40Z</time></trkpt><trkpt lat="38.14351650997898" lon="15.843871743340264"><ele>1419.0</ele><time>2026-04-24T14:41:41Z</time></trkpt><trkpt lat="38.14357674245608" lon="15.843761905502493"><ele>1419.0</ele><time>2026-04-24T14:41:42Z</time></trkpt><trkpt lat="38.14367306417295" lon="15.843654681542619"><ele>1419.0</ele><time>2026-04-24T14:41:43Z</time></trkpt><trkpt lat="38.143779241011515" lon="15.843494250464957"><ele>1419.0</ele><time>2026-04-24T14:41:44Z</time></trkpt><trkpt lat="38.143872146162195" lon="15.843357801555168"><ele>1419.0</ele><time>2026-04-24T14:41:45Z</time></trkpt><trkpt lat="38.143957699098664" lon="15.843213297369495"><ele>1417.0</ele><time>2026-04-24T14:41:46Z</time></trkpt><trkpt lat="38.144037829907" lon="15.843066629264435"><ele>1415.0</ele><time>2026-04-24T14:41:47Z</time></trkpt><trkpt lat="38.144108783391154" lon="15.842883135913473"><ele>1413.0</ele><time>2026-04-24T14:41:48Z</time></trkpt><trkpt lat="38.144173712269854" lon="15.842703440304705"><ele>1413.25</ele><time>2026-04-24T14:41:49Z</time></trkpt><trkpt lat="38.144231997765196" lon="15.842520044040889"><ele>1413.5</ele><time>2026-04-24T14:41:50Z</time></trkpt><trkpt lat="38.14428561935523" lon="15.84236544017924"><ele>1413.75</ele><time>2026-04-24T14:41:51Z</time></trkpt><trkpt lat="38.14432462382156" lon="15.842207251444755"><ele>1414.0</ele><time>2026-04-24T14:41:52Z</time></trkpt><trkpt lat="38.14434441993581" lon="15.842035126397514"><ele>1414.0</ele><time>2026-04-24T14:41:53Z</time></trkpt><trkpt lat="38.14435160674521" lon="15.841844945510768"><ele>1414.0</ele><time>2026-04-24T14:41:54Z</time></trkpt><trkpt lat="38.144355074780464" lon="15.841670172019853"><ele>1414.0</ele><time>2026-04-24T14:41:55Z</time></trkpt><trkpt lat="38.144364436653625" lon="15.841523657931884"><ele>1414.0</ele><time>2026-04-24T14:41:56Z</time></trkpt><trkpt lat="38.14439633022349" lon="15.841420544310786"><ele>1411.6666666666665</ele><time>2026-04-24T14:41:57Z</time></trkpt><trkpt lat="38.144443516497155" lon="15.84135074875991"><ele>1409.3333333333333</ele><time>2026-04-24T14:41:58Z</time></trkpt><trkpt lat="38.14452970484563" lon="15.841327895801877"><ele>1407.0</ele><time>2026-04-24T14:41:59Z</time></trkpt><trkpt lat="38.144629331618845" lon="15.841313324717927"><ele>1404.6666666666667</ele><time>2026-04-24T14:42:00Z</time></trkpt><trkpt lat="38.14470378001927" lon="15.84128102780549"><ele>1402.3333333333335</ele><time>2026-04-24T14:42:01Z</time></trkpt><trkpt lat="38.14471795513522" lon="15.841202678338666"><ele>1400.0</ele><time>2026-04-24T14:42:02Z</time></trkpt><trkpt lat="38.14470456369052" lon="15.841084577195556"><ele>1398.8</ele><time>2026-04-24T14:42:03Z</time></trkpt><trkpt lat="38.14466544414357" lon="15.840960456258536"><ele>1397.6</ele><time>2026-04-24T14:42:04Z</time></trkpt><trkpt lat="38.14465641286431" lon="15.840826071825242"><ele>1396.4</ele><time>2026-04-24T14:42:05Z</time></trkpt><trkpt lat="38.144693726784446" lon="15.840724165688968"><ele>1395.2</ele><time>2026-04-24T14:42:06Z</time></trkpt><trkpt lat="38.14476483345596" lon="15.840649211354176"><ele>1394.0</ele><time>2026-04-24T14:42:07Z</time></trkpt><trkpt lat="38.144854124734856" lon="15.8405777261857"><ele>1394.0</ele><time>2026-04-24T14:42:08Z</time></trkpt><trkpt lat="38.14490616657708" lon="15.840503430209505"><ele>1394.0</ele><time>2026-04-24T14:42:09Z</time></trkpt><trkpt lat="38.14493657274896" lon="15.840421665575864"><ele>1394.0</ele><time>2026-04-24T14:42:10Z</time></trkpt><trkpt lat="38.144924323307485" lon="15.840324742085562"><ele>1394.0</ele><time>2026-04-24T14:42:11Z</time></trkpt><trkpt lat="38.144878170256824" lon="15.840241107906227"><ele>1394.0</ele><time>2026-04-24T14:42:12Z</time></trkpt><trkpt lat="38.14480955717369" lon="15.840143367742735"><ele>1394.0</ele><time>2026-04-24T14:42:13Z</time></trkpt><trkpt lat="38.14473863183264" lon="15.839989690342954"><ele>1392.4</ele><time>2026-04-24T14:42:14Z</time></trkpt><trkpt lat="38.14470520638086" lon="15.839837364541001"><ele>1390.8000000000002</ele><time>2026-04-24T14:42:15Z</time></trkpt><trkpt lat="38.14469771080683" lon="15.839710553562723"><ele>1389.1999999999998</ele><time>2026-04-24T14:42:16Z</time></trkpt><trkpt lat="38.144715349702636" lon="15.839583097341515"><ele>1387.6</ele><time>2026-04-24T14:42:17Z</time></trkpt><trkpt lat="38.14476061094774" lon="15.839468591365687"><ele>1386.0</ele><time>2026-04-24T14:42:18Z</time></trkpt><trkpt lat="38.14487493751677" lon="15.83935619903776"><ele>1388.4</ele><time>2026-04-24T14:42:19Z</time></trkpt><trkpt lat="38.144963603723845" lon="15.839229106764282"><ele>1390.8</ele><time>2026-04-24T14:42:20Z</time></trkpt><trkpt lat="38.14502864338009" lon="15.839120147205508"><ele>1393.2</ele><time>2026-04-24T14:42:21Z</time></trkpt><trkpt lat="38.145072525278025" lon="15.839016330134047"><ele>1395.6000000000001</ele><time>2026-04-24T14:42:22Z</time></trkpt><trkpt lat="38.14510580553618" lon="15.83892120163326"><ele>1398.0</ele><time>2026-04-24T14:42:23Z</time></trkpt><trkpt lat="38.14512354426906" lon="15.838826951752605"><ele>1398.0</ele><time>2026-04-24T14:42:24Z</time></trkpt><trkpt lat="38.14510993483509" lon="15.838695584755012"><ele>1398.0</ele><time>2026-04-24T14:42:25Z</time></trkpt><trkpt lat="38.14508994149758" lon="15.838561885510542"><ele>1398.0</ele><time>2026-04-24T14:42:26Z</time></trkpt><trkpt lat="38.14510785344724" lon="15.838433081305197"><ele>1398.0</ele><time>2026-04-24T14:42:27Z</time></trkpt><trkpt lat="38.14514393239707" lon="15.838304094566086"><ele>1398.0</ele><time>2026-04-24T14:42:28Z</time></trkpt><trkpt lat="38.14521001534938" lon="15.83817130892191"><ele>1394.75</ele><time>2026-04-24T14:42:29Z</time></trkpt><trkpt lat="38.14527052535781" lon="15.838048613027745"><ele>1391.5</ele><time>2026-04-24T14:42:30Z</time></trkpt><trkpt lat="38.14534821855685" lon="15.837933911250005"><ele>1388.25</ele><time>2026-04-24T14:42:31Z</time></trkpt><trkpt lat="38.14542700951711" lon="15.837806629841124"><ele>1385.0</ele><time>2026-04-24T14:42:32Z</time></trkpt><trkpt lat="38.145503045358005" lon="15.837696451556"><ele>1382.8333333333335</ele><time>2026-04-24T14:42:33Z</time></trkpt><trkpt lat="38.14557071450979" lon="15.837609050632379"><ele>1380.6666666666667</ele><time>2026-04-24T14:42:34Z</time></trkpt><trkpt lat="38.145630588427615" lon="15.837556598542983"><ele>1378.5</ele><time>2026-04-24T14:42:34.999Z</time></trkpt><trkpt lat="38.14567757883596" lon="15.83744074619706"><ele>1376.3333333333333</ele><time>2026-04-24T14:42:36.999Z</time></trkpt><trkpt lat="38.145654984987104" lon="15.837356825411861"><ele>1374.1666666666665</ele><time>2026-04-24T14:42:37.999Z</time></trkpt><trkpt lat="38.14561940233201" lon="15.837273059634455"><ele>1372.0</ele><time>2026-04-24T14:42:38.999Z</time></trkpt><trkpt lat="38.145571799245154" lon="15.837155212704417"><ele>1372.0</ele><time>2026-04-24T14:42:39.999Z</time></trkpt><trkpt lat="38.14555613858862" lon="15.837037287260673"><ele>1372.0</ele><time>2026-04-24T14:42:40.999Z</time></trkpt><trkpt lat="38.145559203298205" lon="15.836897233316174"><ele>1372.0</ele><time>2026-04-24T14:42:41.999Z</time></trkpt><trkpt lat="38.14558022559471" lon="15.836762331242909"><ele>1372.0</ele><time>2026-04-24T14:42:42.999Z</time></trkpt><trkpt lat="38.14560590877396" lon="15.836628926107663"><ele>1372.0</ele><time>2026-04-24T14:42:43.999Z</time></trkpt><trkpt lat="38.14567102212181" lon="15.836490232607229"><ele>1371.75</ele><time>2026-04-24T14:42:44.999Z</time></trkpt><trkpt lat="38.14571754373499" lon="15.836353057670662"><ele>1371.5</ele><time>2026-04-24T14:42:45.999Z</time></trkpt><trkpt lat="38.145764989250075" lon="15.836214160492394"><ele>1371.25</ele><time>2026-04-24T14:42:46.999Z</time></trkpt><trkpt lat="38.14584423139978" lon="15.836009025430174"><ele>1371.0</ele><time>2026-04-24T14:42:47.999Z</time></trkpt><trkpt lat="38.145915298431994" lon="15.835897459375271"><ele>1371.0</ele><time>2026-04-24T14:42:48.999Z</time></trkpt><trkpt lat="38.145987219951174" lon="15.835802176706746"><ele>1371.0</ele><time>2026-04-24T14:42:49.999Z</time></trkpt><trkpt lat="38.14607947091418" lon="15.8357329994679"><ele>1371.0</ele><time>2026-04-24T14:42:50.999Z</time></trkpt><trkpt lat="38.14619088756367" lon="15.835680595467483"><ele>1371.0</ele><time>2026-04-24T14:42:51.999Z</time></trkpt><trkpt lat="38.1462813570255" lon="15.83561288307929"><ele>1371.0</ele><time>2026-04-24T14:42:52.999Z</time></trkpt><trkpt lat="38.14634536813926" lon="15.83553789837469"><ele>1371.0</ele><time>2026-04-24T14:42:53.999Z</time></trkpt><trkpt lat="38.146378296955056" lon="15.835398263448202"><ele>1371.0</ele><time>2026-04-24T14:42:54.999Z</time></trkpt><trkpt lat="38.14642702919678" lon="15.835253108870138"><ele>1371.0</ele><time>2026-04-24T14:42:55.999Z</time></trkpt><trkpt lat="38.14648768797381" lon="15.835060141902721"><ele>1371.0</ele><time>2026-04-24T14:42:56.999Z</time></trkpt><trkpt lat="38.14652865633474" lon="15.834907553396794"><ele>1372.8</ele><time>2026-04-24T14:42:57.999Z</time></trkpt><trkpt lat="38.146565647603914" lon="15.834771518388534"><ele>1374.6</ele><time>2026-04-24T14:42:58.999Z</time></trkpt><trkpt lat="38.146612379161326" lon="15.834654285125058"><ele>1376.4</ele><time>2026-04-24T14:42:59.999Z</time></trkpt><trkpt lat="38.146665710796746" lon="15.834551120223832"><ele>1378.2</ele><time>2026-04-24T14:43:00.999Z</time></trkpt><trkpt lat="38.146754321399406" lon="15.834443335293034"><ele>1380.0</ele><time>2026-04-24T14:43:01.999Z</time></trkpt><trkpt lat="38.14686852150399" lon="15.834327982075036"><ele>1375.6</ele><time>2026-04-24T14:43:02.999Z</time></trkpt><trkpt lat="38.14697896159308" lon="15.834232719914514"><ele>1371.2</ele><time>2026-04-24T14:43:03.999Z</time></trkpt><trkpt lat="38.14707658634853" lon="15.834140539958428"><ele>1366.8000000000002</ele><time>2026-04-24T14:43:04.999Z</time></trkpt><trkpt lat="38.147147828510256" lon="15.834050929681755"><ele>1362.4</ele><time>2026-04-24T14:43:05.999Z</time></trkpt><trkpt lat="38.14719480670485" lon="15.833948016866712"><ele>1358.0</ele><time>2026-04-24T14:43:06.999Z</time></trkpt><trkpt lat="38.14722414746224" lon="15.833828014801393"><ele>1358.0</ele><time>2026-04-24T14:43:07.999Z</time></trkpt><trkpt lat="38.147247726085325" lon="15.833687542561806"><ele>1358.0</ele><time>2026-04-24T14:43:08.999Z</time></trkpt><trkpt lat="38.14727347243375" lon="15.83353456268155"><ele>1358.0</ele><time>2026-04-24T14:43:09.999Z</time></trkpt><trkpt lat="38.14730906270122" lon="15.833392058033203"><ele>1358.0</ele><time>2026-04-24T14:43:10.999Z</time></trkpt><trkpt lat="38.14737271000862" lon="15.833261281133701"><ele>1360.75</ele><time>2026-04-24T14:43:11.999Z</time></trkpt><trkpt lat="38.14742944342727" lon="15.833113946835603"><ele>1363.5</ele><time>2026-04-24T14:43:12.999Z</time></trkpt><trkpt lat="38.1475046765899" lon="15.8329722203781"><ele>1366.25</ele><time>2026-04-24T14:43:13.999Z</time></trkpt><trkpt lat="38.147591592757365" lon="15.832870506240358"><ele>1369.0</ele><time>2026-04-24T14:43:14.999Z</time></trkpt><trkpt lat="38.147690940532314" lon="15.832755774553869"><ele>1369.0</ele><time>2026-04-24T14:43:15.999Z</time></trkpt><trkpt lat="38.147795253284755" lon="15.832645398691959"><ele>1369.0</ele><time>2026-04-24T14:43:16.999Z</time></trkpt><trkpt lat="38.14791073632751" lon="15.832533080415018"><ele>1369.0</ele><time>2026-04-24T14:43:17.999Z</time></trkpt><trkpt lat="38.148023075305105" lon="15.832444385667003"><ele>1369.0</ele><time>2026-04-24T14:43:18.999Z</time></trkpt><trkpt lat="38.14812310148285" lon="15.832406165864517"><ele>1367.5</ele><time>2026-04-24T14:43:19.999Z</time></trkpt><trkpt lat="38.148217069468274" lon="15.83237312116985"><ele>1366.0</ele><time>2026-04-24T14:43:20.999Z</time></trkpt><trkpt lat="38.14828655867135" lon="15.832332134133784"><ele>1364.5</ele><time>2026-04-24T14:43:21.999Z</time></trkpt><trkpt lat="38.148342601476614" lon="15.832269494497817"><ele>1363.0</ele><time>2026-04-24T14:43:22.999Z</time></trkpt><trkpt lat="38.148383215756354" lon="15.83219702654924"><ele>1361.5</ele><time>2026-04-24T14:43:23.999Z</time></trkpt><trkpt lat="38.148423999322716" lon="15.832085522656742"><ele>1360.0</ele><time>2026-04-24T14:43:24.999Z</time></trkpt><trkpt lat="38.14846516215478" lon="15.831970014139353"><ele>1360.0</ele><time>2026-04-24T14:43:25.999Z</time></trkpt><trkpt lat="38.148511655580315" lon="15.831845471850633"><ele>1360.0</ele><time>2026-04-24T14:43:26.999Z</time></trkpt><trkpt lat="38.14855833755677" lon="15.831722043801419"><ele>1360.0</ele><time>2026-04-24T14:43:27.999Z</time></trkpt><trkpt lat="38.148601814856576" lon="15.831607129755657"><ele>1360.0</ele><time>2026-04-24T14:43:29Z</time></trkpt><trkpt lat="38.14862220300992" lon="15.831508295204872"><ele>1360.0</ele><time>2026-04-24T14:43:30Z</time></trkpt><trkpt lat="38.14866562547236" lon="15.831449288641233"><ele>1357.8</ele><time>2026-04-24T14:43:31Z</time></trkpt><trkpt lat="38.14881134761042" lon="15.831383569239836"><ele>1355.6</ele><time>2026-04-24T14:43:33Z</time></trkpt><trkpt lat="38.14890974827891" lon="15.831365811042525"><ele>1353.4</ele><time>2026-04-24T14:43:34Z</time></trkpt><trkpt lat="38.1490049717691" lon="15.831389230713462"><ele>1351.2</ele><time>2026-04-24T14:43:35Z</time></trkpt><trkpt lat="38.149094893502266" lon="15.831390489605305"><ele>1349.0</ele><time>2026-04-24T14:43:36Z</time></trkpt><trkpt lat="38.14918656993424" lon="15.831463283538385"><ele>1350.0</ele><time>2026-04-24T14:43:37Z</time></trkpt><trkpt lat="38.1492744140291" lon="15.831560785900145"><ele>1351.0</ele><time>2026-04-24T14:43:38Z</time></trkpt><trkpt lat="38.149355360661936" lon="15.831676408412957"><ele>1352.0</ele><time>2026-04-24T14:43:39Z</time></trkpt><trkpt lat="38.14942842965455" lon="15.831791823048553"><ele>1353.0</ele><time>2026-04-24T14:43:40Z</time></trkpt><trkpt lat="38.1495109940643" lon="15.831878317437154"><ele>1353.0</ele><time>2026-04-24T14:43:41Z</time></trkpt><trkpt lat="38.14961668234849" lon="15.831919779083625"><ele>1353.0</ele><time>2026-04-24T14:43:42Z</time></trkpt><trkpt lat="38.14973311385954" lon="15.831957036810767"><ele>1353.0</ele><time>2026-04-24T14:43:43Z</time></trkpt><trkpt lat="38.149864227198485" lon="15.831967753739635"><ele>1353.0</ele><time>2026-04-24T14:43:44Z</time></trkpt><trkpt lat="38.15000018458572" lon="15.831960437895622"><ele>1353.25</ele><time>2026-04-24T14:43:45Z</time></trkpt><trkpt lat="38.15012917170722" lon="15.831934380011754"><ele>1353.5</ele><time>2026-04-24T14:43:46Z</time></trkpt><trkpt lat="38.1502505711076" lon="15.831856829836868"><ele>1353.75</ele><time>2026-04-24T14:43:47Z</time></trkpt><trkpt lat="38.15037272853097" lon="15.83174943371324"><ele>1354.0</ele><time>2026-04-24T14:43:48Z</time></trkpt><trkpt lat="38.15047371514921" lon="15.831652871693674"><ele>1352.25</ele><time>2026-04-24T14:43:49Z</time></trkpt><trkpt lat="38.15058589889552" lon="15.831596431184769"><ele>1350.5</ele><time>2026-04-24T14:43:50Z</time></trkpt><trkpt lat="38.150704555525515" lon="15.831599442473552"><ele>1348.75</ele><time>2026-04-24T14:43:51Z</time></trkpt><trkpt lat="38.150810454717295" lon="15.831678339054452"><ele>1347.0</ele><time>2026-04-24T14:43:52Z</time></trkpt><trkpt lat="38.1509006343359" lon="15.831772666587163"><ele>1351.25</ele><time>2026-04-24T14:43:53Z</time></trkpt><trkpt lat="38.15101999494172" lon="15.83185967280294"><ele>1355.5</ele><time>2026-04-24T14:43:54Z</time></trkpt><trkpt lat="38.15112178706803" lon="15.831913476837093"><ele>1359.75</ele><time>2026-04-24T14:43:55Z</time></trkpt><trkpt lat="38.15122101154008" lon="15.831903317504088"><ele>1364.0</ele><time>2026-04-24T14:43:56Z</time></trkpt><trkpt lat="38.15133848743584" lon="15.831853598601864"><ele>1360.5</ele><time>2026-04-24T14:43:57Z</time></trkpt><trkpt lat="38.151453872668334" lon="15.831769650967338"><ele>1357.0</ele><time>2026-04-24T14:43:58Z</time></trkpt><trkpt lat="38.15156626171419" lon="15.831729914309177"><ele>1353.5</ele><time>2026-04-24T14:43:59Z</time></trkpt><trkpt lat="38.15167153197948" lon="15.831687273296362"><ele>1350.0</ele><time>2026-04-24T14:44:00Z</time></trkpt><trkpt lat="38.151767071276076" lon="15.831686262789509"><ele>1350.0</ele><time>2026-04-24T14:44:01Z</time></trkpt><trkpt lat="38.15187293979185" lon="15.831708240132533"><ele>1350.0</ele><time>2026-04-24T14:44:02Z</time></trkpt><trkpt lat="38.15203200336565" lon="15.831758927615432"><ele>1350.0</ele><time>2026-04-24T14:44:03Z</time></trkpt><trkpt lat="38.152207330098925" lon="15.831809073251247"><ele>1353.0</ele><time>2026-04-24T14:44:04Z</time></trkpt><trkpt lat="38.15238607766193" lon="15.831863244099015"><ele>1356.0</ele><time>2026-04-24T14:44:05Z</time></trkpt><trkpt lat="38.15256320207232" lon="15.831911957516477"><ele>1359.0</ele><time>2026-04-24T14:44:06Z</time></trkpt><trkpt lat="38.15275184463213" lon="15.831962988084022"><ele>1359.0</ele><time>2026-04-24T14:44:07Z</time></trkpt><trkpt lat="38.15293799881821" lon="15.83201623102325"><ele>1359.0</ele><time>2026-04-24T14:44:08Z</time></trkpt><trkpt lat="38.15311910396443" lon="15.832070668238273"><ele>1359.0</ele><time>2026-04-24T14:44:09Z</time></trkpt><trkpt lat="38.15329917146397" lon="15.832124793490019"><ele>1356.3333333333333</ele><time>2026-04-24T14:44:10Z</time></trkpt><trkpt lat="38.153477868531546" lon="15.832178506929328"><ele>1353.6666666666665</ele><time>2026-04-24T14:44:11Z</time></trkpt><trkpt lat="38.15364540987489" lon="15.832228570148176"><ele>1351.0</ele><time>2026-04-24T14:44:12Z</time></trkpt><trkpt lat="38.153798507356626" lon="15.832252454397178"><ele>1351.0</ele><time>2026-04-24T14:44:13Z</time></trkpt><trkpt lat="38.15394053872195" lon="15.832298689311031"><ele>1351.0</ele><time>2026-04-24T14:44:14Z</time></trkpt><trkpt lat="38.154079297791675" lon="15.83233766963506"><ele>1351.0</ele><time>2026-04-24T14:44:15Z</time></trkpt><trkpt lat="38.15420777761621" lon="15.832395307621082"><ele>1351.0</ele><time>2026-04-24T14:44:16Z</time></trkpt><trkpt lat="38.154332356961035" lon="15.832436262981947"><ele>1351.5</ele><time>2026-04-24T14:44:17Z</time></trkpt><trkpt lat="38.15446089858166" lon="15.832473711035076"><ele>1352.0</ele><time>2026-04-24T14:44:18Z</time></trkpt><trkpt lat="38.15458976273775" lon="15.832507855561454"><ele>1352.5</ele><time>2026-04-24T14:44:19Z</time></trkpt><trkpt lat="38.15471695286959" lon="15.83254174896138"><ele>1353.0</ele><time>2026-04-24T14:44:20Z</time></trkpt><trkpt lat="38.15483620299227" lon="15.832577259013565"><ele>1352.75</ele><time>2026-04-24T14:44:21Z</time></trkpt><trkpt lat="38.154949637546665" lon="15.832614470593278"><ele>1352.5</ele><time>2026-04-24T14:44:22Z</time></trkpt><trkpt lat="38.15507918686298" lon="15.832661239274131"><ele>1352.25</ele><time>2026-04-24T14:44:23Z</time></trkpt><trkpt lat="38.15522883211123" lon="15.832724454790833"><ele>1352.0</ele><time>2026-04-24T14:44:24Z</time></trkpt><trkpt lat="38.155385928716285" lon="15.832814860746392"><ele>1353.6666666666667</ele><time>2026-04-24T14:44:25Z</time></trkpt><trkpt lat="38.155543165581555" lon="15.832914112093993"><ele>1355.3333333333333</ele><time>2026-04-24T14:44:26Z</time></trkpt><trkpt lat="38.1556805865722" lon="15.83299947974824"><ele>1357.0</ele><time>2026-04-24T14:44:27Z</time></trkpt><trkpt lat="38.155813494327674" lon="15.833065068809812"><ele>1357.0</ele><time>2026-04-24T14:44:28Z</time></trkpt><trkpt lat="38.15593662081995" lon="15.833087200274509"><ele>1357.0</ele><time>2026-04-24T14:44:29Z</time></trkpt><trkpt lat="38.1560981302317" lon="15.833110596445472"><ele>1357.0</ele><time>2026-04-24T14:44:30Z</time></trkpt><trkpt lat="38.15626837651494" lon="15.833131239290271"><ele>1357.0</ele><time>2026-04-24T14:44:31Z</time></trkpt><trkpt lat="38.15644496129858" lon="15.833151699900922"><ele>1357.0</ele><time>2026-04-24T14:44:32Z</time></trkpt><trkpt lat="38.15663508230011" lon="15.833170649730695"><ele>1357.0</ele><time>2026-04-24T14:44:33Z</time></trkpt><trkpt lat="38.15683623790863" lon="15.83320928603819"><ele>1356.6666666666665</ele><time>2026-04-24T14:44:34Z</time></trkpt><trkpt lat="38.15704870781831" lon="15.833231768901184"><ele>1356.3333333333333</ele><time>2026-04-24T14:44:35Z</time></trkpt><trkpt lat="38.15728078968548" lon="15.833238134258426"><ele>1356.0</ele><time>2026-04-24T14:44:36Z</time></trkpt><trkpt lat="38.15750812940226" lon="15.833271124402154"><ele>1355.3333333333333</ele><time>2026-04-24T14:44:37Z</time></trkpt><trkpt lat="38.157732346297074" lon="15.833294972045026"><ele>1354.6666666666665</ele><time>2026-04-24T14:44:37.999Z</time></trkpt><trkpt lat="38.157951886517054" lon="15.833338825799085"><ele>1354.0</ele><time>2026-04-24T14:44:38.999Z</time></trkpt><trkpt lat="38.1581724101544" lon="15.833356460755022"><ele>1353.0</ele><time>2026-04-24T14:44:39.999Z</time></trkpt><trkpt lat="38.158391950597775" lon="15.833369017927717"><ele>1352.0</ele><time>2026-04-24T14:44:40.999Z</time></trkpt><trkpt lat="38.15861361153215" lon="15.833381635374826"><ele>1351.0</ele><time>2026-04-24T14:44:41.999Z</time></trkpt><trkpt lat="38.15883123173747" lon="15.83339045035903"><ele>1350.3333333333333</ele><time>2026-04-24T14:44:42.999Z</time></trkpt><trkpt lat="38.159048565360784" lon="15.833399252290198"><ele>1349.6666666666667</ele><time>2026-04-24T14:44:43.999Z</time></trkpt><trkpt lat="38.1592669467669" lon="15.83338967158652"><ele>1349.0</ele><time>2026-04-24T14:44:44.999Z</time></trkpt><trkpt lat="38.1594853554705" lon="15.833402141255434"><ele>1349.0</ele><time>2026-04-24T14:44:45.999Z</time></trkpt><trkpt lat="38.15970446156644" lon="15.83341689133554"><ele>1349.0</ele><time>2026-04-24T14:44:46.999Z</time></trkpt><trkpt lat="38.1599168364956" lon="15.833424429497034"><ele>1349.0</ele><time>2026-04-24T14:44:47.999Z</time></trkpt><trkpt lat="38.16011464124805" lon="15.833451996537068"><ele>1347.3333333333335</ele><time>2026-04-24T14:44:48.999Z</time></trkpt><trkpt lat="38.16029520725951" lon="15.833437488993384"><ele>1345.6666666666667</ele><time>2026-04-24T14:44:49.999Z</time></trkpt><trkpt lat="38.16045863078589" lon="15.833446824404183"><ele>1344.0</ele><time>2026-04-24T14:44:50.999Z</time></trkpt><trkpt lat="38.16060986106396" lon="15.83347145206826"><ele>1345.0</ele><time>2026-04-24T14:44:51.999Z</time></trkpt><trkpt lat="38.16075028107342" lon="15.833479992941648"><ele>1346.0</ele><time>2026-04-24T14:44:52.999Z</time></trkpt><trkpt lat="38.16086350163567" lon="15.83349314532085"><ele>1347.0</ele><time>2026-04-24T14:44:53.999Z</time></trkpt><trkpt lat="38.160958153346805" lon="15.833510254496895"><ele>1348.0</ele><time>2026-04-24T14:44:54.999Z</time></trkpt><trkpt lat="38.16103254979516" lon="15.83358042369861"><ele>1349.0</ele><time>2026-04-24T14:44:55.999Z</time></trkpt><trkpt lat="38.16109915928358" lon="15.833697617179233"><ele>1349.0</ele><time>2026-04-24T14:44:56.999Z</time></trkpt><trkpt lat="38.161149589539406" lon="15.833846479087821"><ele>1349.0</ele><time>2026-04-24T14:44:57.999Z</time></trkpt><trkpt lat="38.161200036366886" lon="15.834007409315047"><ele>1349.0</ele><time>2026-04-24T14:44:58.999Z</time></trkpt><trkpt lat="38.161251068065084" lon="15.834165140145961"><ele>1349.0</ele><time>2026-04-24T14:44:59.999Z</time></trkpt><trkpt lat="38.16128913076655" lon="15.83431728355791"><ele>1347.75</ele><time>2026-04-24T14:45:00.999Z</time></trkpt><trkpt lat="38.16134356832732" lon="15.834464300072328"><ele>1346.5</ele><time>2026-04-24T14:45:01.999Z</time></trkpt><trkpt lat="38.16140852654857" lon="15.834589301789835"><ele>1345.25</ele><time>2026-04-24T14:45:02.999Z</time></trkpt><trkpt lat="38.16148018326948" lon="15.834698325089283"><ele>1344.0</ele><time>2026-04-24T14:45:03.999Z</time></trkpt><trkpt lat="38.16155193223029" lon="15.834797585389454"><ele>1344.0</ele><time>2026-04-24T14:45:04.999Z</time></trkpt><trkpt lat="38.16162011072516" lon="15.834898597656057"><ele>1344.0</ele><time>2026-04-24T14:45:05.999Z</time></trkpt><trkpt lat="38.16168158673453" lon="15.83500896142921"><ele>1344.0</ele><time>2026-04-24T14:45:06.999Z</time></trkpt><trkpt lat="38.16173573544055" lon="15.83513151850559"><ele>1344.0</ele><time>2026-04-24T14:45:07.999Z</time></trkpt><trkpt lat="38.16173406128862" lon="15.835287890522299"><ele>1344.0</ele><time>2026-04-24T14:45:08.999Z</time></trkpt><trkpt lat="38.16172744530693" lon="15.835440236104795"><ele>1343.5</ele><time>2026-04-24T14:45:09.999Z</time></trkpt><trkpt lat="38.161727261567805" lon="15.835595560619208"><ele>1343.0</ele><time>2026-04-24T14:45:10.999Z</time></trkpt><trkpt lat="38.16169806408105" lon="15.835733850737142"><ele>1342.5</ele><time>2026-04-24T14:45:11.999Z</time></trkpt><trkpt lat="38.16168266902762" lon="15.835878477529857"><ele>1342.0</ele><time>2026-04-24T14:45:12.999Z</time></trkpt><trkpt lat="38.16164450473795" lon="15.836032571795739"><ele>1341.6</ele><time>2026-04-24T14:45:13.999Z</time></trkpt><trkpt lat="38.16160849319878" lon="15.83617656981216"><ele>1341.1999999999998</ele><time>2026-04-24T14:45:14.999Z</time></trkpt><trkpt lat="38.16156239557909" lon="15.836294965752739"><ele>1340.8</ele><time>2026-04-24T14:45:15.999Z</time></trkpt><trkpt lat="38.161521681740815" lon="15.836406076346695"><ele>1340.4</ele><time>2026-04-24T14:45:16.999Z</time></trkpt><trkpt lat="38.16149720686006" lon="15.836508148557606"><ele>1340.0</ele><time>2026-04-24T14:45:17.999Z</time></trkpt><trkpt lat="38.16148288822079" lon="15.836601126796673"><ele>1340.0</ele><time>2026-04-24T14:45:18.999Z</time></trkpt><trkpt lat="38.161507607185506" lon="15.8366971388894"><ele>1340.0</ele><time>2026-04-24T14:45:19.999Z</time></trkpt><trkpt lat="38.16154873349438" lon="15.836768038316137"><ele>1340.0</ele><time>2026-04-24T14:45:20.999Z</time></trkpt><trkpt lat="38.16162650869626" lon="15.83680228265047"><ele>1340.0</ele><time>2026-04-24T14:45:21.999Z</time></trkpt><trkpt lat="38.16172917831913" lon="15.836797308317088"><ele>1340.0</ele><time>2026-04-24T14:45:22.999Z</time></trkpt><trkpt lat="38.16184852797662" lon="15.836775929412154"><ele>1340.0</ele><time>2026-04-24T14:45:23.999Z</time></trkpt><trkpt lat="38.161974360235114" lon="15.836736531671681"><ele>1340.0</ele><time>2026-04-24T14:45:24.999Z</time></trkpt><trkpt lat="38.162094493173846" lon="15.836665027680985"><ele>1340.0</ele><time>2026-04-24T14:45:25.999Z</time></trkpt><trkpt lat="38.162185335681386" lon="15.836554428363154"><ele>1340.0</ele><time>2026-04-24T14:45:26.999Z</time></trkpt><trkpt lat="38.16225315355625" lon="15.836422587932537"><ele>1340.0</ele><time>2026-04-24T14:45:27.999Z</time></trkpt><trkpt lat="38.162300142668705" lon="15.836262527234316"><ele>1340.0</ele><time>2026-04-24T14:45:28.999Z</time></trkpt><trkpt lat="38.162354378467946" lon="15.83611687188617"><ele>1340.0</ele><time>2026-04-24T14:45:29.999Z</time></trkpt><trkpt lat="38.16246050625867" lon="15.836021845554512"><ele>1340.0</ele><time>2026-04-24T14:45:30.999Z</time></trkpt><trkpt lat="38.1625815293699" lon="15.835912610358806"><ele>1336.0</ele><time>2026-04-24T14:45:31.999Z</time></trkpt><trkpt lat="38.16272807310857" lon="15.835741638235453"><ele>1332.0</ele><time>2026-04-24T14:45:32.999Z</time></trkpt><trkpt lat="38.16286122688121" lon="15.835510892583"><ele>1328.0</ele><time>2026-04-24T14:45:33.999Z</time></trkpt><trkpt lat="38.162975663194665" lon="15.835291043357477"><ele>1328.75</ele><time>2026-04-24T14:45:35Z</time></trkpt><trkpt lat="38.16306817800711" lon="15.835115735438121"><ele>1329.5</ele><time>2026-04-24T14:45:36Z</time></trkpt><trkpt lat="38.163140424980234" lon="15.834948106264433"><ele>1330.25</ele><time>2026-04-24T14:45:37Z</time></trkpt><trkpt lat="38.16322566821023" lon="15.834818011486815"><ele>1331.0</ele><time>2026-04-24T14:45:38Z</time></trkpt><trkpt lat="38.1633138326028" lon="15.83470871547388"><ele>1331.0</ele><time>2026-04-24T14:45:39Z</time></trkpt><trkpt lat="38.16343455099821" lon="15.834603224905837"><ele>1331.0</ele><time>2026-04-24T14:45:40Z</time></trkpt><trkpt lat="38.163587865230724" lon="15.834508606391031"><ele>1331.0</ele><time>2026-04-24T14:45:41Z</time></trkpt><trkpt lat="38.16376202005591" lon="15.834457179228858"><ele>1331.0</ele><time>2026-04-24T14:45:42Z</time></trkpt><trkpt lat="38.16396319423568" lon="15.834401111150823"><ele>1331.0</ele><time>2026-04-24T14:45:43Z</time></trkpt><trkpt lat="38.16414354239958" lon="15.834351834385988"><ele>1331.0</ele><time>2026-04-24T14:45:44Z</time></trkpt><trkpt lat="38.164304199291784" lon="15.834292373873637"><ele>1329.8</ele><time>2026-04-24T14:45:45Z</time></trkpt><trkpt lat="38.16444215178398" lon="15.834262171616922"><ele>1328.6</ele><time>2026-04-24T14:45:46Z</time></trkpt><trkpt lat="38.16455819449347" lon="15.834245120532698"><ele>1327.4</ele><time>2026-04-24T14:45:47Z</time></trkpt><trkpt lat="38.164654670610005" lon="15.834254700635876"><ele>1326.2</ele><time>2026-04-24T14:45:48Z</time></trkpt><trkpt lat="38.16473583058452" lon="15.83429592909272"><ele>1325.0</ele><time>2026-04-24T14:45:49Z</time></trkpt><trkpt lat="38.16480621440383" lon="15.83437465808722"><ele>1328.5</ele><time>2026-04-24T14:45:50Z</time></trkpt><trkpt lat="38.164849180303264" lon="15.83449296884219"><ele>1332.0</ele><time>2026-04-24T14:45:51Z</time></trkpt><trkpt lat="38.16484597932775" lon="15.834626378574994"><ele>1335.5</ele><time>2026-04-24T14:45:52Z</time></trkpt><trkpt lat="38.164845494375164" lon="15.834792922937222"><ele>1339.0</ele><time>2026-04-24T14:45:53Z</time></trkpt><trkpt lat="38.164843983019466" lon="15.834937195239425"><ele>1337.8000000000002</ele><time>2026-04-24T14:45:54Z</time></trkpt><trkpt lat="38.164873420147096" lon="15.835041030034322"><ele>1336.6000000000001</ele><time>2026-04-24T14:45:55Z</time></trkpt><trkpt lat="38.164936207976844" lon="15.835092979031849"><ele>1335.4</ele><time>2026-04-24T14:45:56Z</time></trkpt><trkpt lat="38.16504619695213" lon="15.835108007857666"><ele>1334.2</ele><time>2026-04-24T14:45:57Z</time></trkpt><trkpt lat="38.1651485491842" lon="15.835107705595025"><ele>1333.0</ele><time>2026-04-24T14:45:58Z</time></trkpt><trkpt lat="38.1652431196542" lon="15.835013028040319"><ele>1333.0</ele><time>2026-04-24T14:45:59Z</time></trkpt><trkpt lat="38.165323292641034" lon="15.83489525616999"><ele>1333.0</ele><time>2026-04-24T14:46:00Z</time></trkpt><trkpt lat="38.16541812284669" lon="15.834773456221807"><ele>1333.0</ele><time>2026-04-24T14:46:01Z</time></trkpt><trkpt lat="38.16556378582546" lon="15.834586356264714"><ele>1333.0</ele><time>2026-04-24T14:46:02Z</time></trkpt><trkpt lat="38.165663560076986" lon="15.834460397411728"><ele>1333.0</ele><time>2026-04-24T14:46:03Z</time></trkpt><trkpt lat="38.16573987053576" lon="15.834397534832187"><ele>1333.0</ele><time>2026-04-24T14:46:04Z</time></trkpt><trkpt lat="38.165833475045986" lon="15.834353917419614"><ele>1333.0</ele><time>2026-04-24T14:46:05Z</time></trkpt><trkpt lat="38.16595112277717" lon="15.834370887486505"><ele>1331.8000000000002</ele><time>2026-04-24T14:46:06Z</time></trkpt><trkpt lat="38.16604364690402" lon="15.834382112163581"><ele>1330.6</ele><time>2026-04-24T14:46:07Z</time></trkpt><trkpt lat="38.166138572264785" lon="15.834427577524202"><ele>1329.4</ele><time>2026-04-24T14:46:08Z</time></trkpt><trkpt lat="38.16623443098767" lon="15.834503402792228"><ele>1328.1999999999998</ele><time>2026-04-24T14:46:09Z</time></trkpt><trkpt lat="38.166336490664484" lon="15.834586142751592"><ele>1327.0</ele><time>2026-04-24T14:46:10Z</time></trkpt><trkpt lat="38.16643839652614" lon="15.83466929725551"><ele>1325.6</ele><time>2026-04-24T14:46:11Z</time></trkpt><trkpt lat="38.16653661974588" lon="15.834754231347496"><ele>1324.1999999999998</ele><time>2026-04-24T14:46:12Z</time></trkpt><trkpt lat="38.166631287897715" lon="15.834837241363882"><ele>1322.8</ele><time>2026-04-24T14:46:13Z</time></trkpt><trkpt lat="38.16671388487938" lon="15.834924942772576"><ele>1321.4</ele><time>2026-04-24T14:46:14Z</time></trkpt><trkpt lat="38.16678770883044" lon="15.835016448074601"><ele>1320.0</ele><time>2026-04-24T14:46:15Z</time></trkpt><trkpt lat="38.16685352232633" lon="15.835120497953332"><ele>1320.0</ele><time>2026-04-24T14:46:16Z</time></trkpt><trkpt lat="38.16691861185469" lon="15.835214704942928"><ele>1320.0</ele><time>2026-04-24T14:46:17Z</time></trkpt><trkpt lat="38.16698018601898" lon="15.835317209954685"><ele>1320.0</ele><time>2026-04-24T14:46:18Z</time></trkpt><trkpt lat="38.167035013761776" lon="15.8354201288438"><ele>1320.0</ele><time>2026-04-24T14:46:19Z</time></trkpt><trkpt lat="38.16708171184631" lon="15.83552144092805"><ele>1320.0</ele><time>2026-04-24T14:46:20Z</time></trkpt><trkpt lat="38.16711726480991" lon="15.835630492207779"><ele>1320.0</ele><time>2026-04-24T14:46:21Z</time></trkpt><trkpt lat="38.16716543690036" lon="15.835719114278625"><ele>1320.0</ele><time>2026-04-24T14:46:22Z</time></trkpt><trkpt lat="38.16720499495581" lon="15.835814835271686"><ele>1320.0</ele><time>2026-04-24T14:46:23Z</time></trkpt><trkpt lat="38.16722223069716" lon="15.835913681267069"><ele>1320.0</ele><time>2026-04-24T14:46:24Z</time></trkpt><trkpt lat="38.16722649316664" lon="15.83600904162971"><ele>1320.0</ele><time>2026-04-24T14:46:25Z</time></trkpt><trkpt lat="38.167208858214885" lon="15.836102070594391"><ele>1320.0</ele><time>2026-04-24T14:46:26Z</time></trkpt><trkpt lat="38.16716639973438" lon="15.83619814875602"><ele>1320.2</ele><time>2026-04-24T14:46:27Z</time></trkpt><trkpt lat="38.16709582080844" lon="15.836275482625387"><ele>1320.4</ele><time>2026-04-24T14:46:28Z</time></trkpt><trkpt lat="38.16700490102732" lon="15.836352831017553"><ele>1320.6</ele><time>2026-04-24T14:46:29Z</time></trkpt><trkpt lat="38.16691924819627" lon="15.836419494933093"><ele>1320.8</ele><time>2026-04-24T14:46:30Z</time></trkpt><trkpt lat="38.16684455860034" lon="15.836480611699166"><ele>1321.0</ele><time>2026-04-24T14:46:31Z</time></trkpt><trkpt lat="38.16677242618056" lon="15.836544124550404"><ele>1321.0</ele><time>2026-04-24T14:46:32Z</time></trkpt><trkpt lat="38.16671250054479" lon="15.836606968218428"><ele>1321.0</ele><time>2026-04-24T14:46:33Z</time></trkpt><trkpt lat="38.16663904301109" lon="15.836651876012859"><ele>1321.0</ele><time>2026-04-24T14:46:34Z</time></trkpt><trkpt lat="38.16658597396049" lon="15.836698140827185"><ele>1321.0</ele><time>2026-04-24T14:46:35Z</time></trkpt><trkpt lat="38.16650180061143" lon="15.836739035088426"><ele>1321.0</ele><time>2026-04-24T14:46:37Z</time></trkpt><trkpt lat="38.166673467519274" lon="15.836937487143798"><ele>1327.0</ele><time>2026-04-24T14:46:38Z</time></trkpt><trkpt lat="38.16674407280529" lon="15.836907866331615"><ele>1327.0</ele><time>2026-04-24T14:46:40.999Z</time></trkpt></trkseg></trk></gpx>